<?xml version='1.0' encoding='UTF-8'?><gpx version="1.1" creator="JPX - https://github.com/jenetics/jpx" xmlns="http://www.topografix.com/GPX/1/1"><trk><trkseg><trkpt lat="43.8870153" lon="5.7196583"><ele>483.0</ele><time>2026-04-10T07:52:56.892Z</time></trkpt><trkpt lat="43.8871415" lon="5.7196228"><ele>482.99999999999994</ele><time>2026-04-10T07:52:58.882Z</time></trkpt><trkpt lat="43.8872102" lon="5.7195927"><ele>482.99999999999994</ele><time>2026-04-10T07:52:59.879Z</time></trkpt><trkpt lat="43.8872891" lon="5.7195649"><ele>483.0</ele><time>2026-04-10T07:53:00.881Z</time></trkpt><trkpt lat="43.8873771" lon="5.7195349"><ele>483.0</ele><time>2026-04-10T07:53:01.884Z</time></trkpt><trkpt lat="43.8874719" lon="5.7195018"><ele>483.0</ele><time>2026-04-10T07:53:02.884Z</time></trkpt><trkpt lat="43.8875668" lon="5.7194647"><ele>482.99999999999994</ele><time>2026-04-10T07:53:03.882Z</time></trkpt><trkpt lat="43.8876637" lon="5.719433"><ele>482.99999999999994</ele><time>2026-04-10T07:53:04.881Z</time></trkpt><trkpt lat="43.8877723" lon="5.7193894"><ele>483.0</ele><time>2026-04-10T07:53:05.879Z</time></trkpt><trkpt lat="43.8878839" lon="5.7193483"><ele>483.0</ele><time>2026-04-10T07:53:06.88Z</time></trkpt><trkpt lat="43.8879942" lon="5.7193032"><ele>485.0</ele><time>2026-04-10T07:53:07.878Z</time></trkpt><trkpt lat="43.888098" lon="5.7192479"><ele>487.0</ele><time>2026-04-10T07:53:08.881Z</time></trkpt><trkpt lat="43.8881999" lon="5.7191614"><ele>489.0</ele><time>2026-04-10T07:53:09.881Z</time></trkpt><trkpt lat="43.8882933" lon="5.7190752"><ele>491.0</ele><time>2026-04-10T07:53:10.878Z</time></trkpt><trkpt lat="43.8883838" lon="5.7189822"><ele>491.20000000000005</ele><time>2026-04-10T07:53:11.883Z</time></trkpt><trkpt lat="43.8884759" lon="5.718896"><ele>491.40000000000003</ele><time>2026-04-10T07:53:12.883Z</time></trkpt><trkpt lat="43.8885721" lon="5.7188118"><ele>491.6</ele><time>2026-04-10T07:53:13.882Z</time></trkpt><trkpt lat="43.8886623" lon="5.7187331"><ele>491.8</ele><time>2026-04-10T07:53:14.88Z</time></trkpt><trkpt lat="43.8887563" lon="5.7186663"><ele>492.0</ele><time>2026-04-10T07:53:15.877Z</time></trkpt><trkpt lat="43.8888561" lon="5.7186052"><ele>493.25</ele><time>2026-04-10T07:53:16.883Z</time></trkpt><trkpt lat="43.888969" lon="5.7185591"><ele>494.5</ele><time>2026-04-10T07:53:17.881Z</time></trkpt><trkpt lat="43.8890841" lon="5.7185146"><ele>495.75</ele><time>2026-04-10T07:53:18.881Z</time></trkpt><trkpt lat="43.8892211" lon="5.7184665"><ele>497.0</ele><time>2026-04-10T07:53:19.88Z</time></trkpt><trkpt lat="43.889359" lon="5.7183979"><ele>497.66666666666663</ele><time>2026-04-10T07:53:20.877Z</time></trkpt><trkpt lat="43.8895019" lon="5.7183286"><ele>498.33333333333337</ele><time>2026-04-10T07:53:21.878Z</time></trkpt><trkpt lat="43.8896442" lon="5.7182607"><ele>499.0</ele><time>2026-04-10T07:53:22.877Z</time></trkpt><trkpt lat="43.8897898" lon="5.7181978"><ele>499.0</ele><time>2026-04-10T07:53:23.892Z</time></trkpt><trkpt lat="43.8899382" lon="5.7181504"><ele>499.0</ele><time>2026-04-10T07:53:24.88Z</time></trkpt><trkpt lat="43.8900849" lon="5.7181244"><ele>499.0</ele><time>2026-04-10T07:53:25.876Z</time></trkpt><trkpt lat="43.8902339" lon="5.7181067"><ele>502.0</ele><time>2026-04-10T07:53:26.879Z</time></trkpt><trkpt lat="43.8905163" lon="5.7181511"><ele>505.0</ele><time>2026-04-10T07:53:28.881Z</time></trkpt><trkpt lat="43.8906497" lon="5.7181974"><ele>508.0</ele><time>2026-04-10T07:53:29.879Z</time></trkpt><trkpt lat="43.8907782" lon="5.7182569"><ele>508.0</ele><time>2026-04-10T07:53:30.879Z</time></trkpt><trkpt lat="43.890882" lon="5.7183364"><ele>507.99999999999994</ele><time>2026-04-10T07:53:31.88Z</time></trkpt><trkpt lat="43.8909713" lon="5.7184183"><ele>507.99999999999994</ele><time>2026-04-10T07:53:32.877Z</time></trkpt><trkpt lat="43.8910626" lon="5.7184682"><ele>508.0</ele><time>2026-04-10T07:53:33.881Z</time></trkpt><trkpt lat="43.8911688" lon="5.7184986"><ele>508.0</ele><time>2026-04-10T07:53:34.881Z</time></trkpt><trkpt lat="43.8912804" lon="5.7185242"><ele>508.25</ele><time>2026-04-10T07:53:35.884Z</time></trkpt><trkpt lat="43.8913943" lon="5.7185262"><ele>508.5</ele><time>2026-04-10T07:53:36.88Z</time></trkpt><trkpt lat="43.8915312" lon="5.7184342"><ele>508.75</ele><time>2026-04-10T07:53:37.884Z</time></trkpt><trkpt lat="43.8916668" lon="5.7183872"><ele>509.0</ele><time>2026-04-10T07:53:38.882Z</time></trkpt><trkpt lat="43.8917948" lon="5.7183374"><ele>508.5</ele><time>2026-04-10T07:53:39.879Z</time></trkpt><trkpt lat="43.8919134" lon="5.7183021"><ele>508.0</ele><time>2026-04-10T07:53:40.878Z</time></trkpt><trkpt lat="43.8920362" lon="5.7182672"><ele>507.5</ele><time>2026-04-10T07:53:41.878Z</time></trkpt><trkpt lat="43.8921598" lon="5.7182313"><ele>507.0</ele><time>2026-04-10T07:53:42.877Z</time></trkpt><trkpt lat="43.8922854" lon="5.7181939"><ele>507.0</ele><time>2026-04-10T07:53:43.88Z</time></trkpt><trkpt lat="43.8924128" lon="5.7181575"><ele>507.0</ele><time>2026-04-10T07:53:44.878Z</time></trkpt><trkpt lat="43.8925453" lon="5.7181162"><ele>507.0</ele><time>2026-04-10T07:53:45.877Z</time></trkpt><trkpt lat="43.8927981" lon="5.7180518"><ele>506.75</ele><time>2026-04-10T07:53:47.881Z</time></trkpt><trkpt lat="43.8929241" lon="5.7180193"><ele>506.5</ele><time>2026-04-10T07:53:48.881Z</time></trkpt><trkpt lat="43.8930487" lon="5.7179954"><ele>506.25</ele><time>2026-04-10T07:53:49.881Z</time></trkpt><trkpt lat="43.8931762" lon="5.71796"><ele>506.0</ele><time>2026-04-10T07:53:50.885Z</time></trkpt><trkpt lat="43.8933056" lon="5.7179266"><ele>507.5</ele><time>2026-04-10T07:53:51.881Z</time></trkpt><trkpt lat="43.8934363" lon="5.717898"><ele>509.0</ele><time>2026-04-10T07:53:52.878Z</time></trkpt><trkpt lat="43.8935625" lon="5.7178722"><ele>510.5</ele><time>2026-04-10T07:53:53.882Z</time></trkpt><trkpt lat="43.8936878" lon="5.7178637"><ele>512.0</ele><time>2026-04-10T07:53:54.881Z</time></trkpt><trkpt lat="43.893813" lon="5.7178853"><ele>512.0</ele><time>2026-04-10T07:53:55.883Z</time></trkpt><trkpt lat="43.8939387" lon="5.7179293"><ele>512.0</ele><time>2026-04-10T07:53:56.882Z</time></trkpt><trkpt lat="43.894182" lon="5.7180282"><ele>512.0</ele><time>2026-04-10T07:53:58.886Z</time></trkpt><trkpt lat="43.8943001" lon="5.7180763"><ele>512.25</ele><time>2026-04-10T07:53:59.885Z</time></trkpt><trkpt lat="43.8944201" lon="5.7181279"><ele>512.5</ele><time>2026-04-10T07:54:00.881Z</time></trkpt><trkpt lat="43.8945424" lon="5.7181749"><ele>512.75</ele><time>2026-04-10T07:54:01.88Z</time></trkpt><trkpt lat="43.8946641" lon="5.7182001"><ele>513.0</ele><time>2026-04-10T07:54:02.878Z</time></trkpt><trkpt lat="43.8947839" lon="5.7182169"><ele>513.0</ele><time>2026-04-10T07:54:03.882Z</time></trkpt><trkpt lat="43.8949108" lon="5.718205"><ele>513.0</ele><time>2026-04-10T07:54:04.88Z</time></trkpt><trkpt lat="43.8950376" lon="5.7181695"><ele>513.0</ele><time>2026-04-10T07:54:05.887Z</time></trkpt><trkpt lat="43.8951637" lon="5.7181305"><ele>513.0</ele><time>2026-04-10T07:54:06.88Z</time></trkpt><trkpt lat="43.8953066" lon="5.7180785"><ele>511.25</ele><time>2026-04-10T07:54:07.879Z</time></trkpt><trkpt lat="43.8954472" lon="5.7180323"><ele>509.5</ele><time>2026-04-10T07:54:08.882Z</time></trkpt><trkpt lat="43.8955892" lon="5.7179868"><ele>507.75</ele><time>2026-04-10T07:54:09.879Z</time></trkpt><trkpt lat="43.8957205" lon="5.7179344"><ele>506.0</ele><time>2026-04-10T07:54:10.881Z</time></trkpt><trkpt lat="43.8958377" lon="5.7178579"><ele>507.25</ele><time>2026-04-10T07:54:11.88Z</time></trkpt><trkpt lat="43.8959471" lon="5.7177878"><ele>508.5</ele><time>2026-04-10T07:54:12.886Z</time></trkpt><trkpt lat="43.8960526" lon="5.7176006"><ele>509.75</ele><time>2026-04-10T07:54:13.88Z</time></trkpt><trkpt lat="43.8961531" lon="5.7174573"><ele>511.0</ele><time>2026-04-10T07:54:14.881Z</time></trkpt><trkpt lat="43.8962233" lon="5.7172947"><ele>511.0</ele><time>2026-04-10T07:54:15.884Z</time></trkpt><trkpt lat="43.8963111" lon="5.7171287"><ele>511.0</ele><time>2026-04-10T07:54:16.88Z</time></trkpt><trkpt lat="43.8963951" lon="5.7169681"><ele>511.0</ele><time>2026-04-10T07:54:17.882Z</time></trkpt><trkpt lat="43.8964805" lon="5.7168158"><ele>511.0</ele><time>2026-04-10T07:54:18.883Z</time></trkpt><trkpt lat="43.8965702" lon="5.7166588"><ele>512.6666666666667</ele><time>2026-04-10T07:54:19.882Z</time></trkpt><trkpt lat="43.8966628" lon="5.7165133"><ele>514.3333333333334</ele><time>2026-04-10T07:54:20.885Z</time></trkpt><trkpt lat="43.8967557" lon="5.7163534"><ele>516.0</ele><time>2026-04-10T07:54:21.884Z</time></trkpt><trkpt lat="43.8969615" lon="5.7160454"><ele>518.3333333333334</ele><time>2026-04-10T07:54:23.88Z</time></trkpt><trkpt lat="43.8970691" lon="5.7158924"><ele>520.6666666666667</ele><time>2026-04-10T07:54:24.879Z</time></trkpt><trkpt lat="43.897173" lon="5.7157223"><ele>523.0</ele><time>2026-04-10T07:54:25.882Z</time></trkpt><trkpt lat="43.8973202" lon="5.7156141"><ele>523.0</ele><time>2026-04-10T07:54:26.881Z</time></trkpt><trkpt lat="43.897456" lon="5.7154738"><ele>523.0</ele><time>2026-04-10T07:54:27.882Z</time></trkpt><trkpt lat="43.8975747" lon="5.7153681"><ele>523.0</ele><time>2026-04-10T07:54:28.884Z</time></trkpt><trkpt lat="43.8976954" lon="5.715288"><ele>523.0</ele><time>2026-04-10T07:54:29.884Z</time></trkpt><trkpt lat="43.8978347" lon="5.7152712"><ele>523.6666666666667</ele><time>2026-04-10T07:54:30.883Z</time></trkpt><trkpt lat="43.8979796" lon="5.7152519"><ele>524.3333333333334</ele><time>2026-04-10T07:54:31.886Z</time></trkpt><trkpt lat="43.8981291" lon="5.715379"><ele>525.0</ele><time>2026-04-10T07:54:32.887Z</time></trkpt><trkpt lat="43.8982941" lon="5.7154861"><ele>526.0</ele><time>2026-04-10T07:54:33.886Z</time></trkpt><trkpt lat="43.898461" lon="5.7155855"><ele>527.0</ele><time>2026-04-10T07:54:34.892Z</time></trkpt><trkpt lat="43.8986162" lon="5.7156523"><ele>528.0</ele><time>2026-04-10T07:54:35.886Z</time></trkpt><trkpt lat="43.8989277" lon="5.7157092"><ele>528.0</ele><time>2026-04-10T07:54:37.884Z</time></trkpt><trkpt lat="43.8990928" lon="5.7157192"><ele>528.0</ele><time>2026-04-10T07:54:38.885Z</time></trkpt><trkpt lat="43.8992554" lon="5.7157398"><ele>528.0</ele><time>2026-04-10T07:54:39.884Z</time></trkpt><trkpt lat="43.8994069" lon="5.7157698"><ele>529.0</ele><time>2026-04-10T07:54:40.883Z</time></trkpt><trkpt lat="43.8995606" lon="5.7157892"><ele>530.0</ele><time>2026-04-10T07:54:41.882Z</time></trkpt><trkpt lat="43.8997061" lon="5.7157798"><ele>531.0</ele><time>2026-04-10T07:54:42.885Z</time></trkpt><trkpt lat="43.8998451" lon="5.715748"><ele>532.0</ele><time>2026-04-10T07:54:43.883Z</time></trkpt><trkpt lat="43.8999776" lon="5.7156848"><ele>534.25</ele><time>2026-04-10T07:54:44.882Z</time></trkpt><trkpt lat="43.9001077" lon="5.7156086"><ele>536.5</ele><time>2026-04-10T07:54:45.889Z</time></trkpt><trkpt lat="43.9002394" lon="5.7155355"><ele>538.75</ele><time>2026-04-10T07:54:46.88Z</time></trkpt><trkpt lat="43.9003767" lon="5.7154633"><ele>541.0</ele><time>2026-04-10T07:54:47.879Z</time></trkpt><trkpt lat="43.900518" lon="5.7154"><ele>541.0</ele><time>2026-04-10T07:54:48.881Z</time></trkpt><trkpt lat="43.9008128" lon="5.715316"><ele>541.0</ele><time>2026-04-10T07:54:50.88Z</time></trkpt><trkpt lat="43.9009641" lon="5.7153026"><ele>542.3333333333334</ele><time>2026-04-10T07:54:51.882Z</time></trkpt><trkpt lat="43.9011207" lon="5.7153118"><ele>543.6666666666666</ele><time>2026-04-10T07:54:52.881Z</time></trkpt><trkpt lat="43.901274" lon="5.7153278"><ele>545.0</ele><time>2026-04-10T07:54:53.885Z</time></trkpt><trkpt lat="43.9014299" lon="5.7153547"><ele>545.0</ele><time>2026-04-10T07:54:54.884Z</time></trkpt><trkpt lat="43.9015918" lon="5.7153895"><ele>545.0</ele><time>2026-04-10T07:54:55.879Z</time></trkpt><trkpt lat="43.9017422" lon="5.7154377"><ele>545.0</ele><time>2026-04-10T07:54:56.883Z</time></trkpt><trkpt lat="43.9018725" lon="5.7155246"><ele>545.25</ele><time>2026-04-10T07:54:57.88Z</time></trkpt><trkpt lat="43.9019889" lon="5.7156164"><ele>545.5</ele><time>2026-04-10T07:54:58.887Z</time></trkpt><trkpt lat="43.9020998" lon="5.7156886"><ele>545.75</ele><time>2026-04-10T07:54:59.887Z</time></trkpt><trkpt lat="43.9021973" lon="5.7157303"><ele>546.0</ele><time>2026-04-10T07:55:00.89Z</time></trkpt><trkpt lat="43.902311" lon="5.7157547"><ele>546.0</ele><time>2026-04-10T07:55:01.886Z</time></trkpt><trkpt lat="43.9025219" lon="5.7157522"><ele>546.0</ele><time>2026-04-10T07:55:03.886Z</time></trkpt><trkpt lat="43.9026279" lon="5.7157296"><ele>546.0</ele><time>2026-04-10T07:55:04.879Z</time></trkpt><trkpt lat="43.9027342" lon="5.7157102"><ele>546.0</ele><time>2026-04-10T07:55:05.881Z</time></trkpt><trkpt lat="43.9028377" lon="5.7156834"><ele>546.5</ele><time>2026-04-10T07:55:06.882Z</time></trkpt><trkpt lat="43.9029451" lon="5.715658"><ele>547.0</ele><time>2026-04-10T07:55:07.88Z</time></trkpt><trkpt lat="43.9030542" lon="5.7156359"><ele>547.5</ele><time>2026-04-10T07:55:08.883Z</time></trkpt><trkpt lat="43.9031766" lon="5.7156027"><ele>548.0</ele><time>2026-04-10T07:55:09.882Z</time></trkpt><trkpt lat="43.9032836" lon="5.7155786"><ele>548.0</ele><time>2026-04-10T07:55:10.883Z</time></trkpt><trkpt lat="43.9034045" lon="5.7155018"><ele>548.0</ele><time>2026-04-10T07:55:11.888Z</time></trkpt><trkpt lat="43.903519" lon="5.7154247"><ele>548.0</ele><time>2026-04-10T07:55:12.885Z</time></trkpt><trkpt lat="43.9036267" lon="5.7153278"><ele>548.0</ele><time>2026-04-10T07:55:13.893Z</time></trkpt><trkpt lat="43.9037299" lon="5.7152203"><ele>548.25</ele><time>2026-04-10T07:55:14.891Z</time></trkpt><trkpt lat="43.9038222" lon="5.7151083"><ele>548.5</ele><time>2026-04-10T07:55:15.883Z</time></trkpt><trkpt lat="43.9039028" lon="5.7149842"><ele>548.75</ele><time>2026-04-10T07:55:16.883Z</time></trkpt><trkpt lat="43.9039775" lon="5.7148715"><ele>549.0</ele><time>2026-04-10T07:55:17.882Z</time></trkpt><trkpt lat="43.9040552" lon="5.7147484"><ele>549.0</ele><time>2026-04-10T07:55:18.882Z</time></trkpt><trkpt lat="43.9041167" lon="5.7146375"><ele>549.0</ele><time>2026-04-10T07:55:19.884Z</time></trkpt><trkpt lat="43.9041752" lon="5.7145262"><ele>549.0</ele><time>2026-04-10T07:55:20.881Z</time></trkpt><trkpt lat="43.904228" lon="5.7144286"><ele>549.0</ele><time>2026-04-10T07:55:21.887Z</time></trkpt><trkpt lat="43.9042805" lon="5.7143426"><ele>549.0</ele><time>2026-04-10T07:55:22.882Z</time></trkpt><trkpt lat="43.9043303" lon="5.7142575"><ele>549.0</ele><time>2026-04-10T07:55:23.884Z</time></trkpt><trkpt lat="43.9043718" lon="5.714172"><ele>549.1666666666666</ele><time>2026-04-10T07:55:24.887Z</time></trkpt><trkpt lat="43.9044167" lon="5.7140922"><ele>549.3333333333334</ele><time>2026-04-10T07:55:25.884Z</time></trkpt><trkpt lat="43.9044581" lon="5.7140183"><ele>549.5</ele><time>2026-04-10T07:55:26.88Z</time></trkpt><trkpt lat="43.9045222" lon="5.7138956"><ele>549.6666666666667</ele><time>2026-04-10T07:55:28.885Z</time></trkpt><trkpt lat="43.9045445" lon="5.713773"><ele>549.8333333333334</ele><time>2026-04-10T07:55:30.881Z</time></trkpt><trkpt lat="43.9045421" lon="5.7136849"><ele>550.0</ele><time>2026-04-10T07:55:32.886Z</time></trkpt><trkpt lat="43.9044715" lon="5.7136606"><ele>550.0</ele><time>2026-04-10T07:56:22.881Z</time></trkpt><trkpt lat="43.9043502" lon="5.7136011"><ele>550.0</ele><time>2026-04-10T07:56:24.887Z</time></trkpt><trkpt lat="43.9042723" lon="5.7135496"><ele>550.0</ele><time>2026-04-10T07:56:25.886Z</time></trkpt><trkpt lat="43.9041491" lon="5.7134859"><ele>550.0</ele><time>2026-04-10T07:56:26.883Z</time></trkpt><trkpt lat="43.9040202" lon="5.7134031"><ele>550.6666666666667</ele><time>2026-04-10T07:56:27.882Z</time></trkpt><trkpt lat="43.9038839" lon="5.7133161"><ele>551.3333333333334</ele><time>2026-04-10T07:56:28.884Z</time></trkpt><trkpt lat="43.903744" lon="5.7132281"><ele>552.0</ele><time>2026-04-10T07:56:29.887Z</time></trkpt><trkpt lat="43.9035971" lon="5.7131492"><ele>552.0</ele><time>2026-04-10T07:56:30.886Z</time></trkpt><trkpt lat="43.9034646" lon="5.7130728"><ele>552.0</ele><time>2026-04-10T07:56:31.883Z</time></trkpt><trkpt lat="43.9033228" lon="5.7130125"><ele>552.0</ele><time>2026-04-10T07:56:32.883Z</time></trkpt><trkpt lat="43.9031866" lon="5.7129538"><ele>552.0</ele><time>2026-04-10T07:56:33.886Z</time></trkpt><trkpt lat="43.9030606" lon="5.7128929"><ele>551.5</ele><time>2026-04-10T07:56:34.885Z</time></trkpt><trkpt lat="43.9029278" lon="5.7128286"><ele>551.0</ele><time>2026-04-10T07:56:35.884Z</time></trkpt><trkpt lat="43.9027998" lon="5.7127772"><ele>550.5</ele><time>2026-04-10T07:56:36.883Z</time></trkpt><trkpt lat="43.9026808" lon="5.7127176"><ele>550.0</ele><time>2026-04-10T07:56:37.887Z</time></trkpt><trkpt lat="43.9025598" lon="5.7126687"><ele>549.75</ele><time>2026-04-10T07:56:38.884Z</time></trkpt><trkpt lat="43.902434" lon="5.7126167"><ele>549.5</ele><time>2026-04-10T07:56:39.883Z</time></trkpt><trkpt lat="43.9022999" lon="5.7125575"><ele>549.25</ele><time>2026-04-10T07:56:40.885Z</time></trkpt><trkpt lat="43.9021589" lon="5.7125018"><ele>549.0</ele><time>2026-04-10T07:56:41.891Z</time></trkpt><trkpt lat="43.9020111" lon="5.7124369"><ele>549.0</ele><time>2026-04-10T07:56:42.883Z</time></trkpt><trkpt lat="43.9018687" lon="5.7123687"><ele>549.0</ele><time>2026-04-10T07:56:43.882Z</time></trkpt><trkpt lat="43.9017182" lon="5.7123012"><ele>549.0</ele><time>2026-04-10T07:56:44.881Z</time></trkpt><trkpt lat="43.9016019" lon="5.7122454"><ele>549.0</ele><time>2026-04-10T07:56:45.888Z</time></trkpt><trkpt lat="43.9014794" lon="5.7121795"><ele>549.25</ele><time>2026-04-10T07:56:46.887Z</time></trkpt><trkpt lat="43.9013492" lon="5.7121173"><ele>549.5</ele><time>2026-04-10T07:56:47.882Z</time></trkpt><trkpt lat="43.9012206" lon="5.712053"><ele>549.75</ele><time>2026-04-10T07:56:48.884Z</time></trkpt><trkpt lat="43.9010861" lon="5.7119855"><ele>550.0</ele><time>2026-04-10T07:56:49.885Z</time></trkpt><trkpt lat="43.9009514" lon="5.7119026"><ele>551.5</ele><time>2026-04-10T07:56:50.881Z</time></trkpt><trkpt lat="43.9008151" lon="5.7118189"><ele>553.0</ele><time>2026-04-10T07:56:51.883Z</time></trkpt><trkpt lat="43.9006941" lon="5.7117136"><ele>554.5</ele><time>2026-04-10T07:56:52.88Z</time></trkpt><trkpt lat="43.9005734" lon="5.7116143"><ele>556.0</ele><time>2026-04-10T07:56:53.883Z</time></trkpt><trkpt lat="43.9004686" lon="5.7115097"><ele>556.0</ele><time>2026-04-10T07:56:54.885Z</time></trkpt><trkpt lat="43.9003702" lon="5.7113866"><ele>556.0</ele><time>2026-04-10T07:56:55.884Z</time></trkpt><trkpt lat="43.9002918" lon="5.7112474"><ele>556.0</ele><time>2026-04-10T07:56:56.881Z</time></trkpt><trkpt lat="43.9002065" lon="5.711112"><ele>556.0</ele><time>2026-04-10T07:56:57.882Z</time></trkpt><trkpt lat="43.9001403" lon="5.7109875"><ele>554.75</ele><time>2026-04-10T07:56:58.886Z</time></trkpt><trkpt lat="43.9000699" lon="5.7108669"><ele>553.5</ele><time>2026-04-10T07:56:59.882Z</time></trkpt><trkpt lat="43.8999968" lon="5.7107498"><ele>552.25</ele><time>2026-04-10T07:57:00.881Z</time></trkpt><trkpt lat="43.8999196" lon="5.7106374"><ele>551.0</ele><time>2026-04-10T07:57:01.881Z</time></trkpt><trkpt lat="43.8998424" lon="5.7105202"><ele>551.0</ele><time>2026-04-10T07:57:02.881Z</time></trkpt><trkpt lat="43.8997618" lon="5.7104013"><ele>551.0</ele><time>2026-04-10T07:57:03.886Z</time></trkpt><trkpt lat="43.8996735" lon="5.7102961"><ele>551.0</ele><time>2026-04-10T07:57:04.883Z</time></trkpt><trkpt lat="43.8995736" lon="5.7101992"><ele>551.0</ele><time>2026-04-10T07:57:05.881Z</time></trkpt><trkpt lat="43.899474" lon="5.7101053"><ele>551.0</ele><time>2026-04-10T07:57:06.886Z</time></trkpt><trkpt lat="43.8993806" lon="5.7100096"><ele>551.0</ele><time>2026-04-10T07:57:07.884Z</time></trkpt><trkpt lat="43.89928" lon="5.7099238"><ele>551.0</ele><time>2026-04-10T07:57:08.884Z</time></trkpt><trkpt lat="43.8991631" lon="5.7098483"><ele>551.0</ele><time>2026-04-10T07:57:09.893Z</time></trkpt><trkpt lat="43.8990514" lon="5.7097613"><ele>551.0</ele><time>2026-04-10T07:57:10.896Z</time></trkpt><trkpt lat="43.898944" lon="5.7096746"><ele>551.0</ele><time>2026-04-10T07:57:11.886Z</time></trkpt><trkpt lat="43.8988387" lon="5.7095756"><ele>551.0</ele><time>2026-04-10T07:57:12.882Z</time></trkpt><trkpt lat="43.8987356" lon="5.709467"><ele>551.0</ele><time>2026-04-10T07:57:13.883Z</time></trkpt><trkpt lat="43.8986337" lon="5.7093431"><ele>551.75</ele><time>2026-04-10T07:57:14.883Z</time></trkpt><trkpt lat="43.8985388" lon="5.7092219"><ele>552.5</ele><time>2026-04-10T07:57:15.883Z</time></trkpt><trkpt lat="43.8984376" lon="5.7090934"><ele>553.25</ele><time>2026-04-10T07:57:16.882Z</time></trkpt><trkpt lat="43.8983424" lon="5.7089644"><ele>554.0</ele><time>2026-04-10T07:57:17.879Z</time></trkpt><trkpt lat="43.898253" lon="5.7088222"><ele>554.0</ele><time>2026-04-10T07:57:18.879Z</time></trkpt><trkpt lat="43.8981716" lon="5.7086742"><ele>554.0</ele><time>2026-04-10T07:57:19.884Z</time></trkpt><trkpt lat="43.8980979" lon="5.7085143"><ele>554.0</ele><time>2026-04-10T07:57:20.882Z</time></trkpt><trkpt lat="43.8980251" lon="5.708361"><ele>554.0</ele><time>2026-04-10T07:57:21.88Z</time></trkpt><trkpt lat="43.8979527" lon="5.7082233"><ele>555.2</ele><time>2026-04-10T07:57:22.881Z</time></trkpt><trkpt lat="43.8978756" lon="5.7081126"><ele>556.4</ele><time>2026-04-10T07:57:23.886Z</time></trkpt><trkpt lat="43.8977986" lon="5.7080035"><ele>557.6</ele><time>2026-04-10T07:57:24.885Z</time></trkpt><trkpt lat="43.8977175" lon="5.7078937"><ele>558.8</ele><time>2026-04-10T07:57:25.888Z</time></trkpt><trkpt lat="43.8976486" lon="5.7077821"><ele>560.0</ele><time>2026-04-10T07:57:26.884Z</time></trkpt><trkpt lat="43.8975747" lon="5.7076734"><ele>560.0</ele><time>2026-04-10T07:57:27.888Z</time></trkpt><trkpt lat="43.8974965" lon="5.70756"><ele>560.0</ele><time>2026-04-10T07:57:28.886Z</time></trkpt><trkpt lat="43.8974443" lon="5.7075086"><ele>560.0</ele><time>2026-04-10T07:57:29.888Z</time></trkpt><trkpt lat="43.897376" lon="5.7074879"><ele>560.0</ele><time>2026-04-10T07:57:31.879Z</time></trkpt><trkpt lat="43.8974705" lon="5.7075261"><ele>560.0</ele><time>2026-04-10T07:57:42.881Z</time></trkpt><trkpt lat="43.8975558" lon="5.7075347"><ele>560.0</ele><time>2026-04-10T07:57:45.881Z</time></trkpt><trkpt lat="43.8976065" lon="5.7074688"><ele>560.8333333333333</ele><time>2026-04-10T07:57:47.882Z</time></trkpt><trkpt lat="43.8976307" lon="5.707356"><ele>561.6666666666666</ele><time>2026-04-10T07:57:48.882Z</time></trkpt><trkpt lat="43.8976737" lon="5.7072812"><ele>562.5</ele><time>2026-04-10T07:57:49.882Z</time></trkpt><trkpt lat="43.8977139" lon="5.7071945"><ele>563.3333333333334</ele><time>2026-04-10T07:57:50.882Z</time></trkpt><trkpt lat="43.8977727" lon="5.7071061"><ele>564.1666666666667</ele><time>2026-04-10T07:57:51.883Z</time></trkpt><trkpt lat="43.8978355" lon="5.7070039"><ele>565.0</ele><time>2026-04-10T07:57:52.884Z</time></trkpt><trkpt lat="43.8978895" lon="5.7069113"><ele>564.5</ele><time>2026-04-10T07:57:53.884Z</time></trkpt><trkpt lat="43.8979341" lon="5.7068254"><ele>564.0</ele><time>2026-04-10T07:57:54.884Z</time></trkpt><trkpt lat="43.8979769" lon="5.7067542"><ele>563.5</ele><time>2026-04-10T07:57:55.883Z</time></trkpt><trkpt lat="43.8980302" lon="5.7066746"><ele>563.0</ele><time>2026-04-10T07:57:56.881Z</time></trkpt><trkpt lat="43.8980947" lon="5.7065867"><ele>562.5</ele><time>2026-04-10T07:57:57.882Z</time></trkpt><trkpt lat="43.8981698" lon="5.7064867"><ele>562.0</ele><time>2026-04-10T07:57:58.881Z</time></trkpt><trkpt lat="43.8982535" lon="5.7063927"><ele>562.0</ele><time>2026-04-10T07:57:59.883Z</time></trkpt><trkpt lat="43.8983444" lon="5.7062976"><ele>562.0</ele><time>2026-04-10T07:58:00.88Z</time></trkpt><trkpt lat="43.8984537" lon="5.7061948"><ele>562.0</ele><time>2026-04-10T07:58:01.882Z</time></trkpt><trkpt lat="43.8985696" lon="5.7060921"><ele>562.0</ele><time>2026-04-10T07:58:02.879Z</time></trkpt><trkpt lat="43.8986831" lon="5.7059915"><ele>561.5</ele><time>2026-04-10T07:58:03.878Z</time></trkpt><trkpt lat="43.8988047" lon="5.7058879"><ele>561.0</ele><time>2026-04-10T07:58:04.879Z</time></trkpt><trkpt lat="43.898924" lon="5.7057873"><ele>560.5</ele><time>2026-04-10T07:58:05.881Z</time></trkpt><trkpt lat="43.8990512" lon="5.7056821"><ele>560.0</ele><time>2026-04-10T07:58:06.879Z</time></trkpt><trkpt lat="43.8991666" lon="5.7055893"><ele>559.5</ele><time>2026-04-10T07:58:07.887Z</time></trkpt><trkpt lat="43.8992706" lon="5.7054855"><ele>559.0</ele><time>2026-04-10T07:58:08.885Z</time></trkpt><trkpt lat="43.8993649" lon="5.7053801"><ele>558.5</ele><time>2026-04-10T07:58:09.88Z</time></trkpt><trkpt lat="43.8994578" lon="5.7052833"><ele>558.0</ele><time>2026-04-10T07:58:10.876Z</time></trkpt><trkpt lat="43.8995384" lon="5.7052136"><ele>558.0</ele><time>2026-04-10T07:58:11.886Z</time></trkpt><trkpt lat="43.899609" lon="5.7051811"><ele>558.0</ele><time>2026-04-10T07:58:12.876Z</time></trkpt><trkpt lat="43.8996806" lon="5.7051806"><ele>558.0</ele><time>2026-04-10T07:58:13.88Z</time></trkpt><trkpt lat="43.8997801" lon="5.7053043"><ele>558.0</ele><time>2026-04-10T07:58:15.884Z</time></trkpt><trkpt lat="43.8998247" lon="5.7054088"><ele>558.0</ele><time>2026-04-10T07:58:16.879Z</time></trkpt><trkpt lat="43.8998779" lon="5.7055241"><ele>559.1666666666666</ele><time>2026-04-10T07:58:17.885Z</time></trkpt><trkpt lat="43.8999305" lon="5.7056248"><ele>560.3333333333334</ele><time>2026-04-10T07:58:18.882Z</time></trkpt><trkpt lat="43.9000018" lon="5.7056588"><ele>561.5</ele><time>2026-04-10T07:58:19.885Z</time></trkpt><trkpt lat="43.900079" lon="5.7056714"><ele>562.6666666666667</ele><time>2026-04-10T07:58:20.886Z</time></trkpt><trkpt lat="43.9001615" lon="5.7056546"><ele>563.8333333333334</ele><time>2026-04-10T07:58:21.886Z</time></trkpt><trkpt lat="43.9002514" lon="5.7056198"><ele>565.0</ele><time>2026-04-10T07:58:22.881Z</time></trkpt><trkpt lat="43.9003527" lon="5.7055884"><ele>566.0</ele><time>2026-04-10T07:58:23.878Z</time></trkpt><trkpt lat="43.9004557" lon="5.7055291"><ele>567.0</ele><time>2026-04-10T07:58:24.883Z</time></trkpt><trkpt lat="43.9005707" lon="5.7054554"><ele>568.0</ele><time>2026-04-10T07:58:25.881Z</time></trkpt><trkpt lat="43.9006859" lon="5.7054085"><ele>569.0</ele><time>2026-04-10T07:58:26.884Z</time></trkpt><trkpt lat="43.9008001" lon="5.705356"><ele>569.0</ele><time>2026-04-10T07:58:27.88Z</time></trkpt><trkpt lat="43.9009104" lon="5.7052967"><ele>569.0</ele><time>2026-04-10T07:58:28.883Z</time></trkpt><trkpt lat="43.9010163" lon="5.7052516"><ele>569.0</ele><time>2026-04-10T07:58:29.882Z</time></trkpt><trkpt lat="43.9011238" lon="5.7052078"><ele>569.0</ele><time>2026-04-10T07:58:30.883Z</time></trkpt><trkpt lat="43.9012279" lon="5.7051703"><ele>569.0</ele><time>2026-04-10T07:58:31.884Z</time></trkpt><trkpt lat="43.9013213" lon="5.7051585"><ele>568.6</ele><time>2026-04-10T07:58:32.881Z</time></trkpt><trkpt lat="43.9014154" lon="5.7051514"><ele>568.2</ele><time>2026-04-10T07:58:33.882Z</time></trkpt><trkpt lat="43.9015102" lon="5.7051489"><ele>567.8000000000001</ele><time>2026-04-10T07:58:34.883Z</time></trkpt><trkpt lat="43.9015886" lon="5.7051448"><ele>567.4</ele><time>2026-04-10T07:58:35.881Z</time></trkpt><trkpt lat="43.9016932" lon="5.7051177"><ele>567.0</ele><time>2026-04-10T07:58:36.884Z</time></trkpt><trkpt lat="43.901793" lon="5.7050954"><ele>568.4</ele><time>2026-04-10T07:58:37.88Z</time></trkpt><trkpt lat="43.9018826" lon="5.7050871"><ele>569.8000000000001</ele><time>2026-04-10T07:58:38.883Z</time></trkpt><trkpt lat="43.9019687" lon="5.7050838"><ele>571.2</ele><time>2026-04-10T07:58:39.884Z</time></trkpt><trkpt lat="43.9020647" lon="5.7050664"><ele>572.6</ele><time>2026-04-10T07:58:40.885Z</time></trkpt><trkpt lat="43.9021709" lon="5.7050472"><ele>574.0</ele><time>2026-04-10T07:58:41.881Z</time></trkpt><trkpt lat="43.9022732" lon="5.7050275"><ele>574.0</ele><time>2026-04-10T07:58:42.885Z</time></trkpt><trkpt lat="43.9023794" lon="5.704996"><ele>574.0</ele><time>2026-04-10T07:58:43.885Z</time></trkpt><trkpt lat="43.9024842" lon="5.7049797"><ele>574.0</ele><time>2026-04-10T07:58:44.887Z</time></trkpt><trkpt lat="43.9025823" lon="5.7049606"><ele>574.0</ele><time>2026-04-10T07:58:45.885Z</time></trkpt><trkpt lat="43.9026673" lon="5.7049278"><ele>574.0</ele><time>2026-04-10T07:58:46.882Z</time></trkpt><trkpt lat="43.9027403" lon="5.7048962"><ele>576.3333333333334</ele><time>2026-04-10T07:58:47.881Z</time></trkpt><trkpt lat="43.9028209" lon="5.7048433"><ele>578.6666666666667</ele><time>2026-04-10T07:58:48.884Z</time></trkpt><trkpt lat="43.9029009" lon="5.7047809"><ele>581.0</ele><time>2026-04-10T07:58:49.88Z</time></trkpt><trkpt lat="43.9029647" lon="5.7047035"><ele>583.3333333333334</ele><time>2026-04-10T07:58:50.881Z</time></trkpt><trkpt lat="43.9030266" lon="5.7046096"><ele>585.6666666666666</ele><time>2026-04-10T07:58:51.879Z</time></trkpt><trkpt lat="43.9030779" lon="5.704516"><ele>588.0</ele><time>2026-04-10T07:58:52.884Z</time></trkpt><trkpt lat="43.90314" lon="5.7044298"><ele>586.6666666666666</ele><time>2026-04-10T07:58:53.882Z</time></trkpt><trkpt lat="43.9032072" lon="5.7043427"><ele>585.3333333333334</ele><time>2026-04-10T07:58:54.879Z</time></trkpt><trkpt lat="43.9032661" lon="5.7042625"><ele>584.0</ele><time>2026-04-10T07:58:55.882Z</time></trkpt><trkpt lat="43.9033178" lon="5.7041911"><ele>582.6666666666667</ele><time>2026-04-10T07:58:56.88Z</time></trkpt><trkpt lat="43.9033525" lon="5.7041122"><ele>581.3333333333334</ele><time>2026-04-10T07:58:57.879Z</time></trkpt><trkpt lat="43.9033883" lon="5.7040338"><ele>580.0</ele><time>2026-04-10T07:58:58.879Z</time></trkpt><trkpt lat="43.9034063" lon="5.703843"><ele>581.6666666666667</ele><time>2026-04-10T07:59:00.881Z</time></trkpt><trkpt lat="43.9034168" lon="5.7037413"><ele>583.3333333333334</ele><time>2026-04-10T07:59:01.886Z</time></trkpt><trkpt lat="43.903426" lon="5.7036475"><ele>585.0</ele><time>2026-04-10T07:59:02.879Z</time></trkpt><trkpt lat="43.9034629" lon="5.7035678"><ele>586.6666666666666</ele><time>2026-04-10T07:59:03.882Z</time></trkpt><trkpt lat="43.9035171" lon="5.7034938"><ele>588.3333333333333</ele><time>2026-04-10T07:59:04.884Z</time></trkpt><trkpt lat="43.9035668" lon="5.7034071"><ele>590.0</ele><time>2026-04-10T07:59:05.885Z</time></trkpt><trkpt lat="43.9036082" lon="5.7032498"><ele>590.0</ele><time>2026-04-10T07:59:07.882Z</time></trkpt><trkpt lat="43.9035869" lon="5.7031363"><ele>590.0</ele><time>2026-04-10T07:59:08.882Z</time></trkpt><trkpt lat="43.9035575" lon="5.703039"><ele>590.0</ele><time>2026-04-10T07:59:09.879Z</time></trkpt><trkpt lat="43.9035278" lon="5.7029339"><ele>590.0</ele><time>2026-04-10T07:59:10.88Z</time></trkpt><trkpt lat="43.9034924" lon="5.7028338"><ele>590.0</ele><time>2026-04-10T07:59:11.882Z</time></trkpt><trkpt lat="43.903437" lon="5.702736"><ele>590.0</ele><time>2026-04-10T07:59:12.883Z</time></trkpt><trkpt lat="43.9034044" lon="5.7026472"><ele>588.6666666666666</ele><time>2026-04-10T07:59:13.88Z</time></trkpt><trkpt lat="43.9033793" lon="5.7025489"><ele>587.3333333333333</ele><time>2026-04-10T07:59:14.881Z</time></trkpt><trkpt lat="43.903417" lon="5.702383"><ele>586.0</ele><time>2026-04-10T07:59:16.887Z</time></trkpt><trkpt lat="43.9034704" lon="5.7022996"><ele>584.6666666666666</ele><time>2026-04-10T07:59:17.881Z</time></trkpt><trkpt lat="43.9035309" lon="5.7022163"><ele>583.3333333333334</ele><time>2026-04-10T07:59:18.882Z</time></trkpt><trkpt lat="43.9035691" lon="5.7021369"><ele>582.0</ele><time>2026-04-10T07:59:19.879Z</time></trkpt><trkpt lat="43.9035984" lon="5.7020562"><ele>582.0</ele><time>2026-04-10T07:59:20.883Z</time></trkpt><trkpt lat="43.9036219" lon="5.7019667"><ele>582.0</ele><time>2026-04-10T07:59:21.883Z</time></trkpt><trkpt lat="43.903642" lon="5.701862"><ele>582.0</ele><time>2026-04-10T07:59:22.881Z</time></trkpt><trkpt lat="43.9036597" lon="5.7017389"><ele>582.0</ele><time>2026-04-10T07:59:23.879Z</time></trkpt><trkpt lat="43.9036873" lon="5.7016014"><ele>582.0</ele><time>2026-04-10T07:59:24.885Z</time></trkpt><trkpt lat="43.9037023" lon="5.7014692"><ele>582.0</ele><time>2026-04-10T07:59:25.884Z</time></trkpt><trkpt lat="43.9037211" lon="5.7013298"><ele>581.0</ele><time>2026-04-10T07:59:26.878Z</time></trkpt><trkpt lat="43.9037547" lon="5.7012032"><ele>580.0</ele><time>2026-04-10T07:59:27.883Z</time></trkpt><trkpt lat="43.9037811" lon="5.7010855"><ele>579.0</ele><time>2026-04-10T07:59:28.885Z</time></trkpt><trkpt lat="43.9037813" lon="5.7009404"><ele>578.0</ele><time>2026-04-10T07:59:29.88Z</time></trkpt><trkpt lat="43.9037625" lon="5.7007797"><ele>577.0</ele><time>2026-04-10T07:59:30.88Z</time></trkpt><trkpt lat="43.9037346" lon="5.7005993"><ele>576.2</ele><time>2026-04-10T07:59:31.879Z</time></trkpt><trkpt lat="43.9037167" lon="5.7004213"><ele>575.4000000000001</ele><time>2026-04-10T07:59:32.885Z</time></trkpt><trkpt lat="43.9037002" lon="5.7002732"><ele>574.5999999999999</ele><time>2026-04-10T07:59:33.878Z</time></trkpt><trkpt lat="43.9036871" lon="5.7001301"><ele>573.8</ele><time>2026-04-10T07:59:34.881Z</time></trkpt><trkpt lat="43.9036665" lon="5.7000025"><ele>573.0</ele><time>2026-04-10T07:59:35.883Z</time></trkpt><trkpt lat="43.903653" lon="5.6998934"><ele>572.5</ele><time>2026-04-10T07:59:36.88Z</time></trkpt><trkpt lat="43.9036489" lon="5.699804"><ele>572.0</ele><time>2026-04-10T07:59:37.882Z</time></trkpt><trkpt lat="43.9037212" lon="5.699746"><ele>571.5</ele><time>2026-04-10T07:59:40.88Z</time></trkpt><trkpt lat="43.9038089" lon="5.6997807"><ele>571.0</ele><time>2026-04-10T07:59:42.883Z</time></trkpt><trkpt lat="43.9038825" lon="5.6998165"><ele>570.5</ele><time>2026-04-10T07:59:43.88Z</time></trkpt><trkpt lat="43.9039526" lon="5.6998432"><ele>570.0</ele><time>2026-04-10T07:59:44.879Z</time></trkpt><trkpt lat="43.9040203" lon="5.6998672"><ele>570.0</ele><time>2026-04-10T07:59:45.88Z</time></trkpt><trkpt lat="43.9040924" lon="5.6998897"><ele>570.0</ele><time>2026-04-10T07:59:46.881Z</time></trkpt><trkpt lat="43.9041672" lon="5.6999079"><ele>570.0</ele><time>2026-04-10T07:59:47.879Z</time></trkpt><trkpt lat="43.9042494" lon="5.6999359"><ele>570.0</ele><time>2026-04-10T07:59:48.878Z</time></trkpt><trkpt lat="43.9043432" lon="5.6999712"><ele>570.0</ele><time>2026-04-10T07:59:49.88Z</time></trkpt><trkpt lat="43.9044301" lon="5.700002"><ele>570.0</ele><time>2026-04-10T07:59:50.885Z</time></trkpt><trkpt lat="43.9045406" lon="5.6999557"><ele>571.6</ele><time>2026-04-10T07:59:52.881Z</time></trkpt><trkpt lat="43.9046544" lon="5.6999376"><ele>573.2</ele><time>2026-04-10T07:59:54.882Z</time></trkpt><trkpt lat="43.9047283" lon="5.699953"><ele>574.8</ele><time>2026-04-10T07:59:55.885Z</time></trkpt><trkpt lat="43.9048102" lon="5.6999943"><ele>576.4</ele><time>2026-04-10T07:59:56.881Z</time></trkpt><trkpt lat="43.9049028" lon="5.7000527"><ele>578.0</ele><time>2026-04-10T07:59:57.881Z</time></trkpt><trkpt lat="43.9049733" lon="5.7001203"><ele>578.0</ele><time>2026-04-10T07:59:58.879Z</time></trkpt><trkpt lat="43.9050345" lon="5.7001548"><ele>578.0</ele><time>2026-04-10T07:59:59.877Z</time></trkpt><trkpt lat="43.9051525" lon="5.7001287"><ele>578.0</ele><time>2026-04-10T08:00:01.878Z</time></trkpt><trkpt lat="43.9052079" lon="5.700062"><ele>578.0</ele><time>2026-04-10T08:00:02.88Z</time></trkpt><trkpt lat="43.9052532" lon="5.6999857"><ele>578.0</ele><time>2026-04-10T08:00:03.882Z</time></trkpt><trkpt lat="43.9053187" lon="5.6999079"><ele>578.0</ele><time>2026-04-10T08:00:04.88Z</time></trkpt><trkpt lat="43.905385" lon="5.6998172"><ele>578.8</ele><time>2026-04-10T08:00:05.882Z</time></trkpt><trkpt lat="43.9055056" lon="5.6996062"><ele>579.5999999999999</ele><time>2026-04-10T08:00:07.884Z</time></trkpt><trkpt lat="43.9055674" lon="5.6995399"><ele>580.4000000000001</ele><time>2026-04-10T08:00:08.881Z</time></trkpt><trkpt lat="43.9056375" lon="5.6994925"><ele>581.2</ele><time>2026-04-10T08:00:09.883Z</time></trkpt><trkpt lat="43.9057141" lon="5.6994464"><ele>582.0</ele><time>2026-04-10T08:00:10.879Z</time></trkpt><trkpt lat="43.905799" lon="5.6994083"><ele>582.2</ele><time>2026-04-10T08:00:11.883Z</time></trkpt><trkpt lat="43.9058858" lon="5.6993598"><ele>582.4000000000001</ele><time>2026-04-10T08:00:12.88Z</time></trkpt><trkpt lat="43.9059673" lon="5.6993092"><ele>582.5999999999999</ele><time>2026-04-10T08:00:13.881Z</time></trkpt><trkpt lat="43.9060659" lon="5.6992504"><ele>582.8</ele><time>2026-04-10T08:00:14.88Z</time></trkpt><trkpt lat="43.9061619" lon="5.6991944"><ele>583.0</ele><time>2026-04-10T08:00:15.879Z</time></trkpt><trkpt lat="43.9062555" lon="5.6991391"><ele>584.0</ele><time>2026-04-10T08:00:16.881Z</time></trkpt><trkpt lat="43.906349" lon="5.6990914"><ele>585.0</ele><time>2026-04-10T08:00:17.879Z</time></trkpt><trkpt lat="43.906441" lon="5.6990447"><ele>586.0</ele><time>2026-04-10T08:00:18.88Z</time></trkpt><trkpt lat="43.906534" lon="5.6990012"><ele>587.0</ele><time>2026-04-10T08:00:19.879Z</time></trkpt><trkpt lat="43.9066393" lon="5.6989488"><ele>588.0</ele><time>2026-04-10T08:00:20.881Z</time></trkpt><trkpt lat="43.9067417" lon="5.6988936"><ele>590.0</ele><time>2026-04-10T08:00:21.879Z</time></trkpt><trkpt lat="43.9068598" lon="5.698838"><ele>592.0</ele><time>2026-04-10T08:00:22.876Z</time></trkpt><trkpt lat="43.9071276" lon="5.6987041"><ele>594.0</ele><time>2026-04-10T08:00:24.886Z</time></trkpt><trkpt lat="43.9072538" lon="5.6986473"><ele>594.0</ele><time>2026-04-10T08:00:25.88Z</time></trkpt><trkpt lat="43.9073671" lon="5.6986057"><ele>594.0</ele><time>2026-04-10T08:00:26.88Z</time></trkpt><trkpt lat="43.9074651" lon="5.6985734"><ele>594.0</ele><time>2026-04-10T08:00:27.88Z</time></trkpt><trkpt lat="43.9075433" lon="5.6985388"><ele>594.0</ele><time>2026-04-10T08:00:28.884Z</time></trkpt><trkpt lat="43.9076217" lon="5.6985083"><ele>594.0</ele><time>2026-04-10T08:00:29.884Z</time></trkpt><trkpt lat="43.90771" lon="5.6984701"><ele>595.25</ele><time>2026-04-10T08:00:30.883Z</time></trkpt><trkpt lat="43.9078042" lon="5.698442"><ele>596.5</ele><time>2026-04-10T08:00:31.881Z</time></trkpt><trkpt lat="43.9079015" lon="5.698423"><ele>597.75</ele><time>2026-04-10T08:00:32.879Z</time></trkpt><trkpt lat="43.9080258" lon="5.6984047"><ele>599.0</ele><time>2026-04-10T08:00:33.882Z</time></trkpt><trkpt lat="43.9082818" lon="5.6983268"><ele>600.5</ele><time>2026-04-10T08:00:35.883Z</time></trkpt><trkpt lat="43.9084114" lon="5.698275"><ele>602.0</ele><time>2026-04-10T08:00:36.883Z</time></trkpt><trkpt lat="43.9085214" lon="5.6982179"><ele>603.5</ele><time>2026-04-10T08:00:37.882Z</time></trkpt><trkpt lat="43.9086265" lon="5.6981231"><ele>605.0</ele><time>2026-04-10T08:00:38.883Z</time></trkpt><trkpt lat="43.9087368" lon="5.6980319"><ele>605.0</ele><time>2026-04-10T08:00:39.887Z</time></trkpt><trkpt lat="43.9088547" lon="5.6979552"><ele>605.0</ele><time>2026-04-10T08:00:40.88Z</time></trkpt><trkpt lat="43.9089827" lon="5.6978861"><ele>605.0</ele><time>2026-04-10T08:00:41.878Z</time></trkpt><trkpt lat="43.9091095" lon="5.6977923"><ele>605.0</ele><time>2026-04-10T08:00:42.882Z</time></trkpt><trkpt lat="43.9092269" lon="5.6977096"><ele>607.0</ele><time>2026-04-10T08:00:43.883Z</time></trkpt><trkpt lat="43.909348" lon="5.6976147"><ele>609.0</ele><time>2026-04-10T08:00:44.882Z</time></trkpt><trkpt lat="43.9094649" lon="5.6975269"><ele>611.0</ele><time>2026-04-10T08:00:45.88Z</time></trkpt><trkpt lat="43.9095642" lon="5.6974566"><ele>613.0</ele><time>2026-04-10T08:00:46.885Z</time></trkpt><trkpt lat="43.9096597" lon="5.6973916"><ele>613.0</ele><time>2026-04-10T08:00:47.885Z</time></trkpt><trkpt lat="43.9097366" lon="5.6973246"><ele>613.0</ele><time>2026-04-10T08:00:48.88Z</time></trkpt><trkpt lat="43.9098166" lon="5.6972411"><ele>613.0</ele><time>2026-04-10T08:00:49.879Z</time></trkpt><trkpt lat="43.9098854" lon="5.6971464"><ele>613.0</ele><time>2026-04-10T08:00:50.88Z</time></trkpt><trkpt lat="43.9099616" lon="5.6970573"><ele>613.0</ele><time>2026-04-10T08:00:51.879Z</time></trkpt><trkpt lat="43.9100247" lon="5.6969811"><ele>613.6</ele><time>2026-04-10T08:00:52.884Z</time></trkpt><trkpt lat="43.9101081" lon="5.6969223"><ele>614.1999999999999</ele><time>2026-04-10T08:00:53.882Z</time></trkpt><trkpt lat="43.9101914" lon="5.6968559"><ele>614.8</ele><time>2026-04-10T08:00:54.88Z</time></trkpt><trkpt lat="43.9102865" lon="5.6967749"><ele>615.4</ele><time>2026-04-10T08:00:55.881Z</time></trkpt><trkpt lat="43.9103872" lon="5.696704"><ele>616.0</ele><time>2026-04-10T08:00:56.885Z</time></trkpt><trkpt lat="43.9104982" lon="5.6966293"><ele>616.0</ele><time>2026-04-10T08:00:57.88Z</time></trkpt><trkpt lat="43.910615" lon="5.6965406"><ele>616.0</ele><time>2026-04-10T08:00:58.883Z</time></trkpt><trkpt lat="43.91074" lon="5.6964402"><ele>616.0</ele><time>2026-04-10T08:00:59.883Z</time></trkpt><trkpt lat="43.9108736" lon="5.6963318"><ele>616.0</ele><time>2026-04-10T08:01:00.884Z</time></trkpt><trkpt lat="43.9110028" lon="5.6962362"><ele>616.75</ele><time>2026-04-10T08:01:01.881Z</time></trkpt><trkpt lat="43.9111185" lon="5.696157"><ele>617.5</ele><time>2026-04-10T08:01:02.879Z</time></trkpt><trkpt lat="43.9112223" lon="5.696082"><ele>618.25</ele><time>2026-04-10T08:01:03.88Z</time></trkpt><trkpt lat="43.9113277" lon="5.6960219"><ele>619.0</ele><time>2026-04-10T08:01:04.884Z</time></trkpt><trkpt lat="43.9114285" lon="5.6959832"><ele>619.0</ele><time>2026-04-10T08:01:05.884Z</time></trkpt><trkpt lat="43.9115402" lon="5.6959667"><ele>619.0</ele><time>2026-04-10T08:01:06.881Z</time></trkpt><trkpt lat="43.9116572" lon="5.6959509"><ele>619.0</ele><time>2026-04-10T08:01:07.882Z</time></trkpt><trkpt lat="43.9117733" lon="5.6959309"><ele>619.0</ele><time>2026-04-10T08:01:08.88Z</time></trkpt><trkpt lat="43.9118953" lon="5.6958886"><ele>621.0</ele><time>2026-04-10T08:01:09.885Z</time></trkpt><trkpt lat="43.9120096" lon="5.6958719"><ele>623.0</ele><time>2026-04-10T08:01:10.881Z</time></trkpt><trkpt lat="43.9121241" lon="5.6958511"><ele>625.0</ele><time>2026-04-10T08:01:11.878Z</time></trkpt><trkpt lat="43.9122421" lon="5.6958135"><ele>627.0</ele><time>2026-04-10T08:01:12.88Z</time></trkpt><trkpt lat="43.9123587" lon="5.6957553"><ele>627.0</ele><time>2026-04-10T08:01:13.883Z</time></trkpt><trkpt lat="43.9124725" lon="5.6957056"><ele>627.0</ele><time>2026-04-10T08:01:14.88Z</time></trkpt><trkpt lat="43.9125876" lon="5.6956571"><ele>627.0</ele><time>2026-04-10T08:01:15.883Z</time></trkpt><trkpt lat="43.912698" lon="5.6956175"><ele>627.0</ele><time>2026-04-10T08:01:16.882Z</time></trkpt><trkpt lat="43.9127876" lon="5.6956043"><ele>627.0</ele><time>2026-04-10T08:01:17.882Z</time></trkpt><trkpt lat="43.9128694" lon="5.6955953"><ele>628.5</ele><time>2026-04-10T08:01:18.88Z</time></trkpt><trkpt lat="43.9129436" lon="5.6955808"><ele>630.0</ele><time>2026-04-10T08:01:19.881Z</time></trkpt><trkpt lat="43.913071" lon="5.6955927"><ele>631.5</ele><time>2026-04-10T08:01:20.881Z</time></trkpt><trkpt lat="43.9132054" lon="5.6956076"><ele>633.0</ele><time>2026-04-10T08:01:21.879Z</time></trkpt><trkpt lat="43.913344" lon="5.6956264"><ele>634.0</ele><time>2026-04-10T08:01:22.88Z</time></trkpt><trkpt lat="43.9134705" lon="5.6956292"><ele>635.0</ele><time>2026-04-10T08:01:23.883Z</time></trkpt><trkpt lat="43.9135935" lon="5.6956293"><ele>636.0</ele><time>2026-04-10T08:01:24.881Z</time></trkpt><trkpt lat="43.9137117" lon="5.6956145"><ele>637.0</ele><time>2026-04-10T08:01:25.88Z</time></trkpt><trkpt lat="43.9138249" lon="5.6955763"><ele>637.0</ele><time>2026-04-10T08:01:26.878Z</time></trkpt><trkpt lat="43.9139386" lon="5.6955198"><ele>637.0</ele><time>2026-04-10T08:01:27.884Z</time></trkpt><trkpt lat="43.9140527" lon="5.6954572"><ele>637.0</ele><time>2026-04-10T08:01:28.882Z</time></trkpt><trkpt lat="43.9141732" lon="5.6954049"><ele>637.0</ele><time>2026-04-10T08:01:29.886Z</time></trkpt><trkpt lat="43.9143028" lon="5.6953642"><ele>638.0</ele><time>2026-04-10T08:01:30.881Z</time></trkpt><trkpt lat="43.9144392" lon="5.6953294"><ele>639.0</ele><time>2026-04-10T08:01:31.88Z</time></trkpt><trkpt lat="43.9145735" lon="5.6953034"><ele>640.0</ele><time>2026-04-10T08:01:32.883Z</time></trkpt><trkpt lat="43.9147236" lon="5.6953122"><ele>641.0</ele><time>2026-04-10T08:01:33.88Z</time></trkpt><trkpt lat="43.9148718" lon="5.6953311"><ele>641.0</ele><time>2026-04-10T08:01:34.882Z</time></trkpt><trkpt lat="43.9150337" lon="5.695368"><ele>641.0</ele><time>2026-04-10T08:01:35.883Z</time></trkpt><trkpt lat="43.9151823" lon="5.6954144"><ele>641.0</ele><time>2026-04-10T08:01:36.882Z</time></trkpt><trkpt lat="43.9153078" lon="5.695449"><ele>641.0</ele><time>2026-04-10T08:01:37.881Z</time></trkpt><trkpt lat="43.9154311" lon="5.6954852"><ele>641.75</ele><time>2026-04-10T08:01:38.882Z</time></trkpt><trkpt lat="43.9155658" lon="5.695534"><ele>642.5</ele><time>2026-04-10T08:01:39.883Z</time></trkpt><trkpt lat="43.9157093" lon="5.6955797"><ele>643.25</ele><time>2026-04-10T08:01:40.884Z</time></trkpt><trkpt lat="43.915852" lon="5.6956122"><ele>644.0</ele><time>2026-04-10T08:01:41.882Z</time></trkpt><trkpt lat="43.9159918" lon="5.6956453"><ele>645.0</ele><time>2026-04-10T08:01:42.88Z</time></trkpt><trkpt lat="43.9161224" lon="5.6956603"><ele>646.0</ele><time>2026-04-10T08:01:43.885Z</time></trkpt><trkpt lat="43.9162502" lon="5.6956784"><ele>647.0</ele><time>2026-04-10T08:01:44.881Z</time></trkpt><trkpt lat="43.9163689" lon="5.6957142"><ele>648.0</ele><time>2026-04-10T08:01:45.881Z</time></trkpt><trkpt lat="43.9164772" lon="5.695767"><ele>648.0</ele><time>2026-04-10T08:01:46.88Z</time></trkpt><trkpt lat="43.9165914" lon="5.695824"><ele>648.0</ele><time>2026-04-10T08:01:47.882Z</time></trkpt><trkpt lat="43.9167108" lon="5.6958723"><ele>648.0</ele><time>2026-04-10T08:01:48.881Z</time></trkpt><trkpt lat="43.9168309" lon="5.6959223"><ele>648.0</ele><time>2026-04-10T08:01:49.883Z</time></trkpt><trkpt lat="43.9169413" lon="5.6959758"><ele>648.25</ele><time>2026-04-10T08:01:50.88Z</time></trkpt><trkpt lat="43.9170458" lon="5.6960503"><ele>648.5</ele><time>2026-04-10T08:01:51.881Z</time></trkpt><trkpt lat="43.9171419" lon="5.696137"><ele>648.75</ele><time>2026-04-10T08:01:52.882Z</time></trkpt><trkpt lat="43.917218" lon="5.6962409"><ele>649.0</ele><time>2026-04-10T08:01:53.878Z</time></trkpt><trkpt lat="43.9172909" lon="5.6963578"><ele>648.25</ele><time>2026-04-10T08:01:54.879Z</time></trkpt><trkpt lat="43.917365" lon="5.6964952"><ele>647.5</ele><time>2026-04-10T08:01:55.88Z</time></trkpt><trkpt lat="43.9174296" lon="5.696644"><ele>646.75</ele><time>2026-04-10T08:01:56.881Z</time></trkpt><trkpt lat="43.9174882" lon="5.6967952"><ele>646.0</ele><time>2026-04-10T08:01:57.885Z</time></trkpt><trkpt lat="43.9175494" lon="5.6969525"><ele>645.75</ele><time>2026-04-10T08:01:58.884Z</time></trkpt><trkpt lat="43.9176069" lon="5.697126"><ele>645.5</ele><time>2026-04-10T08:01:59.885Z</time></trkpt><trkpt lat="43.9176446" lon="5.6973001"><ele>645.25</ele><time>2026-04-10T08:02:00.887Z</time></trkpt><trkpt lat="43.9176801" lon="5.6974737"><ele>645.0</ele><time>2026-04-10T08:02:01.883Z</time></trkpt><trkpt lat="43.9177129" lon="5.697636"><ele>644.5</ele><time>2026-04-10T08:02:02.88Z</time></trkpt><trkpt lat="43.9177437" lon="5.697794"><ele>644.0</ele><time>2026-04-10T08:02:03.881Z</time></trkpt><trkpt lat="43.9177635" lon="5.6979576"><ele>643.5</ele><time>2026-04-10T08:02:04.881Z</time></trkpt><trkpt lat="43.9177698" lon="5.6981247"><ele>643.0</ele><time>2026-04-10T08:02:05.885Z</time></trkpt><trkpt lat="43.9177687" lon="5.6983059"><ele>643.0</ele><time>2026-04-10T08:02:06.884Z</time></trkpt><trkpt lat="43.9177615" lon="5.6984972"><ele>643.0</ele><time>2026-04-10T08:02:07.884Z</time></trkpt><trkpt lat="43.9177541" lon="5.6986857"><ele>643.0</ele><time>2026-04-10T08:02:08.882Z</time></trkpt><trkpt lat="43.9177432" lon="5.6988611"><ele>643.0</ele><time>2026-04-10T08:02:09.879Z</time></trkpt><trkpt lat="43.9177184" lon="5.6990393"><ele>642.0</ele><time>2026-04-10T08:02:10.88Z</time></trkpt><trkpt lat="43.9176863" lon="5.6992265"><ele>641.0</ele><time>2026-04-10T08:02:11.882Z</time></trkpt><trkpt lat="43.9176316" lon="5.6994066"><ele>640.0</ele><time>2026-04-10T08:02:12.882Z</time></trkpt><trkpt lat="43.9175724" lon="5.6995741"><ele>639.0</ele><time>2026-04-10T08:02:13.891Z</time></trkpt><trkpt lat="43.9175108" lon="5.6997324"><ele>637.75</ele><time>2026-04-10T08:02:14.883Z</time></trkpt><trkpt lat="43.9174496" lon="5.6998944"><ele>636.5</ele><time>2026-04-10T08:02:15.882Z</time></trkpt><trkpt lat="43.9173934" lon="5.7000426"><ele>635.25</ele><time>2026-04-10T08:02:16.883Z</time></trkpt><trkpt lat="43.9173365" lon="5.7001915"><ele>634.0</ele><time>2026-04-10T08:02:17.881Z</time></trkpt><trkpt lat="43.9172907" lon="5.7003547"><ele>632.75</ele><time>2026-04-10T08:02:18.885Z</time></trkpt><trkpt lat="43.9172572" lon="5.7005212"><ele>631.5</ele><time>2026-04-10T08:02:19.882Z</time></trkpt><trkpt lat="43.9172321" lon="5.7006858"><ele>630.25</ele><time>2026-04-10T08:02:20.88Z</time></trkpt><trkpt lat="43.9172134" lon="5.7008512"><ele>629.0</ele><time>2026-04-10T08:02:21.883Z</time></trkpt><trkpt lat="43.9171914" lon="5.7010249"><ele>627.75</ele><time>2026-04-10T08:02:22.881Z</time></trkpt><trkpt lat="43.9171744" lon="5.7012054"><ele>626.5</ele><time>2026-04-10T08:02:23.88Z</time></trkpt><trkpt lat="43.9171408" lon="5.7013818"><ele>625.25</ele><time>2026-04-10T08:02:24.886Z</time></trkpt><trkpt lat="43.9170828" lon="5.701558"><ele>624.0</ele><time>2026-04-10T08:02:25.882Z</time></trkpt><trkpt lat="43.9170078" lon="5.7017141"><ele>624.0</ele><time>2026-04-10T08:02:26.884Z</time></trkpt><trkpt lat="43.9169222" lon="5.7018571"><ele>624.0</ele><time>2026-04-10T08:02:27.884Z</time></trkpt><trkpt lat="43.9168455" lon="5.7019807"><ele>624.0</ele><time>2026-04-10T08:02:28.882Z</time></trkpt><trkpt lat="43.916767" lon="5.7020906"><ele>624.0</ele><time>2026-04-10T08:02:29.878Z</time></trkpt><trkpt lat="43.9167259" lon="5.7021811"><ele>624.0</ele><time>2026-04-10T08:02:30.88Z</time></trkpt><trkpt lat="43.9167077" lon="5.7022791"><ele>623.0</ele><time>2026-04-10T08:02:31.881Z</time></trkpt><trkpt lat="43.9167168" lon="5.7023782"><ele>622.0</ele><time>2026-04-10T08:02:32.882Z</time></trkpt><trkpt lat="43.9167703" lon="5.7024576"><ele>621.0</ele><time>2026-04-10T08:02:33.882Z</time></trkpt><trkpt lat="43.9168048" lon="5.7025374"><ele>620.0</ele><time>2026-04-10T08:02:34.882Z</time></trkpt><trkpt lat="43.916885" lon="5.7026515"><ele>619.0</ele><time>2026-04-10T08:02:35.882Z</time></trkpt><trkpt lat="43.9169504" lon="5.7027495"><ele>618.0</ele><time>2026-04-10T08:02:36.879Z</time></trkpt><trkpt lat="43.9170052" lon="5.70283"><ele>617.3333333333334</ele><time>2026-04-10T08:02:37.88Z</time></trkpt><trkpt lat="43.917061" lon="5.7029062"><ele>616.6666666666666</ele><time>2026-04-10T08:02:38.878Z</time></trkpt><trkpt lat="43.9171377" lon="5.7029811"><ele>616.0</ele><time>2026-04-10T08:02:40.882Z</time></trkpt><trkpt lat="43.91713" lon="5.7031226"><ele>615.3333333333333</ele><time>2026-04-10T08:02:45.881Z</time></trkpt><trkpt lat="43.9171022" lon="5.7032064"><ele>614.6666666666666</ele><time>2026-04-10T08:02:46.882Z</time></trkpt><trkpt lat="43.917073" lon="5.7032984"><ele>614.0</ele><time>2026-04-10T08:02:47.877Z</time></trkpt><trkpt lat="43.9170407" lon="5.703397"><ele>614.0</ele><time>2026-04-10T08:02:48.885Z</time></trkpt><trkpt lat="43.9170023" lon="5.7035005"><ele>614.0</ele><time>2026-04-10T08:02:49.886Z</time></trkpt><trkpt lat="43.9169602" lon="5.7036018"><ele>614.0</ele><time>2026-04-10T08:02:50.881Z</time></trkpt><trkpt lat="43.9169224" lon="5.7037102"><ele>614.0</ele><time>2026-04-10T08:02:51.888Z</time></trkpt><trkpt lat="43.9168903" lon="5.7038232"><ele>614.0</ele><time>2026-04-10T08:02:52.879Z</time></trkpt><trkpt lat="43.9168562" lon="5.7039268"><ele>614.0</ele><time>2026-04-10T08:02:53.882Z</time></trkpt><trkpt lat="43.9168247" lon="5.7040261"><ele>614.0</ele><time>2026-04-10T08:02:54.877Z</time></trkpt><trkpt lat="43.9167923" lon="5.7041182"><ele>614.0</ele><time>2026-04-10T08:02:55.877Z</time></trkpt><trkpt lat="43.9167623" lon="5.7042077"><ele>614.0</ele><time>2026-04-10T08:02:56.88Z</time></trkpt><trkpt lat="43.9167302" lon="5.7042879"><ele>614.0</ele><time>2026-04-10T08:02:57.882Z</time></trkpt><trkpt lat="43.9167007" lon="5.7043699"><ele>614.0</ele><time>2026-04-10T08:02:58.882Z</time></trkpt><trkpt lat="43.9166473" lon="5.7045108"><ele>614.0</ele><time>2026-04-10T08:03:00.878Z</time></trkpt><trkpt lat="43.9166089" lon="5.7046098"><ele>614.0</ele><time>2026-04-10T08:03:02.881Z</time></trkpt><trkpt lat="43.9165608" lon="5.7047406"><ele>614.0</ele><time>2026-04-10T08:03:05.878Z</time></trkpt><trkpt lat="43.9166164" lon="5.7046639"><ele>614.0</ele><time>2026-04-10T08:03:23.879Z</time></trkpt><trkpt lat="43.9166452" lon="5.7045769"><ele>614.0</ele><time>2026-04-10T08:03:24.879Z</time></trkpt><trkpt lat="43.9166779" lon="5.7044795"><ele>614.0</ele><time>2026-04-10T08:03:25.879Z</time></trkpt><trkpt lat="43.9167231" lon="5.7043491"><ele>614.0</ele><time>2026-04-10T08:03:26.883Z</time></trkpt><trkpt lat="43.9167716" lon="5.7042275"><ele>612.75</ele><time>2026-04-10T08:03:27.879Z</time></trkpt><trkpt lat="43.9168246" lon="5.704072"><ele>611.5</ele><time>2026-04-10T08:03:28.878Z</time></trkpt><trkpt lat="43.916869" lon="5.703922"><ele>610.25</ele><time>2026-04-10T08:03:29.883Z</time></trkpt><trkpt lat="43.9169161" lon="5.7037678"><ele>609.0</ele><time>2026-04-10T08:03:30.882Z</time></trkpt><trkpt lat="43.9169671" lon="5.7036168"><ele>610.0</ele><time>2026-04-10T08:03:31.879Z</time></trkpt><trkpt lat="43.9170149" lon="5.703469"><ele>611.0</ele><time>2026-04-10T08:03:32.883Z</time></trkpt><trkpt lat="43.9170605" lon="5.7033406"><ele>612.0</ele><time>2026-04-10T08:03:33.881Z</time></trkpt><trkpt lat="43.9171076" lon="5.7032202"><ele>613.0</ele><time>2026-04-10T08:03:34.883Z</time></trkpt><trkpt lat="43.9171589" lon="5.7030993"><ele>614.0</ele><time>2026-04-10T08:03:35.883Z</time></trkpt><trkpt lat="43.9172117" lon="5.7029666"><ele>614.0</ele><time>2026-04-10T08:03:36.884Z</time></trkpt><trkpt lat="43.9172584" lon="5.7028324"><ele>614.0</ele><time>2026-04-10T08:03:37.879Z</time></trkpt><trkpt lat="43.9173035" lon="5.7027001"><ele>614.0</ele><time>2026-04-10T08:03:38.884Z</time></trkpt><trkpt lat="43.9173647" lon="5.702545"><ele>614.0</ele><time>2026-04-10T08:03:39.886Z</time></trkpt><trkpt lat="43.9174358" lon="5.70236"><ele>615.3333333333333</ele><time>2026-04-10T08:03:40.883Z</time></trkpt><trkpt lat="43.9175195" lon="5.7021704"><ele>616.6666666666666</ele><time>2026-04-10T08:03:41.88Z</time></trkpt><trkpt lat="43.9176018" lon="5.7019884"><ele>618.0</ele><time>2026-04-10T08:03:42.879Z</time></trkpt><trkpt lat="43.9176854" lon="5.7017925"><ele>620.6666666666666</ele><time>2026-04-10T08:03:43.879Z</time></trkpt><trkpt lat="43.9177642" lon="5.7015948"><ele>623.3333333333333</ele><time>2026-04-10T08:03:44.883Z</time></trkpt><trkpt lat="43.9178404" lon="5.7013893"><ele>626.0</ele><time>2026-04-10T08:03:45.881Z</time></trkpt><trkpt lat="43.9179122" lon="5.7011934"><ele>627.0</ele><time>2026-04-10T08:03:46.88Z</time></trkpt><trkpt lat="43.9179856" lon="5.7010078"><ele>628.0</ele><time>2026-04-10T08:03:47.88Z</time></trkpt><trkpt lat="43.9180487" lon="5.7008856"><ele>629.0</ele><time>2026-04-10T08:03:48.881Z</time></trkpt><trkpt lat="43.91813" lon="5.7007708"><ele>630.0</ele><time>2026-04-10T08:03:49.877Z</time></trkpt><trkpt lat="43.9182164" lon="5.7006657"><ele>630.0</ele><time>2026-04-10T08:03:50.878Z</time></trkpt><trkpt lat="43.9183113" lon="5.7005824"><ele>630.0</ele><time>2026-04-10T08:03:51.88Z</time></trkpt><trkpt lat="43.9184229" lon="5.7006106"><ele>630.0</ele><time>2026-04-10T08:03:52.882Z</time></trkpt><trkpt lat="43.9185438" lon="5.7007751"><ele>630.0</ele><time>2026-04-10T08:03:53.88Z</time></trkpt><trkpt lat="43.9186741" lon="5.7008627"><ele>631.25</ele><time>2026-04-10T08:03:54.882Z</time></trkpt><trkpt lat="43.9188085" lon="5.7009394"><ele>632.5</ele><time>2026-04-10T08:03:55.884Z</time></trkpt><trkpt lat="43.918954" lon="5.7009465"><ele>633.75</ele><time>2026-04-10T08:03:56.884Z</time></trkpt><trkpt lat="43.9190996" lon="5.7008852"><ele>635.0</ele><time>2026-04-10T08:03:57.882Z</time></trkpt><trkpt lat="43.9192349" lon="5.7008646"><ele>636.0</ele><time>2026-04-10T08:03:58.881Z</time></trkpt><trkpt lat="43.9193711" lon="5.7008277"><ele>637.0</ele><time>2026-04-10T08:03:59.879Z</time></trkpt><trkpt lat="43.9195218" lon="5.7007899"><ele>638.0</ele><time>2026-04-10T08:04:00.88Z</time></trkpt><trkpt lat="43.9196683" lon="5.7007525"><ele>639.0</ele><time>2026-04-10T08:04:01.883Z</time></trkpt><trkpt lat="43.9198308" lon="5.700706"><ele>639.0</ele><time>2026-04-10T08:04:02.88Z</time></trkpt><trkpt lat="43.919983" lon="5.7006717"><ele>639.0</ele><time>2026-04-10T08:04:03.88Z</time></trkpt><trkpt lat="43.920135" lon="5.7006339"><ele>639.0</ele><time>2026-04-10T08:04:04.883Z</time></trkpt><trkpt lat="43.9202784" lon="5.7005954"><ele>639.5</ele><time>2026-04-10T08:04:05.877Z</time></trkpt><trkpt lat="43.9204087" lon="5.7005425"><ele>640.0</ele><time>2026-04-10T08:04:06.88Z</time></trkpt><trkpt lat="43.9205298" lon="5.7004651"><ele>640.5</ele><time>2026-04-10T08:04:07.883Z</time></trkpt><trkpt lat="43.920627" lon="5.7003398"><ele>641.0</ele><time>2026-04-10T08:04:08.882Z</time></trkpt><trkpt lat="43.9207085" lon="5.7002101"><ele>641.0</ele><time>2026-04-10T08:04:09.882Z</time></trkpt><trkpt lat="43.9207729" lon="5.7000429"><ele>641.0</ele><time>2026-04-10T08:04:10.882Z</time></trkpt><trkpt lat="43.9208358" lon="5.6998979"><ele>641.0</ele><time>2026-04-10T08:04:11.881Z</time></trkpt><trkpt lat="43.9209125" lon="5.6997649"><ele>641.0</ele><time>2026-04-10T08:04:12.88Z</time></trkpt><trkpt lat="43.9209992" lon="5.6996404"><ele>641.75</ele><time>2026-04-10T08:04:13.878Z</time></trkpt><trkpt lat="43.9210998" lon="5.6995228"><ele>642.5</ele><time>2026-04-10T08:04:14.917Z</time></trkpt><trkpt lat="43.9212207" lon="5.6994289"><ele>643.25</ele><time>2026-04-10T08:04:15.91Z</time></trkpt><trkpt lat="43.9213463" lon="5.6993367"><ele>644.0</ele><time>2026-04-10T08:04:16.884Z</time></trkpt><trkpt lat="43.9214799" lon="5.6992374"><ele>644.75</ele><time>2026-04-10T08:04:17.879Z</time></trkpt><trkpt lat="43.9216209" lon="5.6991586"><ele>645.5</ele><time>2026-04-10T08:04:18.881Z</time></trkpt><trkpt lat="43.9217476" lon="5.6990753"><ele>646.25</ele><time>2026-04-10T08:04:19.88Z</time></trkpt><trkpt lat="43.9218728" lon="5.6989789"><ele>647.0</ele><time>2026-04-10T08:04:20.88Z</time></trkpt><trkpt lat="43.9220015" lon="5.6988578"><ele>647.0</ele><time>2026-04-10T08:04:21.881Z</time></trkpt><trkpt lat="43.9221132" lon="5.6987243"><ele>647.0</ele><time>2026-04-10T08:04:22.881Z</time></trkpt><trkpt lat="43.9222274" lon="5.6985617"><ele>647.0</ele><time>2026-04-10T08:04:23.885Z</time></trkpt><trkpt lat="43.9223163" lon="5.6983836"><ele>649.0</ele><time>2026-04-10T08:04:24.881Z</time></trkpt><trkpt lat="43.9224019" lon="5.6981934"><ele>651.0</ele><time>2026-04-10T08:04:25.882Z</time></trkpt><trkpt lat="43.9224884" lon="5.6979875"><ele>653.0</ele><time>2026-04-10T08:04:26.878Z</time></trkpt><trkpt lat="43.9225705" lon="5.697773"><ele>649.3333333333333</ele><time>2026-04-10T08:04:27.879Z</time></trkpt><trkpt lat="43.922646" lon="5.6975574"><ele>645.6666666666666</ele><time>2026-04-10T08:04:28.888Z</time></trkpt><trkpt lat="43.9227362" lon="5.6973449"><ele>642.0</ele><time>2026-04-10T08:04:29.878Z</time></trkpt><trkpt lat="43.9228275" lon="5.6971323"><ele>642.0</ele><time>2026-04-10T08:04:30.882Z</time></trkpt><trkpt lat="43.9229381" lon="5.6969373"><ele>642.0</ele><time>2026-04-10T08:04:31.88Z</time></trkpt><trkpt lat="43.9230637" lon="5.6967465"><ele>642.0</ele><time>2026-04-10T08:04:32.876Z</time></trkpt><trkpt lat="43.9232008" lon="5.6965637"><ele>642.0</ele><time>2026-04-10T08:04:33.884Z</time></trkpt><trkpt lat="43.9233314" lon="5.6963804"><ele>642.0</ele><time>2026-04-10T08:04:34.88Z</time></trkpt><trkpt lat="43.923473" lon="5.6962209"><ele>642.0</ele><time>2026-04-10T08:04:35.882Z</time></trkpt><trkpt lat="43.9236369" lon="5.696097"><ele>633.0</ele><time>2026-04-10T08:04:36.883Z</time></trkpt><trkpt lat="43.9237903" lon="5.6959924"><ele>624.0</ele><time>2026-04-10T08:04:37.881Z</time></trkpt><trkpt lat="43.9239463" lon="5.6958903"><ele>615.0</ele><time>2026-04-10T08:04:38.879Z</time></trkpt><trkpt lat="43.9241049" lon="5.6957825"><ele>617.6666666666666</ele><time>2026-04-10T08:04:39.879Z</time></trkpt><trkpt lat="43.9242811" lon="5.6957163"><ele>620.3333333333333</ele><time>2026-04-10T08:04:40.88Z</time></trkpt><trkpt lat="43.9244489" lon="5.6956358"><ele>623.0</ele><time>2026-04-10T08:04:41.879Z</time></trkpt><trkpt lat="43.9246268" lon="5.6955621"><ele>623.0</ele><time>2026-04-10T08:04:42.88Z</time></trkpt><trkpt lat="43.9248156" lon="5.6954861"><ele>623.0</ele><time>2026-04-10T08:04:43.879Z</time></trkpt><trkpt lat="43.925001" lon="5.6954447"><ele>623.0</ele><time>2026-04-10T08:04:44.876Z</time></trkpt><trkpt lat="43.9251785" lon="5.6953921"><ele>625.3333333333333</ele><time>2026-04-10T08:04:45.877Z</time></trkpt><trkpt lat="43.9253637" lon="5.6953249"><ele>627.6666666666666</ele><time>2026-04-10T08:04:46.878Z</time></trkpt><trkpt lat="43.9255183" lon="5.6952413"><ele>630.0</ele><time>2026-04-10T08:04:47.884Z</time></trkpt><trkpt lat="43.925686" lon="5.6951958"><ele>621.0</ele><time>2026-04-10T08:04:48.884Z</time></trkpt><trkpt lat="43.9258527" lon="5.6951227"><ele>612.0</ele><time>2026-04-10T08:04:49.879Z</time></trkpt><trkpt lat="43.9260299" lon="5.6950464"><ele>603.0</ele><time>2026-04-10T08:04:50.88Z</time></trkpt><trkpt lat="43.9262091" lon="5.6949835"><ele>603.0</ele><time>2026-04-10T08:04:51.878Z</time></trkpt><trkpt lat="43.9263926" lon="5.6949231"><ele>603.0</ele><time>2026-04-10T08:04:52.885Z</time></trkpt><trkpt lat="43.9265796" lon="5.6948725"><ele>603.0</ele><time>2026-04-10T08:04:53.876Z</time></trkpt><trkpt lat="43.926762" lon="5.6948219"><ele>602.3333333333334</ele><time>2026-04-10T08:04:54.88Z</time></trkpt><trkpt lat="43.9269422" lon="5.6947979"><ele>601.6666666666667</ele><time>2026-04-10T08:04:55.878Z</time></trkpt><trkpt lat="43.9271185" lon="5.6947724"><ele>601.0</ele><time>2026-04-10T08:04:56.885Z</time></trkpt><trkpt lat="43.9272928" lon="5.6947443"><ele>601.0</ele><time>2026-04-10T08:04:57.882Z</time></trkpt><trkpt lat="43.9274629" lon="5.6947264"><ele>601.0</ele><time>2026-04-10T08:04:58.876Z</time></trkpt><trkpt lat="43.9276267" lon="5.6947202"><ele>601.0</ele><time>2026-04-10T08:04:59.881Z</time></trkpt><trkpt lat="43.9277853" lon="5.6947081"><ele>599.3333333333334</ele><time>2026-04-10T08:05:00.874Z</time></trkpt><trkpt lat="43.9279543" lon="5.6947092"><ele>597.6666666666666</ele><time>2026-04-10T08:05:01.879Z</time></trkpt><trkpt lat="43.9281244" lon="5.6947279"><ele>596.0</ele><time>2026-04-10T08:05:02.874Z</time></trkpt><trkpt lat="43.9282934" lon="5.6947546"><ele>593.3333333333333</ele><time>2026-04-10T08:05:03.878Z</time></trkpt><trkpt lat="43.9284662" lon="5.6947665"><ele>590.6666666666666</ele><time>2026-04-10T08:05:04.879Z</time></trkpt><trkpt lat="43.9286448" lon="5.6947579"><ele>588.0</ele><time>2026-04-10T08:05:05.875Z</time></trkpt><trkpt lat="43.928825" lon="5.6947436"><ele>588.0</ele><time>2026-04-10T08:05:06.876Z</time></trkpt><trkpt lat="43.9290021" lon="5.6947362"><ele>588.0</ele><time>2026-04-10T08:05:07.877Z</time></trkpt><trkpt lat="43.9291805" lon="5.6947192"><ele>588.0</ele><time>2026-04-10T08:05:08.875Z</time></trkpt><trkpt lat="43.9293594" lon="5.6947341"><ele>585.6666666666666</ele><time>2026-04-10T08:05:09.881Z</time></trkpt><trkpt lat="43.9295265" lon="5.6947284"><ele>583.3333333333333</ele><time>2026-04-10T08:05:10.882Z</time></trkpt><trkpt lat="43.9297066" lon="5.694724"><ele>581.0</ele><time>2026-04-10T08:05:11.876Z</time></trkpt><trkpt lat="43.9298936" lon="5.6947109"><ele>580.3333333333333</ele><time>2026-04-10T08:05:12.876Z</time></trkpt><trkpt lat="43.9301002" lon="5.6946754"><ele>579.6666666666666</ele><time>2026-04-10T08:05:13.878Z</time></trkpt><trkpt lat="43.9303247" lon="5.6946532"><ele>579.0</ele><time>2026-04-10T08:05:14.875Z</time></trkpt><trkpt lat="43.9305622" lon="5.6946278"><ele>579.0</ele><time>2026-04-10T08:05:15.877Z</time></trkpt><trkpt lat="43.9308055" lon="5.6945868"><ele>579.0</ele><time>2026-04-10T08:05:16.877Z</time></trkpt><trkpt lat="43.9310352" lon="5.6945508"><ele>579.0</ele><time>2026-04-10T08:05:17.876Z</time></trkpt><trkpt lat="43.9312598" lon="5.694509"><ele>579.0</ele><time>2026-04-10T08:05:18.88Z</time></trkpt><trkpt lat="43.9314778" lon="5.6944642"><ele>579.0</ele><time>2026-04-10T08:05:19.877Z</time></trkpt><trkpt lat="43.9316798" lon="5.6944024"><ele>570.3333333333334</ele><time>2026-04-10T08:05:20.881Z</time></trkpt><trkpt lat="43.93189" lon="5.6943576"><ele>561.6666666666667</ele><time>2026-04-10T08:05:21.879Z</time></trkpt><trkpt lat="43.9321029" lon="5.6943136"><ele>553.0</ele><time>2026-04-10T08:05:22.878Z</time></trkpt><trkpt lat="43.9323044" lon="5.6942617"><ele>553.0</ele><time>2026-04-10T08:05:23.875Z</time></trkpt><trkpt lat="43.9325185" lon="5.6942284"><ele>553.0</ele><time>2026-04-10T08:05:24.878Z</time></trkpt><trkpt lat="43.9327275" lon="5.6941804"><ele>553.0</ele><time>2026-04-10T08:05:25.882Z</time></trkpt><trkpt lat="43.9329319" lon="5.6941272"><ele>553.6666666666667</ele><time>2026-04-10T08:05:26.878Z</time></trkpt><trkpt lat="43.9331327" lon="5.6940765"><ele>554.3333333333334</ele><time>2026-04-10T08:05:27.88Z</time></trkpt><trkpt lat="43.9333301" lon="5.6940269"><ele>555.0</ele><time>2026-04-10T08:05:28.886Z</time></trkpt><trkpt lat="43.9335139" lon="5.6939604"><ele>556.0</ele><time>2026-04-10T08:05:29.878Z</time></trkpt><trkpt lat="43.9336957" lon="5.6938933"><ele>557.0</ele><time>2026-04-10T08:05:30.878Z</time></trkpt><trkpt lat="43.9338854" lon="5.6938024"><ele>558.0</ele><time>2026-04-10T08:05:31.878Z</time></trkpt><trkpt lat="43.9340654" lon="5.6937071"><ele>553.0</ele><time>2026-04-10T08:05:32.878Z</time></trkpt><trkpt lat="43.9342417" lon="5.6935847"><ele>548.0</ele><time>2026-04-10T08:05:33.876Z</time></trkpt><trkpt lat="43.9344009" lon="5.693425"><ele>543.0</ele><time>2026-04-10T08:05:34.878Z</time></trkpt><trkpt lat="43.9345583" lon="5.6932554"><ele>543.0</ele><time>2026-04-10T08:05:35.881Z</time></trkpt><trkpt lat="43.9347094" lon="5.6930779"><ele>543.0</ele><time>2026-04-10T08:05:36.877Z</time></trkpt><trkpt lat="43.9348572" lon="5.6929035"><ele>543.0</ele><time>2026-04-10T08:05:37.877Z</time></trkpt><trkpt lat="43.9349911" lon="5.6926954"><ele>539.6666666666666</ele><time>2026-04-10T08:05:38.876Z</time></trkpt><trkpt lat="43.9351535" lon="5.6925258"><ele>536.3333333333333</ele><time>2026-04-10T08:05:39.884Z</time></trkpt><trkpt lat="43.9353296" lon="5.6923584"><ele>533.0</ele><time>2026-04-10T08:05:40.881Z</time></trkpt><trkpt lat="43.9355228" lon="5.6922333"><ele>533.0</ele><time>2026-04-10T08:05:41.876Z</time></trkpt><trkpt lat="43.9357409" lon="5.6921325"><ele>533.0</ele><time>2026-04-10T08:05:42.877Z</time></trkpt><trkpt lat="43.9359485" lon="5.6920367"><ele>533.0</ele><time>2026-04-10T08:05:43.877Z</time></trkpt><trkpt lat="43.9361718" lon="5.6919706"><ele>526.5</ele><time>2026-04-10T08:05:44.878Z</time></trkpt><trkpt lat="43.9364021" lon="5.6918921"><ele>520.0</ele><time>2026-04-10T08:05:45.883Z</time></trkpt><trkpt lat="43.9366329" lon="5.6918102"><ele>520.0</ele><time>2026-04-10T08:05:46.875Z</time></trkpt><trkpt lat="43.9368838" lon="5.6917752"><ele>520.0</ele><time>2026-04-10T08:05:47.882Z</time></trkpt><trkpt lat="43.9371204" lon="5.6916966"><ele>520.0</ele><time>2026-04-10T08:05:48.879Z</time></trkpt><trkpt lat="43.937372" lon="5.6916276"><ele>520.0</ele><time>2026-04-10T08:05:49.876Z</time></trkpt><trkpt lat="43.9376021" lon="5.6915502"><ele>522.5</ele><time>2026-04-10T08:05:50.878Z</time></trkpt><trkpt lat="43.9378356" lon="5.6914776"><ele>525.0</ele><time>2026-04-10T08:05:51.875Z</time></trkpt><trkpt lat="43.9380661" lon="5.69141"><ele>525.0</ele><time>2026-04-10T08:05:52.876Z</time></trkpt><trkpt lat="43.9382896" lon="5.6913418"><ele>525.0</ele><time>2026-04-10T08:05:53.882Z</time></trkpt><trkpt lat="43.9385205" lon="5.6912726"><ele>525.3333333333334</ele><time>2026-04-10T08:05:54.876Z</time></trkpt><trkpt lat="43.9387356" lon="5.6912113"><ele>525.6666666666667</ele><time>2026-04-10T08:05:55.877Z</time></trkpt><trkpt lat="43.9389494" lon="5.6911956"><ele>526.0</ele><time>2026-04-10T08:05:56.877Z</time></trkpt><trkpt lat="43.9391673" lon="5.6912028"><ele>526.3333333333334</ele><time>2026-04-10T08:05:57.879Z</time></trkpt><trkpt lat="43.9393668" lon="5.6912606"><ele>526.6666666666666</ele><time>2026-04-10T08:05:58.882Z</time></trkpt><trkpt lat="43.939554" lon="5.691357"><ele>527.0</ele><time>2026-04-10T08:05:59.879Z</time></trkpt><trkpt lat="43.9397261" lon="5.6914845"><ele>527.0</ele><time>2026-04-10T08:06:00.879Z</time></trkpt><trkpt lat="43.9398882" lon="5.6915927"><ele>527.0</ele><time>2026-04-10T08:06:01.878Z</time></trkpt><trkpt lat="43.9400457" lon="5.6916541"><ele>527.0</ele><time>2026-04-10T08:06:02.876Z</time></trkpt><trkpt lat="43.9402082" lon="5.6916947"><ele>528.3333333333333</ele><time>2026-04-10T08:06:03.878Z</time></trkpt><trkpt lat="43.9403827" lon="5.6916335"><ele>529.6666666666666</ele><time>2026-04-10T08:06:04.876Z</time></trkpt><trkpt lat="43.940557" lon="5.691613"><ele>531.0</ele><time>2026-04-10T08:06:05.877Z</time></trkpt><trkpt lat="43.9407333" lon="5.6915751"><ele>532.0</ele><time>2026-04-10T08:06:06.875Z</time></trkpt><trkpt lat="43.9409057" lon="5.6915225"><ele>533.0</ele><time>2026-04-10T08:06:07.879Z</time></trkpt><trkpt lat="43.9410733" lon="5.6914589"><ele>534.0</ele><time>2026-04-10T08:06:08.882Z</time></trkpt><trkpt lat="43.9412507" lon="5.691393"><ele>534.0</ele><time>2026-04-10T08:06:09.88Z</time></trkpt><trkpt lat="43.9414358" lon="5.6913041"><ele>534.0</ele><time>2026-04-10T08:06:10.882Z</time></trkpt><trkpt lat="43.9416154" lon="5.6911928"><ele>534.0</ele><time>2026-04-10T08:06:11.876Z</time></trkpt><trkpt lat="43.9418145" lon="5.6910981"><ele>532.0</ele><time>2026-04-10T08:06:12.883Z</time></trkpt><trkpt lat="43.9420164" lon="5.691025"><ele>530.0</ele><time>2026-04-10T08:06:13.878Z</time></trkpt><trkpt lat="43.9422078" lon="5.6909902"><ele>528.0</ele><time>2026-04-10T08:06:14.878Z</time></trkpt><trkpt lat="43.9423984" lon="5.6909605"><ele>528.6666666666666</ele><time>2026-04-10T08:06:15.877Z</time></trkpt><trkpt lat="43.9425862" lon="5.6909523"><ele>529.3333333333333</ele><time>2026-04-10T08:06:16.882Z</time></trkpt><trkpt lat="43.9427795" lon="5.6909429"><ele>530.0</ele><time>2026-04-10T08:06:17.878Z</time></trkpt><trkpt lat="43.9429848" lon="5.6909383"><ele>530.0</ele><time>2026-04-10T08:06:18.878Z</time></trkpt><trkpt lat="43.9431966" lon="5.6909492"><ele>530.0</ele><time>2026-04-10T08:06:19.882Z</time></trkpt><trkpt lat="43.9433975" lon="5.6909432"><ele>530.0</ele><time>2026-04-10T08:06:20.883Z</time></trkpt><trkpt lat="43.9436069" lon="5.6909483"><ele>530.3333333333333</ele><time>2026-04-10T08:06:21.875Z</time></trkpt><trkpt lat="43.9438141" lon="5.6909596"><ele>530.6666666666666</ele><time>2026-04-10T08:06:22.879Z</time></trkpt><trkpt lat="43.9440262" lon="5.6909723"><ele>531.0</ele><time>2026-04-10T08:06:23.879Z</time></trkpt><trkpt lat="43.94423" lon="5.6909754"><ele>531.3333333333334</ele><time>2026-04-10T08:06:24.877Z</time></trkpt><trkpt lat="43.9444361" lon="5.691021"><ele>531.6666666666667</ele><time>2026-04-10T08:06:25.875Z</time></trkpt><trkpt lat="43.9446563" lon="5.6910948"><ele>532.0</ele><time>2026-04-10T08:06:26.878Z</time></trkpt><trkpt lat="43.9448656" lon="5.6911452"><ele>535.6666666666667</ele><time>2026-04-10T08:06:27.88Z</time></trkpt><trkpt lat="43.9450773" lon="5.6912134"><ele>539.3333333333334</ele><time>2026-04-10T08:06:28.876Z</time></trkpt><trkpt lat="43.9452888" lon="5.6912713"><ele>543.0</ele><time>2026-04-10T08:06:29.878Z</time></trkpt><trkpt lat="43.9455049" lon="5.6913529"><ele>543.0</ele><time>2026-04-10T08:06:30.879Z</time></trkpt><trkpt lat="43.9457281" lon="5.6914448"><ele>543.0</ele><time>2026-04-10T08:06:31.882Z</time></trkpt><trkpt lat="43.945947" lon="5.6915385"><ele>542.6666666666666</ele><time>2026-04-10T08:06:32.884Z</time></trkpt><trkpt lat="43.946164" lon="5.691626"><ele>542.3333333333333</ele><time>2026-04-10T08:06:33.878Z</time></trkpt><trkpt lat="43.946374" lon="5.691709"><ele>542.0</ele><time>2026-04-10T08:06:34.876Z</time></trkpt><trkpt lat="43.946597" lon="5.6917856"><ele>541.3333333333333</ele><time>2026-04-10T08:06:35.876Z</time></trkpt><trkpt lat="43.9468101" lon="5.6918694"><ele>540.6666666666666</ele><time>2026-04-10T08:06:36.878Z</time></trkpt><trkpt lat="43.9470229" lon="5.691948"><ele>540.0</ele><time>2026-04-10T08:06:37.879Z</time></trkpt><trkpt lat="43.9472358" lon="5.6920425"><ele>546.3333333333334</ele><time>2026-04-10T08:06:38.877Z</time></trkpt><trkpt lat="43.9474461" lon="5.6921359"><ele>552.6666666666667</ele><time>2026-04-10T08:06:39.879Z</time></trkpt><trkpt lat="43.9476617" lon="5.6922149"><ele>559.0</ele><time>2026-04-10T08:06:40.881Z</time></trkpt><trkpt lat="43.9478753" lon="5.6923046"><ele>559.6666666666667</ele><time>2026-04-10T08:06:41.876Z</time></trkpt><trkpt lat="43.9480853" lon="5.6923945"><ele>560.3333333333334</ele><time>2026-04-10T08:06:42.877Z</time></trkpt><trkpt lat="43.948287" lon="5.6924803"><ele>561.0</ele><time>2026-04-10T08:06:43.882Z</time></trkpt><trkpt lat="43.9484779" lon="5.6925283"><ele>561.0</ele><time>2026-04-10T08:06:44.881Z</time></trkpt><trkpt lat="43.9486842" lon="5.6925862"><ele>561.0</ele><time>2026-04-10T08:06:45.877Z</time></trkpt><trkpt lat="43.9488924" lon="5.6926179"><ele>561.0</ele><time>2026-04-10T08:06:46.879Z</time></trkpt><trkpt lat="43.9490893" lon="5.6926111"><ele>563.6666666666666</ele><time>2026-04-10T08:06:47.875Z</time></trkpt><trkpt lat="43.949294" lon="5.6926144"><ele>566.3333333333333</ele><time>2026-04-10T08:06:48.885Z</time></trkpt><trkpt lat="43.9494958" lon="5.6926253"><ele>569.0</ele><time>2026-04-10T08:06:49.881Z</time></trkpt><trkpt lat="43.9496993" lon="5.6925954"><ele>569.0</ele><time>2026-04-10T08:06:50.878Z</time></trkpt><trkpt lat="43.9499122" lon="5.6925878"><ele>569.0</ele><time>2026-04-10T08:06:51.875Z</time></trkpt><trkpt lat="43.9501247" lon="5.692571"><ele>569.0</ele><time>2026-04-10T08:06:52.88Z</time></trkpt><trkpt lat="43.9503318" lon="5.692547"><ele>570.6666666666666</ele><time>2026-04-10T08:06:53.877Z</time></trkpt><trkpt lat="43.9505488" lon="5.6925318"><ele>572.3333333333334</ele><time>2026-04-10T08:06:54.877Z</time></trkpt><trkpt lat="43.9507584" lon="5.6925101"><ele>574.0</ele><time>2026-04-10T08:06:55.883Z</time></trkpt><trkpt lat="43.9509658" lon="5.6925051"><ele>574.0</ele><time>2026-04-10T08:06:56.882Z</time></trkpt><trkpt lat="43.9511808" lon="5.6925131"><ele>574.0</ele><time>2026-04-10T08:06:57.877Z</time></trkpt><trkpt lat="43.9514116" lon="5.6925795"><ele>574.0</ele><time>2026-04-10T08:06:58.88Z</time></trkpt><trkpt lat="43.9516205" lon="5.6925908"><ele>574.0</ele><time>2026-04-10T08:06:59.876Z</time></trkpt><trkpt lat="43.951828" lon="5.6926027"><ele>574.0</ele><time>2026-04-10T08:07:00.878Z</time></trkpt><trkpt lat="43.952026" lon="5.6926056"><ele>573.6666666666667</ele><time>2026-04-10T08:07:01.881Z</time></trkpt><trkpt lat="43.9522324" lon="5.6926232"><ele>573.3333333333334</ele><time>2026-04-10T08:07:02.876Z</time></trkpt><trkpt lat="43.9524354" lon="5.6926419"><ele>573.0</ele><time>2026-04-10T08:07:03.878Z</time></trkpt><trkpt lat="43.952635" lon="5.6926425"><ele>573.0</ele><time>2026-04-10T08:07:04.876Z</time></trkpt><trkpt lat="43.9528418" lon="5.6926544"><ele>573.0</ele><time>2026-04-10T08:07:05.879Z</time></trkpt><trkpt lat="43.9530499" lon="5.6926845"><ele>573.0</ele><time>2026-04-10T08:07:06.877Z</time></trkpt><trkpt lat="43.9532432" lon="5.6926852"><ele>573.0</ele><time>2026-04-10T08:07:07.875Z</time></trkpt><trkpt lat="43.953443" lon="5.6926967"><ele>573.0</ele><time>2026-04-10T08:07:08.879Z</time></trkpt><trkpt lat="43.9536357" lon="5.6927144"><ele>573.0</ele><time>2026-04-10T08:07:09.877Z</time></trkpt><trkpt lat="43.953833" lon="5.6927189"><ele>573.0</ele><time>2026-04-10T08:07:10.874Z</time></trkpt><trkpt lat="43.9540227" lon="5.6927084"><ele>573.0</ele><time>2026-04-10T08:07:11.882Z</time></trkpt><trkpt lat="43.9542238" lon="5.6926898"><ele>573.0</ele><time>2026-04-10T08:07:12.884Z</time></trkpt><trkpt lat="43.9544199" lon="5.69266"><ele>572.6666666666666</ele><time>2026-04-10T08:07:13.876Z</time></trkpt><trkpt lat="43.9546246" lon="5.6926356"><ele>572.3333333333333</ele><time>2026-04-10T08:07:14.876Z</time></trkpt><trkpt lat="43.9548232" lon="5.6926161"><ele>572.0</ele><time>2026-04-10T08:07:15.882Z</time></trkpt><trkpt lat="43.9550255" lon="5.6926233"><ele>570.0</ele><time>2026-04-10T08:07:16.877Z</time></trkpt><trkpt lat="43.9552321" lon="5.6926145"><ele>568.0</ele><time>2026-04-10T08:07:17.876Z</time></trkpt><trkpt lat="43.9554322" lon="5.6926596"><ele>566.0</ele><time>2026-04-10T08:07:18.876Z</time></trkpt><trkpt lat="43.9556303" lon="5.6926789"><ele>566.0</ele><time>2026-04-10T08:07:19.877Z</time></trkpt><trkpt lat="43.955834" lon="5.6927319"><ele>566.0</ele><time>2026-04-10T08:07:20.879Z</time></trkpt><trkpt lat="43.9560357" lon="5.6927921"><ele>566.0</ele><time>2026-04-10T08:07:21.879Z</time></trkpt><trkpt lat="43.9562465" lon="5.6928279"><ele>577.6666666666666</ele><time>2026-04-10T08:07:22.874Z</time></trkpt><trkpt lat="43.9564373" lon="5.6928408"><ele>589.3333333333334</ele><time>2026-04-10T08:07:23.879Z</time></trkpt><trkpt lat="43.9566243" lon="5.6928617"><ele>601.0</ele><time>2026-04-10T08:07:24.877Z</time></trkpt><trkpt lat="43.9568229" lon="5.6928695"><ele>601.0</ele><time>2026-04-10T08:07:25.88Z</time></trkpt><trkpt lat="43.9570191" lon="5.6928442"><ele>601.0</ele><time>2026-04-10T08:07:26.882Z</time></trkpt><trkpt lat="43.9572181" lon="5.692822"><ele>601.0</ele><time>2026-04-10T08:07:27.881Z</time></trkpt><trkpt lat="43.9574167" lon="5.692807"><ele>601.0</ele><time>2026-04-10T08:07:28.878Z</time></trkpt><trkpt lat="43.9576215" lon="5.6927918"><ele>601.0</ele><time>2026-04-10T08:07:29.876Z</time></trkpt><trkpt lat="43.9578263" lon="5.6927627"><ele>601.0</ele><time>2026-04-10T08:07:30.878Z</time></trkpt><trkpt lat="43.9580202" lon="5.6927202"><ele>592.6666666666667</ele><time>2026-04-10T08:07:31.877Z</time></trkpt><trkpt lat="43.9582155" lon="5.692682"><ele>584.3333333333334</ele><time>2026-04-10T08:07:32.883Z</time></trkpt><trkpt lat="43.9583943" lon="5.6926442"><ele>576.0</ele><time>2026-04-10T08:07:33.886Z</time></trkpt><trkpt lat="43.9585644" lon="5.6925908"><ele>576.0</ele><time>2026-04-10T08:07:34.882Z</time></trkpt><trkpt lat="43.9587388" lon="5.6925435"><ele>576.0</ele><time>2026-04-10T08:07:35.877Z</time></trkpt><trkpt lat="43.9589137" lon="5.6924882"><ele>576.0</ele><time>2026-04-10T08:07:36.878Z</time></trkpt><trkpt lat="43.9590864" lon="5.6923677"><ele>574.6666666666666</ele><time>2026-04-10T08:07:37.879Z</time></trkpt><trkpt lat="43.9592503" lon="5.6922593"><ele>573.3333333333333</ele><time>2026-04-10T08:07:38.88Z</time></trkpt><trkpt lat="43.9593906" lon="5.6920758"><ele>572.0</ele><time>2026-04-10T08:07:39.88Z</time></trkpt><trkpt lat="43.9595066" lon="5.6918806"><ele>572.0</ele><time>2026-04-10T08:07:40.877Z</time></trkpt><trkpt lat="43.9596219" lon="5.6916965"><ele>572.0</ele><time>2026-04-10T08:07:41.875Z</time></trkpt><trkpt lat="43.9597593" lon="5.69152"><ele>572.0</ele><time>2026-04-10T08:07:42.88Z</time></trkpt><trkpt lat="43.9599294" lon="5.6914148"><ele>573.6666666666666</ele><time>2026-04-10T08:07:43.88Z</time></trkpt><trkpt lat="43.9601067" lon="5.691321"><ele>575.3333333333334</ele><time>2026-04-10T08:07:44.876Z</time></trkpt><trkpt lat="43.9602914" lon="5.6912848"><ele>577.0</ele><time>2026-04-10T08:07:45.879Z</time></trkpt><trkpt lat="43.9604765" lon="5.6912589"><ele>577.0</ele><time>2026-04-10T08:07:46.878Z</time></trkpt><trkpt lat="43.9606539" lon="5.6912566"><ele>577.0</ele><time>2026-04-10T08:07:47.879Z</time></trkpt><trkpt lat="43.960818" lon="5.6912012"><ele>577.0</ele><time>2026-04-10T08:07:48.877Z</time></trkpt><trkpt lat="43.9609964" lon="5.6911193"><ele>573.6666666666667</ele><time>2026-04-10T08:07:49.876Z</time></trkpt><trkpt lat="43.9611759" lon="5.69101"><ele>570.3333333333334</ele><time>2026-04-10T08:07:50.879Z</time></trkpt><trkpt lat="43.9613502" lon="5.6908837"><ele>567.0</ele><time>2026-04-10T08:07:51.878Z</time></trkpt><trkpt lat="43.9614852" lon="5.6907201"><ele>567.0</ele><time>2026-04-10T08:07:52.876Z</time></trkpt><trkpt lat="43.9615869" lon="5.6905041"><ele>567.0</ele><time>2026-04-10T08:07:53.876Z</time></trkpt><trkpt lat="43.9616807" lon="5.690298"><ele>567.0</ele><time>2026-04-10T08:07:54.88Z</time></trkpt><trkpt lat="43.9617497" lon="5.690049"><ele>567.0</ele><time>2026-04-10T08:07:55.877Z</time></trkpt><trkpt lat="43.9618338" lon="5.6898193"><ele>567.0</ele><time>2026-04-10T08:07:56.877Z</time></trkpt><trkpt lat="43.9619331" lon="5.6896051"><ele>567.0</ele><time>2026-04-10T08:07:57.877Z</time></trkpt><trkpt lat="43.9620709" lon="5.6894371"><ele>564.3333333333334</ele><time>2026-04-10T08:07:58.876Z</time></trkpt><trkpt lat="43.9622052" lon="5.6892728"><ele>561.6666666666667</ele><time>2026-04-10T08:07:59.876Z</time></trkpt><trkpt lat="43.9623704" lon="5.6891709"><ele>559.0</ele><time>2026-04-10T08:08:00.877Z</time></trkpt><trkpt lat="43.9625303" lon="5.6890568"><ele>559.3333333333334</ele><time>2026-04-10T08:08:01.884Z</time></trkpt><trkpt lat="43.9626519" lon="5.6888892"><ele>559.6666666666666</ele><time>2026-04-10T08:08:02.88Z</time></trkpt><trkpt lat="43.9627593" lon="5.6887191"><ele>560.0</ele><time>2026-04-10T08:08:03.876Z</time></trkpt><trkpt lat="43.9628393" lon="5.6885017"><ele>560.0</ele><time>2026-04-10T08:08:04.88Z</time></trkpt><trkpt lat="43.9628903" lon="5.6882568"><ele>560.0</ele><time>2026-04-10T08:08:05.877Z</time></trkpt><trkpt lat="43.9629646" lon="5.6880261"><ele>560.0</ele><time>2026-04-10T08:08:06.884Z</time></trkpt><trkpt lat="43.9630469" lon="5.6878165"><ele>560.0</ele><time>2026-04-10T08:08:07.877Z</time></trkpt><trkpt lat="43.9631955" lon="5.6876742"><ele>560.0</ele><time>2026-04-10T08:08:08.874Z</time></trkpt><trkpt lat="43.9633323" lon="5.6875283"><ele>560.0</ele><time>2026-04-10T08:08:09.878Z</time></trkpt><trkpt lat="43.9634899" lon="5.6873991"><ele>560.0</ele><time>2026-04-10T08:08:10.88Z</time></trkpt><trkpt lat="43.9636487" lon="5.687279"><ele>560.0</ele><time>2026-04-10T08:08:11.879Z</time></trkpt><trkpt lat="43.9638135" lon="5.6871593"><ele>560.0</ele><time>2026-04-10T08:08:12.883Z</time></trkpt><trkpt lat="43.963989" lon="5.6870431"><ele>559.0</ele><time>2026-04-10T08:08:13.878Z</time></trkpt><trkpt lat="43.9641584" lon="5.6869159"><ele>558.0</ele><time>2026-04-10T08:08:14.879Z</time></trkpt><trkpt lat="43.9643322" lon="5.686798"><ele>557.0</ele><time>2026-04-10T08:08:15.877Z</time></trkpt><trkpt lat="43.9645038" lon="5.6866768"><ele>557.0</ele><time>2026-04-10T08:08:16.879Z</time></trkpt><trkpt lat="43.9646691" lon="5.6865447"><ele>557.0</ele><time>2026-04-10T08:08:17.879Z</time></trkpt><trkpt lat="43.9648281" lon="5.6864009"><ele>557.0</ele><time>2026-04-10T08:08:18.879Z</time></trkpt><trkpt lat="43.9649763" lon="5.6862196"><ele>558.3333333333333</ele><time>2026-04-10T08:08:19.877Z</time></trkpt><trkpt lat="43.9651225" lon="5.6860388"><ele>559.6666666666666</ele><time>2026-04-10T08:08:20.88Z</time></trkpt><trkpt lat="43.9652533" lon="5.6858396"><ele>561.0</ele><time>2026-04-10T08:08:21.882Z</time></trkpt><trkpt lat="43.9653781" lon="5.6856217"><ele>561.0</ele><time>2026-04-10T08:08:22.876Z</time></trkpt><trkpt lat="43.9655014" lon="5.6854048"><ele>561.0</ele><time>2026-04-10T08:08:23.877Z</time></trkpt><trkpt lat="43.9656142" lon="5.6851709"><ele>561.0</ele><time>2026-04-10T08:08:24.881Z</time></trkpt><trkpt lat="43.9657289" lon="5.6849415"><ele>561.3333333333334</ele><time>2026-04-10T08:08:25.879Z</time></trkpt><trkpt lat="43.9658298" lon="5.6846901"><ele>561.6666666666667</ele><time>2026-04-10T08:08:26.876Z</time></trkpt><trkpt lat="43.9659284" lon="5.6844398"><ele>562.0</ele><time>2026-04-10T08:08:27.875Z</time></trkpt><trkpt lat="43.9660384" lon="5.6841985"><ele>562.0</ele><time>2026-04-10T08:08:28.876Z</time></trkpt><trkpt lat="43.9661653" lon="5.6839665"><ele>562.0</ele><time>2026-04-10T08:08:29.877Z</time></trkpt><trkpt lat="43.9663033" lon="5.6837399"><ele>562.0</ele><time>2026-04-10T08:08:30.875Z</time></trkpt><trkpt lat="43.9664358" lon="5.6835194"><ele>563.6666666666667</ele><time>2026-04-10T08:08:31.876Z</time></trkpt><trkpt lat="43.9665935" lon="5.6833252"><ele>565.3333333333334</ele><time>2026-04-10T08:08:32.88Z</time></trkpt><trkpt lat="43.9667613" lon="5.6831464"><ele>567.0</ele><time>2026-04-10T08:08:33.874Z</time></trkpt><trkpt lat="43.9669417" lon="5.6830001"><ele>567.0</ele><time>2026-04-10T08:08:34.876Z</time></trkpt><trkpt lat="43.9671239" lon="5.6828675"><ele>567.0</ele><time>2026-04-10T08:08:35.879Z</time></trkpt><trkpt lat="43.9673093" lon="5.6827633"><ele>567.0</ele><time>2026-04-10T08:08:36.887Z</time></trkpt><trkpt lat="43.9674918" lon="5.6826514"><ele>565.0</ele><time>2026-04-10T08:08:37.881Z</time></trkpt><trkpt lat="43.9676672" lon="5.6825417"><ele>563.0</ele><time>2026-04-10T08:08:38.881Z</time></trkpt><trkpt lat="43.9678382" lon="5.6824251"><ele>561.0</ele><time>2026-04-10T08:08:39.879Z</time></trkpt><trkpt lat="43.9680052" lon="5.6823133"><ele>561.0</ele><time>2026-04-10T08:08:40.874Z</time></trkpt><trkpt lat="43.9681716" lon="5.6821937"><ele>561.0</ele><time>2026-04-10T08:08:41.875Z</time></trkpt><trkpt lat="43.9683338" lon="5.6820595"><ele>561.0</ele><time>2026-04-10T08:08:42.879Z</time></trkpt><trkpt lat="43.9684935" lon="5.6819216"><ele>561.3333333333334</ele><time>2026-04-10T08:08:43.881Z</time></trkpt><trkpt lat="43.9686576" lon="5.6817812"><ele>561.6666666666667</ele><time>2026-04-10T08:08:44.88Z</time></trkpt><trkpt lat="43.9688157" lon="5.681647"><ele>562.0</ele><time>2026-04-10T08:08:45.88Z</time></trkpt><trkpt lat="43.9689781" lon="5.6815088"><ele>562.0</ele><time>2026-04-10T08:08:46.88Z</time></trkpt><trkpt lat="43.9691344" lon="5.6813871"><ele>562.0</ele><time>2026-04-10T08:08:47.877Z</time></trkpt><trkpt lat="43.9693061" lon="5.6812811"><ele>562.0</ele><time>2026-04-10T08:08:48.879Z</time></trkpt><trkpt lat="43.9694828" lon="5.6811879"><ele>560.6666666666667</ele><time>2026-04-10T08:08:49.877Z</time></trkpt><trkpt lat="43.9696472" lon="5.6810964"><ele>559.3333333333334</ele><time>2026-04-10T08:08:50.881Z</time></trkpt><trkpt lat="43.9698129" lon="5.6810182"><ele>558.0</ele><time>2026-04-10T08:08:51.876Z</time></trkpt><trkpt lat="43.9699663" lon="5.6809575"><ele>559.3333333333334</ele><time>2026-04-10T08:08:52.88Z</time></trkpt><trkpt lat="43.9701286" lon="5.6808809"><ele>560.6666666666667</ele><time>2026-04-10T08:08:53.875Z</time></trkpt><trkpt lat="43.9702908" lon="5.6808147"><ele>562.0</ele><time>2026-04-10T08:08:54.881Z</time></trkpt><trkpt lat="43.9704508" lon="5.6807318"><ele>562.0</ele><time>2026-04-10T08:08:55.878Z</time></trkpt><trkpt lat="43.9706125" lon="5.6806552"><ele>562.0</ele><time>2026-04-10T08:08:56.882Z</time></trkpt><trkpt lat="43.9707719" lon="5.6805811"><ele>562.0</ele><time>2026-04-10T08:08:57.878Z</time></trkpt><trkpt lat="43.9709307" lon="5.680481"><ele>561.6666666666667</ele><time>2026-04-10T08:08:58.879Z</time></trkpt><trkpt lat="43.9710777" lon="5.6803839"><ele>561.3333333333334</ele><time>2026-04-10T08:08:59.879Z</time></trkpt><trkpt lat="43.9712247" lon="5.6802761"><ele>561.0</ele><time>2026-04-10T08:09:00.879Z</time></trkpt><trkpt lat="43.9713769" lon="5.6801735"><ele>561.0</ele><time>2026-04-10T08:09:01.875Z</time></trkpt><trkpt lat="43.9715305" lon="5.6800728"><ele>561.0</ele><time>2026-04-10T08:09:02.873Z</time></trkpt><trkpt lat="43.971678" lon="5.679971"><ele>561.0</ele><time>2026-04-10T08:09:03.877Z</time></trkpt><trkpt lat="43.9718136" lon="5.6798682"><ele>560.3333333333334</ele><time>2026-04-10T08:09:04.88Z</time></trkpt><trkpt lat="43.971951" lon="5.6797526"><ele>559.6666666666667</ele><time>2026-04-10T08:09:05.877Z</time></trkpt><trkpt lat="43.972052" lon="5.6795808"><ele>559.0</ele><time>2026-04-10T08:09:06.879Z</time></trkpt><trkpt lat="43.9721539" lon="5.6794128"><ele>559.0</ele><time>2026-04-10T08:09:07.878Z</time></trkpt><trkpt lat="43.9722313" lon="5.679207"><ele>559.0</ele><time>2026-04-10T08:09:08.88Z</time></trkpt><trkpt lat="43.9722865" lon="5.6789648"><ele>559.0</ele><time>2026-04-10T08:09:09.882Z</time></trkpt><trkpt lat="43.9723133" lon="5.6787004"><ele>557.3333333333334</ele><time>2026-04-10T08:09:10.878Z</time></trkpt><trkpt lat="43.9723875" lon="5.6784661"><ele>555.6666666666666</ele><time>2026-04-10T08:09:11.876Z</time></trkpt><trkpt lat="43.9724734" lon="5.6782428"><ele>554.0</ele><time>2026-04-10T08:09:12.876Z</time></trkpt><trkpt lat="43.9725643" lon="5.6780105"><ele>554.0</ele><time>2026-04-10T08:09:13.876Z</time></trkpt><trkpt lat="43.9726662" lon="5.6778047"><ele>554.0</ele><time>2026-04-10T08:09:14.878Z</time></trkpt><trkpt lat="43.9727485" lon="5.6775758"><ele>554.0</ele><time>2026-04-10T08:09:15.886Z</time></trkpt><trkpt lat="43.9728445" lon="5.6773511"><ele>554.0</ele><time>2026-04-10T08:09:16.883Z</time></trkpt><trkpt lat="43.9729213" lon="5.6771281"><ele>554.0</ele><time>2026-04-10T08:09:17.891Z</time></trkpt><trkpt lat="43.9730057" lon="5.6769111"><ele>554.0</ele><time>2026-04-10T08:09:18.881Z</time></trkpt><trkpt lat="43.9730807" lon="5.6767124"><ele>553.6666666666666</ele><time>2026-04-10T08:09:19.876Z</time></trkpt><trkpt lat="43.9731519" lon="5.6765134"><ele>553.3333333333334</ele><time>2026-04-10T08:09:20.885Z</time></trkpt><trkpt lat="43.9732114" lon="5.6762954"><ele>553.0</ele><time>2026-04-10T08:09:21.882Z</time></trkpt><trkpt lat="43.9733042" lon="5.6760912"><ele>553.6666666666667</ele><time>2026-04-10T08:09:22.879Z</time></trkpt><trkpt lat="43.9733815" lon="5.675888"><ele>554.3333333333334</ele><time>2026-04-10T08:09:23.877Z</time></trkpt><trkpt lat="43.9734518" lon="5.6756879"><ele>555.0</ele><time>2026-04-10T08:09:24.881Z</time></trkpt><trkpt lat="43.9735346" lon="5.6754944"><ele>555.0</ele><time>2026-04-10T08:09:25.878Z</time></trkpt><trkpt lat="43.9736285" lon="5.6752996"><ele>555.0</ele><time>2026-04-10T08:09:26.886Z</time></trkpt><trkpt lat="43.9737135" lon="5.6751101"><ele>555.0</ele><time>2026-04-10T08:09:27.88Z</time></trkpt><trkpt lat="43.9737897" lon="5.6749216"><ele>556.0</ele><time>2026-04-10T08:09:28.882Z</time></trkpt><trkpt lat="43.9738676" lon="5.6747316"><ele>557.0</ele><time>2026-04-10T08:09:29.877Z</time></trkpt><trkpt lat="43.9739413" lon="5.6745527"><ele>558.0</ele><time>2026-04-10T08:09:30.881Z</time></trkpt><trkpt lat="43.974016" lon="5.6743659"><ele>558.25</ele><time>2026-04-10T08:09:31.878Z</time></trkpt><trkpt lat="43.9740938" lon="5.6741757"><ele>558.5</ele><time>2026-04-10T08:09:32.881Z</time></trkpt><trkpt lat="43.9741631" lon="5.6739977"><ele>558.75</ele><time>2026-04-10T08:09:33.882Z</time></trkpt><trkpt lat="43.9742331" lon="5.6738213"><ele>559.0</ele><time>2026-04-10T08:09:34.876Z</time></trkpt><trkpt lat="43.974319" lon="5.6736659"><ele>560.5</ele><time>2026-04-10T08:09:35.88Z</time></trkpt><trkpt lat="43.9743787" lon="5.6735034"><ele>562.0</ele><time>2026-04-10T08:09:36.877Z</time></trkpt><trkpt lat="43.9744393" lon="5.6733496"><ele>563.5</ele><time>2026-04-10T08:09:37.878Z</time></trkpt><trkpt lat="43.9744793" lon="5.6732274"><ele>565.0</ele><time>2026-04-10T08:09:38.88Z</time></trkpt><trkpt lat="43.9745212" lon="5.673104"><ele>565.0</ele><time>2026-04-10T08:09:39.883Z</time></trkpt><trkpt lat="43.9745679" lon="5.6729911"><ele>565.0</ele><time>2026-04-10T08:09:40.881Z</time></trkpt><trkpt lat="43.9746277" lon="5.6728792"><ele>565.0</ele><time>2026-04-10T08:09:41.879Z</time></trkpt><trkpt lat="43.9746672" lon="5.6727706"><ele>565.0</ele><time>2026-04-10T08:09:42.884Z</time></trkpt><trkpt lat="43.9747072" lon="5.672668"><ele>565.0</ele><time>2026-04-10T08:09:43.889Z</time></trkpt><trkpt lat="43.9747517" lon="5.6725696"><ele>565.0</ele><time>2026-04-10T08:09:44.885Z</time></trkpt><trkpt lat="43.9747958" lon="5.6724773"><ele>565.6</ele><time>2026-04-10T08:09:45.885Z</time></trkpt><trkpt lat="43.9748291" lon="5.672374"><ele>566.2</ele><time>2026-04-10T08:09:46.885Z</time></trkpt><trkpt lat="43.9748838" lon="5.6722638"><ele>566.8</ele><time>2026-04-10T08:09:47.88Z</time></trkpt><trkpt lat="43.97494" lon="5.6721348"><ele>567.4</ele><time>2026-04-10T08:09:48.876Z</time></trkpt><trkpt lat="43.9749893" lon="5.6720123"><ele>568.0</ele><time>2026-04-10T08:09:49.879Z</time></trkpt><trkpt lat="43.9750374" lon="5.6718784"><ele>568.4</ele><time>2026-04-10T08:09:50.879Z</time></trkpt><trkpt lat="43.9750883" lon="5.6717418"><ele>568.8</ele><time>2026-04-10T08:09:51.876Z</time></trkpt><trkpt lat="43.9751378" lon="5.6716113"><ele>569.2</ele><time>2026-04-10T08:09:52.877Z</time></trkpt><trkpt lat="43.9751914" lon="5.6714825"><ele>569.6</ele><time>2026-04-10T08:09:53.884Z</time></trkpt><trkpt lat="43.9752463" lon="5.6713467"><ele>570.0</ele><time>2026-04-10T08:09:54.879Z</time></trkpt><trkpt lat="43.975301" lon="5.6712149"><ele>570.8</ele><time>2026-04-10T08:09:55.88Z</time></trkpt><trkpt lat="43.9753572" lon="5.6710948"><ele>571.6</ele><time>2026-04-10T08:09:56.884Z</time></trkpt><trkpt lat="43.9754146" lon="5.6709612"><ele>572.4</ele><time>2026-04-10T08:09:57.877Z</time></trkpt><trkpt lat="43.9754753" lon="5.6708371"><ele>573.2</ele><time>2026-04-10T08:09:58.876Z</time></trkpt><trkpt lat="43.9755332" lon="5.670695"><ele>574.0</ele><time>2026-04-10T08:09:59.876Z</time></trkpt><trkpt lat="43.9755775" lon="5.6705477"><ele>574.0</ele><time>2026-04-10T08:10:00.881Z</time></trkpt><trkpt lat="43.9756294" lon="5.6703844"><ele>574.0</ele><time>2026-04-10T08:10:01.879Z</time></trkpt><trkpt lat="43.9756732" lon="5.6702291"><ele>574.0</ele><time>2026-04-10T08:10:02.88Z</time></trkpt><trkpt lat="43.9757318" lon="5.6700764"><ele>574.0</ele><time>2026-04-10T08:10:03.877Z</time></trkpt><trkpt lat="43.9757841" lon="5.6699166"><ele>573.75</ele><time>2026-04-10T08:10:04.879Z</time></trkpt><trkpt lat="43.9758558" lon="5.6697626"><ele>573.5</ele><time>2026-04-10T08:10:05.881Z</time></trkpt><trkpt lat="43.975932" lon="5.6696089"><ele>573.25</ele><time>2026-04-10T08:10:06.879Z</time></trkpt><trkpt lat="43.9759985" lon="5.6694572"><ele>573.0</ele><time>2026-04-10T08:10:07.879Z</time></trkpt><trkpt lat="43.9760691" lon="5.669293"><ele>573.75</ele><time>2026-04-10T08:10:08.878Z</time></trkpt><trkpt lat="43.9761279" lon="5.6691265"><ele>574.5</ele><time>2026-04-10T08:10:09.882Z</time></trkpt><trkpt lat="43.9761983" lon="5.6689583"><ele>575.25</ele><time>2026-04-10T08:10:10.88Z</time></trkpt><trkpt lat="43.9762577" lon="5.66879"><ele>576.0</ele><time>2026-04-10T08:10:11.879Z</time></trkpt><trkpt lat="43.9763195" lon="5.668617"><ele>576.75</ele><time>2026-04-10T08:10:12.88Z</time></trkpt><trkpt lat="43.9763901" lon="5.6684519"><ele>577.5</ele><time>2026-04-10T08:10:13.879Z</time></trkpt><trkpt lat="43.9764611" lon="5.668282"><ele>578.25</ele><time>2026-04-10T08:10:14.879Z</time></trkpt><trkpt lat="43.9765266" lon="5.6681043"><ele>579.0</ele><time>2026-04-10T08:10:15.879Z</time></trkpt><trkpt lat="43.9765926" lon="5.6679203"><ele>579.25</ele><time>2026-04-10T08:10:16.878Z</time></trkpt><trkpt lat="43.9766674" lon="5.6677502"><ele>579.5</ele><time>2026-04-10T08:10:17.879Z</time></trkpt><trkpt lat="43.9767441" lon="5.6675747"><ele>579.75</ele><time>2026-04-10T08:10:18.876Z</time></trkpt><trkpt lat="43.976823" lon="5.6673921"><ele>580.0</ele><time>2026-04-10T08:10:19.879Z</time></trkpt><trkpt lat="43.9768919" lon="5.6672079"><ele>577.3333333333334</ele><time>2026-04-10T08:10:20.877Z</time></trkpt><trkpt lat="43.9769584" lon="5.6670108"><ele>574.6666666666666</ele><time>2026-04-10T08:10:21.883Z</time></trkpt><trkpt lat="43.9770129" lon="5.6668011"><ele>572.0</ele><time>2026-04-10T08:10:22.883Z</time></trkpt><trkpt lat="43.977097" lon="5.6666142"><ele>572.0</ele><time>2026-04-10T08:10:23.879Z</time></trkpt><trkpt lat="43.9771682" lon="5.6664211"><ele>572.0</ele><time>2026-04-10T08:10:24.876Z</time></trkpt><trkpt lat="43.9772365" lon="5.666243"><ele>572.0</ele><time>2026-04-10T08:10:25.874Z</time></trkpt><trkpt lat="43.9773093" lon="5.6660838"><ele>572.0</ele><time>2026-04-10T08:10:26.881Z</time></trkpt><trkpt lat="43.9773827" lon="5.665941"><ele>572.5</ele><time>2026-04-10T08:10:27.879Z</time></trkpt><trkpt lat="43.9774779" lon="5.6658396"><ele>573.0</ele><time>2026-04-10T08:10:28.881Z</time></trkpt><trkpt lat="43.9775763" lon="5.665768"><ele>573.5</ele><time>2026-04-10T08:10:29.879Z</time></trkpt><trkpt lat="43.9777096" lon="5.6657408"><ele>574.0</ele><time>2026-04-10T08:10:30.883Z</time></trkpt><trkpt lat="43.9778415" lon="5.6657166"><ele>574.25</ele><time>2026-04-10T08:10:31.877Z</time></trkpt><trkpt lat="43.9779787" lon="5.6656894"><ele>574.5</ele><time>2026-04-10T08:10:32.881Z</time></trkpt><trkpt lat="43.9781069" lon="5.6656551"><ele>574.75</ele><time>2026-04-10T08:10:33.88Z</time></trkpt><trkpt lat="43.9782449" lon="5.6656221"><ele>575.0</ele><time>2026-04-10T08:10:34.882Z</time></trkpt><trkpt lat="43.9783852" lon="5.6655868"><ele>576.5</ele><time>2026-04-10T08:10:35.88Z</time></trkpt><trkpt lat="43.9785213" lon="5.6655542"><ele>578.0</ele><time>2026-04-10T08:10:36.88Z</time></trkpt><trkpt lat="43.9786517" lon="5.6655229"><ele>579.5</ele><time>2026-04-10T08:10:37.883Z</time></trkpt><trkpt lat="43.9787709" lon="5.6654895"><ele>581.0</ele><time>2026-04-10T08:10:38.883Z</time></trkpt><trkpt lat="43.9788782" lon="5.6654571"><ele>581.0</ele><time>2026-04-10T08:10:39.881Z</time></trkpt><trkpt lat="43.9789862" lon="5.6654409"><ele>581.0</ele><time>2026-04-10T08:10:40.877Z</time></trkpt><trkpt lat="43.9790505" lon="5.6653597"><ele>581.0</ele><time>2026-04-10T08:10:41.879Z</time></trkpt><trkpt lat="43.9791177" lon="5.6652575"><ele>581.0</ele><time>2026-04-10T08:10:42.884Z</time></trkpt><trkpt lat="43.9791684" lon="5.6651607"><ele>581.0</ele><time>2026-04-10T08:10:43.879Z</time></trkpt><trkpt lat="43.9791906" lon="5.6650121"><ele>581.25</ele><time>2026-04-10T08:10:44.878Z</time></trkpt><trkpt lat="43.9791663" lon="5.6648559"><ele>581.5</ele><time>2026-04-10T08:10:45.879Z</time></trkpt><trkpt lat="43.9791445" lon="5.6646962"><ele>581.75</ele><time>2026-04-10T08:10:46.878Z</time></trkpt><trkpt lat="43.9791218" lon="5.6645357"><ele>582.0</ele><time>2026-04-10T08:10:47.879Z</time></trkpt><trkpt lat="43.9791056" lon="5.6643736"><ele>582.5</ele><time>2026-04-10T08:10:48.874Z</time></trkpt><trkpt lat="43.9790793" lon="5.6642037"><ele>583.0</ele><time>2026-04-10T08:10:49.88Z</time></trkpt><trkpt lat="43.979069" lon="5.6640354"><ele>583.5</ele><time>2026-04-10T08:10:50.877Z</time></trkpt><trkpt lat="43.9790407" lon="5.6638722"><ele>584.0</ele><time>2026-04-10T08:10:51.879Z</time></trkpt><trkpt lat="43.9790189" lon="5.6637028"><ele>585.25</ele><time>2026-04-10T08:10:52.88Z</time></trkpt><trkpt lat="43.9789986" lon="5.6635318"><ele>586.5</ele><time>2026-04-10T08:10:53.878Z</time></trkpt><trkpt lat="43.9789787" lon="5.6633588"><ele>587.75</ele><time>2026-04-10T08:10:54.88Z</time></trkpt><trkpt lat="43.9789719" lon="5.6631705"><ele>589.0</ele><time>2026-04-10T08:10:55.882Z</time></trkpt><trkpt lat="43.9789822" lon="5.6629885"><ele>589.0</ele><time>2026-04-10T08:10:56.877Z</time></trkpt><trkpt lat="43.9790152" lon="5.6628014"><ele>589.0</ele><time>2026-04-10T08:10:57.878Z</time></trkpt><trkpt lat="43.9790615" lon="5.6626185"><ele>589.0</ele><time>2026-04-10T08:10:58.879Z</time></trkpt><trkpt lat="43.9791504" lon="5.6624583"><ele>589.0</ele><time>2026-04-10T08:10:59.883Z</time></trkpt><trkpt lat="43.9792423" lon="5.6623039"><ele>592.75</ele><time>2026-04-10T08:11:00.881Z</time></trkpt><trkpt lat="43.9793499" lon="5.6621832"><ele>596.5</ele><time>2026-04-10T08:11:01.878Z</time></trkpt><trkpt lat="43.9794649" lon="5.6620573"><ele>600.25</ele><time>2026-04-10T08:11:02.877Z</time></trkpt><trkpt lat="43.9795701" lon="5.6619161"><ele>604.0</ele><time>2026-04-10T08:11:03.88Z</time></trkpt><trkpt lat="43.9796712" lon="5.6617686"><ele>604.0</ele><time>2026-04-10T08:11:04.88Z</time></trkpt><trkpt lat="43.9797343" lon="5.6615952"><ele>604.0</ele><time>2026-04-10T08:11:05.885Z</time></trkpt><trkpt lat="43.9797767" lon="5.6614057"><ele>604.0</ele><time>2026-04-10T08:11:06.877Z</time></trkpt><trkpt lat="43.9798354" lon="5.6612113"><ele>604.0</ele><time>2026-04-10T08:11:07.878Z</time></trkpt><trkpt lat="43.9799028" lon="5.6610253"><ele>604.0</ele><time>2026-04-10T08:11:08.876Z</time></trkpt><trkpt lat="43.9800136" lon="5.660874"><ele>604.0</ele><time>2026-04-10T08:11:09.875Z</time></trkpt><trkpt lat="43.9801356" lon="5.6607536"><ele>604.0</ele><time>2026-04-10T08:11:10.878Z</time></trkpt><trkpt lat="43.9802562" lon="5.6606356"><ele>609.3333333333334</ele><time>2026-04-10T08:11:11.877Z</time></trkpt><trkpt lat="43.9803894" lon="5.660524"><ele>614.6666666666666</ele><time>2026-04-10T08:11:12.879Z</time></trkpt><trkpt lat="43.9805293" lon="5.6604321"><ele>620.0</ele><time>2026-04-10T08:11:13.879Z</time></trkpt><trkpt lat="43.9806619" lon="5.6603319"><ele>618.3333333333333</ele><time>2026-04-10T08:11:14.879Z</time></trkpt><trkpt lat="43.98079" lon="5.6602176"><ele>616.6666666666666</ele><time>2026-04-10T08:11:15.876Z</time></trkpt><trkpt lat="43.9809245" lon="5.6600983"><ele>615.0</ele><time>2026-04-10T08:11:16.877Z</time></trkpt><trkpt lat="43.9810375" lon="5.6599551"><ele>619.0</ele><time>2026-04-10T08:11:17.876Z</time></trkpt><trkpt lat="43.9811612" lon="5.6598022"><ele>623.0</ele><time>2026-04-10T08:11:18.876Z</time></trkpt><trkpt lat="43.9812715" lon="5.6596192"><ele>627.0</ele><time>2026-04-10T08:11:19.877Z</time></trkpt><trkpt lat="43.9813718" lon="5.6594387"><ele>627.0</ele><time>2026-04-10T08:11:20.878Z</time></trkpt><trkpt lat="43.9814732" lon="5.6592554"><ele>627.0</ele><time>2026-04-10T08:11:21.879Z</time></trkpt><trkpt lat="43.9815785" lon="5.6590718"><ele>627.0</ele><time>2026-04-10T08:11:22.879Z</time></trkpt><trkpt lat="43.9816979" lon="5.6588964"><ele>634.0</ele><time>2026-04-10T08:11:23.877Z</time></trkpt><trkpt lat="43.9818009" lon="5.6586977"><ele>641.0</ele><time>2026-04-10T08:11:24.874Z</time></trkpt><trkpt lat="43.9819027" lon="5.6584861"><ele>648.0</ele><time>2026-04-10T08:11:25.877Z</time></trkpt><trkpt lat="43.9819773" lon="5.6582488"><ele>648.0</ele><time>2026-04-10T08:11:26.874Z</time></trkpt><trkpt lat="43.9820547" lon="5.658014"><ele>648.0</ele><time>2026-04-10T08:11:27.881Z</time></trkpt><trkpt lat="43.9820992" lon="5.6577648"><ele>648.0</ele><time>2026-04-10T08:11:28.876Z</time></trkpt><trkpt lat="43.9821431" lon="5.6575341"><ele>646.6666666666666</ele><time>2026-04-10T08:11:29.874Z</time></trkpt><trkpt lat="43.9821793" lon="5.6572859"><ele>645.3333333333333</ele><time>2026-04-10T08:11:30.879Z</time></trkpt><trkpt lat="43.982215" lon="5.6570445"><ele>644.0</ele><time>2026-04-10T08:11:31.874Z</time></trkpt><trkpt lat="43.9822502" lon="5.6568032"><ele>643.3333333333333</ele><time>2026-04-10T08:11:32.875Z</time></trkpt><trkpt lat="43.9822615" lon="5.6565737"><ele>642.6666666666666</ele><time>2026-04-10T08:11:33.879Z</time></trkpt><trkpt lat="43.9822815" lon="5.6563403"><ele>642.0</ele><time>2026-04-10T08:11:34.875Z</time></trkpt><trkpt lat="43.9822929" lon="5.656113"><ele>641.3333333333334</ele><time>2026-04-10T08:11:35.876Z</time></trkpt><trkpt lat="43.9823212" lon="5.6558965"><ele>640.6666666666667</ele><time>2026-04-10T08:11:36.874Z</time></trkpt><trkpt lat="43.982339" lon="5.6556638"><ele>640.0</ele><time>2026-04-10T08:11:37.874Z</time></trkpt><trkpt lat="43.9823615" lon="5.6554333"><ele>641.3333333333334</ele><time>2026-04-10T08:11:38.875Z</time></trkpt><trkpt lat="43.9823827" lon="5.6552184"><ele>642.6666666666666</ele><time>2026-04-10T08:11:39.878Z</time></trkpt><trkpt lat="43.9824176" lon="5.6549891"><ele>644.0</ele><time>2026-04-10T08:11:40.878Z</time></trkpt><trkpt lat="43.9824379" lon="5.6547826"><ele>644.0</ele><time>2026-04-10T08:11:41.881Z</time></trkpt><trkpt lat="43.9824676" lon="5.6545632"><ele>644.0</ele><time>2026-04-10T08:11:42.879Z</time></trkpt><trkpt lat="43.9824994" lon="5.6543515"><ele>644.0</ele><time>2026-04-10T08:11:43.879Z</time></trkpt><trkpt lat="43.9825199" lon="5.6541438"><ele>648.0</ele><time>2026-04-10T08:11:44.878Z</time></trkpt><trkpt lat="43.9825506" lon="5.6539291"><ele>652.0</ele><time>2026-04-10T08:11:45.876Z</time></trkpt><trkpt lat="43.9825938" lon="5.6537252"><ele>656.0</ele><time>2026-04-10T08:11:46.878Z</time></trkpt><trkpt lat="43.9826444" lon="5.6535389"><ele>656.0</ele><time>2026-04-10T08:11:47.875Z</time></trkpt><trkpt lat="43.9827154" lon="5.6533638"><ele>656.0</ele><time>2026-04-10T08:11:48.876Z</time></trkpt><trkpt lat="43.9827933" lon="5.6532009"><ele>656.0</ele><time>2026-04-10T08:11:49.876Z</time></trkpt><trkpt lat="43.9828775" lon="5.6530506"><ele>656.0</ele><time>2026-04-10T08:11:50.88Z</time></trkpt><trkpt lat="43.9829703" lon="5.6529123"><ele>655.25</ele><time>2026-04-10T08:11:51.881Z</time></trkpt><trkpt lat="43.983083" lon="5.6527826"><ele>654.5</ele><time>2026-04-10T08:11:52.875Z</time></trkpt><trkpt lat="43.9831946" lon="5.6526334"><ele>653.75</ele><time>2026-04-10T08:11:53.875Z</time></trkpt><trkpt lat="43.9832999" lon="5.6524952"><ele>653.0</ele><time>2026-04-10T08:11:54.88Z</time></trkpt><trkpt lat="43.9834074" lon="5.6523553"><ele>653.0</ele><time>2026-04-10T08:11:55.876Z</time></trkpt><trkpt lat="43.9835219" lon="5.6522182"><ele>653.0</ele><time>2026-04-10T08:11:56.874Z</time></trkpt><trkpt lat="43.9836384" lon="5.6520759"><ele>653.0</ele><time>2026-04-10T08:11:57.875Z</time></trkpt><trkpt lat="43.9837692" lon="5.6519592"><ele>652.0</ele><time>2026-04-10T08:11:58.877Z</time></trkpt><trkpt lat="43.983891" lon="5.6518411"><ele>651.0</ele><time>2026-04-10T08:11:59.874Z</time></trkpt><trkpt lat="43.9840129" lon="5.6516937"><ele>650.0</ele><time>2026-04-10T08:12:00.873Z</time></trkpt><trkpt lat="43.9841386" lon="5.6515678"><ele>651.6666666666666</ele><time>2026-04-10T08:12:01.876Z</time></trkpt><trkpt lat="43.9842661" lon="5.6514459"><ele>653.3333333333334</ele><time>2026-04-10T08:12:02.875Z</time></trkpt><trkpt lat="43.9843976" lon="5.6513247"><ele>655.0</ele><time>2026-04-10T08:12:03.878Z</time></trkpt><trkpt lat="43.9845287" lon="5.6512168"><ele>654.0</ele><time>2026-04-10T08:12:04.876Z</time></trkpt><trkpt lat="43.984666" lon="5.6510896"><ele>653.0</ele><time>2026-04-10T08:12:05.877Z</time></trkpt><trkpt lat="43.984806" lon="5.6509682"><ele>652.0</ele><time>2026-04-10T08:12:06.874Z</time></trkpt><trkpt lat="43.9849507" lon="5.6508543"><ele>651.5</ele><time>2026-04-10T08:12:07.875Z</time></trkpt><trkpt lat="43.9850811" lon="5.6507431"><ele>651.0</ele><time>2026-04-10T08:12:08.878Z</time></trkpt><trkpt lat="43.9851913" lon="5.6506641"><ele>650.5</ele><time>2026-04-10T08:12:09.874Z</time></trkpt><trkpt lat="43.9852906" lon="5.6505823"><ele>650.0</ele><time>2026-04-10T08:12:10.884Z</time></trkpt><trkpt lat="43.9853716" lon="5.6505243"><ele>650.0</ele><time>2026-04-10T08:12:11.879Z</time></trkpt><trkpt lat="43.9854546" lon="5.6504696"><ele>650.0</ele><time>2026-04-10T08:12:12.878Z</time></trkpt><trkpt lat="43.9855257" lon="5.6504321"><ele>650.0</ele><time>2026-04-10T08:12:13.879Z</time></trkpt><trkpt lat="43.9855839" lon="5.6505495"><ele>650.0</ele><time>2026-04-10T08:12:14.887Z</time></trkpt><trkpt lat="43.985637" lon="5.6506351"><ele>650.0</ele><time>2026-04-10T08:12:15.876Z</time></trkpt><trkpt lat="43.9856655" lon="5.6507356"><ele>650.0</ele><time>2026-04-10T08:12:16.877Z</time></trkpt><trkpt lat="43.9857022" lon="5.6508578"><ele>650.0</ele><time>2026-04-10T08:12:17.878Z</time></trkpt><trkpt lat="43.9857662" lon="5.6510144"><ele>650.0</ele><time>2026-04-10T08:12:18.876Z</time></trkpt><trkpt lat="43.9858263" lon="5.6511585"><ele>650.0</ele><time>2026-04-10T08:12:19.88Z</time></trkpt><trkpt lat="43.9859003" lon="5.6513369"><ele>650.0</ele><time>2026-04-10T08:12:20.882Z</time></trkpt><trkpt lat="43.9859482" lon="5.6514947"><ele>650.6</ele><time>2026-04-10T08:12:21.881Z</time></trkpt><trkpt lat="43.9860078" lon="5.6516378"><ele>651.2</ele><time>2026-04-10T08:12:22.879Z</time></trkpt><trkpt lat="43.9860616" lon="5.6517698"><ele>651.8</ele><time>2026-04-10T08:12:23.873Z</time></trkpt><trkpt lat="43.9861063" lon="5.6519009"><ele>652.4</ele><time>2026-04-10T08:12:24.876Z</time></trkpt><trkpt lat="43.986161" lon="5.6520338"><ele>653.0</ele><time>2026-04-10T08:12:25.877Z</time></trkpt><trkpt lat="43.9861971" lon="5.6521481"><ele>654.0</ele><time>2026-04-10T08:12:26.881Z</time></trkpt><trkpt lat="43.9862211" lon="5.6522728"><ele>655.0</ele><time>2026-04-10T08:12:27.877Z</time></trkpt><trkpt lat="43.9862712" lon="5.6523987"><ele>656.0</ele><time>2026-04-10T08:12:28.877Z</time></trkpt><trkpt lat="43.9862884" lon="5.6524999"><ele>657.0</ele><time>2026-04-10T08:12:29.875Z</time></trkpt><trkpt lat="43.9863319" lon="5.652595"><ele>658.0</ele><time>2026-04-10T08:12:30.876Z</time></trkpt><trkpt lat="43.9863804" lon="5.6526748"><ele>659.0</ele><time>2026-04-10T08:12:31.879Z</time></trkpt><trkpt lat="43.986452" lon="5.6527366"><ele>659.0</ele><time>2026-04-10T08:12:32.883Z</time></trkpt><trkpt lat="43.9865231" lon="5.6527854"><ele>659.0</ele><time>2026-04-10T08:12:33.884Z</time></trkpt><trkpt lat="43.9866173" lon="5.6527921"><ele>659.0</ele><time>2026-04-10T08:12:34.883Z</time></trkpt><trkpt lat="43.9867024" lon="5.6528005"><ele>659.0</ele><time>2026-04-10T08:12:35.877Z</time></trkpt><trkpt lat="43.9867824" lon="5.652861"><ele>659.0</ele><time>2026-04-10T08:12:36.879Z</time></trkpt><trkpt lat="43.9868615" lon="5.6529455"><ele>660.4000000000001</ele><time>2026-04-10T08:12:37.88Z</time></trkpt><trkpt lat="43.9869432" lon="5.6530402"><ele>661.8</ele><time>2026-04-10T08:12:38.881Z</time></trkpt><trkpt lat="43.987018" lon="5.6531134"><ele>663.2</ele><time>2026-04-10T08:12:39.876Z</time></trkpt><trkpt lat="43.9871274" lon="5.6531889"><ele>664.5999999999999</ele><time>2026-04-10T08:12:40.876Z</time></trkpt><trkpt lat="43.9872301" lon="5.6532507"><ele>666.0</ele><time>2026-04-10T08:12:41.877Z</time></trkpt><trkpt lat="43.9873301" lon="5.6532965"><ele>666.0</ele><time>2026-04-10T08:12:42.874Z</time></trkpt><trkpt lat="43.9874002" lon="5.6533647"><ele>666.0</ele><time>2026-04-10T08:12:43.877Z</time></trkpt><trkpt lat="43.9874796" lon="5.6534594"><ele>666.0</ele><time>2026-04-10T08:12:44.877Z</time></trkpt><trkpt lat="43.9875407" lon="5.653543"><ele>666.0</ele><time>2026-04-10T08:12:45.877Z</time></trkpt><trkpt lat="43.9876024" lon="5.6536504"><ele>666.0</ele><time>2026-04-10T08:12:46.878Z</time></trkpt><trkpt lat="43.9876255" lon="5.6537719"><ele>668.5999999999999</ele><time>2026-04-10T08:12:47.881Z</time></trkpt><trkpt lat="43.9876885" lon="5.653861"><ele>671.2</ele><time>2026-04-10T08:12:48.878Z</time></trkpt><trkpt lat="43.9877748" lon="5.6539282"><ele>673.8</ele><time>2026-04-10T08:12:49.875Z</time></trkpt><trkpt lat="43.9878613" lon="5.6540034"><ele>676.4000000000001</ele><time>2026-04-10T08:12:50.882Z</time></trkpt><trkpt lat="43.987951" lon="5.6540959"><ele>679.0</ele><time>2026-04-10T08:12:51.881Z</time></trkpt><trkpt lat="43.9880362" lon="5.6541779"><ele>679.0</ele><time>2026-04-10T08:12:52.879Z</time></trkpt><trkpt lat="43.9881243" lon="5.6542426"><ele>679.0</ele><time>2026-04-10T08:12:53.876Z</time></trkpt><trkpt lat="43.9882039" lon="5.6543267"><ele>679.0</ele><time>2026-04-10T08:12:54.878Z</time></trkpt><trkpt lat="43.9883134" lon="5.6543901"><ele>679.0</ele><time>2026-04-10T08:12:55.878Z</time></trkpt><trkpt lat="43.988435" lon="5.654438"><ele>679.0</ele><time>2026-04-10T08:12:56.872Z</time></trkpt><trkpt lat="43.9885488" lon="5.6544762"><ele>681.4000000000001</ele><time>2026-04-10T08:12:57.878Z</time></trkpt><trkpt lat="43.9886545" lon="5.6545302"><ele>683.8</ele><time>2026-04-10T08:12:58.883Z</time></trkpt><trkpt lat="43.9887443" lon="5.6545402"><ele>686.2</ele><time>2026-04-10T08:12:59.879Z</time></trkpt><trkpt lat="43.9888332" lon="5.654564"><ele>688.5999999999999</ele><time>2026-04-10T08:13:00.875Z</time></trkpt><trkpt lat="43.9889218" lon="5.6546107"><ele>691.0</ele><time>2026-04-10T08:13:01.876Z</time></trkpt><trkpt lat="43.9890335" lon="5.6547216"><ele>691.0</ele><time>2026-04-10T08:13:02.88Z</time></trkpt><trkpt lat="43.9891389" lon="5.6548071"><ele>691.0</ele><time>2026-04-10T08:13:03.877Z</time></trkpt><trkpt lat="43.9892579" lon="5.6549042"><ele>691.0</ele><time>2026-04-10T08:13:04.876Z</time></trkpt><trkpt lat="43.989366" lon="5.6549869"><ele>691.0</ele><time>2026-04-10T08:13:05.876Z</time></trkpt><trkpt lat="43.9894938" lon="5.6550695"><ele>690.75</ele><time>2026-04-10T08:13:06.876Z</time></trkpt><trkpt lat="43.989613" lon="5.6551449"><ele>690.5</ele><time>2026-04-10T08:13:07.874Z</time></trkpt><trkpt lat="43.9897271" lon="5.6552211"><ele>690.25</ele><time>2026-04-10T08:13:08.877Z</time></trkpt><trkpt lat="43.9898435" lon="5.6552919"><ele>690.0</ele><time>2026-04-10T08:13:09.875Z</time></trkpt><trkpt lat="43.9899447" lon="5.6553926"><ele>692.0</ele><time>2026-04-10T08:13:10.876Z</time></trkpt><trkpt lat="43.9900954" lon="5.6554618"><ele>694.0</ele><time>2026-04-10T08:13:11.881Z</time></trkpt><trkpt lat="43.990218" lon="5.6555311"><ele>696.0</ele><time>2026-04-10T08:13:12.881Z</time></trkpt><trkpt lat="43.9903462" lon="5.6555802"><ele>698.0</ele><time>2026-04-10T08:13:13.877Z</time></trkpt><trkpt lat="43.9904696" lon="5.6556544"><ele>698.0</ele><time>2026-04-10T08:13:14.876Z</time></trkpt><trkpt lat="43.9905819" lon="5.6557171"><ele>698.0</ele><time>2026-04-10T08:13:15.879Z</time></trkpt><trkpt lat="43.9906968" lon="5.6557945"><ele>698.0</ele><time>2026-04-10T08:13:16.878Z</time></trkpt><trkpt lat="43.9908249" lon="5.6558802"><ele>698.0</ele><time>2026-04-10T08:13:17.879Z</time></trkpt><trkpt lat="43.9909286" lon="5.6559645"><ele>699.2</ele><time>2026-04-10T08:13:18.886Z</time></trkpt><trkpt lat="43.9910218" lon="5.6560203"><ele>700.4</ele><time>2026-04-10T08:13:19.88Z</time></trkpt><trkpt lat="43.9911172" lon="5.6560415"><ele>701.6</ele><time>2026-04-10T08:13:20.875Z</time></trkpt><trkpt lat="43.9912028" lon="5.6560226"><ele>702.8000000000001</ele><time>2026-04-10T08:13:21.881Z</time></trkpt><trkpt lat="43.9912826" lon="5.6560036"><ele>704.0</ele><time>2026-04-10T08:13:22.876Z</time></trkpt><trkpt lat="43.9913713" lon="5.6560408"><ele>704.0</ele><time>2026-04-10T08:13:23.875Z</time></trkpt><trkpt lat="43.9914383" lon="5.6560512"><ele>704.0</ele><time>2026-04-10T08:13:24.878Z</time></trkpt><trkpt lat="43.9915404" lon="5.6560652"><ele>704.0</ele><time>2026-04-10T08:13:25.878Z</time></trkpt><trkpt lat="43.9916402" lon="5.6560706"><ele>704.0</ele><time>2026-04-10T08:13:26.875Z</time></trkpt><trkpt lat="43.9917268" lon="5.6560672"><ele>704.0</ele><time>2026-04-10T08:13:27.876Z</time></trkpt><trkpt lat="43.991784" lon="5.6561048"><ele>704.0</ele><time>2026-04-10T08:13:28.878Z</time></trkpt><trkpt lat="43.9918541" lon="5.6561538"><ele>704.8000000000001</ele><time>2026-04-10T08:13:29.878Z</time></trkpt><trkpt lat="43.9919125" lon="5.6563108"><ele>705.6</ele><time>2026-04-10T08:13:31.879Z</time></trkpt><trkpt lat="43.9919516" lon="5.656393"><ele>706.4</ele><time>2026-04-10T08:13:32.877Z</time></trkpt><trkpt lat="43.9920516" lon="5.6564957"><ele>707.2</ele><time>2026-04-10T08:13:34.878Z</time></trkpt><trkpt lat="43.9921154" lon="5.6565387"><ele>708.0</ele><time>2026-04-10T08:13:35.877Z</time></trkpt><trkpt lat="43.9921849" lon="5.6566041"><ele>708.0</ele><time>2026-04-10T08:13:36.882Z</time></trkpt><trkpt lat="43.9922538" lon="5.6566565"><ele>708.0</ele><time>2026-04-10T08:13:37.875Z</time></trkpt><trkpt lat="43.9923292" lon="5.6567096"><ele>708.0</ele><time>2026-04-10T08:13:38.877Z</time></trkpt><trkpt lat="43.9923993" lon="5.6567576"><ele>708.0</ele><time>2026-04-10T08:13:39.879Z</time></trkpt><trkpt lat="43.9924648" lon="5.6567823"><ele>708.0</ele><time>2026-04-10T08:13:40.874Z</time></trkpt><trkpt lat="43.9925288" lon="5.6568243"><ele>708.0</ele><time>2026-04-10T08:13:41.879Z</time></trkpt><trkpt lat="43.9925807" lon="5.6569196"><ele>708.0</ele><time>2026-04-10T08:13:42.875Z</time></trkpt><trkpt lat="43.9926246" lon="5.6570142"><ele>708.0</ele><time>2026-04-10T08:13:43.885Z</time></trkpt><trkpt lat="43.9926666" lon="5.6570907"><ele>708.0</ele><time>2026-04-10T08:13:44.876Z</time></trkpt><trkpt lat="43.9927271" lon="5.6571685"><ele>708.0</ele><time>2026-04-10T08:13:45.878Z</time></trkpt><trkpt lat="43.9927919" lon="5.6572567"><ele>708.0</ele><time>2026-04-10T08:13:46.876Z</time></trkpt><trkpt lat="43.9928491" lon="5.6573457"><ele>708.0</ele><time>2026-04-10T08:13:47.879Z</time></trkpt><trkpt lat="43.9929246" lon="5.657443"><ele>708.0</ele><time>2026-04-10T08:13:48.88Z</time></trkpt><trkpt lat="43.9929855" lon="5.6575352"><ele>708.0</ele><time>2026-04-10T08:13:49.876Z</time></trkpt><trkpt lat="43.9930386" lon="5.657617"><ele>708.0</ele><time>2026-04-10T08:13:50.879Z</time></trkpt><trkpt lat="43.993087" lon="5.6577065"><ele>708.0</ele><time>2026-04-10T08:13:51.875Z</time></trkpt><trkpt lat="43.9931345" lon="5.6577905"><ele>708.0</ele><time>2026-04-10T08:13:52.876Z</time></trkpt><trkpt lat="43.993181" lon="5.657861"><ele>708.0</ele><time>2026-04-10T08:13:53.88Z</time></trkpt><trkpt lat="43.9932298" lon="5.6579352"><ele>708.4</ele><time>2026-04-10T08:13:54.878Z</time></trkpt><trkpt lat="43.9933058" lon="5.6580237"><ele>708.8</ele><time>2026-04-10T08:13:55.876Z</time></trkpt><trkpt lat="43.9933873" lon="5.6581159"><ele>709.2</ele><time>2026-04-10T08:13:56.882Z</time></trkpt><trkpt lat="43.9934746" lon="5.6581993"><ele>709.6</ele><time>2026-04-10T08:13:57.88Z</time></trkpt><trkpt lat="43.993547" lon="5.658261"><ele>710.0</ele><time>2026-04-10T08:13:58.879Z</time></trkpt><trkpt lat="43.9936288" lon="5.658327"><ele>710.0</ele><time>2026-04-10T08:13:59.879Z</time></trkpt><trkpt lat="43.9937118" lon="5.6584093"><ele>710.0</ele><time>2026-04-10T08:14:00.878Z</time></trkpt><trkpt lat="43.9937891" lon="5.6584866"><ele>710.0</ele><time>2026-04-10T08:14:01.876Z</time></trkpt><trkpt lat="43.9938713" lon="5.6585924"><ele>710.0</ele><time>2026-04-10T08:14:02.875Z</time></trkpt><trkpt lat="43.9939587" lon="5.6586893"><ele>710.0</ele><time>2026-04-10T08:14:03.878Z</time></trkpt><trkpt lat="43.9940456" lon="5.6587785"><ele>710.0</ele><time>2026-04-10T08:14:04.882Z</time></trkpt><trkpt lat="43.9941304" lon="5.6588671"><ele>710.0</ele><time>2026-04-10T08:14:05.879Z</time></trkpt><trkpt lat="43.9942237" lon="5.6589567"><ele>710.0</ele><time>2026-04-10T08:14:06.881Z</time></trkpt><trkpt lat="43.9943033" lon="5.6590403"><ele>710.0</ele><time>2026-04-10T08:14:07.874Z</time></trkpt><trkpt lat="43.9943738" lon="5.6591298"><ele>710.0</ele><time>2026-04-10T08:14:08.874Z</time></trkpt><trkpt lat="43.9944573" lon="5.6591754"><ele>709.0</ele><time>2026-04-10T08:14:09.876Z</time></trkpt><trkpt lat="43.9945267" lon="5.6591791"><ele>708.0</ele><time>2026-04-10T08:14:10.877Z</time></trkpt><trkpt lat="43.9946511" lon="5.6591587"><ele>707.0</ele><time>2026-04-10T08:14:12.875Z</time></trkpt><trkpt lat="43.9947626" lon="5.6591337"><ele>706.0</ele><time>2026-04-10T08:14:14.881Z</time></trkpt><trkpt lat="43.9948409" lon="5.6591505"><ele>705.0</ele><time>2026-04-10T08:14:15.88Z</time></trkpt><trkpt lat="43.9949125" lon="5.6591845"><ele>705.0</ele><time>2026-04-10T08:14:16.879Z</time></trkpt><trkpt lat="43.994998" lon="5.6592792"><ele>705.0</ele><time>2026-04-10T08:14:17.873Z</time></trkpt><trkpt lat="43.9950805" lon="5.6593779"><ele>705.0</ele><time>2026-04-10T08:14:18.873Z</time></trkpt><trkpt lat="43.9951659" lon="5.6594595"><ele>705.0</ele><time>2026-04-10T08:14:19.878Z</time></trkpt><trkpt lat="43.9952474" lon="5.6595202"><ele>705.0</ele><time>2026-04-10T08:14:20.876Z</time></trkpt><trkpt lat="43.9953284" lon="5.6595595"><ele>704.0</ele><time>2026-04-10T08:14:21.878Z</time></trkpt><trkpt lat="43.995427" lon="5.6596084"><ele>703.0</ele><time>2026-04-10T08:14:22.878Z</time></trkpt><trkpt lat="43.9955211" lon="5.6596494"><ele>702.0</ele><time>2026-04-10T08:14:23.878Z</time></trkpt><trkpt lat="43.995612" lon="5.6597032"><ele>701.0</ele><time>2026-04-10T08:14:24.876Z</time></trkpt><trkpt lat="43.995695" lon="5.6597727"><ele>700.0</ele><time>2026-04-10T08:14:25.883Z</time></trkpt><trkpt lat="43.9957679" lon="5.6598432"><ele>700.0</ele><time>2026-04-10T08:14:26.881Z</time></trkpt><trkpt lat="43.9958266" lon="5.6599129"><ele>700.0</ele><time>2026-04-10T08:14:27.88Z</time></trkpt><trkpt lat="43.9958738" lon="5.6600034"><ele>700.0</ele><time>2026-04-10T08:14:28.882Z</time></trkpt><trkpt lat="43.9959141" lon="5.6600906"><ele>700.0</ele><time>2026-04-10T08:14:29.874Z</time></trkpt><trkpt lat="43.9959416" lon="5.6601741"><ele>700.0</ele><time>2026-04-10T08:14:30.881Z</time></trkpt><trkpt lat="43.9959636" lon="5.6602717"><ele>700.0</ele><time>2026-04-10T08:14:31.882Z</time></trkpt><trkpt lat="43.9959707" lon="5.6603683"><ele>700.0</ele><time>2026-04-10T08:14:32.875Z</time></trkpt><trkpt lat="43.9959857" lon="5.6604614"><ele>700.0</ele><time>2026-04-10T08:14:33.877Z</time></trkpt><trkpt lat="43.9959856" lon="5.6605552"><ele>700.0</ele><time>2026-04-10T08:14:34.878Z</time></trkpt><trkpt lat="43.9960072" lon="5.6606419"><ele>700.0</ele><time>2026-04-10T08:14:35.883Z</time></trkpt><trkpt lat="43.9960557" lon="5.6607249"><ele>700.0</ele><time>2026-04-10T08:14:36.883Z</time></trkpt><trkpt lat="43.9961161" lon="5.6607948"><ele>700.0</ele><time>2026-04-10T08:14:37.882Z</time></trkpt><trkpt lat="43.9961927" lon="5.6608861"><ele>700.0</ele><time>2026-04-10T08:14:38.875Z</time></trkpt><trkpt lat="43.9962586" lon="5.6609858"><ele>700.0</ele><time>2026-04-10T08:14:39.878Z</time></trkpt><trkpt lat="43.9963193" lon="5.6610959"><ele>700.0</ele><time>2026-04-10T08:14:40.878Z</time></trkpt><trkpt lat="43.9963731" lon="5.661196"><ele>700.0</ele><time>2026-04-10T08:14:41.874Z</time></trkpt><trkpt lat="43.9964384" lon="5.6612971"><ele>700.0</ele><time>2026-04-10T08:14:42.876Z</time></trkpt><trkpt lat="43.9964999" lon="5.661402"><ele>700.0</ele><time>2026-04-10T08:14:43.879Z</time></trkpt><trkpt lat="43.9965589" lon="5.6614476"><ele>699.5</ele><time>2026-04-10T08:14:44.877Z</time></trkpt><trkpt lat="43.9966413" lon="5.6615603"><ele>699.0</ele><time>2026-04-10T08:14:46.879Z</time></trkpt><trkpt lat="43.9967341" lon="5.6616083"><ele>698.5</ele><time>2026-04-10T08:14:48.888Z</time></trkpt><trkpt lat="43.9968124" lon="5.6615192"><ele>698.0</ele><time>2026-04-10T08:14:50.879Z</time></trkpt><trkpt lat="43.9968861" lon="5.661362"><ele>698.9999999999999</ele><time>2026-04-10T08:14:52.884Z</time></trkpt><trkpt lat="43.9969201" lon="5.66127"><ele>700.0</ele><time>2026-04-10T08:14:53.877Z</time></trkpt><trkpt lat="43.9969649" lon="5.6611927"><ele>701.0</ele><time>2026-04-10T08:14:54.873Z</time></trkpt><trkpt lat="43.9970271" lon="5.6611315"><ele>702.0</ele><time>2026-04-10T08:14:55.876Z</time></trkpt><trkpt lat="43.9970957" lon="5.6610754"><ele>703.0</ele><time>2026-04-10T08:14:56.876Z</time></trkpt><trkpt lat="43.997161" lon="5.6610293"><ele>703.9999999999999</ele><time>2026-04-10T08:14:57.875Z</time></trkpt><trkpt lat="43.9972208" lon="5.6609994"><ele>705.0</ele><time>2026-04-10T08:14:58.875Z</time></trkpt><trkpt lat="43.9972889" lon="5.660975"><ele>705.6</ele><time>2026-04-10T08:14:59.878Z</time></trkpt><trkpt lat="43.997364" lon="5.6609884"><ele>706.2</ele><time>2026-04-10T08:15:00.878Z</time></trkpt><trkpt lat="43.9974596" lon="5.6610044"><ele>706.8</ele><time>2026-04-10T08:15:01.874Z</time></trkpt><trkpt lat="43.997564" lon="5.6610312"><ele>707.4</ele><time>2026-04-10T08:15:02.874Z</time></trkpt><trkpt lat="43.9976631" lon="5.6610496"><ele>708.0</ele><time>2026-04-10T08:15:03.876Z</time></trkpt><trkpt lat="43.9977571" lon="5.6610399"><ele>709.4</ele><time>2026-04-10T08:15:04.877Z</time></trkpt><trkpt lat="43.9978557" lon="5.6610138"><ele>710.8</ele><time>2026-04-10T08:15:05.875Z</time></trkpt><trkpt lat="43.9979566" lon="5.6609939"><ele>712.2</ele><time>2026-04-10T08:15:06.875Z</time></trkpt><trkpt lat="43.9980515" lon="5.6609795"><ele>713.6</ele><time>2026-04-10T08:15:07.874Z</time></trkpt><trkpt lat="43.9981513" lon="5.6609526"><ele>715.0</ele><time>2026-04-10T08:15:08.875Z</time></trkpt><trkpt lat="43.9982805" lon="5.6609212"><ele>716.0</ele><time>2026-04-10T08:15:09.876Z</time></trkpt><trkpt lat="43.9983959" lon="5.6609019"><ele>717.0</ele><time>2026-04-10T08:15:10.877Z</time></trkpt><trkpt lat="43.9985067" lon="5.6608743"><ele>718.0</ele><time>2026-04-10T08:15:11.886Z</time></trkpt><trkpt lat="43.9985971" lon="5.6608261"><ele>719.0</ele><time>2026-04-10T08:15:12.89Z</time></trkpt><trkpt lat="43.9986901" lon="5.6607804"><ele>720.0</ele><time>2026-04-10T08:15:13.889Z</time></trkpt><trkpt lat="43.9987744" lon="5.6607629"><ele>720.0</ele><time>2026-04-10T08:15:14.879Z</time></trkpt><trkpt lat="43.9988643" lon="5.6607621"><ele>720.0</ele><time>2026-04-10T08:15:15.883Z</time></trkpt><trkpt lat="43.9989624" lon="5.660772"><ele>720.0</ele><time>2026-04-10T08:15:16.874Z</time></trkpt><trkpt lat="43.9990684" lon="5.6607907"><ele>720.0</ele><time>2026-04-10T08:15:17.88Z</time></trkpt><trkpt lat="43.9991741" lon="5.660807"><ele>720.0</ele><time>2026-04-10T08:15:18.881Z</time></trkpt><trkpt lat="43.9992844" lon="5.660827"><ele>720.2</ele><time>2026-04-10T08:15:19.878Z</time></trkpt><trkpt lat="43.9993802" lon="5.6608652"><ele>720.4</ele><time>2026-04-10T08:15:20.879Z</time></trkpt><trkpt lat="43.9994696" lon="5.6609071"><ele>720.5999999999999</ele><time>2026-04-10T08:15:21.88Z</time></trkpt><trkpt lat="43.9995561" lon="5.660941"><ele>720.8</ele><time>2026-04-10T08:15:22.876Z</time></trkpt><trkpt lat="43.9996448" lon="5.6609561"><ele>721.0</ele><time>2026-04-10T08:15:23.883Z</time></trkpt><trkpt lat="43.9997323" lon="5.6609652"><ele>721.0</ele><time>2026-04-10T08:15:24.881Z</time></trkpt><trkpt lat="43.9998074" lon="5.660979"><ele>721.0</ele><time>2026-04-10T08:15:25.894Z</time></trkpt><trkpt lat="43.9998878" lon="5.660964"><ele>721.0</ele><time>2026-04-10T08:15:26.893Z</time></trkpt><trkpt lat="43.9999609" lon="5.6609381"><ele>721.0</ele><time>2026-04-10T08:15:27.891Z</time></trkpt><trkpt lat="44.0000245" lon="5.6609187"><ele>721.0</ele><time>2026-04-10T08:15:28.883Z</time></trkpt><trkpt lat="44.0001326" lon="5.6609572"><ele>721.0</ele><time>2026-04-10T08:15:30.894Z</time></trkpt><trkpt lat="44.0001986" lon="5.6609887"><ele>721.0</ele><time>2026-04-10T08:15:31.882Z</time></trkpt><trkpt lat="44.0002638" lon="5.6610391"><ele>721.0</ele><time>2026-04-10T08:15:32.88Z</time></trkpt><trkpt lat="44.0003659" lon="5.6610786"><ele>721.0</ele><time>2026-04-10T08:15:33.882Z</time></trkpt><trkpt lat="44.0004552" lon="5.6611105"><ele>721.0</ele><time>2026-04-10T08:15:34.876Z</time></trkpt><trkpt lat="44.0005492" lon="5.661145"><ele>721.0</ele><time>2026-04-10T08:15:35.883Z</time></trkpt><trkpt lat="44.0006379" lon="5.661177"><ele>721.1666666666667</ele><time>2026-04-10T08:15:36.885Z</time></trkpt><trkpt lat="44.0007226" lon="5.6612168"><ele>721.3333333333334</ele><time>2026-04-10T08:15:37.885Z</time></trkpt><trkpt lat="44.0007944" lon="5.6612564"><ele>721.5</ele><time>2026-04-10T08:15:38.895Z</time></trkpt><trkpt lat="44.0008588" lon="5.6613116"><ele>721.6666666666666</ele><time>2026-04-10T08:15:39.891Z</time></trkpt><trkpt lat="44.0009292" lon="5.6613741"><ele>721.8333333333333</ele><time>2026-04-10T08:15:40.9Z</time></trkpt><trkpt lat="44.0010001" lon="5.6614336"><ele>722.0</ele><time>2026-04-10T08:15:41.891Z</time></trkpt><trkpt lat="44.0010583" lon="5.661469"><ele>722.0</ele><time>2026-04-10T08:15:42.875Z</time></trkpt><trkpt lat="44.0011698" lon="5.6615512"><ele>722.0</ele><time>2026-04-10T08:15:44.876Z</time></trkpt><trkpt lat="44.0012331" lon="5.6615926"><ele>722.0</ele><time>2026-04-10T08:15:45.875Z</time></trkpt><trkpt lat="44.001305" lon="5.661625"><ele>722.0</ele><time>2026-04-10T08:15:46.876Z</time></trkpt><trkpt lat="44.0013713" lon="5.6616701"><ele>722.0</ele><time>2026-04-10T08:15:47.875Z</time></trkpt><trkpt lat="44.0014397" lon="5.6617152"><ele>722.0</ele><time>2026-04-10T08:15:48.878Z</time></trkpt><trkpt lat="44.0015095" lon="5.6617691"><ele>722.0</ele><time>2026-04-10T08:15:49.876Z</time></trkpt><trkpt lat="44.0015801" lon="5.6618023"><ele>722.0</ele><time>2026-04-10T08:15:50.88Z</time></trkpt><trkpt lat="44.0016554" lon="5.6618435"><ele>722.0</ele><time>2026-04-10T08:15:51.882Z</time></trkpt><trkpt lat="44.0017341" lon="5.6618791"><ele>722.0</ele><time>2026-04-10T08:15:52.875Z</time></trkpt><trkpt lat="44.0018122" lon="5.6619122"><ele>722.0</ele><time>2026-04-10T08:15:53.893Z</time></trkpt><trkpt lat="44.0018908" lon="5.6619482"><ele>722.0</ele><time>2026-04-10T08:15:54.889Z</time></trkpt><trkpt lat="44.001962" lon="5.661992"><ele>723.1666666666666</ele><time>2026-04-10T08:15:55.882Z</time></trkpt><trkpt lat="44.0020303" lon="5.6620361"><ele>724.3333333333333</ele><time>2026-04-10T08:15:56.877Z</time></trkpt><trkpt lat="44.0021142" lon="5.6620796"><ele>725.5</ele><time>2026-04-10T08:15:57.883Z</time></trkpt><trkpt lat="44.002197" lon="5.6621283"><ele>726.6666666666666</ele><time>2026-04-10T08:15:58.883Z</time></trkpt><trkpt lat="44.0022833" lon="5.662173"><ele>727.8333333333334</ele><time>2026-04-10T08:15:59.882Z</time></trkpt><trkpt lat="44.002371" lon="5.6622252"><ele>729.0</ele><time>2026-04-10T08:16:00.882Z</time></trkpt><trkpt lat="44.0024584" lon="5.6622751"><ele>730.75</ele><time>2026-04-10T08:16:01.876Z</time></trkpt><trkpt lat="44.002553" lon="5.6623175"><ele>732.5</ele><time>2026-04-10T08:16:02.879Z</time></trkpt><trkpt lat="44.0026481" lon="5.662365"><ele>734.25</ele><time>2026-04-10T08:16:03.875Z</time></trkpt><trkpt lat="44.0027588" lon="5.6624349"><ele>736.0</ele><time>2026-04-10T08:16:04.875Z</time></trkpt><trkpt lat="44.0028814" lon="5.6625199"><ele>736.0</ele><time>2026-04-10T08:16:05.877Z</time></trkpt><trkpt lat="44.0029892" lon="5.6625725"><ele>736.0</ele><time>2026-04-10T08:16:06.878Z</time></trkpt><trkpt lat="44.0030925" lon="5.6626306"><ele>736.0</ele><time>2026-04-10T08:16:07.875Z</time></trkpt><trkpt lat="44.0032013" lon="5.6627096"><ele>736.0</ele><time>2026-04-10T08:16:08.878Z</time></trkpt><trkpt lat="44.0033061" lon="5.6627727"><ele>737.5</ele><time>2026-04-10T08:16:09.88Z</time></trkpt><trkpt lat="44.0034126" lon="5.6628339"><ele>739.0</ele><time>2026-04-10T08:16:10.879Z</time></trkpt><trkpt lat="44.0035222" lon="5.6629043"><ele>740.5</ele><time>2026-04-10T08:16:11.876Z</time></trkpt><trkpt lat="44.0036165" lon="5.6629921"><ele>742.0</ele><time>2026-04-10T08:16:12.879Z</time></trkpt><trkpt lat="44.0037214" lon="5.663066"><ele>742.0</ele><time>2026-04-10T08:16:13.876Z</time></trkpt><trkpt lat="44.0038245" lon="5.6631409"><ele>742.0</ele><time>2026-04-10T08:16:14.879Z</time></trkpt><trkpt lat="44.0039196" lon="5.6632025"><ele>742.0</ele><time>2026-04-10T08:16:15.875Z</time></trkpt><trkpt lat="44.0040151" lon="5.6632545"><ele>742.0</ele><time>2026-04-10T08:16:16.873Z</time></trkpt><trkpt lat="44.0041142" lon="5.6633062"><ele>742.0</ele><time>2026-04-10T08:16:17.878Z</time></trkpt><trkpt lat="44.004214" lon="5.6633673"><ele>743.75</ele><time>2026-04-10T08:16:18.881Z</time></trkpt><trkpt lat="44.0043057" lon="5.6634356"><ele>745.5</ele><time>2026-04-10T08:16:19.88Z</time></trkpt><trkpt lat="44.0044111" lon="5.6635162"><ele>747.25</ele><time>2026-04-10T08:16:20.877Z</time></trkpt><trkpt lat="44.004519" lon="5.6635806"><ele>749.0</ele><time>2026-04-10T08:16:21.882Z</time></trkpt><trkpt lat="44.0046323" lon="5.6636632"><ele>749.0</ele><time>2026-04-10T08:16:22.879Z</time></trkpt><trkpt lat="44.0047434" lon="5.6637305"><ele>749.0</ele><time>2026-04-10T08:16:23.88Z</time></trkpt><trkpt lat="44.004857" lon="5.6637937"><ele>749.0</ele><time>2026-04-10T08:16:24.875Z</time></trkpt><trkpt lat="44.0049611" lon="5.6638786"><ele>749.0</ele><time>2026-04-10T08:16:25.879Z</time></trkpt><trkpt lat="44.0050622" lon="5.6639433"><ele>749.6</ele><time>2026-04-10T08:16:26.877Z</time></trkpt><trkpt lat="44.0051597" lon="5.6640021"><ele>750.2</ele><time>2026-04-10T08:16:27.875Z</time></trkpt><trkpt lat="44.0052502" lon="5.6640334"><ele>750.8000000000001</ele><time>2026-04-10T08:16:28.876Z</time></trkpt><trkpt lat="44.0053237" lon="5.6640714"><ele>751.4000000000001</ele><time>2026-04-10T08:16:29.881Z</time></trkpt><trkpt lat="44.0054149" lon="5.6640941"><ele>752.0</ele><time>2026-04-10T08:16:30.883Z</time></trkpt><trkpt lat="44.0055051" lon="5.6641125"><ele>752.0</ele><time>2026-04-10T08:16:31.878Z</time></trkpt><trkpt lat="44.0056054" lon="5.664177"><ele>752.0</ele><time>2026-04-10T08:16:32.881Z</time></trkpt><trkpt lat="44.0057058" lon="5.6642406"><ele>752.0</ele><time>2026-04-10T08:16:33.878Z</time></trkpt><trkpt lat="44.0057763" lon="5.6643359"><ele>752.0</ele><time>2026-04-10T08:16:34.88Z</time></trkpt><trkpt lat="44.0058373" lon="5.6643978"><ele>752.0</ele><time>2026-04-10T08:16:35.879Z</time></trkpt><trkpt lat="44.0059045" lon="5.6644329"><ele>753.3333333333333</ele><time>2026-04-10T08:16:36.882Z</time></trkpt><trkpt lat="44.0059671" lon="5.6644449"><ele>754.6666666666666</ele><time>2026-04-10T08:16:37.88Z</time></trkpt><trkpt lat="44.0060887" lon="5.6643991"><ele>756.0</ele><time>2026-04-10T08:16:39.878Z</time></trkpt><trkpt lat="44.006156" lon="5.6643475"><ele>757.3333333333334</ele><time>2026-04-10T08:16:40.876Z</time></trkpt><trkpt lat="44.0062591" lon="5.6643147"><ele>758.6666666666667</ele><time>2026-04-10T08:16:42.883Z</time></trkpt><trkpt lat="44.0063222" lon="5.6643365"><ele>760.0</ele><time>2026-04-10T08:16:43.875Z</time></trkpt><trkpt lat="44.0063966" lon="5.6643768"><ele>760.0</ele><time>2026-04-10T08:16:44.877Z</time></trkpt><trkpt lat="44.0065235" lon="5.6643895"><ele>760.0</ele><time>2026-04-10T08:16:46.878Z</time></trkpt><trkpt lat="44.0066383" lon="5.6643271"><ele>760.0</ele><time>2026-04-10T08:16:48.878Z</time></trkpt><trkpt lat="44.0066718" lon="5.6642508"><ele>760.0</ele><time>2026-04-10T08:16:49.88Z</time></trkpt><trkpt lat="44.0067049" lon="5.6641728"><ele>760.0</ele><time>2026-04-10T08:16:50.878Z</time></trkpt><trkpt lat="44.0067597" lon="5.664091"><ele>761.1666666666667</ele><time>2026-04-10T08:16:51.878Z</time></trkpt><trkpt lat="44.006804" lon="5.6640062"><ele>762.3333333333334</ele><time>2026-04-10T08:16:52.875Z</time></trkpt><trkpt lat="44.0068491" lon="5.663922"><ele>763.5</ele><time>2026-04-10T08:16:53.874Z</time></trkpt><trkpt lat="44.0069167" lon="5.6638308"><ele>764.6666666666666</ele><time>2026-04-10T08:16:54.88Z</time></trkpt><trkpt lat="44.006976" lon="5.6637583"><ele>765.8333333333333</ele><time>2026-04-10T08:16:55.879Z</time></trkpt><trkpt lat="44.0070177" lon="5.6636784"><ele>767.0</ele><time>2026-04-10T08:16:56.876Z</time></trkpt><trkpt lat="44.007072" lon="5.6636103"><ele>768.6666666666666</ele><time>2026-04-10T08:16:57.879Z</time></trkpt><trkpt lat="44.0071196" lon="5.663539"><ele>770.3333333333333</ele><time>2026-04-10T08:16:58.89Z</time></trkpt><trkpt lat="44.0071695" lon="5.6634618"><ele>772.0</ele><time>2026-04-10T08:16:59.885Z</time></trkpt><trkpt lat="44.0072202" lon="5.6633833"><ele>773.6666666666666</ele><time>2026-04-10T08:17:00.884Z</time></trkpt><trkpt lat="44.0072728" lon="5.6633027"><ele>775.3333333333334</ele><time>2026-04-10T08:17:01.88Z</time></trkpt><trkpt lat="44.0073262" lon="5.6632202"><ele>777.0</ele><time>2026-04-10T08:17:02.876Z</time></trkpt><trkpt lat="44.0073715" lon="5.6631422"><ele>777.0</ele><time>2026-04-10T08:17:03.882Z</time></trkpt><trkpt lat="44.0074241" lon="5.6630631"><ele>777.0</ele><time>2026-04-10T08:17:04.881Z</time></trkpt><trkpt lat="44.0074886" lon="5.6630035"><ele>777.0</ele><time>2026-04-10T08:17:05.881Z</time></trkpt><trkpt lat="44.0075714" lon="5.6629647"><ele>777.0</ele><time>2026-04-10T08:17:06.877Z</time></trkpt><trkpt lat="44.0076409" lon="5.6629317"><ele>777.0</ele><time>2026-04-10T08:17:07.876Z</time></trkpt><trkpt lat="44.0077047" lon="5.6629152"><ele>777.0</ele><time>2026-04-10T08:17:08.878Z</time></trkpt><trkpt lat="44.007787" lon="5.662912"><ele>777.8333333333334</ele><time>2026-04-10T08:17:09.882Z</time></trkpt><trkpt lat="44.0078576" lon="5.6629232"><ele>778.6666666666667</ele><time>2026-04-10T08:17:10.876Z</time></trkpt><trkpt lat="44.0079388" lon="5.6629286"><ele>779.5</ele><time>2026-04-10T08:17:11.877Z</time></trkpt><trkpt lat="44.0080132" lon="5.662937"><ele>780.3333333333334</ele><time>2026-04-10T08:17:12.883Z</time></trkpt><trkpt lat="44.0080822" lon="5.6629159"><ele>781.1666666666667</ele><time>2026-04-10T08:17:13.88Z</time></trkpt><trkpt lat="44.0081551" lon="5.6628982"><ele>782.0</ele><time>2026-04-10T08:17:14.878Z</time></trkpt><trkpt lat="44.0082486" lon="5.6628661"><ele>783.3333333333334</ele><time>2026-04-10T08:17:15.88Z</time></trkpt><trkpt lat="44.0083337" lon="5.6628454"><ele>784.6666666666667</ele><time>2026-04-10T08:17:16.88Z</time></trkpt><trkpt lat="44.0084027" lon="5.6627958"><ele>786.0</ele><time>2026-04-10T08:17:17.876Z</time></trkpt><trkpt lat="44.0084597" lon="5.6627363"><ele>787.3333333333333</ele><time>2026-04-10T08:17:18.88Z</time></trkpt><trkpt lat="44.0085248" lon="5.6626891"><ele>788.6666666666666</ele><time>2026-04-10T08:17:19.876Z</time></trkpt><trkpt lat="44.0085949" lon="5.6626412"><ele>790.0</ele><time>2026-04-10T08:17:20.877Z</time></trkpt><trkpt lat="44.0086581" lon="5.6625725"><ele>791.1666666666666</ele><time>2026-04-10T08:17:21.879Z</time></trkpt><trkpt lat="44.0087134" lon="5.6624966"><ele>792.3333333333333</ele><time>2026-04-10T08:17:22.877Z</time></trkpt><trkpt lat="44.0087668" lon="5.662438"><ele>793.5</ele><time>2026-04-10T08:17:23.88Z</time></trkpt><trkpt lat="44.0088139" lon="5.6623408"><ele>794.6666666666667</ele><time>2026-04-10T08:17:25.882Z</time></trkpt><trkpt lat="44.0088798" lon="5.6622738"><ele>795.8333333333334</ele><time>2026-04-10T08:17:28.879Z</time></trkpt><trkpt lat="44.0089403" lon="5.6621671"><ele>797.0</ele><time>2026-04-10T08:17:30.882Z</time></trkpt><trkpt lat="44.0089531" lon="5.6620806"><ele>797.0000000000001</ele><time>2026-04-10T08:17:31.879Z</time></trkpt><trkpt lat="44.0089601" lon="5.6619681"><ele>797.0</ele><time>2026-04-10T08:17:32.876Z</time></trkpt><trkpt lat="44.0089739" lon="5.6618535"><ele>797.0</ele><time>2026-04-10T08:17:33.88Z</time></trkpt><trkpt lat="44.0089841" lon="5.6617507"><ele>797.0</ele><time>2026-04-10T08:17:34.882Z</time></trkpt><trkpt lat="44.0089979" lon="5.66166"><ele>797.0000000000001</ele><time>2026-04-10T08:17:35.877Z</time></trkpt><trkpt lat="44.0090734" lon="5.6615457"><ele>797.0</ele><time>2026-04-10T08:17:37.878Z</time></trkpt><trkpt lat="44.009202" lon="5.6614941"><ele>797.6666666666667</ele><time>2026-04-10T08:17:39.883Z</time></trkpt><trkpt lat="44.009274" lon="5.6614679"><ele>798.3333333333334</ele><time>2026-04-10T08:17:40.879Z</time></trkpt><trkpt lat="44.0093345" lon="5.6614422"><ele>799.0</ele><time>2026-04-10T08:17:41.876Z</time></trkpt><trkpt lat="44.0094424" lon="5.661374"><ele>799.6666666666667</ele><time>2026-04-10T08:17:43.879Z</time></trkpt><trkpt lat="44.0094949" lon="5.6613231"><ele>800.3333333333334</ele><time>2026-04-10T08:17:44.878Z</time></trkpt><trkpt lat="44.009551" lon="5.6612686"><ele>801.0</ele><time>2026-04-10T08:17:45.877Z</time></trkpt><trkpt lat="44.0096019" lon="5.6612052"><ele>802.0</ele><time>2026-04-10T08:17:46.878Z</time></trkpt><trkpt lat="44.0096448" lon="5.6610492"><ele>803.0</ele><time>2026-04-10T08:17:48.877Z</time></trkpt><trkpt lat="44.0096857" lon="5.6609758"><ele>804.0</ele><time>2026-04-10T08:17:49.883Z</time></trkpt><trkpt lat="44.0097624" lon="5.660828"><ele>805.0</ele><time>2026-04-10T08:17:51.881Z</time></trkpt><trkpt lat="44.0097965" lon="5.6607523"><ele>806.0</ele><time>2026-04-10T08:17:52.879Z</time></trkpt><trkpt lat="44.0098276" lon="5.6606703"><ele>807.0</ele><time>2026-04-10T08:17:53.876Z</time></trkpt><trkpt lat="44.0098703" lon="5.6605932"><ele>807.0</ele><time>2026-04-10T08:17:54.875Z</time></trkpt><trkpt lat="44.0099144" lon="5.6605127"><ele>807.0</ele><time>2026-04-10T08:17:55.882Z</time></trkpt><trkpt lat="44.0099615" lon="5.6604169"><ele>807.0</ele><time>2026-04-10T08:17:56.882Z</time></trkpt><trkpt lat="44.0100207" lon="5.6603103"><ele>807.0</ele><time>2026-04-10T08:17:57.878Z</time></trkpt><trkpt lat="44.0100795" lon="5.6601821"><ele>807.0</ele><time>2026-04-10T08:17:58.876Z</time></trkpt><trkpt lat="44.010125" lon="5.6600617"><ele>808.2</ele><time>2026-04-10T08:17:59.878Z</time></trkpt><trkpt lat="44.0101534" lon="5.6599367"><ele>809.4000000000001</ele><time>2026-04-10T08:18:00.877Z</time></trkpt><trkpt lat="44.0101902" lon="5.6598051"><ele>810.5999999999999</ele><time>2026-04-10T08:18:01.876Z</time></trkpt><trkpt lat="44.0102337" lon="5.6596833"><ele>811.8</ele><time>2026-04-10T08:18:02.88Z</time></trkpt><trkpt lat="44.0102841" lon="5.6595555"><ele>813.0</ele><time>2026-04-10T08:18:03.878Z</time></trkpt><trkpt lat="44.0103442" lon="5.6594303"><ele>814.0</ele><time>2026-04-10T08:18:04.879Z</time></trkpt><trkpt lat="44.0104004" lon="5.6593173"><ele>815.0</ele><time>2026-04-10T08:18:05.874Z</time></trkpt><trkpt lat="44.0104486" lon="5.6592148"><ele>816.0</ele><time>2026-04-10T08:18:06.879Z</time></trkpt><trkpt lat="44.0105089" lon="5.659115"><ele>817.0</ele><time>2026-04-10T08:18:07.879Z</time></trkpt><trkpt lat="44.0105769" lon="5.6590189"><ele>818.0</ele><time>2026-04-10T08:18:08.876Z</time></trkpt><trkpt lat="44.0106365" lon="5.6589513"><ele>818.0000000000001</ele><time>2026-04-10T08:18:09.881Z</time></trkpt><trkpt lat="44.0106939" lon="5.6588817"><ele>818.0</ele><time>2026-04-10T08:18:10.879Z</time></trkpt><trkpt lat="44.0107484" lon="5.6588151"><ele>818.0</ele><time>2026-04-10T08:18:11.879Z</time></trkpt><trkpt lat="44.010807" lon="5.6587663"><ele>818.0</ele><time>2026-04-10T08:18:12.878Z</time></trkpt><trkpt lat="44.0108703" lon="5.6587456"><ele>818.0000000000001</ele><time>2026-04-10T08:18:13.882Z</time></trkpt><trkpt lat="44.0109851" lon="5.6587228"><ele>818.0</ele><time>2026-04-10T08:18:15.877Z</time></trkpt><trkpt lat="44.0110858" lon="5.6586786"><ele>819.5999999999999</ele><time>2026-04-10T08:18:17.876Z</time></trkpt><trkpt lat="44.011191" lon="5.6586058"><ele>821.1999999999999</ele><time>2026-04-10T08:18:19.879Z</time></trkpt><trkpt lat="44.0112616" lon="5.6585657"><ele>822.8</ele><time>2026-04-10T08:18:20.879Z</time></trkpt><trkpt lat="44.0113225" lon="5.6585184"><ele>824.4</ele><time>2026-04-10T08:18:21.876Z</time></trkpt><trkpt lat="44.0114364" lon="5.6584488"><ele>826.0</ele><time>2026-04-10T08:18:23.876Z</time></trkpt><trkpt lat="44.0115102" lon="5.6584091"><ele>826.0</ele><time>2026-04-10T08:18:24.879Z</time></trkpt><trkpt lat="44.0116165" lon="5.6583344"><ele>826.0</ele><time>2026-04-10T08:18:26.876Z</time></trkpt><trkpt lat="44.0117261" lon="5.6582473"><ele>826.0</ele><time>2026-04-10T08:18:28.877Z</time></trkpt><trkpt lat="44.0117842" lon="5.6581972"><ele>826.0</ele><time>2026-04-10T08:18:29.877Z</time></trkpt><trkpt lat="44.0118806" lon="5.6581314"><ele>826.0</ele><time>2026-04-10T08:18:31.879Z</time></trkpt><trkpt lat="44.0119922" lon="5.6580301"><ele>826.4999999999999</ele><time>2026-04-10T08:18:33.874Z</time></trkpt><trkpt lat="44.0120618" lon="5.6579743"><ele>827.0</ele><time>2026-04-10T08:18:34.876Z</time></trkpt><trkpt lat="44.0121338" lon="5.6579198"><ele>827.5</ele><time>2026-04-10T08:18:35.876Z</time></trkpt><trkpt lat="44.0122066" lon="5.6578688"><ele>828.0</ele><time>2026-04-10T08:18:36.882Z</time></trkpt><trkpt lat="44.0122831" lon="5.6578393"><ele>828.4999999999999</ele><time>2026-04-10T08:18:37.879Z</time></trkpt><trkpt lat="44.0123525" lon="5.6578164"><ele>829.0</ele><time>2026-04-10T08:18:38.878Z</time></trkpt><trkpt lat="44.0124423" lon="5.6577709"><ele>832.2</ele><time>2026-04-10T08:18:39.88Z</time></trkpt><trkpt lat="44.0125172" lon="5.6577317"><ele>835.4000000000001</ele><time>2026-04-10T08:18:40.877Z</time></trkpt><trkpt lat="44.0126188" lon="5.6577094"><ele>838.6</ele><time>2026-04-10T08:18:41.875Z</time></trkpt><trkpt lat="44.012713" lon="5.6577052"><ele>841.8</ele><time>2026-04-10T08:18:42.878Z</time></trkpt><trkpt lat="44.0128045" lon="5.6577105"><ele>845.0</ele><time>2026-04-10T08:18:43.879Z</time></trkpt><trkpt lat="44.0128936" lon="5.6577137"><ele>845.0000000000001</ele><time>2026-04-10T08:18:44.875Z</time></trkpt><trkpt lat="44.0129579" lon="5.6576882"><ele>845.0</ele><time>2026-04-10T08:18:45.879Z</time></trkpt><trkpt lat="44.01303" lon="5.6576648"><ele>845.0</ele><time>2026-04-10T08:18:46.879Z</time></trkpt><trkpt lat="44.0130983" lon="5.6576388"><ele>845.0</ele><time>2026-04-10T08:18:47.875Z</time></trkpt><trkpt lat="44.0131905" lon="5.6576147"><ele>845.0000000000001</ele><time>2026-04-10T08:18:49.877Z</time></trkpt><trkpt lat="44.0132935" lon="5.6576071"><ele>845.0</ele><time>2026-04-10T08:18:51.878Z</time></trkpt><trkpt lat="44.0134279" lon="5.6576432"><ele>846.5000000000001</ele><time>2026-04-10T08:18:53.875Z</time></trkpt><trkpt lat="44.0135161" lon="5.657648"><ele>848.0</ele><time>2026-04-10T08:18:54.882Z</time></trkpt><trkpt lat="44.013599" lon="5.6576433"><ele>849.5</ele><time>2026-04-10T08:18:55.88Z</time></trkpt><trkpt lat="44.0136715" lon="5.6576174"><ele>851.0</ele><time>2026-04-10T08:18:56.876Z</time></trkpt><trkpt lat="44.0137379" lon="5.6575926"><ele>852.5000000000001</ele><time>2026-04-10T08:18:57.876Z</time></trkpt><trkpt lat="44.013812" lon="5.6575467"><ele>854.0</ele><time>2026-04-10T08:18:58.883Z</time></trkpt><trkpt lat="44.0138707" lon="5.6575009"><ele>854.0</ele><time>2026-04-10T08:18:59.882Z</time></trkpt><trkpt lat="44.0139458" lon="5.657465"><ele>854.0</ele><time>2026-04-10T08:19:00.881Z</time></trkpt><trkpt lat="44.0140135" lon="5.6574342"><ele>854.0</ele><time>2026-04-10T08:19:01.881Z</time></trkpt><trkpt lat="44.0140792" lon="5.6574119"><ele>854.0</ele><time>2026-04-10T08:19:02.875Z</time></trkpt><trkpt lat="44.0141529" lon="5.657383"><ele>854.0</ele><time>2026-04-10T08:19:03.879Z</time></trkpt><trkpt lat="44.0142265" lon="5.6573607"><ele>854.0</ele><time>2026-04-10T08:19:04.877Z</time></trkpt><trkpt lat="44.0142911" lon="5.6573521"><ele>854.0</ele><time>2026-04-10T08:19:05.875Z</time></trkpt><trkpt lat="44.0144017" lon="5.6572598"><ele>855.3333333333334</ele><time>2026-04-10T08:19:07.876Z</time></trkpt><trkpt lat="44.014443" lon="5.6571635"><ele>856.6666666666667</ele><time>2026-04-10T08:19:08.876Z</time></trkpt><trkpt lat="44.0145005" lon="5.6570808"><ele>858.0</ele><time>2026-04-10T08:19:09.876Z</time></trkpt><trkpt lat="44.0145659" lon="5.657024"><ele>859.3333333333333</ele><time>2026-04-10T08:19:10.875Z</time></trkpt><trkpt lat="44.0146241" lon="5.6569757"><ele>860.6666666666666</ele><time>2026-04-10T08:19:11.879Z</time></trkpt><trkpt lat="44.0147126" lon="5.6569634"><ele>862.0</ele><time>2026-04-10T08:19:12.879Z</time></trkpt><trkpt lat="44.0147973" lon="5.6569789"><ele>862.0</ele><time>2026-04-10T08:19:13.883Z</time></trkpt><trkpt lat="44.0148768" lon="5.6569994"><ele>862.0</ele><time>2026-04-10T08:19:14.879Z</time></trkpt><trkpt lat="44.0149773" lon="5.6570248"><ele>862.0</ele><time>2026-04-10T08:19:15.88Z</time></trkpt><trkpt lat="44.0151331" lon="5.6570525"><ele>862.0</ele><time>2026-04-10T08:19:16.875Z</time></trkpt><trkpt lat="44.0152858" lon="5.6570849"><ele>862.75</ele><time>2026-04-10T08:19:17.879Z</time></trkpt><trkpt lat="44.0154204" lon="5.6571167"><ele>863.5</ele><time>2026-04-10T08:19:18.877Z</time></trkpt><trkpt lat="44.015538" lon="5.6571465"><ele>864.25</ele><time>2026-04-10T08:19:19.881Z</time></trkpt><trkpt lat="44.0156463" lon="5.6571567"><ele>865.0</ele><time>2026-04-10T08:19:20.883Z</time></trkpt><trkpt lat="44.0157475" lon="5.6571559"><ele>865.6</ele><time>2026-04-10T08:19:21.876Z</time></trkpt><trkpt lat="44.0158477" lon="5.6571459"><ele>866.2</ele><time>2026-04-10T08:19:22.878Z</time></trkpt><trkpt lat="44.0159427" lon="5.657131"><ele>866.8</ele><time>2026-04-10T08:19:23.878Z</time></trkpt><trkpt lat="44.0160272" lon="5.6571093"><ele>867.4</ele><time>2026-04-10T08:19:24.879Z</time></trkpt><trkpt lat="44.0161144" lon="5.6570762"><ele>868.0</ele><time>2026-04-10T08:19:25.882Z</time></trkpt><trkpt lat="44.0161987" lon="5.6570449"><ele>868.0</ele><time>2026-04-10T08:19:26.874Z</time></trkpt><trkpt lat="44.0162723" lon="5.6569913"><ele>868.0</ele><time>2026-04-10T08:19:27.876Z</time></trkpt><trkpt lat="44.0163515" lon="5.6569222"><ele>868.0</ele><time>2026-04-10T08:19:28.877Z</time></trkpt><trkpt lat="44.0164365" lon="5.6568437"><ele>868.0</ele><time>2026-04-10T08:19:29.882Z</time></trkpt><trkpt lat="44.0165091" lon="5.6567567"><ele>868.0</ele><time>2026-04-10T08:19:30.88Z</time></trkpt><trkpt lat="44.0165921" lon="5.656689"><ele>869.0</ele><time>2026-04-10T08:19:31.88Z</time></trkpt><trkpt lat="44.0166645" lon="5.6566398"><ele>870.0</ele><time>2026-04-10T08:19:32.878Z</time></trkpt><trkpt lat="44.0167271" lon="5.6566003"><ele>871.0</ele><time>2026-04-10T08:19:33.875Z</time></trkpt><trkpt lat="44.0168481" lon="5.6565637"><ele>872.0</ele><time>2026-04-10T08:19:35.879Z</time></trkpt><trkpt lat="44.0169309" lon="5.656575"><ele>873.0</ele><time>2026-04-10T08:19:36.879Z</time></trkpt><trkpt lat="44.0170309" lon="5.6565959"><ele>873.0</ele><time>2026-04-10T08:19:37.881Z</time></trkpt><trkpt lat="44.0171389" lon="5.6566136"><ele>873.0</ele><time>2026-04-10T08:19:38.878Z</time></trkpt><trkpt lat="44.0172432" lon="5.6566357"><ele>873.0</ele><time>2026-04-10T08:19:39.884Z</time></trkpt><trkpt lat="44.0173322" lon="5.6566695"><ele>873.0</ele><time>2026-04-10T08:19:40.881Z</time></trkpt><trkpt lat="44.0174379" lon="5.6566986"><ele>873.0</ele><time>2026-04-10T08:19:41.879Z</time></trkpt><trkpt lat="44.0175351" lon="5.6567313"><ele>873.0</ele><time>2026-04-10T08:19:42.88Z</time></trkpt><trkpt lat="44.0176292" lon="5.6567469"><ele>873.0</ele><time>2026-04-10T08:19:43.88Z</time></trkpt><trkpt lat="44.0177162" lon="5.6567587"><ele>873.0</ele><time>2026-04-10T08:19:44.876Z</time></trkpt><trkpt lat="44.0177959" lon="5.656757"><ele>873.0</ele><time>2026-04-10T08:19:45.88Z</time></trkpt><trkpt lat="44.0178856" lon="5.6567658"><ele>873.0</ele><time>2026-04-10T08:19:46.881Z</time></trkpt><trkpt lat="44.0179706" lon="5.6567646"><ele>873.0</ele><time>2026-04-10T08:19:47.879Z</time></trkpt><trkpt lat="44.0180598" lon="5.6567755"><ele>873.0</ele><time>2026-04-10T08:19:48.88Z</time></trkpt><trkpt lat="44.0181469" lon="5.6568006"><ele>873.0</ele><time>2026-04-10T08:19:49.876Z</time></trkpt><trkpt lat="44.0182201" lon="5.6568345"><ele>873.0</ele><time>2026-04-10T08:19:50.88Z</time></trkpt><trkpt lat="44.0182996" lon="5.6568795"><ele>873.0</ele><time>2026-04-10T08:19:51.878Z</time></trkpt><trkpt lat="44.0183936" lon="5.6569015"><ele>873.0</ele><time>2026-04-10T08:19:52.878Z</time></trkpt><trkpt lat="44.0184882" lon="5.6569298"><ele>873.0</ele><time>2026-04-10T08:19:53.879Z</time></trkpt><trkpt lat="44.0185822" lon="5.6569599"><ele>871.8</ele><time>2026-04-10T08:19:54.877Z</time></trkpt><trkpt lat="44.0186603" lon="5.6569963"><ele>870.5999999999999</ele><time>2026-04-10T08:19:55.882Z</time></trkpt><trkpt lat="44.0187263" lon="5.6570332"><ele>869.4000000000001</ele><time>2026-04-10T08:19:56.88Z</time></trkpt><trkpt lat="44.0188154" lon="5.6570646"><ele>868.2</ele><time>2026-04-10T08:19:58.876Z</time></trkpt><trkpt lat="44.0189215" lon="5.6570466"><ele>867.0</ele><time>2026-04-10T08:20:00.881Z</time></trkpt><trkpt lat="44.0190087" lon="5.6569665"><ele>867.3333333333334</ele><time>2026-04-10T08:20:02.879Z</time></trkpt><trkpt lat="44.0191105" lon="5.6568784"><ele>867.6666666666667</ele><time>2026-04-10T08:20:04.877Z</time></trkpt><trkpt lat="44.0191695" lon="5.6568361"><ele>868.0</ele><time>2026-04-10T08:20:05.874Z</time></trkpt><trkpt lat="44.0192418" lon="5.6567625"><ele>868.3333333333334</ele><time>2026-04-10T08:20:06.876Z</time></trkpt><trkpt lat="44.0192968" lon="5.6566904"><ele>868.6666666666667</ele><time>2026-04-10T08:20:07.881Z</time></trkpt><trkpt lat="44.0193494" lon="5.6566146"><ele>869.0</ele><time>2026-04-10T08:20:08.88Z</time></trkpt><trkpt lat="44.0194034" lon="5.6565259"><ele>867.2</ele><time>2026-04-10T08:20:09.88Z</time></trkpt><trkpt lat="44.0194618" lon="5.6564469"><ele>865.4000000000001</ele><time>2026-04-10T08:20:10.877Z</time></trkpt><trkpt lat="44.0195351" lon="5.6563872"><ele>863.6</ele><time>2026-04-10T08:20:11.878Z</time></trkpt><trkpt lat="44.0196157" lon="5.6563316"><ele>861.8</ele><time>2026-04-10T08:20:12.879Z</time></trkpt><trkpt lat="44.0197215" lon="5.6562781"><ele>860.0</ele><time>2026-04-10T08:20:13.879Z</time></trkpt><trkpt lat="44.0198361" lon="5.6562184"><ele>860.0</ele><time>2026-04-10T08:20:14.879Z</time></trkpt><trkpt lat="44.0199434" lon="5.6561389"><ele>860.0</ele><time>2026-04-10T08:20:15.878Z</time></trkpt><trkpt lat="44.0200525" lon="5.6560617"><ele>860.0</ele><time>2026-04-10T08:20:16.876Z</time></trkpt><trkpt lat="44.0201551" lon="5.6559738"><ele>860.0</ele><time>2026-04-10T08:20:17.89Z</time></trkpt><trkpt lat="44.0202617" lon="5.6558944"><ele>857.8</ele><time>2026-04-10T08:20:18.884Z</time></trkpt><trkpt lat="44.0203479" lon="5.6558243"><ele>855.6</ele><time>2026-04-10T08:20:19.877Z</time></trkpt><trkpt lat="44.0204247" lon="5.6557551"><ele>853.4000000000001</ele><time>2026-04-10T08:20:20.879Z</time></trkpt><trkpt lat="44.0204991" lon="5.6556882"><ele>851.2</ele><time>2026-04-10T08:20:21.879Z</time></trkpt><trkpt lat="44.0205771" lon="5.6556216"><ele>849.0</ele><time>2026-04-10T08:20:22.876Z</time></trkpt><trkpt lat="44.0206708" lon="5.6555651"><ele>849.0</ele><time>2026-04-10T08:20:23.879Z</time></trkpt><trkpt lat="44.0207552" lon="5.6555073"><ele>849.0</ele><time>2026-04-10T08:20:24.874Z</time></trkpt><trkpt lat="44.0208511" lon="5.6554471"><ele>849.0</ele><time>2026-04-10T08:20:25.875Z</time></trkpt><trkpt lat="44.0209306" lon="5.6554175"><ele>849.0</ele><time>2026-04-10T08:20:26.882Z</time></trkpt><trkpt lat="44.0210148" lon="5.6553968"><ele>849.0</ele><time>2026-04-10T08:20:27.875Z</time></trkpt><trkpt lat="44.0211094" lon="5.6553693"><ele>851.0</ele><time>2026-04-10T08:20:28.875Z</time></trkpt><trkpt lat="44.0212082" lon="5.6553483"><ele>853.0</ele><time>2026-04-10T08:20:29.881Z</time></trkpt><trkpt lat="44.0213042" lon="5.6553172"><ele>855.0000000000001</ele><time>2026-04-10T08:20:30.878Z</time></trkpt><trkpt lat="44.0214042" lon="5.6552899"><ele>857.0</ele><time>2026-04-10T08:20:31.875Z</time></trkpt><trkpt lat="44.0215061" lon="5.655253"><ele>859.0</ele><time>2026-04-10T08:20:32.874Z</time></trkpt><trkpt lat="44.0215978" lon="5.655216"><ele>855.6</ele><time>2026-04-10T08:20:33.877Z</time></trkpt><trkpt lat="44.0216947" lon="5.6551803"><ele>852.2</ele><time>2026-04-10T08:20:34.873Z</time></trkpt><trkpt lat="44.0217944" lon="5.6551499"><ele>848.8000000000001</ele><time>2026-04-10T08:20:35.877Z</time></trkpt><trkpt lat="44.0218977" lon="5.6551214"><ele>845.4000000000001</ele><time>2026-04-10T08:20:36.875Z</time></trkpt><trkpt lat="44.0219935" lon="5.6550879"><ele>842.0</ele><time>2026-04-10T08:20:37.873Z</time></trkpt><trkpt lat="44.022088" lon="5.6550501"><ele>842.0</ele><time>2026-04-10T08:20:38.883Z</time></trkpt><trkpt lat="44.0221797" lon="5.6550302"><ele>842.0</ele><time>2026-04-10T08:20:39.878Z</time></trkpt><trkpt lat="44.0222837" lon="5.6550259"><ele>842.0</ele><time>2026-04-10T08:20:40.878Z</time></trkpt><trkpt lat="44.0223862" lon="5.6550254"><ele>842.0</ele><time>2026-04-10T08:20:41.876Z</time></trkpt><trkpt lat="44.0224863" lon="5.6550235"><ele>842.0</ele><time>2026-04-10T08:20:42.876Z</time></trkpt><trkpt lat="44.0225832" lon="5.655021"><ele>842.4000000000001</ele><time>2026-04-10T08:20:43.876Z</time></trkpt><trkpt lat="44.0226894" lon="5.6550078"><ele>842.8000000000001</ele><time>2026-04-10T08:20:44.879Z</time></trkpt><trkpt lat="44.0227907" lon="5.6549798"><ele>843.2</ele><time>2026-04-10T08:20:45.872Z</time></trkpt><trkpt lat="44.0228853" lon="5.6549677"><ele>843.6</ele><time>2026-04-10T08:20:46.876Z</time></trkpt><trkpt lat="44.0229786" lon="5.654959"><ele>844.0</ele><time>2026-04-10T08:20:47.876Z</time></trkpt><trkpt lat="44.0230711" lon="5.6549577"><ele>843.9999999999999</ele><time>2026-04-10T08:20:48.879Z</time></trkpt><trkpt lat="44.0231597" lon="5.6549598"><ele>844.0</ele><time>2026-04-10T08:20:49.88Z</time></trkpt><trkpt lat="44.0232438" lon="5.6549494"><ele>844.0</ele><time>2026-04-10T08:20:50.875Z</time></trkpt><trkpt lat="44.0233234" lon="5.6549484"><ele>844.0</ele><time>2026-04-10T08:20:51.874Z</time></trkpt><trkpt lat="44.0233995" lon="5.6549448"><ele>843.9999999999999</ele><time>2026-04-10T08:20:52.875Z</time></trkpt><trkpt lat="44.0234831" lon="5.6549268"><ele>844.0</ele><time>2026-04-10T08:20:53.88Z</time></trkpt><trkpt lat="44.0235556" lon="5.6549142"><ele>843.6</ele><time>2026-04-10T08:20:54.876Z</time></trkpt><trkpt lat="44.0237074" lon="5.6548843"><ele>843.2</ele><time>2026-04-10T08:20:56.882Z</time></trkpt><trkpt lat="44.0237828" lon="5.6548804"><ele>842.8000000000001</ele><time>2026-04-10T08:20:57.875Z</time></trkpt><trkpt lat="44.0238594" lon="5.6548702"><ele>842.4000000000001</ele><time>2026-04-10T08:20:58.878Z</time></trkpt><trkpt lat="44.0239421" lon="5.6548715"><ele>842.0</ele><time>2026-04-10T08:20:59.877Z</time></trkpt><trkpt lat="44.0240209" lon="5.6548827"><ele>842.0000000000001</ele><time>2026-04-10T08:21:00.876Z</time></trkpt><trkpt lat="44.0240989" lon="5.6549026"><ele>842.0</ele><time>2026-04-10T08:21:01.876Z</time></trkpt><trkpt lat="44.0241808" lon="5.6549231"><ele>842.0</ele><time>2026-04-10T08:21:02.878Z</time></trkpt><trkpt lat="44.0242619" lon="5.6549402"><ele>842.0</ele><time>2026-04-10T08:21:03.876Z</time></trkpt><trkpt lat="44.0243482" lon="5.6549482"><ele>842.0000000000001</ele><time>2026-04-10T08:21:04.881Z</time></trkpt><trkpt lat="44.0244332" lon="5.654967"><ele>842.0</ele><time>2026-04-10T08:21:05.877Z</time></trkpt><trkpt lat="44.0245199" lon="5.6550047"><ele>840.5000000000001</ele><time>2026-04-10T08:21:06.881Z</time></trkpt><trkpt lat="44.0246081" lon="5.65504"><ele>839.0</ele><time>2026-04-10T08:21:07.876Z</time></trkpt><trkpt lat="44.0246939" lon="5.6550698"><ele>837.5</ele><time>2026-04-10T08:21:08.874Z</time></trkpt><trkpt lat="44.0247783" lon="5.6550984"><ele>836.0</ele><time>2026-04-10T08:21:09.873Z</time></trkpt><trkpt lat="44.0248604" lon="5.6551366"><ele>834.5000000000001</ele><time>2026-04-10T08:21:10.879Z</time></trkpt><trkpt lat="44.0249392" lon="5.6551697"><ele>833.0</ele><time>2026-04-10T08:21:11.876Z</time></trkpt><trkpt lat="44.0250989" lon="5.6551977"><ele>831.4285714285714</ele><time>2026-04-10T08:21:13.878Z</time></trkpt><trkpt lat="44.0251712" lon="5.6552088"><ele>829.8571428571429</ele><time>2026-04-10T08:21:14.874Z</time></trkpt><trkpt lat="44.0252368" lon="5.6552153"><ele>828.2857142857142</ele><time>2026-04-10T08:21:15.879Z</time></trkpt><trkpt lat="44.0253123" lon="5.6552146"><ele>826.7142857142858</ele><time>2026-04-10T08:21:16.877Z</time></trkpt><trkpt lat="44.0253882" lon="5.6552146"><ele>825.1428571428571</ele><time>2026-04-10T08:21:17.878Z</time></trkpt><trkpt lat="44.0254601" lon="5.6552037"><ele>823.5714285714286</ele><time>2026-04-10T08:21:18.881Z</time></trkpt><trkpt lat="44.025537" lon="5.6551785"><ele>822.0</ele><time>2026-04-10T08:21:19.875Z</time></trkpt><trkpt lat="44.0256081" lon="5.6551639"><ele>822.0</ele><time>2026-04-10T08:21:20.876Z</time></trkpt><trkpt lat="44.0256835" lon="5.6551704"><ele>822.0</ele><time>2026-04-10T08:21:21.878Z</time></trkpt><trkpt lat="44.0257572" lon="5.6551719"><ele>822.0</ele><time>2026-04-10T08:21:22.882Z</time></trkpt><trkpt lat="44.0258507" lon="5.6551162"><ele>822.0</ele><time>2026-04-10T08:21:23.879Z</time></trkpt><trkpt lat="44.0260181" lon="5.6549269"><ele>820.4000000000001</ele><time>2026-04-10T08:21:25.875Z</time></trkpt><trkpt lat="44.0260974" lon="5.6548539"><ele>818.8000000000001</ele><time>2026-04-10T08:21:26.879Z</time></trkpt><trkpt lat="44.0261901" lon="5.6547876"><ele>817.2</ele><time>2026-04-10T08:21:27.876Z</time></trkpt><trkpt lat="44.0262796" lon="5.6547139"><ele>815.6</ele><time>2026-04-10T08:21:28.875Z</time></trkpt><trkpt lat="44.0263533" lon="5.6546609"><ele>814.0</ele><time>2026-04-10T08:21:29.881Z</time></trkpt><trkpt lat="44.0264454" lon="5.6546233"><ele>814.0</ele><time>2026-04-10T08:21:30.875Z</time></trkpt><trkpt lat="44.026552" lon="5.6545778"><ele>814.0</ele><time>2026-04-10T08:21:31.88Z</time></trkpt><trkpt lat="44.0266586" lon="5.6545357"><ele>814.0</ele><time>2026-04-10T08:21:32.873Z</time></trkpt><trkpt lat="44.0267584" lon="5.6545022"><ele>814.0</ele><time>2026-04-10T08:21:33.877Z</time></trkpt><trkpt lat="44.0268568" lon="5.6544564"><ele>814.0</ele><time>2026-04-10T08:21:34.882Z</time></trkpt><trkpt lat="44.0269403" lon="5.6544028"><ele>812.4000000000001</ele><time>2026-04-10T08:21:35.878Z</time></trkpt><trkpt lat="44.0270462" lon="5.6543429"><ele>810.8</ele><time>2026-04-10T08:21:36.877Z</time></trkpt><trkpt lat="44.0271639" lon="5.6542878"><ele>809.2</ele><time>2026-04-10T08:21:37.879Z</time></trkpt><trkpt lat="44.0272605" lon="5.6542349"><ele>807.5999999999999</ele><time>2026-04-10T08:21:38.878Z</time></trkpt><trkpt lat="44.0273572" lon="5.6541728"><ele>806.0</ele><time>2026-04-10T08:21:39.873Z</time></trkpt><trkpt lat="44.0274497" lon="5.6541128"><ele>806.4</ele><time>2026-04-10T08:21:40.882Z</time></trkpt><trkpt lat="44.0275409" lon="5.6540717"><ele>806.8</ele><time>2026-04-10T08:21:41.878Z</time></trkpt><trkpt lat="44.0276316" lon="5.6540561"><ele>807.1999999999999</ele><time>2026-04-10T08:21:42.879Z</time></trkpt><trkpt lat="44.0277274" lon="5.6540538"><ele>807.5999999999999</ele><time>2026-04-10T08:21:43.884Z</time></trkpt><trkpt lat="44.0278378" lon="5.6540538"><ele>808.0</ele><time>2026-04-10T08:21:44.877Z</time></trkpt><trkpt lat="44.0279483" lon="5.6540525"><ele>808.0</ele><time>2026-04-10T08:21:45.879Z</time></trkpt><trkpt lat="44.0280504" lon="5.654053"><ele>808.0</ele><time>2026-04-10T08:21:46.876Z</time></trkpt><trkpt lat="44.0282642" lon="5.6540688"><ele>808.0</ele><time>2026-04-10T08:21:48.878Z</time></trkpt><trkpt lat="44.0283682" lon="5.6540867"><ele>808.0</ele><time>2026-04-10T08:21:49.877Z</time></trkpt><trkpt lat="44.028463" lon="5.6541028"><ele>808.0</ele><time>2026-04-10T08:21:50.876Z</time></trkpt><trkpt lat="44.028563" lon="5.6541062"><ele>808.0</ele><time>2026-04-10T08:21:51.88Z</time></trkpt><trkpt lat="44.028664" lon="5.6541106"><ele>808.0</ele><time>2026-04-10T08:21:52.881Z</time></trkpt><trkpt lat="44.0287595" lon="5.6541254"><ele>808.0</ele><time>2026-04-10T08:21:53.879Z</time></trkpt><trkpt lat="44.0288505" lon="5.654153"><ele>808.0</ele><time>2026-04-10T08:21:54.877Z</time></trkpt><trkpt lat="44.0289248" lon="5.6541688"><ele>807.9999999999999</ele><time>2026-04-10T08:21:55.88Z</time></trkpt><trkpt lat="44.0290053" lon="5.6541782"><ele>808.0</ele><time>2026-04-10T08:21:56.878Z</time></trkpt><trkpt lat="44.0290943" lon="5.6541752"><ele>808.0</ele><time>2026-04-10T08:21:57.877Z</time></trkpt><trkpt lat="44.0291834" lon="5.6541861"><ele>808.0</ele><time>2026-04-10T08:21:58.879Z</time></trkpt><trkpt lat="44.0292648" lon="5.6542141"><ele>807.9999999999999</ele><time>2026-04-10T08:21:59.883Z</time></trkpt><trkpt lat="44.0293522" lon="5.654244"><ele>808.0</ele><time>2026-04-10T08:22:00.881Z</time></trkpt><trkpt lat="44.0294492" lon="5.6542593"><ele>807.75</ele><time>2026-04-10T08:22:01.881Z</time></trkpt><trkpt lat="44.0296429" lon="5.6542829"><ele>807.5</ele><time>2026-04-10T08:22:03.879Z</time></trkpt><trkpt lat="44.0297635" lon="5.654302"><ele>807.25</ele><time>2026-04-10T08:22:04.882Z</time></trkpt><trkpt lat="44.0298758" lon="5.6543184"><ele>807.0</ele><time>2026-04-10T08:22:05.879Z</time></trkpt><trkpt lat="44.0299713" lon="5.6543301"><ele>806.8</ele><time>2026-04-10T08:22:06.876Z</time></trkpt><trkpt lat="44.0300729" lon="5.6543188"><ele>806.6</ele><time>2026-04-10T08:22:07.879Z</time></trkpt><trkpt lat="44.0301635" lon="5.6542802"><ele>806.4</ele><time>2026-04-10T08:22:08.877Z</time></trkpt><trkpt lat="44.0302676" lon="5.6542302"><ele>806.1999999999999</ele><time>2026-04-10T08:22:09.881Z</time></trkpt><trkpt lat="44.030364" lon="5.6541761"><ele>806.0</ele><time>2026-04-10T08:22:10.88Z</time></trkpt><trkpt lat="44.0304558" lon="5.6541419"><ele>806.0</ele><time>2026-04-10T08:22:11.881Z</time></trkpt><trkpt lat="44.0305616" lon="5.6541362"><ele>806.0</ele><time>2026-04-10T08:22:12.885Z</time></trkpt><trkpt lat="44.0306841" lon="5.654132"><ele>806.0</ele><time>2026-04-10T08:22:13.886Z</time></trkpt><trkpt lat="44.0308237" lon="5.6541028"><ele>806.0</ele><time>2026-04-10T08:22:14.887Z</time></trkpt><trkpt lat="44.0309566" lon="5.6540559"><ele>805.0</ele><time>2026-04-10T08:22:15.895Z</time></trkpt><trkpt lat="44.0311053" lon="5.6540105"><ele>804.0</ele><time>2026-04-10T08:22:16.888Z</time></trkpt><trkpt lat="44.0312508" lon="5.653984"><ele>803.0</ele><time>2026-04-10T08:22:17.884Z</time></trkpt><trkpt lat="44.0313743" lon="5.6539693"><ele>802.0</ele><time>2026-04-10T08:22:18.877Z</time></trkpt><trkpt lat="44.0314926" lon="5.6539672"><ele>802.0</ele><time>2026-04-10T08:22:19.883Z</time></trkpt><trkpt lat="44.0315888" lon="5.6539679"><ele>802.0</ele><time>2026-04-10T08:22:20.877Z</time></trkpt><trkpt lat="44.0316729" lon="5.6539861"><ele>802.0</ele><time>2026-04-10T08:22:21.877Z</time></trkpt><trkpt lat="44.0317855" lon="5.6539792"><ele>802.0</ele><time>2026-04-10T08:22:23.878Z</time></trkpt><trkpt lat="44.0318743" lon="5.6538789"><ele>802.0</ele><time>2026-04-10T08:22:25.876Z</time></trkpt><trkpt lat="44.0319179" lon="5.6537896"><ele>801.6666666666666</ele><time>2026-04-10T08:22:26.88Z</time></trkpt><trkpt lat="44.0319677" lon="5.6536983"><ele>801.3333333333333</ele><time>2026-04-10T08:22:27.877Z</time></trkpt><trkpt lat="44.03202" lon="5.6536065"><ele>801.0</ele><time>2026-04-10T08:22:28.881Z</time></trkpt><trkpt lat="44.0320786" lon="5.6535109"><ele>800.6666666666667</ele><time>2026-04-10T08:22:29.879Z</time></trkpt><trkpt lat="44.0321336" lon="5.6534061"><ele>800.3333333333334</ele><time>2026-04-10T08:22:30.874Z</time></trkpt><trkpt lat="44.0321938" lon="5.653303"><ele>800.0</ele><time>2026-04-10T08:22:31.877Z</time></trkpt><trkpt lat="44.0322523" lon="5.6531986"><ele>799.75</ele><time>2026-04-10T08:22:32.886Z</time></trkpt><trkpt lat="44.0323138" lon="5.6530848"><ele>799.5</ele><time>2026-04-10T08:22:33.88Z</time></trkpt><trkpt lat="44.0324186" lon="5.6529426"><ele>799.25</ele><time>2026-04-10T08:22:34.88Z</time></trkpt><trkpt lat="44.0325178" lon="5.6527883"><ele>799.0</ele><time>2026-04-10T08:22:35.88Z</time></trkpt><trkpt lat="44.0327069" lon="5.6525219"><ele>799.0</ele><time>2026-04-10T08:22:37.878Z</time></trkpt><trkpt lat="44.0328079" lon="5.6524002"><ele>799.0</ele><time>2026-04-10T08:22:38.875Z</time></trkpt><trkpt lat="44.0329189" lon="5.6523028"><ele>799.0</ele><time>2026-04-10T08:22:39.876Z</time></trkpt><trkpt lat="44.0330377" lon="5.652219"><ele>799.0</ele><time>2026-04-10T08:22:40.882Z</time></trkpt><trkpt lat="44.0331504" lon="5.6521447"><ele>799.0</ele><time>2026-04-10T08:22:41.874Z</time></trkpt><trkpt lat="44.0332583" lon="5.6520826"><ele>799.0</ele><time>2026-04-10T08:22:42.878Z</time></trkpt><trkpt lat="44.0333718" lon="5.6520108"><ele>799.0</ele><time>2026-04-10T08:22:43.887Z</time></trkpt><trkpt lat="44.0334815" lon="5.6519509"><ele>799.0</ele><time>2026-04-10T08:22:44.884Z</time></trkpt><trkpt lat="44.0335934" lon="5.6518872"><ele>798.0</ele><time>2026-04-10T08:22:45.878Z</time></trkpt><trkpt lat="44.0337025" lon="5.6518315"><ele>797.0</ele><time>2026-04-10T08:22:46.878Z</time></trkpt><trkpt lat="44.0338158" lon="5.6517784"><ele>796.0</ele><time>2026-04-10T08:22:47.877Z</time></trkpt><trkpt lat="44.0339304" lon="5.6517247"><ele>795.0</ele><time>2026-04-10T08:22:48.876Z</time></trkpt><trkpt lat="44.0340445" lon="5.6516686"><ele>797.0</ele><time>2026-04-10T08:22:49.874Z</time></trkpt><trkpt lat="44.0341611" lon="5.6516103"><ele>799.0</ele><time>2026-04-10T08:22:50.873Z</time></trkpt><trkpt lat="44.034415" lon="5.6515038"><ele>801.0</ele><time>2026-04-10T08:22:52.874Z</time></trkpt><trkpt lat="44.0345421" lon="5.6514458"><ele>801.0</ele><time>2026-04-10T08:22:53.877Z</time></trkpt><trkpt lat="44.0346647" lon="5.6513818"><ele>801.0</ele><time>2026-04-10T08:22:54.89Z</time></trkpt><trkpt lat="44.0347923" lon="5.6513276"><ele>801.0</ele><time>2026-04-10T08:22:55.889Z</time></trkpt><trkpt lat="44.0349207" lon="5.6512788"><ele>801.0</ele><time>2026-04-10T08:22:56.877Z</time></trkpt><trkpt lat="44.0350537" lon="5.6512411"><ele>802.4</ele><time>2026-04-10T08:22:57.878Z</time></trkpt><trkpt lat="44.0351721" lon="5.6512075"><ele>803.8</ele><time>2026-04-10T08:22:58.875Z</time></trkpt><trkpt lat="44.0352869" lon="5.6511769"><ele>805.1999999999999</ele><time>2026-04-10T08:22:59.874Z</time></trkpt><trkpt lat="44.0353892" lon="5.65117"><ele>806.5999999999999</ele><time>2026-04-10T08:23:00.876Z</time></trkpt><trkpt lat="44.0354816" lon="5.6511653"><ele>808.0</ele><time>2026-04-10T08:23:01.876Z</time></trkpt><trkpt lat="44.0355711" lon="5.6511644"><ele>807.9999999999999</ele><time>2026-04-10T08:23:02.877Z</time></trkpt><trkpt lat="44.0356415" lon="5.6511593"><ele>808.0</ele><time>2026-04-10T08:23:03.879Z</time></trkpt><trkpt lat="44.0357569" lon="5.6510862"><ele>808.0</ele><time>2026-04-10T08:23:05.874Z</time></trkpt><trkpt lat="44.03581" lon="5.6510281"><ele>808.0</ele><time>2026-04-10T08:23:06.879Z</time></trkpt><trkpt lat="44.0358494" lon="5.6509414"><ele>807.9999999999999</ele><time>2026-04-10T08:23:07.877Z</time></trkpt><trkpt lat="44.0358833" lon="5.6508156"><ele>808.0</ele><time>2026-04-10T08:23:08.878Z</time></trkpt><trkpt lat="44.0359516" lon="5.6505248"><ele>806.5</ele><time>2026-04-10T08:23:10.873Z</time></trkpt><trkpt lat="44.0360004" lon="5.6503764"><ele>805.0</ele><time>2026-04-10T08:23:11.876Z</time></trkpt><trkpt lat="44.0360688" lon="5.6502281"><ele>803.5</ele><time>2026-04-10T08:23:12.879Z</time></trkpt><trkpt lat="44.0361349" lon="5.6500691"><ele>802.0</ele><time>2026-04-10T08:23:13.874Z</time></trkpt><trkpt lat="44.0362111" lon="5.6499166"><ele>799.25</ele><time>2026-04-10T08:23:14.874Z</time></trkpt><trkpt lat="44.0362934" lon="5.6497711"><ele>796.5</ele><time>2026-04-10T08:23:15.874Z</time></trkpt><trkpt lat="44.0363738" lon="5.6496219"><ele>793.75</ele><time>2026-04-10T08:23:16.872Z</time></trkpt><trkpt lat="44.0364438" lon="5.6494718"><ele>791.0</ele><time>2026-04-10T08:23:17.875Z</time></trkpt><trkpt lat="44.0365062" lon="5.6493182"><ele>790.25</ele><time>2026-04-10T08:23:18.88Z</time></trkpt><trkpt lat="44.0365734" lon="5.6491713"><ele>789.5</ele><time>2026-04-10T08:23:19.877Z</time></trkpt><trkpt lat="44.0366402" lon="5.6490247"><ele>788.75</ele><time>2026-04-10T08:23:20.875Z</time></trkpt><trkpt lat="44.0367016" lon="5.6488594"><ele>788.0</ele><time>2026-04-10T08:23:21.878Z</time></trkpt><trkpt lat="44.0367616" lon="5.6486821"><ele>790.25</ele><time>2026-04-10T08:23:22.878Z</time></trkpt><trkpt lat="44.0368091" lon="5.6485081"><ele>792.5</ele><time>2026-04-10T08:23:23.875Z</time></trkpt><trkpt lat="44.0368468" lon="5.6483465"><ele>794.75</ele><time>2026-04-10T08:23:24.873Z</time></trkpt><trkpt lat="44.0368908" lon="5.6481914"><ele>797.0</ele><time>2026-04-10T08:23:25.875Z</time></trkpt><trkpt lat="44.0369328" lon="5.6480491"><ele>797.0</ele><time>2026-04-10T08:23:26.878Z</time></trkpt><trkpt lat="44.0369558" lon="5.6479183"><ele>797.0</ele><time>2026-04-10T08:23:27.877Z</time></trkpt><trkpt lat="44.0369761" lon="5.6477912"><ele>797.0</ele><time>2026-04-10T08:23:28.873Z</time></trkpt><trkpt lat="44.036973" lon="5.6476565"><ele>797.0</ele><time>2026-04-10T08:23:29.883Z</time></trkpt><trkpt lat="44.0369746" lon="5.6475046"><ele>797.0</ele><time>2026-04-10T08:23:30.875Z</time></trkpt><trkpt lat="44.0369832" lon="5.6473496"><ele>796.6</ele><time>2026-04-10T08:23:31.876Z</time></trkpt><trkpt lat="44.0369996" lon="5.647209"><ele>796.2</ele><time>2026-04-10T08:23:32.877Z</time></trkpt><trkpt lat="44.0370028" lon="5.647063"><ele>795.8</ele><time>2026-04-10T08:23:33.88Z</time></trkpt><trkpt lat="44.0369964" lon="5.6469323"><ele>795.4</ele><time>2026-04-10T08:23:34.877Z</time></trkpt><trkpt lat="44.0369743" lon="5.6468028"><ele>795.0</ele><time>2026-04-10T08:23:35.879Z</time></trkpt><trkpt lat="44.0369376" lon="5.6466764"><ele>794.1666666666666</ele><time>2026-04-10T08:23:36.877Z</time></trkpt><trkpt lat="44.0368972" lon="5.6465649"><ele>793.3333333333333</ele><time>2026-04-10T08:23:37.878Z</time></trkpt><trkpt lat="44.0368576" lon="5.6464723"><ele>792.5</ele><time>2026-04-10T08:23:38.882Z</time></trkpt><trkpt lat="44.0368229" lon="5.6463982"><ele>791.6666666666666</ele><time>2026-04-10T08:23:39.877Z</time></trkpt><trkpt lat="44.0367869" lon="5.6463245"><ele>790.8333333333333</ele><time>2026-04-10T08:23:40.874Z</time></trkpt><trkpt lat="44.0368546" lon="5.6462818"><ele>790.0</ele><time>2026-04-10T08:23:43.877Z</time></trkpt><trkpt lat="44.0369445" lon="5.6463919"><ele>789.9999999999999</ele><time>2026-04-10T08:23:46.875Z</time></trkpt><trkpt lat="44.0369863" lon="5.6464638"><ele>790.0</ele><time>2026-04-10T08:23:47.874Z</time></trkpt><trkpt lat="44.0370393" lon="5.6465385"><ele>790.0</ele><time>2026-04-10T08:23:48.879Z</time></trkpt><trkpt lat="44.0371064" lon="5.6466226"><ele>790.0</ele><time>2026-04-10T08:23:49.875Z</time></trkpt><trkpt lat="44.0371767" lon="5.6467097"><ele>789.9999999999999</ele><time>2026-04-10T08:23:50.878Z</time></trkpt><trkpt lat="44.0372373" lon="5.6467989"><ele>790.0</ele><time>2026-04-10T08:23:51.877Z</time></trkpt><trkpt lat="44.0372856" lon="5.646893"><ele>790.8333333333333</ele><time>2026-04-10T08:23:52.874Z</time></trkpt><trkpt lat="44.0373239" lon="5.6469905"><ele>791.6666666666666</ele><time>2026-04-10T08:23:53.875Z</time></trkpt><trkpt lat="44.0373507" lon="5.6471034"><ele>792.5</ele><time>2026-04-10T08:23:54.874Z</time></trkpt><trkpt lat="44.0373813" lon="5.6472041"><ele>793.3333333333333</ele><time>2026-04-10T08:23:55.874Z</time></trkpt><trkpt lat="44.0374287" lon="5.6472868"><ele>794.1666666666666</ele><time>2026-04-10T08:23:56.876Z</time></trkpt><trkpt lat="44.0374926" lon="5.6473503"><ele>795.0</ele><time>2026-04-10T08:23:57.873Z</time></trkpt><trkpt lat="44.0375889" lon="5.6473933"><ele>793.0</ele><time>2026-04-10T08:23:58.88Z</time></trkpt><trkpt lat="44.0376917" lon="5.6474183"><ele>791.0</ele><time>2026-04-10T08:23:59.877Z</time></trkpt><trkpt lat="44.0377959" lon="5.6474665"><ele>789.0</ele><time>2026-04-10T08:24:00.875Z</time></trkpt><trkpt lat="44.0378986" lon="5.6475215"><ele>787.0</ele><time>2026-04-10T08:24:01.874Z</time></trkpt><trkpt lat="44.0380037" lon="5.6475699"><ele>785.0</ele><time>2026-04-10T08:24:02.876Z</time></trkpt><trkpt lat="44.0380888" lon="5.6476188"><ele>785.0000000000001</ele><time>2026-04-10T08:24:03.875Z</time></trkpt><trkpt lat="44.0381502" lon="5.6476571"><ele>785.0</ele><time>2026-04-10T08:24:04.877Z</time></trkpt><trkpt lat="44.0382002" lon="5.6477105"><ele>785.0</ele><time>2026-04-10T08:24:05.876Z</time></trkpt><trkpt lat="44.0382461" lon="5.6478027"><ele>785.0</ele><time>2026-04-10T08:24:06.873Z</time></trkpt><trkpt lat="44.0382892" lon="5.6479057"><ele>785.0000000000001</ele><time>2026-04-10T08:24:07.875Z</time></trkpt><trkpt lat="44.0383483" lon="5.6480226"><ele>785.0</ele><time>2026-04-10T08:24:08.874Z</time></trkpt><trkpt lat="44.0384193" lon="5.6481035"><ele>784.8333333333334</ele><time>2026-04-10T08:24:09.873Z</time></trkpt><trkpt lat="44.0384922" lon="5.6481561"><ele>784.6666666666667</ele><time>2026-04-10T08:24:10.876Z</time></trkpt><trkpt lat="44.0385756" lon="5.6481667"><ele>784.5</ele><time>2026-04-10T08:24:11.874Z</time></trkpt><trkpt lat="44.0386629" lon="5.6481652"><ele>784.3333333333333</ele><time>2026-04-10T08:24:12.873Z</time></trkpt><trkpt lat="44.0387551" lon="5.6481644"><ele>784.1666666666666</ele><time>2026-04-10T08:24:13.874Z</time></trkpt><trkpt lat="44.0388394" lon="5.6481709"><ele>784.0</ele><time>2026-04-10T08:24:14.882Z</time></trkpt><trkpt lat="44.0389205" lon="5.6481869"><ele>783.9999999999999</ele><time>2026-04-10T08:24:15.88Z</time></trkpt><trkpt lat="44.0390133" lon="5.6482011"><ele>784.0</ele><time>2026-04-10T08:24:17.873Z</time></trkpt><trkpt lat="44.0390357" lon="5.6480865"><ele>784.0</ele><time>2026-04-10T08:24:20.88Z</time></trkpt><trkpt lat="44.0389545" lon="5.6479961"><ele>784.0</ele><time>2026-04-10T08:24:22.875Z</time></trkpt><trkpt lat="44.0388918" lon="5.6479589"><ele>783.9999999999999</ele><time>2026-04-10T08:24:23.877Z</time></trkpt><trkpt lat="44.0388274" lon="5.6479008"><ele>784.0</ele><time>2026-04-10T08:24:24.874Z</time></trkpt><trkpt lat="44.0387421" lon="5.6477678"><ele>778.3333333333333</ele><time>2026-04-10T08:24:25.873Z</time></trkpt><trkpt lat="44.0386525" lon="5.6476165"><ele>772.6666666666666</ele><time>2026-04-10T08:24:26.874Z</time></trkpt><trkpt lat="44.0385517" lon="5.6474399"><ele>767.0</ele><time>2026-04-10T08:24:27.877Z</time></trkpt><trkpt lat="44.0384607" lon="5.6472791"><ele>767.0</ele><time>2026-04-10T08:24:28.872Z</time></trkpt><trkpt lat="44.0383754" lon="5.6471198"><ele>767.0</ele><time>2026-04-10T08:24:29.873Z</time></trkpt><trkpt lat="44.0383024" lon="5.6469543"><ele>767.0</ele><time>2026-04-10T08:24:30.873Z</time></trkpt><trkpt lat="44.0382252" lon="5.6467803"><ele>767.0</ele><time>2026-04-10T08:24:31.874Z</time></trkpt><trkpt lat="44.0381378" lon="5.6466105"><ele>768.0</ele><time>2026-04-10T08:24:32.876Z</time></trkpt><trkpt lat="44.0380616" lon="5.6464302"><ele>769.0</ele><time>2026-04-10T08:24:33.879Z</time></trkpt><trkpt lat="44.0379864" lon="5.6462486"><ele>770.0</ele><time>2026-04-10T08:24:34.873Z</time></trkpt><trkpt lat="44.037914" lon="5.6460751"><ele>771.0</ele><time>2026-04-10T08:24:35.875Z</time></trkpt><trkpt lat="44.0378326" lon="5.6459047"><ele>766.0</ele><time>2026-04-10T08:24:36.898Z</time></trkpt><trkpt lat="44.0377326" lon="5.6457312"><ele>761.0</ele><time>2026-04-10T08:24:37.88Z</time></trkpt><trkpt lat="44.0376372" lon="5.6455472"><ele>756.0</ele><time>2026-04-10T08:24:38.873Z</time></trkpt><trkpt lat="44.037545" lon="5.6453702"><ele>755.25</ele><time>2026-04-10T08:24:39.872Z</time></trkpt><trkpt lat="44.0374389" lon="5.6452191"><ele>754.5</ele><time>2026-04-10T08:24:40.874Z</time></trkpt><trkpt lat="44.0373329" lon="5.6450689"><ele>753.75</ele><time>2026-04-10T08:24:41.874Z</time></trkpt><trkpt lat="44.0372292" lon="5.6449431"><ele>753.0</ele><time>2026-04-10T08:24:42.875Z</time></trkpt><trkpt lat="44.0371389" lon="5.6448171"><ele>753.0</ele><time>2026-04-10T08:24:43.878Z</time></trkpt><trkpt lat="44.0370714" lon="5.6447082"><ele>753.0</ele><time>2026-04-10T08:24:44.874Z</time></trkpt><trkpt lat="44.0369962" lon="5.644622"><ele>753.0</ele><time>2026-04-10T08:24:45.88Z</time></trkpt><trkpt lat="44.0369227" lon="5.6445371"><ele>753.0</ele><time>2026-04-10T08:24:46.883Z</time></trkpt><trkpt lat="44.036836" lon="5.6444659"><ele>753.0</ele><time>2026-04-10T08:24:48.876Z</time></trkpt><trkpt lat="44.0368475" lon="5.6443736"><ele>749.2</ele><time>2026-04-10T08:24:50.884Z</time></trkpt><trkpt lat="44.0369358" lon="5.6443457"><ele>745.4</ele><time>2026-04-10T08:24:52.875Z</time></trkpt><trkpt lat="44.0370135" lon="5.6443472"><ele>741.6</ele><time>2026-04-10T08:24:53.879Z</time></trkpt><trkpt lat="44.0371085" lon="5.6443507"><ele>737.8000000000001</ele><time>2026-04-10T08:24:54.874Z</time></trkpt><trkpt lat="44.0372111" lon="5.6443348"><ele>734.0</ele><time>2026-04-10T08:24:55.875Z</time></trkpt><trkpt lat="44.0373165" lon="5.6442957"><ele>734.0</ele><time>2026-04-10T08:24:56.873Z</time></trkpt><trkpt lat="44.0374141" lon="5.6442502"><ele>734.0</ele><time>2026-04-10T08:24:57.872Z</time></trkpt><trkpt lat="44.0375043" lon="5.6442093"><ele>734.0</ele><time>2026-04-10T08:24:58.873Z</time></trkpt><trkpt lat="44.0375934" lon="5.6441748"><ele>734.0</ele><time>2026-04-10T08:24:59.877Z</time></trkpt><trkpt lat="44.0376829" lon="5.6441433"><ele>734.0</ele><time>2026-04-10T08:25:00.873Z</time></trkpt><trkpt lat="44.0377511" lon="5.6440916"><ele>732.8000000000001</ele><time>2026-04-10T08:25:01.871Z</time></trkpt><trkpt lat="44.0378207" lon="5.644017"><ele>731.6</ele><time>2026-04-10T08:25:02.872Z</time></trkpt><trkpt lat="44.0378705" lon="5.6439205"><ele>730.4</ele><time>2026-04-10T08:25:03.877Z</time></trkpt><trkpt lat="44.0379051" lon="5.6437969"><ele>729.2</ele><time>2026-04-10T08:25:04.875Z</time></trkpt><trkpt lat="44.0379388" lon="5.6436509"><ele>728.0</ele><time>2026-04-10T08:25:05.874Z</time></trkpt><trkpt lat="44.0379659" lon="5.6434823"><ele>726.75</ele><time>2026-04-10T08:25:06.875Z</time></trkpt><trkpt lat="44.0379828" lon="5.6433017"><ele>725.5</ele><time>2026-04-10T08:25:07.881Z</time></trkpt><trkpt lat="44.0379997" lon="5.6431229"><ele>724.25</ele><time>2026-04-10T08:25:08.876Z</time></trkpt><trkpt lat="44.0380184" lon="5.64295"><ele>723.0</ele><time>2026-04-10T08:25:09.872Z</time></trkpt><trkpt lat="44.0380454" lon="5.6427759"><ele>722.25</ele><time>2026-04-10T08:25:10.876Z</time></trkpt><trkpt lat="44.0380669" lon="5.6425933"><ele>721.5</ele><time>2026-04-10T08:25:11.872Z</time></trkpt><trkpt lat="44.0380849" lon="5.6424113"><ele>720.75</ele><time>2026-04-10T08:25:12.881Z</time></trkpt><trkpt lat="44.0381022" lon="5.6422338"><ele>720.0</ele><time>2026-04-10T08:25:13.877Z</time></trkpt><trkpt lat="44.0381279" lon="5.6420579"><ele>720.0</ele><time>2026-04-10T08:25:14.876Z</time></trkpt><trkpt lat="44.0381401" lon="5.6418859"><ele>720.0</ele><time>2026-04-10T08:25:15.877Z</time></trkpt><trkpt lat="44.0381568" lon="5.6417108"><ele>720.0</ele><time>2026-04-10T08:25:16.874Z</time></trkpt><trkpt lat="44.038177" lon="5.6415364"><ele>720.0</ele><time>2026-04-10T08:25:17.878Z</time></trkpt><trkpt lat="44.03819" lon="5.6413599"><ele>720.0</ele><time>2026-04-10T08:25:18.874Z</time></trkpt><trkpt lat="44.0382024" lon="5.6411911"><ele>720.0</ele><time>2026-04-10T08:25:19.879Z</time></trkpt><trkpt lat="44.0382155" lon="5.6410223"><ele>720.0</ele><time>2026-04-10T08:25:20.875Z</time></trkpt><trkpt lat="44.0382289" lon="5.6408551"><ele>720.0</ele><time>2026-04-10T08:25:21.875Z</time></trkpt><trkpt lat="44.0382481" lon="5.6406909"><ele>720.8</ele><time>2026-04-10T08:25:22.879Z</time></trkpt><trkpt lat="44.0382637" lon="5.640536"><ele>721.6</ele><time>2026-04-10T08:25:23.875Z</time></trkpt><trkpt lat="44.0382766" lon="5.6403795"><ele>722.4000000000001</ele><time>2026-04-10T08:25:24.876Z</time></trkpt><trkpt lat="44.0382971" lon="5.6402302"><ele>723.2</ele><time>2026-04-10T08:25:25.876Z</time></trkpt><trkpt lat="44.0383133" lon="5.6400794"><ele>724.0</ele><time>2026-04-10T08:25:26.875Z</time></trkpt><trkpt lat="44.0383243" lon="5.6399272"><ele>725.0</ele><time>2026-04-10T08:25:27.878Z</time></trkpt><trkpt lat="44.0383445" lon="5.6397727"><ele>726.0</ele><time>2026-04-10T08:25:28.876Z</time></trkpt><trkpt lat="44.038356" lon="5.6396188"><ele>727.0</ele><time>2026-04-10T08:25:29.874Z</time></trkpt><trkpt lat="44.0383754" lon="5.6394634"><ele>728.0</ele><time>2026-04-10T08:25:30.873Z</time></trkpt><trkpt lat="44.0383925" lon="5.6393005"><ele>728.75</ele><time>2026-04-10T08:25:31.876Z</time></trkpt><trkpt lat="44.0384113" lon="5.6391364"><ele>729.5</ele><time>2026-04-10T08:25:32.878Z</time></trkpt><trkpt lat="44.0384258" lon="5.6389712"><ele>730.25</ele><time>2026-04-10T08:25:33.872Z</time></trkpt><trkpt lat="44.0384447" lon="5.6387982"><ele>731.0</ele><time>2026-04-10T08:25:34.874Z</time></trkpt><trkpt lat="44.0384635" lon="5.6386347"><ele>732.25</ele><time>2026-04-10T08:25:35.874Z</time></trkpt><trkpt lat="44.0384838" lon="5.6384689"><ele>733.5</ele><time>2026-04-10T08:25:36.879Z</time></trkpt><trkpt lat="44.0384972" lon="5.6383061"><ele>734.75</ele><time>2026-04-10T08:25:37.876Z</time></trkpt><trkpt lat="44.0385111" lon="5.6381397"><ele>736.0</ele><time>2026-04-10T08:25:38.879Z</time></trkpt><trkpt lat="44.0385295" lon="5.6379799"><ele>736.0</ele><time>2026-04-10T08:25:39.88Z</time></trkpt><trkpt lat="44.0385407" lon="5.6378247"><ele>736.0</ele><time>2026-04-10T08:25:40.874Z</time></trkpt><trkpt lat="44.0385463" lon="5.6376758"><ele>736.0</ele><time>2026-04-10T08:25:41.875Z</time></trkpt><trkpt lat="44.0385572" lon="5.6375496"><ele>736.0</ele><time>2026-04-10T08:25:42.876Z</time></trkpt><trkpt lat="44.0385741" lon="5.6374378"><ele>736.0</ele><time>2026-04-10T08:25:43.882Z</time></trkpt><trkpt lat="44.0385783" lon="5.63734"><ele>736.5</ele><time>2026-04-10T08:25:44.876Z</time></trkpt><trkpt lat="44.0385888" lon="5.6372088"><ele>737.0</ele><time>2026-04-10T08:25:46.88Z</time></trkpt><trkpt lat="44.0385923" lon="5.6370892"><ele>737.5</ele><time>2026-04-10T08:25:49.876Z</time></trkpt><trkpt lat="44.0385594" lon="5.6369455"><ele>738.0</ele><time>2026-04-10T08:25:51.873Z</time></trkpt><trkpt lat="44.0385476" lon="5.6368437"><ele>738.5</ele><time>2026-04-10T08:25:52.876Z</time></trkpt><trkpt lat="44.0385376" lon="5.6367321"><ele>739.0</ele><time>2026-04-10T08:25:53.873Z</time></trkpt><trkpt lat="44.0385422" lon="5.6366029"><ele>740.6</ele><time>2026-04-10T08:25:54.874Z</time></trkpt><trkpt lat="44.0385615" lon="5.6364742"><ele>742.2</ele><time>2026-04-10T08:25:55.877Z</time></trkpt><trkpt lat="44.0385722" lon="5.636334"><ele>743.8000000000001</ele><time>2026-04-10T08:25:56.875Z</time></trkpt><trkpt lat="44.0385993" lon="5.6362019"><ele>745.4000000000001</ele><time>2026-04-10T08:25:57.873Z</time></trkpt><trkpt lat="44.03863" lon="5.6360771"><ele>747.0</ele><time>2026-04-10T08:25:58.879Z</time></trkpt><trkpt lat="44.0386549" lon="5.6359558"><ele>748.0</ele><time>2026-04-10T08:25:59.872Z</time></trkpt><trkpt lat="44.0386853" lon="5.6358241"><ele>749.0</ele><time>2026-04-10T08:26:00.875Z</time></trkpt><trkpt lat="44.0387206" lon="5.6356826"><ele>750.0</ele><time>2026-04-10T08:26:01.874Z</time></trkpt><trkpt lat="44.0387411" lon="5.6355498"><ele>751.0</ele><time>2026-04-10T08:26:02.875Z</time></trkpt><trkpt lat="44.0387609" lon="5.635433"><ele>752.0</ele><time>2026-04-10T08:26:03.874Z</time></trkpt><trkpt lat="44.0387822" lon="5.6352982"><ele>752.6</ele><time>2026-04-10T08:26:04.876Z</time></trkpt><trkpt lat="44.0387962" lon="5.6351741"><ele>753.2</ele><time>2026-04-10T08:26:05.873Z</time></trkpt><trkpt lat="44.0388178" lon="5.6350466"><ele>753.8</ele><time>2026-04-10T08:26:06.875Z</time></trkpt><trkpt lat="44.0388447" lon="5.6349083"><ele>754.4</ele><time>2026-04-10T08:26:07.875Z</time></trkpt><trkpt lat="44.0388629" lon="5.6347673"><ele>755.0</ele><time>2026-04-10T08:26:08.88Z</time></trkpt><trkpt lat="44.03888" lon="5.6346205"><ele>755.0</ele><time>2026-04-10T08:26:09.874Z</time></trkpt><trkpt lat="44.0388983" lon="5.6344871"><ele>755.0</ele><time>2026-04-10T08:26:10.879Z</time></trkpt><trkpt lat="44.0389228" lon="5.6343481"><ele>755.0</ele><time>2026-04-10T08:26:11.877Z</time></trkpt><trkpt lat="44.0389448" lon="5.6342244"><ele>755.0</ele><time>2026-04-10T08:26:12.873Z</time></trkpt><trkpt lat="44.0389682" lon="5.634089"><ele>755.0</ele><time>2026-04-10T08:26:13.877Z</time></trkpt><trkpt lat="44.0389934" lon="5.6339471"><ele>755.8</ele><time>2026-04-10T08:26:14.876Z</time></trkpt><trkpt lat="44.0390227" lon="5.6338146"><ele>756.6</ele><time>2026-04-10T08:26:15.875Z</time></trkpt><trkpt lat="44.0390551" lon="5.6336845"><ele>757.4000000000001</ele><time>2026-04-10T08:26:16.877Z</time></trkpt><trkpt lat="44.0390916" lon="5.6335509"><ele>758.2</ele><time>2026-04-10T08:26:17.883Z</time></trkpt><trkpt lat="44.0391311" lon="5.6334333"><ele>759.0</ele><time>2026-04-10T08:26:18.876Z</time></trkpt><trkpt lat="44.0391636" lon="5.6333328"><ele>760.2857142857142</ele><time>2026-04-10T08:26:19.874Z</time></trkpt><trkpt lat="44.0391874" lon="5.6332386"><ele>761.5714285714286</ele><time>2026-04-10T08:26:20.878Z</time></trkpt><trkpt lat="44.0392017" lon="5.6331442"><ele>762.8571428571429</ele><time>2026-04-10T08:26:21.873Z</time></trkpt><trkpt lat="44.0392032" lon="5.6330507"><ele>764.1428571428571</ele><time>2026-04-10T08:26:22.874Z</time></trkpt><trkpt lat="44.0391815" lon="5.6329653"><ele>765.4285714285714</ele><time>2026-04-10T08:26:23.873Z</time></trkpt><trkpt lat="44.0391542" lon="5.6328704"><ele>766.7142857142857</ele><time>2026-04-10T08:26:24.888Z</time></trkpt><trkpt lat="44.0391279" lon="5.632764"><ele>768.0</ele><time>2026-04-10T08:26:25.883Z</time></trkpt><trkpt lat="44.0390891" lon="5.6326613"><ele>768.5</ele><time>2026-04-10T08:26:26.875Z</time></trkpt><trkpt lat="44.0390538" lon="5.6325571"><ele>769.0</ele><time>2026-04-10T08:26:27.884Z</time></trkpt><trkpt lat="44.0390153" lon="5.6324458"><ele>769.5</ele><time>2026-04-10T08:26:28.875Z</time></trkpt><trkpt lat="44.0389694" lon="5.6323277"><ele>770.0</ele><time>2026-04-10T08:26:29.877Z</time></trkpt><trkpt lat="44.0389325" lon="5.6322162"><ele>770.5</ele><time>2026-04-10T08:26:30.882Z</time></trkpt><trkpt lat="44.0389025" lon="5.6321109"><ele>771.0</ele><time>2026-04-10T08:26:31.883Z</time></trkpt><trkpt lat="44.0388543" lon="5.631972"><ele>772.1666666666666</ele><time>2026-04-10T08:26:32.873Z</time></trkpt><trkpt lat="44.0388225" lon="5.6318613"><ele>773.3333333333333</ele><time>2026-04-10T08:26:33.875Z</time></trkpt><trkpt lat="44.0387852" lon="5.6317397"><ele>774.5</ele><time>2026-04-10T08:26:34.872Z</time></trkpt><trkpt lat="44.0387594" lon="5.6316218"><ele>775.6666666666666</ele><time>2026-04-10T08:26:35.883Z</time></trkpt><trkpt lat="44.0387405" lon="5.6315007"><ele>776.8333333333333</ele><time>2026-04-10T08:26:36.892Z</time></trkpt><trkpt lat="44.0387284" lon="5.6313858"><ele>778.0</ele><time>2026-04-10T08:26:37.888Z</time></trkpt><trkpt lat="44.0387159" lon="5.6312498"><ele>778.9999999999999</ele><time>2026-04-10T08:26:38.886Z</time></trkpt><trkpt lat="44.038727" lon="5.6311354"><ele>780.0</ele><time>2026-04-10T08:26:39.882Z</time></trkpt><trkpt lat="44.0387305" lon="5.6309952"><ele>781.0</ele><time>2026-04-10T08:26:40.876Z</time></trkpt><trkpt lat="44.0387334" lon="5.6308693"><ele>782.0</ele><time>2026-04-10T08:26:41.873Z</time></trkpt><trkpt lat="44.0387401" lon="5.6307529"><ele>782.9999999999999</ele><time>2026-04-10T08:26:42.881Z</time></trkpt><trkpt lat="44.0387402" lon="5.6306303"><ele>784.0</ele><time>2026-04-10T08:26:43.879Z</time></trkpt><trkpt lat="44.0387563" lon="5.6305067"><ele>783.9999999999999</ele><time>2026-04-10T08:26:44.882Z</time></trkpt><trkpt lat="44.03877" lon="5.6303843"><ele>784.0</ele><time>2026-04-10T08:26:45.875Z</time></trkpt><trkpt lat="44.0387768" lon="5.6302579"><ele>784.0</ele><time>2026-04-10T08:26:46.873Z</time></trkpt><trkpt lat="44.038774" lon="5.6301414"><ele>784.0</ele><time>2026-04-10T08:26:47.872Z</time></trkpt><trkpt lat="44.0387776" lon="5.6300307"><ele>783.9999999999999</ele><time>2026-04-10T08:26:48.873Z</time></trkpt><trkpt lat="44.0388009" lon="5.6299207"><ele>784.0</ele><time>2026-04-10T08:26:50.876Z</time></trkpt><trkpt lat="44.0387563" lon="5.6298343"><ele>784.1666666666666</ele><time>2026-04-10T08:26:53.876Z</time></trkpt><trkpt lat="44.0386834" lon="5.6298695"><ele>784.3333333333333</ele><time>2026-04-10T08:26:58.878Z</time></trkpt><trkpt lat="44.0385978" lon="5.6299245"><ele>784.5</ele><time>2026-04-10T08:27:01.878Z</time></trkpt><trkpt lat="44.0385359" lon="5.6299564"><ele>784.6666666666667</ele><time>2026-04-10T08:27:03.881Z</time></trkpt><trkpt lat="44.0384691" lon="5.630005"><ele>784.8333333333334</ele><time>2026-04-10T08:27:06.88Z</time></trkpt><trkpt lat="44.0383848" lon="5.6300582"><ele>785.0</ele><time>2026-04-10T08:27:14.886Z</time></trkpt><trkpt lat="44.0382963" lon="5.6300627"><ele>785.0</ele><time>2026-04-10T08:27:15.887Z</time></trkpt><trkpt lat="44.0382424" lon="5.6301137"><ele>785.0</ele><time>2026-04-10T08:27:16.877Z</time></trkpt><trkpt lat="44.0381449" lon="5.630159"><ele>785.0</ele><time>2026-04-10T08:27:18.88Z</time></trkpt><trkpt lat="44.0380371" lon="5.6301566"><ele>785.0</ele><time>2026-04-10T08:27:20.873Z</time></trkpt><trkpt lat="44.0379316" lon="5.6301634"><ele>785.0</ele><time>2026-04-10T08:27:22.878Z</time></trkpt><trkpt lat="44.0378529" lon="5.6301463"><ele>785.0</ele><time>2026-04-10T08:27:24.876Z</time></trkpt><trkpt lat="44.0377838" lon="5.6301602"><ele>785.0</ele><time>2026-04-10T08:27:25.874Z</time></trkpt><trkpt lat="44.0377024" lon="5.6301647"><ele>785.0</ele><time>2026-04-10T08:27:26.877Z</time></trkpt><trkpt lat="44.0376429" lon="5.630134"><ele>785.0</ele><time>2026-04-10T08:27:27.876Z</time></trkpt><trkpt lat="44.0375774" lon="5.6301292"><ele>785.0</ele><time>2026-04-10T08:27:28.878Z</time></trkpt><trkpt lat="44.0375105" lon="5.6301064"><ele>785.0</ele><time>2026-04-10T08:27:29.873Z</time></trkpt><trkpt lat="44.0374481" lon="5.6300854"><ele>785.0</ele><time>2026-04-10T08:27:30.875Z</time></trkpt><trkpt lat="44.03738" lon="5.6300712"><ele>783.8333333333334</ele><time>2026-04-10T08:27:31.874Z</time></trkpt><trkpt lat="44.0373074" lon="5.6300489"><ele>782.6666666666667</ele><time>2026-04-10T08:27:32.88Z</time></trkpt><trkpt lat="44.0372276" lon="5.6300155"><ele>781.5</ele><time>2026-04-10T08:27:33.88Z</time></trkpt><trkpt lat="44.0371564" lon="5.6299812"><ele>780.3333333333333</ele><time>2026-04-10T08:27:34.873Z</time></trkpt><trkpt lat="44.0370767" lon="5.6299559"><ele>779.1666666666666</ele><time>2026-04-10T08:27:35.88Z</time></trkpt><trkpt lat="44.0369867" lon="5.6299282"><ele>778.0</ele><time>2026-04-10T08:27:36.878Z</time></trkpt><trkpt lat="44.036913" lon="5.6299038"><ele>777.9999999999999</ele><time>2026-04-10T08:27:37.877Z</time></trkpt><trkpt lat="44.036841" lon="5.6298764"><ele>778.0</ele><time>2026-04-10T08:27:38.873Z</time></trkpt><trkpt lat="44.0367666" lon="5.6298533"><ele>778.0</ele><time>2026-04-10T08:27:39.879Z</time></trkpt><trkpt lat="44.036693" lon="5.6298159"><ele>778.0</ele><time>2026-04-10T08:27:40.876Z</time></trkpt><trkpt lat="44.0366279" lon="5.6297593"><ele>777.9999999999999</ele><time>2026-04-10T08:27:41.874Z</time></trkpt><trkpt lat="44.0365656" lon="5.6296808"><ele>778.0</ele><time>2026-04-10T08:27:42.877Z</time></trkpt><trkpt lat="44.0365047" lon="5.6296042"><ele>776.3333333333333</ele><time>2026-04-10T08:27:43.874Z</time></trkpt><trkpt lat="44.0364763" lon="5.6294644"><ele>774.6666666666666</ele><time>2026-04-10T08:27:44.879Z</time></trkpt><trkpt lat="44.0364547" lon="5.6293362"><ele>773.0</ele><time>2026-04-10T08:27:45.876Z</time></trkpt><trkpt lat="44.0364461" lon="5.629215"><ele>771.3333333333333</ele><time>2026-04-10T08:27:46.876Z</time></trkpt><trkpt lat="44.0364377" lon="5.629112"><ele>769.6666666666666</ele><time>2026-04-10T08:27:47.873Z</time></trkpt><trkpt lat="44.0364304" lon="5.6290103"><ele>768.0</ele><time>2026-04-10T08:27:48.876Z</time></trkpt><trkpt lat="44.0364384" lon="5.6289144"><ele>768.0</ele><time>2026-04-10T08:27:49.876Z</time></trkpt><trkpt lat="44.0364247" lon="5.6287916"><ele>768.0</ele><time>2026-04-10T08:27:50.875Z</time></trkpt><trkpt lat="44.0364164" lon="5.6286801"><ele>768.0</ele><time>2026-04-10T08:27:51.874Z</time></trkpt><trkpt lat="44.0364087" lon="5.6285822"><ele>768.0</ele><time>2026-04-10T08:27:52.875Z</time></trkpt><trkpt lat="44.0363799" lon="5.6284519"><ele>768.0</ele><time>2026-04-10T08:27:54.875Z</time></trkpt><trkpt lat="44.0363842" lon="5.6283465"><ele>768.0</ele><time>2026-04-10T08:28:04.873Z</time></trkpt><trkpt lat="44.0363657" lon="5.6282146"><ele>768.0</ele><time>2026-04-10T08:28:32.874Z</time></trkpt><trkpt lat="44.0362618" lon="5.6281391"><ele>768.0</ele><time>2026-04-10T08:28:34.873Z</time></trkpt><trkpt lat="44.0361793" lon="5.6280596"><ele>768.0</ele><time>2026-04-10T08:28:36.875Z</time></trkpt><trkpt lat="44.0361006" lon="5.6279697"><ele>768.0</ele><time>2026-04-10T08:28:38.875Z</time></trkpt><trkpt lat="44.0360561" lon="5.6278605"><ele>768.0</ele><time>2026-04-10T08:28:40.877Z</time></trkpt><trkpt lat="44.0360207" lon="5.6277663"><ele>768.5999999999999</ele><time>2026-04-10T08:28:42.874Z</time></trkpt><trkpt lat="44.0360834" lon="5.6277403"><ele>769.1999999999999</ele><time>2026-04-10T08:29:02.874Z</time></trkpt><trkpt lat="44.035998" lon="5.6277512"><ele>769.8</ele><time>2026-04-10T08:29:11.872Z</time></trkpt><trkpt lat="44.0360569" lon="5.6277037"><ele>770.4</ele><time>2026-04-10T08:29:28.871Z</time></trkpt><trkpt lat="44.0359858" lon="5.6277284"><ele>771.0</ele><time>2026-04-10T08:31:11.882Z</time></trkpt><trkpt lat="44.0359069" lon="5.6275364"><ele>771.0</ele><time>2026-04-10T08:32:11.883Z</time></trkpt><trkpt lat="44.0358892" lon="5.6274447"><ele>771.0</ele><time>2026-04-10T08:32:12.872Z</time></trkpt><trkpt lat="44.0358563" lon="5.627345"><ele>771.0</ele><time>2026-04-10T08:32:13.878Z</time></trkpt><trkpt lat="44.0358273" lon="5.6272499"><ele>771.0</ele><time>2026-04-10T08:32:14.874Z</time></trkpt><trkpt lat="44.0358094" lon="5.6270904"><ele>771.0</ele><time>2026-04-10T08:32:16.878Z</time></trkpt><trkpt lat="44.0358391" lon="5.6269901"><ele>771.0</ele><time>2026-04-10T08:32:17.878Z</time></trkpt><trkpt lat="44.0358633" lon="5.6268946"><ele>771.5</ele><time>2026-04-10T08:32:18.874Z</time></trkpt><trkpt lat="44.0358954" lon="5.6267907"><ele>772.0</ele><time>2026-04-10T08:32:19.874Z</time></trkpt><trkpt lat="44.0359344" lon="5.6266973"><ele>772.5</ele><time>2026-04-10T08:32:20.876Z</time></trkpt><trkpt lat="44.0359662" lon="5.6266209"><ele>773.0</ele><time>2026-04-10T08:32:21.872Z</time></trkpt><trkpt lat="44.036021" lon="5.626548"><ele>773.5</ele><time>2026-04-10T08:32:22.875Z</time></trkpt><trkpt lat="44.0360705" lon="5.626463"><ele>774.0</ele><time>2026-04-10T08:32:23.873Z</time></trkpt><trkpt lat="44.036117" lon="5.6263714"><ele>774.0</ele><time>2026-04-10T08:32:24.872Z</time></trkpt><trkpt lat="44.0361594" lon="5.6262944"><ele>774.0</ele><time>2026-04-10T08:32:25.874Z</time></trkpt><trkpt lat="44.0361999" lon="5.626218"><ele>774.0</ele><time>2026-04-10T08:32:26.872Z</time></trkpt><trkpt lat="44.0362334" lon="5.6261339"><ele>774.0</ele><time>2026-04-10T08:32:27.877Z</time></trkpt><trkpt lat="44.0362698" lon="5.6260501"><ele>774.0</ele><time>2026-04-10T08:32:28.873Z</time></trkpt><trkpt lat="44.0363111" lon="5.6259638"><ele>774.0</ele><time>2026-04-10T08:32:29.873Z</time></trkpt><trkpt lat="44.0363537" lon="5.6258742"><ele>774.0</ele><time>2026-04-10T08:32:30.872Z</time></trkpt><trkpt lat="44.0363965" lon="5.6257848"><ele>775.8333333333334</ele><time>2026-04-10T08:32:31.871Z</time></trkpt><trkpt lat="44.0364363" lon="5.6257096"><ele>777.6666666666667</ele><time>2026-04-10T08:32:32.873Z</time></trkpt><trkpt lat="44.0364885" lon="5.6255706"><ele>779.5</ele><time>2026-04-10T08:32:34.879Z</time></trkpt><trkpt lat="44.0365076" lon="5.6254862"><ele>781.3333333333334</ele><time>2026-04-10T08:32:36.872Z</time></trkpt><trkpt lat="44.0364141" lon="5.6254257"><ele>783.1666666666667</ele><time>2026-04-10T08:32:39.872Z</time></trkpt><trkpt lat="44.0363385" lon="5.6254753"><ele>785.0</ele><time>2026-04-10T08:32:41.882Z</time></trkpt><trkpt lat="44.0362217" lon="5.6255435"><ele>785.0</ele><time>2026-04-10T08:32:43.877Z</time></trkpt><trkpt lat="44.0361402" lon="5.625568"><ele>785.0</ele><time>2026-04-10T08:32:44.874Z</time></trkpt><trkpt lat="44.036067" lon="5.6256121"><ele>785.0</ele><time>2026-04-10T08:32:45.876Z</time></trkpt><trkpt lat="44.0359762" lon="5.6256689"><ele>785.0</ele><time>2026-04-10T08:32:46.887Z</time></trkpt><trkpt lat="44.0358874" lon="5.6257285"><ele>785.0</ele><time>2026-04-10T08:32:47.878Z</time></trkpt><trkpt lat="44.0357966" lon="5.6257815"><ele>788.5000000000001</ele><time>2026-04-10T08:32:48.874Z</time></trkpt><trkpt lat="44.035709" lon="5.625816"><ele>792.0</ele><time>2026-04-10T08:32:49.871Z</time></trkpt><trkpt lat="44.0356257" lon="5.6258463"><ele>795.5</ele><time>2026-04-10T08:32:50.876Z</time></trkpt><trkpt lat="44.0355476" lon="5.6259004"><ele>799.0</ele><time>2026-04-10T08:32:51.88Z</time></trkpt><trkpt lat="44.0354749" lon="5.625963"><ele>802.5000000000001</ele><time>2026-04-10T08:32:52.876Z</time></trkpt><trkpt lat="44.0354106" lon="5.6260228"><ele>806.0</ele><time>2026-04-10T08:32:53.872Z</time></trkpt><trkpt lat="44.0353507" lon="5.6260632"><ele>806.0000000000001</ele><time>2026-04-10T08:32:54.876Z</time></trkpt><trkpt lat="44.0352417" lon="5.6261233"><ele>806.0</ele><time>2026-04-10T08:32:56.876Z</time></trkpt><trkpt lat="44.0351754" lon="5.6261413"><ele>806.0</ele><time>2026-04-10T08:32:57.875Z</time></trkpt><trkpt lat="44.0350996" lon="5.6261631"><ele>806.0</ele><time>2026-04-10T08:32:58.874Z</time></trkpt><trkpt lat="44.0350262" lon="5.6261887"><ele>806.0000000000001</ele><time>2026-04-10T08:32:59.874Z</time></trkpt><trkpt lat="44.0349487" lon="5.6262135"><ele>806.0</ele><time>2026-04-10T08:33:00.875Z</time></trkpt><trkpt lat="44.0348716" lon="5.6262359"><ele>800.8333333333334</ele><time>2026-04-10T08:33:01.875Z</time></trkpt><trkpt lat="44.0347928" lon="5.6262421"><ele>795.6666666666667</ele><time>2026-04-10T08:33:02.872Z</time></trkpt><trkpt lat="44.0347085" lon="5.6262396"><ele>790.5</ele><time>2026-04-10T08:33:03.873Z</time></trkpt><trkpt lat="44.0346228" lon="5.6262227"><ele>785.3333333333333</ele><time>2026-04-10T08:33:04.877Z</time></trkpt><trkpt lat="44.0345337" lon="5.6262032"><ele>780.1666666666666</ele><time>2026-04-10T08:33:05.872Z</time></trkpt><trkpt lat="44.0344437" lon="5.6261844"><ele>775.0</ele><time>2026-04-10T08:33:06.873Z</time></trkpt><trkpt lat="44.0343583" lon="5.6261676"><ele>774.9999999999999</ele><time>2026-04-10T08:33:07.875Z</time></trkpt><trkpt lat="44.0342769" lon="5.6261484"><ele>775.0</ele><time>2026-04-10T08:33:08.875Z</time></trkpt><trkpt lat="44.0341972" lon="5.6261254"><ele>775.0</ele><time>2026-04-10T08:33:09.874Z</time></trkpt><trkpt lat="44.0341166" lon="5.626101"><ele>775.0</ele><time>2026-04-10T08:33:10.874Z</time></trkpt><trkpt lat="44.0340368" lon="5.626069"><ele>774.9999999999999</ele><time>2026-04-10T08:33:11.874Z</time></trkpt><trkpt lat="44.0339593" lon="5.6260279"><ele>775.0</ele><time>2026-04-10T08:33:12.879Z</time></trkpt><trkpt lat="44.0338767" lon="5.6259846"><ele>780.1666666666666</ele><time>2026-04-10T08:33:13.876Z</time></trkpt><trkpt lat="44.0337966" lon="5.6259438"><ele>785.3333333333333</ele><time>2026-04-10T08:33:14.874Z</time></trkpt><trkpt lat="44.0337131" lon="5.625906"><ele>790.5</ele><time>2026-04-10T08:33:15.875Z</time></trkpt><trkpt lat="44.0336227" lon="5.6258733"><ele>795.6666666666667</ele><time>2026-04-10T08:33:16.875Z</time></trkpt><trkpt lat="44.0335487" lon="5.625842"><ele>800.8333333333334</ele><time>2026-04-10T08:33:17.877Z</time></trkpt><trkpt lat="44.0334762" lon="5.6258086"><ele>806.0</ele><time>2026-04-10T08:33:18.876Z</time></trkpt><trkpt lat="44.0333976" lon="5.6257754"><ele>806.0000000000001</ele><time>2026-04-10T08:33:19.878Z</time></trkpt><trkpt lat="44.0333201" lon="5.6257302"><ele>806.0</ele><time>2026-04-10T08:33:20.872Z</time></trkpt><trkpt lat="44.0332345" lon="5.6256934"><ele>806.0</ele><time>2026-04-10T08:33:21.875Z</time></trkpt><trkpt lat="44.0331642" lon="5.6256514"><ele>806.0</ele><time>2026-04-10T08:33:22.873Z</time></trkpt><trkpt lat="44.0330928" lon="5.6256066"><ele>806.0000000000001</ele><time>2026-04-10T08:33:23.872Z</time></trkpt><trkpt lat="44.0330228" lon="5.6255525"><ele>806.0</ele><time>2026-04-10T08:33:24.874Z</time></trkpt><trkpt lat="44.0329621" lon="5.6254892"><ele>804.0</ele><time>2026-04-10T08:33:25.875Z</time></trkpt><trkpt lat="44.0328849" lon="5.6254394"><ele>802.0</ele><time>2026-04-10T08:33:26.88Z</time></trkpt><trkpt lat="44.0327938" lon="5.6253716"><ele>800.0</ele><time>2026-04-10T08:33:27.877Z</time></trkpt><trkpt lat="44.0327039" lon="5.6253126"><ele>798.0</ele><time>2026-04-10T08:33:28.885Z</time></trkpt><trkpt lat="44.0326124" lon="5.6252521"><ele>796.0</ele><time>2026-04-10T08:33:29.872Z</time></trkpt><trkpt lat="44.0325178" lon="5.625187"><ele>801.0</ele><time>2026-04-10T08:33:30.873Z</time></trkpt><trkpt lat="44.0324195" lon="5.6251252"><ele>806.0</ele><time>2026-04-10T08:33:31.872Z</time></trkpt><trkpt lat="44.0323291" lon="5.6250577"><ele>811.0</ele><time>2026-04-10T08:33:32.875Z</time></trkpt><trkpt lat="44.0322509" lon="5.6249914"><ele>816.0</ele><time>2026-04-10T08:33:33.876Z</time></trkpt><trkpt lat="44.0321774" lon="5.6249268"><ele>821.0</ele><time>2026-04-10T08:33:34.88Z</time></trkpt><trkpt lat="44.0321008" lon="5.6248637"><ele>821.0000000000001</ele><time>2026-04-10T08:33:35.873Z</time></trkpt><trkpt lat="44.0320235" lon="5.6247974"><ele>821.0</ele><time>2026-04-10T08:33:36.873Z</time></trkpt><trkpt lat="44.0319676" lon="5.6247197"><ele>821.0</ele><time>2026-04-10T08:33:37.874Z</time></trkpt><trkpt lat="44.0319227" lon="5.6246433"><ele>821.0</ele><time>2026-04-10T08:33:38.876Z</time></trkpt><trkpt lat="44.0318919" lon="5.6245515"><ele>821.0000000000001</ele><time>2026-04-10T08:33:39.873Z</time></trkpt><trkpt lat="44.0318774" lon="5.6244569"><ele>821.0</ele><time>2026-04-10T08:33:40.879Z</time></trkpt><trkpt lat="44.0318695" lon="5.6243637"><ele>822.8</ele><time>2026-04-10T08:33:41.874Z</time></trkpt><trkpt lat="44.0318972" lon="5.6242625"><ele>824.5999999999999</ele><time>2026-04-10T08:33:42.874Z</time></trkpt><trkpt lat="44.0319437" lon="5.6241526"><ele>826.4</ele><time>2026-04-10T08:33:43.881Z</time></trkpt><trkpt lat="44.0320028" lon="5.6240266"><ele>828.2</ele><time>2026-04-10T08:33:44.881Z</time></trkpt><trkpt lat="44.03208" lon="5.6238772"><ele>830.0</ele><time>2026-04-10T08:33:45.878Z</time></trkpt><trkpt lat="44.0321565" lon="5.6237303"><ele>830.0</ele><time>2026-04-10T08:33:46.874Z</time></trkpt><trkpt lat="44.0322218" lon="5.6235873"><ele>830.0</ele><time>2026-04-10T08:33:47.874Z</time></trkpt><trkpt lat="44.0322688" lon="5.6234484"><ele>830.0</ele><time>2026-04-10T08:33:48.873Z</time></trkpt><trkpt lat="44.032309" lon="5.6233032"><ele>830.0</ele><time>2026-04-10T08:33:49.873Z</time></trkpt><trkpt lat="44.0323489" lon="5.6231632"><ele>830.0</ele><time>2026-04-10T08:33:50.872Z</time></trkpt><trkpt lat="44.0323952" lon="5.6230185"><ele>830.0</ele><time>2026-04-10T08:33:51.872Z</time></trkpt><trkpt lat="44.0324413" lon="5.6228814"><ele>830.0</ele><time>2026-04-10T08:33:52.874Z</time></trkpt><trkpt lat="44.0324621" lon="5.6227288"><ele>830.0</ele><time>2026-04-10T08:33:53.878Z</time></trkpt><trkpt lat="44.0324729" lon="5.6225796"><ele>830.0</ele><time>2026-04-10T08:33:54.871Z</time></trkpt><trkpt lat="44.0324808" lon="5.62242"><ele>833.6</ele><time>2026-04-10T08:33:55.871Z</time></trkpt><trkpt lat="44.0325081" lon="5.6222635"><ele>837.2</ele><time>2026-04-10T08:33:56.875Z</time></trkpt><trkpt lat="44.0325442" lon="5.6221108"><ele>840.8</ele><time>2026-04-10T08:33:57.875Z</time></trkpt><trkpt lat="44.0325761" lon="5.6219726"><ele>844.4</ele><time>2026-04-10T08:33:58.875Z</time></trkpt><trkpt lat="44.0326095" lon="5.6218471"><ele>848.0</ele><time>2026-04-10T08:33:59.874Z</time></trkpt><trkpt lat="44.0326537" lon="5.6217249"><ele>847.8</ele><time>2026-04-10T08:34:00.875Z</time></trkpt><trkpt lat="44.032697" lon="5.6216008"><ele>847.5999999999999</ele><time>2026-04-10T08:34:01.874Z</time></trkpt><trkpt lat="44.0327424" lon="5.6214606"><ele>847.4000000000001</ele><time>2026-04-10T08:34:02.875Z</time></trkpt><trkpt lat="44.0327889" lon="5.6213288"><ele>847.2</ele><time>2026-04-10T08:34:03.876Z</time></trkpt><trkpt lat="44.0328207" lon="5.6212044"><ele>847.0</ele><time>2026-04-10T08:34:04.873Z</time></trkpt><trkpt lat="44.0328542" lon="5.6210793"><ele>847.0</ele><time>2026-04-10T08:34:05.875Z</time></trkpt><trkpt lat="44.0328941" lon="5.6209449"><ele>847.0</ele><time>2026-04-10T08:34:06.872Z</time></trkpt><trkpt lat="44.0329342" lon="5.6208141"><ele>847.0</ele><time>2026-04-10T08:34:07.872Z</time></trkpt><trkpt lat="44.0329825" lon="5.6206813"><ele>847.0</ele><time>2026-04-10T08:34:08.874Z</time></trkpt><trkpt lat="44.0330355" lon="5.6205457"><ele>847.0</ele><time>2026-04-10T08:34:09.872Z</time></trkpt><trkpt lat="44.0330844" lon="5.6204088"><ele>848.75</ele><time>2026-04-10T08:34:10.872Z</time></trkpt><trkpt lat="44.0331374" lon="5.6202694"><ele>850.5</ele><time>2026-04-10T08:34:11.873Z</time></trkpt><trkpt lat="44.0331956" lon="5.6201287"><ele>852.25</ele><time>2026-04-10T08:34:12.875Z</time></trkpt><trkpt lat="44.0332619" lon="5.6199767"><ele>854.0</ele><time>2026-04-10T08:34:13.878Z</time></trkpt><trkpt lat="44.0333171" lon="5.6198326"><ele>854.0</ele><time>2026-04-10T08:34:14.873Z</time></trkpt><trkpt lat="44.0333647" lon="5.6196844"><ele>854.0000000000001</ele><time>2026-04-10T08:34:15.875Z</time></trkpt><trkpt lat="44.0334074" lon="5.6195419"><ele>854.0000000000001</ele><time>2026-04-10T08:34:16.875Z</time></trkpt><trkpt lat="44.0334587" lon="5.6194101"><ele>854.0</ele><time>2026-04-10T08:34:17.873Z</time></trkpt><trkpt lat="44.0335123" lon="5.6192774"><ele>854.0</ele><time>2026-04-10T08:34:18.88Z</time></trkpt><trkpt lat="44.0335648" lon="5.6191342"><ele>851.4000000000001</ele><time>2026-04-10T08:34:19.894Z</time></trkpt><trkpt lat="44.0336152" lon="5.6190015"><ele>848.8000000000001</ele><time>2026-04-10T08:34:20.889Z</time></trkpt><trkpt lat="44.0336618" lon="5.6188659"><ele>846.2</ele><time>2026-04-10T08:34:21.879Z</time></trkpt><trkpt lat="44.0337096" lon="5.6187363"><ele>843.5999999999999</ele><time>2026-04-10T08:34:22.874Z</time></trkpt><trkpt lat="44.0337567" lon="5.6186057"><ele>841.0</ele><time>2026-04-10T08:34:23.872Z</time></trkpt><trkpt lat="44.0338085" lon="5.6184707"><ele>838.5999999999999</ele><time>2026-04-10T08:34:24.871Z</time></trkpt><trkpt lat="44.0338694" lon="5.6183306"><ele>836.2</ele><time>2026-04-10T08:34:25.873Z</time></trkpt><trkpt lat="44.0339255" lon="5.6181995"><ele>833.8</ele><time>2026-04-10T08:34:26.873Z</time></trkpt><trkpt lat="44.033975" lon="5.6180695"><ele>831.4000000000001</ele><time>2026-04-10T08:34:27.873Z</time></trkpt><trkpt lat="44.034004" lon="5.6179366"><ele>829.0</ele><time>2026-04-10T08:34:28.875Z</time></trkpt><trkpt lat="44.0340242" lon="5.6178039"><ele>828.3333333333333</ele><time>2026-04-10T08:34:29.871Z</time></trkpt><trkpt lat="44.0340347" lon="5.6176726"><ele>827.6666666666666</ele><time>2026-04-10T08:34:30.878Z</time></trkpt><trkpt lat="44.0340434" lon="5.6175425"><ele>827.0</ele><time>2026-04-10T08:34:31.872Z</time></trkpt><trkpt lat="44.0340539" lon="5.617426"><ele>826.3333333333333</ele><time>2026-04-10T08:34:32.876Z</time></trkpt><trkpt lat="44.0340629" lon="5.6173138"><ele>825.6666666666666</ele><time>2026-04-10T08:34:33.871Z</time></trkpt><trkpt lat="44.0340555" lon="5.6172114"><ele>825.0</ele><time>2026-04-10T08:34:34.874Z</time></trkpt><trkpt lat="44.034005" lon="5.6170867"><ele>825.0</ele><time>2026-04-10T08:34:36.878Z</time></trkpt><trkpt lat="44.0338784" lon="5.6170283"><ele>825.0</ele><time>2026-04-10T08:34:38.871Z</time></trkpt><trkpt lat="44.0338042" lon="5.6170066"><ele>825.0</ele><time>2026-04-10T08:34:39.873Z</time></trkpt><trkpt lat="44.0337405" lon="5.6169569"><ele>825.0</ele><time>2026-04-10T08:34:40.874Z</time></trkpt><trkpt lat="44.0336813" lon="5.6169008"><ele>825.0</ele><time>2026-04-10T08:34:41.871Z</time></trkpt><trkpt lat="44.0336254" lon="5.6168261"><ele>825.0</ele><time>2026-04-10T08:34:42.876Z</time></trkpt><trkpt lat="44.0335654" lon="5.6167526"><ele>826.0</ele><time>2026-04-10T08:34:43.873Z</time></trkpt><trkpt lat="44.0335229" lon="5.6166674"><ele>827.0</ele><time>2026-04-10T08:34:44.874Z</time></trkpt><trkpt lat="44.0334889" lon="5.6165722"><ele>828.0</ele><time>2026-04-10T08:34:45.873Z</time></trkpt><trkpt lat="44.0334552" lon="5.6164695"><ele>829.0</ele><time>2026-04-10T08:34:46.874Z</time></trkpt><trkpt lat="44.0334182" lon="5.6163708"><ele>830.0</ele><time>2026-04-10T08:34:47.875Z</time></trkpt><trkpt lat="44.0333807" lon="5.6162708"><ele>831.0</ele><time>2026-04-10T08:34:48.881Z</time></trkpt><trkpt lat="44.0333494" lon="5.6161778"><ele>830.8333333333334</ele><time>2026-04-10T08:34:49.875Z</time></trkpt><trkpt lat="44.0333236" lon="5.6160743"><ele>830.6666666666667</ele><time>2026-04-10T08:34:50.875Z</time></trkpt><trkpt lat="44.0333199" lon="5.6159732"><ele>830.5</ele><time>2026-04-10T08:34:51.872Z</time></trkpt><trkpt lat="44.0333246" lon="5.6158658"><ele>830.3333333333334</ele><time>2026-04-10T08:34:52.874Z</time></trkpt><trkpt lat="44.0333305" lon="5.615763"><ele>830.1666666666667</ele><time>2026-04-10T08:34:53.873Z</time></trkpt><trkpt lat="44.0333439" lon="5.6156616"><ele>830.0</ele><time>2026-04-10T08:34:54.881Z</time></trkpt><trkpt lat="44.0333658" lon="5.6155517"><ele>830.0</ele><time>2026-04-10T08:34:55.876Z</time></trkpt><trkpt lat="44.0333882" lon="5.6154409"><ele>830.0</ele><time>2026-04-10T08:34:56.878Z</time></trkpt><trkpt lat="44.0334133" lon="5.6153224"><ele>830.0</ele><time>2026-04-10T08:34:57.872Z</time></trkpt><trkpt lat="44.0334593" lon="5.6152342"><ele>830.0</ele><time>2026-04-10T08:34:58.873Z</time></trkpt><trkpt lat="44.0335336" lon="5.6151452"><ele>830.0</ele><time>2026-04-10T08:34:59.874Z</time></trkpt><trkpt lat="44.0336309" lon="5.6150652"><ele>828.2</ele><time>2026-04-10T08:35:00.874Z</time></trkpt><trkpt lat="44.0337281" lon="5.6149679"><ele>826.4</ele><time>2026-04-10T08:35:01.873Z</time></trkpt><trkpt lat="44.0338236" lon="5.6148771"><ele>824.5999999999999</ele><time>2026-04-10T08:35:02.873Z</time></trkpt><trkpt lat="44.0339128" lon="5.6147912"><ele>822.8</ele><time>2026-04-10T08:35:03.873Z</time></trkpt><trkpt lat="44.0339979" lon="5.6147117"><ele>821.0</ele><time>2026-04-10T08:35:04.872Z</time></trkpt><trkpt lat="44.0340821" lon="5.6146398"><ele>821.8333333333334</ele><time>2026-04-10T08:35:05.873Z</time></trkpt><trkpt lat="44.0341668" lon="5.614563"><ele>822.6666666666667</ele><time>2026-04-10T08:35:06.873Z</time></trkpt><trkpt lat="44.0342358" lon="5.6144904"><ele>823.5</ele><time>2026-04-10T08:35:07.873Z</time></trkpt><trkpt lat="44.0342938" lon="5.6144288"><ele>824.3333333333333</ele><time>2026-04-10T08:35:08.872Z</time></trkpt><trkpt lat="44.0343497" lon="5.6143717"><ele>825.1666666666666</ele><time>2026-04-10T08:35:09.873Z</time></trkpt><trkpt lat="44.0343857" lon="5.6142182"><ele>826.0</ele><time>2026-04-10T08:35:11.871Z</time></trkpt><trkpt lat="44.0343308" lon="5.6141054"><ele>826.0</ele><time>2026-04-10T08:35:13.869Z</time></trkpt><trkpt lat="44.0342323" lon="5.6140073"><ele>826.0</ele><time>2026-04-10T08:35:15.874Z</time></trkpt><trkpt lat="44.034169" lon="5.613937"><ele>826.0</ele><time>2026-04-10T08:35:16.873Z</time></trkpt><trkpt lat="44.0341068" lon="5.613839"><ele>826.0</ele><time>2026-04-10T08:35:17.879Z</time></trkpt><trkpt lat="44.0340389" lon="5.6137321"><ele>826.0</ele><time>2026-04-10T08:35:18.872Z</time></trkpt><trkpt lat="44.0339854" lon="5.6136327"><ele>825.1999999999999</ele><time>2026-04-10T08:35:19.871Z</time></trkpt><trkpt lat="44.033936" lon="5.6135223"><ele>824.4</ele><time>2026-04-10T08:35:20.871Z</time></trkpt><trkpt lat="44.0338832" lon="5.6134018"><ele>823.6</ele><time>2026-04-10T08:35:21.872Z</time></trkpt><trkpt lat="44.0338297" lon="5.6132803"><ele>822.8</ele><time>2026-04-10T08:35:22.876Z</time></trkpt><trkpt lat="44.0337717" lon="5.6131562"><ele>822.0</ele><time>2026-04-10T08:35:23.872Z</time></trkpt><trkpt lat="44.0337206" lon="5.6130319"><ele>822.0</ele><time>2026-04-10T08:35:24.881Z</time></trkpt><trkpt lat="44.0336788" lon="5.6129032"><ele>822.0</ele><time>2026-04-10T08:35:25.874Z</time></trkpt><trkpt lat="44.0336386" lon="5.6127794"><ele>822.0</ele><time>2026-04-10T08:35:26.874Z</time></trkpt><trkpt lat="44.033611" lon="5.6126625"><ele>822.0</ele><time>2026-04-10T08:35:27.873Z</time></trkpt><trkpt lat="44.0335983" lon="5.612523"><ele>822.0</ele><time>2026-04-10T08:35:28.873Z</time></trkpt><trkpt lat="44.0335711" lon="5.6123917"><ele>824.75</ele><time>2026-04-10T08:35:29.874Z</time></trkpt><trkpt lat="44.0335412" lon="5.6122222"><ele>827.5</ele><time>2026-04-10T08:35:30.872Z</time></trkpt><trkpt lat="44.0335114" lon="5.6120475"><ele>830.25</ele><time>2026-04-10T08:35:31.87Z</time></trkpt><trkpt lat="44.0334651" lon="5.611886"><ele>833.0</ele><time>2026-04-10T08:35:32.869Z</time></trkpt><trkpt lat="44.033397" lon="5.6117283"><ele>829.6666666666667</ele><time>2026-04-10T08:35:33.873Z</time></trkpt><trkpt lat="44.0333121" lon="5.6115591"><ele>826.3333333333333</ele><time>2026-04-10T08:35:34.873Z</time></trkpt><trkpt lat="44.0332265" lon="5.6113918"><ele>823.0</ele><time>2026-04-10T08:35:35.876Z</time></trkpt><trkpt lat="44.0331367" lon="5.6112172"><ele>827.5</ele><time>2026-04-10T08:35:36.873Z</time></trkpt><trkpt lat="44.0330558" lon="5.6110565"><ele>832.0</ele><time>2026-04-10T08:35:37.872Z</time></trkpt><trkpt lat="44.0329773" lon="5.6109192"><ele>836.5</ele><time>2026-04-10T08:35:38.874Z</time></trkpt><trkpt lat="44.032904" lon="5.6107873"><ele>841.0</ele><time>2026-04-10T08:35:39.877Z</time></trkpt><trkpt lat="44.0328072" lon="5.6106796"><ele>841.0</ele><time>2026-04-10T08:35:40.876Z</time></trkpt><trkpt lat="44.0326982" lon="5.6105741"><ele>841.0</ele><time>2026-04-10T08:35:41.871Z</time></trkpt><trkpt lat="44.0325846" lon="5.610476"><ele>841.0</ele><time>2026-04-10T08:35:42.873Z</time></trkpt><trkpt lat="44.0324684" lon="5.6103805"><ele>841.0</ele><time>2026-04-10T08:35:43.874Z</time></trkpt><trkpt lat="44.032355" lon="5.6102764"><ele>842.25</ele><time>2026-04-10T08:35:44.875Z</time></trkpt><trkpt lat="44.0322479" lon="5.6101482"><ele>843.5</ele><time>2026-04-10T08:35:45.873Z</time></trkpt><trkpt lat="44.0321462" lon="5.6100435"><ele>844.75</ele><time>2026-04-10T08:35:46.87Z</time></trkpt><trkpt lat="44.0320489" lon="5.6099296"><ele>846.0</ele><time>2026-04-10T08:35:47.872Z</time></trkpt><trkpt lat="44.0319548" lon="5.6098034"><ele>846.0</ele><time>2026-04-10T08:35:48.871Z</time></trkpt><trkpt lat="44.0318601" lon="5.6096689"><ele>846.0</ele><time>2026-04-10T08:35:49.872Z</time></trkpt><trkpt lat="44.0317685" lon="5.6095437"><ele>846.0</ele><time>2026-04-10T08:35:50.873Z</time></trkpt><trkpt lat="44.0316728" lon="5.6094231"><ele>846.0</ele><time>2026-04-10T08:35:51.871Z</time></trkpt><trkpt lat="44.0315749" lon="5.609307"><ele>848.0</ele><time>2026-04-10T08:35:52.872Z</time></trkpt><trkpt lat="44.031468" lon="5.6091949"><ele>850.0</ele><time>2026-04-10T08:35:53.871Z</time></trkpt><trkpt lat="44.031369" lon="5.6091006"><ele>851.9999999999999</ele><time>2026-04-10T08:35:54.875Z</time></trkpt><trkpt lat="44.031278" lon="5.6090279"><ele>854.0</ele><time>2026-04-10T08:35:55.872Z</time></trkpt><trkpt lat="44.0311992" lon="5.6089673"><ele>856.0</ele><time>2026-04-10T08:35:56.872Z</time></trkpt><trkpt lat="44.0311353" lon="5.6089289"><ele>856.0</ele><time>2026-04-10T08:35:57.874Z</time></trkpt><trkpt lat="44.0310666" lon="5.6088918"><ele>855.9999999999999</ele><time>2026-04-10T08:35:58.874Z</time></trkpt><trkpt lat="44.0309806" lon="5.6088349"><ele>855.9999999999999</ele><time>2026-04-10T08:35:59.879Z</time></trkpt><trkpt lat="44.0308867" lon="5.6087582"><ele>856.0</ele><time>2026-04-10T08:36:00.879Z</time></trkpt><trkpt lat="44.0307953" lon="5.6086729"><ele>856.0</ele><time>2026-04-10T08:36:01.873Z</time></trkpt><trkpt lat="44.030706" lon="5.6085908"><ele>859.6666666666666</ele><time>2026-04-10T08:36:02.875Z</time></trkpt><trkpt lat="44.0306216" lon="5.6085225"><ele>863.3333333333333</ele><time>2026-04-10T08:36:03.872Z</time></trkpt><trkpt lat="44.0305511" lon="5.6084657"><ele>867.0</ele><time>2026-04-10T08:36:04.871Z</time></trkpt><trkpt lat="44.0304884" lon="5.6083947"><ele>870.6666666666667</ele><time>2026-04-10T08:36:06.872Z</time></trkpt><trkpt lat="44.0305374" lon="5.6083347"><ele>874.3333333333334</ele><time>2026-04-10T08:36:10.872Z</time></trkpt><trkpt lat="44.0306234" lon="5.6083483"><ele>878.0</ele><time>2026-04-10T08:36:12.872Z</time></trkpt><trkpt lat="44.0307267" lon="5.6083759"><ele>878.2</ele><time>2026-04-10T08:36:14.872Z</time></trkpt><trkpt lat="44.0308379" lon="5.6083343"><ele>878.4</ele><time>2026-04-10T08:36:16.873Z</time></trkpt><trkpt lat="44.0309496" lon="5.6082658"><ele>878.6000000000001</ele><time>2026-04-10T08:36:18.871Z</time></trkpt><trkpt lat="44.0310599" lon="5.6082376"><ele>878.8000000000001</ele><time>2026-04-10T08:36:20.872Z</time></trkpt><trkpt lat="44.031149" lon="5.6082458"><ele>879.0</ele><time>2026-04-10T08:36:22.874Z</time></trkpt><trkpt lat="44.0312513" lon="5.6082507"><ele>879.0</ele><time>2026-04-10T08:36:25.803Z</time></trkpt><trkpt lat="44.0313446" lon="5.608281"><ele>879.0</ele><time>2026-04-10T08:36:27.859Z</time></trkpt><trkpt lat="44.0314048" lon="5.6083498"><ele>879.0</ele><time>2026-04-10T08:36:28.875Z</time></trkpt><trkpt lat="44.0314574" lon="5.6083991"><ele>879.0</ele><time>2026-04-10T08:36:29.876Z</time></trkpt><trkpt lat="44.0315132" lon="5.6084417"><ele>879.0</ele><time>2026-04-10T08:36:30.879Z</time></trkpt><trkpt lat="44.0316104" lon="5.6085009"><ele>879.0</ele><time>2026-04-10T08:36:32.873Z</time></trkpt><trkpt lat="44.0316784" lon="5.6085141"><ele>877.8000000000001</ele><time>2026-04-10T08:36:34.877Z</time></trkpt><trkpt lat="44.0317494" lon="5.6084745"><ele>876.6000000000001</ele><time>2026-04-10T08:36:37.88Z</time></trkpt><trkpt lat="44.0318507" lon="5.6084575"><ele>875.4</ele><time>2026-04-10T08:36:40.873Z</time></trkpt><trkpt lat="44.0319688" lon="5.6084562"><ele>874.2</ele><time>2026-04-10T08:36:42.871Z</time></trkpt><trkpt lat="44.0320338" lon="5.6084503"><ele>873.0</ele><time>2026-04-10T08:36:43.875Z</time></trkpt><trkpt lat="44.0321469" lon="5.6084389"><ele>873.0</ele><time>2026-04-10T08:36:45.874Z</time></trkpt><trkpt lat="44.0322538" lon="5.6084244"><ele>873.0</ele><time>2026-04-10T08:36:47.874Z</time></trkpt><trkpt lat="44.0323162" lon="5.6084041"><ele>873.0</ele><time>2026-04-10T08:36:48.879Z</time></trkpt><trkpt lat="44.0324253" lon="5.6083664"><ele>873.0</ele><time>2026-04-10T08:36:50.88Z</time></trkpt><trkpt lat="44.0325294" lon="5.6083148"><ele>873.0</ele><time>2026-04-10T08:36:52.872Z</time></trkpt><trkpt lat="44.0326386" lon="5.6082754"><ele>873.0</ele><time>2026-04-10T08:36:54.872Z</time></trkpt><trkpt lat="44.0327283" lon="5.6082183"><ele>873.0</ele><time>2026-04-10T08:36:56.877Z</time></trkpt><trkpt lat="44.0328231" lon="5.6081494"><ele>873.0</ele><time>2026-04-10T08:36:58.878Z</time></trkpt><trkpt lat="44.0329203" lon="5.6080533"><ele>873.0</ele><time>2026-04-10T08:37:00.873Z</time></trkpt><trkpt lat="44.0329991" lon="5.6079519"><ele>873.0</ele><time>2026-04-10T08:37:02.874Z</time></trkpt><trkpt lat="44.0330573" lon="5.6078559"><ele>869.8</ele><time>2026-04-10T08:37:04.879Z</time></trkpt><trkpt lat="44.0331171" lon="5.6077488"><ele>866.5999999999999</ele><time>2026-04-10T08:37:06.872Z</time></trkpt><trkpt lat="44.0331878" lon="5.6076551"><ele>863.4000000000001</ele><time>2026-04-10T08:37:08.871Z</time></trkpt><trkpt lat="44.0332639" lon="5.6075485"><ele>860.2</ele><time>2026-04-10T08:37:10.873Z</time></trkpt><trkpt lat="44.0333475" lon="5.6074275"><ele>857.0</ele><time>2026-04-10T08:37:12.875Z</time></trkpt><trkpt lat="44.0333998" lon="5.6073451"><ele>857.0000000000001</ele><time>2026-04-10T08:37:13.871Z</time></trkpt><trkpt lat="44.0334586" lon="5.6072785"><ele>857.0</ele><time>2026-04-10T08:37:14.876Z</time></trkpt><trkpt lat="44.0335111" lon="5.6072107"><ele>857.0</ele><time>2026-04-10T08:37:15.874Z</time></trkpt><trkpt lat="44.0335453" lon="5.6071294"><ele>857.0</ele><time>2026-04-10T08:37:16.872Z</time></trkpt><trkpt lat="44.0335668" lon="5.6070426"><ele>857.0000000000001</ele><time>2026-04-10T08:37:17.874Z</time></trkpt><trkpt lat="44.0336185" lon="5.6068662"><ele>857.0</ele><time>2026-04-10T08:37:19.872Z</time></trkpt><trkpt lat="44.0336292" lon="5.6067675"><ele>853.8571428571429</ele><time>2026-04-10T08:37:20.874Z</time></trkpt><trkpt lat="44.033627" lon="5.6066717"><ele>850.7142857142857</ele><time>2026-04-10T08:37:21.874Z</time></trkpt><trkpt lat="44.0336303" lon="5.6065826"><ele>847.5714285714287</ele><time>2026-04-10T08:37:22.875Z</time></trkpt><trkpt lat="44.0336299" lon="5.6064945"><ele>844.4285714285714</ele><time>2026-04-10T08:37:23.873Z</time></trkpt><trkpt lat="44.0336254" lon="5.6064051"><ele>841.2857142857143</ele><time>2026-04-10T08:37:24.871Z</time></trkpt><trkpt lat="44.033629" lon="5.6063067"><ele>838.1428571428572</ele><time>2026-04-10T08:37:25.875Z</time></trkpt><trkpt lat="44.0336421" lon="5.6062008"><ele>835.0</ele><time>2026-04-10T08:37:26.873Z</time></trkpt><trkpt lat="44.0336583" lon="5.6061021"><ele>832.0</ele><time>2026-04-10T08:37:27.873Z</time></trkpt><trkpt lat="44.0336685" lon="5.6059935"><ele>829.0</ele><time>2026-04-10T08:37:28.873Z</time></trkpt><trkpt lat="44.03369" lon="5.6058957"><ele>826.0</ele><time>2026-04-10T08:37:29.875Z</time></trkpt><trkpt lat="44.0337087" lon="5.6058116"><ele>823.0</ele><time>2026-04-10T08:37:30.872Z</time></trkpt><trkpt lat="44.0337382" lon="5.6056578"><ele>820.0</ele><time>2026-04-10T08:37:32.872Z</time></trkpt><trkpt lat="44.0337625" lon="5.6054926"><ele>819.9999999999999</ele><time>2026-04-10T08:37:34.872Z</time></trkpt><trkpt lat="44.0337848" lon="5.6054037"><ele>820.0</ele><time>2026-04-10T08:37:35.876Z</time></trkpt><trkpt lat="44.0338132" lon="5.6052594"><ele>820.0</ele><time>2026-04-10T08:37:37.872Z</time></trkpt><trkpt lat="44.0338183" lon="5.6051223"><ele>820.0</ele><time>2026-04-10T08:37:39.871Z</time></trkpt><trkpt lat="44.0338424" lon="5.6050066"><ele>819.9999999999999</ele><time>2026-04-10T08:37:41.873Z</time></trkpt><trkpt lat="44.0338753" lon="5.6049128"><ele>820.0</ele><time>2026-04-10T08:37:43.87Z</time></trkpt><trkpt lat="44.0338934" lon="5.6048241"><ele>819.4999999999999</ele><time>2026-04-10T08:37:45.87Z</time></trkpt><trkpt lat="44.0338891" lon="5.6047243"><ele>819.0</ele><time>2026-04-10T08:37:47.871Z</time></trkpt><trkpt lat="44.0339139" lon="5.6046384"><ele>818.5</ele><time>2026-04-10T08:37:49.873Z</time></trkpt><trkpt lat="44.0339888" lon="5.6045241"><ele>818.0</ele><time>2026-04-10T08:37:51.871Z</time></trkpt><trkpt lat="44.0340545" lon="5.6044374"><ele>817.4999999999999</ele><time>2026-04-10T08:37:53.85Z</time></trkpt><trkpt lat="44.0340724" lon="5.6043514"><ele>817.0</ele><time>2026-04-10T08:37:55.782Z</time></trkpt><trkpt lat="44.0340738" lon="5.6042539"><ele>817.0</ele><time>2026-04-10T08:37:58.87Z</time></trkpt><trkpt lat="44.0340196" lon="5.6044383"><ele>817.0</ele><time>2026-04-10T08:38:00.871Z</time></trkpt><trkpt lat="44.0339505" lon="5.6044405"><ele>817.0</ele><time>2026-04-10T08:38:11.87Z</time></trkpt><trkpt lat="44.0338975" lon="5.6045011"><ele>817.0</ele><time>2026-04-10T08:38:13.873Z</time></trkpt><trkpt lat="44.0338115" lon="5.6045787"><ele>817.0</ele><time>2026-04-10T08:38:14.87Z</time></trkpt><trkpt lat="44.0337532" lon="5.6046362"><ele>817.0</ele><time>2026-04-10T08:38:15.869Z</time></trkpt><trkpt lat="44.0336557" lon="5.6047635"><ele>817.0</ele><time>2026-04-10T08:38:17.87Z</time></trkpt><trkpt lat="44.0336081" lon="5.6048579"><ele>817.0</ele><time>2026-04-10T08:38:18.878Z</time></trkpt><trkpt lat="44.0335197" lon="5.6049512"><ele>817.0</ele><time>2026-04-10T08:38:19.874Z</time></trkpt><trkpt lat="44.0334327" lon="5.6050462"><ele>817.0</ele><time>2026-04-10T08:38:20.875Z</time></trkpt><trkpt lat="44.033345" lon="5.6051482"><ele>813.0</ele><time>2026-04-10T08:38:21.872Z</time></trkpt><trkpt lat="44.0331813" lon="5.6053476"><ele>809.0</ele><time>2026-04-10T08:38:23.873Z</time></trkpt><trkpt lat="44.0330007" lon="5.605518"><ele>805.0</ele><time>2026-04-10T08:38:25.873Z</time></trkpt><trkpt lat="44.0329095" lon="5.6056061"><ele>805.0</ele><time>2026-04-10T08:38:26.875Z</time></trkpt><trkpt lat="44.0328275" lon="5.6056929"><ele>805.0</ele><time>2026-04-10T08:38:27.873Z</time></trkpt><trkpt lat="44.0327402" lon="5.6057661"><ele>805.0</ele><time>2026-04-10T08:38:28.87Z</time></trkpt><trkpt lat="44.0326568" lon="5.6058248"><ele>805.0</ele><time>2026-04-10T08:38:29.871Z</time></trkpt><trkpt lat="44.0325801" lon="5.6058528"><ele>805.0</ele><time>2026-04-10T08:38:30.87Z</time></trkpt><trkpt lat="44.0324964" lon="5.6058423"><ele>805.6</ele><time>2026-04-10T08:38:31.874Z</time></trkpt><trkpt lat="44.0323992" lon="5.6058357"><ele>806.2</ele><time>2026-04-10T08:38:32.873Z</time></trkpt><trkpt lat="44.0323073" lon="5.6058085"><ele>806.8</ele><time>2026-04-10T08:38:33.876Z</time></trkpt><trkpt lat="44.0322113" lon="5.6057595"><ele>807.4</ele><time>2026-04-10T08:38:34.871Z</time></trkpt><trkpt lat="44.0321188" lon="5.6056989"><ele>808.0</ele><time>2026-04-10T08:38:35.875Z</time></trkpt><trkpt lat="44.0320378" lon="5.6056355"><ele>808.0</ele><time>2026-04-10T08:38:36.874Z</time></trkpt><trkpt lat="44.0319702" lon="5.6055671"><ele>808.0</ele><time>2026-04-10T08:38:37.873Z</time></trkpt><trkpt lat="44.0319026" lon="5.6054609"><ele>808.0</ele><time>2026-04-10T08:38:38.876Z</time></trkpt><trkpt lat="44.0318343" lon="5.6053353"><ele>808.0</ele><time>2026-04-10T08:38:39.872Z</time></trkpt><trkpt lat="44.0317687" lon="5.6052192"><ele>808.0</ele><time>2026-04-10T08:38:40.874Z</time></trkpt><trkpt lat="44.0317196" lon="5.6051141"><ele>806.8</ele><time>2026-04-10T08:38:41.872Z</time></trkpt><trkpt lat="44.0316794" lon="5.6050046"><ele>805.5999999999999</ele><time>2026-04-10T08:38:42.88Z</time></trkpt><trkpt lat="44.031659" lon="5.6048691"><ele>804.4000000000001</ele><time>2026-04-10T08:38:43.871Z</time></trkpt><trkpt lat="44.0316412" lon="5.6047127"><ele>803.2</ele><time>2026-04-10T08:38:44.873Z</time></trkpt><trkpt lat="44.0315894" lon="5.6045715"><ele>802.0</ele><time>2026-04-10T08:38:45.871Z</time></trkpt><trkpt lat="44.0315318" lon="5.6044321"><ele>802.0</ele><time>2026-04-10T08:38:46.873Z</time></trkpt><trkpt lat="44.0314736" lon="5.6043093"><ele>802.0</ele><time>2026-04-10T08:38:47.866Z</time></trkpt><trkpt lat="44.0314409" lon="5.6041775"><ele>802.0</ele><time>2026-04-10T08:38:48.87Z</time></trkpt><trkpt lat="44.03142" lon="5.6040495"><ele>802.0</ele><time>2026-04-10T08:38:49.871Z</time></trkpt><trkpt lat="44.031387" lon="5.60393"><ele>802.0</ele><time>2026-04-10T08:38:50.871Z</time></trkpt><trkpt lat="44.0313407" lon="5.6038212"><ele>802.0</ele><time>2026-04-10T08:38:51.87Z</time></trkpt><trkpt lat="44.0312749" lon="5.6037257"><ele>802.0</ele><time>2026-04-10T08:38:52.869Z</time></trkpt><trkpt lat="44.0312039" lon="5.6036429"><ele>802.0</ele><time>2026-04-10T08:38:53.874Z</time></trkpt><trkpt lat="44.031117" lon="5.6035818"><ele>802.0</ele><time>2026-04-10T08:38:54.869Z</time></trkpt><trkpt lat="44.0310272" lon="5.6035407"><ele>802.0</ele><time>2026-04-10T08:38:55.871Z</time></trkpt><trkpt lat="44.0309252" lon="5.6035189"><ele>802.0</ele><time>2026-04-10T08:38:56.871Z</time></trkpt><trkpt lat="44.0308156" lon="5.6035126"><ele>802.0</ele><time>2026-04-10T08:38:57.868Z</time></trkpt><trkpt lat="44.0307033" lon="5.6035182"><ele>802.0</ele><time>2026-04-10T08:38:58.879Z</time></trkpt><trkpt lat="44.0305968" lon="5.6035018"><ele>802.0</ele><time>2026-04-10T08:38:59.873Z</time></trkpt><trkpt lat="44.0304942" lon="5.6034815"><ele>802.0</ele><time>2026-04-10T08:39:00.87Z</time></trkpt><trkpt lat="44.0303783" lon="5.6034742"><ele>800.25</ele><time>2026-04-10T08:39:01.873Z</time></trkpt><trkpt lat="44.0302628" lon="5.6034626"><ele>798.5</ele><time>2026-04-10T08:39:02.869Z</time></trkpt><trkpt lat="44.030135" lon="5.6034449"><ele>796.75</ele><time>2026-04-10T08:39:03.873Z</time></trkpt><trkpt lat="44.0300098" lon="5.6034288"><ele>795.0</ele><time>2026-04-10T08:39:04.872Z</time></trkpt><trkpt lat="44.0299155" lon="5.6034069"><ele>794.75</ele><time>2026-04-10T08:39:05.876Z</time></trkpt><trkpt lat="44.0298283" lon="5.6033755"><ele>794.5</ele><time>2026-04-10T08:39:06.869Z</time></trkpt><trkpt lat="44.0297218" lon="5.6033495"><ele>794.25</ele><time>2026-04-10T08:39:07.871Z</time></trkpt><trkpt lat="44.0296089" lon="5.6033222"><ele>794.0</ele><time>2026-04-10T08:39:08.874Z</time></trkpt><trkpt lat="44.029405" lon="5.6032065"><ele>794.0</ele><time>2026-04-10T08:39:10.882Z</time></trkpt><trkpt lat="44.029315" lon="5.603156"><ele>794.0</ele><time>2026-04-10T08:39:11.883Z</time></trkpt><trkpt lat="44.0292442" lon="5.6031422"><ele>794.0</ele><time>2026-04-10T08:39:12.882Z</time></trkpt><trkpt lat="44.0291008" lon="5.6031841"><ele>794.0</ele><time>2026-04-10T08:39:14.875Z</time></trkpt><trkpt lat="44.0290373" lon="5.603183"><ele>794.0</ele><time>2026-04-10T08:39:15.872Z</time></trkpt><trkpt lat="44.0289567" lon="5.603178"><ele>792.5</ele><time>2026-04-10T08:39:16.872Z</time></trkpt><trkpt lat="44.0288467" lon="5.6031579"><ele>791.0</ele><time>2026-04-10T08:39:17.874Z</time></trkpt><trkpt lat="44.0287344" lon="5.6031349"><ele>789.5</ele><time>2026-04-10T08:39:18.88Z</time></trkpt><trkpt lat="44.0286257" lon="5.6031152"><ele>788.0</ele><time>2026-04-10T08:39:19.883Z</time></trkpt><trkpt lat="44.0285063" lon="5.603122"><ele>788.0</ele><time>2026-04-10T08:39:20.879Z</time></trkpt><trkpt lat="44.0283826" lon="5.6031479"><ele>788.0</ele><time>2026-04-10T08:39:21.88Z</time></trkpt><trkpt lat="44.0282497" lon="5.6031762"><ele>788.0</ele><time>2026-04-10T08:39:22.885Z</time></trkpt><trkpt lat="44.0281272" lon="5.6032012"><ele>788.0</ele><time>2026-04-10T08:39:23.886Z</time></trkpt><trkpt lat="44.0280077" lon="5.6032294"><ele>787.5</ele><time>2026-04-10T08:39:24.875Z</time></trkpt><trkpt lat="44.0278822" lon="5.6032543"><ele>787.0</ele><time>2026-04-10T08:39:25.881Z</time></trkpt><trkpt lat="44.0277544" lon="5.6032725"><ele>786.5</ele><time>2026-04-10T08:39:26.887Z</time></trkpt><trkpt lat="44.0276351" lon="5.6032692"><ele>786.0</ele><time>2026-04-10T08:39:27.882Z</time></trkpt><trkpt lat="44.0275205" lon="5.6032557"><ele>785.75</ele><time>2026-04-10T08:39:28.879Z</time></trkpt><trkpt lat="44.0274074" lon="5.6032716"><ele>785.5</ele><time>2026-04-10T08:39:29.873Z</time></trkpt><trkpt lat="44.0272925" lon="5.6032983"><ele>785.25</ele><time>2026-04-10T08:39:30.876Z</time></trkpt><trkpt lat="44.0271743" lon="5.6033136"><ele>785.0</ele><time>2026-04-10T08:39:31.879Z</time></trkpt><trkpt lat="44.0270488" lon="5.6033249"><ele>785.0</ele><time>2026-04-10T08:39:32.878Z</time></trkpt><trkpt lat="44.0269212" lon="5.6033274"><ele>785.0</ele><time>2026-04-10T08:39:33.872Z</time></trkpt><trkpt lat="44.0267974" lon="5.603343"><ele>785.0</ele><time>2026-04-10T08:39:34.878Z</time></trkpt><trkpt lat="44.0266689" lon="5.6033592"><ele>785.0</ele><time>2026-04-10T08:39:35.875Z</time></trkpt><trkpt lat="44.026559" lon="5.6033643"><ele>784.5000000000001</ele><time>2026-04-10T08:39:36.87Z</time></trkpt><trkpt lat="44.026472" lon="5.6033317"><ele>784.0</ele><time>2026-04-10T08:39:37.897Z</time></trkpt><trkpt lat="44.0264065" lon="5.6032838"><ele>783.5</ele><time>2026-04-10T08:39:38.895Z</time></trkpt><trkpt lat="44.0263445" lon="5.6032219"><ele>783.0</ele><time>2026-04-10T08:39:39.873Z</time></trkpt><trkpt lat="44.0262736" lon="5.6031756"><ele>782.5000000000001</ele><time>2026-04-10T08:39:40.875Z</time></trkpt><trkpt lat="44.026186" lon="5.6031696"><ele>782.0</ele><time>2026-04-10T08:39:41.873Z</time></trkpt><trkpt lat="44.0261028" lon="5.6031704"><ele>782.0</ele><time>2026-04-10T08:39:42.891Z</time></trkpt><trkpt lat="44.0260078" lon="5.6031641"><ele>782.0</ele><time>2026-04-10T08:39:43.886Z</time></trkpt><trkpt lat="44.025911" lon="5.6031467"><ele>782.0</ele><time>2026-04-10T08:39:44.88Z</time></trkpt><trkpt lat="44.0258074" lon="5.6031243"><ele>782.0</ele><time>2026-04-10T08:39:45.879Z</time></trkpt><trkpt lat="44.0256891" lon="5.6031027"><ele>782.0</ele><time>2026-04-10T08:39:46.88Z</time></trkpt><trkpt lat="44.0255826" lon="5.6030609"><ele>781.8</ele><time>2026-04-10T08:39:47.87Z</time></trkpt><trkpt lat="44.0254796" lon="5.6030204"><ele>781.6</ele><time>2026-04-10T08:39:48.876Z</time></trkpt><trkpt lat="44.0253825" lon="5.6029852"><ele>781.4</ele><time>2026-04-10T08:39:49.873Z</time></trkpt><trkpt lat="44.0252924" lon="5.6029676"><ele>781.1999999999999</ele><time>2026-04-10T08:39:50.871Z</time></trkpt><trkpt lat="44.0252207" lon="5.6029988"><ele>781.0</ele><time>2026-04-10T08:39:51.874Z</time></trkpt><trkpt lat="44.02515" lon="5.6030441"><ele>781.0</ele><time>2026-04-10T08:39:52.876Z</time></trkpt><trkpt lat="44.0250688" lon="5.6030788"><ele>781.0</ele><time>2026-04-10T08:39:53.871Z</time></trkpt><trkpt lat="44.0249606" lon="5.6030963"><ele>781.0</ele><time>2026-04-10T08:39:54.87Z</time></trkpt><trkpt lat="44.0248436" lon="5.6030972"><ele>781.0</ele><time>2026-04-10T08:39:55.871Z</time></trkpt><trkpt lat="44.0247016" lon="5.6030818"><ele>779.0</ele><time>2026-04-10T08:39:56.871Z</time></trkpt><trkpt lat="44.0245551" lon="5.6030746"><ele>777.0</ele><time>2026-04-10T08:39:57.874Z</time></trkpt><trkpt lat="44.0244142" lon="5.6030643"><ele>775.0</ele><time>2026-04-10T08:39:58.869Z</time></trkpt><trkpt lat="44.0242674" lon="5.603047"><ele>773.0</ele><time>2026-04-10T08:39:59.869Z</time></trkpt><trkpt lat="44.024122" lon="5.6030104"><ele>770.75</ele><time>2026-04-10T08:40:00.871Z</time></trkpt><trkpt lat="44.0239846" lon="5.6029691"><ele>768.5</ele><time>2026-04-10T08:40:01.871Z</time></trkpt><trkpt lat="44.0238509" lon="5.6029408"><ele>766.25</ele><time>2026-04-10T08:40:02.871Z</time></trkpt><trkpt lat="44.0237232" lon="5.6029349"><ele>764.0</ele><time>2026-04-10T08:40:03.871Z</time></trkpt><trkpt lat="44.0235847" lon="5.6029316"><ele>764.0</ele><time>2026-04-10T08:40:04.872Z</time></trkpt><trkpt lat="44.0234492" lon="5.6029562"><ele>764.0</ele><time>2026-04-10T08:40:05.874Z</time></trkpt><trkpt lat="44.0233138" lon="5.6029976"><ele>764.0</ele><time>2026-04-10T08:40:06.871Z</time></trkpt><trkpt lat="44.0231864" lon="5.6030347"><ele>764.0</ele><time>2026-04-10T08:40:07.872Z</time></trkpt><trkpt lat="44.0230718" lon="5.6030525"><ele>763.2</ele><time>2026-04-10T08:40:08.873Z</time></trkpt><trkpt lat="44.0229666" lon="5.6030696"><ele>762.4000000000001</ele><time>2026-04-10T08:40:09.872Z</time></trkpt><trkpt lat="44.0228663" lon="5.6030779"><ele>761.6</ele><time>2026-04-10T08:40:10.872Z</time></trkpt><trkpt lat="44.0227693" lon="5.603084"><ele>760.8</ele><time>2026-04-10T08:40:11.87Z</time></trkpt><trkpt lat="44.0226703" lon="5.6030862"><ele>760.0</ele><time>2026-04-10T08:40:12.874Z</time></trkpt><trkpt lat="44.0225839" lon="5.6030651"><ele>760.0</ele><time>2026-04-10T08:40:13.874Z</time></trkpt><trkpt lat="44.0224986" lon="5.6030658"><ele>760.0</ele><time>2026-04-10T08:40:14.873Z</time></trkpt><trkpt lat="44.022401" lon="5.6030978"><ele>760.0</ele><time>2026-04-10T08:40:15.873Z</time></trkpt><trkpt lat="44.0222978" lon="5.6031406"><ele>760.0</ele><time>2026-04-10T08:40:16.872Z</time></trkpt><trkpt lat="44.0221937" lon="5.6031805"><ele>760.0</ele><time>2026-04-10T08:40:17.876Z</time></trkpt><trkpt lat="44.022088" lon="5.6032254"><ele>760.0</ele><time>2026-04-10T08:40:18.874Z</time></trkpt><trkpt lat="44.0219909" lon="5.6032673"><ele>760.0</ele><time>2026-04-10T08:40:19.87Z</time></trkpt><trkpt lat="44.0219169" lon="5.6032873"><ele>760.0</ele><time>2026-04-10T08:40:20.871Z</time></trkpt><trkpt lat="44.0218083" lon="5.6033004"><ele>760.0</ele><time>2026-04-10T08:40:22.873Z</time></trkpt><trkpt lat="44.0217281" lon="5.6033043"><ele>760.0</ele><time>2026-04-10T08:40:24.873Z</time></trkpt><trkpt lat="44.0217228" lon="5.6033973"><ele>760.0</ele><time>2026-04-10T08:41:42.87Z</time></trkpt><trkpt lat="44.0218" lon="5.603401"><ele>760.0</ele><time>2026-04-10T08:41:48.87Z</time></trkpt><trkpt lat="44.0218643" lon="5.6033322"><ele>760.0</ele><time>2026-04-10T08:41:51.873Z</time></trkpt><trkpt lat="44.0219734" lon="5.6032885"><ele>760.0</ele><time>2026-04-10T08:41:53.874Z</time></trkpt><trkpt lat="44.0220979" lon="5.6032456"><ele>760.0</ele><time>2026-04-10T08:41:55.871Z</time></trkpt><trkpt lat="44.0221621" lon="5.6032241"><ele>760.0</ele><time>2026-04-10T08:41:56.871Z</time></trkpt><trkpt lat="44.0222274" lon="5.6032015"><ele>760.0</ele><time>2026-04-10T08:41:57.87Z</time></trkpt><trkpt lat="44.0222918" lon="5.6031796"><ele>760.0</ele><time>2026-04-10T08:41:58.872Z</time></trkpt><trkpt lat="44.0224114" lon="5.6031462"><ele>760.0</ele><time>2026-04-10T08:42:00.87Z</time></trkpt><trkpt lat="44.0224793" lon="5.6031188"><ele>760.0</ele><time>2026-04-10T08:42:01.875Z</time></trkpt><trkpt lat="44.0225587" lon="5.6030962"><ele>760.0</ele><time>2026-04-10T08:42:02.873Z</time></trkpt><trkpt lat="44.02263" lon="5.6030941"><ele>760.0</ele><time>2026-04-10T08:42:03.873Z</time></trkpt><trkpt lat="44.0226958" lon="5.603093"><ele>760.0</ele><time>2026-04-10T08:42:04.871Z</time></trkpt><trkpt lat="44.0228495" lon="5.6031149"><ele>760.0</ele><time>2026-04-10T08:42:06.872Z</time></trkpt><trkpt lat="44.0229327" lon="5.603114"><ele>760.0</ele><time>2026-04-10T08:42:07.87Z</time></trkpt><trkpt lat="44.0230502" lon="5.6031125"><ele>760.0</ele><time>2026-04-10T08:42:08.872Z</time></trkpt><trkpt lat="44.0231622" lon="5.6030934"><ele>760.0</ele><time>2026-04-10T08:42:09.87Z</time></trkpt><trkpt lat="44.0232822" lon="5.6030648"><ele>760.0</ele><time>2026-04-10T08:42:10.868Z</time></trkpt><trkpt lat="44.0233979" lon="5.6030473"><ele>760.0</ele><time>2026-04-10T08:42:11.878Z</time></trkpt><trkpt lat="44.0235313" lon="5.6030196"><ele>760.0</ele><time>2026-04-10T08:42:12.872Z</time></trkpt><trkpt lat="44.0236442" lon="5.6029979"><ele>761.0</ele><time>2026-04-10T08:42:13.874Z</time></trkpt><trkpt lat="44.0237477" lon="5.6029762"><ele>762.0</ele><time>2026-04-10T08:42:14.872Z</time></trkpt><trkpt lat="44.0238651" lon="5.6029767"><ele>763.0</ele><time>2026-04-10T08:42:15.871Z</time></trkpt><trkpt lat="44.0239835" lon="5.6029994"><ele>764.0</ele><time>2026-04-10T08:42:16.871Z</time></trkpt><trkpt lat="44.0240996" lon="5.6030115"><ele>766.25</ele><time>2026-04-10T08:42:17.874Z</time></trkpt><trkpt lat="44.0242412" lon="5.6030488"><ele>768.5</ele><time>2026-04-10T08:42:18.871Z</time></trkpt><trkpt lat="44.024392" lon="5.6030844"><ele>770.75</ele><time>2026-04-10T08:42:19.873Z</time></trkpt><trkpt lat="44.024542" lon="5.6030911"><ele>773.0</ele><time>2026-04-10T08:42:20.871Z</time></trkpt><trkpt lat="44.0247012" lon="5.60311"><ele>773.0</ele><time>2026-04-10T08:42:21.872Z</time></trkpt><trkpt lat="44.0248444" lon="5.603128"><ele>773.0</ele><time>2026-04-10T08:42:22.873Z</time></trkpt><trkpt lat="44.0249549" lon="5.60313"><ele>773.0</ele><time>2026-04-10T08:42:23.872Z</time></trkpt><trkpt lat="44.0250598" lon="5.6031197"><ele>773.0</ele><time>2026-04-10T08:42:24.871Z</time></trkpt><trkpt lat="44.0251637" lon="5.6031004"><ele>774.3333333333334</ele><time>2026-04-10T08:42:25.873Z</time></trkpt><trkpt lat="44.0252341" lon="5.6030512"><ele>775.6666666666667</ele><time>2026-04-10T08:42:26.872Z</time></trkpt><trkpt lat="44.0253212" lon="5.6030129"><ele>777.0</ele><time>2026-04-10T08:42:27.87Z</time></trkpt><trkpt lat="44.025391" lon="5.6030105"><ele>778.3333333333333</ele><time>2026-04-10T08:42:28.869Z</time></trkpt><trkpt lat="44.025461" lon="5.6030288"><ele>779.6666666666666</ele><time>2026-04-10T08:42:29.873Z</time></trkpt><trkpt lat="44.0255473" lon="5.6030583"><ele>781.0</ele><time>2026-04-10T08:42:30.872Z</time></trkpt><trkpt lat="44.0256474" lon="5.603089"><ele>781.0</ele><time>2026-04-10T08:42:31.871Z</time></trkpt><trkpt lat="44.0257513" lon="5.6031263"><ele>781.0</ele><time>2026-04-10T08:42:32.879Z</time></trkpt><trkpt lat="44.0258632" lon="5.6031508"><ele>781.0</ele><time>2026-04-10T08:42:33.872Z</time></trkpt><trkpt lat="44.025968" lon="5.603151"><ele>781.0</ele><time>2026-04-10T08:42:34.873Z</time></trkpt><trkpt lat="44.0260643" lon="5.6031789"><ele>781.0</ele><time>2026-04-10T08:42:35.871Z</time></trkpt><trkpt lat="44.0261472" lon="5.6031979"><ele>781.1666666666666</ele><time>2026-04-10T08:42:36.872Z</time></trkpt><trkpt lat="44.026227" lon="5.6031923"><ele>781.3333333333333</ele><time>2026-04-10T08:42:37.87Z</time></trkpt><trkpt lat="44.0263134" lon="5.6031864"><ele>781.5</ele><time>2026-04-10T08:42:38.877Z</time></trkpt><trkpt lat="44.0263836" lon="5.6032276"><ele>781.6666666666667</ele><time>2026-04-10T08:42:39.878Z</time></trkpt><trkpt lat="44.0264517" lon="5.6032802"><ele>781.8333333333334</ele><time>2026-04-10T08:42:40.874Z</time></trkpt><trkpt lat="44.0265307" lon="5.6033483"><ele>782.0</ele><time>2026-04-10T08:42:41.87Z</time></trkpt><trkpt lat="44.0265939" lon="5.6034063"><ele>782.6</ele><time>2026-04-10T08:42:42.872Z</time></trkpt><trkpt lat="44.0266609" lon="5.6034381"><ele>783.2</ele><time>2026-04-10T08:42:43.87Z</time></trkpt><trkpt lat="44.0267492" lon="5.6034613"><ele>783.8</ele><time>2026-04-10T08:42:44.869Z</time></trkpt><trkpt lat="44.0268649" lon="5.603453"><ele>784.4</ele><time>2026-04-10T08:42:45.874Z</time></trkpt><trkpt lat="44.0270154" lon="5.6034167"><ele>785.0</ele><time>2026-04-10T08:42:46.876Z</time></trkpt><trkpt lat="44.0271606" lon="5.6033924"><ele>785.0</ele><time>2026-04-10T08:42:47.871Z</time></trkpt><trkpt lat="44.0273048" lon="5.603359"><ele>785.0</ele><time>2026-04-10T08:42:48.872Z</time></trkpt><trkpt lat="44.0274311" lon="5.603322"><ele>785.0</ele><time>2026-04-10T08:42:49.875Z</time></trkpt><trkpt lat="44.0275442" lon="5.6032951"><ele>785.0</ele><time>2026-04-10T08:42:50.873Z</time></trkpt><trkpt lat="44.0276603" lon="5.6032921"><ele>785.25</ele><time>2026-04-10T08:42:51.873Z</time></trkpt><trkpt lat="44.0277955" lon="5.603282"><ele>785.5</ele><time>2026-04-10T08:42:52.895Z</time></trkpt><trkpt lat="44.0279278" lon="5.6032602"><ele>785.75</ele><time>2026-04-10T08:42:53.894Z</time></trkpt><trkpt lat="44.0280599" lon="5.6032272"><ele>786.0</ele><time>2026-04-10T08:42:54.873Z</time></trkpt><trkpt lat="44.0281934" lon="5.6031999"><ele>786.5</ele><time>2026-04-10T08:42:55.874Z</time></trkpt><trkpt lat="44.0283208" lon="5.6031868"><ele>787.0</ele><time>2026-04-10T08:42:56.87Z</time></trkpt><trkpt lat="44.0284504" lon="5.6031688"><ele>787.5</ele><time>2026-04-10T08:42:57.874Z</time></trkpt><trkpt lat="44.0285741" lon="5.6031464"><ele>788.0</ele><time>2026-04-10T08:42:58.873Z</time></trkpt><trkpt lat="44.0286834" lon="5.6031299"><ele>788.0</ele><time>2026-04-10T08:42:59.882Z</time></trkpt><trkpt lat="44.0287825" lon="5.60312"><ele>788.0</ele><time>2026-04-10T08:43:00.879Z</time></trkpt><trkpt lat="44.0288992" lon="5.6031498"><ele>788.0</ele><time>2026-04-10T08:43:01.876Z</time></trkpt><trkpt lat="44.0290219" lon="5.6031798"><ele>788.0</ele><time>2026-04-10T08:43:02.88Z</time></trkpt><trkpt lat="44.0291296" lon="5.6032062"><ele>789.0000000000001</ele><time>2026-04-10T08:43:03.874Z</time></trkpt><trkpt lat="44.029228" lon="5.6032265"><ele>790.0</ele><time>2026-04-10T08:43:04.871Z</time></trkpt><trkpt lat="44.0293127" lon="5.6032389"><ele>791.0</ele><time>2026-04-10T08:43:05.871Z</time></trkpt><trkpt lat="44.0293882" lon="5.6032415"><ele>792.0</ele><time>2026-04-10T08:43:06.872Z</time></trkpt><trkpt lat="44.0294576" lon="5.6032493"><ele>793.0000000000001</ele><time>2026-04-10T08:43:07.872Z</time></trkpt><trkpt lat="44.0295419" lon="5.6032888"><ele>794.0</ele><time>2026-04-10T08:43:08.873Z</time></trkpt><trkpt lat="44.0296239" lon="5.6033269"><ele>794.0</ele><time>2026-04-10T08:43:09.872Z</time></trkpt><trkpt lat="44.0298042" lon="5.6033971"><ele>794.0</ele><time>2026-04-10T08:43:11.872Z</time></trkpt><trkpt lat="44.0299024" lon="5.6034296"><ele>794.0</ele><time>2026-04-10T08:43:12.873Z</time></trkpt><trkpt lat="44.0300019" lon="5.603455"><ele>794.0</ele><time>2026-04-10T08:43:13.874Z</time></trkpt><trkpt lat="44.0301103" lon="5.6034724"><ele>794.25</ele><time>2026-04-10T08:43:14.874Z</time></trkpt><trkpt lat="44.030224" lon="5.6034962"><ele>794.5</ele><time>2026-04-10T08:43:15.871Z</time></trkpt><trkpt lat="44.0303402" lon="5.6035176"><ele>794.75</ele><time>2026-04-10T08:43:16.87Z</time></trkpt><trkpt lat="44.0304675" lon="5.6035317"><ele>795.0</ele><time>2026-04-10T08:43:17.874Z</time></trkpt><trkpt lat="44.0305967" lon="5.6035445"><ele>795.0</ele><time>2026-04-10T08:43:18.879Z</time></trkpt><trkpt lat="44.0307196" lon="5.6035571"><ele>795.0</ele><time>2026-04-10T08:43:19.87Z</time></trkpt><trkpt lat="44.0308397" lon="5.6035617"><ele>795.0</ele><time>2026-04-10T08:43:20.871Z</time></trkpt><trkpt lat="44.0310777" lon="5.6035651"><ele>796.4</ele><time>2026-04-10T08:43:22.873Z</time></trkpt><trkpt lat="44.0311822" lon="5.6036009"><ele>797.8</ele><time>2026-04-10T08:43:23.874Z</time></trkpt><trkpt lat="44.031277" lon="5.6036856"><ele>799.2</ele><time>2026-04-10T08:43:24.871Z</time></trkpt><trkpt lat="44.031356" lon="5.6037954"><ele>800.6</ele><time>2026-04-10T08:43:25.881Z</time></trkpt><trkpt lat="44.0314242" lon="5.6039148"><ele>802.0</ele><time>2026-04-10T08:43:26.873Z</time></trkpt><trkpt lat="44.0314795" lon="5.6040316"><ele>802.0</ele><time>2026-04-10T08:43:27.877Z</time></trkpt><trkpt lat="44.0315114" lon="5.604174"><ele>802.0</ele><time>2026-04-10T08:43:28.87Z</time></trkpt><trkpt lat="44.0315332" lon="5.6043235"><ele>802.0</ele><time>2026-04-10T08:43:29.869Z</time></trkpt><trkpt lat="44.0315568" lon="5.604472"><ele>802.0</ele><time>2026-04-10T08:43:30.873Z</time></trkpt><trkpt lat="44.0316008" lon="5.6046135"><ele>802.0</ele><time>2026-04-10T08:43:31.872Z</time></trkpt><trkpt lat="44.0316525" lon="5.6047568"><ele>801.6</ele><time>2026-04-10T08:43:32.872Z</time></trkpt><trkpt lat="44.031696" lon="5.6048961"><ele>801.2</ele><time>2026-04-10T08:43:33.871Z</time></trkpt><trkpt lat="44.0317212" lon="5.6050351"><ele>800.8</ele><time>2026-04-10T08:43:34.874Z</time></trkpt><trkpt lat="44.0317491" lon="5.6051657"><ele>800.4</ele><time>2026-04-10T08:43:35.874Z</time></trkpt><trkpt lat="44.031792" lon="5.6052861"><ele>800.0</ele><time>2026-04-10T08:43:36.871Z</time></trkpt><trkpt lat="44.0318575" lon="5.6054048"><ele>801.6</ele><time>2026-04-10T08:43:37.878Z</time></trkpt><trkpt lat="44.0319382" lon="5.605521"><ele>803.2</ele><time>2026-04-10T08:43:38.869Z</time></trkpt><trkpt lat="44.0320122" lon="5.6056255"><ele>804.8</ele><time>2026-04-10T08:43:39.872Z</time></trkpt><trkpt lat="44.0320904" lon="5.6057253"><ele>806.4</ele><time>2026-04-10T08:43:40.871Z</time></trkpt><trkpt lat="44.0321753" lon="5.6057706"><ele>808.0</ele><time>2026-04-10T08:43:41.87Z</time></trkpt><trkpt lat="44.0322765" lon="5.6058038"><ele>808.0</ele><time>2026-04-10T08:43:42.877Z</time></trkpt><trkpt lat="44.0323736" lon="5.6058315"><ele>808.0</ele><time>2026-04-10T08:43:43.87Z</time></trkpt><trkpt lat="44.0324711" lon="5.6058406"><ele>808.0</ele><time>2026-04-10T08:43:44.874Z</time></trkpt><trkpt lat="44.0325692" lon="5.6058294"><ele>808.0</ele><time>2026-04-10T08:43:45.874Z</time></trkpt><trkpt lat="44.0326663" lon="5.6057881"><ele>808.0</ele><time>2026-04-10T08:43:46.874Z</time></trkpt><trkpt lat="44.0327594" lon="5.6057188"><ele>807.25</ele><time>2026-04-10T08:43:47.871Z</time></trkpt><trkpt lat="44.0328523" lon="5.6056329"><ele>806.5</ele><time>2026-04-10T08:43:48.872Z</time></trkpt><trkpt lat="44.0329536" lon="5.6055178"><ele>805.75</ele><time>2026-04-10T08:43:49.87Z</time></trkpt><trkpt lat="44.0330568" lon="5.6053961"><ele>805.0</ele><time>2026-04-10T08:43:50.872Z</time></trkpt><trkpt lat="44.0331753" lon="5.6052832"><ele>807.0</ele><time>2026-04-10T08:43:51.87Z</time></trkpt><trkpt lat="44.0332926" lon="5.6051433"><ele>809.0</ele><time>2026-04-10T08:43:52.868Z</time></trkpt><trkpt lat="44.0334109" lon="5.604987"><ele>811.0</ele><time>2026-04-10T08:43:53.87Z</time></trkpt><trkpt lat="44.0335216" lon="5.6048434"><ele>812.5</ele><time>2026-04-10T08:43:54.872Z</time></trkpt><trkpt lat="44.0336335" lon="5.6047135"><ele>814.0</ele><time>2026-04-10T08:43:55.87Z</time></trkpt><trkpt lat="44.0337479" lon="5.6045892"><ele>815.5</ele><time>2026-04-10T08:43:56.871Z</time></trkpt><trkpt lat="44.0338575" lon="5.6044878"><ele>817.0</ele><time>2026-04-10T08:43:57.869Z</time></trkpt><trkpt lat="44.0339447" lon="5.6044155"><ele>817.3333333333333</ele><time>2026-04-10T08:43:58.867Z</time></trkpt><trkpt lat="44.0340171" lon="5.6043675"><ele>817.6666666666666</ele><time>2026-04-10T08:43:59.87Z</time></trkpt><trkpt lat="44.034101" lon="5.604345"><ele>818.0</ele><time>2026-04-10T08:44:01.873Z</time></trkpt><trkpt lat="44.0341619" lon="5.6043104"><ele>818.3333333333333</ele><time>2026-04-10T08:44:04.871Z</time></trkpt><trkpt lat="44.0342303" lon="5.6043063"><ele>818.6666666666666</ele><time>2026-04-10T08:44:26.871Z</time></trkpt><trkpt lat="44.034361" lon="5.6042879"><ele>819.0</ele><time>2026-04-10T08:44:28.87Z</time></trkpt><trkpt lat="44.034446" lon="5.6042905"><ele>819.0</ele><time>2026-04-10T08:44:29.874Z</time></trkpt><trkpt lat="44.0345217" lon="5.6043156"><ele>819.0</ele><time>2026-04-10T08:44:30.868Z</time></trkpt><trkpt lat="44.0346191" lon="5.6043483"><ele>819.0</ele><time>2026-04-10T08:44:31.871Z</time></trkpt><trkpt lat="44.0347096" lon="5.6044023"><ele>819.0</ele><time>2026-04-10T08:44:32.873Z</time></trkpt><trkpt lat="44.0347951" lon="5.6044452"><ele>819.0</ele><time>2026-04-10T08:44:33.869Z</time></trkpt><trkpt lat="44.0348731" lon="5.6044907"><ele>822.0</ele><time>2026-04-10T08:44:34.871Z</time></trkpt><trkpt lat="44.0349674" lon="5.6045509"><ele>825.0</ele><time>2026-04-10T08:44:35.872Z</time></trkpt><trkpt lat="44.0350671" lon="5.6046091"><ele>828.0</ele><time>2026-04-10T08:44:36.874Z</time></trkpt><trkpt lat="44.0351693" lon="5.6046635"><ele>831.0</ele><time>2026-04-10T08:44:37.869Z</time></trkpt><trkpt lat="44.0352693" lon="5.6047367"><ele>834.0</ele><time>2026-04-10T08:44:38.87Z</time></trkpt><trkpt lat="44.0353659" lon="5.6047933"><ele>833.8000000000001</ele><time>2026-04-10T08:44:39.872Z</time></trkpt><trkpt lat="44.0354596" lon="5.6048314"><ele>833.6</ele><time>2026-04-10T08:44:40.883Z</time></trkpt><trkpt lat="44.0355604" lon="5.6048545"><ele>833.4</ele><time>2026-04-10T08:44:41.873Z</time></trkpt><trkpt lat="44.0356637" lon="5.6048317"><ele>833.2</ele><time>2026-04-10T08:44:42.871Z</time></trkpt><trkpt lat="44.0357716" lon="5.6048081"><ele>833.0</ele><time>2026-04-10T08:44:43.871Z</time></trkpt><trkpt lat="44.0358901" lon="5.6047688"><ele>833.0</ele><time>2026-04-10T08:44:44.875Z</time></trkpt><trkpt lat="44.0359864" lon="5.6047082"><ele>833.0</ele><time>2026-04-10T08:44:45.868Z</time></trkpt><trkpt lat="44.0361017" lon="5.6046325"><ele>833.0</ele><time>2026-04-10T08:44:46.878Z</time></trkpt><trkpt lat="44.0362146" lon="5.6045622"><ele>833.0</ele><time>2026-04-10T08:44:47.872Z</time></trkpt><trkpt lat="44.036334" lon="5.6045177"><ele>832.75</ele><time>2026-04-10T08:44:48.874Z</time></trkpt><trkpt lat="44.0364471" lon="5.6044559"><ele>832.5</ele><time>2026-04-10T08:44:49.871Z</time></trkpt><trkpt lat="44.0365596" lon="5.6044212"><ele>832.25</ele><time>2026-04-10T08:44:50.872Z</time></trkpt><trkpt lat="44.0366745" lon="5.6043727"><ele>832.0</ele><time>2026-04-10T08:44:51.883Z</time></trkpt><trkpt lat="44.0367778" lon="5.6043029"><ele>832.5</ele><time>2026-04-10T08:44:52.874Z</time></trkpt><trkpt lat="44.0368914" lon="5.6042157"><ele>833.0</ele><time>2026-04-10T08:44:53.868Z</time></trkpt><trkpt lat="44.0370058" lon="5.6041171"><ele>833.5</ele><time>2026-04-10T08:44:54.872Z</time></trkpt><trkpt lat="44.0371163" lon="5.604019"><ele>834.0</ele><time>2026-04-10T08:44:55.874Z</time></trkpt><trkpt lat="44.0372141" lon="5.6039453"><ele>834.0</ele><time>2026-04-10T08:44:56.872Z</time></trkpt><trkpt lat="44.0373149" lon="5.6038745"><ele>834.0</ele><time>2026-04-10T08:44:57.869Z</time></trkpt><trkpt lat="44.037415" lon="5.6038115"><ele>834.0</ele><time>2026-04-10T08:44:58.872Z</time></trkpt><trkpt lat="44.0375236" lon="5.6037646"><ele>834.0</ele><time>2026-04-10T08:44:59.871Z</time></trkpt><trkpt lat="44.0376349" lon="5.6037621"><ele>834.0</ele><time>2026-04-10T08:45:00.871Z</time></trkpt><trkpt lat="44.0377304" lon="5.6037857"><ele>834.5</ele><time>2026-04-10T08:45:01.87Z</time></trkpt><trkpt lat="44.0378368" lon="5.6038192"><ele>835.0</ele><time>2026-04-10T08:45:02.87Z</time></trkpt><trkpt lat="44.0379602" lon="5.6038568"><ele>835.5</ele><time>2026-04-10T08:45:03.872Z</time></trkpt><trkpt lat="44.0380769" lon="5.6038697"><ele>836.0</ele><time>2026-04-10T08:45:04.87Z</time></trkpt><trkpt lat="44.0381993" lon="5.6038796"><ele>837.25</ele><time>2026-04-10T08:45:05.871Z</time></trkpt><trkpt lat="44.0383282" lon="5.6039255"><ele>838.5</ele><time>2026-04-10T08:45:06.869Z</time></trkpt><trkpt lat="44.0384614" lon="5.6039739"><ele>839.75</ele><time>2026-04-10T08:45:07.87Z</time></trkpt><trkpt lat="44.038585" lon="5.6040301"><ele>841.0</ele><time>2026-04-10T08:45:08.873Z</time></trkpt><trkpt lat="44.0387045" lon="5.6041008"><ele>841.0</ele><time>2026-04-10T08:45:09.872Z</time></trkpt><trkpt lat="44.0388018" lon="5.6042148"><ele>841.0</ele><time>2026-04-10T08:45:10.876Z</time></trkpt><trkpt lat="44.0388938" lon="5.6043326"><ele>841.0</ele><time>2026-04-10T08:45:11.869Z</time></trkpt><trkpt lat="44.0389965" lon="5.6044322"><ele>841.0</ele><time>2026-04-10T08:45:12.87Z</time></trkpt><trkpt lat="44.0391068" lon="5.6045279"><ele>844.0</ele><time>2026-04-10T08:45:13.871Z</time></trkpt><trkpt lat="44.0392199" lon="5.6046339"><ele>847.0</ele><time>2026-04-10T08:45:14.87Z</time></trkpt><trkpt lat="44.0393187" lon="5.6047412"><ele>850.0</ele><time>2026-04-10T08:45:15.868Z</time></trkpt><trkpt lat="44.0394039" lon="5.6048401"><ele>853.0</ele><time>2026-04-10T08:45:16.87Z</time></trkpt><trkpt lat="44.0394783" lon="5.6049031"><ele>853.0</ele><time>2026-04-10T08:45:17.872Z</time></trkpt><trkpt lat="44.0395801" lon="5.6049262"><ele>853.0</ele><time>2026-04-10T08:45:18.868Z</time></trkpt><trkpt lat="44.0396865" lon="5.6049185"><ele>853.0</ele><time>2026-04-10T08:45:19.876Z</time></trkpt><trkpt lat="44.0397949" lon="5.6048983"><ele>853.0</ele><time>2026-04-10T08:45:20.871Z</time></trkpt><trkpt lat="44.0399052" lon="5.6048741"><ele>853.0</ele><time>2026-04-10T08:45:21.87Z</time></trkpt><trkpt lat="44.0400386" lon="5.6048426"><ele>851.5</ele><time>2026-04-10T08:45:22.868Z</time></trkpt><trkpt lat="44.0401762" lon="5.6048113"><ele>850.0</ele><time>2026-04-10T08:45:23.873Z</time></trkpt><trkpt lat="44.0403109" lon="5.6047808"><ele>848.5</ele><time>2026-04-10T08:45:24.877Z</time></trkpt><trkpt lat="44.0404271" lon="5.6047409"><ele>847.0</ele><time>2026-04-10T08:45:25.868Z</time></trkpt><trkpt lat="44.0405274" lon="5.6046815"><ele>847.0</ele><time>2026-04-10T08:45:26.867Z</time></trkpt><trkpt lat="44.0406261" lon="5.6046074"><ele>847.0</ele><time>2026-04-10T08:45:27.868Z</time></trkpt><trkpt lat="44.0407243" lon="5.6045254"><ele>847.0</ele><time>2026-04-10T08:45:28.871Z</time></trkpt><trkpt lat="44.0408363" lon="5.6044402"><ele>847.0</ele><time>2026-04-10T08:45:29.871Z</time></trkpt><trkpt lat="44.040947" lon="5.6043604"><ele>848.75</ele><time>2026-04-10T08:45:30.872Z</time></trkpt><trkpt lat="44.0410534" lon="5.6042934"><ele>850.5</ele><time>2026-04-10T08:45:31.869Z</time></trkpt><trkpt lat="44.0411722" lon="5.6042409"><ele>852.25</ele><time>2026-04-10T08:45:32.868Z</time></trkpt><trkpt lat="44.0413012" lon="5.6042098"><ele>854.0</ele><time>2026-04-10T08:45:33.869Z</time></trkpt><trkpt lat="44.0414291" lon="5.6041858"><ele>854.0</ele><time>2026-04-10T08:45:34.87Z</time></trkpt><trkpt lat="44.0415549" lon="5.6041612"><ele>854.0</ele><time>2026-04-10T08:45:35.871Z</time></trkpt><trkpt lat="44.0416775" lon="5.6041246"><ele>854.0</ele><time>2026-04-10T08:45:36.88Z</time></trkpt><trkpt lat="44.0418091" lon="5.6040836"><ele>854.0</ele><time>2026-04-10T08:45:37.868Z</time></trkpt><trkpt lat="44.0419301" lon="5.6040394"><ele>854.0</ele><time>2026-04-10T08:45:38.87Z</time></trkpt><trkpt lat="44.0420511" lon="5.6039925"><ele>854.0</ele><time>2026-04-10T08:45:39.871Z</time></trkpt><trkpt lat="44.0421666" lon="5.6039677"><ele>854.0</ele><time>2026-04-10T08:45:40.869Z</time></trkpt><trkpt lat="44.0422848" lon="5.6039575"><ele>854.0</ele><time>2026-04-10T08:45:41.87Z</time></trkpt><trkpt lat="44.0424085" lon="5.6039557"><ele>854.5</ele><time>2026-04-10T08:45:42.87Z</time></trkpt><trkpt lat="44.0425235" lon="5.6039912"><ele>855.0</ele><time>2026-04-10T08:45:43.87Z</time></trkpt><trkpt lat="44.0426375" lon="5.6040559"><ele>855.5</ele><time>2026-04-10T08:45:44.868Z</time></trkpt><trkpt lat="44.0427323" lon="5.6041425"><ele>856.0</ele><time>2026-04-10T08:45:45.87Z</time></trkpt><trkpt lat="44.0428234" lon="5.6042497"><ele>856.0</ele><time>2026-04-10T08:45:46.874Z</time></trkpt><trkpt lat="44.0429186" lon="5.6043637"><ele>856.0</ele><time>2026-04-10T08:45:47.868Z</time></trkpt><trkpt lat="44.0430193" lon="5.6044826"><ele>856.0</ele><time>2026-04-10T08:45:48.871Z</time></trkpt><trkpt lat="44.0431156" lon="5.6046013"><ele>856.0</ele><time>2026-04-10T08:45:49.871Z</time></trkpt><trkpt lat="44.0432008" lon="5.6047106"><ele>857.5</ele><time>2026-04-10T08:45:50.872Z</time></trkpt><trkpt lat="44.0432927" lon="5.6047974"><ele>859.0</ele><time>2026-04-10T08:45:51.87Z</time></trkpt><trkpt lat="44.0433946" lon="5.6048777"><ele>860.5</ele><time>2026-04-10T08:45:52.87Z</time></trkpt><trkpt lat="44.0435107" lon="5.6049289"><ele>862.0</ele><time>2026-04-10T08:45:53.869Z</time></trkpt><trkpt lat="44.0436254" lon="5.6049755"><ele>862.0</ele><time>2026-04-10T08:45:54.872Z</time></trkpt><trkpt lat="44.043738" lon="5.605035"><ele>862.0</ele><time>2026-04-10T08:45:55.867Z</time></trkpt><trkpt lat="44.0438421" lon="5.6050826"><ele>862.0</ele><time>2026-04-10T08:45:56.87Z</time></trkpt><trkpt lat="44.0439422" lon="5.6051016"><ele>862.0</ele><time>2026-04-10T08:45:57.867Z</time></trkpt><trkpt lat="44.0440282" lon="5.6051113"><ele>862.0</ele><time>2026-04-10T08:45:58.866Z</time></trkpt><trkpt lat="44.0441091" lon="5.6050957"><ele>862.4000000000001</ele><time>2026-04-10T08:45:59.872Z</time></trkpt><trkpt lat="44.0441973" lon="5.605054"><ele>862.8000000000001</ele><time>2026-04-10T08:46:00.871Z</time></trkpt><trkpt lat="44.0442931" lon="5.6049978"><ele>863.2</ele><time>2026-04-10T08:46:01.867Z</time></trkpt><trkpt lat="44.0443879" lon="5.6049323"><ele>863.6</ele><time>2026-04-10T08:46:02.874Z</time></trkpt><trkpt lat="44.0444882" lon="5.6048621"><ele>864.0</ele><time>2026-04-10T08:46:03.868Z</time></trkpt><trkpt lat="44.0445896" lon="5.6047836"><ele>864.0</ele><time>2026-04-10T08:46:04.87Z</time></trkpt><trkpt lat="44.0446877" lon="5.6046959"><ele>864.0</ele><time>2026-04-10T08:46:05.877Z</time></trkpt><trkpt lat="44.0447789" lon="5.6045936"><ele>864.0</ele><time>2026-04-10T08:46:06.872Z</time></trkpt><trkpt lat="44.0448711" lon="5.6044774"><ele>864.0</ele><time>2026-04-10T08:46:07.87Z</time></trkpt><trkpt lat="44.0449569" lon="5.6043405"><ele>865.4000000000001</ele><time>2026-04-10T08:46:08.871Z</time></trkpt><trkpt lat="44.045028" lon="5.6041942"><ele>866.8000000000001</ele><time>2026-04-10T08:46:09.877Z</time></trkpt><trkpt lat="44.0450848" lon="5.6040849"><ele>868.1999999999999</ele><time>2026-04-10T08:46:10.872Z</time></trkpt><trkpt lat="44.0451193" lon="5.6039951"><ele>869.5999999999999</ele><time>2026-04-10T08:46:11.873Z</time></trkpt><trkpt lat="44.0451148" lon="5.6038242"><ele>871.0</ele><time>2026-04-10T08:46:13.872Z</time></trkpt><trkpt lat="44.0450841" lon="5.6037008"><ele>872.0</ele><time>2026-04-10T08:46:14.877Z</time></trkpt><trkpt lat="44.0450383" lon="5.6035588"><ele>873.0</ele><time>2026-04-10T08:46:15.877Z</time></trkpt><trkpt lat="44.0449868" lon="5.6034032"><ele>874.0</ele><time>2026-04-10T08:46:16.875Z</time></trkpt><trkpt lat="44.0449323" lon="5.60325"><ele>875.0</ele><time>2026-04-10T08:46:17.872Z</time></trkpt><trkpt lat="44.044879" lon="5.6031024"><ele>878.0</ele><time>2026-04-10T08:46:18.871Z</time></trkpt><trkpt lat="44.0448191" lon="5.6029628"><ele>881.0</ele><time>2026-04-10T08:46:19.873Z</time></trkpt><trkpt lat="44.0447656" lon="5.6028287"><ele>884.0</ele><time>2026-04-10T08:46:20.871Z</time></trkpt><trkpt lat="44.0447301" lon="5.6027051"><ele>887.0</ele><time>2026-04-10T08:46:21.873Z</time></trkpt><trkpt lat="44.0447196" lon="5.6025852"><ele>890.0</ele><time>2026-04-10T08:46:22.87Z</time></trkpt><trkpt lat="44.0447257" lon="5.6024605"><ele>891.8</ele><time>2026-04-10T08:46:23.868Z</time></trkpt><trkpt lat="44.044752" lon="5.6023148"><ele>893.6</ele><time>2026-04-10T08:46:24.878Z</time></trkpt><trkpt lat="44.0447834" lon="5.6021889"><ele>895.4000000000001</ele><time>2026-04-10T08:46:25.874Z</time></trkpt><trkpt lat="44.044793" lon="5.6020737"><ele>897.2</ele><time>2026-04-10T08:46:26.872Z</time></trkpt><trkpt lat="44.0447735" lon="5.6019398"><ele>899.0</ele><time>2026-04-10T08:46:27.873Z</time></trkpt><trkpt lat="44.0447669" lon="5.6017924"><ele>899.3333333333334</ele><time>2026-04-10T08:46:28.871Z</time></trkpt><trkpt lat="44.0447459" lon="5.6016527"><ele>899.6666666666667</ele><time>2026-04-10T08:46:29.872Z</time></trkpt><trkpt lat="44.0447028" lon="5.6015383"><ele>900.0</ele><time>2026-04-10T08:46:30.87Z</time></trkpt><trkpt lat="44.0446515" lon="5.60144"><ele>900.3333333333333</ele><time>2026-04-10T08:46:31.87Z</time></trkpt><trkpt lat="44.0446033" lon="5.6013587"><ele>900.6666666666666</ele><time>2026-04-10T08:46:32.873Z</time></trkpt><trkpt lat="44.0445714" lon="5.6012686"><ele>901.0</ele><time>2026-04-10T08:46:33.87Z</time></trkpt><trkpt lat="44.0445679" lon="5.6011682"><ele>900.1999999999999</ele><time>2026-04-10T08:46:34.872Z</time></trkpt><trkpt lat="44.0445688" lon="5.6010619"><ele>899.3999999999999</ele><time>2026-04-10T08:46:35.875Z</time></trkpt><trkpt lat="44.0445731" lon="5.600911"><ele>898.6</ele><time>2026-04-10T08:46:36.872Z</time></trkpt><trkpt lat="44.0445767" lon="5.6007514"><ele>897.8</ele><time>2026-04-10T08:46:37.871Z</time></trkpt><trkpt lat="44.0445623" lon="5.60061"><ele>897.0</ele><time>2026-04-10T08:46:38.875Z</time></trkpt><trkpt lat="44.0445364" lon="5.6004835"><ele>897.0</ele><time>2026-04-10T08:46:39.871Z</time></trkpt><trkpt lat="44.0444917" lon="5.60037"><ele>897.0</ele><time>2026-04-10T08:46:40.873Z</time></trkpt><trkpt lat="44.0444389" lon="5.6002664"><ele>897.0</ele><time>2026-04-10T08:46:41.872Z</time></trkpt><trkpt lat="44.0443832" lon="5.6001565"><ele>897.0</ele><time>2026-04-10T08:46:42.871Z</time></trkpt><trkpt lat="44.044336" lon="5.6000411"><ele>897.0</ele><time>2026-04-10T08:46:43.879Z</time></trkpt><trkpt lat="44.044275" lon="5.5999388"><ele>897.2</ele><time>2026-04-10T08:46:44.873Z</time></trkpt><trkpt lat="44.0442095" lon="5.5998395"><ele>897.4000000000001</ele><time>2026-04-10T08:46:45.87Z</time></trkpt><trkpt lat="44.0441424" lon="5.5997389"><ele>897.5999999999999</ele><time>2026-04-10T08:46:46.873Z</time></trkpt><trkpt lat="44.0440686" lon="5.5996416"><ele>897.8</ele><time>2026-04-10T08:46:47.869Z</time></trkpt><trkpt lat="44.0439954" lon="5.599543"><ele>898.0</ele><time>2026-04-10T08:46:48.872Z</time></trkpt><trkpt lat="44.04393" lon="5.5994274"><ele>901.4</ele><time>2026-04-10T08:46:49.87Z</time></trkpt><trkpt lat="44.043879" lon="5.5993021"><ele>904.8</ele><time>2026-04-10T08:46:50.871Z</time></trkpt><trkpt lat="44.0438391" lon="5.5991712"><ele>908.2</ele><time>2026-04-10T08:46:51.872Z</time></trkpt><trkpt lat="44.0437937" lon="5.5990426"><ele>911.6</ele><time>2026-04-10T08:46:52.872Z</time></trkpt><trkpt lat="44.0437672" lon="5.5989416"><ele>915.0</ele><time>2026-04-10T08:46:53.874Z</time></trkpt><trkpt lat="44.0437473" lon="5.59885"><ele>915.0</ele><time>2026-04-10T08:46:54.872Z</time></trkpt><trkpt lat="44.0437285" lon="5.5987346"><ele>915.0</ele><time>2026-04-10T08:46:55.872Z</time></trkpt><trkpt lat="44.0437062" lon="5.5986139"><ele>915.0</ele><time>2026-04-10T08:46:56.872Z</time></trkpt><trkpt lat="44.0436847" lon="5.5984854"><ele>915.0</ele><time>2026-04-10T08:46:57.869Z</time></trkpt><trkpt lat="44.0436731" lon="5.5983553"><ele>915.0</ele><time>2026-04-10T08:46:58.867Z</time></trkpt><trkpt lat="44.0436688" lon="5.5982346"><ele>915.1666666666666</ele><time>2026-04-10T08:46:59.872Z</time></trkpt><trkpt lat="44.0436639" lon="5.5981306"><ele>915.3333333333333</ele><time>2026-04-10T08:47:00.871Z</time></trkpt><trkpt lat="44.0436697" lon="5.598038"><ele>915.5</ele><time>2026-04-10T08:47:01.869Z</time></trkpt><trkpt lat="44.0436714" lon="5.5979357"><ele>915.6666666666666</ele><time>2026-04-10T08:47:02.869Z</time></trkpt><trkpt lat="44.0436908" lon="5.5978036"><ele>915.8333333333333</ele><time>2026-04-10T08:47:03.876Z</time></trkpt><trkpt lat="44.0437076" lon="5.5976622"><ele>916.0</ele><time>2026-04-10T08:47:04.875Z</time></trkpt><trkpt lat="44.0437245" lon="5.5975279"><ele>916.5999999999999</ele><time>2026-04-10T08:47:05.879Z</time></trkpt><trkpt lat="44.0437443" lon="5.5973906"><ele>917.1999999999999</ele><time>2026-04-10T08:47:06.87Z</time></trkpt><trkpt lat="44.0437633" lon="5.5972635"><ele>917.8000000000001</ele><time>2026-04-10T08:47:07.872Z</time></trkpt><trkpt lat="44.0438067" lon="5.5971505"><ele>918.4000000000001</ele><time>2026-04-10T08:47:08.872Z</time></trkpt><trkpt lat="44.0438442" lon="5.5970564"><ele>919.0</ele><time>2026-04-10T08:47:09.873Z</time></trkpt><trkpt lat="44.0438717" lon="5.5968961"><ele>919.6</ele><time>2026-04-10T08:47:11.873Z</time></trkpt><trkpt lat="44.0438358" lon="5.5967407"><ele>920.2</ele><time>2026-04-10T08:47:13.873Z</time></trkpt><trkpt lat="44.0437698" lon="5.5966563"><ele>920.8000000000001</ele><time>2026-04-10T08:47:14.868Z</time></trkpt><trkpt lat="44.043699" lon="5.596562"><ele>921.4000000000001</ele><time>2026-04-10T08:47:15.875Z</time></trkpt><trkpt lat="44.0436285" lon="5.596465"><ele>922.0</ele><time>2026-04-10T08:47:16.871Z</time></trkpt><trkpt lat="44.0435694" lon="5.5963605"><ele>922.0</ele><time>2026-04-10T08:47:17.87Z</time></trkpt><trkpt lat="44.0435114" lon="5.5962386"><ele>922.0</ele><time>2026-04-10T08:47:18.88Z</time></trkpt><trkpt lat="44.0434514" lon="5.5961191"><ele>922.0</ele><time>2026-04-10T08:47:19.875Z</time></trkpt><trkpt lat="44.0433714" lon="5.5959898"><ele>922.0</ele><time>2026-04-10T08:47:20.874Z</time></trkpt><trkpt lat="44.0433016" lon="5.5958553"><ele>925.25</ele><time>2026-04-10T08:47:21.872Z</time></trkpt><trkpt lat="44.043241" lon="5.5957014"><ele>928.5</ele><time>2026-04-10T08:47:22.869Z</time></trkpt><trkpt lat="44.0431982" lon="5.5955437"><ele>931.75</ele><time>2026-04-10T08:47:23.873Z</time></trkpt><trkpt lat="44.0431497" lon="5.595399"><ele>935.0</ele><time>2026-04-10T08:47:24.871Z</time></trkpt><trkpt lat="44.043091" lon="5.5952605"><ele>935.25</ele><time>2026-04-10T08:47:25.872Z</time></trkpt><trkpt lat="44.0430278" lon="5.5951132"><ele>935.5</ele><time>2026-04-10T08:47:26.873Z</time></trkpt><trkpt lat="44.0429594" lon="5.5949687"><ele>935.75</ele><time>2026-04-10T08:47:27.868Z</time></trkpt><trkpt lat="44.0429017" lon="5.5948321"><ele>936.0</ele><time>2026-04-10T08:47:28.871Z</time></trkpt><trkpt lat="44.0428447" lon="5.5946936"><ele>936.0</ele><time>2026-04-10T08:47:29.869Z</time></trkpt><trkpt lat="44.0427915" lon="5.5945634"><ele>935.9999999999999</ele><time>2026-04-10T08:47:30.87Z</time></trkpt><trkpt lat="44.0427326" lon="5.594439"><ele>935.9999999999999</ele><time>2026-04-10T08:47:31.873Z</time></trkpt><trkpt lat="44.0426934" lon="5.5943311"><ele>936.0</ele><time>2026-04-10T08:47:32.873Z</time></trkpt><trkpt lat="44.0426897" lon="5.5941734"><ele>936.0</ele><time>2026-04-10T08:47:34.871Z</time></trkpt><trkpt lat="44.0427054" lon="5.5940856"><ele>936.3333333333334</ele><time>2026-04-10T08:47:35.872Z</time></trkpt><trkpt lat="44.0427316" lon="5.5939815"><ele>936.6666666666667</ele><time>2026-04-10T08:47:37.897Z</time></trkpt><trkpt lat="44.0427544" lon="5.5938673"><ele>937.0</ele><time>2026-04-10T08:47:39.877Z</time></trkpt><trkpt lat="44.042719" lon="5.5937942"><ele>937.3333333333334</ele><time>2026-04-10T08:47:41.89Z</time></trkpt><trkpt lat="44.042735" lon="5.593657"><ele>937.6666666666667</ele><time>2026-04-10T08:47:45.874Z</time></trkpt><trkpt lat="44.0427516" lon="5.5935683"><ele>938.0</ele><time>2026-04-10T08:47:46.873Z</time></trkpt><trkpt lat="44.0427627" lon="5.5934566"><ele>938.0</ele><time>2026-04-10T08:47:47.872Z</time></trkpt><trkpt lat="44.0427987" lon="5.5933281"><ele>938.0</ele><time>2026-04-10T08:47:48.872Z</time></trkpt><trkpt lat="44.0428343" lon="5.5931893"><ele>938.0</ele><time>2026-04-10T08:47:49.874Z</time></trkpt><trkpt lat="44.0428703" lon="5.5930505"><ele>938.0</ele><time>2026-04-10T08:47:50.873Z</time></trkpt><trkpt lat="44.0429085" lon="5.5929129"><ele>938.0</ele><time>2026-04-10T08:47:51.87Z</time></trkpt><trkpt lat="44.0429523" lon="5.5927719"><ele>938.6666666666667</ele><time>2026-04-10T08:47:52.871Z</time></trkpt><trkpt lat="44.0429931" lon="5.5926522"><ele>939.3333333333334</ele><time>2026-04-10T08:47:53.871Z</time></trkpt><trkpt lat="44.0430298" lon="5.5925713"><ele>940.0</ele><time>2026-04-10T08:47:54.872Z</time></trkpt><trkpt lat="44.0430444" lon="5.5924792"><ele>940.6666666666667</ele><time>2026-04-10T08:47:56.873Z</time></trkpt><trkpt lat="44.0429737" lon="5.5924761"><ele>941.3333333333334</ele><time>2026-04-10T08:48:32.879Z</time></trkpt><trkpt lat="44.0429408" lon="5.5925537"><ele>942.0</ele><time>2026-04-10T08:48:34.88Z</time></trkpt><trkpt lat="44.0428204" lon="5.5926817"><ele>942.0</ele><time>2026-04-10T08:48:36.874Z</time></trkpt><trkpt lat="44.0427483" lon="5.5927364"><ele>942.0</ele><time>2026-04-10T08:48:37.877Z</time></trkpt><trkpt lat="44.0426552" lon="5.5927893"><ele>942.0</ele><time>2026-04-10T08:48:38.877Z</time></trkpt><trkpt lat="44.0425966" lon="5.5928774"><ele>942.0</ele><time>2026-04-10T08:48:39.881Z</time></trkpt><trkpt lat="44.0425258" lon="5.5929518"><ele>942.0</ele><time>2026-04-10T08:48:40.881Z</time></trkpt><trkpt lat="44.0424492" lon="5.5930328"><ele>944.0</ele><time>2026-04-10T08:48:41.878Z</time></trkpt><trkpt lat="44.0423518" lon="5.5931328"><ele>946.0</ele><time>2026-04-10T08:48:42.877Z</time></trkpt><trkpt lat="44.0421262" lon="5.5933181"><ele>948.0</ele><time>2026-04-10T08:48:44.876Z</time></trkpt><trkpt lat="44.0420312" lon="5.5934147"><ele>948.0</ele><time>2026-04-10T08:48:45.88Z</time></trkpt><trkpt lat="44.0419291" lon="5.5935055"><ele>948.0</ele><time>2026-04-10T08:48:46.875Z</time></trkpt><trkpt lat="44.0418319" lon="5.5935797"><ele>948.0</ele><time>2026-04-10T08:48:47.885Z</time></trkpt><trkpt lat="44.0417368" lon="5.5936575"><ele>948.0</ele><time>2026-04-10T08:48:48.879Z</time></trkpt><trkpt lat="44.0416559" lon="5.5937356"><ele>948.0</ele><time>2026-04-10T08:48:49.881Z</time></trkpt><trkpt lat="44.0415789" lon="5.593823"><ele>948.5</ele><time>2026-04-10T08:48:50.88Z</time></trkpt><trkpt lat="44.0414927" lon="5.593917"><ele>949.0</ele><time>2026-04-10T08:48:51.874Z</time></trkpt><trkpt lat="44.041426" lon="5.5939998"><ele>949.5</ele><time>2026-04-10T08:48:52.871Z</time></trkpt><trkpt lat="44.0413566" lon="5.5940478"><ele>950.0</ele><time>2026-04-10T08:48:53.874Z</time></trkpt><trkpt lat="44.0412926" lon="5.594084"><ele>950.5</ele><time>2026-04-10T08:48:54.875Z</time></trkpt><trkpt lat="44.0412207" lon="5.5941068"><ele>951.0</ele><time>2026-04-10T08:48:55.875Z</time></trkpt><trkpt lat="44.0411132" lon="5.5941076"><ele>951.0</ele><time>2026-04-10T08:48:57.869Z</time></trkpt><trkpt lat="44.0410455" lon="5.5940449"><ele>950.9999999999999</ele><time>2026-04-10T08:48:59.877Z</time></trkpt><trkpt lat="44.0409982" lon="5.5938954"><ele>950.9999999999999</ele><time>2026-04-10T08:49:01.874Z</time></trkpt><trkpt lat="44.0409891" lon="5.5937945"><ele>951.0</ele><time>2026-04-10T08:49:02.87Z</time></trkpt><trkpt lat="44.040988" lon="5.5936709"><ele>951.0</ele><time>2026-04-10T08:49:03.869Z</time></trkpt><trkpt lat="44.0409853" lon="5.5935431"><ele>950.8</ele><time>2026-04-10T08:49:04.872Z</time></trkpt><trkpt lat="44.0409843" lon="5.5933998"><ele>950.5999999999999</ele><time>2026-04-10T08:49:05.873Z</time></trkpt><trkpt lat="44.0409855" lon="5.5932566"><ele>950.4</ele><time>2026-04-10T08:49:06.874Z</time></trkpt><trkpt lat="44.040989" lon="5.5931167"><ele>950.2</ele><time>2026-04-10T08:49:07.873Z</time></trkpt><trkpt lat="44.0409955" lon="5.592958"><ele>950.0</ele><time>2026-04-10T08:49:08.872Z</time></trkpt><trkpt lat="44.0410022" lon="5.5927824"><ele>950.5</ele><time>2026-04-10T08:49:09.872Z</time></trkpt><trkpt lat="44.0410263" lon="5.5925948"><ele>951.0</ele><time>2026-04-10T08:49:10.872Z</time></trkpt><trkpt lat="44.0410449" lon="5.5924009"><ele>951.5</ele><time>2026-04-10T08:49:11.871Z</time></trkpt><trkpt lat="44.0410658" lon="5.5922257"><ele>952.0</ele><time>2026-04-10T08:49:12.871Z</time></trkpt><trkpt lat="44.0410821" lon="5.592074"><ele>953.0</ele><time>2026-04-10T08:49:13.873Z</time></trkpt><trkpt lat="44.0410849" lon="5.5919302"><ele>954.0</ele><time>2026-04-10T08:49:14.872Z</time></trkpt><trkpt lat="44.0410758" lon="5.5917805"><ele>955.0</ele><time>2026-04-10T08:49:15.875Z</time></trkpt><trkpt lat="44.0410377" lon="5.5916291"><ele>956.0</ele><time>2026-04-10T08:49:16.872Z</time></trkpt><trkpt lat="44.040994" lon="5.5914597"><ele>956.0</ele><time>2026-04-10T08:49:17.876Z</time></trkpt><trkpt lat="44.0409523" lon="5.5912755"><ele>956.0</ele><time>2026-04-10T08:49:18.885Z</time></trkpt><trkpt lat="44.0409306" lon="5.5910948"><ele>956.0</ele><time>2026-04-10T08:49:19.881Z</time></trkpt><trkpt lat="44.0409183" lon="5.5909255"><ele>956.0</ele><time>2026-04-10T08:49:20.876Z</time></trkpt><trkpt lat="44.0409084" lon="5.5907666"><ele>956.0</ele><time>2026-04-10T08:49:21.876Z</time></trkpt><trkpt lat="44.0408904" lon="5.5906205"><ele>955.9999999999999</ele><time>2026-04-10T08:49:22.882Z</time></trkpt><trkpt lat="44.0408738" lon="5.5904868"><ele>955.9999999999999</ele><time>2026-04-10T08:49:23.877Z</time></trkpt><trkpt lat="44.0408559" lon="5.5903559"><ele>956.0</ele><time>2026-04-10T08:49:24.876Z</time></trkpt><trkpt lat="44.040818" lon="5.5902358"><ele>956.0</ele><time>2026-04-10T08:49:25.87Z</time></trkpt><trkpt lat="44.0407791" lon="5.5901198"><ele>956.0</ele><time>2026-04-10T08:49:26.872Z</time></trkpt><trkpt lat="44.0407346" lon="5.5899903"><ele>955.9999999999999</ele><time>2026-04-10T08:49:27.89Z</time></trkpt><trkpt lat="44.0406824" lon="5.58985"><ele>955.9999999999999</ele><time>2026-04-10T08:49:28.887Z</time></trkpt><trkpt lat="44.0406287" lon="5.5897276"><ele>956.0</ele><time>2026-04-10T08:49:29.884Z</time></trkpt><trkpt lat="44.0405723" lon="5.5896003"><ele>956.0</ele><time>2026-04-10T08:49:30.878Z</time></trkpt><trkpt lat="44.0405318" lon="5.5894456"><ele>956.0</ele><time>2026-04-10T08:49:31.881Z</time></trkpt><trkpt lat="44.0405097" lon="5.5892834"><ele>956.0</ele><time>2026-04-10T08:49:32.876Z</time></trkpt><trkpt lat="44.0405042" lon="5.5891179"><ele>956.0</ele><time>2026-04-10T08:49:33.882Z</time></trkpt><trkpt lat="44.0405144" lon="5.5889546"><ele>956.0</ele><time>2026-04-10T08:49:34.873Z</time></trkpt><trkpt lat="44.0405299" lon="5.5888061"><ele>956.0000000000001</ele><time>2026-04-10T08:49:35.871Z</time></trkpt><trkpt lat="44.0405583" lon="5.5886841"><ele>956.0</ele><time>2026-04-10T08:49:36.87Z</time></trkpt><trkpt lat="44.0405976" lon="5.5885835"><ele>956.0</ele><time>2026-04-10T08:49:37.873Z</time></trkpt><trkpt lat="44.0406499" lon="5.5885052"><ele>956.0</ele><time>2026-04-10T08:49:38.874Z</time></trkpt><trkpt lat="44.040711" lon="5.5884253"><ele>956.0000000000001</ele><time>2026-04-10T08:49:39.872Z</time></trkpt><trkpt lat="44.0407769" lon="5.5883347"><ele>956.0</ele><time>2026-04-10T08:49:40.87Z</time></trkpt><trkpt lat="44.0408643" lon="5.5882406"><ele>956.5</ele><time>2026-04-10T08:49:41.872Z</time></trkpt><trkpt lat="44.0409644" lon="5.5881509"><ele>957.0</ele><time>2026-04-10T08:49:42.872Z</time></trkpt><trkpt lat="44.0410823" lon="5.5880584"><ele>957.5</ele><time>2026-04-10T08:49:43.873Z</time></trkpt><trkpt lat="44.0412083" lon="5.5879515"><ele>958.0</ele><time>2026-04-10T08:49:44.875Z</time></trkpt><trkpt lat="44.0413515" lon="5.5878269"><ele>958.6666666666666</ele><time>2026-04-10T08:49:45.871Z</time></trkpt><trkpt lat="44.0414981" lon="5.5876939"><ele>959.3333333333333</ele><time>2026-04-10T08:49:46.871Z</time></trkpt><trkpt lat="44.0416327" lon="5.5875673"><ele>960.0</ele><time>2026-04-10T08:49:47.87Z</time></trkpt><trkpt lat="44.0417569" lon="5.5874467"><ele>960.0</ele><time>2026-04-10T08:49:48.874Z</time></trkpt><trkpt lat="44.0418758" lon="5.5873336"><ele>960.0</ele><time>2026-04-10T08:49:49.874Z</time></trkpt><trkpt lat="44.042007" lon="5.587223"><ele>960.0</ele><time>2026-04-10T08:49:50.873Z</time></trkpt><trkpt lat="44.0421312" lon="5.5871166"><ele>960.0</ele><time>2026-04-10T08:49:51.869Z</time></trkpt><trkpt lat="44.0422533" lon="5.5870092"><ele>960.75</ele><time>2026-04-10T08:49:52.873Z</time></trkpt><trkpt lat="44.0423773" lon="5.5869067"><ele>961.5</ele><time>2026-04-10T08:49:53.87Z</time></trkpt><trkpt lat="44.0425068" lon="5.5868057"><ele>962.25</ele><time>2026-04-10T08:49:54.871Z</time></trkpt><trkpt lat="44.0426369" lon="5.5867093"><ele>963.0</ele><time>2026-04-10T08:49:55.871Z</time></trkpt><trkpt lat="44.0427578" lon="5.5866263"><ele>963.25</ele><time>2026-04-10T08:49:56.874Z</time></trkpt><trkpt lat="44.0428793" lon="5.5865578"><ele>963.5</ele><time>2026-04-10T08:49:57.868Z</time></trkpt><trkpt lat="44.0429984" lon="5.5865062"><ele>963.75</ele><time>2026-04-10T08:49:58.869Z</time></trkpt><trkpt lat="44.0431213" lon="5.5864637"><ele>964.0</ele><time>2026-04-10T08:49:59.87Z</time></trkpt><trkpt lat="44.0432509" lon="5.5864368"><ele>963.5</ele><time>2026-04-10T08:50:00.875Z</time></trkpt><trkpt lat="44.0433823" lon="5.5864221"><ele>963.0</ele><time>2026-04-10T08:50:01.874Z</time></trkpt><trkpt lat="44.0435271" lon="5.5864076"><ele>962.5</ele><time>2026-04-10T08:50:02.874Z</time></trkpt><trkpt lat="44.0436685" lon="5.5863981"><ele>962.0</ele><time>2026-04-10T08:50:03.874Z</time></trkpt><trkpt lat="44.0438026" lon="5.5864026"><ele>962.0</ele><time>2026-04-10T08:50:04.87Z</time></trkpt><trkpt lat="44.0439286" lon="5.5864049"><ele>962.0</ele><time>2026-04-10T08:50:05.872Z</time></trkpt><trkpt lat="44.044055" lon="5.5864059"><ele>962.0</ele><time>2026-04-10T08:50:06.875Z</time></trkpt><trkpt lat="44.0441715" lon="5.5863978"><ele>962.0</ele><time>2026-04-10T08:50:07.873Z</time></trkpt><trkpt lat="44.0442926" lon="5.5863861"><ele>962.5</ele><time>2026-04-10T08:50:08.87Z</time></trkpt><trkpt lat="44.0444104" lon="5.5863469"><ele>963.0</ele><time>2026-04-10T08:50:09.871Z</time></trkpt><trkpt lat="44.0445334" lon="5.5862904"><ele>963.5</ele><time>2026-04-10T08:50:10.87Z</time></trkpt><trkpt lat="44.0446574" lon="5.5862272"><ele>964.0</ele><time>2026-04-10T08:50:11.871Z</time></trkpt><trkpt lat="44.0447652" lon="5.5861438"><ele>962.75</ele><time>2026-04-10T08:50:12.874Z</time></trkpt><trkpt lat="44.0448599" lon="5.5860555"><ele>961.5</ele><time>2026-04-10T08:50:13.888Z</time></trkpt><trkpt lat="44.0449521" lon="5.5859587"><ele>960.25</ele><time>2026-04-10T08:50:14.871Z</time></trkpt><trkpt lat="44.045043" lon="5.5858515"><ele>959.0</ele><time>2026-04-10T08:50:15.873Z</time></trkpt><trkpt lat="44.0451497" lon="5.5857417"><ele>959.0</ele><time>2026-04-10T08:50:16.872Z</time></trkpt><trkpt lat="44.0452653" lon="5.585622"><ele>959.0</ele><time>2026-04-10T08:50:17.87Z</time></trkpt><trkpt lat="44.0453756" lon="5.5854841"><ele>959.0</ele><time>2026-04-10T08:50:18.872Z</time></trkpt><trkpt lat="44.0454883" lon="5.5853476"><ele>959.0</ele><time>2026-04-10T08:50:19.87Z</time></trkpt><trkpt lat="44.0456036" lon="5.5851992"><ele>959.0</ele><time>2026-04-10T08:50:20.873Z</time></trkpt><trkpt lat="44.0457195" lon="5.5850219"><ele>959.0</ele><time>2026-04-10T08:50:21.87Z</time></trkpt><trkpt lat="44.0458234" lon="5.5848624"><ele>959.0</ele><time>2026-04-10T08:50:22.87Z</time></trkpt><trkpt lat="44.0459119" lon="5.5847176"><ele>959.5</ele><time>2026-04-10T08:50:23.869Z</time></trkpt><trkpt lat="44.0459943" lon="5.5845799"><ele>960.0</ele><time>2026-04-10T08:50:24.872Z</time></trkpt><trkpt lat="44.0460811" lon="5.584461"><ele>960.5</ele><time>2026-04-10T08:50:25.873Z</time></trkpt><trkpt lat="44.0461669" lon="5.5843642"><ele>961.0</ele><time>2026-04-10T08:50:26.872Z</time></trkpt><trkpt lat="44.0462435" lon="5.5842828"><ele>961.1428571428571</ele><time>2026-04-10T08:50:27.873Z</time></trkpt><trkpt lat="44.046312" lon="5.5842251"><ele>961.2857142857142</ele><time>2026-04-10T08:50:28.877Z</time></trkpt><trkpt lat="44.0463693" lon="5.584185"><ele>961.4285714285713</ele><time>2026-04-10T08:50:29.874Z</time></trkpt><trkpt lat="44.0464313" lon="5.5841309"><ele>961.5714285714284</ele><time>2026-04-10T08:50:31.87Z</time></trkpt><trkpt lat="44.0464941" lon="5.5840649"><ele>961.7142857142857</ele><time>2026-04-10T08:50:38.871Z</time></trkpt><trkpt lat="44.0465654" lon="5.5840116"><ele>961.8571428571427</ele><time>2026-04-10T08:50:40.872Z</time></trkpt><trkpt lat="44.0466272" lon="5.5839719"><ele>961.9999999999999</ele><time>2026-04-10T08:50:44.872Z</time></trkpt><trkpt lat="44.0467031" lon="5.5839272"><ele>962.0</ele><time>2026-04-10T08:50:47.872Z</time></trkpt><trkpt lat="44.0468837" lon="5.5838351"><ele>962.0</ele><time>2026-04-10T08:50:49.872Z</time></trkpt><trkpt lat="44.0470022" lon="5.5837675"><ele>962.0</ele><time>2026-04-10T08:50:50.871Z</time></trkpt><trkpt lat="44.0471188" lon="5.5837272"><ele>962.0</ele><time>2026-04-10T08:50:51.871Z</time></trkpt><trkpt lat="44.0472338" lon="5.5836967"><ele>961.75</ele><time>2026-04-10T08:50:52.873Z</time></trkpt><trkpt lat="44.047348" lon="5.5836503"><ele>961.5</ele><time>2026-04-10T08:50:53.873Z</time></trkpt><trkpt lat="44.0474613" lon="5.5836098"><ele>961.25</ele><time>2026-04-10T08:50:54.871Z</time></trkpt><trkpt lat="44.047573" lon="5.5835647"><ele>961.0</ele><time>2026-04-10T08:50:55.87Z</time></trkpt><trkpt lat="44.0476817" lon="5.5835288"><ele>960.75</ele><time>2026-04-10T08:50:56.877Z</time></trkpt><trkpt lat="44.0478015" lon="5.5835487"><ele>960.5</ele><time>2026-04-10T08:50:57.873Z</time></trkpt><trkpt lat="44.04793" lon="5.5835901"><ele>960.25</ele><time>2026-04-10T08:50:58.877Z</time></trkpt><trkpt lat="44.0480577" lon="5.583642"><ele>960.0</ele><time>2026-04-10T08:50:59.869Z</time></trkpt><trkpt lat="44.048197" lon="5.5837116"><ele>959.5</ele><time>2026-04-10T08:51:00.87Z</time></trkpt><trkpt lat="44.0483373" lon="5.5837822"><ele>959.0</ele><time>2026-04-10T08:51:01.874Z</time></trkpt><trkpt lat="44.0484727" lon="5.5838539"><ele>958.5</ele><time>2026-04-10T08:51:02.873Z</time></trkpt><trkpt lat="44.0485938" lon="5.5839216"><ele>958.0</ele><time>2026-04-10T08:51:03.871Z</time></trkpt><trkpt lat="44.0487062" lon="5.5839867"><ele>958.0</ele><time>2026-04-10T08:51:04.87Z</time></trkpt><trkpt lat="44.0488075" lon="5.5840544"><ele>958.0</ele><time>2026-04-10T08:51:05.872Z</time></trkpt><trkpt lat="44.0489073" lon="5.5841277"><ele>958.0</ele><time>2026-04-10T08:51:06.872Z</time></trkpt><trkpt lat="44.0490007" lon="5.5841932"><ele>958.0</ele><time>2026-04-10T08:51:07.871Z</time></trkpt><trkpt lat="44.049091" lon="5.5842609"><ele>958.0</ele><time>2026-04-10T08:51:08.876Z</time></trkpt><trkpt lat="44.0491847" lon="5.5843187"><ele>958.0</ele><time>2026-04-10T08:51:09.871Z</time></trkpt><trkpt lat="44.0492764" lon="5.5843798"><ele>958.0</ele><time>2026-04-10T08:51:10.872Z</time></trkpt><trkpt lat="44.0493634" lon="5.5844579"><ele>958.0</ele><time>2026-04-10T08:51:12.871Z</time></trkpt><trkpt lat="44.0494255" lon="5.5845223"><ele>958.0</ele><time>2026-04-10T08:51:14.872Z</time></trkpt><trkpt lat="44.0495139" lon="5.5846372"><ele>958.0</ele><time>2026-04-10T08:51:16.871Z</time></trkpt><trkpt lat="44.0495667" lon="5.5847274"><ele>957.6666666666666</ele><time>2026-04-10T08:51:17.871Z</time></trkpt><trkpt lat="44.0496315" lon="5.5848186"><ele>957.3333333333333</ele><time>2026-04-10T08:51:18.875Z</time></trkpt><trkpt lat="44.0496901" lon="5.5849066"><ele>957.0</ele><time>2026-04-10T08:51:19.874Z</time></trkpt><trkpt lat="44.0497561" lon="5.5849982"><ele>956.6666666666667</ele><time>2026-04-10T08:51:20.881Z</time></trkpt><trkpt lat="44.0498163" lon="5.5850841"><ele>956.3333333333334</ele><time>2026-04-10T08:51:21.871Z</time></trkpt><trkpt lat="44.0498748" lon="5.5851607"><ele>956.0</ele><time>2026-04-10T08:51:22.873Z</time></trkpt><trkpt lat="44.0499357" lon="5.5852322"><ele>955.8333333333334</ele><time>2026-04-10T08:51:23.868Z</time></trkpt><trkpt lat="44.0500004" lon="5.5853029"><ele>955.6666666666667</ele><time>2026-04-10T08:51:24.87Z</time></trkpt><trkpt lat="44.0500656" lon="5.5853714"><ele>955.5</ele><time>2026-04-10T08:51:25.883Z</time></trkpt><trkpt lat="44.0501213" lon="5.5854305"><ele>955.3333333333333</ele><time>2026-04-10T08:51:26.88Z</time></trkpt><trkpt lat="44.0501745" lon="5.5854844"><ele>955.1666666666666</ele><time>2026-04-10T08:51:27.871Z</time></trkpt><trkpt lat="44.050269" lon="5.5855348"><ele>955.0</ele><time>2026-04-10T08:51:29.868Z</time></trkpt><trkpt lat="44.0503594" lon="5.5855284"><ele>955.0</ele><time>2026-04-10T08:51:31.872Z</time></trkpt><trkpt lat="44.0504735" lon="5.5854939"><ele>955.0</ele><time>2026-04-10T08:51:33.878Z</time></trkpt><trkpt lat="44.0505919" lon="5.5854813"><ele>955.0</ele><time>2026-04-10T08:51:35.869Z</time></trkpt><trkpt lat="44.0506582" lon="5.5854844"><ele>955.0</ele><time>2026-04-10T08:51:36.87Z</time></trkpt><trkpt lat="44.0507301" lon="5.5854961"><ele>955.0</ele><time>2026-04-10T08:51:37.87Z</time></trkpt><trkpt lat="44.050833" lon="5.5855055"><ele>954.4</ele><time>2026-04-10T08:51:38.871Z</time></trkpt><trkpt lat="44.0509447" lon="5.5855175"><ele>953.8</ele><time>2026-04-10T08:51:39.871Z</time></trkpt><trkpt lat="44.0510555" lon="5.5855361"><ele>953.2</ele><time>2026-04-10T08:51:40.87Z</time></trkpt><trkpt lat="44.0511514" lon="5.5855696"><ele>952.6</ele><time>2026-04-10T08:51:41.872Z</time></trkpt><trkpt lat="44.0512385" lon="5.5856151"><ele>952.0</ele><time>2026-04-10T08:51:42.873Z</time></trkpt><trkpt lat="44.0513243" lon="5.5856611"><ele>952.0</ele><time>2026-04-10T08:51:43.874Z</time></trkpt><trkpt lat="44.0514153" lon="5.5857127"><ele>952.0</ele><time>2026-04-10T08:51:44.871Z</time></trkpt><trkpt lat="44.0515097" lon="5.5857655"><ele>952.0</ele><time>2026-04-10T08:51:45.868Z</time></trkpt><trkpt lat="44.0516043" lon="5.5858087"><ele>952.0</ele><time>2026-04-10T08:51:46.873Z</time></trkpt><trkpt lat="44.0517054" lon="5.5858443"><ele>952.0</ele><time>2026-04-10T08:51:47.873Z</time></trkpt><trkpt lat="44.0518101" lon="5.5858829"><ele>951.3333333333333</ele><time>2026-04-10T08:51:48.869Z</time></trkpt><trkpt lat="44.0519202" lon="5.5859337"><ele>950.6666666666667</ele><time>2026-04-10T08:51:49.868Z</time></trkpt><trkpt lat="44.0521877" lon="5.5860633"><ele>950.0</ele><time>2026-04-10T08:51:51.871Z</time></trkpt><trkpt lat="44.0523529" lon="5.5861348"><ele>951.0</ele><time>2026-04-10T08:51:52.869Z</time></trkpt><trkpt lat="44.0525343" lon="5.5862101"><ele>952.0</ele><time>2026-04-10T08:51:53.871Z</time></trkpt><trkpt lat="44.052734" lon="5.5862941"><ele>953.0</ele><time>2026-04-10T08:51:54.87Z</time></trkpt><trkpt lat="44.0529354" lon="5.5863724"><ele>953.0</ele><time>2026-04-10T08:51:55.872Z</time></trkpt><trkpt lat="44.0531196" lon="5.5864374"><ele>953.0</ele><time>2026-04-10T08:51:56.872Z</time></trkpt><trkpt lat="44.0532792" lon="5.5864972"><ele>953.0</ele><time>2026-04-10T08:51:57.871Z</time></trkpt><trkpt lat="44.05343" lon="5.5865551"><ele>952.6666666666667</ele><time>2026-04-10T08:51:58.868Z</time></trkpt><trkpt lat="44.0535581" lon="5.5866091"><ele>952.3333333333333</ele><time>2026-04-10T08:51:59.871Z</time></trkpt><trkpt lat="44.0537538" lon="5.5867154"><ele>952.0</ele><time>2026-04-10T08:52:01.871Z</time></trkpt><trkpt lat="44.0538503" lon="5.5867888"><ele>952.0</ele><time>2026-04-10T08:52:02.872Z</time></trkpt><trkpt lat="44.0539626" lon="5.586867"><ele>952.0</ele><time>2026-04-10T08:52:03.869Z</time></trkpt><trkpt lat="44.0540948" lon="5.5869465"><ele>952.0</ele><time>2026-04-10T08:52:04.869Z</time></trkpt><trkpt lat="44.0542426" lon="5.5870243"><ele>952.0</ele><time>2026-04-10T08:52:05.869Z</time></trkpt><trkpt lat="44.0543958" lon="5.5871018"><ele>952.0</ele><time>2026-04-10T08:52:06.869Z</time></trkpt><trkpt lat="44.0545529" lon="5.587181"><ele>952.0</ele><time>2026-04-10T08:52:07.873Z</time></trkpt><trkpt lat="44.0547041" lon="5.5872597"><ele>952.0</ele><time>2026-04-10T08:52:08.868Z</time></trkpt><trkpt lat="44.0548521" lon="5.5873211"><ele>953.5</ele><time>2026-04-10T08:52:09.868Z</time></trkpt><trkpt lat="44.0551594" lon="5.5874006"><ele>955.0</ele><time>2026-04-10T08:52:11.87Z</time></trkpt><trkpt lat="44.0553236" lon="5.5874236"><ele>955.0</ele><time>2026-04-10T08:52:12.886Z</time></trkpt><trkpt lat="44.0554935" lon="5.5874539"><ele>955.0</ele><time>2026-04-10T08:52:13.885Z</time></trkpt><trkpt lat="44.0556686" lon="5.5874878"><ele>955.0</ele><time>2026-04-10T08:52:14.871Z</time></trkpt><trkpt lat="44.0558439" lon="5.5875217"><ele>955.75</ele><time>2026-04-10T08:52:15.873Z</time></trkpt><trkpt lat="44.056002" lon="5.5875573"><ele>956.5</ele><time>2026-04-10T08:52:16.872Z</time></trkpt><trkpt lat="44.0561357" lon="5.5875871"><ele>957.25</ele><time>2026-04-10T08:52:17.874Z</time></trkpt><trkpt lat="44.0562474" lon="5.5876061"><ele>958.0</ele><time>2026-04-10T08:52:18.869Z</time></trkpt><trkpt lat="44.0563317" lon="5.5876234"><ele>958.0</ele><time>2026-04-10T08:52:19.872Z</time></trkpt><trkpt lat="44.0564019" lon="5.5876436"><ele>958.0</ele><time>2026-04-10T08:52:20.869Z</time></trkpt><trkpt lat="44.0564697" lon="5.5876498"><ele>958.0</ele><time>2026-04-10T08:52:21.874Z</time></trkpt><trkpt lat="44.0565127" lon="5.5874956"><ele>958.0</ele><time>2026-04-10T08:52:23.867Z</time></trkpt><trkpt lat="44.0565243" lon="5.5873834"><ele>958.0</ele><time>2026-04-10T08:52:24.87Z</time></trkpt><trkpt lat="44.0565546" lon="5.5872243"><ele>958.0</ele><time>2026-04-10T08:52:25.874Z</time></trkpt><trkpt lat="44.0566035" lon="5.587055"><ele>958.0</ele><time>2026-04-10T08:52:26.87Z</time></trkpt><trkpt lat="44.0566582" lon="5.5868873"><ele>958.0</ele><time>2026-04-10T08:52:27.871Z</time></trkpt><trkpt lat="44.0567148" lon="5.5867239"><ele>958.0</ele><time>2026-04-10T08:52:28.871Z</time></trkpt><trkpt lat="44.0567673" lon="5.5865671"><ele>958.5</ele><time>2026-04-10T08:52:29.869Z</time></trkpt><trkpt lat="44.0568199" lon="5.5864178"><ele>959.0</ele><time>2026-04-10T08:52:30.87Z</time></trkpt><trkpt lat="44.0568958" lon="5.5863068"><ele>959.5</ele><time>2026-04-10T08:52:31.873Z</time></trkpt><trkpt lat="44.0569759" lon="5.5862016"><ele>960.0</ele><time>2026-04-10T08:52:32.872Z</time></trkpt><trkpt lat="44.0571132" lon="5.5859529"><ele>960.0</ele><time>2026-04-10T08:52:34.879Z</time></trkpt><trkpt lat="44.0571783" lon="5.5857973"><ele>960.0</ele><time>2026-04-10T08:52:35.878Z</time></trkpt><trkpt lat="44.0572434" lon="5.5856485"><ele>960.0</ele><time>2026-04-10T08:52:36.872Z</time></trkpt><trkpt lat="44.0572999" lon="5.5854952"><ele>960.0</ele><time>2026-04-10T08:52:37.872Z</time></trkpt><trkpt lat="44.0573699" lon="5.5853411"><ele>959.5</ele><time>2026-04-10T08:52:38.871Z</time></trkpt><trkpt lat="44.0574467" lon="5.585185"><ele>959.0</ele><time>2026-04-10T08:52:39.872Z</time></trkpt><trkpt lat="44.0575321" lon="5.5850264"><ele>958.5</ele><time>2026-04-10T08:52:40.869Z</time></trkpt><trkpt lat="44.0576145" lon="5.5848756"><ele>958.0</ele><time>2026-04-10T08:52:41.866Z</time></trkpt><trkpt lat="44.0576986" lon="5.5847236"><ele>958.0</ele><time>2026-04-10T08:52:42.877Z</time></trkpt><trkpt lat="44.057772" lon="5.584574"><ele>958.0</ele><time>2026-04-10T08:52:43.869Z</time></trkpt><trkpt lat="44.0578316" lon="5.5844077"><ele>958.0</ele><time>2026-04-10T08:52:44.872Z</time></trkpt><trkpt lat="44.0579675" lon="5.584056"><ele>958.0</ele><time>2026-04-10T08:52:46.867Z</time></trkpt><trkpt lat="44.058043" lon="5.5839078"><ele>958.0</ele><time>2026-04-10T08:52:47.875Z</time></trkpt><trkpt lat="44.0581118" lon="5.5837755"><ele>958.0</ele><time>2026-04-10T08:52:48.872Z</time></trkpt><trkpt lat="44.0581773" lon="5.5836414"><ele>958.0</ele><time>2026-04-10T08:52:49.87Z</time></trkpt><trkpt lat="44.05826" lon="5.5835393"><ele>958.25</ele><time>2026-04-10T08:52:50.874Z</time></trkpt><trkpt lat="44.0583546" lon="5.5834412"><ele>958.5</ele><time>2026-04-10T08:52:51.871Z</time></trkpt><trkpt lat="44.0584475" lon="5.5833477"><ele>958.75</ele><time>2026-04-10T08:52:52.871Z</time></trkpt><trkpt lat="44.0585613" lon="5.5832955"><ele>959.0</ele><time>2026-04-10T08:52:53.868Z</time></trkpt><trkpt lat="44.0586888" lon="5.5832387"><ele>959.0</ele><time>2026-04-10T08:52:54.868Z</time></trkpt><trkpt lat="44.0588432" lon="5.5831903"><ele>959.0</ele><time>2026-04-10T08:52:55.873Z</time></trkpt><trkpt lat="44.0589878" lon="5.5831431"><ele>959.0</ele><time>2026-04-10T08:52:56.869Z</time></trkpt><trkpt lat="44.0591281" lon="5.5830923"><ele>958.25</ele><time>2026-04-10T08:52:57.88Z</time></trkpt><trkpt lat="44.0592694" lon="5.5830469"><ele>957.5</ele><time>2026-04-10T08:52:58.871Z</time></trkpt><trkpt lat="44.0594026" lon="5.5830038"><ele>956.75</ele><time>2026-04-10T08:52:59.872Z</time></trkpt><trkpt lat="44.0595325" lon="5.5829538"><ele>956.0</ele><time>2026-04-10T08:53:00.878Z</time></trkpt><trkpt lat="44.0596668" lon="5.5829046"><ele>956.0</ele><time>2026-04-10T08:53:01.873Z</time></trkpt><trkpt lat="44.0597979" lon="5.5828643"><ele>956.0</ele><time>2026-04-10T08:53:02.87Z</time></trkpt><trkpt lat="44.05993" lon="5.5828117"><ele>956.0</ele><time>2026-04-10T08:53:03.873Z</time></trkpt><trkpt lat="44.0600493" lon="5.5827584"><ele>956.0</ele><time>2026-04-10T08:53:04.873Z</time></trkpt><trkpt lat="44.0601581" lon="5.5826928"><ele>954.8</ele><time>2026-04-10T08:53:05.869Z</time></trkpt><trkpt lat="44.0602609" lon="5.5826443"><ele>953.5999999999999</ele><time>2026-04-10T08:53:06.87Z</time></trkpt><trkpt lat="44.060364" lon="5.5826109"><ele>952.4</ele><time>2026-04-10T08:53:07.872Z</time></trkpt><trkpt lat="44.060473" lon="5.5825794"><ele>951.2</ele><time>2026-04-10T08:53:08.87Z</time></trkpt><trkpt lat="44.0605755" lon="5.58253"><ele>950.0</ele><time>2026-04-10T08:53:09.871Z</time></trkpt><trkpt lat="44.0606825" lon="5.5824594"><ele>950.0</ele><time>2026-04-10T08:53:10.871Z</time></trkpt><trkpt lat="44.0607798" lon="5.5823703"><ele>950.0</ele><time>2026-04-10T08:53:11.873Z</time></trkpt><trkpt lat="44.0609431" lon="5.5821724"><ele>950.0</ele><time>2026-04-10T08:53:13.873Z</time></trkpt><trkpt lat="44.0610111" lon="5.5820645"><ele>950.0</ele><time>2026-04-10T08:53:14.881Z</time></trkpt><trkpt lat="44.0610817" lon="5.581947"><ele>948.0</ele><time>2026-04-10T08:53:15.874Z</time></trkpt><trkpt lat="44.0611635" lon="5.5818293"><ele>946.0</ele><time>2026-04-10T08:53:16.874Z</time></trkpt><trkpt lat="44.0612471" lon="5.5817446"><ele>944.0</ele><time>2026-04-10T08:53:17.872Z</time></trkpt><trkpt lat="44.0613595" lon="5.5816802"><ele>942.0</ele><time>2026-04-10T08:53:18.871Z</time></trkpt><trkpt lat="44.0614905" lon="5.5816198"><ele>942.5</ele><time>2026-04-10T08:53:19.873Z</time></trkpt><trkpt lat="44.0616235" lon="5.5815644"><ele>943.0</ele><time>2026-04-10T08:53:20.872Z</time></trkpt><trkpt lat="44.0617539" lon="5.5815303"><ele>943.5</ele><time>2026-04-10T08:53:21.872Z</time></trkpt><trkpt lat="44.061864" lon="5.5815101"><ele>944.0</ele><time>2026-04-10T08:53:22.87Z</time></trkpt><trkpt lat="44.0619505" lon="5.5814868"><ele>944.0000000000001</ele><time>2026-04-10T08:53:23.874Z</time></trkpt><trkpt lat="44.0620177" lon="5.5814377"><ele>944.0</ele><time>2026-04-10T08:53:24.871Z</time></trkpt><trkpt lat="44.0620494" lon="5.58135"><ele>944.0</ele><time>2026-04-10T08:53:25.872Z</time></trkpt><trkpt lat="44.0620624" lon="5.5812447"><ele>944.0</ele><time>2026-04-10T08:53:26.869Z</time></trkpt><trkpt lat="44.062049" lon="5.5811366"><ele>944.0000000000001</ele><time>2026-04-10T08:53:27.873Z</time></trkpt><trkpt lat="44.0620151" lon="5.5810436"><ele>944.0</ele><time>2026-04-10T08:53:28.872Z</time></trkpt><trkpt lat="44.0619521" lon="5.5809611"><ele>944.0</ele><time>2026-04-10T08:53:29.87Z</time></trkpt><trkpt lat="44.0618711" lon="5.5808736"><ele>944.0</ele><time>2026-04-10T08:53:30.871Z</time></trkpt><trkpt lat="44.0617712" lon="5.5807694"><ele>944.0</ele><time>2026-04-10T08:53:31.872Z</time></trkpt><trkpt lat="44.0616756" lon="5.5806659"><ele>944.0</ele><time>2026-04-10T08:53:32.871Z</time></trkpt><trkpt lat="44.0615951" lon="5.580558"><ele>944.1666666666667</ele><time>2026-04-10T08:53:33.872Z</time></trkpt><trkpt lat="44.0615376" lon="5.5804676"><ele>944.3333333333334</ele><time>2026-04-10T08:53:34.871Z</time></trkpt><trkpt lat="44.0615047" lon="5.5803737"><ele>944.5</ele><time>2026-04-10T08:53:35.872Z</time></trkpt><trkpt lat="44.0615049" lon="5.5802808"><ele>944.6666666666667</ele><time>2026-04-10T08:53:36.873Z</time></trkpt><trkpt lat="44.0615341" lon="5.5801901"><ele>944.8333333333334</ele><time>2026-04-10T08:53:37.871Z</time></trkpt><trkpt lat="44.0616276" lon="5.5801017"><ele>945.0</ele><time>2026-04-10T08:53:38.869Z</time></trkpt><trkpt lat="44.061823" lon="5.5799202"><ele>945.6</ele><time>2026-04-10T08:53:40.876Z</time></trkpt><trkpt lat="44.0618961" lon="5.5798342"><ele>946.2</ele><time>2026-04-10T08:53:41.871Z</time></trkpt><trkpt lat="44.0619656" lon="5.5797567"><ele>946.8</ele><time>2026-04-10T08:53:42.876Z</time></trkpt><trkpt lat="44.0620505" lon="5.5796818"><ele>947.4</ele><time>2026-04-10T08:53:43.882Z</time></trkpt><trkpt lat="44.0621358" lon="5.5796154"><ele>948.0</ele><time>2026-04-10T08:53:44.872Z</time></trkpt><trkpt lat="44.0622085" lon="5.5795566"><ele>947.5999999999999</ele><time>2026-04-10T08:53:45.873Z</time></trkpt><trkpt lat="44.062271" lon="5.579503"><ele>947.1999999999999</ele><time>2026-04-10T08:53:46.869Z</time></trkpt><trkpt lat="44.062338" lon="5.5794583"><ele>946.8</ele><time>2026-04-10T08:53:47.876Z</time></trkpt><trkpt lat="44.062416" lon="5.579404"><ele>946.4</ele><time>2026-04-10T08:53:48.874Z</time></trkpt><trkpt lat="44.062515" lon="5.5793319"><ele>946.0</ele><time>2026-04-10T08:53:49.872Z</time></trkpt><trkpt lat="44.0626217" lon="5.5792579"><ele>945.75</ele><time>2026-04-10T08:53:50.871Z</time></trkpt><trkpt lat="44.0627308" lon="5.5791855"><ele>945.5</ele><time>2026-04-10T08:53:51.872Z</time></trkpt><trkpt lat="44.0628452" lon="5.5791119"><ele>945.25</ele><time>2026-04-10T08:53:52.872Z</time></trkpt><trkpt lat="44.0629651" lon="5.5790377"><ele>945.0</ele><time>2026-04-10T08:53:53.87Z</time></trkpt><trkpt lat="44.0630935" lon="5.578962"><ele>945.0</ele><time>2026-04-10T08:53:54.869Z</time></trkpt><trkpt lat="44.0632308" lon="5.5788862"><ele>945.0</ele><time>2026-04-10T08:53:55.873Z</time></trkpt><trkpt lat="44.0635225" lon="5.578703"><ele>942.0</ele><time>2026-04-10T08:53:57.869Z</time></trkpt><trkpt lat="44.0636632" lon="5.5786154"><ele>939.0</ele><time>2026-04-10T08:53:58.879Z</time></trkpt><trkpt lat="44.0637954" lon="5.5785411"><ele>936.0</ele><time>2026-04-10T08:53:59.874Z</time></trkpt><trkpt lat="44.0639158" lon="5.578477"><ele>933.0</ele><time>2026-04-10T08:54:00.871Z</time></trkpt><trkpt lat="44.0640196" lon="5.5784287"><ele>933.5</ele><time>2026-04-10T08:54:01.87Z</time></trkpt><trkpt lat="44.0641204" lon="5.5784137"><ele>934.0</ele><time>2026-04-10T08:54:02.873Z</time></trkpt><trkpt lat="44.0642426" lon="5.5784229"><ele>934.5</ele><time>2026-04-10T08:54:03.875Z</time></trkpt><trkpt lat="44.0643683" lon="5.5784376"><ele>935.0</ele><time>2026-04-10T08:54:04.873Z</time></trkpt><trkpt lat="44.0644692" lon="5.5784595"><ele>935.0</ele><time>2026-04-10T08:54:05.871Z</time></trkpt><trkpt lat="44.0645687" lon="5.5784841"><ele>935.0</ele><time>2026-04-10T08:54:06.875Z</time></trkpt><trkpt lat="44.0646394" lon="5.5784837"><ele>935.0</ele><time>2026-04-10T08:54:07.876Z</time></trkpt><trkpt lat="44.0647372" lon="5.5783663"><ele>935.0</ele><time>2026-04-10T08:54:09.868Z</time></trkpt><trkpt lat="44.0647637" lon="5.5782567"><ele>935.0</ele><time>2026-04-10T08:54:10.874Z</time></trkpt><trkpt lat="44.0647912" lon="5.5781252"><ele>935.0</ele><time>2026-04-10T08:54:11.872Z</time></trkpt><trkpt lat="44.0648395" lon="5.5780019"><ele>935.0</ele><time>2026-04-10T08:54:12.873Z</time></trkpt><trkpt lat="44.0648984" lon="5.5778942"><ele>935.0</ele><time>2026-04-10T08:54:13.873Z</time></trkpt><trkpt lat="44.0649841" lon="5.5777958"><ele>935.0</ele><time>2026-04-10T08:54:14.872Z</time></trkpt><trkpt lat="44.0651034" lon="5.5776962"><ele>935.0</ele><time>2026-04-10T08:54:15.868Z</time></trkpt><trkpt lat="44.06522" lon="5.5776177"><ele>932.0</ele><time>2026-04-10T08:54:16.876Z</time></trkpt><trkpt lat="44.065349" lon="5.57755"><ele>929.0</ele><time>2026-04-10T08:54:17.874Z</time></trkpt><trkpt lat="44.0654685" lon="5.5774874"><ele>926.0</ele><time>2026-04-10T08:54:18.873Z</time></trkpt><trkpt lat="44.0655879" lon="5.5774318"><ele>923.0</ele><time>2026-04-10T08:54:19.87Z</time></trkpt><trkpt lat="44.0657115" lon="5.5773783"><ele>924.2</ele><time>2026-04-10T08:54:20.867Z</time></trkpt><trkpt lat="44.0658321" lon="5.5773346"><ele>925.4</ele><time>2026-04-10T08:54:21.873Z</time></trkpt><trkpt lat="44.0659331" lon="5.5773048"><ele>926.6000000000001</ele><time>2026-04-10T08:54:22.872Z</time></trkpt><trkpt lat="44.0660194" lon="5.5772956"><ele>927.8000000000001</ele><time>2026-04-10T08:54:23.872Z</time></trkpt><trkpt lat="44.0661063" lon="5.5773094"><ele>929.0</ele><time>2026-04-10T08:54:24.868Z</time></trkpt><trkpt lat="44.0661985" lon="5.5773259"><ele>929.0</ele><time>2026-04-10T08:54:25.87Z</time></trkpt><trkpt lat="44.0663176" lon="5.5773451"><ele>929.0</ele><time>2026-04-10T08:54:26.872Z</time></trkpt><trkpt lat="44.0664657" lon="5.5773775"><ele>929.0</ele><time>2026-04-10T08:54:27.872Z</time></trkpt><trkpt lat="44.0666061" lon="5.5774096"><ele>929.0</ele><time>2026-04-10T08:54:28.872Z</time></trkpt><trkpt lat="44.0667481" lon="5.5774452"><ele>928.75</ele><time>2026-04-10T08:54:29.872Z</time></trkpt><trkpt lat="44.0668947" lon="5.5774799"><ele>928.5</ele><time>2026-04-10T08:54:30.867Z</time></trkpt><trkpt lat="44.0670361" lon="5.5775099"><ele>928.25</ele><time>2026-04-10T08:54:31.869Z</time></trkpt><trkpt lat="44.0671713" lon="5.5775438"><ele>928.0</ele><time>2026-04-10T08:54:32.87Z</time></trkpt><trkpt lat="44.0674143" lon="5.5775655"><ele>927.0</ele><time>2026-04-10T08:54:34.869Z</time></trkpt><trkpt lat="44.0675227" lon="5.5775528"><ele>926.0</ele><time>2026-04-10T08:54:35.87Z</time></trkpt><trkpt lat="44.0676173" lon="5.5775216"><ele>925.0</ele><time>2026-04-10T08:54:36.869Z</time></trkpt><trkpt lat="44.0677159" lon="5.577481"><ele>924.0</ele><time>2026-04-10T08:54:37.87Z</time></trkpt><trkpt lat="44.0678293" lon="5.5774581"><ele>923.0</ele><time>2026-04-10T08:54:38.87Z</time></trkpt><trkpt lat="44.0679335" lon="5.5774601"><ele>923.0</ele><time>2026-04-10T08:54:39.873Z</time></trkpt><trkpt lat="44.0680475" lon="5.577449"><ele>923.0</ele><time>2026-04-10T08:54:40.869Z</time></trkpt><trkpt lat="44.0681608" lon="5.577426"><ele>923.0</ele><time>2026-04-10T08:54:41.874Z</time></trkpt><trkpt lat="44.0682845" lon="5.5773803"><ele>923.0</ele><time>2026-04-10T08:54:42.872Z</time></trkpt><trkpt lat="44.0684103" lon="5.5773185"><ele>923.4</ele><time>2026-04-10T08:54:43.868Z</time></trkpt><trkpt lat="44.0685317" lon="5.5772478"><ele>923.8</ele><time>2026-04-10T08:54:44.877Z</time></trkpt><trkpt lat="44.0686449" lon="5.5771669"><ele>924.2</ele><time>2026-04-10T08:54:45.871Z</time></trkpt><trkpt lat="44.0687322" lon="5.5770953"><ele>924.6</ele><time>2026-04-10T08:54:46.873Z</time></trkpt><trkpt lat="44.0688052" lon="5.5770284"><ele>925.0</ele><time>2026-04-10T08:54:47.871Z</time></trkpt><trkpt lat="44.0688784" lon="5.5769601"><ele>926.2</ele><time>2026-04-10T08:54:48.876Z</time></trkpt><trkpt lat="44.0689477" lon="5.5768663"><ele>927.4</ele><time>2026-04-10T08:54:49.869Z</time></trkpt><trkpt lat="44.0690164" lon="5.5767707"><ele>928.5999999999999</ele><time>2026-04-10T08:54:50.867Z</time></trkpt><trkpt lat="44.0690867" lon="5.5766711"><ele>929.8</ele><time>2026-04-10T08:54:51.873Z</time></trkpt><trkpt lat="44.0691682" lon="5.5765611"><ele>931.0</ele><time>2026-04-10T08:54:52.868Z</time></trkpt><trkpt lat="44.0692611" lon="5.5764449"><ele>931.0</ele><time>2026-04-10T08:54:53.868Z</time></trkpt><trkpt lat="44.069352" lon="5.576327"><ele>931.0</ele><time>2026-04-10T08:54:54.877Z</time></trkpt><trkpt lat="44.0694456" lon="5.576204"><ele>931.0</ele><time>2026-04-10T08:54:55.87Z</time></trkpt><trkpt lat="44.069542" lon="5.5760836"><ele>931.0</ele><time>2026-04-10T08:54:56.87Z</time></trkpt><trkpt lat="44.0696386" lon="5.5759609"><ele>931.5999999999999</ele><time>2026-04-10T08:54:57.874Z</time></trkpt><trkpt lat="44.0697204" lon="5.5758569"><ele>932.1999999999999</ele><time>2026-04-10T08:54:58.873Z</time></trkpt><trkpt lat="44.0698026" lon="5.575775"><ele>932.8000000000001</ele><time>2026-04-10T08:54:59.87Z</time></trkpt><trkpt lat="44.0698803" lon="5.5756962"><ele>933.4000000000001</ele><time>2026-04-10T08:55:00.871Z</time></trkpt><trkpt lat="44.0699705" lon="5.5756213"><ele>934.0</ele><time>2026-04-10T08:55:01.869Z</time></trkpt><trkpt lat="44.0700475" lon="5.5755604"><ele>934.0</ele><time>2026-04-10T08:55:02.87Z</time></trkpt><trkpt lat="44.0701235" lon="5.5754998"><ele>934.0000000000001</ele><time>2026-04-10T08:55:03.87Z</time></trkpt><trkpt lat="44.070214" lon="5.5754438"><ele>934.0000000000001</ele><time>2026-04-10T08:55:04.871Z</time></trkpt><trkpt lat="44.0703147" lon="5.5753834"><ele>934.0</ele><time>2026-04-10T08:55:05.875Z</time></trkpt><trkpt lat="44.0704305" lon="5.57533"><ele>934.0</ele><time>2026-04-10T08:55:06.871Z</time></trkpt><trkpt lat="44.0705493" lon="5.5752914"><ele>936.8000000000001</ele><time>2026-04-10T08:55:07.869Z</time></trkpt><trkpt lat="44.0706574" lon="5.5752528"><ele>939.6000000000001</ele><time>2026-04-10T08:55:08.87Z</time></trkpt><trkpt lat="44.0707677" lon="5.5752204"><ele>942.4</ele><time>2026-04-10T08:55:09.874Z</time></trkpt><trkpt lat="44.070875" lon="5.5751942"><ele>945.2</ele><time>2026-04-10T08:55:10.87Z</time></trkpt><trkpt lat="44.070982" lon="5.5751632"><ele>948.0</ele><time>2026-04-10T08:55:11.87Z</time></trkpt><trkpt lat="44.0710917" lon="5.5751276"><ele>948.0</ele><time>2026-04-10T08:55:12.867Z</time></trkpt><trkpt lat="44.0712022" lon="5.5750904"><ele>948.0</ele><time>2026-04-10T08:55:13.87Z</time></trkpt><trkpt lat="44.0713107" lon="5.5750509"><ele>948.0</ele><time>2026-04-10T08:55:14.874Z</time></trkpt><trkpt lat="44.0714116" lon="5.5750085"><ele>948.0</ele><time>2026-04-10T08:55:15.87Z</time></trkpt><trkpt lat="44.0715172" lon="5.5749672"><ele>948.0</ele><time>2026-04-10T08:55:16.868Z</time></trkpt><trkpt lat="44.0716211" lon="5.5749284"><ele>948.5999999999999</ele><time>2026-04-10T08:55:17.871Z</time></trkpt><trkpt lat="44.0717179" lon="5.5748873"><ele>949.1999999999999</ele><time>2026-04-10T08:55:18.872Z</time></trkpt><trkpt lat="44.0718172" lon="5.5748463"><ele>949.8</ele><time>2026-04-10T08:55:19.869Z</time></trkpt><trkpt lat="44.0719218" lon="5.5748064"><ele>950.4</ele><time>2026-04-10T08:55:20.87Z</time></trkpt><trkpt lat="44.0720172" lon="5.5747597"><ele>951.0</ele><time>2026-04-10T08:55:21.873Z</time></trkpt><trkpt lat="44.0721188" lon="5.5747057"><ele>951.0</ele><time>2026-04-10T08:55:22.874Z</time></trkpt><trkpt lat="44.0722078" lon="5.5746543"><ele>951.0</ele><time>2026-04-10T08:55:23.872Z</time></trkpt><trkpt lat="44.0722884" lon="5.5746071"><ele>951.0</ele><time>2026-04-10T08:55:24.871Z</time></trkpt><trkpt lat="44.0723559" lon="5.5745704"><ele>951.0</ele><time>2026-04-10T08:55:25.871Z</time></trkpt><trkpt lat="44.0724528" lon="5.5745048"><ele>951.0</ele><time>2026-04-10T08:55:27.87Z</time></trkpt><trkpt lat="44.072525" lon="5.5744725"><ele>951.0</ele><time>2026-04-10T08:55:29.874Z</time></trkpt><trkpt lat="44.0725638" lon="5.5745553"><ele>952.1666666666666</ele><time>2026-04-10T08:55:32.872Z</time></trkpt><trkpt lat="44.0725901" lon="5.5746499"><ele>953.3333333333333</ele><time>2026-04-10T08:55:34.872Z</time></trkpt><trkpt lat="44.0726189" lon="5.5747602"><ele>954.5</ele><time>2026-04-10T08:55:36.871Z</time></trkpt><trkpt lat="44.0726778" lon="5.5748901"><ele>955.6666666666666</ele><time>2026-04-10T08:55:38.875Z</time></trkpt><trkpt lat="44.0727005" lon="5.5749856"><ele>956.8333333333333</ele><time>2026-04-10T08:55:39.879Z</time></trkpt><trkpt lat="44.0727277" lon="5.5750817"><ele>958.0</ele><time>2026-04-10T08:55:40.871Z</time></trkpt><trkpt lat="44.0727408" lon="5.5751697"><ele>957.9999999999999</ele><time>2026-04-10T08:55:41.867Z</time></trkpt><trkpt lat="44.0727553" lon="5.5752904"><ele>958.0</ele><time>2026-04-10T08:55:43.869Z</time></trkpt><trkpt lat="44.0727743" lon="5.5754153"><ele>958.0</ele><time>2026-04-10T08:55:46.871Z</time></trkpt><trkpt lat="44.0728009" lon="5.5755044"><ele>958.0</ele><time>2026-04-10T08:55:48.882Z</time></trkpt><trkpt lat="44.0728271" lon="5.575602"><ele>957.9999999999999</ele><time>2026-04-10T08:55:51.873Z</time></trkpt><trkpt lat="44.0728907" lon="5.5755332"><ele>958.0</ele><time>2026-04-10T08:55:59.88Z</time></trkpt><trkpt lat="44.072822" lon="5.575352"><ele>958.0</ele><time>2026-04-10T08:56:01.87Z</time></trkpt><trkpt lat="44.0727863" lon="5.5752597"><ele>958.0</ele><time>2026-04-10T08:56:02.87Z</time></trkpt><trkpt lat="44.0727686" lon="5.5751437"><ele>958.0</ele><time>2026-04-10T08:56:03.869Z</time></trkpt><trkpt lat="44.0727562" lon="5.5750214"><ele>958.0</ele><time>2026-04-10T08:56:04.872Z</time></trkpt><trkpt lat="44.0727416" lon="5.5748858"><ele>958.0</ele><time>2026-04-10T08:56:05.868Z</time></trkpt><trkpt lat="44.0727474" lon="5.5747293"><ele>958.0</ele><time>2026-04-10T08:56:06.872Z</time></trkpt><trkpt lat="44.0727542" lon="5.5745863"><ele>958.0</ele><time>2026-04-10T08:56:07.869Z</time></trkpt><trkpt lat="44.072787" lon="5.5744326"><ele>958.0</ele><time>2026-04-10T08:56:08.872Z</time></trkpt><trkpt lat="44.0728206" lon="5.5742689"><ele>958.0</ele><time>2026-04-10T08:56:09.871Z</time></trkpt><trkpt lat="44.0728584" lon="5.5740958"><ele>958.25</ele><time>2026-04-10T08:56:10.871Z</time></trkpt><trkpt lat="44.0729031" lon="5.5739194"><ele>958.5</ele><time>2026-04-10T08:56:11.869Z</time></trkpt><trkpt lat="44.072929" lon="5.5737374"><ele>958.75</ele><time>2026-04-10T08:56:12.872Z</time></trkpt><trkpt lat="44.0729708" lon="5.5735498"><ele>959.0</ele><time>2026-04-10T08:56:13.877Z</time></trkpt><trkpt lat="44.0730055" lon="5.5733513"><ele>958.5</ele><time>2026-04-10T08:56:14.872Z</time></trkpt><trkpt lat="44.0730377" lon="5.5731628"><ele>958.0</ele><time>2026-04-10T08:56:15.873Z</time></trkpt><trkpt lat="44.0730803" lon="5.5729727"><ele>957.5</ele><time>2026-04-10T08:56:16.871Z</time></trkpt><trkpt lat="44.0731206" lon="5.5727724"><ele>957.0</ele><time>2026-04-10T08:56:17.87Z</time></trkpt><trkpt lat="44.0731571" lon="5.5725705"><ele>956.3333333333333</ele><time>2026-04-10T08:56:18.873Z</time></trkpt><trkpt lat="44.0731966" lon="5.5723615"><ele>955.6666666666666</ele><time>2026-04-10T08:56:19.87Z</time></trkpt><trkpt lat="44.0732357" lon="5.5721632"><ele>955.0</ele><time>2026-04-10T08:56:20.874Z</time></trkpt><trkpt lat="44.0732746" lon="5.5719661"><ele>954.5</ele><time>2026-04-10T08:56:21.871Z</time></trkpt><trkpt lat="44.0733181" lon="5.5717685"><ele>954.0</ele><time>2026-04-10T08:56:22.875Z</time></trkpt><trkpt lat="44.0733542" lon="5.5715685"><ele>953.5</ele><time>2026-04-10T08:56:23.87Z</time></trkpt><trkpt lat="44.0734003" lon="5.5713688"><ele>953.0</ele><time>2026-04-10T08:56:24.867Z</time></trkpt><trkpt lat="44.07344" lon="5.5711697"><ele>953.0</ele><time>2026-04-10T08:56:25.868Z</time></trkpt><trkpt lat="44.0734848" lon="5.5709632"><ele>953.0</ele><time>2026-04-10T08:56:26.871Z</time></trkpt><trkpt lat="44.0735199" lon="5.5707599"><ele>953.0</ele><time>2026-04-10T08:56:27.869Z</time></trkpt><trkpt lat="44.0735653" lon="5.57056"><ele>953.0</ele><time>2026-04-10T08:56:28.868Z</time></trkpt><trkpt lat="44.0735976" lon="5.5703786"><ele>953.0</ele><time>2026-04-10T08:56:29.872Z</time></trkpt><trkpt lat="44.073626" lon="5.5702011"><ele>953.0</ele><time>2026-04-10T08:56:30.873Z</time></trkpt><trkpt lat="44.0736607" lon="5.5700368"><ele>953.0</ele><time>2026-04-10T08:56:31.866Z</time></trkpt><trkpt lat="44.0736909" lon="5.5698786"><ele>952.5</ele><time>2026-04-10T08:56:32.869Z</time></trkpt><trkpt lat="44.0737208" lon="5.5697206"><ele>952.0</ele><time>2026-04-10T08:56:33.868Z</time></trkpt><trkpt lat="44.0737524" lon="5.5695562"><ele>951.5</ele><time>2026-04-10T08:56:34.868Z</time></trkpt><trkpt lat="44.0737859" lon="5.5693901"><ele>951.0</ele><time>2026-04-10T08:56:35.867Z</time></trkpt><trkpt lat="44.0738208" lon="5.5692197"><ele>951.0</ele><time>2026-04-10T08:56:36.867Z</time></trkpt><trkpt lat="44.0738503" lon="5.5690432"><ele>951.0</ele><time>2026-04-10T08:56:37.869Z</time></trkpt><trkpt lat="44.0738755" lon="5.568861"><ele>951.0</ele><time>2026-04-10T08:56:38.869Z</time></trkpt><trkpt lat="44.0738818" lon="5.5686711"><ele>951.0</ele><time>2026-04-10T08:56:39.871Z</time></trkpt><trkpt lat="44.0739019" lon="5.5684641"><ele>951.3333333333333</ele><time>2026-04-10T08:56:40.87Z</time></trkpt><trkpt lat="44.0739157" lon="5.5682547"><ele>951.6666666666666</ele><time>2026-04-10T08:56:41.874Z</time></trkpt><trkpt lat="44.0739115" lon="5.5680527"><ele>952.0</ele><time>2026-04-10T08:56:42.869Z</time></trkpt><trkpt lat="44.0739181" lon="5.5678222"><ele>951.3333333333333</ele><time>2026-04-10T08:56:43.869Z</time></trkpt><trkpt lat="44.073918" lon="5.5675933"><ele>950.6666666666667</ele><time>2026-04-10T08:56:44.869Z</time></trkpt><trkpt lat="44.0739168" lon="5.5673536"><ele>950.0</ele><time>2026-04-10T08:56:45.872Z</time></trkpt><trkpt lat="44.0739119" lon="5.5671106"><ele>950.3333333333334</ele><time>2026-04-10T08:56:46.869Z</time></trkpt><trkpt lat="44.0739123" lon="5.5668566"><ele>950.6666666666667</ele><time>2026-04-10T08:56:47.873Z</time></trkpt><trkpt lat="44.0739188" lon="5.5666085"><ele>951.0</ele><time>2026-04-10T08:56:48.872Z</time></trkpt><trkpt lat="44.0739214" lon="5.5663764"><ele>951.0</ele><time>2026-04-10T08:56:49.876Z</time></trkpt><trkpt lat="44.0739408" lon="5.566161"><ele>951.0</ele><time>2026-04-10T08:56:50.873Z</time></trkpt><trkpt lat="44.0739736" lon="5.565926"><ele>951.0</ele><time>2026-04-10T08:56:51.874Z</time></trkpt><trkpt lat="44.0740023" lon="5.565705"><ele>951.0</ele><time>2026-04-10T08:56:52.873Z</time></trkpt><trkpt lat="44.0740573" lon="5.5654642"><ele>951.0</ele><time>2026-04-10T08:56:53.87Z</time></trkpt><trkpt lat="44.0741157" lon="5.5652268"><ele>951.0</ele><time>2026-04-10T08:56:54.867Z</time></trkpt><trkpt lat="44.0741744" lon="5.5649837"><ele>950.0</ele><time>2026-04-10T08:56:55.868Z</time></trkpt><trkpt lat="44.0742141" lon="5.5647387"><ele>949.0</ele><time>2026-04-10T08:56:56.868Z</time></trkpt><trkpt lat="44.0742323" lon="5.5644835"><ele>948.0</ele><time>2026-04-10T08:56:57.871Z</time></trkpt><trkpt lat="44.0742455" lon="5.5642239"><ele>947.0</ele><time>2026-04-10T08:56:58.869Z</time></trkpt><trkpt lat="44.0742187" lon="5.5639656"><ele>946.0</ele><time>2026-04-10T08:56:59.873Z</time></trkpt><trkpt lat="44.0741872" lon="5.563705"><ele>945.0</ele><time>2026-04-10T08:57:00.869Z</time></trkpt><trkpt lat="44.0741577" lon="5.5634352"><ele>945.0</ele><time>2026-04-10T08:57:01.869Z</time></trkpt><trkpt lat="44.0741248" lon="5.5631738"><ele>945.0</ele><time>2026-04-10T08:57:02.87Z</time></trkpt><trkpt lat="44.0740847" lon="5.5628996"><ele>945.0</ele><time>2026-04-10T08:57:03.873Z</time></trkpt><trkpt lat="44.0740578" lon="5.5626251"><ele>943.3333333333333</ele><time>2026-04-10T08:57:04.871Z</time></trkpt><trkpt lat="44.0740295" lon="5.5623517"><ele>941.6666666666666</ele><time>2026-04-10T08:57:05.872Z</time></trkpt><trkpt lat="44.0739976" lon="5.5620805"><ele>940.0</ele><time>2026-04-10T08:57:06.87Z</time></trkpt><trkpt lat="44.0739639" lon="5.5618096"><ele>940.0</ele><time>2026-04-10T08:57:07.881Z</time></trkpt><trkpt lat="44.0739355" lon="5.5615443"><ele>940.0</ele><time>2026-04-10T08:57:08.882Z</time></trkpt><trkpt lat="44.0739103" lon="5.561281"><ele>940.0</ele><time>2026-04-10T08:57:09.869Z</time></trkpt><trkpt lat="44.0738803" lon="5.5610187"><ele>940.0</ele><time>2026-04-10T08:57:10.874Z</time></trkpt><trkpt lat="44.0738445" lon="5.5607613"><ele>940.0</ele><time>2026-04-10T08:57:11.871Z</time></trkpt><trkpt lat="44.0738071" lon="5.5605093"><ele>940.0</ele><time>2026-04-10T08:57:12.873Z</time></trkpt><trkpt lat="44.0737699" lon="5.5602654"><ele>939.3333333333333</ele><time>2026-04-10T08:57:13.872Z</time></trkpt><trkpt lat="44.0737705" lon="5.560052"><ele>938.6666666666667</ele><time>2026-04-10T08:57:14.872Z</time></trkpt><trkpt lat="44.0737852" lon="5.5598416"><ele>938.0</ele><time>2026-04-10T08:57:15.87Z</time></trkpt><trkpt lat="44.0738409" lon="5.5596555"><ele>937.5</ele><time>2026-04-10T08:57:16.873Z</time></trkpt><trkpt lat="44.0739412" lon="5.5594996"><ele>937.0</ele><time>2026-04-10T08:57:17.868Z</time></trkpt><trkpt lat="44.0740524" lon="5.5593646"><ele>936.5</ele><time>2026-04-10T08:57:18.869Z</time></trkpt><trkpt lat="44.0741816" lon="5.5592706"><ele>936.0</ele><time>2026-04-10T08:57:19.872Z</time></trkpt><trkpt lat="44.0743877" lon="5.5592877"><ele>936.0</ele><time>2026-04-10T08:57:20.871Z</time></trkpt><trkpt lat="44.0745707" lon="5.5592933"><ele>936.0</ele><time>2026-04-10T08:57:21.868Z</time></trkpt><trkpt lat="44.0747483" lon="5.5593036"><ele>936.0</ele><time>2026-04-10T08:57:22.869Z</time></trkpt><trkpt lat="44.0749181" lon="5.5592843"><ele>934.3333333333333</ele><time>2026-04-10T08:57:23.869Z</time></trkpt><trkpt lat="44.0750841" lon="5.559253"><ele>932.6666666666666</ele><time>2026-04-10T08:57:24.872Z</time></trkpt><trkpt lat="44.075255" lon="5.5591442"><ele>931.0</ele><time>2026-04-10T08:57:25.873Z</time></trkpt><trkpt lat="44.0754153" lon="5.5590091"><ele>931.0</ele><time>2026-04-10T08:57:26.874Z</time></trkpt><trkpt lat="44.0755683" lon="5.5588272"><ele>931.0</ele><time>2026-04-10T08:57:27.868Z</time></trkpt><trkpt lat="44.0757204" lon="5.5586315"><ele>931.0</ele><time>2026-04-10T08:57:28.871Z</time></trkpt><trkpt lat="44.0758671" lon="5.5584125"><ele>929.0</ele><time>2026-04-10T08:57:29.871Z</time></trkpt><trkpt lat="44.0760265" lon="5.558178"><ele>927.0</ele><time>2026-04-10T08:57:30.873Z</time></trkpt><trkpt lat="44.0761806" lon="5.5579431"><ele>924.5</ele><time>2026-04-10T08:57:31.87Z</time></trkpt><trkpt lat="44.076347" lon="5.5577017"><ele>922.0</ele><time>2026-04-10T08:57:32.871Z</time></trkpt><trkpt lat="44.0765109" lon="5.5574513"><ele>924.0</ele><time>2026-04-10T08:57:33.872Z</time></trkpt><trkpt lat="44.0766658" lon="5.5572111"><ele>926.0</ele><time>2026-04-10T08:57:34.869Z</time></trkpt><trkpt lat="44.0768182" lon="5.5569745"><ele>926.0</ele><time>2026-04-10T08:57:35.873Z</time></trkpt><trkpt lat="44.076975" lon="5.5567547"><ele>926.0</ele><time>2026-04-10T08:57:36.87Z</time></trkpt><trkpt lat="44.0771409" lon="5.5565463"><ele>926.0</ele><time>2026-04-10T08:57:37.868Z</time></trkpt><trkpt lat="44.0773103" lon="5.5563513"><ele>927.5</ele><time>2026-04-10T08:57:38.871Z</time></trkpt><trkpt lat="44.0774894" lon="5.556163"><ele>929.0</ele><time>2026-04-10T08:57:39.869Z</time></trkpt><trkpt lat="44.0776737" lon="5.5559703"><ele>929.0</ele><time>2026-04-10T08:57:40.868Z</time></trkpt><trkpt lat="44.0778609" lon="5.5557785"><ele>929.0</ele><time>2026-04-10T08:57:41.872Z</time></trkpt><trkpt lat="44.0780501" lon="5.5555824"><ele>929.0</ele><time>2026-04-10T08:57:42.868Z</time></trkpt><trkpt lat="44.0782425" lon="5.5553844"><ele>929.0</ele><time>2026-04-10T08:57:43.869Z</time></trkpt><trkpt lat="44.0784359" lon="5.5551805"><ele>926.5</ele><time>2026-04-10T08:57:44.868Z</time></trkpt><trkpt lat="44.0786304" lon="5.5549762"><ele>924.0</ele><time>2026-04-10T08:57:45.868Z</time></trkpt><trkpt lat="44.0788233" lon="5.5547737"><ele>924.0</ele><time>2026-04-10T08:57:46.87Z</time></trkpt><trkpt lat="44.0790223" lon="5.5545718"><ele>924.0</ele><time>2026-04-10T08:57:47.873Z</time></trkpt><trkpt lat="44.079219" lon="5.5543779"><ele>923.0</ele><time>2026-04-10T08:57:48.872Z</time></trkpt><trkpt lat="44.0794122" lon="5.5541747"><ele>922.0</ele><time>2026-04-10T08:57:49.87Z</time></trkpt><trkpt lat="44.079605" lon="5.553972"><ele>922.0</ele><time>2026-04-10T08:57:50.869Z</time></trkpt><trkpt lat="44.0797943" lon="5.5537708"><ele>922.0</ele><time>2026-04-10T08:57:51.866Z</time></trkpt><trkpt lat="44.0799727" lon="5.5535785"><ele>923.0</ele><time>2026-04-10T08:57:52.878Z</time></trkpt><trkpt lat="44.0801429" lon="5.5533978"><ele>924.0</ele><time>2026-04-10T08:57:53.867Z</time></trkpt><trkpt lat="44.0802995" lon="5.5532304"><ele>925.0</ele><time>2026-04-10T08:57:54.868Z</time></trkpt><trkpt lat="44.080442" lon="5.5530625"><ele>925.0</ele><time>2026-04-10T08:57:55.869Z</time></trkpt><trkpt lat="44.0805631" lon="5.55289"><ele>925.0</ele><time>2026-04-10T08:57:56.872Z</time></trkpt><trkpt lat="44.0806759" lon="5.5527095"><ele>925.0</ele><time>2026-04-10T08:57:57.871Z</time></trkpt><trkpt lat="44.0807636" lon="5.5525106"><ele>925.3333333333333</ele><time>2026-04-10T08:57:58.872Z</time></trkpt><trkpt lat="44.0808496" lon="5.5523138"><ele>925.6666666666667</ele><time>2026-04-10T08:57:59.867Z</time></trkpt><trkpt lat="44.0809351" lon="5.5521093"><ele>926.0</ele><time>2026-04-10T08:58:00.871Z</time></trkpt><trkpt lat="44.0810144" lon="5.5519129"><ele>927.25</ele><time>2026-04-10T08:58:01.872Z</time></trkpt><trkpt lat="44.0810936" lon="5.5517189"><ele>928.5</ele><time>2026-04-10T08:58:02.871Z</time></trkpt><trkpt lat="44.0811712" lon="5.5515458"><ele>929.75</ele><time>2026-04-10T08:58:03.869Z</time></trkpt><trkpt lat="44.0812273" lon="5.5513911"><ele>931.0</ele><time>2026-04-10T08:58:04.869Z</time></trkpt><trkpt lat="44.0812872" lon="5.5512529"><ele>931.4</ele><time>2026-04-10T08:58:05.87Z</time></trkpt><trkpt lat="44.0813258" lon="5.5511303"><ele>931.8</ele><time>2026-04-10T08:58:06.871Z</time></trkpt><trkpt lat="44.0813638" lon="5.5510502"><ele>932.1999999999999</ele><time>2026-04-10T08:58:07.874Z</time></trkpt><trkpt lat="44.0814021" lon="5.5509806"><ele>932.5999999999999</ele><time>2026-04-10T08:58:08.872Z</time></trkpt><trkpt lat="44.0814741" lon="5.5508639"><ele>933.0</ele><time>2026-04-10T08:58:10.869Z</time></trkpt><trkpt lat="44.0815698" lon="5.5507389"><ele>932.3333333333334</ele><time>2026-04-10T08:58:12.872Z</time></trkpt><trkpt lat="44.0816238" lon="5.5506649"><ele>931.6666666666667</ele><time>2026-04-10T08:58:13.87Z</time></trkpt><trkpt lat="44.0816843" lon="5.5505823"><ele>931.0</ele><time>2026-04-10T08:58:14.873Z</time></trkpt><trkpt lat="44.0817472" lon="5.5505128"><ele>930.3333333333334</ele><time>2026-04-10T08:58:15.87Z</time></trkpt><trkpt lat="44.0818244" lon="5.5504401"><ele>929.6666666666667</ele><time>2026-04-10T08:58:16.871Z</time></trkpt><trkpt lat="44.0819068" lon="5.5503641"><ele>929.0</ele><time>2026-04-10T08:58:17.867Z</time></trkpt><trkpt lat="44.0819848" lon="5.5502845"><ele>930.8000000000001</ele><time>2026-04-10T08:58:18.868Z</time></trkpt><trkpt lat="44.0820702" lon="5.5502032"><ele>932.6000000000001</ele><time>2026-04-10T08:58:19.867Z</time></trkpt><trkpt lat="44.0821638" lon="5.5501201"><ele>934.4</ele><time>2026-04-10T08:58:20.872Z</time></trkpt><trkpt lat="44.0822484" lon="5.5500374"><ele>936.2</ele><time>2026-04-10T08:58:21.871Z</time></trkpt><trkpt lat="44.0823373" lon="5.5499402"><ele>938.0</ele><time>2026-04-10T08:58:22.869Z</time></trkpt><trkpt lat="44.082431" lon="5.5498591"><ele>937.8</ele><time>2026-04-10T08:58:23.867Z</time></trkpt><trkpt lat="44.0825331" lon="5.5497815"><ele>937.5999999999999</ele><time>2026-04-10T08:58:24.87Z</time></trkpt><trkpt lat="44.0826207" lon="5.5497089"><ele>937.4000000000001</ele><time>2026-04-10T08:58:25.87Z</time></trkpt><trkpt lat="44.0827044" lon="5.5496338"><ele>937.2</ele><time>2026-04-10T08:58:26.87Z</time></trkpt><trkpt lat="44.0827823" lon="5.5495731"><ele>937.0</ele><time>2026-04-10T08:58:27.869Z</time></trkpt><trkpt lat="44.0828679" lon="5.5494988"><ele>937.6666666666666</ele><time>2026-04-10T08:58:28.874Z</time></trkpt><trkpt lat="44.0829401" lon="5.5494287"><ele>938.3333333333333</ele><time>2026-04-10T08:58:29.869Z</time></trkpt><trkpt lat="44.0830096" lon="5.5493609"><ele>939.0</ele><time>2026-04-10T08:58:30.867Z</time></trkpt><trkpt lat="44.083089" lon="5.5493057"><ele>939.6666666666667</ele><time>2026-04-10T08:58:31.869Z</time></trkpt><trkpt lat="44.0831594" lon="5.5492367"><ele>940.3333333333334</ele><time>2026-04-10T08:58:32.866Z</time></trkpt><trkpt lat="44.0832202" lon="5.5491675"><ele>941.0</ele><time>2026-04-10T08:58:33.866Z</time></trkpt><trkpt lat="44.0832826" lon="5.5491111"><ele>941.0000000000001</ele><time>2026-04-10T08:58:34.872Z</time></trkpt><trkpt lat="44.0833393" lon="5.5490513"><ele>941.0</ele><time>2026-04-10T08:58:35.87Z</time></trkpt><trkpt lat="44.0833897" lon="5.5489736"><ele>941.0</ele><time>2026-04-10T08:58:36.873Z</time></trkpt><trkpt lat="44.083432" lon="5.5488581"><ele>941.0</ele><time>2026-04-10T08:58:37.867Z</time></trkpt><trkpt lat="44.0834245" lon="5.5487219"><ele>941.0000000000001</ele><time>2026-04-10T08:58:38.868Z</time></trkpt><trkpt lat="44.0834629" lon="5.5485938"><ele>941.0</ele><time>2026-04-10T08:58:39.87Z</time></trkpt><trkpt lat="44.0834821" lon="5.5484699"><ele>940.8333333333334</ele><time>2026-04-10T08:58:40.869Z</time></trkpt><trkpt lat="44.0834867" lon="5.5483517"><ele>940.6666666666667</ele><time>2026-04-10T08:58:41.869Z</time></trkpt><trkpt lat="44.0834855" lon="5.5482404"><ele>940.5</ele><time>2026-04-10T08:58:42.87Z</time></trkpt><trkpt lat="44.083475" lon="5.54814"><ele>940.3333333333333</ele><time>2026-04-10T08:58:43.871Z</time></trkpt><trkpt lat="44.0834501" lon="5.5480418"><ele>940.1666666666666</ele><time>2026-04-10T08:58:44.87Z</time></trkpt><trkpt lat="44.0834289" lon="5.5479514"><ele>940.0</ele><time>2026-04-10T08:58:45.869Z</time></trkpt><trkpt lat="44.0834549" lon="5.5478584"><ele>940.0</ele><time>2026-04-10T08:58:47.869Z</time></trkpt><trkpt lat="44.0835598" lon="5.5477308"><ele>940.0</ele><time>2026-04-10T08:58:50.873Z</time></trkpt><trkpt lat="44.0836282" lon="5.5476868"><ele>940.0</ele><time>2026-04-10T08:58:51.874Z</time></trkpt><trkpt lat="44.0837025" lon="5.547603"><ele>940.0</ele><time>2026-04-10T08:58:52.873Z</time></trkpt><trkpt lat="44.0837578" lon="5.5475107"><ele>940.0</ele><time>2026-04-10T08:58:53.868Z</time></trkpt><trkpt lat="44.0838246" lon="5.5474326"><ele>940.0</ele><time>2026-04-10T08:58:54.872Z</time></trkpt><trkpt lat="44.0838676" lon="5.5473407"><ele>940.0</ele><time>2026-04-10T08:58:55.868Z</time></trkpt><trkpt lat="44.083979" lon="5.5472391"><ele>940.0</ele><time>2026-04-10T08:58:57.873Z</time></trkpt><trkpt lat="44.0840484" lon="5.547209"><ele>940.0</ele><time>2026-04-10T08:58:58.873Z</time></trkpt><trkpt lat="44.0841233" lon="5.5471628"><ele>940.0</ele><time>2026-04-10T08:58:59.865Z</time></trkpt><trkpt lat="44.0841921" lon="5.5470923"><ele>939.2</ele><time>2026-04-10T08:59:00.872Z</time></trkpt><trkpt lat="44.0842885" lon="5.5470153"><ele>938.4</ele><time>2026-04-10T08:59:02.87Z</time></trkpt><trkpt lat="44.0843923" lon="5.5469998"><ele>937.5999999999999</ele><time>2026-04-10T08:59:04.871Z</time></trkpt><trkpt lat="44.0844742" lon="5.5470192"><ele>936.8</ele><time>2026-04-10T08:59:05.873Z</time></trkpt><trkpt lat="44.0845273" lon="5.5471387"><ele>936.0</ele><time>2026-04-10T08:59:06.87Z</time></trkpt><trkpt lat="44.0845817" lon="5.5472251"><ele>936.0</ele><time>2026-04-10T08:59:07.868Z</time></trkpt><trkpt lat="44.084641" lon="5.547327"><ele>935.9999999999999</ele><time>2026-04-10T08:59:08.871Z</time></trkpt><trkpt lat="44.0846876" lon="5.5474341"><ele>935.9999999999999</ele><time>2026-04-10T08:59:09.872Z</time></trkpt><trkpt lat="44.0847471" lon="5.5475332"><ele>936.0</ele><time>2026-04-10T08:59:10.869Z</time></trkpt><trkpt lat="44.0848126" lon="5.5476305"><ele>936.0</ele><time>2026-04-10T08:59:11.873Z</time></trkpt><trkpt lat="44.0848747" lon="5.5477407"><ele>933.4</ele><time>2026-04-10T08:59:12.87Z</time></trkpt><trkpt lat="44.0849433" lon="5.5478457"><ele>930.8</ele><time>2026-04-10T08:59:13.872Z</time></trkpt><trkpt lat="44.0850306" lon="5.5479141"><ele>928.1999999999999</ele><time>2026-04-10T08:59:14.87Z</time></trkpt><trkpt lat="44.0851369" lon="5.5479558"><ele>925.5999999999999</ele><time>2026-04-10T08:59:15.871Z</time></trkpt><trkpt lat="44.0852439" lon="5.5479664"><ele>923.0</ele><time>2026-04-10T08:59:16.873Z</time></trkpt><trkpt lat="44.0854116" lon="5.5479041"><ele>923.0</ele><time>2026-04-10T08:59:17.87Z</time></trkpt><trkpt lat="44.0855577" lon="5.5478769"><ele>923.0</ele><time>2026-04-10T08:59:18.869Z</time></trkpt><trkpt lat="44.0856963" lon="5.5478404"><ele>923.0</ele><time>2026-04-10T08:59:19.871Z</time></trkpt><trkpt lat="44.0858317" lon="5.547784"><ele>923.0</ele><time>2026-04-10T08:59:20.87Z</time></trkpt><trkpt lat="44.08595" lon="5.5476893"><ele>922.0</ele><time>2026-04-10T08:59:21.871Z</time></trkpt><trkpt lat="44.0860442" lon="5.5475605"><ele>921.0</ele><time>2026-04-10T08:59:22.874Z</time></trkpt><trkpt lat="44.0861347" lon="5.5474131"><ele>920.0</ele><time>2026-04-10T08:59:23.871Z</time></trkpt><trkpt lat="44.0862264" lon="5.547265"><ele>919.0</ele><time>2026-04-10T08:59:24.873Z</time></trkpt><trkpt lat="44.0863356" lon="5.5471391"><ele>919.3333333333333</ele><time>2026-04-10T08:59:25.872Z</time></trkpt><trkpt lat="44.0864564" lon="5.5470253"><ele>919.6666666666667</ele><time>2026-04-10T08:59:26.869Z</time></trkpt><trkpt lat="44.0865841" lon="5.5469333"><ele>920.0</ele><time>2026-04-10T08:59:27.869Z</time></trkpt><trkpt lat="44.086751" lon="5.5469166"><ele>921.3333333333334</ele><time>2026-04-10T08:59:28.872Z</time></trkpt><trkpt lat="44.0869007" lon="5.5468649"><ele>922.6666666666667</ele><time>2026-04-10T08:59:29.868Z</time></trkpt><trkpt lat="44.0870589" lon="5.5467943"><ele>924.0</ele><time>2026-04-10T08:59:30.871Z</time></trkpt><trkpt lat="44.0872105" lon="5.5467239"><ele>924.0</ele><time>2026-04-10T08:59:31.874Z</time></trkpt><trkpt lat="44.0873733" lon="5.5466427"><ele>924.0</ele><time>2026-04-10T08:59:32.874Z</time></trkpt><trkpt lat="44.0875352" lon="5.5465672"><ele>924.0</ele><time>2026-04-10T08:59:33.87Z</time></trkpt><trkpt lat="44.087694" lon="5.5464874"><ele>923.5</ele><time>2026-04-10T08:59:34.87Z</time></trkpt><trkpt lat="44.0878247" lon="5.5464393"><ele>923.0</ele><time>2026-04-10T08:59:35.872Z</time></trkpt><trkpt lat="44.0879514" lon="5.5463828"><ele>922.5</ele><time>2026-04-10T08:59:36.874Z</time></trkpt><trkpt lat="44.0880845" lon="5.5463191"><ele>922.0</ele><time>2026-04-10T08:59:37.872Z</time></trkpt><trkpt lat="44.088209" lon="5.5462537"><ele>922.25</ele><time>2026-04-10T08:59:38.872Z</time></trkpt><trkpt lat="44.0883433" lon="5.5461635"><ele>922.5</ele><time>2026-04-10T08:59:39.878Z</time></trkpt><trkpt lat="44.088465" lon="5.5460806"><ele>922.75</ele><time>2026-04-10T08:59:40.868Z</time></trkpt><trkpt lat="44.0885958" lon="5.5460205"><ele>923.0</ele><time>2026-04-10T08:59:41.869Z</time></trkpt><trkpt lat="44.0887334" lon="5.545994"><ele>923.0</ele><time>2026-04-10T08:59:42.868Z</time></trkpt><trkpt lat="44.0888835" lon="5.5459879"><ele>923.0</ele><time>2026-04-10T08:59:43.873Z</time></trkpt><trkpt lat="44.0890462" lon="5.5460153"><ele>923.0</ele><time>2026-04-10T08:59:44.869Z</time></trkpt><trkpt lat="44.089204" lon="5.5460576"><ele>921.3333333333334</ele><time>2026-04-10T08:59:45.871Z</time></trkpt><trkpt lat="44.0893595" lon="5.5460847"><ele>919.6666666666667</ele><time>2026-04-10T08:59:46.877Z</time></trkpt><trkpt lat="44.0895242" lon="5.5460542"><ele>918.0</ele><time>2026-04-10T08:59:47.874Z</time></trkpt><trkpt lat="44.08969" lon="5.5460014"><ele>918.0</ele><time>2026-04-10T08:59:48.87Z</time></trkpt><trkpt lat="44.0898507" lon="5.5459327"><ele>918.0</ele><time>2026-04-10T08:59:49.873Z</time></trkpt><trkpt lat="44.0900118" lon="5.545833"><ele>918.0</ele><time>2026-04-10T08:59:50.871Z</time></trkpt><trkpt lat="44.0901778" lon="5.5457301"><ele>918.6666666666667</ele><time>2026-04-10T08:59:51.87Z</time></trkpt><trkpt lat="44.0903504" lon="5.5456354"><ele>919.3333333333334</ele><time>2026-04-10T08:59:52.871Z</time></trkpt><trkpt lat="44.0905217" lon="5.5455524"><ele>920.0</ele><time>2026-04-10T08:59:53.872Z</time></trkpt><trkpt lat="44.0906892" lon="5.5454886"><ele>921.6666666666667</ele><time>2026-04-10T08:59:54.872Z</time></trkpt><trkpt lat="44.0908559" lon="5.5454163"><ele>923.3333333333333</ele><time>2026-04-10T08:59:55.867Z</time></trkpt><trkpt lat="44.0910104" lon="5.5453491"><ele>925.0</ele><time>2026-04-10T08:59:56.867Z</time></trkpt><trkpt lat="44.0911789" lon="5.5452823"><ele>925.0</ele><time>2026-04-10T08:59:57.869Z</time></trkpt><trkpt lat="44.0913332" lon="5.5452053"><ele>925.0</ele><time>2026-04-10T08:59:58.868Z</time></trkpt><trkpt lat="44.0914809" lon="5.5451354"><ele>925.0</ele><time>2026-04-10T08:59:59.869Z</time></trkpt><trkpt lat="44.0916166" lon="5.545069"><ele>926.0</ele><time>2026-04-10T09:00:00.871Z</time></trkpt><trkpt lat="44.0917434" lon="5.5449998"><ele>927.0</ele><time>2026-04-10T09:00:01.869Z</time></trkpt><trkpt lat="44.0918728" lon="5.5449285"><ele>928.0</ele><time>2026-04-10T09:00:02.866Z</time></trkpt><trkpt lat="44.0919946" lon="5.5448563"><ele>929.0</ele><time>2026-04-10T09:00:03.877Z</time></trkpt><trkpt lat="44.0921263" lon="5.5448004"><ele>929.0</ele><time>2026-04-10T09:00:04.873Z</time></trkpt><trkpt lat="44.0922533" lon="5.5447488"><ele>929.0</ele><time>2026-04-10T09:00:05.868Z</time></trkpt><trkpt lat="44.0923772" lon="5.5446746"><ele>929.0</ele><time>2026-04-10T09:00:06.866Z</time></trkpt><trkpt lat="44.0925024" lon="5.5445994"><ele>929.0</ele><time>2026-04-10T09:00:07.869Z</time></trkpt><trkpt lat="44.092622" lon="5.5445033"><ele>930.25</ele><time>2026-04-10T09:00:08.872Z</time></trkpt><trkpt lat="44.0927414" lon="5.5443813"><ele>931.5</ele><time>2026-04-10T09:00:09.87Z</time></trkpt><trkpt lat="44.0928569" lon="5.544247"><ele>932.75</ele><time>2026-04-10T09:00:10.868Z</time></trkpt><trkpt lat="44.0929631" lon="5.5441192"><ele>934.0</ele><time>2026-04-10T09:00:11.871Z</time></trkpt><trkpt lat="44.0930734" lon="5.5439911"><ele>934.0</ele><time>2026-04-10T09:00:12.869Z</time></trkpt><trkpt lat="44.0932093" lon="5.5439077"><ele>934.0</ele><time>2026-04-10T09:00:13.87Z</time></trkpt><trkpt lat="44.0933491" lon="5.5438397"><ele>934.0</ele><time>2026-04-10T09:00:14.867Z</time></trkpt><trkpt lat="44.0934949" lon="5.5437713"><ele>934.6666666666666</ele><time>2026-04-10T09:00:15.868Z</time></trkpt><trkpt lat="44.0936455" lon="5.5437118"><ele>935.3333333333333</ele><time>2026-04-10T09:00:16.871Z</time></trkpt><trkpt lat="44.0938201" lon="5.5436626"><ele>936.0</ele><time>2026-04-10T09:00:17.872Z</time></trkpt><trkpt lat="44.0939732" lon="5.5436531"><ele>935.0</ele><time>2026-04-10T09:00:18.87Z</time></trkpt><trkpt lat="44.0941298" lon="5.5436551"><ele>934.0</ele><time>2026-04-10T09:00:19.873Z</time></trkpt><trkpt lat="44.0942888" lon="5.5436521"><ele>933.0</ele><time>2026-04-10T09:00:20.867Z</time></trkpt><trkpt lat="44.094444" lon="5.5436338"><ele>933.0</ele><time>2026-04-10T09:00:21.872Z</time></trkpt><trkpt lat="44.0945998" lon="5.5435985"><ele>933.0</ele><time>2026-04-10T09:00:22.87Z</time></trkpt><trkpt lat="44.094761" lon="5.5435434"><ele>933.0</ele><time>2026-04-10T09:00:23.87Z</time></trkpt><trkpt lat="44.0949075" lon="5.5434923"><ele>933.75</ele><time>2026-04-10T09:00:24.871Z</time></trkpt><trkpt lat="44.0950545" lon="5.5434348"><ele>934.5</ele><time>2026-04-10T09:00:25.866Z</time></trkpt><trkpt lat="44.0952028" lon="5.54338"><ele>935.25</ele><time>2026-04-10T09:00:26.87Z</time></trkpt><trkpt lat="44.0953451" lon="5.5433693"><ele>936.0</ele><time>2026-04-10T09:00:27.868Z</time></trkpt><trkpt lat="44.0954892" lon="5.5433232"><ele>936.0</ele><time>2026-04-10T09:00:28.872Z</time></trkpt><trkpt lat="44.0956639" lon="5.5433097"><ele>936.0</ele><time>2026-04-10T09:00:29.868Z</time></trkpt><trkpt lat="44.0958252" lon="5.5432975"><ele>936.0</ele><time>2026-04-10T09:00:30.869Z</time></trkpt><trkpt lat="44.0959847" lon="5.5432923"><ele>937.6666666666667</ele><time>2026-04-10T09:00:31.868Z</time></trkpt><trkpt lat="44.0961468" lon="5.54326"><ele>939.3333333333334</ele><time>2026-04-10T09:00:32.869Z</time></trkpt><trkpt lat="44.0963124" lon="5.5432305"><ele>941.0</ele><time>2026-04-10T09:00:33.87Z</time></trkpt><trkpt lat="44.096482" lon="5.5431731"><ele>943.3333333333334</ele><time>2026-04-10T09:00:34.867Z</time></trkpt><trkpt lat="44.0966393" lon="5.543119"><ele>945.6666666666667</ele><time>2026-04-10T09:00:35.873Z</time></trkpt><trkpt lat="44.0967938" lon="5.5430418"><ele>948.0</ele><time>2026-04-10T09:00:36.87Z</time></trkpt><trkpt lat="44.0969461" lon="5.5429717"><ele>948.0</ele><time>2026-04-10T09:00:37.868Z</time></trkpt><trkpt lat="44.0971197" lon="5.5428879"><ele>948.0</ele><time>2026-04-10T09:00:38.869Z</time></trkpt><trkpt lat="44.0972856" lon="5.5428026"><ele>948.0</ele><time>2026-04-10T09:00:39.873Z</time></trkpt><trkpt lat="44.0974392" lon="5.5427413"><ele>947.0</ele><time>2026-04-10T09:00:40.868Z</time></trkpt><trkpt lat="44.0976015" lon="5.542681"><ele>946.0</ele><time>2026-04-10T09:00:41.882Z</time></trkpt><trkpt lat="44.0977666" lon="5.5426169"><ele>945.0</ele><time>2026-04-10T09:00:42.881Z</time></trkpt><trkpt lat="44.0979382" lon="5.542563"><ele>945.0</ele><time>2026-04-10T09:00:43.869Z</time></trkpt><trkpt lat="44.0981104" lon="5.5425112"><ele>945.0</ele><time>2026-04-10T09:00:44.868Z</time></trkpt><trkpt lat="44.0982643" lon="5.5424492"><ele>945.0</ele><time>2026-04-10T09:00:45.871Z</time></trkpt><trkpt lat="44.0984188" lon="5.5424186"><ele>946.0</ele><time>2026-04-10T09:00:46.869Z</time></trkpt><trkpt lat="44.0985553" lon="5.5423865"><ele>947.0</ele><time>2026-04-10T09:00:47.874Z</time></trkpt><trkpt lat="44.0986904" lon="5.5423766"><ele>948.0</ele><time>2026-04-10T09:00:48.869Z</time></trkpt><trkpt lat="44.0988406" lon="5.5423777"><ele>949.0</ele><time>2026-04-10T09:00:49.873Z</time></trkpt><trkpt lat="44.0989832" lon="5.5423596"><ele>949.0</ele><time>2026-04-10T09:00:50.879Z</time></trkpt><trkpt lat="44.0991266" lon="5.5423111"><ele>949.0</ele><time>2026-04-10T09:00:51.874Z</time></trkpt><trkpt lat="44.0992453" lon="5.5422325"><ele>949.0</ele><time>2026-04-10T09:00:52.873Z</time></trkpt><trkpt lat="44.0993696" lon="5.5421497"><ele>949.0</ele><time>2026-04-10T09:00:53.867Z</time></trkpt><trkpt lat="44.0994975" lon="5.5420639"><ele>949.0</ele><time>2026-04-10T09:00:54.867Z</time></trkpt><trkpt lat="44.099612" lon="5.5419724"><ele>949.0</ele><time>2026-04-10T09:00:55.876Z</time></trkpt><trkpt lat="44.0997168" lon="5.5418852"><ele>949.0</ele><time>2026-04-10T09:00:56.868Z</time></trkpt><trkpt lat="44.0998356" lon="5.541788"><ele>949.0</ele><time>2026-04-10T09:00:57.872Z</time></trkpt><trkpt lat="44.0999561" lon="5.5416818"><ele>949.0</ele><time>2026-04-10T09:00:58.868Z</time></trkpt><trkpt lat="44.1000642" lon="5.5415742"><ele>949.0</ele><time>2026-04-10T09:00:59.869Z</time></trkpt><trkpt lat="44.1001738" lon="5.5414644"><ele>949.0</ele><time>2026-04-10T09:01:00.871Z</time></trkpt><trkpt lat="44.100288" lon="5.5413551"><ele>949.0</ele><time>2026-04-10T09:01:01.872Z</time></trkpt><trkpt lat="44.1003878" lon="5.5412392"><ele>948.5</ele><time>2026-04-10T09:01:02.874Z</time></trkpt><trkpt lat="44.100489" lon="5.5411069"><ele>948.0</ele><time>2026-04-10T09:01:03.874Z</time></trkpt><trkpt lat="44.1005865" lon="5.5409839"><ele>947.5</ele><time>2026-04-10T09:01:04.871Z</time></trkpt><trkpt lat="44.1006872" lon="5.5408608"><ele>947.0</ele><time>2026-04-10T09:01:05.866Z</time></trkpt><trkpt lat="44.1007927" lon="5.5407352"><ele>948.0</ele><time>2026-04-10T09:01:06.87Z</time></trkpt><trkpt lat="44.1009029" lon="5.540611"><ele>949.0</ele><time>2026-04-10T09:01:07.871Z</time></trkpt><trkpt lat="44.1009982" lon="5.5404863"><ele>950.0</ele><time>2026-04-10T09:01:08.871Z</time></trkpt><trkpt lat="44.1010971" lon="5.5403818"><ele>951.0</ele><time>2026-04-10T09:01:09.871Z</time></trkpt><trkpt lat="44.1011937" lon="5.5402779"><ele>951.0</ele><time>2026-04-10T09:01:10.873Z</time></trkpt><trkpt lat="44.1012975" lon="5.5401731"><ele>951.0</ele><time>2026-04-10T09:01:11.869Z</time></trkpt><trkpt lat="44.1013946" lon="5.5400644"><ele>951.0</ele><time>2026-04-10T09:01:12.869Z</time></trkpt><trkpt lat="44.1014895" lon="5.5399563"><ele>951.0</ele><time>2026-04-10T09:01:13.87Z</time></trkpt><trkpt lat="44.1015871" lon="5.5398681"><ele>952.5</ele><time>2026-04-10T09:01:14.872Z</time></trkpt><trkpt lat="44.1016795" lon="5.5397566"><ele>954.0</ele><time>2026-04-10T09:01:15.87Z</time></trkpt><trkpt lat="44.1017815" lon="5.5396488"><ele>955.5</ele><time>2026-04-10T09:01:16.87Z</time></trkpt><trkpt lat="44.101892" lon="5.5395272"><ele>957.0</ele><time>2026-04-10T09:01:17.87Z</time></trkpt><trkpt lat="44.1020023" lon="5.539399"><ele>957.25</ele><time>2026-04-10T09:01:18.872Z</time></trkpt><trkpt lat="44.1021149" lon="5.5392932"><ele>957.5</ele><time>2026-04-10T09:01:19.871Z</time></trkpt><trkpt lat="44.1022184" lon="5.5391736"><ele>957.75</ele><time>2026-04-10T09:01:20.869Z</time></trkpt><trkpt lat="44.1023285" lon="5.5390735"><ele>958.0</ele><time>2026-04-10T09:01:21.875Z</time></trkpt><trkpt lat="44.1024286" lon="5.5389577"><ele>957.5</ele><time>2026-04-10T09:01:22.874Z</time></trkpt><trkpt lat="44.1025272" lon="5.5388504"><ele>957.0</ele><time>2026-04-10T09:01:23.87Z</time></trkpt><trkpt lat="44.1026116" lon="5.5387546"><ele>956.5</ele><time>2026-04-10T09:01:24.872Z</time></trkpt><trkpt lat="44.1027161" lon="5.5386343"><ele>956.0</ele><time>2026-04-10T09:01:25.873Z</time></trkpt><trkpt lat="44.1028357" lon="5.5385152"><ele>954.6666666666667</ele><time>2026-04-10T09:01:26.869Z</time></trkpt><trkpt lat="44.1029442" lon="5.5383925"><ele>953.3333333333333</ele><time>2026-04-10T09:01:27.869Z</time></trkpt><trkpt lat="44.1030594" lon="5.5382507"><ele>952.0</ele><time>2026-04-10T09:01:28.872Z</time></trkpt><trkpt lat="44.1031834" lon="5.5380939"><ele>950.0</ele><time>2026-04-10T09:01:29.869Z</time></trkpt><trkpt lat="44.1032879" lon="5.5379428"><ele>948.0</ele><time>2026-04-10T09:01:30.868Z</time></trkpt><trkpt lat="44.1033889" lon="5.5377888"><ele>946.0</ele><time>2026-04-10T09:01:31.874Z</time></trkpt><trkpt lat="44.1034685" lon="5.5376257"><ele>944.0</ele><time>2026-04-10T09:01:32.873Z</time></trkpt><trkpt lat="44.1035351" lon="5.5374479"><ele>944.0</ele><time>2026-04-10T09:01:33.873Z</time></trkpt><trkpt lat="44.1036013" lon="5.5372773"><ele>944.0</ele><time>2026-04-10T09:01:34.871Z</time></trkpt><trkpt lat="44.1036631" lon="5.5371036"><ele>944.0</ele><time>2026-04-10T09:01:35.874Z</time></trkpt><trkpt lat="44.1037304" lon="5.53695"><ele>944.0</ele><time>2026-04-10T09:01:36.868Z</time></trkpt><trkpt lat="44.1037941" lon="5.5368671"><ele>944.0</ele><time>2026-04-10T09:01:37.87Z</time></trkpt><trkpt lat="44.1038867" lon="5.5367904"><ele>944.0</ele><time>2026-04-10T09:01:38.868Z</time></trkpt><trkpt lat="44.1040089" lon="5.536793"><ele>944.0</ele><time>2026-04-10T09:01:39.871Z</time></trkpt><trkpt lat="44.1041285" lon="5.5367479"><ele>944.0</ele><time>2026-04-10T09:01:40.87Z</time></trkpt><trkpt lat="44.104253" lon="5.5367154"><ele>945.0</ele><time>2026-04-10T09:01:41.87Z</time></trkpt><trkpt lat="44.104382" lon="5.5366613"><ele>946.0</ele><time>2026-04-10T09:01:42.871Z</time></trkpt><trkpt lat="44.1045098" lon="5.5366111"><ele>947.0</ele><time>2026-04-10T09:01:43.87Z</time></trkpt><trkpt lat="44.1046598" lon="5.5365342"><ele>948.0</ele><time>2026-04-10T09:01:44.873Z</time></trkpt><trkpt lat="44.104799" lon="5.5364713"><ele>948.5</ele><time>2026-04-10T09:01:45.872Z</time></trkpt><trkpt lat="44.1049248" lon="5.5364155"><ele>949.0</ele><time>2026-04-10T09:01:46.869Z</time></trkpt><trkpt lat="44.1050663" lon="5.5363559"><ele>949.5</ele><time>2026-04-10T09:01:47.87Z</time></trkpt><trkpt lat="44.105215" lon="5.5362876"><ele>950.0</ele><time>2026-04-10T09:01:48.867Z</time></trkpt><trkpt lat="44.1053603" lon="5.5362161"><ele>950.0</ele><time>2026-04-10T09:01:49.871Z</time></trkpt><trkpt lat="44.1055077" lon="5.5361516"><ele>950.0</ele><time>2026-04-10T09:01:50.867Z</time></trkpt><trkpt lat="44.1056549" lon="5.5360764"><ele>950.0</ele><time>2026-04-10T09:01:51.867Z</time></trkpt><trkpt lat="44.1058039" lon="5.5360053"><ele>950.0</ele><time>2026-04-10T09:01:52.865Z</time></trkpt><trkpt lat="44.1059483" lon="5.5359375"><ele>950.0</ele><time>2026-04-10T09:01:53.867Z</time></trkpt><trkpt lat="44.1060971" lon="5.5358281"><ele>950.0</ele><time>2026-04-10T09:01:54.872Z</time></trkpt><trkpt lat="44.1062231" lon="5.5357545"><ele>950.0</ele><time>2026-04-10T09:01:55.873Z</time></trkpt><trkpt lat="44.1063542" lon="5.5356815"><ele>950.0</ele><time>2026-04-10T09:01:56.871Z</time></trkpt><trkpt lat="44.1064854" lon="5.5355883"><ele>950.0</ele><time>2026-04-10T09:01:57.87Z</time></trkpt><trkpt lat="44.1066186" lon="5.5354725"><ele>950.0</ele><time>2026-04-10T09:01:58.868Z</time></trkpt><trkpt lat="44.1067511" lon="5.5353688"><ele>953.0</ele><time>2026-04-10T09:01:59.868Z</time></trkpt><trkpt lat="44.1068928" lon="5.5352542"><ele>956.0</ele><time>2026-04-10T09:02:00.873Z</time></trkpt><trkpt lat="44.1070259" lon="5.5351342"><ele>959.0</ele><time>2026-04-10T09:02:01.874Z</time></trkpt><trkpt lat="44.1071381" lon="5.5350305"><ele>959.0</ele><time>2026-04-10T09:02:02.869Z</time></trkpt><trkpt lat="44.1072441" lon="5.5349196"><ele>959.0</ele><time>2026-04-10T09:02:03.872Z</time></trkpt><trkpt lat="44.1073353" lon="5.5347731"><ele>959.0</ele><time>2026-04-10T09:02:04.867Z</time></trkpt><trkpt lat="44.1074251" lon="5.5346058"><ele>959.0</ele><time>2026-04-10T09:02:05.87Z</time></trkpt><trkpt lat="44.1075036" lon="5.5344497"><ele>959.5</ele><time>2026-04-10T09:02:06.869Z</time></trkpt><trkpt lat="44.1075928" lon="5.5342855"><ele>960.0</ele><time>2026-04-10T09:02:07.869Z</time></trkpt><trkpt lat="44.1076835" lon="5.5341093"><ele>960.5</ele><time>2026-04-10T09:02:08.868Z</time></trkpt><trkpt lat="44.1077719" lon="5.5339785"><ele>961.0</ele><time>2026-04-10T09:02:09.871Z</time></trkpt><trkpt lat="44.1078502" lon="5.5338188"><ele>960.75</ele><time>2026-04-10T09:02:10.868Z</time></trkpt><trkpt lat="44.1079437" lon="5.533689"><ele>960.5</ele><time>2026-04-10T09:02:11.869Z</time></trkpt><trkpt lat="44.1081047" lon="5.5336444"><ele>960.25</ele><time>2026-04-10T09:02:12.868Z</time></trkpt><trkpt lat="44.1082342" lon="5.5336576"><ele>960.0</ele><time>2026-04-10T09:02:13.871Z</time></trkpt><trkpt lat="44.108375" lon="5.5336207"><ele>959.3333333333333</ele><time>2026-04-10T09:02:14.868Z</time></trkpt><trkpt lat="44.1085204" lon="5.5336263"><ele>958.6666666666666</ele><time>2026-04-10T09:02:15.876Z</time></trkpt><trkpt lat="44.1086782" lon="5.5336397"><ele>958.0</ele><time>2026-04-10T09:02:16.873Z</time></trkpt><trkpt lat="44.1088424" lon="5.5336576"><ele>958.0</ele><time>2026-04-10T09:02:17.873Z</time></trkpt><trkpt lat="44.1090156" lon="5.5336884"><ele>958.0</ele><time>2026-04-10T09:02:18.872Z</time></trkpt><trkpt lat="44.109189" lon="5.5337221"><ele>958.0</ele><time>2026-04-10T09:02:19.868Z</time></trkpt><trkpt lat="44.1093575" lon="5.5337306"><ele>957.0</ele><time>2026-04-10T09:02:20.872Z</time></trkpt><trkpt lat="44.1095268" lon="5.5337449"><ele>956.0</ele><time>2026-04-10T09:02:21.872Z</time></trkpt><trkpt lat="44.1096957" lon="5.5337294"><ele>955.0</ele><time>2026-04-10T09:02:22.871Z</time></trkpt><trkpt lat="44.1098696" lon="5.5337326"><ele>956.3333333333333</ele><time>2026-04-10T09:02:23.869Z</time></trkpt><trkpt lat="44.1100406" lon="5.5337283"><ele>957.6666666666667</ele><time>2026-04-10T09:02:24.869Z</time></trkpt><trkpt lat="44.1102244" lon="5.5337257"><ele>959.0</ele><time>2026-04-10T09:02:25.874Z</time></trkpt><trkpt lat="44.1104031" lon="5.5337161"><ele>959.0</ele><time>2026-04-10T09:02:26.876Z</time></trkpt><trkpt lat="44.1105806" lon="5.5337015"><ele>959.0</ele><time>2026-04-10T09:02:27.87Z</time></trkpt><trkpt lat="44.1107489" lon="5.5336785"><ele>959.0</ele><time>2026-04-10T09:02:28.874Z</time></trkpt><trkpt lat="44.1109195" lon="5.5336602"><ele>960.0</ele><time>2026-04-10T09:02:29.868Z</time></trkpt><trkpt lat="44.1110965" lon="5.5336332"><ele>961.0</ele><time>2026-04-10T09:02:30.873Z</time></trkpt><trkpt lat="44.1112705" lon="5.5336072"><ele>962.0</ele><time>2026-04-10T09:02:31.871Z</time></trkpt><trkpt lat="44.1114444" lon="5.5335816"><ele>964.0</ele><time>2026-04-10T09:02:32.867Z</time></trkpt><trkpt lat="44.1116155" lon="5.5335522"><ele>966.0</ele><time>2026-04-10T09:02:33.87Z</time></trkpt><trkpt lat="44.1117866" lon="5.5335317"><ele>968.0</ele><time>2026-04-10T09:02:34.871Z</time></trkpt><trkpt lat="44.1119498" lon="5.5335202"><ele>968.0</ele><time>2026-04-10T09:02:35.869Z</time></trkpt><trkpt lat="44.1120947" lon="5.5335291"><ele>968.0</ele><time>2026-04-10T09:02:36.872Z</time></trkpt><trkpt lat="44.1122174" lon="5.5335455"><ele>968.0</ele><time>2026-04-10T09:02:37.87Z</time></trkpt><trkpt lat="44.1123105" lon="5.5335543"><ele>968.0</ele><time>2026-04-10T09:02:38.873Z</time></trkpt><trkpt lat="44.1123825" lon="5.5335401"><ele>968.0</ele><time>2026-04-10T09:02:39.868Z</time></trkpt><trkpt lat="44.1124652" lon="5.5334274"><ele>968.8333333333334</ele><time>2026-04-10T09:02:41.872Z</time></trkpt><trkpt lat="44.1124831" lon="5.5333332"><ele>969.6666666666667</ele><time>2026-04-10T09:02:42.869Z</time></trkpt><trkpt lat="44.1124779" lon="5.5332216"><ele>970.5</ele><time>2026-04-10T09:02:43.872Z</time></trkpt><trkpt lat="44.1124627" lon="5.5330989"><ele>971.3333333333333</ele><time>2026-04-10T09:02:44.871Z</time></trkpt><trkpt lat="44.1124456" lon="5.5329608"><ele>972.1666666666666</ele><time>2026-04-10T09:02:45.882Z</time></trkpt><trkpt lat="44.1124293" lon="5.5328305"><ele>973.0</ele><time>2026-04-10T09:02:46.871Z</time></trkpt><trkpt lat="44.1124179" lon="5.5327267"><ele>973.2</ele><time>2026-04-10T09:02:47.869Z</time></trkpt><trkpt lat="44.112451" lon="5.5325895"><ele>973.4</ele><time>2026-04-10T09:02:49.869Z</time></trkpt><trkpt lat="44.1125681" lon="5.5325035"><ele>973.6000000000001</ele><time>2026-04-10T09:02:51.875Z</time></trkpt><trkpt lat="44.1126598" lon="5.5324456"><ele>973.8000000000001</ele><time>2026-04-10T09:02:52.868Z</time></trkpt><trkpt lat="44.1127539" lon="5.5323904"><ele>974.0</ele><time>2026-04-10T09:02:53.872Z</time></trkpt><trkpt lat="44.1128523" lon="5.5323472"><ele>974.0</ele><time>2026-04-10T09:02:54.871Z</time></trkpt><trkpt lat="44.1129448" lon="5.5323125"><ele>974.0000000000001</ele><time>2026-04-10T09:02:55.868Z</time></trkpt><trkpt lat="44.1130437" lon="5.5322729"><ele>974.0000000000001</ele><time>2026-04-10T09:02:56.869Z</time></trkpt><trkpt lat="44.1131382" lon="5.5322141"><ele>974.0</ele><time>2026-04-10T09:02:57.877Z</time></trkpt><trkpt lat="44.1132324" lon="5.5321619"><ele>974.0</ele><time>2026-04-10T09:02:58.876Z</time></trkpt><trkpt lat="44.1133195" lon="5.5321205"><ele>975.0</ele><time>2026-04-10T09:02:59.872Z</time></trkpt><trkpt lat="44.1134239" lon="5.5320718"><ele>976.0</ele><time>2026-04-10T09:03:00.871Z</time></trkpt><trkpt lat="44.1135309" lon="5.53201"><ele>977.0</ele><time>2026-04-10T09:03:01.867Z</time></trkpt><trkpt lat="44.1136386" lon="5.5319289"><ele>978.0</ele><time>2026-04-10T09:03:02.868Z</time></trkpt><trkpt lat="44.1137512" lon="5.5318383"><ele>978.0</ele><time>2026-04-10T09:03:03.865Z</time></trkpt><trkpt lat="44.1138666" lon="5.5317525"><ele>978.0</ele><time>2026-04-10T09:03:04.866Z</time></trkpt><trkpt lat="44.113986" lon="5.5316765"><ele>978.0</ele><time>2026-04-10T09:03:05.869Z</time></trkpt><trkpt lat="44.1141117" lon="5.5316071"><ele>978.0</ele><time>2026-04-10T09:03:06.872Z</time></trkpt><trkpt lat="44.114239" lon="5.5315425"><ele>980.3333333333333</ele><time>2026-04-10T09:03:07.873Z</time></trkpt><trkpt lat="44.1143875" lon="5.5314711"><ele>982.6666666666666</ele><time>2026-04-10T09:03:08.869Z</time></trkpt><trkpt lat="44.1145419" lon="5.5314094"><ele>985.0</ele><time>2026-04-10T09:03:09.873Z</time></trkpt><trkpt lat="44.1146878" lon="5.5313686"><ele>985.0</ele><time>2026-04-10T09:03:10.872Z</time></trkpt><trkpt lat="44.1148188" lon="5.5313275"><ele>985.0</ele><time>2026-04-10T09:03:11.866Z</time></trkpt><trkpt lat="44.1149498" lon="5.5312887"><ele>985.0</ele><time>2026-04-10T09:03:12.868Z</time></trkpt><trkpt lat="44.1150698" lon="5.5312598"><ele>985.0</ele><time>2026-04-10T09:03:13.871Z</time></trkpt><trkpt lat="44.1151784" lon="5.5312388"><ele>985.0</ele><time>2026-04-10T09:03:14.867Z</time></trkpt><trkpt lat="44.1152779" lon="5.5312339"><ele>985.0</ele><time>2026-04-10T09:03:15.868Z</time></trkpt><trkpt lat="44.1153719" lon="5.531212"><ele>985.0</ele><time>2026-04-10T09:03:16.873Z</time></trkpt><trkpt lat="44.1154834" lon="5.5311143"><ele>985.0</ele><time>2026-04-10T09:03:18.871Z</time></trkpt><trkpt lat="44.1155236" lon="5.5310086"><ele>985.0</ele><time>2026-04-10T09:03:19.874Z</time></trkpt><trkpt lat="44.1155494" lon="5.5308592"><ele>985.0</ele><time>2026-04-10T09:03:20.872Z</time></trkpt><trkpt lat="44.1155733" lon="5.530709"><ele>985.0</ele><time>2026-04-10T09:03:21.868Z</time></trkpt><trkpt lat="44.1156041" lon="5.5305777"><ele>985.0</ele><time>2026-04-10T09:03:22.868Z</time></trkpt><trkpt lat="44.1156467" lon="5.5304662"><ele>985.0</ele><time>2026-04-10T09:03:23.873Z</time></trkpt><trkpt lat="44.1157101" lon="5.5303743"><ele>985.0</ele><time>2026-04-10T09:03:24.867Z</time></trkpt><trkpt lat="44.1158058" lon="5.5303049"><ele>986.2</ele><time>2026-04-10T09:03:25.869Z</time></trkpt><trkpt lat="44.115893" lon="5.530235"><ele>987.4</ele><time>2026-04-10T09:03:26.872Z</time></trkpt><trkpt lat="44.1159804" lon="5.5301525"><ele>988.5999999999999</ele><time>2026-04-10T09:03:27.868Z</time></trkpt><trkpt lat="44.1160697" lon="5.5300662"><ele>989.8</ele><time>2026-04-10T09:03:28.871Z</time></trkpt><trkpt lat="44.1161405" lon="5.5299716"><ele>991.0</ele><time>2026-04-10T09:03:29.868Z</time></trkpt><trkpt lat="44.1162065" lon="5.5298702"><ele>991.0</ele><time>2026-04-10T09:03:30.87Z</time></trkpt><trkpt lat="44.1162764" lon="5.5297681"><ele>990.9999999999999</ele><time>2026-04-10T09:03:31.87Z</time></trkpt><trkpt lat="44.1163411" lon="5.5296677"><ele>990.9999999999999</ele><time>2026-04-10T09:03:32.871Z</time></trkpt><trkpt lat="44.1164176" lon="5.5295706"><ele>991.0</ele><time>2026-04-10T09:03:33.878Z</time></trkpt><trkpt lat="44.1165017" lon="5.5294787"><ele>991.0</ele><time>2026-04-10T09:03:34.868Z</time></trkpt><trkpt lat="44.1165864" lon="5.5293912"><ele>991.8</ele><time>2026-04-10T09:03:35.869Z</time></trkpt><trkpt lat="44.1166649" lon="5.529322"><ele>992.5999999999999</ele><time>2026-04-10T09:03:36.869Z</time></trkpt><trkpt lat="44.116743" lon="5.5292698"><ele>993.4</ele><time>2026-04-10T09:03:37.872Z</time></trkpt><trkpt lat="44.1168369" lon="5.5292582"><ele>994.2</ele><time>2026-04-10T09:03:38.869Z</time></trkpt><trkpt lat="44.1169502" lon="5.5292581"><ele>995.0</ele><time>2026-04-10T09:03:39.87Z</time></trkpt><trkpt lat="44.1170714" lon="5.5292259"><ele>995.0</ele><time>2026-04-10T09:03:40.869Z</time></trkpt><trkpt lat="44.1171913" lon="5.5291572"><ele>995.0</ele><time>2026-04-10T09:03:41.87Z</time></trkpt><trkpt lat="44.1173089" lon="5.5290834"><ele>995.0</ele><time>2026-04-10T09:03:42.871Z</time></trkpt><trkpt lat="44.117423" lon="5.5290015"><ele>995.0</ele><time>2026-04-10T09:03:43.868Z</time></trkpt><trkpt lat="44.1175485" lon="5.5289309"><ele>996.0</ele><time>2026-04-10T09:03:44.871Z</time></trkpt><trkpt lat="44.1176796" lon="5.5288457"><ele>997.0</ele><time>2026-04-10T09:03:45.871Z</time></trkpt><trkpt lat="44.1178058" lon="5.5287602"><ele>998.0</ele><time>2026-04-10T09:03:46.869Z</time></trkpt><trkpt lat="44.1179362" lon="5.5286941"><ele>999.0</ele><time>2026-04-10T09:03:47.869Z</time></trkpt><trkpt lat="44.1180678" lon="5.5286355"><ele>999.0</ele><time>2026-04-10T09:03:48.868Z</time></trkpt><trkpt lat="44.1181984" lon="5.5285666"><ele>999.0</ele><time>2026-04-10T09:03:49.87Z</time></trkpt><trkpt lat="44.1183332" lon="5.5285009"><ele>999.0</ele><time>2026-04-10T09:03:50.867Z</time></trkpt><trkpt lat="44.1184726" lon="5.5284347"><ele>999.0</ele><time>2026-04-10T09:03:51.873Z</time></trkpt><trkpt lat="44.1185917" lon="5.5283836"><ele>999.75</ele><time>2026-04-10T09:03:52.868Z</time></trkpt><trkpt lat="44.1187064" lon="5.5283311"><ele>1000.5</ele><time>2026-04-10T09:03:53.87Z</time></trkpt><trkpt lat="44.1188314" lon="5.5282795"><ele>1001.25</ele><time>2026-04-10T09:03:54.881Z</time></trkpt><trkpt lat="44.1189554" lon="5.5282361"><ele>1002.0</ele><time>2026-04-10T09:03:55.879Z</time></trkpt><trkpt lat="44.1190891" lon="5.5281906"><ele>1002.75</ele><time>2026-04-10T09:03:56.868Z</time></trkpt><trkpt lat="44.119222" lon="5.5281397"><ele>1003.5</ele><time>2026-04-10T09:03:57.866Z</time></trkpt><trkpt lat="44.1193593" lon="5.5281081"><ele>1004.25</ele><time>2026-04-10T09:03:58.88Z</time></trkpt><trkpt lat="44.1194868" lon="5.5280768"><ele>1005.0</ele><time>2026-04-10T09:03:59.868Z</time></trkpt><trkpt lat="44.1196045" lon="5.5280294"><ele>1005.0</ele><time>2026-04-10T09:04:00.868Z</time></trkpt><trkpt lat="44.1197205" lon="5.5279802"><ele>1005.0</ele><time>2026-04-10T09:04:01.871Z</time></trkpt><trkpt lat="44.1198408" lon="5.5279415"><ele>1005.0</ele><time>2026-04-10T09:04:02.869Z</time></trkpt><trkpt lat="44.1199699" lon="5.5279073"><ele>1005.0</ele><time>2026-04-10T09:04:03.869Z</time></trkpt><trkpt lat="44.120107" lon="5.5278613"><ele>1006.0</ele><time>2026-04-10T09:04:04.866Z</time></trkpt><trkpt lat="44.120237" lon="5.5278066"><ele>1007.0</ele><time>2026-04-10T09:04:05.869Z</time></trkpt><trkpt lat="44.1203559" lon="5.5277508"><ele>1008.0</ele><time>2026-04-10T09:04:06.873Z</time></trkpt><trkpt lat="44.1204643" lon="5.527702"><ele>1009.0</ele><time>2026-04-10T09:04:07.87Z</time></trkpt><trkpt lat="44.1205624" lon="5.5276786"><ele>1009.0</ele><time>2026-04-10T09:04:08.871Z</time></trkpt><trkpt lat="44.1206715" lon="5.5276763"><ele>1009.0</ele><time>2026-04-10T09:04:09.872Z</time></trkpt><trkpt lat="44.1207825" lon="5.5277068"><ele>1009.0</ele><time>2026-04-10T09:04:10.87Z</time></trkpt><trkpt lat="44.1209121" lon="5.5277261"><ele>1009.0</ele><time>2026-04-10T09:04:11.873Z</time></trkpt><trkpt lat="44.1210379" lon="5.5277342"><ele>1010.25</ele><time>2026-04-10T09:04:12.874Z</time></trkpt><trkpt lat="44.1211655" lon="5.527733"><ele>1011.5</ele><time>2026-04-10T09:04:13.868Z</time></trkpt><trkpt lat="44.1212947" lon="5.5277083"><ele>1012.75</ele><time>2026-04-10T09:04:14.872Z</time></trkpt><trkpt lat="44.1214323" lon="5.5276766"><ele>1014.0</ele><time>2026-04-10T09:04:15.869Z</time></trkpt><trkpt lat="44.1215731" lon="5.5276532"><ele>1014.3333333333333</ele><time>2026-04-10T09:04:16.871Z</time></trkpt><trkpt lat="44.1217216" lon="5.5276273"><ele>1014.6666666666666</ele><time>2026-04-10T09:04:17.868Z</time></trkpt><trkpt lat="44.1218857" lon="5.5275951"><ele>1015.0</ele><time>2026-04-10T09:04:18.868Z</time></trkpt><trkpt lat="44.1220533" lon="5.5275516"><ele>1015.0</ele><time>2026-04-10T09:04:19.872Z</time></trkpt><trkpt lat="44.122216" lon="5.5275106"><ele>1015.0</ele><time>2026-04-10T09:04:20.87Z</time></trkpt><trkpt lat="44.1223685" lon="5.5274853"><ele>1015.0</ele><time>2026-04-10T09:04:21.868Z</time></trkpt><trkpt lat="44.1225054" lon="5.5274706"><ele>1016.25</ele><time>2026-04-10T09:04:22.871Z</time></trkpt><trkpt lat="44.122642" lon="5.5274568"><ele>1017.5</ele><time>2026-04-10T09:04:23.867Z</time></trkpt><trkpt lat="44.1227701" lon="5.5274514"><ele>1018.75</ele><time>2026-04-10T09:04:24.871Z</time></trkpt><trkpt lat="44.1228812" lon="5.5274293"><ele>1020.0</ele><time>2026-04-10T09:04:25.871Z</time></trkpt><trkpt lat="44.1229986" lon="5.5273996"><ele>1020.0</ele><time>2026-04-10T09:04:26.87Z</time></trkpt><trkpt lat="44.1231167" lon="5.5273693"><ele>1020.0</ele><time>2026-04-10T09:04:27.867Z</time></trkpt><trkpt lat="44.1232564" lon="5.5273433"><ele>1020.0</ele><time>2026-04-10T09:04:28.872Z</time></trkpt><trkpt lat="44.1233979" lon="5.5273154"><ele>1020.0</ele><time>2026-04-10T09:04:29.877Z</time></trkpt><trkpt lat="44.1235263" lon="5.5272851"><ele>1020.75</ele><time>2026-04-10T09:04:30.874Z</time></trkpt><trkpt lat="44.1236523" lon="5.5272593"><ele>1021.5</ele><time>2026-04-10T09:04:31.869Z</time></trkpt><trkpt lat="44.1237829" lon="5.5272486"><ele>1022.25</ele><time>2026-04-10T09:04:32.867Z</time></trkpt><trkpt lat="44.1239137" lon="5.5272549"><ele>1023.0</ele><time>2026-04-10T09:04:33.868Z</time></trkpt><trkpt lat="44.1240526" lon="5.5272674"><ele>1024.0</ele><time>2026-04-10T09:04:34.871Z</time></trkpt><trkpt lat="44.1241942" lon="5.5272771"><ele>1025.0</ele><time>2026-04-10T09:04:35.868Z</time></trkpt><trkpt lat="44.1243422" lon="5.5272709"><ele>1026.0</ele><time>2026-04-10T09:04:36.87Z</time></trkpt><trkpt lat="44.1244942" lon="5.5272518"><ele>1027.0</ele><time>2026-04-10T09:04:37.873Z</time></trkpt><trkpt lat="44.1246543" lon="5.5272362"><ele>1027.0</ele><time>2026-04-10T09:04:38.872Z</time></trkpt><trkpt lat="44.1248268" lon="5.5272328"><ele>1027.0</ele><time>2026-04-10T09:04:39.872Z</time></trkpt><trkpt lat="44.125001" lon="5.5272432"><ele>1027.0</ele><time>2026-04-10T09:04:40.87Z</time></trkpt><trkpt lat="44.1251885" lon="5.5272696"><ele>1028.6666666666665</ele><time>2026-04-10T09:04:41.869Z</time></trkpt><trkpt lat="44.1253764" lon="5.5272915"><ele>1030.3333333333333</ele><time>2026-04-10T09:04:42.867Z</time></trkpt><trkpt lat="44.1255482" lon="5.5273085"><ele>1032.0</ele><time>2026-04-10T09:04:43.87Z</time></trkpt><trkpt lat="44.125711" lon="5.5273217"><ele>1033.6666666666667</ele><time>2026-04-10T09:04:44.879Z</time></trkpt><trkpt lat="44.1258643" lon="5.5273223"><ele>1035.3333333333335</ele><time>2026-04-10T09:04:45.871Z</time></trkpt><trkpt lat="44.1260194" lon="5.5273149"><ele>1037.0</ele><time>2026-04-10T09:04:46.867Z</time></trkpt><trkpt lat="44.1261701" lon="5.5273241"><ele>1037.0</ele><time>2026-04-10T09:04:47.867Z</time></trkpt><trkpt lat="44.1263058" lon="5.5273563"><ele>1037.0</ele><time>2026-04-10T09:04:48.868Z</time></trkpt><trkpt lat="44.1264392" lon="5.5273968"><ele>1037.0</ele><time>2026-04-10T09:04:49.868Z</time></trkpt><trkpt lat="44.126581" lon="5.5274268"><ele>1037.0</ele><time>2026-04-10T09:04:50.87Z</time></trkpt><trkpt lat="44.1267249" lon="5.5274336"><ele>1040.0</ele><time>2026-04-10T09:04:51.866Z</time></trkpt><trkpt lat="44.1268755" lon="5.5274077"><ele>1043.0</ele><time>2026-04-10T09:04:52.872Z</time></trkpt><trkpt lat="44.1270357" lon="5.5273589"><ele>1046.0</ele><time>2026-04-10T09:04:53.867Z</time></trkpt><trkpt lat="44.127194" lon="5.5273037"><ele>1046.0</ele><time>2026-04-10T09:04:54.865Z</time></trkpt><trkpt lat="44.1273309" lon="5.5272673"><ele>1046.0</ele><time>2026-04-10T09:04:55.871Z</time></trkpt><trkpt lat="44.12746" lon="5.5272491"><ele>1046.0</ele><time>2026-04-10T09:04:56.869Z</time></trkpt><trkpt lat="44.127581" lon="5.5272471"><ele>1046.0</ele><time>2026-04-10T09:04:57.867Z</time></trkpt><trkpt lat="44.1277123" lon="5.5272398"><ele>1048.5</ele><time>2026-04-10T09:04:58.871Z</time></trkpt><trkpt lat="44.1278423" lon="5.5272237"><ele>1051.0</ele><time>2026-04-10T09:04:59.866Z</time></trkpt><trkpt lat="44.1279808" lon="5.5272088"><ele>1053.5</ele><time>2026-04-10T09:05:00.869Z</time></trkpt><trkpt lat="44.1281143" lon="5.5271922"><ele>1056.0</ele><time>2026-04-10T09:05:01.882Z</time></trkpt><trkpt lat="44.128254" lon="5.5271802"><ele>1058.5</ele><time>2026-04-10T09:05:02.874Z</time></trkpt><trkpt lat="44.1283978" lon="5.5271559"><ele>1061.0</ele><time>2026-04-10T09:05:03.868Z</time></trkpt><trkpt lat="44.1285484" lon="5.5271134"><ele>1063.5</ele><time>2026-04-10T09:05:04.872Z</time></trkpt><trkpt lat="44.1286844" lon="5.5270368"><ele>1066.0</ele><time>2026-04-10T09:05:05.865Z</time></trkpt><trkpt lat="44.1288148" lon="5.5269498"><ele>1066.25</ele><time>2026-04-10T09:05:06.867Z</time></trkpt><trkpt lat="44.1289421" lon="5.5268655"><ele>1066.5</ele><time>2026-04-10T09:05:07.868Z</time></trkpt><trkpt lat="44.1290701" lon="5.5267815"><ele>1066.75</ele><time>2026-04-10T09:05:08.867Z</time></trkpt><trkpt lat="44.1291978" lon="5.5266982"><ele>1067.0</ele><time>2026-04-10T09:05:09.869Z</time></trkpt><trkpt lat="44.1293211" lon="5.5266147"><ele>1069.5</ele><time>2026-04-10T09:05:10.869Z</time></trkpt><trkpt lat="44.1294454" lon="5.5265274"><ele>1072.0</ele><time>2026-04-10T09:05:11.869Z</time></trkpt><trkpt lat="44.1295752" lon="5.5264457"><ele>1074.5</ele><time>2026-04-10T09:05:12.872Z</time></trkpt><trkpt lat="44.1297131" lon="5.5263652"><ele>1077.0</ele><time>2026-04-10T09:05:13.87Z</time></trkpt><trkpt lat="44.1298456" lon="5.5262863"><ele>1080.25</ele><time>2026-04-10T09:05:14.867Z</time></trkpt><trkpt lat="44.12998" lon="5.5262143"><ele>1083.5</ele><time>2026-04-10T09:05:15.868Z</time></trkpt><trkpt lat="44.1300846" lon="5.5261899"><ele>1086.75</ele><time>2026-04-10T09:05:16.873Z</time></trkpt><trkpt lat="44.1301913" lon="5.5261839"><ele>1090.0</ele><time>2026-04-10T09:05:17.866Z</time></trkpt><trkpt lat="44.130308" lon="5.5261845"><ele>1090.0</ele><time>2026-04-10T09:05:18.868Z</time></trkpt><trkpt lat="44.1304344" lon="5.5261683"><ele>1090.0</ele><time>2026-04-10T09:05:19.872Z</time></trkpt><trkpt lat="44.1305563" lon="5.5261434"><ele>1090.0</ele><time>2026-04-10T09:05:20.871Z</time></trkpt><trkpt lat="44.1306713" lon="5.5261369"><ele>1090.0</ele><time>2026-04-10T09:05:21.869Z</time></trkpt><trkpt lat="44.1307877" lon="5.526163"><ele>1092.25</ele><time>2026-04-10T09:05:22.869Z</time></trkpt><trkpt lat="44.1309067" lon="5.5261775"><ele>1094.5</ele><time>2026-04-10T09:05:23.871Z</time></trkpt><trkpt lat="44.1310164" lon="5.5261809"><ele>1096.75</ele><time>2026-04-10T09:05:24.867Z</time></trkpt><trkpt lat="44.1311268" lon="5.5261655"><ele>1099.0</ele><time>2026-04-10T09:05:25.875Z</time></trkpt><trkpt lat="44.1312435" lon="5.5261585"><ele>1099.0</ele><time>2026-04-10T09:05:26.869Z</time></trkpt><trkpt lat="44.1313725" lon="5.5261626"><ele>1099.0</ele><time>2026-04-10T09:05:27.871Z</time></trkpt><trkpt lat="44.1315167" lon="5.5261983"><ele>1099.0</ele><time>2026-04-10T09:05:28.868Z</time></trkpt><trkpt lat="44.1316697" lon="5.5262417"><ele>1099.0</ele><time>2026-04-10T09:05:29.869Z</time></trkpt><trkpt lat="44.1318368" lon="5.5262786"><ele>1103.0</ele><time>2026-04-10T09:05:30.868Z</time></trkpt><trkpt lat="44.1320165" lon="5.526328"><ele>1107.0</ele><time>2026-04-10T09:05:31.868Z</time></trkpt><trkpt lat="44.1321966" lon="5.5263891"><ele>1111.0</ele><time>2026-04-10T09:05:32.87Z</time></trkpt><trkpt lat="44.132356" lon="5.5264235"><ele>1111.75</ele><time>2026-04-10T09:05:33.869Z</time></trkpt><trkpt lat="44.1325098" lon="5.5264466"><ele>1112.5</ele><time>2026-04-10T09:05:34.869Z</time></trkpt><trkpt lat="44.1326569" lon="5.5264663"><ele>1113.25</ele><time>2026-04-10T09:05:35.866Z</time></trkpt><trkpt lat="44.1327945" lon="5.5265014"><ele>1114.0</ele><time>2026-04-10T09:05:36.87Z</time></trkpt><trkpt lat="44.1329375" lon="5.5265372"><ele>1114.0</ele><time>2026-04-10T09:05:37.874Z</time></trkpt><trkpt lat="44.1330875" lon="5.5265658"><ele>1114.0</ele><time>2026-04-10T09:05:38.866Z</time></trkpt><trkpt lat="44.1332436" lon="5.5265901"><ele>1114.0</ele><time>2026-04-10T09:05:39.869Z</time></trkpt><trkpt lat="44.1334035" lon="5.5266105"><ele>1114.0</ele><time>2026-04-10T09:05:40.87Z</time></trkpt><trkpt lat="44.1335626" lon="5.5266279"><ele>1114.0</ele><time>2026-04-10T09:05:41.87Z</time></trkpt><trkpt lat="44.1337247" lon="5.5266492"><ele>1114.0</ele><time>2026-04-10T09:05:42.865Z</time></trkpt><trkpt lat="44.1338896" lon="5.5266709"><ele>1114.0</ele><time>2026-04-10T09:05:43.885Z</time></trkpt><trkpt lat="44.1340495" lon="5.5266988"><ele>1114.0</ele><time>2026-04-10T09:05:44.877Z</time></trkpt><trkpt lat="44.1342177" lon="5.526727"><ele>1114.0</ele><time>2026-04-10T09:05:45.87Z</time></trkpt><trkpt lat="44.1343853" lon="5.5267566"><ele>1116.0</ele><time>2026-04-10T09:05:46.867Z</time></trkpt><trkpt lat="44.1345547" lon="5.5267911"><ele>1118.0</ele><time>2026-04-10T09:05:47.87Z</time></trkpt><trkpt lat="44.1347177" lon="5.5268134"><ele>1120.0</ele><time>2026-04-10T09:05:48.869Z</time></trkpt><trkpt lat="44.1348687" lon="5.5268178"><ele>1121.75</ele><time>2026-04-10T09:05:49.873Z</time></trkpt><trkpt lat="44.1350155" lon="5.5267944"><ele>1123.5</ele><time>2026-04-10T09:05:50.868Z</time></trkpt><trkpt lat="44.1351616" lon="5.5267538"><ele>1125.25</ele><time>2026-04-10T09:05:51.871Z</time></trkpt><trkpt lat="44.1352978" lon="5.5267226"><ele>1127.0</ele><time>2026-04-10T09:05:52.868Z</time></trkpt><trkpt lat="44.1354387" lon="5.5267169"><ele>1127.0</ele><time>2026-04-10T09:05:53.868Z</time></trkpt><trkpt lat="44.1355784" lon="5.526762"><ele>1127.0</ele><time>2026-04-10T09:05:54.868Z</time></trkpt><trkpt lat="44.1357255" lon="5.5268334"><ele>1127.0</ele><time>2026-04-10T09:05:55.87Z</time></trkpt><trkpt lat="44.1358802" lon="5.5268956"><ele>1128.6666666666667</ele><time>2026-04-10T09:05:56.87Z</time></trkpt><trkpt lat="44.1360519" lon="5.5269285"><ele>1130.3333333333333</ele><time>2026-04-10T09:05:57.866Z</time></trkpt><trkpt lat="44.136232" lon="5.5269428"><ele>1132.0</ele><time>2026-04-10T09:05:58.865Z</time></trkpt><trkpt lat="44.1364024" lon="5.5269636"><ele>1134.3333333333333</ele><time>2026-04-10T09:05:59.868Z</time></trkpt><trkpt lat="44.136575" lon="5.5269967"><ele>1136.6666666666667</ele><time>2026-04-10T09:06:00.867Z</time></trkpt><trkpt lat="44.1367406" lon="5.5270478"><ele>1139.0</ele><time>2026-04-10T09:06:01.865Z</time></trkpt><trkpt lat="44.1368978" lon="5.5271182"><ele>1140.0</ele><time>2026-04-10T09:06:02.869Z</time></trkpt><trkpt lat="44.1370495" lon="5.5272258"><ele>1141.0</ele><time>2026-04-10T09:06:03.873Z</time></trkpt><trkpt lat="44.1371877" lon="5.5273322"><ele>1142.0</ele><time>2026-04-10T09:06:04.87Z</time></trkpt><trkpt lat="44.1373288" lon="5.5274322"><ele>1143.5</ele><time>2026-04-10T09:06:05.876Z</time></trkpt><trkpt lat="44.1374693" lon="5.5275337"><ele>1145.0</ele><time>2026-04-10T09:06:06.866Z</time></trkpt><trkpt lat="44.1376013" lon="5.5276331"><ele>1146.5</ele><time>2026-04-10T09:06:07.87Z</time></trkpt><trkpt lat="44.1377238" lon="5.5277292"><ele>1148.0</ele><time>2026-04-10T09:06:08.867Z</time></trkpt><trkpt lat="44.1378629" lon="5.5278143"><ele>1149.6666666666667</ele><time>2026-04-10T09:06:09.873Z</time></trkpt><trkpt lat="44.1380034" lon="5.5279064"><ele>1151.3333333333333</ele><time>2026-04-10T09:06:10.872Z</time></trkpt><trkpt lat="44.1381443" lon="5.5279855"><ele>1153.0</ele><time>2026-04-10T09:06:11.867Z</time></trkpt><trkpt lat="44.1382876" lon="5.5280484"><ele>1153.5</ele><time>2026-04-10T09:06:12.866Z</time></trkpt><trkpt lat="44.1384061" lon="5.5281205"><ele>1154.0</ele><time>2026-04-10T09:06:13.867Z</time></trkpt><trkpt lat="44.1385244" lon="5.5281693"><ele>1154.5</ele><time>2026-04-10T09:06:14.87Z</time></trkpt><trkpt lat="44.138637" lon="5.52821"><ele>1155.0</ele><time>2026-04-10T09:06:15.869Z</time></trkpt><trkpt lat="44.1387217" lon="5.5282098"><ele>1155.0</ele><time>2026-04-10T09:06:16.865Z</time></trkpt><trkpt lat="44.1388013" lon="5.5282066"><ele>1155.0</ele><time>2026-04-10T09:06:17.868Z</time></trkpt><trkpt lat="44.1388746" lon="5.528194"><ele>1155.0</ele><time>2026-04-10T09:06:18.871Z</time></trkpt><trkpt lat="44.139002" lon="5.5281959"><ele>1155.0</ele><time>2026-04-10T09:06:20.87Z</time></trkpt><trkpt lat="44.1391183" lon="5.5281596"><ele>1155.0</ele><time>2026-04-10T09:06:22.873Z</time></trkpt><trkpt lat="44.1391806" lon="5.5281156"><ele>1154.2</ele><time>2026-04-10T09:06:23.864Z</time></trkpt><trkpt lat="44.1392496" lon="5.5280636"><ele>1153.4</ele><time>2026-04-10T09:06:24.884Z</time></trkpt><trkpt lat="44.139329" lon="5.528026"><ele>1152.6</ele><time>2026-04-10T09:06:25.877Z</time></trkpt><trkpt lat="44.1394373" lon="5.5280072"><ele>1151.8</ele><time>2026-04-10T09:06:26.869Z</time></trkpt><trkpt lat="44.1395592" lon="5.5279965"><ele>1151.0</ele><time>2026-04-10T09:06:27.868Z</time></trkpt><trkpt lat="44.1396797" lon="5.528007"><ele>1151.0</ele><time>2026-04-10T09:06:28.866Z</time></trkpt><trkpt lat="44.1397947" lon="5.5280449"><ele>1151.0</ele><time>2026-04-10T09:06:29.87Z</time></trkpt><trkpt lat="44.1399117" lon="5.528093"><ele>1151.0</ele><time>2026-04-10T09:06:30.869Z</time></trkpt><trkpt lat="44.1400349" lon="5.5281773"><ele>1151.0</ele><time>2026-04-10T09:06:31.879Z</time></trkpt><trkpt lat="44.1401524" lon="5.5282633"><ele>1150.75</ele><time>2026-04-10T09:06:32.874Z</time></trkpt><trkpt lat="44.1402736" lon="5.5283304"><ele>1150.5</ele><time>2026-04-10T09:06:33.867Z</time></trkpt><trkpt lat="44.1403926" lon="5.5284236"><ele>1150.25</ele><time>2026-04-10T09:06:34.869Z</time></trkpt><trkpt lat="44.1405095" lon="5.5285085"><ele>1150.0</ele><time>2026-04-10T09:06:35.877Z</time></trkpt><trkpt lat="44.1406143" lon="5.5285865"><ele>1151.75</ele><time>2026-04-10T09:06:36.881Z</time></trkpt><trkpt lat="44.1407268" lon="5.5286563"><ele>1153.5</ele><time>2026-04-10T09:06:37.87Z</time></trkpt><trkpt lat="44.1408324" lon="5.5287041"><ele>1155.25</ele><time>2026-04-10T09:06:38.868Z</time></trkpt><trkpt lat="44.1409521" lon="5.5287181"><ele>1157.0</ele><time>2026-04-10T09:06:39.872Z</time></trkpt><trkpt lat="44.1410785" lon="5.5287125"><ele>1157.0</ele><time>2026-04-10T09:06:40.869Z</time></trkpt><trkpt lat="44.1412043" lon="5.5287092"><ele>1157.0</ele><time>2026-04-10T09:06:41.867Z</time></trkpt><trkpt lat="44.1413029" lon="5.5286766"><ele>1157.0</ele><time>2026-04-10T09:06:42.869Z</time></trkpt><trkpt lat="44.1414042" lon="5.5286564"><ele>1157.0</ele><time>2026-04-10T09:06:43.889Z</time></trkpt><trkpt lat="44.1414802" lon="5.5286451"><ele>1157.0</ele><time>2026-04-10T09:06:44.879Z</time></trkpt><trkpt lat="44.1415313" lon="5.5287604"><ele>1157.4</ele><time>2026-04-10T09:06:46.886Z</time></trkpt><trkpt lat="44.1415699" lon="5.5289169"><ele>1157.8000000000002</ele><time>2026-04-10T09:06:48.869Z</time></trkpt><trkpt lat="44.1415687" lon="5.5290401"><ele>1158.2</ele><time>2026-04-10T09:06:49.869Z</time></trkpt><trkpt lat="44.1415504" lon="5.5292012"><ele>1158.6000000000001</ele><time>2026-04-10T09:06:50.866Z</time></trkpt><trkpt lat="44.1415253" lon="5.5293543"><ele>1159.0</ele><time>2026-04-10T09:06:51.867Z</time></trkpt><trkpt lat="44.1414877" lon="5.529511"><ele>1157.0</ele><time>2026-04-10T09:06:52.869Z</time></trkpt><trkpt lat="44.1414454" lon="5.529636"><ele>1155.0</ele><time>2026-04-10T09:06:53.868Z</time></trkpt><trkpt lat="44.1413641" lon="5.5297436"><ele>1153.0</ele><time>2026-04-10T09:06:54.866Z</time></trkpt><trkpt lat="44.141285" lon="5.5298202"><ele>1151.0</ele><time>2026-04-10T09:06:55.867Z</time></trkpt><trkpt lat="44.1411961" lon="5.5299183"><ele>1149.0</ele><time>2026-04-10T09:06:57.871Z</time></trkpt><trkpt lat="44.1412023" lon="5.5300718"><ele>1149.0</ele><time>2026-04-10T09:06:59.866Z</time></trkpt><trkpt lat="44.1412254" lon="5.5301778"><ele>1149.0</ele><time>2026-04-10T09:07:00.868Z</time></trkpt><trkpt lat="44.1412581" lon="5.5302889"><ele>1149.0</ele><time>2026-04-10T09:07:01.868Z</time></trkpt><trkpt lat="44.1412913" lon="5.530424"><ele>1149.0</ele><time>2026-04-10T09:07:02.868Z</time></trkpt><trkpt lat="44.1413339" lon="5.5305639"><ele>1149.0</ele><time>2026-04-10T09:07:03.867Z</time></trkpt><trkpt lat="44.141382" lon="5.5306991"><ele>1150.0</ele><time>2026-04-10T09:07:04.868Z</time></trkpt><trkpt lat="44.141402" lon="5.530826"><ele>1151.0</ele><time>2026-04-10T09:07:05.867Z</time></trkpt><trkpt lat="44.1414416" lon="5.5309223"><ele>1152.0</ele><time>2026-04-10T09:07:06.867Z</time></trkpt><trkpt lat="44.1414731" lon="5.5310219"><ele>1153.0</ele><time>2026-04-10T09:07:07.87Z</time></trkpt><trkpt lat="44.141523" lon="5.5311034"><ele>1154.0</ele><time>2026-04-10T09:07:08.87Z</time></trkpt><trkpt lat="44.1415842" lon="5.5311715"><ele>1155.0</ele><time>2026-04-10T09:07:09.872Z</time></trkpt><trkpt lat="44.1416543" lon="5.5312034"><ele>1155.5</ele><time>2026-04-10T09:07:10.867Z</time></trkpt><trkpt lat="44.1417168" lon="5.5312175"><ele>1156.0</ele><time>2026-04-10T09:07:11.866Z</time></trkpt><trkpt lat="44.1418107" lon="5.5312275"><ele>1156.5</ele><time>2026-04-10T09:07:12.869Z</time></trkpt><trkpt lat="44.1418987" lon="5.5312446"><ele>1157.0</ele><time>2026-04-10T09:07:13.869Z</time></trkpt><trkpt lat="44.1419667" lon="5.5312873"><ele>1157.5</ele><time>2026-04-10T09:07:14.873Z</time></trkpt><trkpt lat="44.1420422" lon="5.5313444"><ele>1158.0</ele><time>2026-04-10T09:07:15.872Z</time></trkpt><trkpt lat="44.1420811" lon="5.5314768"><ele>1158.0</ele><time>2026-04-10T09:07:16.871Z</time></trkpt><trkpt lat="44.142122" lon="5.5316146"><ele>1158.0</ele><time>2026-04-10T09:07:17.869Z</time></trkpt><trkpt lat="44.1421744" lon="5.5317523"><ele>1158.0</ele><time>2026-04-10T09:07:18.865Z</time></trkpt><trkpt lat="44.1422444" lon="5.5318837"><ele>1158.0</ele><time>2026-04-10T09:07:19.867Z</time></trkpt><trkpt lat="44.1423144" lon="5.5320093"><ele>1157.25</ele><time>2026-04-10T09:07:20.874Z</time></trkpt><trkpt lat="44.1423873" lon="5.5321205"><ele>1156.5</ele><time>2026-04-10T09:07:21.867Z</time></trkpt><trkpt lat="44.1424896" lon="5.5322505"><ele>1155.75</ele><time>2026-04-10T09:07:22.87Z</time></trkpt><trkpt lat="44.1425848" lon="5.5323846"><ele>1155.0</ele><time>2026-04-10T09:07:23.868Z</time></trkpt><trkpt lat="44.1426686" lon="5.532534"><ele>1155.0</ele><time>2026-04-10T09:07:24.867Z</time></trkpt><trkpt lat="44.1427376" lon="5.5326918"><ele>1155.0</ele><time>2026-04-10T09:07:25.867Z</time></trkpt><trkpt lat="44.142804" lon="5.5328257"><ele>1155.0</ele><time>2026-04-10T09:07:26.87Z</time></trkpt><trkpt lat="44.1428863" lon="5.53297"><ele>1155.0</ele><time>2026-04-10T09:07:27.874Z</time></trkpt><trkpt lat="44.1429608" lon="5.5331244"><ele>1155.25</ele><time>2026-04-10T09:07:28.869Z</time></trkpt><trkpt lat="44.1430428" lon="5.5332589"><ele>1155.5</ele><time>2026-04-10T09:07:29.865Z</time></trkpt><trkpt lat="44.1431218" lon="5.533382"><ele>1155.75</ele><time>2026-04-10T09:07:30.875Z</time></trkpt><trkpt lat="44.143202" lon="5.5334865"><ele>1156.0</ele><time>2026-04-10T09:07:31.872Z</time></trkpt><trkpt lat="44.1432927" lon="5.5335657"><ele>1156.0</ele><time>2026-04-10T09:07:32.867Z</time></trkpt><trkpt lat="44.1433902" lon="5.5336301"><ele>1156.0</ele><time>2026-04-10T09:07:33.867Z</time></trkpt><trkpt lat="44.1435032" lon="5.5336519"><ele>1156.0</ele><time>2026-04-10T09:07:34.868Z</time></trkpt><trkpt lat="44.1436246" lon="5.5336798"><ele>1156.0</ele><time>2026-04-10T09:07:35.865Z</time></trkpt><trkpt lat="44.1437659" lon="5.5337043"><ele>1152.0</ele><time>2026-04-10T09:07:36.867Z</time></trkpt><trkpt lat="44.1439142" lon="5.5337379"><ele>1148.0</ele><time>2026-04-10T09:07:37.869Z</time></trkpt><trkpt lat="44.1440534" lon="5.5337614"><ele>1144.0</ele><time>2026-04-10T09:07:38.87Z</time></trkpt><trkpt lat="44.1441906" lon="5.5338005"><ele>1140.0</ele><time>2026-04-10T09:07:39.868Z</time></trkpt><trkpt lat="44.1443347" lon="5.5338568"><ele>1140.0</ele><time>2026-04-10T09:07:40.87Z</time></trkpt><trkpt lat="44.1444789" lon="5.5339102"><ele>1140.0</ele><time>2026-04-10T09:07:41.867Z</time></trkpt><trkpt lat="44.1446168" lon="5.5339816"><ele>1140.0</ele><time>2026-04-10T09:07:42.869Z</time></trkpt><trkpt lat="44.1447617" lon="5.5340607"><ele>1141.6666666666667</ele><time>2026-04-10T09:07:43.87Z</time></trkpt><trkpt lat="44.1449046" lon="5.5341491"><ele>1143.3333333333335</ele><time>2026-04-10T09:07:44.867Z</time></trkpt><trkpt lat="44.1450369" lon="5.5342405"><ele>1145.0</ele><time>2026-04-10T09:07:45.87Z</time></trkpt><trkpt lat="44.1451807" lon="5.5343345"><ele>1145.0</ele><time>2026-04-10T09:07:46.866Z</time></trkpt><trkpt lat="44.1453062" lon="5.5344357"><ele>1145.0</ele><time>2026-04-10T09:07:47.87Z</time></trkpt><trkpt lat="44.1454399" lon="5.5345151"><ele>1145.0</ele><time>2026-04-10T09:07:48.87Z</time></trkpt><trkpt lat="44.1455672" lon="5.5345883"><ele>1145.0</ele><time>2026-04-10T09:07:49.867Z</time></trkpt><trkpt lat="44.1457008" lon="5.5346485"><ele>1144.5</ele><time>2026-04-10T09:07:50.872Z</time></trkpt><trkpt lat="44.1458309" lon="5.5347244"><ele>1144.0</ele><time>2026-04-10T09:07:51.868Z</time></trkpt><trkpt lat="44.145947" lon="5.5348075"><ele>1143.5</ele><time>2026-04-10T09:07:52.867Z</time></trkpt><trkpt lat="44.1460656" lon="5.5348833"><ele>1143.0</ele><time>2026-04-10T09:07:53.872Z</time></trkpt><trkpt lat="44.1461906" lon="5.5349428"><ele>1143.0</ele><time>2026-04-10T09:07:54.873Z</time></trkpt><trkpt lat="44.1463149" lon="5.5350042"><ele>1143.0</ele><time>2026-04-10T09:07:55.869Z</time></trkpt><trkpt lat="44.1464459" lon="5.5350586"><ele>1143.0</ele><time>2026-04-10T09:07:56.871Z</time></trkpt><trkpt lat="44.1465682" lon="5.5351129"><ele>1143.0</ele><time>2026-04-10T09:07:57.87Z</time></trkpt><trkpt lat="44.1466792" lon="5.5351791"><ele>1144.4</ele><time>2026-04-10T09:07:58.87Z</time></trkpt><trkpt lat="44.1467724" lon="5.5352669"><ele>1145.8</ele><time>2026-04-10T09:07:59.872Z</time></trkpt><trkpt lat="44.146844" lon="5.5353357"><ele>1147.2</ele><time>2026-04-10T09:08:00.87Z</time></trkpt><trkpt lat="44.1469341" lon="5.5354147"><ele>1148.6</ele><time>2026-04-10T09:08:01.872Z</time></trkpt><trkpt lat="44.1470369" lon="5.5354473"><ele>1150.0</ele><time>2026-04-10T09:08:02.869Z</time></trkpt><trkpt lat="44.1471467" lon="5.5354737"><ele>1150.0</ele><time>2026-04-10T09:08:03.87Z</time></trkpt><trkpt lat="44.1472606" lon="5.5354874"><ele>1150.0</ele><time>2026-04-10T09:08:04.869Z</time></trkpt><trkpt lat="44.1473693" lon="5.5354972"><ele>1150.0</ele><time>2026-04-10T09:08:05.868Z</time></trkpt><trkpt lat="44.1474797" lon="5.5355352"><ele>1150.0</ele><time>2026-04-10T09:08:06.867Z</time></trkpt><trkpt lat="44.1475716" lon="5.5356191"><ele>1150.0</ele><time>2026-04-10T09:08:07.868Z</time></trkpt><trkpt lat="44.1476529" lon="5.535721"><ele>1150.0</ele><time>2026-04-10T09:08:08.868Z</time></trkpt><trkpt lat="44.1477458" lon="5.5358329"><ele>1150.0</ele><time>2026-04-10T09:08:09.87Z</time></trkpt><trkpt lat="44.1478375" lon="5.5359369"><ele>1150.0</ele><time>2026-04-10T09:08:10.868Z</time></trkpt><trkpt lat="44.1479353" lon="5.5360961"><ele>1150.0</ele><time>2026-04-10T09:08:11.867Z</time></trkpt><trkpt lat="44.1480317" lon="5.5362669"><ele>1153.6666666666665</ele><time>2026-04-10T09:08:12.867Z</time></trkpt><trkpt lat="44.1481309" lon="5.5364389"><ele>1157.3333333333333</ele><time>2026-04-10T09:08:13.865Z</time></trkpt><trkpt lat="44.1482184" lon="5.5366237"><ele>1161.0</ele><time>2026-04-10T09:08:14.869Z</time></trkpt><trkpt lat="44.1482941" lon="5.5368303"><ele>1161.0</ele><time>2026-04-10T09:08:15.87Z</time></trkpt><trkpt lat="44.1483646" lon="5.5370414"><ele>1161.0</ele><time>2026-04-10T09:08:16.871Z</time></trkpt><trkpt lat="44.1484229" lon="5.5372396"><ele>1161.0</ele><time>2026-04-10T09:08:17.87Z</time></trkpt><trkpt lat="44.1484722" lon="5.5374298"><ele>1161.75</ele><time>2026-04-10T09:08:18.873Z</time></trkpt><trkpt lat="44.1485067" lon="5.5376274"><ele>1162.5</ele><time>2026-04-10T09:08:19.868Z</time></trkpt><trkpt lat="44.1485381" lon="5.5378218"><ele>1163.25</ele><time>2026-04-10T09:08:20.869Z</time></trkpt><trkpt lat="44.148564" lon="5.5380137"><ele>1164.0</ele><time>2026-04-10T09:08:21.865Z</time></trkpt><trkpt lat="44.1485918" lon="5.5382043"><ele>1165.0</ele><time>2026-04-10T09:08:22.87Z</time></trkpt><trkpt lat="44.1486148" lon="5.5383984"><ele>1166.0</ele><time>2026-04-10T09:08:23.874Z</time></trkpt><trkpt lat="44.1486383" lon="5.5385884"><ele>1167.0</ele><time>2026-04-10T09:08:24.867Z</time></trkpt><trkpt lat="44.1486588" lon="5.5387665"><ele>1168.0</ele><time>2026-04-10T09:08:25.865Z</time></trkpt><trkpt lat="44.1486711" lon="5.538926"><ele>1169.25</ele><time>2026-04-10T09:08:26.874Z</time></trkpt><trkpt lat="44.1486909" lon="5.5390715"><ele>1170.5</ele><time>2026-04-10T09:08:27.867Z</time></trkpt><trkpt lat="44.1487255" lon="5.5392206"><ele>1171.75</ele><time>2026-04-10T09:08:28.869Z</time></trkpt><trkpt lat="44.1487721" lon="5.5393785"><ele>1173.0</ele><time>2026-04-10T09:08:29.865Z</time></trkpt><trkpt lat="44.1488281" lon="5.539544"><ele>1174.25</ele><time>2026-04-10T09:08:30.872Z</time></trkpt><trkpt lat="44.1489021" lon="5.5396915"><ele>1175.5</ele><time>2026-04-10T09:08:31.865Z</time></trkpt><trkpt lat="44.1489912" lon="5.5398259"><ele>1176.75</ele><time>2026-04-10T09:08:32.868Z</time></trkpt><trkpt lat="44.149079" lon="5.5399666"><ele>1178.0</ele><time>2026-04-10T09:08:33.865Z</time></trkpt><trkpt lat="44.1491548" lon="5.540088"><ele>1178.0</ele><time>2026-04-10T09:08:34.871Z</time></trkpt><trkpt lat="44.149226" lon="5.5401856"><ele>1178.0</ele><time>2026-04-10T09:08:35.866Z</time></trkpt><trkpt lat="44.1493073" lon="5.5402672"><ele>1178.0</ele><time>2026-04-10T09:08:36.873Z</time></trkpt><trkpt lat="44.1493944" lon="5.5403275"><ele>1178.0</ele><time>2026-04-10T09:08:37.868Z</time></trkpt><trkpt lat="44.1494839" lon="5.5404031"><ele>1178.0</ele><time>2026-04-10T09:08:38.867Z</time></trkpt><trkpt lat="44.1495777" lon="5.5404843"><ele>1179.8</ele><time>2026-04-10T09:08:39.871Z</time></trkpt><trkpt lat="44.1496678" lon="5.5405613"><ele>1181.6</ele><time>2026-04-10T09:08:40.866Z</time></trkpt><trkpt lat="44.1497604" lon="5.5406386"><ele>1183.4</ele><time>2026-04-10T09:08:41.869Z</time></trkpt><trkpt lat="44.1498534" lon="5.5407258"><ele>1185.2</ele><time>2026-04-10T09:08:42.871Z</time></trkpt><trkpt lat="44.1499424" lon="5.5408192"><ele>1187.0</ele><time>2026-04-10T09:08:43.866Z</time></trkpt><trkpt lat="44.1500179" lon="5.5409016"><ele>1187.0</ele><time>2026-04-10T09:08:44.864Z</time></trkpt><trkpt lat="44.1500947" lon="5.5409643"><ele>1187.0</ele><time>2026-04-10T09:08:45.864Z</time></trkpt><trkpt lat="44.1501775" lon="5.5410099"><ele>1187.0</ele><time>2026-04-10T09:08:46.865Z</time></trkpt><trkpt lat="44.1502672" lon="5.5410378"><ele>1187.0</ele><time>2026-04-10T09:08:47.866Z</time></trkpt><trkpt lat="44.1503632" lon="5.5410597"><ele>1187.0</ele><time>2026-04-10T09:08:48.866Z</time></trkpt><trkpt lat="44.1504722" lon="5.5410844"><ele>1187.0</ele><time>2026-04-10T09:08:49.865Z</time></trkpt><trkpt lat="44.1505843" lon="5.5411278"><ele>1187.0</ele><time>2026-04-10T09:08:50.866Z</time></trkpt><trkpt lat="44.1506997" lon="5.5411834"><ele>1187.0</ele><time>2026-04-10T09:08:51.868Z</time></trkpt><trkpt lat="44.1508148" lon="5.5412428"><ele>1187.0</ele><time>2026-04-10T09:08:52.866Z</time></trkpt><trkpt lat="44.150921" lon="5.5413057"><ele>1188.8</ele><time>2026-04-10T09:08:53.864Z</time></trkpt><trkpt lat="44.1510125" lon="5.5413534"><ele>1190.6</ele><time>2026-04-10T09:08:54.865Z</time></trkpt><trkpt lat="44.1511167" lon="5.5413754"><ele>1192.3999999999999</ele><time>2026-04-10T09:08:55.868Z</time></trkpt><trkpt lat="44.151229" lon="5.5413893"><ele>1194.2</ele><time>2026-04-10T09:08:56.866Z</time></trkpt><trkpt lat="44.1513392" lon="5.5414145"><ele>1196.0</ele><time>2026-04-10T09:08:57.867Z</time></trkpt><trkpt lat="44.1514581" lon="5.5414542"><ele>1196.75</ele><time>2026-04-10T09:08:58.866Z</time></trkpt><trkpt lat="44.1515767" lon="5.5415126"><ele>1197.5</ele><time>2026-04-10T09:08:59.867Z</time></trkpt><trkpt lat="44.1516804" lon="5.5416019"><ele>1198.25</ele><time>2026-04-10T09:09:00.866Z</time></trkpt><trkpt lat="44.1517855" lon="5.5417242"><ele>1199.0</ele><time>2026-04-10T09:09:01.867Z</time></trkpt><trkpt lat="44.1518972" lon="5.5418646"><ele>1199.0</ele><time>2026-04-10T09:09:02.869Z</time></trkpt><trkpt lat="44.1519976" lon="5.5419979"><ele>1199.0</ele><time>2026-04-10T09:09:03.871Z</time></trkpt><trkpt lat="44.1520752" lon="5.5420995"><ele>1199.0</ele><time>2026-04-10T09:09:04.871Z</time></trkpt><trkpt lat="44.1521546" lon="5.5421693"><ele>1199.0</ele><time>2026-04-10T09:09:05.866Z</time></trkpt><trkpt lat="44.152234" lon="5.5421929"><ele>1199.0</ele><time>2026-04-10T09:09:06.873Z</time></trkpt><trkpt lat="44.1523356" lon="5.5421908"><ele>1201.5</ele><time>2026-04-10T09:09:07.877Z</time></trkpt><trkpt lat="44.1524502" lon="5.5421987"><ele>1204.0</ele><time>2026-04-10T09:09:08.869Z</time></trkpt><trkpt lat="44.1525617" lon="5.5422513"><ele>1206.5</ele><time>2026-04-10T09:09:09.871Z</time></trkpt><trkpt lat="44.1526581" lon="5.5423375"><ele>1209.0</ele><time>2026-04-10T09:09:10.869Z</time></trkpt><trkpt lat="44.1527398" lon="5.5424333"><ele>1209.0</ele><time>2026-04-10T09:09:11.868Z</time></trkpt><trkpt lat="44.1527845" lon="5.5425599"><ele>1209.0</ele><time>2026-04-10T09:09:12.868Z</time></trkpt><trkpt lat="44.1528271" lon="5.5426906"><ele>1209.0</ele><time>2026-04-10T09:09:13.866Z</time></trkpt><trkpt lat="44.1528851" lon="5.5428049"><ele>1209.0</ele><time>2026-04-10T09:09:14.874Z</time></trkpt><trkpt lat="44.1529659" lon="5.5428997"><ele>1209.0</ele><time>2026-04-10T09:09:15.87Z</time></trkpt><trkpt lat="44.1530512" lon="5.542992"><ele>1211.2</ele><time>2026-04-10T09:09:16.869Z</time></trkpt><trkpt lat="44.1531361" lon="5.5430591"><ele>1213.4</ele><time>2026-04-10T09:09:17.868Z</time></trkpt><trkpt lat="44.1532164" lon="5.5431139"><ele>1215.6</ele><time>2026-04-10T09:09:18.872Z</time></trkpt><trkpt lat="44.1533084" lon="5.5431496"><ele>1217.8</ele><time>2026-04-10T09:09:19.869Z</time></trkpt><trkpt lat="44.1534245" lon="5.5431703"><ele>1220.0</ele><time>2026-04-10T09:09:20.869Z</time></trkpt><trkpt lat="44.1535273" lon="5.5431971"><ele>1220.75</ele><time>2026-04-10T09:09:21.87Z</time></trkpt><trkpt lat="44.1536279" lon="5.543233"><ele>1221.5</ele><time>2026-04-10T09:09:22.87Z</time></trkpt><trkpt lat="44.1537467" lon="5.5432826"><ele>1222.25</ele><time>2026-04-10T09:09:23.869Z</time></trkpt><trkpt lat="44.1538657" lon="5.5433444"><ele>1223.0</ele><time>2026-04-10T09:09:24.868Z</time></trkpt><trkpt lat="44.1539761" lon="5.5434053"><ele>1224.5</ele><time>2026-04-10T09:09:25.869Z</time></trkpt><trkpt lat="44.1540971" lon="5.5434889"><ele>1226.0</ele><time>2026-04-10T09:09:26.885Z</time></trkpt><trkpt lat="44.1542288" lon="5.5435768"><ele>1227.5</ele><time>2026-04-10T09:09:27.88Z</time></trkpt><trkpt lat="44.1543469" lon="5.5436488"><ele>1229.0</ele><time>2026-04-10T09:09:28.877Z</time></trkpt><trkpt lat="44.1544641" lon="5.5437045"><ele>1232.5</ele><time>2026-04-10T09:09:29.871Z</time></trkpt><trkpt lat="44.1545784" lon="5.5437657"><ele>1236.0</ele><time>2026-04-10T09:09:30.869Z</time></trkpt><trkpt lat="44.1546881" lon="5.5438202"><ele>1239.5</ele><time>2026-04-10T09:09:31.868Z</time></trkpt><trkpt lat="44.1547951" lon="5.5438615"><ele>1243.0</ele><time>2026-04-10T09:09:32.871Z</time></trkpt><trkpt lat="44.1549003" lon="5.5439079"><ele>1243.0</ele><time>2026-04-10T09:09:33.869Z</time></trkpt><trkpt lat="44.1550036" lon="5.5439724"><ele>1243.0</ele><time>2026-04-10T09:09:34.869Z</time></trkpt><trkpt lat="44.1551086" lon="5.5440457"><ele>1243.0</ele><time>2026-04-10T09:09:35.872Z</time></trkpt><trkpt lat="44.1552119" lon="5.5441176"><ele>1243.0</ele><time>2026-04-10T09:09:36.874Z</time></trkpt><trkpt lat="44.1553091" lon="5.5441938"><ele>1243.0</ele><time>2026-04-10T09:09:37.876Z</time></trkpt><trkpt lat="44.1554026" lon="5.5442804"><ele>1243.0</ele><time>2026-04-10T09:09:38.875Z</time></trkpt><trkpt lat="44.1554988" lon="5.5443834"><ele>1243.0</ele><time>2026-04-10T09:09:39.869Z</time></trkpt><trkpt lat="44.1555932" lon="5.5444798"><ele>1243.0</ele><time>2026-04-10T09:09:40.868Z</time></trkpt><trkpt lat="44.1556912" lon="5.5445766"><ele>1246.0</ele><time>2026-04-10T09:09:41.869Z</time></trkpt><trkpt lat="44.1557884" lon="5.5446794"><ele>1249.0</ele><time>2026-04-10T09:09:42.871Z</time></trkpt><trkpt lat="44.1558843" lon="5.5447862"><ele>1252.0</ele><time>2026-04-10T09:09:43.872Z</time></trkpt><trkpt lat="44.1559775" lon="5.5448989"><ele>1255.0</ele><time>2026-04-10T09:09:44.869Z</time></trkpt><trkpt lat="44.1560604" lon="5.5450258"><ele>1255.0</ele><time>2026-04-10T09:09:45.867Z</time></trkpt><trkpt lat="44.1561393" lon="5.5451481"><ele>1255.0</ele><time>2026-04-10T09:09:46.87Z</time></trkpt><trkpt lat="44.1562149" lon="5.5452697"><ele>1255.0</ele><time>2026-04-10T09:09:47.869Z</time></trkpt><trkpt lat="44.1562916" lon="5.5453733"><ele>1255.0</ele><time>2026-04-10T09:09:48.867Z</time></trkpt><trkpt lat="44.1563689" lon="5.5454795"><ele>1255.0</ele><time>2026-04-10T09:09:49.867Z</time></trkpt><trkpt lat="44.1564324" lon="5.5455809"><ele>1257.8</ele><time>2026-04-10T09:09:50.867Z</time></trkpt><trkpt lat="44.1564907" lon="5.5456924"><ele>1260.6</ele><time>2026-04-10T09:09:51.867Z</time></trkpt><trkpt lat="44.1565403" lon="5.5458001"><ele>1263.4</ele><time>2026-04-10T09:09:52.869Z</time></trkpt><trkpt lat="44.1565855" lon="5.5459093"><ele>1266.2</ele><time>2026-04-10T09:09:53.874Z</time></trkpt><trkpt lat="44.1566331" lon="5.5460386"><ele>1269.0</ele><time>2026-04-10T09:09:54.869Z</time></trkpt><trkpt lat="44.156676" lon="5.5461759"><ele>1271.6</ele><time>2026-04-10T09:09:55.868Z</time></trkpt><trkpt lat="44.1567168" lon="5.5463164"><ele>1274.2</ele><time>2026-04-10T09:09:56.867Z</time></trkpt><trkpt lat="44.1567637" lon="5.546449"><ele>1276.8</ele><time>2026-04-10T09:09:57.868Z</time></trkpt><trkpt lat="44.1568001" lon="5.5465856"><ele>1279.3999999999999</ele><time>2026-04-10T09:09:58.869Z</time></trkpt><trkpt lat="44.156841" lon="5.546716"><ele>1282.0</ele><time>2026-04-10T09:09:59.869Z</time></trkpt><trkpt lat="44.1568709" lon="5.5468465"><ele>1282.0</ele><time>2026-04-10T09:10:00.868Z</time></trkpt><trkpt lat="44.1568873" lon="5.5469724"><ele>1282.0</ele><time>2026-04-10T09:10:01.869Z</time></trkpt><trkpt lat="44.156889" lon="5.547099"><ele>1282.0</ele><time>2026-04-10T09:10:02.872Z</time></trkpt><trkpt lat="44.1569045" lon="5.5472176"><ele>1282.0</ele><time>2026-04-10T09:10:03.868Z</time></trkpt><trkpt lat="44.1569316" lon="5.5473021"><ele>1282.0</ele><time>2026-04-10T09:10:04.87Z</time></trkpt><trkpt lat="44.1569573" lon="5.547446"><ele>1282.0</ele><time>2026-04-10T09:10:06.872Z</time></trkpt><trkpt lat="44.1569796" lon="5.5475423"><ele>1283.1999999999998</ele><time>2026-04-10T09:10:08.866Z</time></trkpt><trkpt lat="44.1570541" lon="5.5475416"><ele>1284.4</ele><time>2026-04-10T09:10:11.869Z</time></trkpt><trkpt lat="44.1571266" lon="5.5473881"><ele>1285.6</ele><time>2026-04-10T09:10:22.876Z</time></trkpt><trkpt lat="44.1572046" lon="5.5472565"><ele>1286.8000000000002</ele><time>2026-04-10T09:10:23.868Z</time></trkpt><trkpt lat="44.1572769" lon="5.5471484"><ele>1288.0</ele><time>2026-04-10T09:10:24.869Z</time></trkpt><trkpt lat="44.1573434" lon="5.5470488"><ele>1287.5</ele><time>2026-04-10T09:10:25.869Z</time></trkpt><trkpt lat="44.1574086" lon="5.5469537"><ele>1287.0</ele><time>2026-04-10T09:10:26.875Z</time></trkpt><trkpt lat="44.1574882" lon="5.5468767"><ele>1286.5</ele><time>2026-04-10T09:10:27.869Z</time></trkpt><trkpt lat="44.1576125" lon="5.5468107"><ele>1286.0</ele><time>2026-04-10T09:10:28.869Z</time></trkpt><trkpt lat="44.157729" lon="5.5467454"><ele>1286.0</ele><time>2026-04-10T09:10:29.869Z</time></trkpt><trkpt lat="44.1578425" lon="5.5466782"><ele>1286.0</ele><time>2026-04-10T09:10:30.878Z</time></trkpt><trkpt lat="44.1579431" lon="5.5466102"><ele>1286.0</ele><time>2026-04-10T09:10:31.872Z</time></trkpt><trkpt lat="44.1580433" lon="5.546543"><ele>1286.0</ele><time>2026-04-10T09:10:32.872Z</time></trkpt><trkpt lat="44.1581414" lon="5.5464691"><ele>1285.4</ele><time>2026-04-10T09:10:33.868Z</time></trkpt><trkpt lat="44.1582298" lon="5.5464084"><ele>1284.8</ele><time>2026-04-10T09:10:34.869Z</time></trkpt><trkpt lat="44.158306" lon="5.5463449"><ele>1284.2</ele><time>2026-04-10T09:10:35.872Z</time></trkpt><trkpt lat="44.1583949" lon="5.5462745"><ele>1283.6000000000001</ele><time>2026-04-10T09:10:36.872Z</time></trkpt><trkpt lat="44.1584831" lon="5.5462064"><ele>1283.0</ele><time>2026-04-10T09:10:37.869Z</time></trkpt><trkpt lat="44.1585646" lon="5.5461329"><ele>1283.0</ele><time>2026-04-10T09:10:38.869Z</time></trkpt><trkpt lat="44.1586256" lon="5.5460459"><ele>1283.0</ele><time>2026-04-10T09:10:39.867Z</time></trkpt><trkpt lat="44.1586685" lon="5.5459538"><ele>1283.0</ele><time>2026-04-10T09:10:40.868Z</time></trkpt><trkpt lat="44.1586916" lon="5.5458341"><ele>1283.0</ele><time>2026-04-10T09:10:41.868Z</time></trkpt><trkpt lat="44.1587139" lon="5.5456965"><ele>1283.0</ele><time>2026-04-10T09:10:42.87Z</time></trkpt><trkpt lat="44.1587407" lon="5.5455617"><ele>1283.0</ele><time>2026-04-10T09:10:43.869Z</time></trkpt><trkpt lat="44.1587729" lon="5.545417"><ele>1283.0</ele><time>2026-04-10T09:10:44.868Z</time></trkpt><trkpt lat="44.1588031" lon="5.5452741"><ele>1283.0</ele><time>2026-04-10T09:10:45.867Z</time></trkpt><trkpt lat="44.15885" lon="5.5451214"><ele>1283.0</ele><time>2026-04-10T09:10:46.871Z</time></trkpt><trkpt lat="44.15889" lon="5.5449766"><ele>1283.0</ele><time>2026-04-10T09:10:47.868Z</time></trkpt><trkpt lat="44.1589319" lon="5.5448376"><ele>1282.4</ele><time>2026-04-10T09:10:48.874Z</time></trkpt><trkpt lat="44.1589885" lon="5.5447129"><ele>1281.8000000000002</ele><time>2026-04-10T09:10:49.874Z</time></trkpt><trkpt lat="44.1590585" lon="5.5445921"><ele>1281.2</ele><time>2026-04-10T09:10:50.872Z</time></trkpt><trkpt lat="44.1591187" lon="5.5444991"><ele>1280.6</ele><time>2026-04-10T09:10:51.871Z</time></trkpt><trkpt lat="44.1591969" lon="5.5444118"><ele>1280.0</ele><time>2026-04-10T09:10:52.868Z</time></trkpt><trkpt lat="44.1592681" lon="5.544335"><ele>1282.4</ele><time>2026-04-10T09:10:53.865Z</time></trkpt><trkpt lat="44.1593146" lon="5.5442406"><ele>1284.8</ele><time>2026-04-10T09:10:54.865Z</time></trkpt><trkpt lat="44.1593397" lon="5.5441166"><ele>1287.1999999999998</ele><time>2026-04-10T09:10:55.883Z</time></trkpt><trkpt lat="44.1593438" lon="5.5439692"><ele>1289.6</ele><time>2026-04-10T09:10:56.87Z</time></trkpt><trkpt lat="44.1593268" lon="5.5438039"><ele>1292.0</ele><time>2026-04-10T09:10:57.866Z</time></trkpt><trkpt lat="44.1593092" lon="5.543634"><ele>1293.8</ele><time>2026-04-10T09:10:58.874Z</time></trkpt><trkpt lat="44.159305" lon="5.5434749"><ele>1295.6</ele><time>2026-04-10T09:10:59.875Z</time></trkpt><trkpt lat="44.1593158" lon="5.5433257"><ele>1297.3999999999999</ele><time>2026-04-10T09:11:00.871Z</time></trkpt><trkpt lat="44.1593399" lon="5.543189"><ele>1299.1999999999998</ele><time>2026-04-10T09:11:01.878Z</time></trkpt><trkpt lat="44.1593726" lon="5.5430577"><ele>1301.0</ele><time>2026-04-10T09:11:02.866Z</time></trkpt><trkpt lat="44.1594095" lon="5.5429316"><ele>1303.8</ele><time>2026-04-10T09:11:03.869Z</time></trkpt><trkpt lat="44.1594542" lon="5.5428095"><ele>1306.6</ele><time>2026-04-10T09:11:04.869Z</time></trkpt><trkpt lat="44.1594906" lon="5.542686"><ele>1309.4</ele><time>2026-04-10T09:11:05.868Z</time></trkpt><trkpt lat="44.1595098" lon="5.5425587"><ele>1312.2</ele><time>2026-04-10T09:11:06.873Z</time></trkpt><trkpt lat="44.159513" lon="5.5424159"><ele>1315.0</ele><time>2026-04-10T09:11:07.866Z</time></trkpt><trkpt lat="44.1595173" lon="5.542264"><ele>1315.0</ele><time>2026-04-10T09:11:08.868Z</time></trkpt><trkpt lat="44.1595216" lon="5.542092"><ele>1315.0</ele><time>2026-04-10T09:11:09.867Z</time></trkpt><trkpt lat="44.1595249" lon="5.5419169"><ele>1315.0</ele><time>2026-04-10T09:11:10.868Z</time></trkpt><trkpt lat="44.1595204" lon="5.541741"><ele>1315.0</ele><time>2026-04-10T09:11:11.865Z</time></trkpt><trkpt lat="44.1595112" lon="5.541569"><ele>1316.8</ele><time>2026-04-10T09:11:12.865Z</time></trkpt><trkpt lat="44.1594922" lon="5.5414173"><ele>1318.6</ele><time>2026-04-10T09:11:13.864Z</time></trkpt><trkpt lat="44.1594734" lon="5.5412724"><ele>1320.4</ele><time>2026-04-10T09:11:14.872Z</time></trkpt><trkpt lat="44.159437" lon="5.5411365"><ele>1322.2</ele><time>2026-04-10T09:11:15.865Z</time></trkpt><trkpt lat="44.1593785" lon="5.5409977"><ele>1324.0</ele><time>2026-04-10T09:11:16.869Z</time></trkpt><trkpt lat="44.1593215" lon="5.540858"><ele>1324.8000000000002</ele><time>2026-04-10T09:11:17.869Z</time></trkpt><trkpt lat="44.1592655" lon="5.5407198"><ele>1325.6000000000001</ele><time>2026-04-10T09:11:18.867Z</time></trkpt><trkpt lat="44.1592029" lon="5.5406085"><ele>1326.4</ele><time>2026-04-10T09:11:19.866Z</time></trkpt><trkpt lat="44.1591334" lon="5.5404966"><ele>1327.2</ele><time>2026-04-10T09:11:20.871Z</time></trkpt><trkpt lat="44.1590796" lon="5.5403687"><ele>1328.0</ele><time>2026-04-10T09:11:21.871Z</time></trkpt><trkpt lat="44.1590395" lon="5.5402093"><ele>1325.25</ele><time>2026-04-10T09:11:22.868Z</time></trkpt><trkpt lat="44.1590027" lon="5.5400604"><ele>1322.5</ele><time>2026-04-10T09:11:23.871Z</time></trkpt><trkpt lat="44.1589561" lon="5.5399058"><ele>1319.75</ele><time>2026-04-10T09:11:24.87Z</time></trkpt><trkpt lat="44.1589023" lon="5.5397474"><ele>1317.0</ele><time>2026-04-10T09:11:25.865Z</time></trkpt><trkpt lat="44.1588447" lon="5.5395891"><ele>1316.5</ele><time>2026-04-10T09:11:26.869Z</time></trkpt><trkpt lat="44.1587893" lon="5.5394172"><ele>1316.0</ele><time>2026-04-10T09:11:27.867Z</time></trkpt><trkpt lat="44.158737" lon="5.539242"><ele>1315.5</ele><time>2026-04-10T09:11:28.87Z</time></trkpt><trkpt lat="44.1586924" lon="5.5390639"><ele>1315.0</ele><time>2026-04-10T09:11:29.87Z</time></trkpt><trkpt lat="44.1586474" lon="5.5388771"><ele>1316.5</ele><time>2026-04-10T09:11:30.872Z</time></trkpt><trkpt lat="44.1586005" lon="5.5386901"><ele>1318.0</ele><time>2026-04-10T09:11:31.867Z</time></trkpt><trkpt lat="44.1585564" lon="5.5385079"><ele>1319.5</ele><time>2026-04-10T09:11:32.865Z</time></trkpt><trkpt lat="44.1585112" lon="5.5383346"><ele>1321.0</ele><time>2026-04-10T09:11:33.867Z</time></trkpt><trkpt lat="44.1584729" lon="5.5381531"><ele>1321.0</ele><time>2026-04-10T09:11:34.872Z</time></trkpt><trkpt lat="44.1584395" lon="5.537967"><ele>1321.0</ele><time>2026-04-10T09:11:35.867Z</time></trkpt><trkpt lat="44.1584173" lon="5.5377835"><ele>1321.0</ele><time>2026-04-10T09:11:36.869Z</time></trkpt><trkpt lat="44.1583909" lon="5.5376015"><ele>1321.0</ele><time>2026-04-10T09:11:37.866Z</time></trkpt><trkpt lat="44.1583582" lon="5.5374231"><ele>1321.0</ele><time>2026-04-10T09:11:38.867Z</time></trkpt><trkpt lat="44.1583455" lon="5.5372468"><ele>1321.0</ele><time>2026-04-10T09:11:39.867Z</time></trkpt><trkpt lat="44.1583385" lon="5.5370743"><ele>1321.0</ele><time>2026-04-10T09:11:40.87Z</time></trkpt><trkpt lat="44.1583345" lon="5.5369191"><ele>1321.0</ele><time>2026-04-10T09:11:41.871Z</time></trkpt><trkpt lat="44.1583307" lon="5.5367659"><ele>1321.0</ele><time>2026-04-10T09:11:42.866Z</time></trkpt><trkpt lat="44.1583251" lon="5.5366055"><ele>1321.0</ele><time>2026-04-10T09:11:43.867Z</time></trkpt><trkpt lat="44.15833" lon="5.5364508"><ele>1321.0</ele><time>2026-04-10T09:11:44.868Z</time></trkpt><trkpt lat="44.1583379" lon="5.5363053"><ele>1321.0</ele><time>2026-04-10T09:11:45.868Z</time></trkpt><trkpt lat="44.1583651" lon="5.5361654"><ele>1321.0</ele><time>2026-04-10T09:11:46.868Z</time></trkpt><trkpt lat="44.1584032" lon="5.536015"><ele>1319.5</ele><time>2026-04-10T09:11:47.869Z</time></trkpt><trkpt lat="44.1584392" lon="5.5358717"><ele>1318.0</ele><time>2026-04-10T09:11:48.867Z</time></trkpt><trkpt lat="44.1584763" lon="5.5357295"><ele>1316.5</ele><time>2026-04-10T09:11:49.868Z</time></trkpt><trkpt lat="44.1585112" lon="5.5355663"><ele>1315.0</ele><time>2026-04-10T09:11:50.871Z</time></trkpt><trkpt lat="44.1585472" lon="5.5354126"><ele>1312.5</ele><time>2026-04-10T09:11:51.867Z</time></trkpt><trkpt lat="44.1585895" lon="5.5352665"><ele>1310.0</ele><time>2026-04-10T09:11:52.868Z</time></trkpt><trkpt lat="44.1586564" lon="5.5351166"><ele>1307.5</ele><time>2026-04-10T09:11:53.872Z</time></trkpt><trkpt lat="44.1587144" lon="5.5349703"><ele>1305.0</ele><time>2026-04-10T09:11:54.866Z</time></trkpt><trkpt lat="44.1587834" lon="5.5348274"><ele>1305.0</ele><time>2026-04-10T09:11:55.873Z</time></trkpt><trkpt lat="44.1588543" lon="5.5346857"><ele>1305.0</ele><time>2026-04-10T09:11:56.868Z</time></trkpt><trkpt lat="44.1589428" lon="5.5345385"><ele>1305.0</ele><time>2026-04-10T09:11:57.868Z</time></trkpt><trkpt lat="44.1590314" lon="5.534405"><ele>1305.0</ele><time>2026-04-10T09:11:58.868Z</time></trkpt><trkpt lat="44.1591226" lon="5.5342791"><ele>1304.75</ele><time>2026-04-10T09:11:59.867Z</time></trkpt><trkpt lat="44.159206" lon="5.5341664"><ele>1304.5</ele><time>2026-04-10T09:12:00.867Z</time></trkpt><trkpt lat="44.1592848" lon="5.5340602"><ele>1304.25</ele><time>2026-04-10T09:12:01.866Z</time></trkpt><trkpt lat="44.1593704" lon="5.5339605"><ele>1304.0</ele><time>2026-04-10T09:12:02.886Z</time></trkpt><trkpt lat="44.1594579" lon="5.533854"><ele>1304.0</ele><time>2026-04-10T09:12:03.884Z</time></trkpt><trkpt lat="44.1595511" lon="5.533742"><ele>1304.0</ele><time>2026-04-10T09:12:04.871Z</time></trkpt><trkpt lat="44.1596446" lon="5.5336264"><ele>1304.0</ele><time>2026-04-10T09:12:05.871Z</time></trkpt><trkpt lat="44.159746" lon="5.5335005"><ele>1304.0</ele><time>2026-04-10T09:12:06.871Z</time></trkpt><trkpt lat="44.159853" lon="5.5333603"><ele>1302.5</ele><time>2026-04-10T09:12:07.865Z</time></trkpt><trkpt lat="44.1599532" lon="5.5332199"><ele>1301.0</ele><time>2026-04-10T09:12:08.868Z</time></trkpt><trkpt lat="44.1600524" lon="5.5330697"><ele>1299.5</ele><time>2026-04-10T09:12:09.868Z</time></trkpt><trkpt lat="44.1601376" lon="5.5328996"><ele>1298.0</ele><time>2026-04-10T09:12:10.869Z</time></trkpt><trkpt lat="44.1602145" lon="5.5327253"><ele>1297.3333333333335</ele><time>2026-04-10T09:12:11.867Z</time></trkpt><trkpt lat="44.1602859" lon="5.5325244"><ele>1296.6666666666667</ele><time>2026-04-10T09:12:12.867Z</time></trkpt><trkpt lat="44.1603596" lon="5.5323227"><ele>1296.0</ele><time>2026-04-10T09:12:13.869Z</time></trkpt><trkpt lat="44.1604475" lon="5.5321219"><ele>1296.6666666666667</ele><time>2026-04-10T09:12:14.867Z</time></trkpt><trkpt lat="44.1605556" lon="5.5319235"><ele>1297.3333333333335</ele><time>2026-04-10T09:12:15.869Z</time></trkpt><trkpt lat="44.1606569" lon="5.5317457"><ele>1298.0</ele><time>2026-04-10T09:12:16.871Z</time></trkpt><trkpt lat="44.160747" lon="5.5315902"><ele>1298.25</ele><time>2026-04-10T09:12:17.866Z</time></trkpt><trkpt lat="44.1608324" lon="5.5314599"><ele>1298.5</ele><time>2026-04-10T09:12:18.869Z</time></trkpt><trkpt lat="44.1609281" lon="5.5313429"><ele>1298.75</ele><time>2026-04-10T09:12:19.868Z</time></trkpt><trkpt lat="44.1610342" lon="5.5312449"><ele>1299.0</ele><time>2026-04-10T09:12:20.869Z</time></trkpt><trkpt lat="44.1611271" lon="5.5311556"><ele>1298.4</ele><time>2026-04-10T09:12:21.87Z</time></trkpt><trkpt lat="44.1612124" lon="5.5310561"><ele>1297.8000000000002</ele><time>2026-04-10T09:12:22.868Z</time></trkpt><trkpt lat="44.1612851" lon="5.5309418"><ele>1297.1999999999998</ele><time>2026-04-10T09:12:23.868Z</time></trkpt><trkpt lat="44.1613487" lon="5.5308252"><ele>1296.6</ele><time>2026-04-10T09:12:24.868Z</time></trkpt><trkpt lat="44.1614158" lon="5.5307127"><ele>1296.0</ele><time>2026-04-10T09:12:25.866Z</time></trkpt><trkpt lat="44.161472" lon="5.5306008"><ele>1296.0</ele><time>2026-04-10T09:12:26.87Z</time></trkpt><trkpt lat="44.1615151" lon="5.5304777"><ele>1296.0</ele><time>2026-04-10T09:12:27.869Z</time></trkpt><trkpt lat="44.1615486" lon="5.5303421"><ele>1296.0</ele><time>2026-04-10T09:12:28.868Z</time></trkpt><trkpt lat="44.1615657" lon="5.5301766"><ele>1296.0</ele><time>2026-04-10T09:12:29.869Z</time></trkpt><trkpt lat="44.161579" lon="5.5300114"><ele>1296.0</ele><time>2026-04-10T09:12:30.867Z</time></trkpt><trkpt lat="44.1616036" lon="5.5298536"><ele>1293.75</ele><time>2026-04-10T09:12:31.873Z</time></trkpt><trkpt lat="44.1616549" lon="5.5297062"><ele>1291.5</ele><time>2026-04-10T09:12:32.879Z</time></trkpt><trkpt lat="44.161715" lon="5.5295696"><ele>1289.25</ele><time>2026-04-10T09:12:33.869Z</time></trkpt><trkpt lat="44.161779" lon="5.5294289"><ele>1287.0</ele><time>2026-04-10T09:12:34.871Z</time></trkpt><trkpt lat="44.1618313" lon="5.5292914"><ele>1285.5</ele><time>2026-04-10T09:12:35.87Z</time></trkpt><trkpt lat="44.1618905" lon="5.529167"><ele>1284.0</ele><time>2026-04-10T09:12:36.867Z</time></trkpt><trkpt lat="44.1619615" lon="5.529037"><ele>1282.5</ele><time>2026-04-10T09:12:37.868Z</time></trkpt><trkpt lat="44.1620395" lon="5.5289033"><ele>1281.0</ele><time>2026-04-10T09:12:38.868Z</time></trkpt><trkpt lat="44.1621349" lon="5.5287629"><ele>1279.25</ele><time>2026-04-10T09:12:39.875Z</time></trkpt><trkpt lat="44.1622354" lon="5.5286231"><ele>1277.5</ele><time>2026-04-10T09:12:40.871Z</time></trkpt><trkpt lat="44.1623351" lon="5.5284909"><ele>1275.75</ele><time>2026-04-10T09:12:41.866Z</time></trkpt><trkpt lat="44.162431" lon="5.5283671"><ele>1274.0</ele><time>2026-04-10T09:12:42.872Z</time></trkpt><trkpt lat="44.1625272" lon="5.5282563"><ele>1271.25</ele><time>2026-04-10T09:12:43.87Z</time></trkpt><trkpt lat="44.1626233" lon="5.5281403"><ele>1268.5</ele><time>2026-04-10T09:12:44.867Z</time></trkpt><trkpt lat="44.1627293" lon="5.5280202"><ele>1265.75</ele><time>2026-04-10T09:12:45.868Z</time></trkpt><trkpt lat="44.1628389" lon="5.5278981"><ele>1263.0</ele><time>2026-04-10T09:12:46.876Z</time></trkpt><trkpt lat="44.1629507" lon="5.5277701"><ele>1261.75</ele><time>2026-04-10T09:12:47.868Z</time></trkpt><trkpt lat="44.1630544" lon="5.5276429"><ele>1260.5</ele><time>2026-04-10T09:12:48.87Z</time></trkpt><trkpt lat="44.1631483" lon="5.5275155"><ele>1259.25</ele><time>2026-04-10T09:12:49.869Z</time></trkpt><trkpt lat="44.163228" lon="5.5273804"><ele>1258.0</ele><time>2026-04-10T09:12:50.874Z</time></trkpt><trkpt lat="44.1633003" lon="5.5272395"><ele>1257.0</ele><time>2026-04-10T09:12:51.88Z</time></trkpt><trkpt lat="44.1633794" lon="5.5271207"><ele>1256.0</ele><time>2026-04-10T09:12:52.881Z</time></trkpt><trkpt lat="44.1634733" lon="5.5270088"><ele>1255.0</ele><time>2026-04-10T09:12:53.878Z</time></trkpt><trkpt lat="44.1635655" lon="5.5268964"><ele>1254.0</ele><time>2026-04-10T09:12:54.873Z</time></trkpt><trkpt lat="44.1636491" lon="5.5267712"><ele>1253.75</ele><time>2026-04-10T09:12:55.875Z</time></trkpt><trkpt lat="44.1637355" lon="5.5266331"><ele>1253.5</ele><time>2026-04-10T09:12:56.872Z</time></trkpt><trkpt lat="44.1638366" lon="5.5265021"><ele>1253.25</ele><time>2026-04-10T09:12:57.868Z</time></trkpt><trkpt lat="44.1639434" lon="5.5264006"><ele>1253.0</ele><time>2026-04-10T09:12:58.875Z</time></trkpt><trkpt lat="44.164052" lon="5.5263374"><ele>1255.0</ele><time>2026-04-10T09:12:59.871Z</time></trkpt><trkpt lat="44.1641631" lon="5.5262738"><ele>1257.0</ele><time>2026-04-10T09:13:00.868Z</time></trkpt><trkpt lat="44.1642692" lon="5.5261892"><ele>1259.0</ele><time>2026-04-10T09:13:01.867Z</time></trkpt><trkpt lat="44.1643648" lon="5.526085"><ele>1261.0</ele><time>2026-04-10T09:13:02.867Z</time></trkpt><trkpt lat="44.1644439" lon="5.525968"><ele>1261.3999999999999</ele><time>2026-04-10T09:13:03.871Z</time></trkpt><trkpt lat="44.1645067" lon="5.5258476"><ele>1261.8</ele><time>2026-04-10T09:13:04.874Z</time></trkpt><trkpt lat="44.1645671" lon="5.5257167"><ele>1262.1999999999998</ele><time>2026-04-10T09:13:05.869Z</time></trkpt><trkpt lat="44.1646232" lon="5.5255802"><ele>1262.6</ele><time>2026-04-10T09:13:06.865Z</time></trkpt><trkpt lat="44.1646856" lon="5.5254408"><ele>1263.0</ele><time>2026-04-10T09:13:07.873Z</time></trkpt><trkpt lat="44.1647496" lon="5.5253009"><ele>1264.0</ele><time>2026-04-10T09:13:08.866Z</time></trkpt><trkpt lat="44.1648201" lon="5.5251534"><ele>1265.0</ele><time>2026-04-10T09:13:09.873Z</time></trkpt><trkpt lat="44.1648904" lon="5.5250084"><ele>1266.0</ele><time>2026-04-10T09:13:10.869Z</time></trkpt><trkpt lat="44.1649606" lon="5.524881"><ele>1267.0</ele><time>2026-04-10T09:13:11.867Z</time></trkpt><trkpt lat="44.1650479" lon="5.5247644"><ele>1268.5</ele><time>2026-04-10T09:13:12.867Z</time></trkpt><trkpt lat="44.1651355" lon="5.5246284"><ele>1270.0</ele><time>2026-04-10T09:13:13.866Z</time></trkpt><trkpt lat="44.1652182" lon="5.5244585"><ele>1271.5</ele><time>2026-04-10T09:13:14.87Z</time></trkpt><trkpt lat="44.1652951" lon="5.5242819"><ele>1273.0</ele><time>2026-04-10T09:13:15.872Z</time></trkpt><trkpt lat="44.1653737" lon="5.5241159"><ele>1273.25</ele><time>2026-04-10T09:13:16.873Z</time></trkpt><trkpt lat="44.1654469" lon="5.5239465"><ele>1273.5</ele><time>2026-04-10T09:13:17.866Z</time></trkpt><trkpt lat="44.1655124" lon="5.5237776"><ele>1273.75</ele><time>2026-04-10T09:13:18.867Z</time></trkpt><trkpt lat="44.1655784" lon="5.5236181"><ele>1274.0</ele><time>2026-04-10T09:13:19.87Z</time></trkpt><trkpt lat="44.1656528" lon="5.5234783"><ele>1274.25</ele><time>2026-04-10T09:13:20.871Z</time></trkpt><trkpt lat="44.1657316" lon="5.5233329"><ele>1274.5</ele><time>2026-04-10T09:13:21.867Z</time></trkpt><trkpt lat="44.1658017" lon="5.5231743"><ele>1274.75</ele><time>2026-04-10T09:13:22.876Z</time></trkpt><trkpt lat="44.1658421" lon="5.523007"><ele>1275.0</ele><time>2026-04-10T09:13:23.867Z</time></trkpt><trkpt lat="44.1658903" lon="5.5228473"><ele>1275.0</ele><time>2026-04-10T09:13:24.868Z</time></trkpt><trkpt lat="44.1659699" lon="5.5227036"><ele>1275.0</ele><time>2026-04-10T09:13:25.873Z</time></trkpt><trkpt lat="44.1660742" lon="5.5225655"><ele>1275.0</ele><time>2026-04-10T09:13:26.865Z</time></trkpt><trkpt lat="44.1661898" lon="5.5224327"><ele>1275.0</ele><time>2026-04-10T09:13:27.875Z</time></trkpt><trkpt lat="44.166322" lon="5.5223208"><ele>1275.0</ele><time>2026-04-10T09:13:28.865Z</time></trkpt><trkpt lat="44.1664397" lon="5.5222236"><ele>1275.0</ele><time>2026-04-10T09:13:29.874Z</time></trkpt><trkpt lat="44.1665436" lon="5.5221576"><ele>1275.0</ele><time>2026-04-10T09:13:30.868Z</time></trkpt><trkpt lat="44.16664" lon="5.5221297"><ele>1275.0</ele><time>2026-04-10T09:13:31.87Z</time></trkpt><trkpt lat="44.1667697" lon="5.522124"><ele>1273.25</ele><time>2026-04-10T09:13:32.868Z</time></trkpt><trkpt lat="44.1669095" lon="5.5221165"><ele>1271.5</ele><time>2026-04-10T09:13:33.867Z</time></trkpt><trkpt lat="44.1670541" lon="5.5220986"><ele>1269.75</ele><time>2026-04-10T09:13:34.864Z</time></trkpt><trkpt lat="44.1671913" lon="5.5220845"><ele>1268.0</ele><time>2026-04-10T09:13:35.865Z</time></trkpt><trkpt lat="44.1673215" lon="5.5220542"><ele>1270.5</ele><time>2026-04-10T09:13:36.873Z</time></trkpt><trkpt lat="44.1674417" lon="5.5220294"><ele>1273.0</ele><time>2026-04-10T09:13:37.868Z</time></trkpt><trkpt lat="44.1675613" lon="5.522009"><ele>1275.5</ele><time>2026-04-10T09:13:38.87Z</time></trkpt><trkpt lat="44.1676713" lon="5.52198"><ele>1278.0</ele><time>2026-04-10T09:13:39.87Z</time></trkpt><trkpt lat="44.167764" lon="5.5219225"><ele>1278.0</ele><time>2026-04-10T09:13:40.87Z</time></trkpt><trkpt lat="44.1678537" lon="5.5218118"><ele>1278.0</ele><time>2026-04-10T09:13:41.869Z</time></trkpt><trkpt lat="44.1679424" lon="5.5216893"><ele>1278.0</ele><time>2026-04-10T09:13:42.869Z</time></trkpt><trkpt lat="44.1680326" lon="5.5215683"><ele>1278.0</ele><time>2026-04-10T09:13:43.866Z</time></trkpt><trkpt lat="44.1681167" lon="5.5214563"><ele>1277.0</ele><time>2026-04-10T09:13:44.867Z</time></trkpt><trkpt lat="44.1682022" lon="5.5213405"><ele>1276.0</ele><time>2026-04-10T09:13:45.868Z</time></trkpt><trkpt lat="44.1682928" lon="5.521222"><ele>1275.0</ele><time>2026-04-10T09:13:46.87Z</time></trkpt><trkpt lat="44.1683888" lon="5.5210899"><ele>1274.0</ele><time>2026-04-10T09:13:47.87Z</time></trkpt><trkpt lat="44.1684849" lon="5.5209662"><ele>1274.0</ele><time>2026-04-10T09:13:48.871Z</time></trkpt><trkpt lat="44.1685721" lon="5.5208556"><ele>1274.0</ele><time>2026-04-10T09:13:49.872Z</time></trkpt><trkpt lat="44.1686604" lon="5.5207465"><ele>1274.0</ele><time>2026-04-10T09:13:50.868Z</time></trkpt><trkpt lat="44.1687618" lon="5.5206338"><ele>1274.0</ele><time>2026-04-10T09:13:51.87Z</time></trkpt><trkpt lat="44.1688702" lon="5.5205097"><ele>1275.75</ele><time>2026-04-10T09:13:52.868Z</time></trkpt><trkpt lat="44.1689743" lon="5.5203838"><ele>1277.5</ele><time>2026-04-10T09:13:53.868Z</time></trkpt><trkpt lat="44.1690734" lon="5.5202704"><ele>1279.25</ele><time>2026-04-10T09:13:54.873Z</time></trkpt><trkpt lat="44.169166" lon="5.5201334"><ele>1281.0</ele><time>2026-04-10T09:13:55.87Z</time></trkpt><trkpt lat="44.169248" lon="5.5199814"><ele>1277.5</ele><time>2026-04-10T09:13:56.871Z</time></trkpt><trkpt lat="44.1693223" lon="5.5198375"><ele>1274.0</ele><time>2026-04-10T09:13:57.865Z</time></trkpt><trkpt lat="44.1693959" lon="5.5196943"><ele>1270.5</ele><time>2026-04-10T09:13:58.866Z</time></trkpt><trkpt lat="44.1694798" lon="5.5195562"><ele>1267.0</ele><time>2026-04-10T09:13:59.869Z</time></trkpt><trkpt lat="44.169558" lon="5.519415"><ele>1266.2</ele><time>2026-04-10T09:14:00.868Z</time></trkpt><trkpt lat="44.1696177" lon="5.5192744"><ele>1265.4</ele><time>2026-04-10T09:14:01.868Z</time></trkpt><trkpt lat="44.1696735" lon="5.519136"><ele>1264.6</ele><time>2026-04-10T09:14:02.868Z</time></trkpt><trkpt lat="44.1697305" lon="5.519016"><ele>1263.8</ele><time>2026-04-10T09:14:03.875Z</time></trkpt><trkpt lat="44.1697435" lon="5.5189076"><ele>1263.0</ele><time>2026-04-10T09:14:04.867Z</time></trkpt><trkpt lat="44.1697531" lon="5.5187892"><ele>1262.1666666666667</ele><time>2026-04-10T09:14:05.869Z</time></trkpt><trkpt lat="44.1697871" lon="5.5186778"><ele>1261.3333333333333</ele><time>2026-04-10T09:14:06.868Z</time></trkpt><trkpt lat="44.1698397" lon="5.5185763"><ele>1260.5</ele><time>2026-04-10T09:14:07.869Z</time></trkpt><trkpt lat="44.169894" lon="5.5184924"><ele>1259.6666666666665</ele><time>2026-04-10T09:14:08.869Z</time></trkpt><trkpt lat="44.1699566" lon="5.5184213"><ele>1258.8333333333333</ele><time>2026-04-10T09:14:09.869Z</time></trkpt><trkpt lat="44.1700226" lon="5.5183494"><ele>1258.0</ele><time>2026-04-10T09:14:10.868Z</time></trkpt><trkpt lat="44.1700798" lon="5.5182587"><ele>1255.0</ele><time>2026-04-10T09:14:11.87Z</time></trkpt><trkpt lat="44.170138" lon="5.5181471"><ele>1252.0</ele><time>2026-04-10T09:14:12.865Z</time></trkpt><trkpt lat="44.1701544" lon="5.5179696"><ele>1249.0</ele><time>2026-04-10T09:14:13.868Z</time></trkpt><trkpt lat="44.1701834" lon="5.5177832"><ele>1246.0</ele><time>2026-04-10T09:14:14.868Z</time></trkpt><trkpt lat="44.1702229" lon="5.517596"><ele>1244.75</ele><time>2026-04-10T09:14:15.873Z</time></trkpt><trkpt lat="44.1702866" lon="5.5174141"><ele>1243.5</ele><time>2026-04-10T09:14:16.868Z</time></trkpt><trkpt lat="44.1703534" lon="5.5172521"><ele>1242.25</ele><time>2026-04-10T09:14:17.869Z</time></trkpt><trkpt lat="44.1704257" lon="5.5170883"><ele>1241.0</ele><time>2026-04-10T09:14:18.868Z</time></trkpt><trkpt lat="44.1704998" lon="5.516925"><ele>1240.25</ele><time>2026-04-10T09:14:19.872Z</time></trkpt><trkpt lat="44.1705688" lon="5.5167611"><ele>1239.5</ele><time>2026-04-10T09:14:20.869Z</time></trkpt><trkpt lat="44.1706165" lon="5.5166148"><ele>1238.75</ele><time>2026-04-10T09:14:21.87Z</time></trkpt><trkpt lat="44.170655" lon="5.5164672"><ele>1238.0</ele><time>2026-04-10T09:14:22.866Z</time></trkpt><trkpt lat="44.1706767" lon="5.5163216"><ele>1237.0</ele><time>2026-04-10T09:14:23.868Z</time></trkpt><trkpt lat="44.1706878" lon="5.5161677"><ele>1236.0</ele><time>2026-04-10T09:14:24.866Z</time></trkpt><trkpt lat="44.1706878" lon="5.5160014"><ele>1235.0</ele><time>2026-04-10T09:14:25.87Z</time></trkpt><trkpt lat="44.1706786" lon="5.5158399"><ele>1234.0</ele><time>2026-04-10T09:14:26.868Z</time></trkpt><trkpt lat="44.1706521" lon="5.5157039"><ele>1233.0</ele><time>2026-04-10T09:14:27.867Z</time></trkpt><trkpt lat="44.170617" lon="5.5155776"><ele>1233.0</ele><time>2026-04-10T09:14:28.866Z</time></trkpt><trkpt lat="44.1705685" lon="5.5154721"><ele>1233.0</ele><time>2026-04-10T09:14:29.87Z</time></trkpt><trkpt lat="44.1704905" lon="5.5153741"><ele>1233.0</ele><time>2026-04-10T09:14:30.87Z</time></trkpt><trkpt lat="44.1704033" lon="5.5152746"><ele>1233.0</ele><time>2026-04-10T09:14:31.87Z</time></trkpt><trkpt lat="44.1703" lon="5.5151737"><ele>1233.0</ele><time>2026-04-10T09:14:32.869Z</time></trkpt><trkpt lat="44.1701861" lon="5.5150723"><ele>1232.2</ele><time>2026-04-10T09:14:33.87Z</time></trkpt><trkpt lat="44.1700716" lon="5.5149828"><ele>1231.4</ele><time>2026-04-10T09:14:34.866Z</time></trkpt><trkpt lat="44.1699751" lon="5.514904"><ele>1230.6000000000001</ele><time>2026-04-10T09:14:35.868Z</time></trkpt><trkpt lat="44.1698907" lon="5.5148288"><ele>1229.8</ele><time>2026-04-10T09:14:36.869Z</time></trkpt><trkpt lat="44.1698069" lon="5.5147506"><ele>1229.0</ele><time>2026-04-10T09:14:37.868Z</time></trkpt><trkpt lat="44.1697213" lon="5.5146674"><ele>1229.0</ele><time>2026-04-10T09:14:38.87Z</time></trkpt><trkpt lat="44.1696403" lon="5.5145831"><ele>1229.0</ele><time>2026-04-10T09:14:39.873Z</time></trkpt><trkpt lat="44.169558" lon="5.5144919"><ele>1229.0</ele><time>2026-04-10T09:14:40.868Z</time></trkpt><trkpt lat="44.1694767" lon="5.5144047"><ele>1229.0</ele><time>2026-04-10T09:14:41.872Z</time></trkpt><trkpt lat="44.1694026" lon="5.514311"><ele>1229.0</ele><time>2026-04-10T09:14:42.867Z</time></trkpt><trkpt lat="44.1693252" lon="5.51419"><ele>1225.5</ele><time>2026-04-10T09:14:43.871Z</time></trkpt><trkpt lat="44.1692445" lon="5.5140614"><ele>1222.0</ele><time>2026-04-10T09:14:44.868Z</time></trkpt><trkpt lat="44.1691607" lon="5.5139073"><ele>1218.5</ele><time>2026-04-10T09:14:45.869Z</time></trkpt><trkpt lat="44.1690811" lon="5.5137512"><ele>1215.0</ele><time>2026-04-10T09:14:46.868Z</time></trkpt><trkpt lat="44.1690112" lon="5.5135875"><ele>1215.0</ele><time>2026-04-10T09:14:47.875Z</time></trkpt><trkpt lat="44.1689594" lon="5.5134236"><ele>1215.0</ele><time>2026-04-10T09:14:48.865Z</time></trkpt><trkpt lat="44.1689134" lon="5.5132631"><ele>1215.0</ele><time>2026-04-10T09:14:49.868Z</time></trkpt><trkpt lat="44.1688792" lon="5.5131307"><ele>1215.0</ele><time>2026-04-10T09:14:50.865Z</time></trkpt><trkpt lat="44.1688536" lon="5.5130348"><ele>1215.0</ele><time>2026-04-10T09:14:51.87Z</time></trkpt><trkpt lat="44.1688751" lon="5.5128913"><ele>1214.6666666666667</ele><time>2026-04-10T09:14:53.869Z</time></trkpt><trkpt lat="44.1689944" lon="5.5128498"><ele>1214.3333333333333</ele><time>2026-04-10T09:14:55.869Z</time></trkpt><trkpt lat="44.1690609" lon="5.512866"><ele>1214.0</ele><time>2026-04-10T09:14:56.868Z</time></trkpt><trkpt lat="44.1691299" lon="5.5128694"><ele>1213.6666666666665</ele><time>2026-04-10T09:14:57.869Z</time></trkpt><trkpt lat="44.1691979" lon="5.5128743"><ele>1213.3333333333333</ele><time>2026-04-10T09:14:58.865Z</time></trkpt><trkpt lat="44.1693174" lon="5.5128433"><ele>1213.0</ele><time>2026-04-10T09:15:00.871Z</time></trkpt><trkpt lat="44.1694305" lon="5.512831"><ele>1211.2</ele><time>2026-04-10T09:15:02.864Z</time></trkpt><trkpt lat="44.1695766" lon="5.5128043"><ele>1209.4</ele><time>2026-04-10T09:15:04.871Z</time></trkpt><trkpt lat="44.1696725" lon="5.512785"><ele>1207.6000000000001</ele><time>2026-04-10T09:15:05.87Z</time></trkpt><trkpt lat="44.1697712" lon="5.5127621"><ele>1205.8</ele><time>2026-04-10T09:15:06.868Z</time></trkpt><trkpt lat="44.1698626" lon="5.5127309"><ele>1204.0</ele><time>2026-04-10T09:15:07.874Z</time></trkpt><trkpt lat="44.1699527" lon="5.5126749"><ele>1201.8</ele><time>2026-04-10T09:15:08.871Z</time></trkpt><trkpt lat="44.170047" lon="5.5126158"><ele>1199.6000000000001</ele><time>2026-04-10T09:15:09.872Z</time></trkpt><trkpt lat="44.1701119" lon="5.5125467"><ele>1197.4</ele><time>2026-04-10T09:15:10.869Z</time></trkpt><trkpt lat="44.1701758" lon="5.512448"><ele>1195.2</ele><time>2026-04-10T09:15:11.867Z</time></trkpt><trkpt lat="44.1702312" lon="5.5123395"><ele>1193.0</ele><time>2026-04-10T09:15:12.866Z</time></trkpt><trkpt lat="44.1702677" lon="5.5122411"><ele>1193.0</ele><time>2026-04-10T09:15:13.872Z</time></trkpt><trkpt lat="44.1702889" lon="5.5121345"><ele>1193.0</ele><time>2026-04-10T09:15:14.87Z</time></trkpt><trkpt lat="44.1702936" lon="5.5120263"><ele>1193.0</ele><time>2026-04-10T09:15:15.873Z</time></trkpt><trkpt lat="44.1702942" lon="5.5119195"><ele>1193.0</ele><time>2026-04-10T09:15:16.867Z</time></trkpt><trkpt lat="44.1702963" lon="5.5118162"><ele>1193.0</ele><time>2026-04-10T09:15:17.867Z</time></trkpt><trkpt lat="44.1703032" lon="5.5117148"><ele>1193.0</ele><time>2026-04-10T09:15:18.867Z</time></trkpt><trkpt lat="44.170321" lon="5.5116078"><ele>1192.9999999999998</ele><time>2026-04-10T09:15:19.869Z</time></trkpt><trkpt lat="44.170348" lon="5.5115169"><ele>1193.0</ele><time>2026-04-10T09:15:20.872Z</time></trkpt><trkpt lat="44.1703729" lon="5.5114331"><ele>1193.0</ele><time>2026-04-10T09:15:21.866Z</time></trkpt><trkpt lat="44.1704008" lon="5.5113481"><ele>1193.0</ele><time>2026-04-10T09:15:22.866Z</time></trkpt><trkpt lat="44.1704326" lon="5.5112653"><ele>1193.0</ele><time>2026-04-10T09:15:23.868Z</time></trkpt><trkpt lat="44.1704616" lon="5.5111596"><ele>1192.9999999999998</ele><time>2026-04-10T09:15:24.87Z</time></trkpt><trkpt lat="44.1704838" lon="5.511054"><ele>1193.0</ele><time>2026-04-10T09:15:25.87Z</time></trkpt><trkpt lat="44.170489" lon="5.5108748"><ele>1192.8333333333335</ele><time>2026-04-10T09:15:27.875Z</time></trkpt><trkpt lat="44.1704827" lon="5.5107518"><ele>1192.6666666666667</ele><time>2026-04-10T09:15:28.87Z</time></trkpt><trkpt lat="44.1704731" lon="5.5106323"><ele>1192.5</ele><time>2026-04-10T09:15:29.867Z</time></trkpt><trkpt lat="44.1704596" lon="5.5105205"><ele>1192.3333333333333</ele><time>2026-04-10T09:15:30.868Z</time></trkpt><trkpt lat="44.170443" lon="5.5104264"><ele>1192.1666666666665</ele><time>2026-04-10T09:15:31.871Z</time></trkpt><trkpt lat="44.1704782" lon="5.5102903"><ele>1192.0</ele><time>2026-04-10T09:15:33.868Z</time></trkpt><trkpt lat="44.1705634" lon="5.5102833"><ele>1192.5</ele><time>2026-04-10T09:15:35.869Z</time></trkpt><trkpt lat="44.1706591" lon="5.510374"><ele>1193.0</ele><time>2026-04-10T09:15:37.871Z</time></trkpt><trkpt lat="44.1707185" lon="5.5104291"><ele>1193.5</ele><time>2026-04-10T09:15:38.868Z</time></trkpt><trkpt lat="44.1707884" lon="5.5104748"><ele>1194.0</ele><time>2026-04-10T09:15:39.87Z</time></trkpt><trkpt lat="44.1708557" lon="5.5105098"><ele>1194.5</ele><time>2026-04-10T09:15:40.869Z</time></trkpt><trkpt lat="44.1709329" lon="5.5105502"><ele>1195.0</ele><time>2026-04-10T09:15:41.87Z</time></trkpt><trkpt lat="44.171041" lon="5.5106003"><ele>1191.0</ele><time>2026-04-10T09:15:42.869Z</time></trkpt><trkpt lat="44.1711493" lon="5.5106605"><ele>1187.0</ele><time>2026-04-10T09:15:43.865Z</time></trkpt><trkpt lat="44.1712564" lon="5.5107266"><ele>1183.0</ele><time>2026-04-10T09:15:44.869Z</time></trkpt><trkpt lat="44.1713524" lon="5.5107968"><ele>1179.0</ele><time>2026-04-10T09:15:45.872Z</time></trkpt><trkpt lat="44.1714463" lon="5.5108717"><ele>1177.8</ele><time>2026-04-10T09:15:46.866Z</time></trkpt><trkpt lat="44.171546" lon="5.5109402"><ele>1176.6000000000001</ele><time>2026-04-10T09:15:47.868Z</time></trkpt><trkpt lat="44.1716399" lon="5.5110023"><ele>1175.4</ele><time>2026-04-10T09:15:48.872Z</time></trkpt><trkpt lat="44.1717419" lon="5.5110481"><ele>1174.2</ele><time>2026-04-10T09:15:49.864Z</time></trkpt><trkpt lat="44.1718477" lon="5.5110899"><ele>1173.0</ele><time>2026-04-10T09:15:50.867Z</time></trkpt><trkpt lat="44.1719561" lon="5.511123"><ele>1173.0</ele><time>2026-04-10T09:15:51.867Z</time></trkpt><trkpt lat="44.1720661" lon="5.5111509"><ele>1173.0</ele><time>2026-04-10T09:15:52.867Z</time></trkpt><trkpt lat="44.1721706" lon="5.5111689"><ele>1173.0</ele><time>2026-04-10T09:15:53.868Z</time></trkpt><trkpt lat="44.1722644" lon="5.5111688"><ele>1173.0</ele><time>2026-04-10T09:15:54.87Z</time></trkpt><trkpt lat="44.1723471" lon="5.5111553"><ele>1173.0</ele><time>2026-04-10T09:15:55.868Z</time></trkpt><trkpt lat="44.1724317" lon="5.5111149"><ele>1170.8</ele><time>2026-04-10T09:15:56.867Z</time></trkpt><trkpt lat="44.1725172" lon="5.5110452"><ele>1168.6</ele><time>2026-04-10T09:15:57.87Z</time></trkpt><trkpt lat="44.1725953" lon="5.5109472"><ele>1166.4</ele><time>2026-04-10T09:15:58.868Z</time></trkpt><trkpt lat="44.1726681" lon="5.510826"><ele>1164.2</ele><time>2026-04-10T09:15:59.87Z</time></trkpt><trkpt lat="44.1727227" lon="5.5106953"><ele>1162.0</ele><time>2026-04-10T09:16:00.868Z</time></trkpt><trkpt lat="44.1727715" lon="5.510554"><ele>1163.5</ele><time>2026-04-10T09:16:01.868Z</time></trkpt><trkpt lat="44.172808" lon="5.5103932"><ele>1165.0</ele><time>2026-04-10T09:16:02.867Z</time></trkpt><trkpt lat="44.1728365" lon="5.5102232"><ele>1166.5</ele><time>2026-04-10T09:16:03.868Z</time></trkpt><trkpt lat="44.1728591" lon="5.5100639"><ele>1168.0</ele><time>2026-04-10T09:16:04.869Z</time></trkpt><trkpt lat="44.172873" lon="5.5099069"><ele>1168.0</ele><time>2026-04-10T09:16:05.872Z</time></trkpt><trkpt lat="44.1728757" lon="5.5097386"><ele>1168.0</ele><time>2026-04-10T09:16:06.872Z</time></trkpt><trkpt lat="44.1728721" lon="5.5095743"><ele>1168.0</ele><time>2026-04-10T09:16:07.868Z</time></trkpt><trkpt lat="44.172869" lon="5.5094178"><ele>1168.0</ele><time>2026-04-10T09:16:08.873Z</time></trkpt><trkpt lat="44.1728537" lon="5.5092743"><ele>1167.0</ele><time>2026-04-10T09:16:09.868Z</time></trkpt><trkpt lat="44.1728335" lon="5.5091323"><ele>1166.0</ele><time>2026-04-10T09:16:10.875Z</time></trkpt><trkpt lat="44.1728081" lon="5.5090072"><ele>1165.0</ele><time>2026-04-10T09:16:11.873Z</time></trkpt><trkpt lat="44.1727957" lon="5.5089062"><ele>1164.0</ele><time>2026-04-10T09:16:12.868Z</time></trkpt><trkpt lat="44.1727971" lon="5.5088063"><ele>1163.0</ele><time>2026-04-10T09:16:13.871Z</time></trkpt><trkpt lat="44.172895" lon="5.508724"><ele>1162.8</ele><time>2026-04-10T09:16:15.872Z</time></trkpt><trkpt lat="44.1729692" lon="5.5086948"><ele>1162.6</ele><time>2026-04-10T09:16:16.871Z</time></trkpt><trkpt lat="44.1730528" lon="5.5086579"><ele>1162.4</ele><time>2026-04-10T09:16:17.867Z</time></trkpt><trkpt lat="44.173131" lon="5.5085736"><ele>1162.2</ele><time>2026-04-10T09:16:18.871Z</time></trkpt><trkpt lat="44.173226" lon="5.5084503"><ele>1162.0</ele><time>2026-04-10T09:16:19.868Z</time></trkpt><trkpt lat="44.1733165" lon="5.5083221"><ele>1160.5</ele><time>2026-04-10T09:16:20.866Z</time></trkpt><trkpt lat="44.1734173" lon="5.5081918"><ele>1159.0</ele><time>2026-04-10T09:16:21.869Z</time></trkpt><trkpt lat="44.1735218" lon="5.5080707"><ele>1157.5</ele><time>2026-04-10T09:16:22.867Z</time></trkpt><trkpt lat="44.1736143" lon="5.5079517"><ele>1156.0</ele><time>2026-04-10T09:16:23.871Z</time></trkpt><trkpt lat="44.1737036" lon="5.5078275"><ele>1156.0</ele><time>2026-04-10T09:16:24.874Z</time></trkpt><trkpt lat="44.1737668" lon="5.5077074"><ele>1156.0</ele><time>2026-04-10T09:16:25.867Z</time></trkpt><trkpt lat="44.1738132" lon="5.5076111"><ele>1156.0</ele><time>2026-04-10T09:16:26.871Z</time></trkpt><trkpt lat="44.1738598" lon="5.5075248"><ele>1156.0</ele><time>2026-04-10T09:16:27.867Z</time></trkpt><trkpt lat="44.1739259" lon="5.5075715"><ele>1156.0</ele><time>2026-04-10T09:16:32.866Z</time></trkpt><trkpt lat="44.1739156" lon="5.507713"><ele>1156.0</ele><time>2026-04-10T09:16:34.866Z</time></trkpt><trkpt lat="44.173902" lon="5.5077995"><ele>1156.0</ele><time>2026-04-10T09:16:35.865Z</time></trkpt><trkpt lat="44.1739038" lon="5.5078998"><ele>1156.0</ele><time>2026-04-10T09:16:36.867Z</time></trkpt><trkpt lat="44.1739117" lon="5.5080149"><ele>1156.0</ele><time>2026-04-10T09:16:37.867Z</time></trkpt><trkpt lat="44.1739213" lon="5.5081438"><ele>1156.0</ele><time>2026-04-10T09:16:38.87Z</time></trkpt><trkpt lat="44.1739323" lon="5.5082672"><ele>1156.0</ele><time>2026-04-10T09:16:39.872Z</time></trkpt><trkpt lat="44.1739431" lon="5.5084097"><ele>1156.0</ele><time>2026-04-10T09:16:40.87Z</time></trkpt><trkpt lat="44.1739491" lon="5.5085424"><ele>1154.6666666666665</ele><time>2026-04-10T09:16:41.868Z</time></trkpt><trkpt lat="44.1739654" lon="5.5086602"><ele>1153.3333333333333</ele><time>2026-04-10T09:16:42.87Z</time></trkpt><trkpt lat="44.1739891" lon="5.5087771"><ele>1152.0</ele><time>2026-04-10T09:16:43.869Z</time></trkpt><trkpt lat="44.1740156" lon="5.5088826"><ele>1150.6666666666667</ele><time>2026-04-10T09:16:44.869Z</time></trkpt><trkpt lat="44.1740497" lon="5.5089805"><ele>1149.3333333333335</ele><time>2026-04-10T09:16:45.87Z</time></trkpt><trkpt lat="44.174085" lon="5.5090787"><ele>1148.0</ele><time>2026-04-10T09:16:46.882Z</time></trkpt><trkpt lat="44.1741186" lon="5.5091699"><ele>1145.0</ele><time>2026-04-10T09:16:47.881Z</time></trkpt><trkpt lat="44.1741548" lon="5.5092671"><ele>1142.0</ele><time>2026-04-10T09:16:48.869Z</time></trkpt><trkpt lat="44.1741895" lon="5.50937"><ele>1139.0</ele><time>2026-04-10T09:16:49.869Z</time></trkpt><trkpt lat="44.1742414" lon="5.5094798"><ele>1136.0</ele><time>2026-04-10T09:16:50.867Z</time></trkpt><trkpt lat="44.1743014" lon="5.5095947"><ele>1133.0</ele><time>2026-04-10T09:16:51.867Z</time></trkpt><trkpt lat="44.1743659" lon="5.509713"><ele>1132.6</ele><time>2026-04-10T09:16:52.869Z</time></trkpt><trkpt lat="44.1744388" lon="5.5098343"><ele>1132.1999999999998</ele><time>2026-04-10T09:16:53.869Z</time></trkpt><trkpt lat="44.174507" lon="5.5099516"><ele>1131.8</ele><time>2026-04-10T09:16:54.87Z</time></trkpt><trkpt lat="44.1745704" lon="5.5100689"><ele>1131.3999999999999</ele><time>2026-04-10T09:16:55.871Z</time></trkpt><trkpt lat="44.1746331" lon="5.5101788"><ele>1131.0</ele><time>2026-04-10T09:16:56.868Z</time></trkpt><trkpt lat="44.1746892" lon="5.5102826"><ele>1131.0</ele><time>2026-04-10T09:16:57.87Z</time></trkpt><trkpt lat="44.1747477" lon="5.5103894"><ele>1131.0</ele><time>2026-04-10T09:16:58.867Z</time></trkpt><trkpt lat="44.1748053" lon="5.5104921"><ele>1131.0</ele><time>2026-04-10T09:16:59.865Z</time></trkpt><trkpt lat="44.1748582" lon="5.5105779"><ele>1131.0</ele><time>2026-04-10T09:17:00.868Z</time></trkpt><trkpt lat="44.1749195" lon="5.5106281"><ele>1131.0</ele><time>2026-04-10T09:17:01.867Z</time></trkpt><trkpt lat="44.1749931" lon="5.5106312"><ele>1131.0</ele><time>2026-04-10T09:17:02.87Z</time></trkpt><trkpt lat="44.1750569" lon="5.5105812"><ele>1129.0</ele><time>2026-04-10T09:17:03.869Z</time></trkpt><trkpt lat="44.1750965" lon="5.5105044"><ele>1127.0</ele><time>2026-04-10T09:17:04.871Z</time></trkpt><trkpt lat="44.175101" lon="5.5103698"><ele>1125.0</ele><time>2026-04-10T09:17:05.865Z</time></trkpt><trkpt lat="44.1751117" lon="5.5102453"><ele>1123.0</ele><time>2026-04-10T09:17:06.872Z</time></trkpt><trkpt lat="44.1751075" lon="5.5101107"><ele>1121.0</ele><time>2026-04-10T09:17:07.873Z</time></trkpt><trkpt lat="44.1751069" lon="5.5099642"><ele>1121.0</ele><time>2026-04-10T09:17:08.868Z</time></trkpt><trkpt lat="44.1750942" lon="5.5098036"><ele>1121.0</ele><time>2026-04-10T09:17:09.869Z</time></trkpt><trkpt lat="44.1750911" lon="5.5096481"><ele>1121.0</ele><time>2026-04-10T09:17:10.868Z</time></trkpt><trkpt lat="44.1750817" lon="5.5094924"><ele>1121.0</ele><time>2026-04-10T09:17:11.873Z</time></trkpt><trkpt lat="44.1750803" lon="5.5093483"><ele>1121.0</ele><time>2026-04-10T09:17:12.871Z</time></trkpt><trkpt lat="44.1750896" lon="5.5091991"><ele>1120.8</ele><time>2026-04-10T09:17:13.871Z</time></trkpt><trkpt lat="44.1750973" lon="5.509071"><ele>1120.6</ele><time>2026-04-10T09:17:14.871Z</time></trkpt><trkpt lat="44.175105" lon="5.5089417"><ele>1120.4</ele><time>2026-04-10T09:17:15.874Z</time></trkpt><trkpt lat="44.1751171" lon="5.5087959"><ele>1120.2</ele><time>2026-04-10T09:17:16.868Z</time></trkpt><trkpt lat="44.1751247" lon="5.5086409"><ele>1120.0</ele><time>2026-04-10T09:17:17.868Z</time></trkpt><trkpt lat="44.1751185" lon="5.5084712"><ele>1119.8</ele><time>2026-04-10T09:17:18.866Z</time></trkpt><trkpt lat="44.1751229" lon="5.5083165"><ele>1119.6</ele><time>2026-04-10T09:17:19.866Z</time></trkpt><trkpt lat="44.1751289" lon="5.5081627"><ele>1119.4</ele><time>2026-04-10T09:17:20.872Z</time></trkpt><trkpt lat="44.1751305" lon="5.5080152"><ele>1119.2</ele><time>2026-04-10T09:17:21.865Z</time></trkpt><trkpt lat="44.1751545" lon="5.5079063"><ele>1119.0</ele><time>2026-04-10T09:17:22.869Z</time></trkpt><trkpt lat="44.1751945" lon="5.507814"><ele>1119.0</ele><time>2026-04-10T09:17:23.869Z</time></trkpt><trkpt lat="44.1752684" lon="5.5077663"><ele>1119.0</ele><time>2026-04-10T09:17:24.877Z</time></trkpt><trkpt lat="44.1753438" lon="5.5077647"><ele>1119.0</ele><time>2026-04-10T09:17:25.866Z</time></trkpt><trkpt lat="44.1754021" lon="5.507841"><ele>1119.0</ele><time>2026-04-10T09:17:26.867Z</time></trkpt><trkpt lat="44.1754207" lon="5.5079639"><ele>1119.0</ele><time>2026-04-10T09:17:27.868Z</time></trkpt><trkpt lat="44.1754237" lon="5.5081014"><ele>1119.0</ele><time>2026-04-10T09:17:28.869Z</time></trkpt><trkpt lat="44.1754392" lon="5.5082385"><ele>1119.0</ele><time>2026-04-10T09:17:29.869Z</time></trkpt><trkpt lat="44.1754845" lon="5.5084037"><ele>1119.0</ele><time>2026-04-10T09:17:30.865Z</time></trkpt><trkpt lat="44.1755483" lon="5.5085845"><ele>1119.0</ele><time>2026-04-10T09:17:31.868Z</time></trkpt><trkpt lat="44.1756132" lon="5.5087575"><ele>1119.0</ele><time>2026-04-10T09:17:32.87Z</time></trkpt><trkpt lat="44.1756723" lon="5.5089612"><ele>1116.0</ele><time>2026-04-10T09:17:33.868Z</time></trkpt><trkpt lat="44.1757317" lon="5.5091821"><ele>1113.0</ele><time>2026-04-10T09:17:34.865Z</time></trkpt><trkpt lat="44.1757895" lon="5.5094058"><ele>1110.0</ele><time>2026-04-10T09:17:35.869Z</time></trkpt><trkpt lat="44.1758559" lon="5.509626"><ele>1110.0</ele><time>2026-04-10T09:17:36.871Z</time></trkpt><trkpt lat="44.1759663" lon="5.5098219"><ele>1110.0</ele><time>2026-04-10T09:17:37.867Z</time></trkpt><trkpt lat="44.1760736" lon="5.5099972"><ele>1110.0</ele><time>2026-04-10T09:17:38.868Z</time></trkpt><trkpt lat="44.1761962" lon="5.5101432"><ele>1110.0</ele><time>2026-04-10T09:17:39.865Z</time></trkpt><trkpt lat="44.1763307" lon="5.5102656"><ele>1110.0</ele><time>2026-04-10T09:17:40.867Z</time></trkpt><trkpt lat="44.1764675" lon="5.5103628"><ele>1110.0</ele><time>2026-04-10T09:17:41.87Z</time></trkpt><trkpt lat="44.176599" lon="5.5104539"><ele>1108.75</ele><time>2026-04-10T09:17:42.87Z</time></trkpt><trkpt lat="44.176723" lon="5.5105564"><ele>1107.5</ele><time>2026-04-10T09:17:43.866Z</time></trkpt><trkpt lat="44.1768461" lon="5.5106641"><ele>1106.25</ele><time>2026-04-10T09:17:44.87Z</time></trkpt><trkpt lat="44.1769495" lon="5.5107957"><ele>1105.0</ele><time>2026-04-10T09:17:45.871Z</time></trkpt><trkpt lat="44.1770471" lon="5.5109278"><ele>1105.0</ele><time>2026-04-10T09:17:46.868Z</time></trkpt><trkpt lat="44.1771411" lon="5.5110622"><ele>1105.0</ele><time>2026-04-10T09:17:47.869Z</time></trkpt><trkpt lat="44.1772346" lon="5.5111922"><ele>1105.0</ele><time>2026-04-10T09:17:48.868Z</time></trkpt><trkpt lat="44.177326" lon="5.5113182"><ele>1105.0</ele><time>2026-04-10T09:17:49.871Z</time></trkpt><trkpt lat="44.1774364" lon="5.5114092"><ele>1103.5</ele><time>2026-04-10T09:17:50.868Z</time></trkpt><trkpt lat="44.1775482" lon="5.511469"><ele>1102.0</ele><time>2026-04-10T09:17:51.866Z</time></trkpt><trkpt lat="44.177663" lon="5.5114861"><ele>1100.5</ele><time>2026-04-10T09:17:52.864Z</time></trkpt><trkpt lat="44.177775" lon="5.5114474"><ele>1099.0</ele><time>2026-04-10T09:17:53.866Z</time></trkpt><trkpt lat="44.1778755" lon="5.5113569"><ele>1099.0</ele><time>2026-04-10T09:17:54.868Z</time></trkpt><trkpt lat="44.177969" lon="5.5112445"><ele>1099.0</ele><time>2026-04-10T09:17:55.868Z</time></trkpt><trkpt lat="44.1780667" lon="5.5111329"><ele>1099.0</ele><time>2026-04-10T09:17:56.867Z</time></trkpt><trkpt lat="44.178178" lon="5.5110343"><ele>1099.0</ele><time>2026-04-10T09:17:57.867Z</time></trkpt><trkpt lat="44.1783167" lon="5.5109487"><ele>1096.75</ele><time>2026-04-10T09:17:58.873Z</time></trkpt><trkpt lat="44.1784498" lon="5.5108758"><ele>1094.5</ele><time>2026-04-10T09:17:59.868Z</time></trkpt><trkpt lat="44.1785816" lon="5.510805"><ele>1092.25</ele><time>2026-04-10T09:18:00.87Z</time></trkpt><trkpt lat="44.1787261" lon="5.5107437"><ele>1090.0</ele><time>2026-04-10T09:18:01.874Z</time></trkpt><trkpt lat="44.1788682" lon="5.5106823"><ele>1091.3333333333333</ele><time>2026-04-10T09:18:02.869Z</time></trkpt><trkpt lat="44.1790203" lon="5.5106404"><ele>1092.6666666666667</ele><time>2026-04-10T09:18:03.868Z</time></trkpt><trkpt lat="44.1791724" lon="5.5105933"><ele>1094.0</ele><time>2026-04-10T09:18:04.864Z</time></trkpt><trkpt lat="44.1793292" lon="5.5105524"><ele>1094.0</ele><time>2026-04-10T09:18:05.871Z</time></trkpt><trkpt lat="44.1794805" lon="5.5105013"><ele>1094.0</ele><time>2026-04-10T09:18:06.871Z</time></trkpt><trkpt lat="44.1796225" lon="5.5104033"><ele>1094.0</ele><time>2026-04-10T09:18:07.872Z</time></trkpt><trkpt lat="44.1797455" lon="5.5102875"><ele>1089.6666666666667</ele><time>2026-04-10T09:18:08.87Z</time></trkpt><trkpt lat="44.1798548" lon="5.5101641"><ele>1085.3333333333333</ele><time>2026-04-10T09:18:09.867Z</time></trkpt><trkpt lat="44.1799678" lon="5.5099919"><ele>1081.0</ele><time>2026-04-10T09:18:10.867Z</time></trkpt><trkpt lat="44.1800731" lon="5.5098235"><ele>1081.0</ele><time>2026-04-10T09:18:11.87Z</time></trkpt><trkpt lat="44.1801788" lon="5.5096572"><ele>1081.0</ele><time>2026-04-10T09:18:12.867Z</time></trkpt><trkpt lat="44.1802806" lon="5.509491"><ele>1081.0</ele><time>2026-04-10T09:18:13.866Z</time></trkpt><trkpt lat="44.1803823" lon="5.5093275"><ele>1079.75</ele><time>2026-04-10T09:18:14.867Z</time></trkpt><trkpt lat="44.1804725" lon="5.5091651"><ele>1078.5</ele><time>2026-04-10T09:18:15.867Z</time></trkpt><trkpt lat="44.18056" lon="5.509025"><ele>1077.25</ele><time>2026-04-10T09:18:16.866Z</time></trkpt><trkpt lat="44.1806535" lon="5.5089171"><ele>1076.0</ele><time>2026-04-10T09:18:17.866Z</time></trkpt><trkpt lat="44.1807591" lon="5.5088632"><ele>1076.0</ele><time>2026-04-10T09:18:18.872Z</time></trkpt><trkpt lat="44.1808839" lon="5.5088523"><ele>1076.0</ele><time>2026-04-10T09:18:19.867Z</time></trkpt><trkpt lat="44.1809932" lon="5.5089456"><ele>1076.0</ele><time>2026-04-10T09:18:20.869Z</time></trkpt><trkpt lat="44.1810927" lon="5.509065"><ele>1076.0</ele><time>2026-04-10T09:18:21.866Z</time></trkpt><trkpt lat="44.1811764" lon="5.5091979"><ele>1076.0</ele><time>2026-04-10T09:18:22.868Z</time></trkpt><trkpt lat="44.1812578" lon="5.5093282"><ele>1076.0</ele><time>2026-04-10T09:18:23.866Z</time></trkpt><trkpt lat="44.1813377" lon="5.5094523"><ele>1076.0</ele><time>2026-04-10T09:18:24.869Z</time></trkpt><trkpt lat="44.1814211" lon="5.5095568"><ele>1076.0</ele><time>2026-04-10T09:18:25.867Z</time></trkpt><trkpt lat="44.1815077" lon="5.5096531"><ele>1075.6</ele><time>2026-04-10T09:18:26.869Z</time></trkpt><trkpt lat="44.181596" lon="5.5097313"><ele>1075.1999999999998</ele><time>2026-04-10T09:18:27.868Z</time></trkpt><trkpt lat="44.1816925" lon="5.5097944"><ele>1074.8000000000002</ele><time>2026-04-10T09:18:28.871Z</time></trkpt><trkpt lat="44.1817682" lon="5.5098677"><ele>1074.4</ele><time>2026-04-10T09:18:29.866Z</time></trkpt><trkpt lat="44.181832" lon="5.50993"><ele>1074.0</ele><time>2026-04-10T09:18:30.866Z</time></trkpt><trkpt lat="44.1819318" lon="5.5099888"><ele>1074.0</ele><time>2026-04-10T09:18:32.872Z</time></trkpt><trkpt lat="44.1820078" lon="5.5099034"><ele>1074.0</ele><time>2026-04-10T09:18:34.865Z</time></trkpt><trkpt lat="44.1820216" lon="5.5098058"><ele>1074.0</ele><time>2026-04-10T09:18:35.872Z</time></trkpt><trkpt lat="44.1820081" lon="5.5097032"><ele>1074.0</ele><time>2026-04-10T09:18:36.868Z</time></trkpt><trkpt lat="44.1819829" lon="5.5095708"><ele>1074.0</ele><time>2026-04-10T09:18:37.874Z</time></trkpt><trkpt lat="44.1819479" lon="5.5094465"><ele>1074.0</ele><time>2026-04-10T09:18:38.867Z</time></trkpt><trkpt lat="44.1819147" lon="5.5092879"><ele>1072.25</ele><time>2026-04-10T09:18:39.868Z</time></trkpt><trkpt lat="44.1818824" lon="5.5091123"><ele>1070.5</ele><time>2026-04-10T09:18:40.864Z</time></trkpt><trkpt lat="44.1818358" lon="5.5089349"><ele>1068.75</ele><time>2026-04-10T09:18:41.866Z</time></trkpt><trkpt lat="44.1817994" lon="5.5087309"><ele>1067.0</ele><time>2026-04-10T09:18:42.868Z</time></trkpt><trkpt lat="44.1817607" lon="5.5085332"><ele>1066.3333333333335</ele><time>2026-04-10T09:18:43.873Z</time></trkpt><trkpt lat="44.1817215" lon="5.5082988"><ele>1065.6666666666667</ele><time>2026-04-10T09:18:44.866Z</time></trkpt><trkpt lat="44.1816836" lon="5.5080968"><ele>1065.0</ele><time>2026-04-10T09:18:45.875Z</time></trkpt><trkpt lat="44.1816533" lon="5.5078877"><ele>1064.5</ele><time>2026-04-10T09:18:46.868Z</time></trkpt><trkpt lat="44.1816162" lon="5.507697"><ele>1064.0</ele><time>2026-04-10T09:18:47.872Z</time></trkpt><trkpt lat="44.1816155" lon="5.5075018"><ele>1063.5</ele><time>2026-04-10T09:18:48.868Z</time></trkpt><trkpt lat="44.1816403" lon="5.5073035"><ele>1063.0</ele><time>2026-04-10T09:18:49.867Z</time></trkpt><trkpt lat="44.1816769" lon="5.5070988"><ele>1060.0</ele><time>2026-04-10T09:18:50.864Z</time></trkpt><trkpt lat="44.1817167" lon="5.5068826"><ele>1057.0</ele><time>2026-04-10T09:18:51.868Z</time></trkpt><trkpt lat="44.181764" lon="5.5066507"><ele>1054.0</ele><time>2026-04-10T09:18:52.867Z</time></trkpt><trkpt lat="44.1818003" lon="5.5064132"><ele>1050.6666666666665</ele><time>2026-04-10T09:18:53.867Z</time></trkpt><trkpt lat="44.1818406" lon="5.5061791"><ele>1047.3333333333333</ele><time>2026-04-10T09:18:54.865Z</time></trkpt><trkpt lat="44.1818834" lon="5.5059482"><ele>1044.0</ele><time>2026-04-10T09:18:55.867Z</time></trkpt><trkpt lat="44.1819272" lon="5.505718"><ele>1044.0</ele><time>2026-04-10T09:18:56.871Z</time></trkpt><trkpt lat="44.1819663" lon="5.5055008"><ele>1044.0</ele><time>2026-04-10T09:18:57.867Z</time></trkpt><trkpt lat="44.1820199" lon="5.5052798"><ele>1044.0</ele><time>2026-04-10T09:18:58.868Z</time></trkpt><trkpt lat="44.1821164" lon="5.5050872"><ele>1040.3333333333333</ele><time>2026-04-10T09:18:59.868Z</time></trkpt><trkpt lat="44.1822071" lon="5.504905"><ele>1036.6666666666665</ele><time>2026-04-10T09:19:00.867Z</time></trkpt><trkpt lat="44.1822955" lon="5.5047224"><ele>1033.0</ele><time>2026-04-10T09:19:01.868Z</time></trkpt><trkpt lat="44.1823764" lon="5.504541"><ele>1041.0</ele><time>2026-04-10T09:19:02.867Z</time></trkpt><trkpt lat="44.1824514" lon="5.5043281"><ele>1049.0</ele><time>2026-04-10T09:19:03.869Z</time></trkpt><trkpt lat="44.1825174" lon="5.504103"><ele>1057.0</ele><time>2026-04-10T09:19:04.865Z</time></trkpt><trkpt lat="44.1825397" lon="5.5038356"><ele>1051.0</ele><time>2026-04-10T09:19:05.866Z</time></trkpt><trkpt lat="44.182585" lon="5.5036039"><ele>1045.0</ele><time>2026-04-10T09:19:06.866Z</time></trkpt><trkpt lat="44.1826458" lon="5.5033517"><ele>1039.0</ele><time>2026-04-10T09:19:07.866Z</time></trkpt><trkpt lat="44.1827171" lon="5.5030935"><ele>1031.6666666666665</ele><time>2026-04-10T09:19:08.867Z</time></trkpt><trkpt lat="44.1828062" lon="5.5028621"><ele>1024.3333333333333</ele><time>2026-04-10T09:19:09.867Z</time></trkpt><trkpt lat="44.1829049" lon="5.5026379"><ele>1017.0</ele><time>2026-04-10T09:19:10.865Z</time></trkpt><trkpt lat="44.1830024" lon="5.5024188"><ele>1017.0</ele><time>2026-04-10T09:19:11.869Z</time></trkpt><trkpt lat="44.1831065" lon="5.5022431"><ele>1017.0</ele><time>2026-04-10T09:19:12.864Z</time></trkpt><trkpt lat="44.1832048" lon="5.5020895"><ele>1017.0</ele><time>2026-04-10T09:19:13.866Z</time></trkpt><trkpt lat="44.1833052" lon="5.5019575"><ele>1017.0</ele><time>2026-04-10T09:19:14.871Z</time></trkpt><trkpt lat="44.1834314" lon="5.5018738"><ele>1018.0</ele><time>2026-04-10T09:19:15.866Z</time></trkpt><trkpt lat="44.1835769" lon="5.5017926"><ele>1019.0</ele><time>2026-04-10T09:19:16.865Z</time></trkpt><trkpt lat="44.183751" lon="5.5017464"><ele>1020.0</ele><time>2026-04-10T09:19:17.87Z</time></trkpt><trkpt lat="44.183943" lon="5.5017226"><ele>1025.0</ele><time>2026-04-10T09:19:18.867Z</time></trkpt><trkpt lat="44.1841248" lon="5.5016763"><ele>1030.0</ele><time>2026-04-10T09:19:19.865Z</time></trkpt><trkpt lat="44.1842966" lon="5.5016284"><ele>1035.0</ele><time>2026-04-10T09:19:20.87Z</time></trkpt><trkpt lat="44.1844544" lon="5.5015782"><ele>1035.0</ele><time>2026-04-10T09:19:21.865Z</time></trkpt><trkpt lat="44.1846196" lon="5.5015374"><ele>1035.0</ele><time>2026-04-10T09:19:22.866Z</time></trkpt><trkpt lat="44.1847433" lon="5.5014616"><ele>1035.0</ele><time>2026-04-10T09:19:23.87Z</time></trkpt><trkpt lat="44.1848562" lon="5.5013055"><ele>1032.3333333333333</ele><time>2026-04-10T09:19:24.87Z</time></trkpt><trkpt lat="44.1849664" lon="5.5011477"><ele>1029.6666666666665</ele><time>2026-04-10T09:19:25.868Z</time></trkpt><trkpt lat="44.1850507" lon="5.5010003"><ele>1027.0</ele><time>2026-04-10T09:19:26.869Z</time></trkpt><trkpt lat="44.1851" lon="5.500771"><ele>1027.0</ele><time>2026-04-10T09:19:27.868Z</time></trkpt><trkpt lat="44.1851312" lon="5.5005741"><ele>1027.0</ele><time>2026-04-10T09:19:28.87Z</time></trkpt><trkpt lat="44.1851624" lon="5.5003575"><ele>1027.0</ele><time>2026-04-10T09:19:29.871Z</time></trkpt><trkpt lat="44.1851696" lon="5.5001865"><ele>1027.0</ele><time>2026-04-10T09:19:30.869Z</time></trkpt><trkpt lat="44.1850492" lon="5.4999286"><ele>1026.0</ele><time>2026-04-10T09:19:31.869Z</time></trkpt><trkpt lat="44.1849831" lon="5.4997255"><ele>1025.0</ele><time>2026-04-10T09:19:32.864Z</time></trkpt><trkpt lat="44.1849196" lon="5.4995128"><ele>1024.0</ele><time>2026-04-10T09:19:33.866Z</time></trkpt><trkpt lat="44.1848601" lon="5.4993116"><ele>1016.3333333333333</ele><time>2026-04-10T09:19:34.87Z</time></trkpt><trkpt lat="44.1848261" lon="5.4990974"><ele>1008.6666666666667</ele><time>2026-04-10T09:19:35.868Z</time></trkpt><trkpt lat="44.1848255" lon="5.4988711"><ele>1001.0</ele><time>2026-04-10T09:19:36.866Z</time></trkpt><trkpt lat="44.1848276" lon="5.4986423"><ele>1004.5</ele><time>2026-04-10T09:19:37.866Z</time></trkpt><trkpt lat="44.1848743" lon="5.4984475"><ele>1008.0</ele><time>2026-04-10T09:19:38.869Z</time></trkpt><trkpt lat="44.1849104" lon="5.4982428"><ele>1011.5</ele><time>2026-04-10T09:19:39.892Z</time></trkpt><trkpt lat="44.1849476" lon="5.4980426"><ele>1015.0</ele><time>2026-04-10T09:19:40.868Z</time></trkpt><trkpt lat="44.1849751" lon="5.4978438"><ele>1015.0</ele><time>2026-04-10T09:19:41.866Z</time></trkpt><trkpt lat="44.1850133" lon="5.4976233"><ele>1015.0</ele><time>2026-04-10T09:19:42.871Z</time></trkpt><trkpt lat="44.1850449" lon="5.4973993"><ele>1015.0</ele><time>2026-04-10T09:19:43.87Z</time></trkpt><trkpt lat="44.1850605" lon="5.4971501"><ele>1013.0</ele><time>2026-04-10T09:19:44.87Z</time></trkpt><trkpt lat="44.1850604" lon="5.4968971"><ele>1011.0</ele><time>2026-04-10T09:19:45.871Z</time></trkpt><trkpt lat="44.1850419" lon="5.4966436"><ele>1009.0</ele><time>2026-04-10T09:19:46.87Z</time></trkpt><trkpt lat="44.1850127" lon="5.4963916"><ele>1008.3333333333333</ele><time>2026-04-10T09:19:47.866Z</time></trkpt><trkpt lat="44.184984" lon="5.4961478"><ele>1007.6666666666667</ele><time>2026-04-10T09:19:48.869Z</time></trkpt><trkpt lat="44.1849311" lon="5.4959236"><ele>1007.0</ele><time>2026-04-10T09:19:49.871Z</time></trkpt><trkpt lat="44.1848875" lon="5.4956959"><ele>1000.75</ele><time>2026-04-10T09:19:50.87Z</time></trkpt><trkpt lat="44.1848353" lon="5.4954764"><ele>994.5</ele><time>2026-04-10T09:19:51.866Z</time></trkpt><trkpt lat="44.1847677" lon="5.4952797"><ele>988.25</ele><time>2026-04-10T09:19:52.866Z</time></trkpt><trkpt lat="44.1847128" lon="5.4951326"><ele>982.0</ele><time>2026-04-10T09:19:53.868Z</time></trkpt><trkpt lat="44.1846507" lon="5.4949619"><ele>982.0</ele><time>2026-04-10T09:19:54.867Z</time></trkpt><trkpt lat="44.1846108" lon="5.4948161"><ele>982.0</ele><time>2026-04-10T09:19:55.867Z</time></trkpt><trkpt lat="44.184633" lon="5.4946708"><ele>982.0</ele><time>2026-04-10T09:19:56.87Z</time></trkpt><trkpt lat="44.1846894" lon="5.4945262"><ele>982.0</ele><time>2026-04-10T09:19:57.866Z</time></trkpt><trkpt lat="44.18475" lon="5.4944082"><ele>982.0</ele><time>2026-04-10T09:19:58.866Z</time></trkpt><trkpt lat="44.1848638" lon="5.4943164"><ele>985.5</ele><time>2026-04-10T09:19:59.871Z</time></trkpt><trkpt lat="44.1849719" lon="5.4942546"><ele>989.0</ele><time>2026-04-10T09:20:00.866Z</time></trkpt><trkpt lat="44.1851378" lon="5.4942226"><ele>992.5</ele><time>2026-04-10T09:20:01.868Z</time></trkpt><trkpt lat="44.1852774" lon="5.4941767"><ele>996.0</ele><time>2026-04-10T09:20:02.867Z</time></trkpt><trkpt lat="44.1853991" lon="5.4941487"><ele>996.0</ele><time>2026-04-10T09:20:03.868Z</time></trkpt><trkpt lat="44.1855185" lon="5.4941345"><ele>995.9999999999999</ele><time>2026-04-10T09:20:04.866Z</time></trkpt><trkpt lat="44.1856333" lon="5.4941188"><ele>995.9999999999999</ele><time>2026-04-10T09:20:05.869Z</time></trkpt><trkpt lat="44.1857367" lon="5.4941805"><ele>996.0</ele><time>2026-04-10T09:20:06.865Z</time></trkpt><trkpt lat="44.1858203" lon="5.49424"><ele>996.0</ele><time>2026-04-10T09:20:07.869Z</time></trkpt><trkpt lat="44.1859025" lon="5.4942996"><ele>996.0</ele><time>2026-04-10T09:20:08.867Z</time></trkpt><trkpt lat="44.1859719" lon="5.4943186"><ele>995.9999999999999</ele><time>2026-04-10T09:20:09.866Z</time></trkpt><trkpt lat="44.1860903" lon="5.4942912"><ele>995.9999999999999</ele><time>2026-04-10T09:20:11.868Z</time></trkpt><trkpt lat="44.1861247" lon="5.4941965"><ele>996.0</ele><time>2026-04-10T09:20:12.869Z</time></trkpt><trkpt lat="44.186056" lon="5.494109"><ele>996.0</ele><time>2026-04-10T09:20:13.88Z</time></trkpt><trkpt lat="44.1859779" lon="5.494032"><ele>996.0</ele><time>2026-04-10T09:20:14.874Z</time></trkpt><trkpt lat="44.1858608" lon="5.4940013"><ele>996.0</ele><time>2026-04-10T09:20:15.868Z</time></trkpt><trkpt lat="44.1857174" lon="5.4939019"><ele>996.0</ele><time>2026-04-10T09:20:16.865Z</time></trkpt><trkpt lat="44.1856163" lon="5.4938167"><ele>996.0</ele><time>2026-04-10T09:20:17.869Z</time></trkpt><trkpt lat="44.1855307" lon="5.4937081"><ele>991.75</ele><time>2026-04-10T09:20:18.864Z</time></trkpt><trkpt lat="44.1854531" lon="5.4935552"><ele>987.5</ele><time>2026-04-10T09:20:19.867Z</time></trkpt><trkpt lat="44.1854332" lon="5.4933709"><ele>983.25</ele><time>2026-04-10T09:20:20.869Z</time></trkpt><trkpt lat="44.1855249" lon="5.4931895"><ele>979.0</ele><time>2026-04-10T09:20:21.867Z</time></trkpt><trkpt lat="44.1855534" lon="5.4930359"><ele>978.4999999999999</ele><time>2026-04-10T09:20:22.865Z</time></trkpt><trkpt lat="44.1856082" lon="5.4929213"><ele>978.0</ele><time>2026-04-10T09:20:23.866Z</time></trkpt><trkpt lat="44.185675" lon="5.4928426"><ele>977.5</ele><time>2026-04-10T09:20:24.87Z</time></trkpt><trkpt lat="44.1857365" lon="5.4927751"><ele>977.0</ele><time>2026-04-10T09:20:25.867Z</time></trkpt><trkpt lat="44.1858167" lon="5.4927595"><ele>976.4999999999999</ele><time>2026-04-10T09:20:26.867Z</time></trkpt><trkpt lat="44.1858802" lon="5.4928666"><ele>976.0</ele><time>2026-04-10T09:20:27.874Z</time></trkpt><trkpt lat="44.1859424" lon="5.4930107"><ele>977.5999999999999</ele><time>2026-04-10T09:20:28.871Z</time></trkpt><trkpt lat="44.1860295" lon="5.4931021"><ele>979.1999999999999</ele><time>2026-04-10T09:20:29.873Z</time></trkpt><trkpt lat="44.1861296" lon="5.493172"><ele>980.8000000000001</ele><time>2026-04-10T09:20:30.867Z</time></trkpt><trkpt lat="44.1862329" lon="5.4932204"><ele>982.4000000000001</ele><time>2026-04-10T09:20:31.865Z</time></trkpt><trkpt lat="44.1863437" lon="5.4932297"><ele>984.0</ele><time>2026-04-10T09:20:32.865Z</time></trkpt><trkpt lat="44.1864499" lon="5.4932159"><ele>983.5</ele><time>2026-04-10T09:20:33.865Z</time></trkpt><trkpt lat="44.1865488" lon="5.4931149"><ele>983.0</ele><time>2026-04-10T09:20:34.867Z</time></trkpt><trkpt lat="44.1866456" lon="5.4930266"><ele>982.5</ele><time>2026-04-10T09:20:35.865Z</time></trkpt><trkpt lat="44.1867443" lon="5.4929324"><ele>982.0</ele><time>2026-04-10T09:20:36.866Z</time></trkpt><trkpt lat="44.186846" lon="5.4928475"><ele>978.25</ele><time>2026-04-10T09:20:37.867Z</time></trkpt><trkpt lat="44.1869773" lon="5.4927154"><ele>974.5</ele><time>2026-04-10T09:20:38.867Z</time></trkpt><trkpt lat="44.1870902" lon="5.4925805"><ele>970.75</ele><time>2026-04-10T09:20:39.868Z</time></trkpt><trkpt lat="44.1871837" lon="5.4924522"><ele>967.0</ele><time>2026-04-10T09:20:40.865Z</time></trkpt><trkpt lat="44.1872868" lon="5.4923183"><ele>970.0</ele><time>2026-04-10T09:20:41.866Z</time></trkpt><trkpt lat="44.1873906" lon="5.4921808"><ele>973.0</ele><time>2026-04-10T09:20:42.87Z</time></trkpt><trkpt lat="44.1875148" lon="5.4920479"><ele>976.0</ele><time>2026-04-10T09:20:43.866Z</time></trkpt><trkpt lat="44.1876338" lon="5.4919186"><ele>970.5</ele><time>2026-04-10T09:20:44.867Z</time></trkpt><trkpt lat="44.1877435" lon="5.4918012"><ele>965.0</ele><time>2026-04-10T09:20:45.871Z</time></trkpt><trkpt lat="44.1878236" lon="5.491688"><ele>959.5</ele><time>2026-04-10T09:20:46.865Z</time></trkpt><trkpt lat="44.187962" lon="5.4916871"><ele>954.0</ele><time>2026-04-10T09:20:47.863Z</time></trkpt><trkpt lat="44.1880808" lon="5.4916693"><ele>956.25</ele><time>2026-04-10T09:20:48.863Z</time></trkpt><trkpt lat="44.1881899" lon="5.4916502"><ele>958.5</ele><time>2026-04-10T09:20:49.868Z</time></trkpt><trkpt lat="44.1883262" lon="5.4916353"><ele>960.75</ele><time>2026-04-10T09:20:50.867Z</time></trkpt><trkpt lat="44.1884476" lon="5.4916023"><ele>963.0</ele><time>2026-04-10T09:20:51.865Z</time></trkpt><trkpt lat="44.1885427" lon="5.4915091"><ele>963.0</ele><time>2026-04-10T09:20:52.869Z</time></trkpt><trkpt lat="44.1886303" lon="5.4913851"><ele>963.0</ele><time>2026-04-10T09:20:53.865Z</time></trkpt><trkpt lat="44.1887119" lon="5.4912182"><ele>963.0</ele><time>2026-04-10T09:20:54.865Z</time></trkpt><trkpt lat="44.1887924" lon="5.4910488"><ele>963.0</ele><time>2026-04-10T09:20:55.867Z</time></trkpt><trkpt lat="44.1888806" lon="5.4908745"><ele>964.0</ele><time>2026-04-10T09:20:56.878Z</time></trkpt><trkpt lat="44.1889718" lon="5.4906992"><ele>965.0</ele><time>2026-04-10T09:20:57.866Z</time></trkpt><trkpt lat="44.1890571" lon="5.4905028"><ele>966.0</ele><time>2026-04-10T09:20:58.867Z</time></trkpt><trkpt lat="44.1891451" lon="5.4903001"><ele>958.6666666666667</ele><time>2026-04-10T09:20:59.865Z</time></trkpt><trkpt lat="44.1892358" lon="5.4900897"><ele>951.3333333333334</ele><time>2026-04-10T09:21:00.863Z</time></trkpt><trkpt lat="44.1893262" lon="5.4898659"><ele>944.0</ele><time>2026-04-10T09:21:01.867Z</time></trkpt><trkpt lat="44.1894361" lon="5.4896247"><ele>937.0</ele><time>2026-04-10T09:21:02.879Z</time></trkpt><trkpt lat="44.1895535" lon="5.4893876"><ele>930.0</ele><time>2026-04-10T09:21:03.88Z</time></trkpt><trkpt lat="44.1896719" lon="5.4891661"><ele>923.0</ele><time>2026-04-10T09:21:04.867Z</time></trkpt><trkpt lat="44.1897817" lon="5.4889147"><ele>926.0</ele><time>2026-04-10T09:21:05.865Z</time></trkpt><trkpt lat="44.1898916" lon="5.4886685"><ele>929.0</ele><time>2026-04-10T09:21:06.869Z</time></trkpt><trkpt lat="44.1899999" lon="5.4884164"><ele>932.0</ele><time>2026-04-10T09:21:07.868Z</time></trkpt><trkpt lat="44.1901059" lon="5.4881674"><ele>924.6666666666667</ele><time>2026-04-10T09:21:08.869Z</time></trkpt><trkpt lat="44.190199" lon="5.4879116"><ele>917.3333333333333</ele><time>2026-04-10T09:21:09.865Z</time></trkpt><trkpt lat="44.190268" lon="5.4876383"><ele>910.0</ele><time>2026-04-10T09:21:10.865Z</time></trkpt><trkpt lat="44.1903294" lon="5.4873827"><ele>910.0</ele><time>2026-04-10T09:21:11.866Z</time></trkpt><trkpt lat="44.1904085" lon="5.4871385"><ele>910.0</ele><time>2026-04-10T09:21:12.865Z</time></trkpt><trkpt lat="44.1904861" lon="5.4868924"><ele>910.0</ele><time>2026-04-10T09:21:13.866Z</time></trkpt><trkpt lat="44.190579" lon="5.486703"><ele>915.0</ele><time>2026-04-10T09:21:14.865Z</time></trkpt><trkpt lat="44.1906615" lon="5.4865299"><ele>920.0</ele><time>2026-04-10T09:21:15.864Z</time></trkpt><trkpt lat="44.1907875" lon="5.4864126"><ele>925.0</ele><time>2026-04-10T09:21:16.868Z</time></trkpt><trkpt lat="44.1909275" lon="5.486317"><ele>915.3333333333333</ele><time>2026-04-10T09:21:17.866Z</time></trkpt><trkpt lat="44.1910846" lon="5.4862464"><ele>905.6666666666667</ele><time>2026-04-10T09:21:18.871Z</time></trkpt><trkpt lat="44.1912511" lon="5.4862052"><ele>896.0</ele><time>2026-04-10T09:21:19.868Z</time></trkpt><trkpt lat="44.1914085" lon="5.4861705"><ele>900.6666666666667</ele><time>2026-04-10T09:21:20.865Z</time></trkpt><trkpt lat="44.1915705" lon="5.486175"><ele>905.3333333333333</ele><time>2026-04-10T09:21:21.87Z</time></trkpt><trkpt lat="44.1917301" lon="5.4862127"><ele>910.0</ele><time>2026-04-10T09:21:22.868Z</time></trkpt><trkpt lat="44.1918969" lon="5.4862646"><ele>915.3333333333333</ele><time>2026-04-10T09:21:23.868Z</time></trkpt><trkpt lat="44.1920569" lon="5.4863204"><ele>920.6666666666667</ele><time>2026-04-10T09:21:24.869Z</time></trkpt><trkpt lat="44.1922218" lon="5.4863718"><ele>926.0</ele><time>2026-04-10T09:21:25.869Z</time></trkpt><trkpt lat="44.1924106" lon="5.4863475"><ele>926.0</ele><time>2026-04-10T09:21:26.869Z</time></trkpt><trkpt lat="44.192608" lon="5.4863181"><ele>926.0</ele><time>2026-04-10T09:21:27.879Z</time></trkpt><trkpt lat="44.1927919" lon="5.4863229"><ele>926.0</ele><time>2026-04-10T09:21:28.875Z</time></trkpt><trkpt lat="44.19297" lon="5.4863696"><ele>926.0</ele><time>2026-04-10T09:21:29.864Z</time></trkpt><trkpt lat="44.1931478" lon="5.4864062"><ele>926.0</ele><time>2026-04-10T09:21:30.869Z</time></trkpt><trkpt lat="44.1933247" lon="5.4864088"><ele>926.0</ele><time>2026-04-10T09:21:31.868Z</time></trkpt><trkpt lat="44.1934899" lon="5.4864055"><ele>924.75</ele><time>2026-04-10T09:21:32.868Z</time></trkpt><trkpt lat="44.1936245" lon="5.4863495"><ele>923.5</ele><time>2026-04-10T09:21:33.869Z</time></trkpt><trkpt lat="44.1937362" lon="5.4862806"><ele>922.25</ele><time>2026-04-10T09:21:34.868Z</time></trkpt><trkpt lat="44.1938315" lon="5.4862374"><ele>921.0</ele><time>2026-04-10T09:21:35.863Z</time></trkpt><trkpt lat="44.1939148" lon="5.4861722"><ele>917.1999999999999</ele><time>2026-04-10T09:21:36.864Z</time></trkpt><trkpt lat="44.1939772" lon="5.4860623"><ele>913.3999999999999</ele><time>2026-04-10T09:21:37.864Z</time></trkpt><trkpt lat="44.1939982" lon="5.4859245"><ele>909.6</ele><time>2026-04-10T09:21:38.868Z</time></trkpt><trkpt lat="44.1939817" lon="5.485784"><ele>905.8</ele><time>2026-04-10T09:21:39.864Z</time></trkpt><trkpt lat="44.193911" lon="5.4856615"><ele>902.0</ele><time>2026-04-10T09:21:40.864Z</time></trkpt><trkpt lat="44.1938389" lon="5.4855503"><ele>902.0</ele><time>2026-04-10T09:21:41.864Z</time></trkpt><trkpt lat="44.1937133" lon="5.485486"><ele>902.0</ele><time>2026-04-10T09:21:42.865Z</time></trkpt><trkpt lat="44.1936005" lon="5.4853958"><ele>902.0</ele><time>2026-04-10T09:21:43.864Z</time></trkpt><trkpt lat="44.1935224" lon="5.4852634"><ele>902.0</ele><time>2026-04-10T09:21:44.865Z</time></trkpt><trkpt lat="44.1934432" lon="5.485132"><ele>901.5</ele><time>2026-04-10T09:21:45.866Z</time></trkpt><trkpt lat="44.1934172" lon="5.484925"><ele>901.0</ele><time>2026-04-10T09:21:46.87Z</time></trkpt><trkpt lat="44.1933685" lon="5.4847496"><ele>900.5</ele><time>2026-04-10T09:21:47.867Z</time></trkpt><trkpt lat="44.1933032" lon="5.4845925"><ele>900.0</ele><time>2026-04-10T09:21:48.865Z</time></trkpt><trkpt lat="44.1932067" lon="5.4844472"><ele>897.0</ele><time>2026-04-10T09:21:49.866Z</time></trkpt><trkpt lat="44.1930958" lon="5.4843257"><ele>894.0</ele><time>2026-04-10T09:21:50.867Z</time></trkpt><trkpt lat="44.1929488" lon="5.4842447"><ele>891.0</ele><time>2026-04-10T09:21:51.87Z</time></trkpt><trkpt lat="44.1928028" lon="5.4841798"><ele>891.0</ele><time>2026-04-10T09:21:52.865Z</time></trkpt><trkpt lat="44.1926496" lon="5.4841324"><ele>891.0</ele><time>2026-04-10T09:21:53.866Z</time></trkpt><trkpt lat="44.1925048" lon="5.4840926"><ele>891.0</ele><time>2026-04-10T09:21:54.868Z</time></trkpt><trkpt lat="44.1923604" lon="5.484111"><ele>891.0</ele><time>2026-04-10T09:21:55.864Z</time></trkpt><trkpt lat="44.1922341" lon="5.4841615"><ele>887.75</ele><time>2026-04-10T09:21:56.867Z</time></trkpt><trkpt lat="44.1921104" lon="5.4841913"><ele>884.5</ele><time>2026-04-10T09:21:57.865Z</time></trkpt><trkpt lat="44.1919862" lon="5.4841647"><ele>881.25</ele><time>2026-04-10T09:21:58.866Z</time></trkpt><trkpt lat="44.1918591" lon="5.4840835"><ele>878.0</ele><time>2026-04-10T09:21:59.869Z</time></trkpt><trkpt lat="44.1917277" lon="5.4840111"><ele>878.0</ele><time>2026-04-10T09:22:00.864Z</time></trkpt><trkpt lat="44.1915914" lon="5.4839441"><ele>878.0</ele><time>2026-04-10T09:22:01.866Z</time></trkpt><trkpt lat="44.191487" lon="5.4838376"><ele>878.0</ele><time>2026-04-10T09:22:02.866Z</time></trkpt><trkpt lat="44.1914135" lon="5.483702"><ele>878.0</ele><time>2026-04-10T09:22:03.873Z</time></trkpt><trkpt lat="44.1913354" lon="5.4835569"><ele>865.0</ele><time>2026-04-10T09:22:04.873Z</time></trkpt><trkpt lat="44.1912991" lon="5.4833448"><ele>852.0</ele><time>2026-04-10T09:22:05.871Z</time></trkpt><trkpt lat="44.1912582" lon="5.483129"><ele>839.0</ele><time>2026-04-10T09:22:06.864Z</time></trkpt><trkpt lat="44.1912151" lon="5.4829116"><ele>838.0</ele><time>2026-04-10T09:22:07.865Z</time></trkpt><trkpt lat="44.1911692" lon="5.4826932"><ele>837.0</ele><time>2026-04-10T09:22:08.864Z</time></trkpt><trkpt lat="44.191112" lon="5.4824703"><ele>836.0</ele><time>2026-04-10T09:22:09.869Z</time></trkpt><trkpt lat="44.1910672" lon="5.4822385"><ele>836.6666666666667</ele><time>2026-04-10T09:22:10.866Z</time></trkpt><trkpt lat="44.1910162" lon="5.4820089"><ele>837.3333333333333</ele><time>2026-04-10T09:22:11.866Z</time></trkpt><trkpt lat="44.1909846" lon="5.4817832"><ele>838.0</ele><time>2026-04-10T09:22:12.869Z</time></trkpt><trkpt lat="44.1909802" lon="5.4815694"><ele>838.0</ele><time>2026-04-10T09:22:13.865Z</time></trkpt><trkpt lat="44.1910012" lon="5.4813506"><ele>838.0</ele><time>2026-04-10T09:22:14.866Z</time></trkpt><trkpt lat="44.1910159" lon="5.4811331"><ele>838.0</ele><time>2026-04-10T09:22:15.87Z</time></trkpt><trkpt lat="44.191019" lon="5.4809274"><ele>841.0</ele><time>2026-04-10T09:22:16.869Z</time></trkpt><trkpt lat="44.1910259" lon="5.4807259"><ele>844.0</ele><time>2026-04-10T09:22:17.868Z</time></trkpt><trkpt lat="44.1910059" lon="5.4805242"><ele>847.0</ele><time>2026-04-10T09:22:18.866Z</time></trkpt><trkpt lat="44.1908986" lon="5.4803269"><ele>846.25</ele><time>2026-04-10T09:22:19.869Z</time></trkpt><trkpt lat="44.1908255" lon="5.4801596"><ele>845.5</ele><time>2026-04-10T09:22:20.863Z</time></trkpt><trkpt lat="44.1907965" lon="5.4799792"><ele>844.75</ele><time>2026-04-10T09:22:21.871Z</time></trkpt><trkpt lat="44.1908024" lon="5.4797784"><ele>844.0</ele><time>2026-04-10T09:22:22.868Z</time></trkpt><trkpt lat="44.1908339" lon="5.4795835"><ele>844.0</ele><time>2026-04-10T09:22:23.867Z</time></trkpt><trkpt lat="44.1908792" lon="5.47938"><ele>844.0</ele><time>2026-04-10T09:22:24.873Z</time></trkpt><trkpt lat="44.1909348" lon="5.479164"><ele>844.0</ele><time>2026-04-10T09:22:25.867Z</time></trkpt><trkpt lat="44.1909823" lon="5.4789676"><ele>844.0</ele><time>2026-04-10T09:22:26.866Z</time></trkpt><trkpt lat="44.1910302" lon="5.4787858"><ele>844.0</ele><time>2026-04-10T09:22:27.87Z</time></trkpt><trkpt lat="44.1911156" lon="5.4786537"><ele>844.0</ele><time>2026-04-10T09:22:28.87Z</time></trkpt><trkpt lat="44.1911675" lon="5.4785271"><ele>844.0</ele><time>2026-04-10T09:22:29.872Z</time></trkpt><trkpt lat="44.1911688" lon="5.4784041"><ele>842.0</ele><time>2026-04-10T09:22:30.867Z</time></trkpt><trkpt lat="44.1911155" lon="5.478248"><ele>840.0</ele><time>2026-04-10T09:22:31.867Z</time></trkpt><trkpt lat="44.1910344" lon="5.4781094"><ele>838.0</ele><time>2026-04-10T09:22:32.865Z</time></trkpt><trkpt lat="44.1909518" lon="5.4779597"><ele>836.0</ele><time>2026-04-10T09:22:33.867Z</time></trkpt><trkpt lat="44.1908575" lon="5.4778083"><ele>840.5</ele><time>2026-04-10T09:22:34.871Z</time></trkpt><trkpt lat="44.1907822" lon="5.4776433"><ele>845.0</ele><time>2026-04-10T09:22:35.865Z</time></trkpt><trkpt lat="44.1907088" lon="5.4774631"><ele>849.5</ele><time>2026-04-10T09:22:36.866Z</time></trkpt><trkpt lat="44.1906637" lon="5.4772717"><ele>854.0</ele><time>2026-04-10T09:22:37.865Z</time></trkpt><trkpt lat="44.190659" lon="5.477067"><ele>836.0</ele><time>2026-04-10T09:22:38.871Z</time></trkpt><trkpt lat="44.1906532" lon="5.4768549"><ele>818.0</ele><time>2026-04-10T09:22:39.865Z</time></trkpt><trkpt lat="44.1906447" lon="5.4766357"><ele>800.0</ele><time>2026-04-10T09:22:40.866Z</time></trkpt><trkpt lat="44.1906325" lon="5.4763893"><ele>801.3333333333334</ele><time>2026-04-10T09:22:41.868Z</time></trkpt><trkpt lat="44.1906173" lon="5.4761762"><ele>802.6666666666667</ele><time>2026-04-10T09:22:42.865Z</time></trkpt><trkpt lat="44.1905959" lon="5.4759689"><ele>804.0</ele><time>2026-04-10T09:22:43.867Z</time></trkpt><trkpt lat="44.1905909" lon="5.4757607"><ele>804.0</ele><time>2026-04-10T09:22:44.864Z</time></trkpt><trkpt lat="44.1906454" lon="5.4755433"><ele>804.0</ele><time>2026-04-10T09:22:45.863Z</time></trkpt><trkpt lat="44.1907217" lon="5.4753448"><ele>804.0</ele><time>2026-04-10T09:22:46.867Z</time></trkpt><trkpt lat="44.190813" lon="5.4751458"><ele>806.0</ele><time>2026-04-10T09:22:47.865Z</time></trkpt><trkpt lat="44.1908992" lon="5.4749389"><ele>808.0</ele><time>2026-04-10T09:22:48.871Z</time></trkpt><trkpt lat="44.1909827" lon="5.4747225"><ele>810.0</ele><time>2026-04-10T09:22:49.866Z</time></trkpt><trkpt lat="44.1910647" lon="5.4744978"><ele>810.0</ele><time>2026-04-10T09:22:50.871Z</time></trkpt><trkpt lat="44.1911444" lon="5.4742786"><ele>810.0</ele><time>2026-04-10T09:22:51.866Z</time></trkpt><trkpt lat="44.1912465" lon="5.4740832"><ele>810.0</ele><time>2026-04-10T09:22:52.865Z</time></trkpt><trkpt lat="44.1913473" lon="5.4738774"><ele>805.3333333333333</ele><time>2026-04-10T09:22:53.866Z</time></trkpt><trkpt lat="44.1914287" lon="5.4736804"><ele>800.6666666666666</ele><time>2026-04-10T09:22:54.864Z</time></trkpt><trkpt lat="44.1914722" lon="5.4734596"><ele>796.0</ele><time>2026-04-10T09:22:55.866Z</time></trkpt><trkpt lat="44.1914991" lon="5.4732354"><ele>809.0</ele><time>2026-04-10T09:22:56.864Z</time></trkpt><trkpt lat="44.191537" lon="5.4730199"><ele>822.0</ele><time>2026-04-10T09:22:57.865Z</time></trkpt><trkpt lat="44.191579" lon="5.4728211"><ele>835.0</ele><time>2026-04-10T09:22:58.867Z</time></trkpt><trkpt lat="44.1915738" lon="5.4726086"><ele>835.5</ele><time>2026-04-10T09:22:59.866Z</time></trkpt><trkpt lat="44.1915725" lon="5.4724044"><ele>836.0</ele><time>2026-04-10T09:23:00.867Z</time></trkpt><trkpt lat="44.1915507" lon="5.4722245"><ele>836.5</ele><time>2026-04-10T09:23:01.869Z</time></trkpt><trkpt lat="44.1915103" lon="5.4720507"><ele>837.0</ele><time>2026-04-10T09:23:02.867Z</time></trkpt><trkpt lat="44.1913713" lon="5.4718554"><ele>829.3333333333333</ele><time>2026-04-10T09:23:03.871Z</time></trkpt><trkpt lat="44.1911711" lon="5.4717328"><ele>821.6666666666666</ele><time>2026-04-10T09:23:04.868Z</time></trkpt><trkpt lat="44.1910224" lon="5.4715957"><ele>814.0</ele><time>2026-04-10T09:23:05.867Z</time></trkpt><trkpt lat="44.1908541" lon="5.4714997"><ele>814.0</ele><time>2026-04-10T09:23:06.867Z</time></trkpt><trkpt lat="44.1906788" lon="5.4714081"><ele>814.0</ele><time>2026-04-10T09:23:07.867Z</time></trkpt><trkpt lat="44.190513" lon="5.471309"><ele>814.0</ele><time>2026-04-10T09:23:08.866Z</time></trkpt><trkpt lat="44.1903441" lon="5.4712127"><ele>812.0</ele><time>2026-04-10T09:23:09.873Z</time></trkpt><trkpt lat="44.1901652" lon="5.471104"><ele>810.0</ele><time>2026-04-10T09:23:10.867Z</time></trkpt><trkpt lat="44.1899931" lon="5.4709601"><ele>808.0</ele><time>2026-04-10T09:23:11.89Z</time></trkpt><trkpt lat="44.1898404" lon="5.4707867"><ele>804.3333333333333</ele><time>2026-04-10T09:23:12.882Z</time></trkpt><trkpt lat="44.1896841" lon="5.4706052"><ele>800.6666666666667</ele><time>2026-04-10T09:23:13.87Z</time></trkpt><trkpt lat="44.1895398" lon="5.4704115"><ele>797.0</ele><time>2026-04-10T09:23:14.868Z</time></trkpt><trkpt lat="44.1893913" lon="5.47022"><ele>797.0</ele><time>2026-04-10T09:23:15.865Z</time></trkpt><trkpt lat="44.1892465" lon="5.4700386"><ele>797.0</ele><time>2026-04-10T09:23:16.869Z</time></trkpt><trkpt lat="44.189103" lon="5.4698768"><ele>797.0</ele><time>2026-04-10T09:23:17.872Z</time></trkpt><trkpt lat="44.1889784" lon="5.4697322"><ele>791.0</ele><time>2026-04-10T09:23:18.87Z</time></trkpt><trkpt lat="44.188872" lon="5.4695965"><ele>785.0</ele><time>2026-04-10T09:23:19.867Z</time></trkpt><trkpt lat="44.1887783" lon="5.4694312"><ele>779.0</ele><time>2026-04-10T09:23:20.865Z</time></trkpt><trkpt lat="44.188705" lon="5.4692447"><ele>773.0</ele><time>2026-04-10T09:23:21.869Z</time></trkpt><trkpt lat="44.1888036" lon="5.4690486"><ele>773.0000000000001</ele><time>2026-04-10T09:23:22.869Z</time></trkpt><trkpt lat="44.1888413" lon="5.468885"><ele>773.0</ele><time>2026-04-10T09:23:23.869Z</time></trkpt><trkpt lat="44.1888771" lon="5.4687671"><ele>773.0</ele><time>2026-04-10T09:23:24.87Z</time></trkpt><trkpt lat="44.1889017" lon="5.4686566"><ele>773.0</ele><time>2026-04-10T09:23:25.864Z</time></trkpt><trkpt lat="44.1888429" lon="5.4685882"><ele>773.0000000000001</ele><time>2026-04-10T09:23:26.868Z</time></trkpt><trkpt lat="44.1887791" lon="5.4685713"><ele>773.0</ele><time>2026-04-10T09:23:27.866Z</time></trkpt><trkpt lat="44.1887141" lon="5.4686253"><ele>773.0</ele><time>2026-04-10T09:23:28.865Z</time></trkpt><trkpt lat="44.1886666" lon="5.4687425"><ele>773.0</ele><time>2026-04-10T09:23:29.866Z</time></trkpt><trkpt lat="44.1886227" lon="5.4688446"><ele>773.0</ele><time>2026-04-10T09:23:30.871Z</time></trkpt><trkpt lat="44.1885799" lon="5.4690442"><ele>773.0</ele><time>2026-04-10T09:23:31.866Z</time></trkpt><trkpt lat="44.1885416" lon="5.46923"><ele>773.0</ele><time>2026-04-10T09:23:32.864Z</time></trkpt><trkpt lat="44.1885153" lon="5.4694086"><ele>773.0</ele><time>2026-04-10T09:23:33.87Z</time></trkpt><trkpt lat="44.1885532" lon="5.4696022"><ele>773.0</ele><time>2026-04-10T09:23:34.865Z</time></trkpt><trkpt lat="44.1885995" lon="5.469789"><ele>773.0</ele><time>2026-04-10T09:23:35.864Z</time></trkpt><trkpt lat="44.1886777" lon="5.4699701"><ele>770.3333333333334</ele><time>2026-04-10T09:23:36.864Z</time></trkpt><trkpt lat="44.188766" lon="5.4701485"><ele>767.6666666666667</ele><time>2026-04-10T09:23:37.869Z</time></trkpt><trkpt lat="44.1888604" lon="5.4703279"><ele>765.0</ele><time>2026-04-10T09:23:38.865Z</time></trkpt><trkpt lat="44.1889608" lon="5.4705182"><ele>769.0</ele><time>2026-04-10T09:23:39.864Z</time></trkpt><trkpt lat="44.1890638" lon="5.470717"><ele>773.0</ele><time>2026-04-10T09:23:40.867Z</time></trkpt><trkpt lat="44.1891687" lon="5.4709159"><ele>777.0</ele><time>2026-04-10T09:23:41.864Z</time></trkpt><trkpt lat="44.1892596" lon="5.4711286"><ele>771.3333333333334</ele><time>2026-04-10T09:23:42.863Z</time></trkpt><trkpt lat="44.1893461" lon="5.4713337"><ele>765.6666666666667</ele><time>2026-04-10T09:23:43.867Z</time></trkpt><trkpt lat="44.1894263" lon="5.4715345"><ele>760.0</ele><time>2026-04-10T09:23:44.867Z</time></trkpt><trkpt lat="44.1895127" lon="5.4717368"><ele>760.0</ele><time>2026-04-10T09:23:45.871Z</time></trkpt><trkpt lat="44.1895839" lon="5.4719393"><ele>760.0</ele><time>2026-04-10T09:23:46.871Z</time></trkpt><trkpt lat="44.1896652" lon="5.4721224"><ele>760.0</ele><time>2026-04-10T09:23:47.866Z</time></trkpt><trkpt lat="44.1897517" lon="5.4723017"><ele>757.75</ele><time>2026-04-10T09:23:48.867Z</time></trkpt><trkpt lat="44.1898159" lon="5.472485"><ele>755.5</ele><time>2026-04-10T09:23:49.868Z</time></trkpt><trkpt lat="44.1898708" lon="5.4726495"><ele>753.25</ele><time>2026-04-10T09:23:50.866Z</time></trkpt><trkpt lat="44.189918" lon="5.4728082"><ele>751.0</ele><time>2026-04-10T09:23:51.864Z</time></trkpt><trkpt lat="44.1899224" lon="5.4729815"><ele>751.25</ele><time>2026-04-10T09:23:52.866Z</time></trkpt><trkpt lat="44.1898819" lon="5.4731585"><ele>751.5</ele><time>2026-04-10T09:23:53.867Z</time></trkpt><trkpt lat="44.18981" lon="5.473327"><ele>751.75</ele><time>2026-04-10T09:23:54.865Z</time></trkpt><trkpt lat="44.1897335" lon="5.4734958"><ele>752.0</ele><time>2026-04-10T09:23:55.865Z</time></trkpt><trkpt lat="44.1895718" lon="5.4736041"><ele>752.0</ele><time>2026-04-10T09:23:56.868Z</time></trkpt><trkpt lat="44.1894248" lon="5.473715"><ele>752.0</ele><time>2026-04-10T09:23:57.864Z</time></trkpt><trkpt lat="44.1892673" lon="5.4738003"><ele>752.0</ele><time>2026-04-10T09:23:58.868Z</time></trkpt><trkpt lat="44.1891085" lon="5.4738689"><ele>748.0</ele><time>2026-04-10T09:23:59.869Z</time></trkpt><trkpt lat="44.1889731" lon="5.4739289"><ele>744.0</ele><time>2026-04-10T09:24:00.867Z</time></trkpt><trkpt lat="44.1888468" lon="5.4740226"><ele>740.0</ele><time>2026-04-10T09:24:01.865Z</time></trkpt><trkpt lat="44.1887488" lon="5.4741422"><ele>736.0</ele><time>2026-04-10T09:24:02.867Z</time></trkpt><trkpt lat="44.1886613" lon="5.4742737"><ele>736.0</ele><time>2026-04-10T09:24:03.867Z</time></trkpt><trkpt lat="44.1886444" lon="5.4745259"><ele>736.0</ele><time>2026-04-10T09:24:04.864Z</time></trkpt><trkpt lat="44.1886309" lon="5.474745"><ele>736.0</ele><time>2026-04-10T09:24:05.865Z</time></trkpt><trkpt lat="44.1886334" lon="5.4749718"><ele>736.3333333333334</ele><time>2026-04-10T09:24:06.863Z</time></trkpt><trkpt lat="44.1886483" lon="5.4751995"><ele>736.6666666666666</ele><time>2026-04-10T09:24:07.866Z</time></trkpt><trkpt lat="44.1886753" lon="5.4754285"><ele>737.0</ele><time>2026-04-10T09:24:08.867Z</time></trkpt><trkpt lat="44.1886939" lon="5.4756613"><ele>737.0</ele><time>2026-04-10T09:24:09.865Z</time></trkpt><trkpt lat="44.1886767" lon="5.4758939"><ele>737.0</ele><time>2026-04-10T09:24:10.867Z</time></trkpt><trkpt lat="44.1886621" lon="5.4761267"><ele>737.0</ele><time>2026-04-10T09:24:11.864Z</time></trkpt><trkpt lat="44.1886625" lon="5.4763579"><ele>736.3333333333333</ele><time>2026-04-10T09:24:12.862Z</time></trkpt><trkpt lat="44.1886912" lon="5.4765845"><ele>735.6666666666666</ele><time>2026-04-10T09:24:13.865Z</time></trkpt><trkpt lat="44.1887226" lon="5.4767943"><ele>735.0</ele><time>2026-04-10T09:24:14.863Z</time></trkpt><trkpt lat="44.188741" lon="5.4769779"><ele>735.0</ele><time>2026-04-10T09:24:15.871Z</time></trkpt><trkpt lat="44.1887482" lon="5.4771406"><ele>735.0</ele><time>2026-04-10T09:24:16.864Z</time></trkpt><trkpt lat="44.1887517" lon="5.4772874"><ele>735.0</ele><time>2026-04-10T09:24:17.868Z</time></trkpt><trkpt lat="44.1887504" lon="5.4774258"><ele>735.0</ele><time>2026-04-10T09:24:18.873Z</time></trkpt><trkpt lat="44.18872" lon="5.4775165"><ele>735.0</ele><time>2026-04-10T09:24:19.865Z</time></trkpt><trkpt lat="44.1886259" lon="5.4775964"><ele>735.0</ele><time>2026-04-10T09:24:21.865Z</time></trkpt><trkpt lat="44.1885411" lon="5.477544"><ele>735.0</ele><time>2026-04-10T09:24:22.866Z</time></trkpt><trkpt lat="44.1884432" lon="5.4774664"><ele>735.0</ele><time>2026-04-10T09:24:23.869Z</time></trkpt><trkpt lat="44.1883931" lon="5.4771883"><ele>735.0</ele><time>2026-04-10T09:24:24.868Z</time></trkpt><trkpt lat="44.1883786" lon="5.4769153"><ele>735.0</ele><time>2026-04-10T09:24:25.866Z</time></trkpt><trkpt lat="44.1883324" lon="5.4766711"><ele>735.0</ele><time>2026-04-10T09:24:26.864Z</time></trkpt><trkpt lat="44.1882904" lon="5.476428"><ele>735.0</ele><time>2026-04-10T09:24:27.868Z</time></trkpt><trkpt lat="44.1882447" lon="5.4761931"><ele>735.6666666666666</ele><time>2026-04-10T09:24:28.866Z</time></trkpt><trkpt lat="44.1881875" lon="5.4759507"><ele>736.3333333333333</ele><time>2026-04-10T09:24:29.866Z</time></trkpt><trkpt lat="44.188146" lon="5.4756967"><ele>737.0</ele><time>2026-04-10T09:24:30.867Z</time></trkpt><trkpt lat="44.1881185" lon="5.4754362"><ele>732.6666666666666</ele><time>2026-04-10T09:24:31.865Z</time></trkpt><trkpt lat="44.1880867" lon="5.4751729"><ele>728.3333333333334</ele><time>2026-04-10T09:24:32.881Z</time></trkpt><trkpt lat="44.1880657" lon="5.4749027"><ele>724.0</ele><time>2026-04-10T09:24:33.871Z</time></trkpt><trkpt lat="44.1880459" lon="5.4746154"><ele>722.6666666666667</ele><time>2026-04-10T09:24:34.871Z</time></trkpt><trkpt lat="44.1880282" lon="5.4743393"><ele>721.3333333333334</ele><time>2026-04-10T09:24:35.866Z</time></trkpt><trkpt lat="44.18801" lon="5.4740599"><ele>720.0</ele><time>2026-04-10T09:24:36.869Z</time></trkpt><trkpt lat="44.1879917" lon="5.47378"><ele>719.3333333333334</ele><time>2026-04-10T09:24:37.866Z</time></trkpt><trkpt lat="44.1879827" lon="5.4734958"><ele>718.6666666666667</ele><time>2026-04-10T09:24:38.868Z</time></trkpt><trkpt lat="44.1879688" lon="5.4732004"><ele>718.0</ele><time>2026-04-10T09:24:39.871Z</time></trkpt><trkpt lat="44.1879519" lon="5.4729071"><ele>717.3333333333334</ele><time>2026-04-10T09:24:40.867Z</time></trkpt><trkpt lat="44.1879345" lon="5.4726167"><ele>716.6666666666666</ele><time>2026-04-10T09:24:41.866Z</time></trkpt><trkpt lat="44.1879152" lon="5.4723227"><ele>716.0</ele><time>2026-04-10T09:24:42.868Z</time></trkpt><trkpt lat="44.1878858" lon="5.4720527"><ele>715.3333333333333</ele><time>2026-04-10T09:24:43.867Z</time></trkpt><trkpt lat="44.1878534" lon="5.4717995"><ele>714.6666666666666</ele><time>2026-04-10T09:24:44.87Z</time></trkpt><trkpt lat="44.1877827" lon="5.4715573"><ele>714.0</ele><time>2026-04-10T09:24:45.866Z</time></trkpt><trkpt lat="44.1876864" lon="5.4713228"><ele>715.3333333333334</ele><time>2026-04-10T09:24:46.865Z</time></trkpt><trkpt lat="44.187569" lon="5.4710942"><ele>716.6666666666667</ele><time>2026-04-10T09:24:47.866Z</time></trkpt><trkpt lat="44.1874635" lon="5.4708662"><ele>718.0</ele><time>2026-04-10T09:24:48.869Z</time></trkpt><trkpt lat="44.1873615" lon="5.4706424"><ele>714.6666666666667</ele><time>2026-04-10T09:24:49.866Z</time></trkpt><trkpt lat="44.187271" lon="5.4704352"><ele>711.3333333333334</ele><time>2026-04-10T09:24:50.865Z</time></trkpt><trkpt lat="44.1871779" lon="5.4702208"><ele>708.0</ele><time>2026-04-10T09:24:51.871Z</time></trkpt><trkpt lat="44.1870783" lon="5.4700227"><ele>708.0</ele><time>2026-04-10T09:24:52.867Z</time></trkpt><trkpt lat="44.1869657" lon="5.4698279"><ele>708.0</ele><time>2026-04-10T09:24:53.865Z</time></trkpt><trkpt lat="44.1868435" lon="5.4696588"><ele>708.0</ele><time>2026-04-10T09:24:54.867Z</time></trkpt><trkpt lat="44.1867185" lon="5.4694999"><ele>708.3333333333334</ele><time>2026-04-10T09:24:55.866Z</time></trkpt><trkpt lat="44.1866144" lon="5.4693325"><ele>708.6666666666667</ele><time>2026-04-10T09:24:56.871Z</time></trkpt><trkpt lat="44.1865125" lon="5.469159"><ele>709.0</ele><time>2026-04-10T09:24:57.867Z</time></trkpt><trkpt lat="44.1864899" lon="5.4689199"><ele>706.3333333333334</ele><time>2026-04-10T09:24:58.873Z</time></trkpt><trkpt lat="44.1864634" lon="5.4686827"><ele>703.6666666666666</ele><time>2026-04-10T09:24:59.869Z</time></trkpt><trkpt lat="44.1864363" lon="5.4684444"><ele>701.0</ele><time>2026-04-10T09:25:00.87Z</time></trkpt><trkpt lat="44.1864149" lon="5.468184"><ele>698.3333333333333</ele><time>2026-04-10T09:25:01.867Z</time></trkpt><trkpt lat="44.186399" lon="5.4679156"><ele>695.6666666666666</ele><time>2026-04-10T09:25:02.866Z</time></trkpt><trkpt lat="44.1863823" lon="5.4676455"><ele>693.0</ele><time>2026-04-10T09:25:03.862Z</time></trkpt><trkpt lat="44.1863858" lon="5.4673715"><ele>691.3333333333334</ele><time>2026-04-10T09:25:04.865Z</time></trkpt><trkpt lat="44.1864043" lon="5.4671036"><ele>689.6666666666667</ele><time>2026-04-10T09:25:05.865Z</time></trkpt><trkpt lat="44.186456" lon="5.4668409"><ele>688.0</ele><time>2026-04-10T09:25:06.871Z</time></trkpt><trkpt lat="44.186512" lon="5.4665837"><ele>691.3333333333334</ele><time>2026-04-10T09:25:07.87Z</time></trkpt><trkpt lat="44.186593" lon="5.4663527"><ele>694.6666666666666</ele><time>2026-04-10T09:25:08.869Z</time></trkpt><trkpt lat="44.1866591" lon="5.4661176"><ele>698.0</ele><time>2026-04-10T09:25:09.869Z</time></trkpt><trkpt lat="44.1867096" lon="5.4659007"><ele>698.0</ele><time>2026-04-10T09:25:10.865Z</time></trkpt><trkpt lat="44.186746" lon="5.4656724"><ele>698.0</ele><time>2026-04-10T09:25:11.869Z</time></trkpt><trkpt lat="44.1867883" lon="5.4654371"><ele>698.0</ele><time>2026-04-10T09:25:12.872Z</time></trkpt><trkpt lat="44.1868883" lon="5.4652836"><ele>697.0</ele><time>2026-04-10T09:25:13.866Z</time></trkpt><trkpt lat="44.1869636" lon="5.4651298"><ele>696.0</ele><time>2026-04-10T09:25:14.868Z</time></trkpt><trkpt lat="44.1870459" lon="5.464963"><ele>695.0</ele><time>2026-04-10T09:25:15.867Z</time></trkpt><trkpt lat="44.1870284" lon="5.4647674"><ele>694.0</ele><time>2026-04-10T09:25:16.869Z</time></trkpt><trkpt lat="44.1870148" lon="5.4645611"><ele>692.6666666666667</ele><time>2026-04-10T09:25:17.865Z</time></trkpt><trkpt lat="44.1869861" lon="5.4643457"><ele>691.3333333333334</ele><time>2026-04-10T09:25:18.869Z</time></trkpt><trkpt lat="44.1869501" lon="5.4641136"><ele>690.0</ele><time>2026-04-10T09:25:19.868Z</time></trkpt><trkpt lat="44.1868974" lon="5.4638845"><ele>690.0</ele><time>2026-04-10T09:25:20.865Z</time></trkpt><trkpt lat="44.1868498" lon="5.4636564"><ele>690.0</ele><time>2026-04-10T09:25:21.871Z</time></trkpt><trkpt lat="44.1868066" lon="5.4634127"><ele>690.0</ele><time>2026-04-10T09:25:22.864Z</time></trkpt><trkpt lat="44.1867807" lon="5.463152"><ele>690.3333333333334</ele><time>2026-04-10T09:25:23.864Z</time></trkpt><trkpt lat="44.1867369" lon="5.4628877"><ele>690.6666666666667</ele><time>2026-04-10T09:25:24.868Z</time></trkpt><trkpt lat="44.1866979" lon="5.462631"><ele>691.0</ele><time>2026-04-10T09:25:25.865Z</time></trkpt><trkpt lat="44.1866642" lon="5.4623939"><ele>691.0</ele><time>2026-04-10T09:25:26.867Z</time></trkpt><trkpt lat="44.1866301" lon="5.4621522"><ele>691.0</ele><time>2026-04-10T09:25:27.867Z</time></trkpt><trkpt lat="44.1866054" lon="5.4619175"><ele>691.0</ele><time>2026-04-10T09:25:28.867Z</time></trkpt><trkpt lat="44.1865642" lon="5.4616853"><ele>691.3333333333334</ele><time>2026-04-10T09:25:29.865Z</time></trkpt><trkpt lat="44.1865234" lon="5.4614605"><ele>691.6666666666666</ele><time>2026-04-10T09:25:30.866Z</time></trkpt><trkpt lat="44.1864863" lon="5.4612116"><ele>692.0</ele><time>2026-04-10T09:25:31.868Z</time></trkpt><trkpt lat="44.1864164" lon="5.4609776"><ele>687.6666666666666</ele><time>2026-04-10T09:25:32.863Z</time></trkpt><trkpt lat="44.1863518" lon="5.4607462"><ele>683.3333333333334</ele><time>2026-04-10T09:25:33.866Z</time></trkpt><trkpt lat="44.1862387" lon="5.4605465"><ele>679.0</ele><time>2026-04-10T09:25:34.866Z</time></trkpt><trkpt lat="44.1861127" lon="5.4603667"><ele>679.0</ele><time>2026-04-10T09:25:35.865Z</time></trkpt><trkpt lat="44.1859713" lon="5.4602184"><ele>679.0</ele><time>2026-04-10T09:25:36.871Z</time></trkpt><trkpt lat="44.1858073" lon="5.4600688"><ele>679.0</ele><time>2026-04-10T09:25:37.876Z</time></trkpt><trkpt lat="44.1856509" lon="5.4599057"><ele>676.0</ele><time>2026-04-10T09:25:38.878Z</time></trkpt><trkpt lat="44.1855091" lon="5.4597066"><ele>673.0</ele><time>2026-04-10T09:25:39.865Z</time></trkpt><trkpt lat="44.1853789" lon="5.4595037"><ele>670.0</ele><time>2026-04-10T09:25:40.864Z</time></trkpt><trkpt lat="44.1852585" lon="5.4592982"><ele>670.0</ele><time>2026-04-10T09:25:41.872Z</time></trkpt><trkpt lat="44.1852034" lon="5.4590407"><ele>670.0</ele><time>2026-04-10T09:25:42.866Z</time></trkpt><trkpt lat="44.1851587" lon="5.4587968"><ele>670.0</ele><time>2026-04-10T09:25:43.865Z</time></trkpt><trkpt lat="44.1851467" lon="5.4585345"><ele>669.6666666666667</ele><time>2026-04-10T09:25:44.868Z</time></trkpt><trkpt lat="44.1851547" lon="5.4582664"><ele>669.3333333333334</ele><time>2026-04-10T09:25:45.869Z</time></trkpt><trkpt lat="44.1851877" lon="5.4580084"><ele>669.0</ele><time>2026-04-10T09:25:46.866Z</time></trkpt><trkpt lat="44.1852149" lon="5.4577568"><ele>667.0</ele><time>2026-04-10T09:25:47.866Z</time></trkpt><trkpt lat="44.1852844" lon="5.4575103"><ele>665.0</ele><time>2026-04-10T09:25:48.873Z</time></trkpt><trkpt lat="44.1853662" lon="5.4572684"><ele>663.0</ele><time>2026-04-10T09:25:49.866Z</time></trkpt><trkpt lat="44.1854771" lon="5.4570876"><ele>663.0</ele><time>2026-04-10T09:25:50.869Z</time></trkpt><trkpt lat="44.1856075" lon="5.4569268"><ele>663.0</ele><time>2026-04-10T09:25:51.867Z</time></trkpt><trkpt lat="44.1857253" lon="5.4567759"><ele>663.0</ele><time>2026-04-10T09:25:52.873Z</time></trkpt><trkpt lat="44.185835" lon="5.4566588"><ele>663.0</ele><time>2026-04-10T09:25:53.867Z</time></trkpt><trkpt lat="44.1860023" lon="5.4566246"><ele>663.0</ele><time>2026-04-10T09:25:54.868Z</time></trkpt><trkpt lat="44.1861097" lon="5.4565414"><ele>663.0</ele><time>2026-04-10T09:25:55.873Z</time></trkpt><trkpt lat="44.1861492" lon="5.4564077"><ele>663.0</ele><time>2026-04-10T09:25:56.872Z</time></trkpt><trkpt lat="44.1861583" lon="5.4562668"><ele>663.1666666666666</ele><time>2026-04-10T09:25:57.865Z</time></trkpt><trkpt lat="44.1861371" lon="5.4561291"><ele>663.3333333333334</ele><time>2026-04-10T09:25:58.866Z</time></trkpt><trkpt lat="44.1861121" lon="5.4560093"><ele>663.5</ele><time>2026-04-10T09:25:59.869Z</time></trkpt><trkpt lat="44.1860781" lon="5.4559232"><ele>663.6666666666667</ele><time>2026-04-10T09:26:00.866Z</time></trkpt><trkpt lat="44.1860281" lon="5.4558449"><ele>663.8333333333334</ele><time>2026-04-10T09:26:02.868Z</time></trkpt><trkpt lat="44.1859765" lon="5.4557793"><ele>664.0</ele><time>2026-04-10T09:26:12.869Z</time></trkpt><trkpt lat="44.186024" lon="5.4557005"><ele>664.0</ele><time>2026-04-10T09:26:15.866Z</time></trkpt><trkpt lat="44.1861084" lon="5.4557038"><ele>664.0</ele><time>2026-04-10T09:26:16.865Z</time></trkpt><trkpt lat="44.1861952" lon="5.455687"><ele>664.0</ele><time>2026-04-10T09:26:18.865Z</time></trkpt><trkpt lat="44.1863682" lon="5.4555568"><ele>664.0</ele><time>2026-04-10T09:27:41.864Z</time></trkpt><trkpt lat="44.1864254" lon="5.4555002"><ele>664.0</ele><time>2026-04-10T09:27:42.866Z</time></trkpt><trkpt lat="44.1865068" lon="5.4553806"><ele>666.8333333333334</ele><time>2026-04-10T09:27:44.865Z</time></trkpt><trkpt lat="44.1865534" lon="5.4553072"><ele>669.6666666666667</ele><time>2026-04-10T09:27:45.87Z</time></trkpt><trkpt lat="44.1866143" lon="5.4552544"><ele>672.5</ele><time>2026-04-10T09:27:46.867Z</time></trkpt><trkpt lat="44.1866871" lon="5.4552235"><ele>675.3333333333334</ele><time>2026-04-10T09:27:47.868Z</time></trkpt><trkpt lat="44.1867618" lon="5.4552004"><ele>678.1666666666666</ele><time>2026-04-10T09:27:48.866Z</time></trkpt><trkpt lat="44.186844" lon="5.4552262"><ele>681.0</ele><time>2026-04-10T09:27:49.868Z</time></trkpt><trkpt lat="44.1869243" lon="5.4552278"><ele>681.0</ele><time>2026-04-10T09:27:50.869Z</time></trkpt><trkpt lat="44.1870207" lon="5.455226"><ele>681.0</ele><time>2026-04-10T09:27:51.867Z</time></trkpt><trkpt lat="44.1871349" lon="5.4552202"><ele>681.0</ele><time>2026-04-10T09:27:52.864Z</time></trkpt><trkpt lat="44.1872657" lon="5.45521"><ele>681.0</ele><time>2026-04-10T09:27:53.866Z</time></trkpt><trkpt lat="44.1874137" lon="5.4551875"><ele>680.3333333333334</ele><time>2026-04-10T09:27:54.866Z</time></trkpt><trkpt lat="44.187571" lon="5.4551762"><ele>679.6666666666667</ele><time>2026-04-10T09:27:55.865Z</time></trkpt><trkpt lat="44.1877266" lon="5.45517"><ele>679.0</ele><time>2026-04-10T09:27:56.865Z</time></trkpt><trkpt lat="44.1878734" lon="5.4551505"><ele>679.0</ele><time>2026-04-10T09:27:57.874Z</time></trkpt><trkpt lat="44.1880256" lon="5.4551222"><ele>679.0</ele><time>2026-04-10T09:27:58.867Z</time></trkpt><trkpt lat="44.1881808" lon="5.4550845"><ele>679.0</ele><time>2026-04-10T09:27:59.867Z</time></trkpt><trkpt lat="44.1883401" lon="5.4550314"><ele>679.0</ele><time>2026-04-10T09:28:00.871Z</time></trkpt><trkpt lat="44.1884882" lon="5.4549769"><ele>679.0</ele><time>2026-04-10T09:28:01.865Z</time></trkpt><trkpt lat="44.1886354" lon="5.4549181"><ele>679.0</ele><time>2026-04-10T09:28:02.865Z</time></trkpt><trkpt lat="44.1887605" lon="5.4548723"><ele>679.0</ele><time>2026-04-10T09:28:03.868Z</time></trkpt><trkpt lat="44.1889006" lon="5.454836"><ele>679.5</ele><time>2026-04-10T09:28:04.865Z</time></trkpt><trkpt lat="44.189048" lon="5.4548378"><ele>680.0</ele><time>2026-04-10T09:28:05.867Z</time></trkpt><trkpt lat="44.1891935" lon="5.4548316"><ele>680.5</ele><time>2026-04-10T09:28:06.866Z</time></trkpt><trkpt lat="44.1893368" lon="5.4548275"><ele>681.0</ele><time>2026-04-10T09:28:07.864Z</time></trkpt><trkpt lat="44.1894712" lon="5.4548126"><ele>681.0</ele><time>2026-04-10T09:28:08.864Z</time></trkpt><trkpt lat="44.1895713" lon="5.454777"><ele>681.0</ele><time>2026-04-10T09:28:09.864Z</time></trkpt><trkpt lat="44.1896624" lon="5.4547241"><ele>681.0</ele><time>2026-04-10T09:28:10.864Z</time></trkpt><trkpt lat="44.1897487" lon="5.4546618"><ele>681.0</ele><time>2026-04-10T09:28:11.867Z</time></trkpt><trkpt lat="44.1898402" lon="5.454606"><ele>681.0</ele><time>2026-04-10T09:28:12.868Z</time></trkpt><trkpt lat="44.18992" lon="5.4545522"><ele>685.5</ele><time>2026-04-10T09:28:13.867Z</time></trkpt><trkpt lat="44.1899949" lon="5.4545655"><ele>690.0</ele><time>2026-04-10T09:28:14.868Z</time></trkpt><trkpt lat="44.1901005" lon="5.4545731"><ele>694.5</ele><time>2026-04-10T09:28:18.864Z</time></trkpt><trkpt lat="44.1901705" lon="5.454562"><ele>699.0</ele><time>2026-04-10T09:28:19.865Z</time></trkpt><trkpt lat="44.1902469" lon="5.4545545"><ele>703.5</ele><time>2026-04-10T09:28:20.866Z</time></trkpt><trkpt lat="44.1903334" lon="5.4545306"><ele>708.0</ele><time>2026-04-10T09:28:21.866Z</time></trkpt><trkpt lat="44.1904192" lon="5.4545028"><ele>708.0</ele><time>2026-04-10T09:28:22.866Z</time></trkpt><trkpt lat="44.1905094" lon="5.4544743"><ele>708.0</ele><time>2026-04-10T09:28:23.868Z</time></trkpt><trkpt lat="44.1906068" lon="5.4544388"><ele>708.0</ele><time>2026-04-10T09:28:24.864Z</time></trkpt><trkpt lat="44.1906938" lon="5.4544077"><ele>708.0</ele><time>2026-04-10T09:28:25.865Z</time></trkpt><trkpt lat="44.1907746" lon="5.4543682"><ele>708.0</ele><time>2026-04-10T09:28:26.869Z</time></trkpt><trkpt lat="44.1908482" lon="5.4543224"><ele>708.0</ele><time>2026-04-10T09:28:27.866Z</time></trkpt><trkpt lat="44.1909221" lon="5.4542827"><ele>707.2</ele><time>2026-04-10T09:28:28.869Z</time></trkpt><trkpt lat="44.1909947" lon="5.4542465"><ele>706.4</ele><time>2026-04-10T09:28:29.864Z</time></trkpt><trkpt lat="44.1910944" lon="5.4542346"><ele>705.6</ele><time>2026-04-10T09:28:30.868Z</time></trkpt><trkpt lat="44.1911902" lon="5.4542276"><ele>704.8000000000001</ele><time>2026-04-10T09:28:31.867Z</time></trkpt><trkpt lat="44.1912838" lon="5.4542079"><ele>704.0</ele><time>2026-04-10T09:28:32.865Z</time></trkpt><trkpt lat="44.1913658" lon="5.4541454"><ele>704.0</ele><time>2026-04-10T09:28:33.864Z</time></trkpt><trkpt lat="44.1914407" lon="5.4540643"><ele>704.0</ele><time>2026-04-10T09:28:34.864Z</time></trkpt><trkpt lat="44.1915153" lon="5.4539801"><ele>704.0</ele><time>2026-04-10T09:28:35.863Z</time></trkpt><trkpt lat="44.1915912" lon="5.4538971"><ele>704.0</ele><time>2026-04-10T09:28:36.864Z</time></trkpt><trkpt lat="44.1916607" lon="5.4538132"><ele>704.0</ele><time>2026-04-10T09:28:37.863Z</time></trkpt><trkpt lat="44.1917252" lon="5.4537233"><ele>706.0</ele><time>2026-04-10T09:28:38.864Z</time></trkpt><trkpt lat="44.1917691" lon="5.4536086"><ele>708.0</ele><time>2026-04-10T09:28:39.866Z</time></trkpt><trkpt lat="44.1918039" lon="5.4535039"><ele>710.0</ele><time>2026-04-10T09:28:40.866Z</time></trkpt><trkpt lat="44.1918441" lon="5.4534063"><ele>712.0</ele><time>2026-04-10T09:28:41.866Z</time></trkpt><trkpt lat="44.1918721" lon="5.4533167"><ele>714.0</ele><time>2026-04-10T09:28:42.865Z</time></trkpt><trkpt lat="44.1918962" lon="5.4532088"><ele>716.0</ele><time>2026-04-10T09:28:43.866Z</time></trkpt><trkpt lat="44.1919473" lon="5.4531514"><ele>716.0</ele><time>2026-04-10T09:28:44.868Z</time></trkpt><trkpt lat="44.1920434" lon="5.4532391"><ele>716.0</ele><time>2026-04-10T09:28:46.865Z</time></trkpt><trkpt lat="44.1920587" lon="5.4533561"><ele>716.0</ele><time>2026-04-10T09:28:48.865Z</time></trkpt><trkpt lat="44.1920407" lon="5.4535187"><ele>716.0</ele><time>2026-04-10T09:28:50.865Z</time></trkpt><trkpt lat="44.1920869" lon="5.4535932"><ele>716.0</ele><time>2026-04-10T09:28:51.866Z</time></trkpt><trkpt lat="44.1921639" lon="5.4536099"><ele>716.0</ele><time>2026-04-10T09:28:53.862Z</time></trkpt><trkpt lat="44.1922245" lon="5.4535496"><ele>716.0</ele><time>2026-04-10T09:28:55.866Z</time></trkpt><trkpt lat="44.1922468" lon="5.4534646"><ele>716.0</ele><time>2026-04-10T09:29:28.868Z</time></trkpt><trkpt lat="44.1922799" lon="5.4533807"><ele>716.0</ele><time>2026-04-10T09:29:29.865Z</time></trkpt><trkpt lat="44.1923423" lon="5.4532336"><ele>716.0</ele><time>2026-04-10T09:29:31.868Z</time></trkpt><trkpt lat="44.1924123" lon="5.4530855"><ele>716.3333333333333</ele><time>2026-04-10T09:29:33.866Z</time></trkpt><trkpt lat="44.1924463" lon="5.453008"><ele>716.6666666666666</ele><time>2026-04-10T09:29:34.861Z</time></trkpt><trkpt lat="44.1924876" lon="5.4529233"><ele>717.0</ele><time>2026-04-10T09:29:35.865Z</time></trkpt><trkpt lat="44.1925295" lon="5.4528305"><ele>717.3333333333334</ele><time>2026-04-10T09:29:36.863Z</time></trkpt><trkpt lat="44.1925801" lon="5.4527189"><ele>717.6666666666667</ele><time>2026-04-10T09:29:37.863Z</time></trkpt><trkpt lat="44.1926444" lon="5.4526146"><ele>718.0</ele><time>2026-04-10T09:29:38.864Z</time></trkpt><trkpt lat="44.1926994" lon="5.4524916"><ele>718.0</ele><time>2026-04-10T09:29:39.865Z</time></trkpt><trkpt lat="44.1927635" lon="5.4523747"><ele>718.0</ele><time>2026-04-10T09:29:40.864Z</time></trkpt><trkpt lat="44.1928391" lon="5.45225"><ele>718.0</ele><time>2026-04-10T09:29:41.862Z</time></trkpt><trkpt lat="44.1929" lon="5.4521196"><ele>718.0</ele><time>2026-04-10T09:29:42.865Z</time></trkpt><trkpt lat="44.192966" lon="5.4519963"><ele>718.0</ele><time>2026-04-10T09:29:43.865Z</time></trkpt><trkpt lat="44.1930457" lon="5.451884"><ele>719.8</ele><time>2026-04-10T09:29:44.869Z</time></trkpt><trkpt lat="44.1931209" lon="5.451764"><ele>721.5999999999999</ele><time>2026-04-10T09:29:45.865Z</time></trkpt><trkpt lat="44.1932053" lon="5.4516561"><ele>723.4000000000001</ele><time>2026-04-10T09:29:46.869Z</time></trkpt><trkpt lat="44.1932826" lon="5.4515509"><ele>725.2</ele><time>2026-04-10T09:29:47.867Z</time></trkpt><trkpt lat="44.1933362" lon="5.4514466"><ele>727.0</ele><time>2026-04-10T09:29:48.866Z</time></trkpt><trkpt lat="44.193385" lon="5.4513303"><ele>728.4000000000001</ele><time>2026-04-10T09:29:49.867Z</time></trkpt><trkpt lat="44.1934294" lon="5.4512027"><ele>729.8000000000001</ele><time>2026-04-10T09:29:50.869Z</time></trkpt><trkpt lat="44.1934702" lon="5.4510596"><ele>731.2</ele><time>2026-04-10T09:29:51.869Z</time></trkpt><trkpt lat="44.193528" lon="5.450915"><ele>732.6</ele><time>2026-04-10T09:29:52.87Z</time></trkpt><trkpt lat="44.1935934" lon="5.4507778"><ele>734.0</ele><time>2026-04-10T09:29:53.867Z</time></trkpt><trkpt lat="44.1936782" lon="5.4506709"><ele>734.0</ele><time>2026-04-10T09:29:54.867Z</time></trkpt><trkpt lat="44.1937476" lon="5.4505675"><ele>734.0</ele><time>2026-04-10T09:29:55.865Z</time></trkpt><trkpt lat="44.1938084" lon="5.450452"><ele>734.0</ele><time>2026-04-10T09:29:56.865Z</time></trkpt><trkpt lat="44.1938812" lon="5.4503345"><ele>734.0</ele><time>2026-04-10T09:29:57.866Z</time></trkpt><trkpt lat="44.1939415" lon="5.4502163"><ele>734.0</ele><time>2026-04-10T09:29:58.866Z</time></trkpt><trkpt lat="44.1940108" lon="5.4500852"><ele>734.8000000000001</ele><time>2026-04-10T09:29:59.866Z</time></trkpt><trkpt lat="44.1940736" lon="5.4499657"><ele>735.6</ele><time>2026-04-10T09:30:00.869Z</time></trkpt><trkpt lat="44.1941401" lon="5.4498567"><ele>736.4</ele><time>2026-04-10T09:30:01.869Z</time></trkpt><trkpt lat="44.1941984" lon="5.4497456"><ele>737.2</ele><time>2026-04-10T09:30:02.867Z</time></trkpt><trkpt lat="44.1942423" lon="5.4496126"><ele>738.0</ele><time>2026-04-10T09:30:03.863Z</time></trkpt><trkpt lat="44.1942999" lon="5.4494543"><ele>739.5</ele><time>2026-04-10T09:30:04.866Z</time></trkpt><trkpt lat="44.1943526" lon="5.4492959"><ele>741.0</ele><time>2026-04-10T09:30:05.863Z</time></trkpt><trkpt lat="44.1944216" lon="5.4491581"><ele>742.5</ele><time>2026-04-10T09:30:06.862Z</time></trkpt><trkpt lat="44.1945072" lon="5.4490298"><ele>744.0</ele><time>2026-04-10T09:30:07.863Z</time></trkpt><trkpt lat="44.1945918" lon="5.4489148"><ele>744.0</ele><time>2026-04-10T09:30:08.867Z</time></trkpt><trkpt lat="44.1946834" lon="5.4488099"><ele>744.0</ele><time>2026-04-10T09:30:09.864Z</time></trkpt><trkpt lat="44.1947844" lon="5.4487498"><ele>744.0</ele><time>2026-04-10T09:30:10.865Z</time></trkpt><trkpt lat="44.1948909" lon="5.4487124"><ele>744.0</ele><time>2026-04-10T09:30:11.864Z</time></trkpt><trkpt lat="44.1950136" lon="5.4487108"><ele>745.75</ele><time>2026-04-10T09:30:12.868Z</time></trkpt><trkpt lat="44.1951516" lon="5.4487126"><ele>747.5</ele><time>2026-04-10T09:30:13.861Z</time></trkpt><trkpt lat="44.1952694" lon="5.4486977"><ele>749.25</ele><time>2026-04-10T09:30:14.862Z</time></trkpt><trkpt lat="44.1953826" lon="5.4486603"><ele>751.0</ele><time>2026-04-10T09:30:15.865Z</time></trkpt><trkpt lat="44.1954858" lon="5.4486251"><ele>751.0</ele><time>2026-04-10T09:30:16.863Z</time></trkpt><trkpt lat="44.1955911" lon="5.4485634"><ele>751.0</ele><time>2026-04-10T09:30:17.865Z</time></trkpt><trkpt lat="44.1956825" lon="5.4484785"><ele>751.0</ele><time>2026-04-10T09:30:18.864Z</time></trkpt><trkpt lat="44.1957705" lon="5.4483806"><ele>751.0</ele><time>2026-04-10T09:30:19.863Z</time></trkpt><trkpt lat="44.1958514" lon="5.4482742"><ele>751.0</ele><time>2026-04-10T09:30:20.866Z</time></trkpt><trkpt lat="44.1959317" lon="5.448164"><ele>751.1999999999999</ele><time>2026-04-10T09:30:21.866Z</time></trkpt><trkpt lat="44.1960128" lon="5.4480557"><ele>751.4</ele><time>2026-04-10T09:30:22.865Z</time></trkpt><trkpt lat="44.1960894" lon="5.4479463"><ele>751.6</ele><time>2026-04-10T09:30:23.869Z</time></trkpt><trkpt lat="44.1961756" lon="5.4478536"><ele>751.8</ele><time>2026-04-10T09:30:24.866Z</time></trkpt><trkpt lat="44.1962777" lon="5.4477691"><ele>752.0</ele><time>2026-04-10T09:30:25.864Z</time></trkpt><trkpt lat="44.196373" lon="5.4476874"><ele>752.8</ele><time>2026-04-10T09:30:26.866Z</time></trkpt><trkpt lat="44.1964788" lon="5.447608"><ele>753.6</ele><time>2026-04-10T09:30:27.867Z</time></trkpt><trkpt lat="44.19657" lon="5.4475277"><ele>754.4</ele><time>2026-04-10T09:30:28.865Z</time></trkpt><trkpt lat="44.1966568" lon="5.4474665"><ele>755.1999999999999</ele><time>2026-04-10T09:30:29.866Z</time></trkpt><trkpt lat="44.1967405" lon="5.4473983"><ele>756.0</ele><time>2026-04-10T09:30:30.867Z</time></trkpt><trkpt lat="44.1968297" lon="5.447327"><ele>756.8</ele><time>2026-04-10T09:30:31.865Z</time></trkpt><trkpt lat="44.1969166" lon="5.4472658"><ele>757.5999999999999</ele><time>2026-04-10T09:30:32.869Z</time></trkpt><trkpt lat="44.1970085" lon="5.4472058"><ele>758.4</ele><time>2026-04-10T09:30:33.869Z</time></trkpt><trkpt lat="44.1971048" lon="5.4471456"><ele>759.2</ele><time>2026-04-10T09:30:34.867Z</time></trkpt><trkpt lat="44.1972038" lon="5.447095"><ele>760.0</ele><time>2026-04-10T09:30:35.868Z</time></trkpt><trkpt lat="44.1973018" lon="5.447057"><ele>762.75</ele><time>2026-04-10T09:30:36.863Z</time></trkpt><trkpt lat="44.1974231" lon="5.44704"><ele>765.5</ele><time>2026-04-10T09:30:37.864Z</time></trkpt><trkpt lat="44.1975451" lon="5.4470314"><ele>768.25</ele><time>2026-04-10T09:30:38.863Z</time></trkpt><trkpt lat="44.1976581" lon="5.4470192"><ele>771.0</ele><time>2026-04-10T09:30:39.864Z</time></trkpt><trkpt lat="44.1977656" lon="5.4469976"><ele>771.0</ele><time>2026-04-10T09:30:40.868Z</time></trkpt><trkpt lat="44.197873" lon="5.4469521"><ele>771.0</ele><time>2026-04-10T09:30:41.868Z</time></trkpt><trkpt lat="44.1979723" lon="5.4469008"><ele>771.0</ele><time>2026-04-10T09:30:42.865Z</time></trkpt><trkpt lat="44.1980581" lon="5.4468623"><ele>771.0</ele><time>2026-04-10T09:30:43.866Z</time></trkpt><trkpt lat="44.1981452" lon="5.4468423"><ele>771.0</ele><time>2026-04-10T09:30:44.865Z</time></trkpt><trkpt lat="44.1982174" lon="5.4468322"><ele>773.8333333333334</ele><time>2026-04-10T09:30:45.87Z</time></trkpt><trkpt lat="44.1982879" lon="5.4467955"><ele>776.6666666666667</ele><time>2026-04-10T09:30:46.869Z</time></trkpt><trkpt lat="44.1983516" lon="5.4467319"><ele>779.5</ele><time>2026-04-10T09:30:47.862Z</time></trkpt><trkpt lat="44.198413" lon="5.4466546"><ele>782.3333333333334</ele><time>2026-04-10T09:30:48.865Z</time></trkpt><trkpt lat="44.1984628" lon="5.446562"><ele>785.1666666666667</ele><time>2026-04-10T09:30:49.864Z</time></trkpt><trkpt lat="44.1984999" lon="5.4464596"><ele>788.0</ele><time>2026-04-10T09:30:50.867Z</time></trkpt><trkpt lat="44.1985282" lon="5.4463569"><ele>789.3333333333334</ele><time>2026-04-10T09:30:51.867Z</time></trkpt><trkpt lat="44.1985563" lon="5.4462394"><ele>790.6666666666667</ele><time>2026-04-10T09:30:52.866Z</time></trkpt><trkpt lat="44.1985758" lon="5.4461086"><ele>792.0</ele><time>2026-04-10T09:30:53.864Z</time></trkpt><trkpt lat="44.1985985" lon="5.4459852"><ele>793.3333333333333</ele><time>2026-04-10T09:30:54.875Z</time></trkpt><trkpt lat="44.1986277" lon="5.4458746"><ele>794.6666666666666</ele><time>2026-04-10T09:30:55.871Z</time></trkpt><trkpt lat="44.1986786" lon="5.4457847"><ele>796.0</ele><time>2026-04-10T09:30:56.872Z</time></trkpt><trkpt lat="44.1987296" lon="5.4456958"><ele>795.9999999999999</ele><time>2026-04-10T09:30:57.866Z</time></trkpt><trkpt lat="44.1987617" lon="5.4455945"><ele>796.0</ele><time>2026-04-10T09:30:58.868Z</time></trkpt><trkpt lat="44.1987683" lon="5.4454829"><ele>796.0</ele><time>2026-04-10T09:30:59.869Z</time></trkpt><trkpt lat="44.1987638" lon="5.445368"><ele>796.0</ele><time>2026-04-10T09:31:00.873Z</time></trkpt><trkpt lat="44.1987412" lon="5.4452664"><ele>795.9999999999999</ele><time>2026-04-10T09:31:01.868Z</time></trkpt><trkpt lat="44.1987136" lon="5.4451729"><ele>796.0</ele><time>2026-04-10T09:31:02.866Z</time></trkpt><trkpt lat="44.1986983" lon="5.4450807"><ele>796.4999999999999</ele><time>2026-04-10T09:31:03.865Z</time></trkpt><trkpt lat="44.1986935" lon="5.4449863"><ele>797.0</ele><time>2026-04-10T09:31:04.866Z</time></trkpt><trkpt lat="44.1987116" lon="5.4448752"><ele>797.5</ele><time>2026-04-10T09:31:05.868Z</time></trkpt><trkpt lat="44.1987394" lon="5.4447727"><ele>798.0</ele><time>2026-04-10T09:31:06.865Z</time></trkpt><trkpt lat="44.1987686" lon="5.444657"><ele>798.4999999999999</ele><time>2026-04-10T09:31:07.864Z</time></trkpt><trkpt lat="44.1987953" lon="5.4445475"><ele>799.0</ele><time>2026-04-10T09:31:08.863Z</time></trkpt><trkpt lat="44.1988304" lon="5.4444503"><ele>799.8000000000001</ele><time>2026-04-10T09:31:09.863Z</time></trkpt><trkpt lat="44.198876" lon="5.4443631"><ele>800.6</ele><time>2026-04-10T09:31:10.863Z</time></trkpt><trkpt lat="44.1989302" lon="5.444284"><ele>801.4</ele><time>2026-04-10T09:31:11.864Z</time></trkpt><trkpt lat="44.1990003" lon="5.4441887"><ele>802.2</ele><time>2026-04-10T09:31:13.862Z</time></trkpt><trkpt lat="44.1990956" lon="5.4442777"><ele>803.0</ele><time>2026-04-10T09:31:15.87Z</time></trkpt><trkpt lat="44.1991473" lon="5.4443781"><ele>804.5000000000001</ele><time>2026-04-10T09:31:16.862Z</time></trkpt><trkpt lat="44.1991959" lon="5.4444482"><ele>806.0</ele><time>2026-04-10T09:31:17.863Z</time></trkpt><trkpt lat="44.1992651" lon="5.4444605"><ele>807.5</ele><time>2026-04-10T09:31:18.866Z</time></trkpt><trkpt lat="44.1993429" lon="5.4444492"><ele>809.0</ele><time>2026-04-10T09:31:19.866Z</time></trkpt><trkpt lat="44.1994223" lon="5.444424"><ele>810.5000000000001</ele><time>2026-04-10T09:31:20.867Z</time></trkpt><trkpt lat="44.1994992" lon="5.4443956"><ele>812.0</ele><time>2026-04-10T09:31:21.867Z</time></trkpt><trkpt lat="44.1995793" lon="5.444377"><ele>812.0000000000001</ele><time>2026-04-10T09:31:22.866Z</time></trkpt><trkpt lat="44.1996477" lon="5.4443575"><ele>812.0</ele><time>2026-04-10T09:31:23.863Z</time></trkpt><trkpt lat="44.1997154" lon="5.4443166"><ele>812.0</ele><time>2026-04-10T09:31:24.867Z</time></trkpt><trkpt lat="44.1997744" lon="5.4442481"><ele>812.0</ele><time>2026-04-10T09:31:25.865Z</time></trkpt><trkpt lat="44.1998388" lon="5.4441745"><ele>812.0000000000001</ele><time>2026-04-10T09:31:26.866Z</time></trkpt><trkpt lat="44.1999076" lon="5.4440959"><ele>812.0</ele><time>2026-04-10T09:31:27.866Z</time></trkpt><trkpt lat="44.1999855" lon="5.4440031"><ele>813.6666666666667</ele><time>2026-04-10T09:31:28.862Z</time></trkpt><trkpt lat="44.2000492" lon="5.4439012"><ele>815.3333333333334</ele><time>2026-04-10T09:31:29.869Z</time></trkpt><trkpt lat="44.2001203" lon="5.4438185"><ele>817.0</ele><time>2026-04-10T09:31:30.868Z</time></trkpt><trkpt lat="44.200191" lon="5.4437476"><ele>818.6666666666667</ele><time>2026-04-10T09:31:31.867Z</time></trkpt><trkpt lat="44.2002659" lon="5.443689"><ele>820.3333333333334</ele><time>2026-04-10T09:31:32.866Z</time></trkpt><trkpt lat="44.200342" lon="5.4436471"><ele>822.0</ele><time>2026-04-10T09:31:33.865Z</time></trkpt><trkpt lat="44.2004068" lon="5.4436126"><ele>823.6666666666666</ele><time>2026-04-10T09:31:34.872Z</time></trkpt><trkpt lat="44.2004747" lon="5.4435999"><ele>825.3333333333333</ele><time>2026-04-10T09:31:35.874Z</time></trkpt><trkpt lat="44.2005409" lon="5.4435941"><ele>827.0</ele><time>2026-04-10T09:31:36.872Z</time></trkpt><trkpt lat="44.2006091" lon="5.4435825"><ele>828.6666666666666</ele><time>2026-04-10T09:31:38.867Z</time></trkpt><trkpt lat="44.2007042" lon="5.4436184"><ele>830.3333333333333</ele><time>2026-04-10T09:32:15.867Z</time></trkpt><trkpt lat="44.2007857" lon="5.4437215"><ele>832.0</ele><time>2026-04-10T09:32:16.865Z</time></trkpt><trkpt lat="44.2008517" lon="5.4437738"><ele>831.9999999999999</ele><time>2026-04-10T09:32:17.864Z</time></trkpt><trkpt lat="44.2009257" lon="5.4437867"><ele>832.0</ele><time>2026-04-10T09:32:18.864Z</time></trkpt><trkpt lat="44.2010101" lon="5.4437679"><ele>832.0</ele><time>2026-04-10T09:32:19.863Z</time></trkpt><trkpt lat="44.2011021" lon="5.4437408"><ele>832.0</ele><time>2026-04-10T09:32:20.865Z</time></trkpt><trkpt lat="44.2011879" lon="5.4437092"><ele>831.9999999999999</ele><time>2026-04-10T09:32:21.861Z</time></trkpt><trkpt lat="44.2012854" lon="5.4436839"><ele>832.0</ele><time>2026-04-10T09:32:22.869Z</time></trkpt><trkpt lat="44.2013952" lon="5.4436598"><ele>833.5</ele><time>2026-04-10T09:32:23.865Z</time></trkpt><trkpt lat="44.2015266" lon="5.4436406"><ele>835.0</ele><time>2026-04-10T09:32:24.865Z</time></trkpt><trkpt lat="44.2016525" lon="5.4436175"><ele>836.5</ele><time>2026-04-10T09:32:25.87Z</time></trkpt><trkpt lat="44.2017472" lon="5.4435704"><ele>838.0</ele><time>2026-04-10T09:32:26.861Z</time></trkpt><trkpt lat="44.2018134" lon="5.4434602"><ele>838.0</ele><time>2026-04-10T09:32:28.864Z</time></trkpt><trkpt lat="44.2018878" lon="5.4433139"><ele>838.0</ele><time>2026-04-10T09:32:30.866Z</time></trkpt><trkpt lat="44.2019093" lon="5.4431963"><ele>838.0</ele><time>2026-04-10T09:32:31.864Z</time></trkpt><trkpt lat="44.2019338" lon="5.4430648"><ele>838.0</ele><time>2026-04-10T09:32:32.863Z</time></trkpt><trkpt lat="44.2019732" lon="5.4429351"><ele>838.0</ele><time>2026-04-10T09:32:33.869Z</time></trkpt><trkpt lat="44.2020038" lon="5.442798"><ele>838.5999999999999</ele><time>2026-04-10T09:32:34.873Z</time></trkpt><trkpt lat="44.2020241" lon="5.4426623"><ele>839.1999999999999</ele><time>2026-04-10T09:32:35.871Z</time></trkpt><trkpt lat="44.2020404" lon="5.4425184"><ele>839.8</ele><time>2026-04-10T09:32:36.866Z</time></trkpt><trkpt lat="44.2020691" lon="5.4423875"><ele>840.4</ele><time>2026-04-10T09:32:37.869Z</time></trkpt><trkpt lat="44.202104" lon="5.4422564"><ele>841.0</ele><time>2026-04-10T09:32:38.868Z</time></trkpt><trkpt lat="44.2021318" lon="5.4421339"><ele>840.9999999999999</ele><time>2026-04-10T09:32:39.869Z</time></trkpt><trkpt lat="44.202142" lon="5.4420405"><ele>841.0</ele><time>2026-04-10T09:32:40.866Z</time></trkpt><trkpt lat="44.2021007" lon="5.441944"><ele>841.0</ele><time>2026-04-10T09:32:42.866Z</time></trkpt><trkpt lat="44.2020294" lon="5.4419932"><ele>841.0</ele><time>2026-04-10T09:32:44.871Z</time></trkpt><trkpt lat="44.2019801" lon="5.4421506"><ele>840.9999999999999</ele><time>2026-04-10T09:32:46.865Z</time></trkpt><trkpt lat="44.2019267" lon="5.4422618"><ele>841.0</ele><time>2026-04-10T09:32:47.867Z</time></trkpt><trkpt lat="44.2018632" lon="5.4423631"><ele>840.9999999999999</ele><time>2026-04-10T09:32:48.869Z</time></trkpt><trkpt lat="44.2018044" lon="5.4424614"><ele>841.0</ele><time>2026-04-10T09:32:49.868Z</time></trkpt><trkpt lat="44.2017688" lon="5.4425665"><ele>841.0</ele><time>2026-04-10T09:32:50.867Z</time></trkpt><trkpt lat="44.2017645" lon="5.4426764"><ele>841.0</ele><time>2026-04-10T09:32:51.866Z</time></trkpt><trkpt lat="44.2017745" lon="5.4427902"><ele>840.9999999999999</ele><time>2026-04-10T09:32:52.866Z</time></trkpt><trkpt lat="44.2017897" lon="5.4429017"><ele>841.0</ele><time>2026-04-10T09:32:53.866Z</time></trkpt><trkpt lat="44.2017839" lon="5.443111"><ele>840.5714285714286</ele><time>2026-04-10T09:32:55.864Z</time></trkpt><trkpt lat="44.2017311" lon="5.443172"><ele>840.1428571428571</ele><time>2026-04-10T09:32:56.866Z</time></trkpt><trkpt lat="44.2016734" lon="5.4432082"><ele>839.7142857142857</ele><time>2026-04-10T09:32:57.864Z</time></trkpt><trkpt lat="44.201611" lon="5.4432279"><ele>839.2857142857142</ele><time>2026-04-10T09:32:58.87Z</time></trkpt><trkpt lat="44.2015462" lon="5.4432342"><ele>838.8571428571429</ele><time>2026-04-10T09:32:59.865Z</time></trkpt><trkpt lat="44.2014829" lon="5.4432418"><ele>838.4285714285713</ele><time>2026-04-10T09:33:00.868Z</time></trkpt><trkpt lat="44.2014214" lon="5.4432831"><ele>838.0</ele><time>2026-04-10T09:33:01.866Z</time></trkpt><trkpt lat="44.2013559" lon="5.4433524"><ele>836.9999999999999</ele><time>2026-04-10T09:33:02.86Z</time></trkpt><trkpt lat="44.2012939" lon="5.4434299"><ele>836.0</ele><time>2026-04-10T09:33:03.862Z</time></trkpt><trkpt lat="44.201246" lon="5.4434927"><ele>835.0</ele><time>2026-04-10T09:33:04.864Z</time></trkpt><trkpt lat="44.2011676" lon="5.4435407"><ele>834.0</ele><time>2026-04-10T09:33:06.865Z</time></trkpt><trkpt lat="44.2010721" lon="5.4435679"><ele>832.9999999999999</ele><time>2026-04-10T09:33:09.864Z</time></trkpt><trkpt lat="44.2010124" lon="5.4436"><ele>832.0</ele><time>2026-04-10T09:33:10.873Z</time></trkpt><trkpt lat="44.200949" lon="5.4436379"><ele>832.0</ele><time>2026-04-10T09:33:11.867Z</time></trkpt><trkpt lat="44.2008308" lon="5.4436596"><ele>832.0</ele><time>2026-04-10T09:33:13.865Z</time></trkpt><trkpt lat="44.2007125" lon="5.443615"><ele>832.0</ele><time>2026-04-10T09:33:15.869Z</time></trkpt><trkpt lat="44.2006255" lon="5.4435765"><ele>832.0</ele><time>2026-04-10T09:33:17.871Z</time></trkpt><trkpt lat="44.20058" lon="5.4435052"><ele>832.0</ele><time>2026-04-10T09:33:21.776Z</time></trkpt><trkpt lat="44.2006045" lon="5.4434211"><ele>832.0</ele><time>2026-04-10T09:33:24.865Z</time></trkpt><trkpt lat="44.2007176" lon="5.4433466"><ele>832.0</ele><time>2026-04-10T09:33:27.865Z</time></trkpt><trkpt lat="44.2008336" lon="5.4432812"><ele>832.0</ele><time>2026-04-10T09:33:29.864Z</time></trkpt><trkpt lat="44.2009462" lon="5.4432109"><ele>832.0</ele><time>2026-04-10T09:33:31.866Z</time></trkpt><trkpt lat="44.2010273" lon="5.4431608"><ele>832.0</ele><time>2026-04-10T09:33:33.865Z</time></trkpt><trkpt lat="44.2011377" lon="5.443128"><ele>832.0</ele><time>2026-04-10T09:34:26.865Z</time></trkpt><trkpt lat="44.2012331" lon="5.4430826"><ele>832.0</ele><time>2026-04-10T09:34:27.865Z</time></trkpt><trkpt lat="44.2013489" lon="5.443018"><ele>832.0</ele><time>2026-04-10T09:34:29.865Z</time></trkpt><trkpt lat="44.2014491" lon="5.4428852"><ele>833.8</ele><time>2026-04-10T09:34:31.864Z</time></trkpt><trkpt lat="44.2015046" lon="5.4427819"><ele>835.6</ele><time>2026-04-10T09:34:32.863Z</time></trkpt><trkpt lat="44.2015537" lon="5.4426783"><ele>837.4</ele><time>2026-04-10T09:34:33.863Z</time></trkpt><trkpt lat="44.2016192" lon="5.4425672"><ele>839.1999999999999</ele><time>2026-04-10T09:34:34.867Z</time></trkpt><trkpt lat="44.2016847" lon="5.4424413"><ele>841.0</ele><time>2026-04-10T09:34:35.864Z</time></trkpt><trkpt lat="44.2017707" lon="5.4423033"><ele>841.0</ele><time>2026-04-10T09:34:36.863Z</time></trkpt><trkpt lat="44.2018485" lon="5.4421642"><ele>841.0</ele><time>2026-04-10T09:34:37.863Z</time></trkpt><trkpt lat="44.2019199" lon="5.4420217"><ele>841.0</ele><time>2026-04-10T09:34:38.865Z</time></trkpt><trkpt lat="44.2019856" lon="5.4418965"><ele>841.0</ele><time>2026-04-10T09:34:39.866Z</time></trkpt><trkpt lat="44.202059" lon="5.4417796"><ele>842.5999999999999</ele><time>2026-04-10T09:34:40.863Z</time></trkpt><trkpt lat="44.2021269" lon="5.4416606"><ele>844.2</ele><time>2026-04-10T09:34:41.865Z</time></trkpt><trkpt lat="44.2021844" lon="5.441545"><ele>845.8</ele><time>2026-04-10T09:34:42.865Z</time></trkpt><trkpt lat="44.202228" lon="5.441436"><ele>847.4000000000001</ele><time>2026-04-10T09:34:43.867Z</time></trkpt><trkpt lat="44.2022757" lon="5.4413325"><ele>849.0</ele><time>2026-04-10T09:34:44.864Z</time></trkpt><trkpt lat="44.202329" lon="5.441235"><ele>850.3333333333334</ele><time>2026-04-10T09:34:45.868Z</time></trkpt><trkpt lat="44.2023904" lon="5.4411689"><ele>851.6666666666667</ele><time>2026-04-10T09:34:46.866Z</time></trkpt><trkpt lat="44.202465" lon="5.4411239"><ele>853.0</ele><time>2026-04-10T09:34:47.869Z</time></trkpt><trkpt lat="44.2025442" lon="5.441101"><ele>854.3333333333334</ele><time>2026-04-10T09:34:48.869Z</time></trkpt><trkpt lat="44.2026418" lon="5.4410843"><ele>855.6666666666667</ele><time>2026-04-10T09:34:49.864Z</time></trkpt><trkpt lat="44.2027486" lon="5.4410676"><ele>857.0</ele><time>2026-04-10T09:34:50.866Z</time></trkpt><trkpt lat="44.2028594" lon="5.4410509"><ele>857.0</ele><time>2026-04-10T09:34:51.865Z</time></trkpt><trkpt lat="44.202968" lon="5.4410118"><ele>857.0</ele><time>2026-04-10T09:34:52.872Z</time></trkpt><trkpt lat="44.2030691" lon="5.44097"><ele>857.0</ele><time>2026-04-10T09:34:53.865Z</time></trkpt><trkpt lat="44.203166" lon="5.4409305"><ele>857.0</ele><time>2026-04-10T09:34:54.87Z</time></trkpt><trkpt lat="44.2032586" lon="5.4409031"><ele>857.0</ele><time>2026-04-10T09:34:55.866Z</time></trkpt><trkpt lat="44.2033552" lon="5.4408695"><ele>858.8</ele><time>2026-04-10T09:34:56.864Z</time></trkpt><trkpt lat="44.2034578" lon="5.4408338"><ele>860.6</ele><time>2026-04-10T09:34:57.865Z</time></trkpt><trkpt lat="44.2035611" lon="5.4408041"><ele>862.3999999999999</ele><time>2026-04-10T09:34:58.864Z</time></trkpt><trkpt lat="44.2036657" lon="5.4407768"><ele>864.1999999999999</ele><time>2026-04-10T09:34:59.865Z</time></trkpt><trkpt lat="44.2037622" lon="5.4407356"><ele>866.0</ele><time>2026-04-10T09:35:00.865Z</time></trkpt><trkpt lat="44.2038428" lon="5.4406999"><ele>866.0000000000001</ele><time>2026-04-10T09:35:01.872Z</time></trkpt><trkpt lat="44.2039133" lon="5.4406742"><ele>866.0</ele><time>2026-04-10T09:35:02.864Z</time></trkpt><trkpt lat="44.2039888" lon="5.4406557"><ele>866.0</ele><time>2026-04-10T09:35:03.864Z</time></trkpt><trkpt lat="44.2040697" lon="5.4406402"><ele>866.0</ele><time>2026-04-10T09:35:04.862Z</time></trkpt><trkpt lat="44.2041526" lon="5.4406298"><ele>866.0000000000001</ele><time>2026-04-10T09:35:05.868Z</time></trkpt><trkpt lat="44.2042397" lon="5.4406299"><ele>866.0</ele><time>2026-04-10T09:35:06.867Z</time></trkpt><trkpt lat="44.2043229" lon="5.4406385"><ele>867.8333333333334</ele><time>2026-04-10T09:35:07.869Z</time></trkpt><trkpt lat="44.2044131" lon="5.4406489"><ele>869.6666666666667</ele><time>2026-04-10T09:35:08.868Z</time></trkpt><trkpt lat="44.2045057" lon="5.4406652"><ele>871.5</ele><time>2026-04-10T09:35:09.864Z</time></trkpt><trkpt lat="44.2045948" lon="5.4406899"><ele>873.3333333333333</ele><time>2026-04-10T09:35:10.867Z</time></trkpt><trkpt lat="44.2046749" lon="5.4407261"><ele>875.1666666666666</ele><time>2026-04-10T09:35:11.868Z</time></trkpt><trkpt lat="44.2047577" lon="5.4407588"><ele>877.0</ele><time>2026-04-10T09:35:12.868Z</time></trkpt><trkpt lat="44.2048324" lon="5.44078"><ele>878.3333333333333</ele><time>2026-04-10T09:35:13.866Z</time></trkpt><trkpt lat="44.2049013" lon="5.4407987"><ele>879.6666666666666</ele><time>2026-04-10T09:35:14.866Z</time></trkpt><trkpt lat="44.2049573" lon="5.440852"><ele>881.0</ele><time>2026-04-10T09:35:15.864Z</time></trkpt><trkpt lat="44.205018" lon="5.4409186"><ele>882.3333333333333</ele><time>2026-04-10T09:35:16.865Z</time></trkpt><trkpt lat="44.2050856" lon="5.4409899"><ele>883.6666666666666</ele><time>2026-04-10T09:35:17.87Z</time></trkpt><trkpt lat="44.2051665" lon="5.4410478"><ele>885.0</ele><time>2026-04-10T09:35:18.866Z</time></trkpt><trkpt lat="44.2052513" lon="5.4411185"><ele>885.0</ele><time>2026-04-10T09:35:19.86Z</time></trkpt><trkpt lat="44.2053302" lon="5.4411806"><ele>885.0</ele><time>2026-04-10T09:35:20.863Z</time></trkpt><trkpt lat="44.2053956" lon="5.4412272"><ele>885.0</ele><time>2026-04-10T09:35:21.861Z</time></trkpt><trkpt lat="44.2054618" lon="5.44129"><ele>885.0</ele><time>2026-04-10T09:35:22.863Z</time></trkpt><trkpt lat="44.2055313" lon="5.4413508"><ele>885.0</ele><time>2026-04-10T09:35:23.862Z</time></trkpt><trkpt lat="44.2056073" lon="5.4413889"><ele>885.0</ele><time>2026-04-10T09:35:24.863Z</time></trkpt><trkpt lat="44.2056788" lon="5.441455"><ele>887.8</ele><time>2026-04-10T09:35:25.863Z</time></trkpt><trkpt lat="44.2057508" lon="5.4415307"><ele>890.6</ele><time>2026-04-10T09:35:26.867Z</time></trkpt><trkpt lat="44.205821" lon="5.4416074"><ele>893.4000000000001</ele><time>2026-04-10T09:35:27.863Z</time></trkpt><trkpt lat="44.2058927" lon="5.4416786"><ele>896.2</ele><time>2026-04-10T09:35:28.867Z</time></trkpt><trkpt lat="44.2059679" lon="5.4417543"><ele>899.0</ele><time>2026-04-10T09:35:29.864Z</time></trkpt><trkpt lat="44.2060446" lon="5.4418274"><ele>899.0</ele><time>2026-04-10T09:35:30.863Z</time></trkpt><trkpt lat="44.2061095" lon="5.4418964"><ele>899.0000000000001</ele><time>2026-04-10T09:35:31.865Z</time></trkpt><trkpt lat="44.206163" lon="5.441946"><ele>899.0000000000001</ele><time>2026-04-10T09:35:32.865Z</time></trkpt><trkpt lat="44.2062919" lon="5.4419925"><ele>899.0</ele><time>2026-04-10T09:35:34.861Z</time></trkpt><trkpt lat="44.2063901" lon="5.4419944"><ele>899.0</ele><time>2026-04-10T09:35:35.864Z</time></trkpt><trkpt lat="44.206488" lon="5.4420104"><ele>901.0000000000001</ele><time>2026-04-10T09:35:36.86Z</time></trkpt><trkpt lat="44.2065736" lon="5.4420364"><ele>903.0</ele><time>2026-04-10T09:35:37.867Z</time></trkpt><trkpt lat="44.2066389" lon="5.4420824"><ele>905.0</ele><time>2026-04-10T09:35:38.861Z</time></trkpt><trkpt lat="44.2066941" lon="5.4421279"><ele>907.0</ele><time>2026-04-10T09:35:39.867Z</time></trkpt><trkpt lat="44.2068081" lon="5.4421863"><ele>909.0000000000001</ele><time>2026-04-10T09:35:41.86Z</time></trkpt><trkpt lat="44.206882" lon="5.4422231"><ele>911.0</ele><time>2026-04-10T09:35:42.864Z</time></trkpt><trkpt lat="44.2069555" lon="5.442263"><ele>911.5000000000001</ele><time>2026-04-10T09:35:43.865Z</time></trkpt><trkpt lat="44.2070293" lon="5.4423"><ele>912.0</ele><time>2026-04-10T09:35:44.863Z</time></trkpt><trkpt lat="44.2071083" lon="5.4423275"><ele>912.5</ele><time>2026-04-10T09:35:45.864Z</time></trkpt><trkpt lat="44.2071819" lon="5.4423612"><ele>913.0</ele><time>2026-04-10T09:35:46.864Z</time></trkpt><trkpt lat="44.2072471" lon="5.442413"><ele>913.5000000000001</ele><time>2026-04-10T09:35:47.864Z</time></trkpt><trkpt lat="44.207321" lon="5.4424844"><ele>914.0</ele><time>2026-04-10T09:35:48.86Z</time></trkpt><trkpt lat="44.2073975" lon="5.4425536"><ele>915.4000000000001</ele><time>2026-04-10T09:35:49.86Z</time></trkpt><trkpt lat="44.2074769" lon="5.442621"><ele>916.8000000000001</ele><time>2026-04-10T09:35:50.865Z</time></trkpt><trkpt lat="44.2075568" lon="5.4426726"><ele>918.1999999999999</ele><time>2026-04-10T09:35:51.864Z</time></trkpt><trkpt lat="44.2076446" lon="5.4427485"><ele>919.5999999999999</ele><time>2026-04-10T09:35:52.863Z</time></trkpt><trkpt lat="44.207739" lon="5.4428341"><ele>921.0</ele><time>2026-04-10T09:35:53.865Z</time></trkpt><trkpt lat="44.2078149" lon="5.442924"><ele>924.0</ele><time>2026-04-10T09:35:54.864Z</time></trkpt><trkpt lat="44.2078926" lon="5.4430009"><ele>926.9999999999999</ele><time>2026-04-10T09:35:55.862Z</time></trkpt><trkpt lat="44.2079646" lon="5.4431055"><ele>929.9999999999999</ele><time>2026-04-10T09:35:56.865Z</time></trkpt><trkpt lat="44.2080323" lon="5.4432088"><ele>933.0</ele><time>2026-04-10T09:35:57.864Z</time></trkpt><trkpt lat="44.2081044" lon="5.443301"><ele>936.0</ele><time>2026-04-10T09:35:58.862Z</time></trkpt><trkpt lat="44.2081883" lon="5.4433964"><ele>936.6666666666666</ele><time>2026-04-10T09:35:59.863Z</time></trkpt><trkpt lat="44.2082521" lon="5.4435033"><ele>937.3333333333333</ele><time>2026-04-10T09:36:00.866Z</time></trkpt><trkpt lat="44.2083128" lon="5.4436052"><ele>938.0</ele><time>2026-04-10T09:36:01.864Z</time></trkpt><trkpt lat="44.2083564" lon="5.4437027"><ele>938.6666666666666</ele><time>2026-04-10T09:36:02.868Z</time></trkpt><trkpt lat="44.208404" lon="5.4437866"><ele>939.3333333333333</ele><time>2026-04-10T09:36:03.865Z</time></trkpt><trkpt lat="44.2084426" lon="5.4438763"><ele>940.0</ele><time>2026-04-10T09:36:04.864Z</time></trkpt><trkpt lat="44.2084961" lon="5.4439694"><ele>941.4</ele><time>2026-04-10T09:36:05.865Z</time></trkpt><trkpt lat="44.2085561" lon="5.4440661"><ele>942.8</ele><time>2026-04-10T09:36:06.869Z</time></trkpt><trkpt lat="44.2086279" lon="5.4441715"><ele>944.2</ele><time>2026-04-10T09:36:07.868Z</time></trkpt><trkpt lat="44.2086913" lon="5.444275"><ele>945.6</ele><time>2026-04-10T09:36:08.864Z</time></trkpt><trkpt lat="44.2087691" lon="5.4443559"><ele>947.0</ele><time>2026-04-10T09:36:09.86Z</time></trkpt><trkpt lat="44.2088391" lon="5.4444441"><ele>947.0</ele><time>2026-04-10T09:36:10.864Z</time></trkpt><trkpt lat="44.2089038" lon="5.4445524"><ele>947.0</ele><time>2026-04-10T09:36:11.866Z</time></trkpt><trkpt lat="44.2089621" lon="5.4446668"><ele>947.0</ele><time>2026-04-10T09:36:12.861Z</time></trkpt><trkpt lat="44.2090108" lon="5.4447865"><ele>947.0</ele><time>2026-04-10T09:36:13.864Z</time></trkpt><trkpt lat="44.2090499" lon="5.4449083"><ele>947.0</ele><time>2026-04-10T09:36:14.862Z</time></trkpt><trkpt lat="44.2090725" lon="5.4450268"><ele>948.5000000000001</ele><time>2026-04-10T09:36:15.865Z</time></trkpt><trkpt lat="44.2090805" lon="5.4451365"><ele>950.0</ele><time>2026-04-10T09:36:16.865Z</time></trkpt><trkpt lat="44.209088" lon="5.4452493"><ele>951.5</ele><time>2026-04-10T09:36:17.865Z</time></trkpt><trkpt lat="44.2091044" lon="5.4453561"><ele>953.0</ele><time>2026-04-10T09:36:18.865Z</time></trkpt><trkpt lat="44.2091233" lon="5.4454648"><ele>954.5000000000001</ele><time>2026-04-10T09:36:19.865Z</time></trkpt><trkpt lat="44.2091469" lon="5.445568"><ele>956.0</ele><time>2026-04-10T09:36:20.867Z</time></trkpt><trkpt lat="44.2091697" lon="5.4456767"><ele>957.0000000000001</ele><time>2026-04-10T09:36:21.864Z</time></trkpt><trkpt lat="44.2091842" lon="5.4457886"><ele>958.0</ele><time>2026-04-10T09:36:22.863Z</time></trkpt><trkpt lat="44.2091861" lon="5.4459225"><ele>959.0</ele><time>2026-04-10T09:36:23.865Z</time></trkpt><trkpt lat="44.2091908" lon="5.446047"><ele>960.0</ele><time>2026-04-10T09:36:24.864Z</time></trkpt><trkpt lat="44.2092163" lon="5.446153"><ele>961.0000000000001</ele><time>2026-04-10T09:36:25.867Z</time></trkpt><trkpt lat="44.2092598" lon="5.4462433"><ele>962.0</ele><time>2026-04-10T09:36:26.861Z</time></trkpt><trkpt lat="44.2093228" lon="5.4463166"><ele>964.2</ele><time>2026-04-10T09:36:27.866Z</time></trkpt><trkpt lat="44.2094077" lon="5.4463744"><ele>966.4000000000001</ele><time>2026-04-10T09:36:28.864Z</time></trkpt><trkpt lat="44.2095016" lon="5.4464216"><ele>968.5999999999999</ele><time>2026-04-10T09:36:29.864Z</time></trkpt><trkpt lat="44.2095905" lon="5.4464567"><ele>970.8</ele><time>2026-04-10T09:36:30.865Z</time></trkpt><trkpt lat="44.2096698" lon="5.4464833"><ele>973.0</ele><time>2026-04-10T09:36:31.861Z</time></trkpt><trkpt lat="44.2097603" lon="5.4464976"><ele>972.5999999999999</ele><time>2026-04-10T09:36:32.865Z</time></trkpt><trkpt lat="44.2098436" lon="5.4465112"><ele>972.1999999999999</ele><time>2026-04-10T09:36:33.863Z</time></trkpt><trkpt lat="44.2099474" lon="5.4465186"><ele>971.8</ele><time>2026-04-10T09:36:34.862Z</time></trkpt><trkpt lat="44.2100513" lon="5.4465371"><ele>971.4</ele><time>2026-04-10T09:36:35.865Z</time></trkpt><trkpt lat="44.2101628" lon="5.4465655"><ele>971.0</ele><time>2026-04-10T09:36:36.865Z</time></trkpt><trkpt lat="44.2102691" lon="5.4466009"><ele>971.0</ele><time>2026-04-10T09:36:37.865Z</time></trkpt><trkpt lat="44.2103853" lon="5.4466301"><ele>971.0</ele><time>2026-04-10T09:36:38.862Z</time></trkpt><trkpt lat="44.2105111" lon="5.4466572"><ele>971.0</ele><time>2026-04-10T09:36:39.863Z</time></trkpt><trkpt lat="44.2106356" lon="5.4467057"><ele>971.0</ele><time>2026-04-10T09:36:40.861Z</time></trkpt><trkpt lat="44.2107404" lon="5.4467804"><ele>973.25</ele><time>2026-04-10T09:36:41.861Z</time></trkpt><trkpt lat="44.2108306" lon="5.4468957"><ele>975.5</ele><time>2026-04-10T09:36:42.86Z</time></trkpt><trkpt lat="44.2109223" lon="5.4470366"><ele>977.75</ele><time>2026-04-10T09:36:43.863Z</time></trkpt><trkpt lat="44.2110197" lon="5.4471945"><ele>980.0</ele><time>2026-04-10T09:36:44.868Z</time></trkpt><trkpt lat="44.2111011" lon="5.4473624"><ele>980.0</ele><time>2026-04-10T09:36:45.864Z</time></trkpt><trkpt lat="44.2111973" lon="5.4475187"><ele>980.0</ele><time>2026-04-10T09:36:46.864Z</time></trkpt><trkpt lat="44.2112992" lon="5.4476757"><ele>980.0</ele><time>2026-04-10T09:36:47.863Z</time></trkpt><trkpt lat="44.211402" lon="5.4478401"><ele>982.0</ele><time>2026-04-10T09:36:48.863Z</time></trkpt><trkpt lat="44.2115002" lon="5.447985"><ele>984.0</ele><time>2026-04-10T09:36:49.864Z</time></trkpt><trkpt lat="44.211582" lon="5.4481229"><ele>986.0</ele><time>2026-04-10T09:36:50.864Z</time></trkpt><trkpt lat="44.2116508" lon="5.4482696"><ele>988.0</ele><time>2026-04-10T09:36:51.864Z</time></trkpt><trkpt lat="44.2116909" lon="5.4484118"><ele>988.0</ele><time>2026-04-10T09:36:52.866Z</time></trkpt><trkpt lat="44.2117205" lon="5.4485326"><ele>988.0</ele><time>2026-04-10T09:36:53.864Z</time></trkpt><trkpt lat="44.2117684" lon="5.4486272"><ele>988.0</ele><time>2026-04-10T09:36:54.859Z</time></trkpt><trkpt lat="44.2118423" lon="5.4486854"><ele>988.0</ele><time>2026-04-10T09:36:55.862Z</time></trkpt><trkpt lat="44.21194" lon="5.4487113"><ele>988.0</ele><time>2026-04-10T09:36:56.861Z</time></trkpt><trkpt lat="44.2120555" lon="5.44872"><ele>988.0</ele><time>2026-04-10T09:36:57.861Z</time></trkpt><trkpt lat="44.212175" lon="5.4487263"><ele>988.0</ele><time>2026-04-10T09:36:58.863Z</time></trkpt><trkpt lat="44.2122909" lon="5.4487176"><ele>988.0</ele><time>2026-04-10T09:36:59.864Z</time></trkpt><trkpt lat="44.212405" lon="5.4486892"><ele>988.0</ele><time>2026-04-10T09:37:00.861Z</time></trkpt><trkpt lat="44.2125313" lon="5.4486352"><ele>991.25</ele><time>2026-04-10T09:37:01.865Z</time></trkpt><trkpt lat="44.2126617" lon="5.448576"><ele>994.5</ele><time>2026-04-10T09:37:02.864Z</time></trkpt><trkpt lat="44.2127897" lon="5.4485209"><ele>997.75</ele><time>2026-04-10T09:37:03.864Z</time></trkpt><trkpt lat="44.2129173" lon="5.448472"><ele>1001.0</ele><time>2026-04-10T09:37:04.865Z</time></trkpt><trkpt lat="44.2130446" lon="5.4484251"><ele>1002.0</ele><time>2026-04-10T09:37:05.864Z</time></trkpt><trkpt lat="44.2131733" lon="5.4483787"><ele>1003.0</ele><time>2026-04-10T09:37:06.867Z</time></trkpt><trkpt lat="44.213289" lon="5.4483325"><ele>1004.0</ele><time>2026-04-10T09:37:07.865Z</time></trkpt><trkpt lat="44.2133854" lon="5.44829"><ele>1005.0</ele><time>2026-04-10T09:37:08.862Z</time></trkpt><trkpt lat="44.2134865" lon="5.4482537"><ele>1005.0</ele><time>2026-04-10T09:37:09.862Z</time></trkpt><trkpt lat="44.2135839" lon="5.4482353"><ele>1005.0</ele><time>2026-04-10T09:37:10.864Z</time></trkpt><trkpt lat="44.2136764" lon="5.4482386"><ele>1005.0</ele><time>2026-04-10T09:37:11.863Z</time></trkpt><trkpt lat="44.2137621" lon="5.4482646"><ele>1005.0</ele><time>2026-04-10T09:37:12.863Z</time></trkpt><trkpt lat="44.2138435" lon="5.4483151"><ele>1005.0</ele><time>2026-04-10T09:37:13.864Z</time></trkpt><trkpt lat="44.2139347" lon="5.4483626"><ele>1006.0</ele><time>2026-04-10T09:37:14.866Z</time></trkpt><trkpt lat="44.2140285" lon="5.4484059"><ele>1007.0</ele><time>2026-04-10T09:37:15.869Z</time></trkpt><trkpt lat="44.214126" lon="5.4484616"><ele>1008.0</ele><time>2026-04-10T09:37:16.859Z</time></trkpt><trkpt lat="44.2142214" lon="5.448515"><ele>1009.0</ele><time>2026-04-10T09:37:17.863Z</time></trkpt><trkpt lat="44.2143262" lon="5.4485802"><ele>1010.0</ele><time>2026-04-10T09:37:18.864Z</time></trkpt><trkpt lat="44.2144368" lon="5.4486592"><ele>1010.0</ele><time>2026-04-10T09:37:19.863Z</time></trkpt><trkpt lat="44.2145581" lon="5.4487489"><ele>1010.0</ele><time>2026-04-10T09:37:20.865Z</time></trkpt><trkpt lat="44.2146808" lon="5.4488498"><ele>1010.0</ele><time>2026-04-10T09:37:21.866Z</time></trkpt><trkpt lat="44.2147901" lon="5.4489457"><ele>1010.0</ele><time>2026-04-10T09:37:22.864Z</time></trkpt><trkpt lat="44.2148954" lon="5.4490259"><ele>1010.4285714285713</ele><time>2026-04-10T09:37:23.866Z</time></trkpt><trkpt lat="44.2149797" lon="5.4490955"><ele>1010.8571428571428</ele><time>2026-04-10T09:37:24.864Z</time></trkpt><trkpt lat="44.2150395" lon="5.4491539"><ele>1011.2857142857142</ele><time>2026-04-10T09:37:25.861Z</time></trkpt><trkpt lat="44.2150969" lon="5.4491962"><ele>1011.7142857142858</ele><time>2026-04-10T09:37:26.864Z</time></trkpt><trkpt lat="44.2151597" lon="5.449206"><ele>1012.1428571428572</ele><time>2026-04-10T09:37:33.865Z</time></trkpt><trkpt lat="44.2152298" lon="5.4492769"><ele>1012.5714285714287</ele><time>2026-04-10T09:39:57.861Z</time></trkpt><trkpt lat="44.2152831" lon="5.4493245"><ele>1013.0</ele><time>2026-04-10T09:40:32.859Z</time></trkpt><trkpt lat="44.2153373" lon="5.4494326"><ele>1013.0</ele><time>2026-04-10T09:41:29.863Z</time></trkpt><trkpt lat="44.2154021" lon="5.4495684"><ele>1013.0</ele><time>2026-04-10T09:41:31.863Z</time></trkpt><trkpt lat="44.2154392" lon="5.449704"><ele>1013.0</ele><time>2026-04-10T09:41:33.862Z</time></trkpt><trkpt lat="44.2154969" lon="5.4498363"><ele>1013.0</ele><time>2026-04-10T09:41:35.863Z</time></trkpt><trkpt lat="44.2155127" lon="5.4499379"><ele>1013.0</ele><time>2026-04-10T09:41:36.864Z</time></trkpt><trkpt lat="44.2155239" lon="5.4500466"><ele>1014.3333333333334</ele><time>2026-04-10T09:41:37.861Z</time></trkpt><trkpt lat="44.215537" lon="5.4501573"><ele>1015.6666666666667</ele><time>2026-04-10T09:41:38.861Z</time></trkpt><trkpt lat="44.2155542" lon="5.4502771"><ele>1017.0</ele><time>2026-04-10T09:41:39.864Z</time></trkpt><trkpt lat="44.215574" lon="5.450396"><ele>1018.3333333333333</ele><time>2026-04-10T09:41:40.867Z</time></trkpt><trkpt lat="44.2155822" lon="5.4505241"><ele>1019.6666666666666</ele><time>2026-04-10T09:41:41.863Z</time></trkpt><trkpt lat="44.2155852" lon="5.4506591"><ele>1021.0</ele><time>2026-04-10T09:41:42.863Z</time></trkpt><trkpt lat="44.2156017" lon="5.4507852"><ele>1021.1666666666666</ele><time>2026-04-10T09:41:43.859Z</time></trkpt><trkpt lat="44.2156127" lon="5.4509113"><ele>1021.3333333333333</ele><time>2026-04-10T09:41:44.863Z</time></trkpt><trkpt lat="44.2156216" lon="5.451011"><ele>1021.5</ele><time>2026-04-10T09:41:45.861Z</time></trkpt><trkpt lat="44.2156154" lon="5.4511358"><ele>1021.6666666666667</ele><time>2026-04-10T09:41:46.864Z</time></trkpt><trkpt lat="44.2156028" lon="5.4512627"><ele>1021.8333333333334</ele><time>2026-04-10T09:41:47.864Z</time></trkpt><trkpt lat="44.2155816" lon="5.4513837"><ele>1022.0</ele><time>2026-04-10T09:41:48.865Z</time></trkpt><trkpt lat="44.2155469" lon="5.4515177"><ele>1022.0</ele><time>2026-04-10T09:41:49.865Z</time></trkpt><trkpt lat="44.2155185" lon="5.451664"><ele>1022.0</ele><time>2026-04-10T09:41:50.868Z</time></trkpt><trkpt lat="44.2155" lon="5.4517859"><ele>1022.0</ele><time>2026-04-10T09:41:51.861Z</time></trkpt><trkpt lat="44.2154981" lon="5.4519262"><ele>1022.0</ele><time>2026-04-10T09:41:52.863Z</time></trkpt><trkpt lat="44.2154986" lon="5.4520681"><ele>1022.0</ele><time>2026-04-10T09:41:53.862Z</time></trkpt><trkpt lat="44.2155068" lon="5.4522124"><ele>1022.0</ele><time>2026-04-10T09:41:54.862Z</time></trkpt><trkpt lat="44.2155109" lon="5.4523733"><ele>1022.0</ele><time>2026-04-10T09:41:55.869Z</time></trkpt><trkpt lat="44.2155147" lon="5.4525355"><ele>1022.0</ele><time>2026-04-10T09:41:56.86Z</time></trkpt><trkpt lat="44.2155157" lon="5.4526897"><ele>1022.0</ele><time>2026-04-10T09:41:57.863Z</time></trkpt><trkpt lat="44.215544" lon="5.452827"><ele>1022.0</ele><time>2026-04-10T09:41:58.868Z</time></trkpt><trkpt lat="44.2155818" lon="5.4529502"><ele>1022.1666666666667</ele><time>2026-04-10T09:41:59.865Z</time></trkpt><trkpt lat="44.2156104" lon="5.4530832"><ele>1022.3333333333334</ele><time>2026-04-10T09:42:00.866Z</time></trkpt><trkpt lat="44.2156301" lon="5.4532132"><ele>1022.5</ele><time>2026-04-10T09:42:01.863Z</time></trkpt><trkpt lat="44.2156564" lon="5.4533278"><ele>1022.6666666666667</ele><time>2026-04-10T09:42:02.864Z</time></trkpt><trkpt lat="44.2156819" lon="5.4534227"><ele>1022.8333333333334</ele><time>2026-04-10T09:42:03.864Z</time></trkpt><trkpt lat="44.2156894" lon="5.4535289"><ele>1023.0</ele><time>2026-04-10T09:42:04.867Z</time></trkpt><trkpt lat="44.2156779" lon="5.4536608"><ele>1019.3333333333334</ele><time>2026-04-10T09:42:05.861Z</time></trkpt><trkpt lat="44.2156737" lon="5.4537845"><ele>1015.6666666666667</ele><time>2026-04-10T09:42:06.863Z</time></trkpt><trkpt lat="44.2156965" lon="5.453913"><ele>1012.0</ele><time>2026-04-10T09:42:07.864Z</time></trkpt><trkpt lat="44.2157058" lon="5.454055"><ele>1008.3333333333334</ele><time>2026-04-10T09:42:08.867Z</time></trkpt><trkpt lat="44.2157045" lon="5.4541804"><ele>1004.6666666666667</ele><time>2026-04-10T09:42:09.864Z</time></trkpt><trkpt lat="44.2157222" lon="5.4542741"><ele>1001.0</ele><time>2026-04-10T09:42:10.864Z</time></trkpt><trkpt lat="44.2156978" lon="5.4543642"><ele>1001.0000000000001</ele><time>2026-04-10T09:42:11.863Z</time></trkpt><trkpt lat="44.2156872" lon="5.4544577"><ele>1001.0</ele><time>2026-04-10T09:42:12.864Z</time></trkpt><trkpt lat="44.2156601" lon="5.4545635"><ele>1001.0</ele><time>2026-04-10T09:42:13.866Z</time></trkpt><trkpt lat="44.2156518" lon="5.4547043"><ele>1001.0</ele><time>2026-04-10T09:42:14.864Z</time></trkpt><trkpt lat="44.2156745" lon="5.4548279"><ele>1001.0000000000001</ele><time>2026-04-10T09:42:15.86Z</time></trkpt><trkpt lat="44.2157093" lon="5.4549542"><ele>1001.0</ele><time>2026-04-10T09:42:16.864Z</time></trkpt><trkpt lat="44.215753" lon="5.455089"><ele>1000.8333333333334</ele><time>2026-04-10T09:42:17.864Z</time></trkpt><trkpt lat="44.2157981" lon="5.4552193"><ele>1000.6666666666667</ele><time>2026-04-10T09:42:18.86Z</time></trkpt><trkpt lat="44.2158145" lon="5.4553291"><ele>1000.5</ele><time>2026-04-10T09:42:19.862Z</time></trkpt><trkpt lat="44.2158894" lon="5.4553982"><ele>1000.3333333333333</ele><time>2026-04-10T09:42:20.865Z</time></trkpt><trkpt lat="44.2159535" lon="5.4554781"><ele>1000.1666666666666</ele><time>2026-04-10T09:42:21.865Z</time></trkpt><trkpt lat="44.2160057" lon="5.4555657"><ele>1000.0</ele><time>2026-04-10T09:42:22.869Z</time></trkpt><trkpt lat="44.2160543" lon="5.4556908"><ele>1000.8</ele><time>2026-04-10T09:42:23.867Z</time></trkpt><trkpt lat="44.2161068" lon="5.4558144"><ele>1001.6</ele><time>2026-04-10T09:42:24.862Z</time></trkpt><trkpt lat="44.2161689" lon="5.4559453"><ele>1002.4000000000001</ele><time>2026-04-10T09:42:25.86Z</time></trkpt><trkpt lat="44.216222" lon="5.4560362"><ele>1003.2</ele><time>2026-04-10T09:42:26.861Z</time></trkpt><trkpt lat="44.2162756" lon="5.4560931"><ele>1004.0</ele><time>2026-04-10T09:42:27.863Z</time></trkpt><trkpt lat="44.2163185" lon="5.4562216"><ele>1004.2</ele><time>2026-04-10T09:42:29.858Z</time></trkpt><trkpt lat="44.2163081" lon="5.4563384"><ele>1004.4000000000001</ele><time>2026-04-10T09:42:30.859Z</time></trkpt><trkpt lat="44.2163097" lon="5.4564366"><ele>1004.6</ele><time>2026-04-10T09:42:31.863Z</time></trkpt><trkpt lat="44.2162412" lon="5.4565744"><ele>1004.8</ele><time>2026-04-10T09:42:32.866Z</time></trkpt><trkpt lat="44.2162144" lon="5.4566929"><ele>1005.0</ele><time>2026-04-10T09:42:33.867Z</time></trkpt><trkpt lat="44.2162123" lon="5.4568147"><ele>1005.0</ele><time>2026-04-10T09:42:34.864Z</time></trkpt><trkpt lat="44.216215" lon="5.4569416"><ele>1005.0</ele><time>2026-04-10T09:42:35.862Z</time></trkpt><trkpt lat="44.2162346" lon="5.4570711"><ele>1005.0</ele><time>2026-04-10T09:42:36.87Z</time></trkpt><trkpt lat="44.2162216" lon="5.4572116"><ele>1005.0</ele><time>2026-04-10T09:42:37.862Z</time></trkpt><trkpt lat="44.2162348" lon="5.4573579"><ele>1005.0</ele><time>2026-04-10T09:42:38.865Z</time></trkpt><trkpt lat="44.2162645" lon="5.457472"><ele>1005.0</ele><time>2026-04-10T09:42:39.864Z</time></trkpt><trkpt lat="44.2162809" lon="5.4575974"><ele>1005.0</ele><time>2026-04-10T09:42:40.861Z</time></trkpt><trkpt lat="44.2162814" lon="5.4577274"><ele>1005.0</ele><time>2026-04-10T09:42:41.866Z</time></trkpt><trkpt lat="44.2162874" lon="5.4578698"><ele>1005.0</ele><time>2026-04-10T09:42:42.867Z</time></trkpt><trkpt lat="44.2162905" lon="5.4580123"><ele>1005.0</ele><time>2026-04-10T09:42:43.868Z</time></trkpt><trkpt lat="44.2162886" lon="5.4581659"><ele>1005.2</ele><time>2026-04-10T09:42:44.863Z</time></trkpt><trkpt lat="44.216257" lon="5.4582893"><ele>1005.4</ele><time>2026-04-10T09:42:45.864Z</time></trkpt><trkpt lat="44.2162665" lon="5.4584167"><ele>1005.5999999999999</ele><time>2026-04-10T09:42:46.863Z</time></trkpt><trkpt lat="44.216295" lon="5.4585498"><ele>1005.8</ele><time>2026-04-10T09:42:47.861Z</time></trkpt><trkpt lat="44.2163214" lon="5.4586882"><ele>1006.0</ele><time>2026-04-10T09:42:48.86Z</time></trkpt><trkpt lat="44.2163567" lon="5.4588242"><ele>1005.4</ele><time>2026-04-10T09:42:49.866Z</time></trkpt><trkpt lat="44.216383" lon="5.4589608"><ele>1004.8</ele><time>2026-04-10T09:42:50.862Z</time></trkpt><trkpt lat="44.2164099" lon="5.4591091"><ele>1004.1999999999999</ele><time>2026-04-10T09:42:51.86Z</time></trkpt><trkpt lat="44.2164541" lon="5.459256"><ele>1003.5999999999999</ele><time>2026-04-10T09:42:52.859Z</time></trkpt><trkpt lat="44.2164905" lon="5.4593937"><ele>1003.0</ele><time>2026-04-10T09:42:53.863Z</time></trkpt><trkpt lat="44.2165191" lon="5.4595231"><ele>997.8</ele><time>2026-04-10T09:42:54.859Z</time></trkpt><trkpt lat="44.2165126" lon="5.4596581"><ele>992.5999999999999</ele><time>2026-04-10T09:42:55.863Z</time></trkpt><trkpt lat="44.216511" lon="5.4597983"><ele>987.4000000000001</ele><time>2026-04-10T09:42:56.863Z</time></trkpt><trkpt lat="44.2165117" lon="5.4599479"><ele>982.2</ele><time>2026-04-10T09:42:57.866Z</time></trkpt><trkpt lat="44.2165211" lon="5.4600677"><ele>977.0</ele><time>2026-04-10T09:42:58.868Z</time></trkpt><trkpt lat="44.2165301" lon="5.4601812"><ele>977.0000000000001</ele><time>2026-04-10T09:42:59.866Z</time></trkpt><trkpt lat="44.2165516" lon="5.460276"><ele>977.0</ele><time>2026-04-10T09:43:00.869Z</time></trkpt><trkpt lat="44.2165912" lon="5.4603683"><ele>977.0</ele><time>2026-04-10T09:43:01.87Z</time></trkpt><trkpt lat="44.2166373" lon="5.4604879"><ele>977.0</ele><time>2026-04-10T09:43:02.87Z</time></trkpt><trkpt lat="44.2167311" lon="5.4605735"><ele>977.0000000000001</ele><time>2026-04-10T09:43:03.867Z</time></trkpt><trkpt lat="44.2167951" lon="5.4606616"><ele>977.0</ele><time>2026-04-10T09:43:04.863Z</time></trkpt><trkpt lat="44.2168565" lon="5.4607413"><ele>976.5000000000001</ele><time>2026-04-10T09:43:05.864Z</time></trkpt><trkpt lat="44.2169123" lon="5.4608125"><ele>976.0</ele><time>2026-04-10T09:43:06.863Z</time></trkpt><trkpt lat="44.2169543" lon="5.4609037"><ele>975.5</ele><time>2026-04-10T09:43:07.862Z</time></trkpt><trkpt lat="44.2169769" lon="5.4610023"><ele>975.0</ele><time>2026-04-10T09:43:08.865Z</time></trkpt><trkpt lat="44.2169876" lon="5.4611232"><ele>974.5000000000001</ele><time>2026-04-10T09:43:09.864Z</time></trkpt><trkpt lat="44.2170172" lon="5.4612302"><ele>974.0</ele><time>2026-04-10T09:43:10.864Z</time></trkpt><trkpt lat="44.2170611" lon="5.4613392"><ele>975.0000000000001</ele><time>2026-04-10T09:43:11.872Z</time></trkpt><trkpt lat="44.2171274" lon="5.4614064"><ele>976.0</ele><time>2026-04-10T09:43:12.864Z</time></trkpt><trkpt lat="44.2172028" lon="5.4614517"><ele>977.0</ele><time>2026-04-10T09:43:13.865Z</time></trkpt><trkpt lat="44.2172844" lon="5.4614568"><ele>978.0</ele><time>2026-04-10T09:43:14.864Z</time></trkpt><trkpt lat="44.217367" lon="5.4614395"><ele>979.0000000000001</ele><time>2026-04-10T09:43:15.871Z</time></trkpt><trkpt lat="44.2174722" lon="5.4614375"><ele>980.0</ele><time>2026-04-10T09:43:16.864Z</time></trkpt><trkpt lat="44.2175905" lon="5.4614432"><ele>975.8</ele><time>2026-04-10T09:43:17.865Z</time></trkpt><trkpt lat="44.2177009" lon="5.4614596"><ele>971.6</ele><time>2026-04-10T09:43:18.861Z</time></trkpt><trkpt lat="44.2177987" lon="5.4615064"><ele>967.4000000000001</ele><time>2026-04-10T09:43:19.867Z</time></trkpt><trkpt lat="44.2178652" lon="5.4615705"><ele>963.2</ele><time>2026-04-10T09:43:20.865Z</time></trkpt><trkpt lat="44.2179214" lon="5.4616426"><ele>959.0</ele><time>2026-04-10T09:43:21.862Z</time></trkpt><trkpt lat="44.2179841" lon="5.4617108"><ele>959.0</ele><time>2026-04-10T09:43:22.866Z</time></trkpt><trkpt lat="44.2180527" lon="5.4617812"><ele>959.0000000000001</ele><time>2026-04-10T09:43:23.869Z</time></trkpt><trkpt lat="44.2181108" lon="5.4618626"><ele>959.0000000000001</ele><time>2026-04-10T09:43:24.865Z</time></trkpt><trkpt lat="44.21816" lon="5.4619519"><ele>959.0</ele><time>2026-04-10T09:43:25.866Z</time></trkpt><trkpt lat="44.2182128" lon="5.462117"><ele>959.0</ele><time>2026-04-10T09:43:27.865Z</time></trkpt><trkpt lat="44.2182687" lon="5.4622472"><ele>957.0</ele><time>2026-04-10T09:43:29.865Z</time></trkpt><trkpt lat="44.2183978" lon="5.4622612"><ele>955.0000000000001</ele><time>2026-04-10T09:43:31.864Z</time></trkpt><trkpt lat="44.2184647" lon="5.4622978"><ele>953.0000000000001</ele><time>2026-04-10T09:43:32.863Z</time></trkpt><trkpt lat="44.218533" lon="5.4623554"><ele>951.0</ele><time>2026-04-10T09:43:33.865Z</time></trkpt><trkpt lat="44.2186012" lon="5.4624279"><ele>949.0</ele><time>2026-04-10T09:43:34.86Z</time></trkpt><trkpt lat="44.2186741" lon="5.4625139"><ele>948.9999999999999</ele><time>2026-04-10T09:43:35.865Z</time></trkpt><trkpt lat="44.2187327" lon="5.4626107"><ele>949.0</ele><time>2026-04-10T09:43:36.865Z</time></trkpt><trkpt lat="44.2187894" lon="5.4626926"><ele>949.0</ele><time>2026-04-10T09:43:37.862Z</time></trkpt><trkpt lat="44.218852" lon="5.4627621"><ele>949.0</ele><time>2026-04-10T09:43:38.864Z</time></trkpt><trkpt lat="44.2189221" lon="5.4628027"><ele>948.9999999999999</ele><time>2026-04-10T09:43:39.864Z</time></trkpt><trkpt lat="44.2190064" lon="5.4628069"><ele>949.0</ele><time>2026-04-10T09:43:40.863Z</time></trkpt><trkpt lat="44.2190961" lon="5.4627846"><ele>946.8333333333333</ele><time>2026-04-10T09:43:41.864Z</time></trkpt><trkpt lat="44.2191878" lon="5.4627561"><ele>944.6666666666666</ele><time>2026-04-10T09:43:42.864Z</time></trkpt><trkpt lat="44.2192792" lon="5.4627331"><ele>942.5</ele><time>2026-04-10T09:43:43.863Z</time></trkpt><trkpt lat="44.2193695" lon="5.4627294"><ele>940.3333333333333</ele><time>2026-04-10T09:43:44.864Z</time></trkpt><trkpt lat="44.2194592" lon="5.462742"><ele>938.1666666666666</ele><time>2026-04-10T09:43:45.863Z</time></trkpt><trkpt lat="44.2195344" lon="5.4627596"><ele>936.0</ele><time>2026-04-10T09:43:46.861Z</time></trkpt><trkpt lat="44.219594" lon="5.4628215"><ele>936.4</ele><time>2026-04-10T09:43:48.867Z</time></trkpt><trkpt lat="44.219594" lon="5.4629497"><ele>936.8</ele><time>2026-04-10T09:43:50.865Z</time></trkpt><trkpt lat="44.219571" lon="5.4630435"><ele>937.1999999999999</ele><time>2026-04-10T09:43:51.865Z</time></trkpt><trkpt lat="44.2195308" lon="5.4631631"><ele>937.5999999999999</ele><time>2026-04-10T09:43:52.864Z</time></trkpt><trkpt lat="44.2195004" lon="5.4632952"><ele>938.0</ele><time>2026-04-10T09:43:53.87Z</time></trkpt><trkpt lat="44.2194613" lon="5.4634181"><ele>938.0000000000001</ele><time>2026-04-10T09:43:54.861Z</time></trkpt><trkpt lat="44.2194249" lon="5.463529"><ele>938.0</ele><time>2026-04-10T09:43:55.861Z</time></trkpt><trkpt lat="44.2193838" lon="5.4636298"><ele>938.0</ele><time>2026-04-10T09:43:56.865Z</time></trkpt><trkpt lat="44.219358" lon="5.463719"><ele>938.0</ele><time>2026-04-10T09:43:57.859Z</time></trkpt><trkpt lat="44.2193564" lon="5.463838"><ele>938.0000000000001</ele><time>2026-04-10T09:43:59.865Z</time></trkpt><trkpt lat="44.2194324" lon="5.4638753"><ele>938.0</ele><time>2026-04-10T09:44:01.87Z</time></trkpt><trkpt lat="44.2195115" lon="5.4638622"><ele>938.0</ele><time>2026-04-10T09:44:02.869Z</time></trkpt><trkpt lat="44.2196179" lon="5.4638322"><ele>938.0</ele><time>2026-04-10T09:44:03.86Z</time></trkpt><trkpt lat="44.2197319" lon="5.463765"><ele>938.0</ele><time>2026-04-10T09:44:04.865Z</time></trkpt><trkpt lat="44.2198354" lon="5.4637215"><ele>938.0</ele><time>2026-04-10T09:44:05.866Z</time></trkpt><trkpt lat="44.2199242" lon="5.4637073"><ele>938.0</ele><time>2026-04-10T09:44:06.859Z</time></trkpt><trkpt lat="44.2199899" lon="5.463709"><ele>936.5999999999999</ele><time>2026-04-10T09:44:07.859Z</time></trkpt><trkpt lat="44.2201096" lon="5.4637421"><ele>935.1999999999999</ele><time>2026-04-10T09:44:09.865Z</time></trkpt><trkpt lat="44.2201967" lon="5.4638597"><ele>933.8</ele><time>2026-04-10T09:44:11.864Z</time></trkpt><trkpt lat="44.2202176" lon="5.4639717"><ele>932.4</ele><time>2026-04-10T09:44:12.864Z</time></trkpt><trkpt lat="44.2202371" lon="5.464085"><ele>931.0</ele><time>2026-04-10T09:44:13.868Z</time></trkpt><trkpt lat="44.220232" lon="5.4642011"><ele>931.0</ele><time>2026-04-10T09:44:14.867Z</time></trkpt><trkpt lat="44.220207" lon="5.4643372"><ele>930.9999999999999</ele><time>2026-04-10T09:44:15.865Z</time></trkpt><trkpt lat="44.2201462" lon="5.4644836"><ele>930.9999999999999</ele><time>2026-04-10T09:44:16.865Z</time></trkpt><trkpt lat="44.2200909" lon="5.4646082"><ele>931.0</ele><time>2026-04-10T09:44:17.86Z</time></trkpt><trkpt lat="44.2200258" lon="5.464729"><ele>931.0</ele><time>2026-04-10T09:44:18.861Z</time></trkpt><trkpt lat="44.2199652" lon="5.4648578"><ele>930.75</ele><time>2026-04-10T09:44:19.86Z</time></trkpt><trkpt lat="44.2199071" lon="5.464992"><ele>930.5</ele><time>2026-04-10T09:44:20.864Z</time></trkpt><trkpt lat="44.2198426" lon="5.4651233"><ele>930.25</ele><time>2026-04-10T09:44:21.863Z</time></trkpt><trkpt lat="44.2197777" lon="5.4652522"><ele>930.0</ele><time>2026-04-10T09:44:22.884Z</time></trkpt><trkpt lat="44.2197133" lon="5.4653905"><ele>934.8</ele><time>2026-04-10T09:44:23.88Z</time></trkpt><trkpt lat="44.2196471" lon="5.4655278"><ele>939.6</ele><time>2026-04-10T09:44:24.864Z</time></trkpt><trkpt lat="44.219585" lon="5.465668"><ele>944.4000000000001</ele><time>2026-04-10T09:44:25.862Z</time></trkpt><trkpt lat="44.2195235" lon="5.4657762"><ele>949.2</ele><time>2026-04-10T09:44:26.858Z</time></trkpt><trkpt lat="44.2194628" lon="5.4658615"><ele>954.0</ele><time>2026-04-10T09:44:27.86Z</time></trkpt><trkpt lat="44.2194107" lon="5.4659377"><ele>954.0</ele><time>2026-04-10T09:44:28.863Z</time></trkpt><trkpt lat="44.2193874" lon="5.4660839"><ele>954.0</ele><time>2026-04-10T09:44:30.869Z</time></trkpt><trkpt lat="44.2194318" lon="5.4661475"><ele>954.0</ele><time>2026-04-10T09:44:31.866Z</time></trkpt><trkpt lat="44.2194852" lon="5.4662079"><ele>954.0</ele><time>2026-04-10T09:44:32.862Z</time></trkpt><trkpt lat="44.2195521" lon="5.4662391"><ele>954.0</ele><time>2026-04-10T09:44:33.865Z</time></trkpt><trkpt lat="44.2196597" lon="5.4662488"><ele>954.0</ele><time>2026-04-10T09:44:34.859Z</time></trkpt><trkpt lat="44.2197575" lon="5.4662099"><ele>948.3333333333333</ele><time>2026-04-10T09:44:35.863Z</time></trkpt><trkpt lat="44.2199213" lon="5.4660678"><ele>942.6666666666666</ele><time>2026-04-10T09:44:36.86Z</time></trkpt><trkpt lat="44.2200715" lon="5.465936"><ele>937.0</ele><time>2026-04-10T09:44:37.859Z</time></trkpt><trkpt lat="44.2202052" lon="5.4658229"><ele>937.0</ele><time>2026-04-10T09:44:38.865Z</time></trkpt><trkpt lat="44.220302" lon="5.4657329"><ele>937.0</ele><time>2026-04-10T09:44:39.863Z</time></trkpt><trkpt lat="44.2203816" lon="5.4656531"><ele>937.0</ele><time>2026-04-10T09:44:40.867Z</time></trkpt><trkpt lat="44.2204665" lon="5.4655944"><ele>937.0</ele><time>2026-04-10T09:44:41.862Z</time></trkpt><trkpt lat="44.2205665" lon="5.4655324"><ele>937.0</ele><time>2026-04-10T09:44:42.86Z</time></trkpt><trkpt lat="44.2206701" lon="5.4654657"><ele>934.0</ele><time>2026-04-10T09:44:43.86Z</time></trkpt><trkpt lat="44.2207813" lon="5.46541"><ele>931.0</ele><time>2026-04-10T09:44:44.861Z</time></trkpt><trkpt lat="44.2208925" lon="5.4653711"><ele>928.0</ele><time>2026-04-10T09:44:45.869Z</time></trkpt><trkpt lat="44.2210103" lon="5.4653314"><ele>925.0</ele><time>2026-04-10T09:44:46.865Z</time></trkpt><trkpt lat="44.2211335" lon="5.4653016"><ele>925.0</ele><time>2026-04-10T09:44:47.864Z</time></trkpt><trkpt lat="44.2212634" lon="5.4652749"><ele>925.0</ele><time>2026-04-10T09:44:48.864Z</time></trkpt><trkpt lat="44.221392" lon="5.4652497"><ele>925.0</ele><time>2026-04-10T09:44:49.859Z</time></trkpt><trkpt lat="44.2215161" lon="5.4652207"><ele>925.0</ele><time>2026-04-10T09:44:50.864Z</time></trkpt><trkpt lat="44.2216374" lon="5.4651844"><ele>927.8</ele><time>2026-04-10T09:44:51.867Z</time></trkpt><trkpt lat="44.2217455" lon="5.4651471"><ele>930.6</ele><time>2026-04-10T09:44:52.858Z</time></trkpt><trkpt lat="44.221854" lon="5.4651009"><ele>933.4000000000001</ele><time>2026-04-10T09:44:53.859Z</time></trkpt><trkpt lat="44.2219542" lon="5.4650553"><ele>936.2</ele><time>2026-04-10T09:44:54.863Z</time></trkpt><trkpt lat="44.2220532" lon="5.4649989"><ele>939.0</ele><time>2026-04-10T09:44:55.863Z</time></trkpt><trkpt lat="44.2221532" lon="5.4649444"><ele>939.0</ele><time>2026-04-10T09:44:56.86Z</time></trkpt><trkpt lat="44.2222391" lon="5.4649006"><ele>939.0</ele><time>2026-04-10T09:44:57.864Z</time></trkpt><trkpt lat="44.2223324" lon="5.4648581"><ele>939.0</ele><time>2026-04-10T09:44:58.863Z</time></trkpt><trkpt lat="44.2224065" lon="5.4648209"><ele>939.0</ele><time>2026-04-10T09:44:59.86Z</time></trkpt><trkpt lat="44.2224836" lon="5.4647824"><ele>939.0</ele><time>2026-04-10T09:45:00.862Z</time></trkpt><trkpt lat="44.2225502" lon="5.4647455"><ele>939.0</ele><time>2026-04-10T09:45:01.869Z</time></trkpt><trkpt lat="44.2226159" lon="5.4647008"><ele>938.6666666666666</ele><time>2026-04-10T09:45:02.861Z</time></trkpt><trkpt lat="44.2226838" lon="5.4646521"><ele>938.3333333333333</ele><time>2026-04-10T09:45:03.86Z</time></trkpt><trkpt lat="44.2227617" lon="5.464593"><ele>938.0</ele><time>2026-04-10T09:45:04.864Z</time></trkpt><trkpt lat="44.2228434" lon="5.4645354"><ele>937.6666666666666</ele><time>2026-04-10T09:45:05.862Z</time></trkpt><trkpt lat="44.2229217" lon="5.4644891"><ele>937.3333333333333</ele><time>2026-04-10T09:45:06.861Z</time></trkpt><trkpt lat="44.2229996" lon="5.4644568"><ele>937.0</ele><time>2026-04-10T09:45:07.87Z</time></trkpt><trkpt lat="44.223109" lon="5.4644849"><ele>938.0</ele><time>2026-04-10T09:45:09.865Z</time></trkpt><trkpt lat="44.2231696" lon="5.4645297"><ele>939.0</ele><time>2026-04-10T09:45:10.861Z</time></trkpt><trkpt lat="44.2232238" lon="5.4645849"><ele>940.0</ele><time>2026-04-10T09:45:11.862Z</time></trkpt><trkpt lat="44.2232839" lon="5.4646415"><ele>941.0</ele><time>2026-04-10T09:45:12.874Z</time></trkpt><trkpt lat="44.2233328" lon="5.4647206"><ele>942.0</ele><time>2026-04-10T09:45:13.864Z</time></trkpt><trkpt lat="44.2233789" lon="5.4648028"><ele>943.0</ele><time>2026-04-10T09:45:14.864Z</time></trkpt><trkpt lat="44.2234319" lon="5.4648802"><ele>944.0</ele><time>2026-04-10T09:45:15.867Z</time></trkpt><trkpt lat="44.2234803" lon="5.4649549"><ele>946.1666666666667</ele><time>2026-04-10T09:45:16.864Z</time></trkpt><trkpt lat="44.2235162" lon="5.4650408"><ele>948.3333333333334</ele><time>2026-04-10T09:45:17.866Z</time></trkpt><trkpt lat="44.2235474" lon="5.4651244"><ele>950.5</ele><time>2026-04-10T09:45:18.864Z</time></trkpt><trkpt lat="44.2236004" lon="5.4652492"><ele>952.6666666666667</ele><time>2026-04-10T09:45:20.866Z</time></trkpt><trkpt lat="44.2236256" lon="5.4653456"><ele>954.8333333333334</ele><time>2026-04-10T09:45:22.866Z</time></trkpt><trkpt lat="44.2236667" lon="5.4654363"><ele>957.0</ele><time>2026-04-10T09:46:39.87Z</time></trkpt><trkpt lat="44.2237327" lon="5.465417"><ele>957.0</ele><time>2026-04-10T09:46:41.866Z</time></trkpt><trkpt lat="44.2237699" lon="5.4653085"><ele>957.0</ele><time>2026-04-10T09:46:42.868Z</time></trkpt><trkpt lat="44.2237984" lon="5.4652105"><ele>957.0</ele><time>2026-04-10T09:46:43.865Z</time></trkpt><trkpt lat="44.2238358" lon="5.4651009"><ele>957.0</ele><time>2026-04-10T09:46:44.866Z</time></trkpt><trkpt lat="44.2238824" lon="5.464991"><ele>957.0</ele><time>2026-04-10T09:46:45.867Z</time></trkpt><trkpt lat="44.2239579" lon="5.4648711"><ele>956.75</ele><time>2026-04-10T09:46:46.87Z</time></trkpt><trkpt lat="44.2240357" lon="5.4647577"><ele>956.5</ele><time>2026-04-10T09:46:47.865Z</time></trkpt><trkpt lat="44.2241167" lon="5.4646431"><ele>956.25</ele><time>2026-04-10T09:46:48.863Z</time></trkpt><trkpt lat="44.2242085" lon="5.4645238"><ele>956.0</ele><time>2026-04-10T09:46:49.866Z</time></trkpt><trkpt lat="44.2243228" lon="5.4644075"><ele>953.75</ele><time>2026-04-10T09:46:50.866Z</time></trkpt><trkpt lat="44.2244447" lon="5.4642776"><ele>951.5</ele><time>2026-04-10T09:46:51.866Z</time></trkpt><trkpt lat="44.2245574" lon="5.4641593"><ele>949.25</ele><time>2026-04-10T09:46:52.868Z</time></trkpt><trkpt lat="44.2246676" lon="5.4640361"><ele>947.0</ele><time>2026-04-10T09:46:53.863Z</time></trkpt><trkpt lat="44.224768" lon="5.4639093"><ele>947.0</ele><time>2026-04-10T09:46:54.866Z</time></trkpt><trkpt lat="44.2248676" lon="5.4637668"><ele>947.0</ele><time>2026-04-10T09:46:55.865Z</time></trkpt><trkpt lat="44.2249561" lon="5.4636245"><ele>947.0</ele><time>2026-04-10T09:46:56.865Z</time></trkpt><trkpt lat="44.2250437" lon="5.4634911"><ele>947.0</ele><time>2026-04-10T09:46:57.873Z</time></trkpt><trkpt lat="44.2251327" lon="5.4633586"><ele>947.0</ele><time>2026-04-10T09:46:58.87Z</time></trkpt><trkpt lat="44.2252358" lon="5.4632468"><ele>947.0</ele><time>2026-04-10T09:46:59.867Z</time></trkpt><trkpt lat="44.2253408" lon="5.4631398"><ele>947.0</ele><time>2026-04-10T09:47:00.87Z</time></trkpt><trkpt lat="44.2254411" lon="5.463056"><ele>947.0</ele><time>2026-04-10T09:47:01.867Z</time></trkpt><trkpt lat="44.225539" lon="5.4629585"><ele>947.0</ele><time>2026-04-10T09:47:02.873Z</time></trkpt><trkpt lat="44.2256314" lon="5.4628496"><ele>947.0</ele><time>2026-04-10T09:47:03.867Z</time></trkpt><trkpt lat="44.2257147" lon="5.4627465"><ele>947.0</ele><time>2026-04-10T09:47:04.865Z</time></trkpt><trkpt lat="44.2257981" lon="5.4626383"><ele>947.0</ele><time>2026-04-10T09:47:05.862Z</time></trkpt><trkpt lat="44.2258802" lon="5.4625399"><ele>947.0</ele><time>2026-04-10T09:47:06.86Z</time></trkpt><trkpt lat="44.2259695" lon="5.4624611"><ele>947.0</ele><time>2026-04-10T09:47:07.858Z</time></trkpt><trkpt lat="44.2260624" lon="5.4623782"><ele>947.0</ele><time>2026-04-10T09:47:08.864Z</time></trkpt><trkpt lat="44.2261461" lon="5.4623089"><ele>947.0</ele><time>2026-04-10T09:47:09.867Z</time></trkpt><trkpt lat="44.2262313" lon="5.4622172"><ele>947.0</ele><time>2026-04-10T09:47:10.865Z</time></trkpt><trkpt lat="44.2263119" lon="5.4621259"><ele>944.75</ele><time>2026-04-10T09:47:11.866Z</time></trkpt><trkpt lat="44.2263915" lon="5.4620417"><ele>942.5</ele><time>2026-04-10T09:47:12.866Z</time></trkpt><trkpt lat="44.2264831" lon="5.4619489"><ele>940.25</ele><time>2026-04-10T09:47:13.866Z</time></trkpt><trkpt lat="44.2265762" lon="5.4618626"><ele>938.0</ele><time>2026-04-10T09:47:14.865Z</time></trkpt><trkpt lat="44.226694" lon="5.461764"><ele>938.0</ele><time>2026-04-10T09:47:15.87Z</time></trkpt><trkpt lat="44.2268049" lon="5.4616671"><ele>938.0</ele><time>2026-04-10T09:47:16.862Z</time></trkpt><trkpt lat="44.2268936" lon="5.4615547"><ele>938.0</ele><time>2026-04-10T09:47:17.868Z</time></trkpt><trkpt lat="44.2269533" lon="5.4614303"><ele>938.0</ele><time>2026-04-10T09:47:18.862Z</time></trkpt><trkpt lat="44.2270224" lon="5.4612885"><ele>936.75</ele><time>2026-04-10T09:47:19.858Z</time></trkpt><trkpt lat="44.2270925" lon="5.4611456"><ele>935.5</ele><time>2026-04-10T09:47:20.863Z</time></trkpt><trkpt lat="44.2271531" lon="5.4609964"><ele>934.25</ele><time>2026-04-10T09:47:21.862Z</time></trkpt><trkpt lat="44.2272331" lon="5.4608506"><ele>933.0</ele><time>2026-04-10T09:47:22.859Z</time></trkpt><trkpt lat="44.22731" lon="5.4607283"><ele>932.5999999999999</ele><time>2026-04-10T09:47:23.86Z</time></trkpt><trkpt lat="44.2273808" lon="5.4606012"><ele>932.1999999999999</ele><time>2026-04-10T09:47:24.863Z</time></trkpt><trkpt lat="44.2274592" lon="5.4605103"><ele>931.8</ele><time>2026-04-10T09:47:25.858Z</time></trkpt><trkpt lat="44.227519" lon="5.4603987"><ele>931.4</ele><time>2026-04-10T09:47:26.862Z</time></trkpt><trkpt lat="44.2275359" lon="5.4602665"><ele>931.0</ele><time>2026-04-10T09:47:27.865Z</time></trkpt><trkpt lat="44.2275575" lon="5.4601223"><ele>929.8</ele><time>2026-04-10T09:47:28.862Z</time></trkpt><trkpt lat="44.2275729" lon="5.4600165"><ele>928.5999999999999</ele><time>2026-04-10T09:47:29.859Z</time></trkpt><trkpt lat="44.2276141" lon="5.4599034"><ele>927.4</ele><time>2026-04-10T09:47:30.863Z</time></trkpt><trkpt lat="44.2276535" lon="5.4597937"><ele>926.2</ele><time>2026-04-10T09:47:31.861Z</time></trkpt><trkpt lat="44.2277261" lon="5.4596966"><ele>925.0</ele><time>2026-04-10T09:47:32.866Z</time></trkpt><trkpt lat="44.2277928" lon="5.4595918"><ele>923.2</ele><time>2026-04-10T09:47:33.86Z</time></trkpt><trkpt lat="44.2278859" lon="5.4594945"><ele>921.4</ele><time>2026-04-10T09:47:34.862Z</time></trkpt><trkpt lat="44.2279695" lon="5.4594069"><ele>919.5999999999999</ele><time>2026-04-10T09:47:35.863Z</time></trkpt><trkpt lat="44.2280588" lon="5.459317"><ele>917.8</ele><time>2026-04-10T09:47:36.865Z</time></trkpt><trkpt lat="44.2281491" lon="5.4592545"><ele>916.0</ele><time>2026-04-10T09:47:37.863Z</time></trkpt><trkpt lat="44.2282418" lon="5.4591952"><ele>915.5999999999999</ele><time>2026-04-10T09:47:38.864Z</time></trkpt><trkpt lat="44.2283491" lon="5.4591528"><ele>915.1999999999999</ele><time>2026-04-10T09:47:39.866Z</time></trkpt><trkpt lat="44.2284296" lon="5.4591223"><ele>914.8000000000001</ele><time>2026-04-10T09:47:40.867Z</time></trkpt><trkpt lat="44.2285392" lon="5.4590994"><ele>914.4000000000001</ele><time>2026-04-10T09:47:41.86Z</time></trkpt><trkpt lat="44.2286418" lon="5.4590641"><ele>914.0</ele><time>2026-04-10T09:47:42.866Z</time></trkpt><trkpt lat="44.2287414" lon="5.4590286"><ele>914.0</ele><time>2026-04-10T09:47:43.865Z</time></trkpt><trkpt lat="44.2288421" lon="5.458976"><ele>914.0000000000001</ele><time>2026-04-10T09:47:44.865Z</time></trkpt><trkpt lat="44.2289047" lon="5.4589003"><ele>914.0000000000001</ele><time>2026-04-10T09:47:45.869Z</time></trkpt><trkpt lat="44.2289572" lon="5.4588141"><ele>914.0</ele><time>2026-04-10T09:47:46.865Z</time></trkpt><trkpt lat="44.2290161" lon="5.4586998"><ele>914.0</ele><time>2026-04-10T09:47:47.867Z</time></trkpt><trkpt lat="44.2290574" lon="5.458568"><ele>912.25</ele><time>2026-04-10T09:47:48.869Z</time></trkpt><trkpt lat="44.2290876" lon="5.4584162"><ele>910.5</ele><time>2026-04-10T09:47:49.868Z</time></trkpt><trkpt lat="44.2291113" lon="5.4582695"><ele>908.75</ele><time>2026-04-10T09:47:50.868Z</time></trkpt><trkpt lat="44.229121" lon="5.4580886"><ele>907.0</ele><time>2026-04-10T09:47:51.87Z</time></trkpt><trkpt lat="44.2291208" lon="5.4579106"><ele>906.75</ele><time>2026-04-10T09:47:52.86Z</time></trkpt><trkpt lat="44.2291262" lon="5.4577435"><ele>906.5</ele><time>2026-04-10T09:47:53.863Z</time></trkpt><trkpt lat="44.2291323" lon="5.4575647"><ele>906.25</ele><time>2026-04-10T09:47:54.868Z</time></trkpt><trkpt lat="44.2291371" lon="5.4573875"><ele>906.0</ele><time>2026-04-10T09:47:55.867Z</time></trkpt><trkpt lat="44.2291603" lon="5.4571974"><ele>905.75</ele><time>2026-04-10T09:47:56.866Z</time></trkpt><trkpt lat="44.229167" lon="5.4570096"><ele>905.5</ele><time>2026-04-10T09:47:57.86Z</time></trkpt><trkpt lat="44.2291983" lon="5.4568479"><ele>905.25</ele><time>2026-04-10T09:47:58.865Z</time></trkpt><trkpt lat="44.2292259" lon="5.4566817"><ele>905.0</ele><time>2026-04-10T09:47:59.865Z</time></trkpt><trkpt lat="44.2292202" lon="5.4565305"><ele>905.0</ele><time>2026-04-10T09:48:00.867Z</time></trkpt><trkpt lat="44.2292073" lon="5.4563775"><ele>905.0</ele><time>2026-04-10T09:48:01.865Z</time></trkpt><trkpt lat="44.2291893" lon="5.4562349"><ele>905.0</ele><time>2026-04-10T09:48:02.866Z</time></trkpt><trkpt lat="44.2291585" lon="5.4560902"><ele>905.0</ele><time>2026-04-10T09:48:03.866Z</time></trkpt><trkpt lat="44.2291109" lon="5.4559411"><ele>905.0</ele><time>2026-04-10T09:48:04.871Z</time></trkpt><trkpt lat="44.2290461" lon="5.4558121"><ele>904.6666666666667</ele><time>2026-04-10T09:48:05.867Z</time></trkpt><trkpt lat="44.228993" lon="5.4557094"><ele>904.3333333333334</ele><time>2026-04-10T09:48:06.864Z</time></trkpt><trkpt lat="44.2289554" lon="5.4556027"><ele>904.0</ele><time>2026-04-10T09:48:07.864Z</time></trkpt><trkpt lat="44.2289527" lon="5.4554882"><ele>903.6666666666667</ele><time>2026-04-10T09:48:08.864Z</time></trkpt><trkpt lat="44.2289618" lon="5.4553763"><ele>903.3333333333334</ele><time>2026-04-10T09:48:09.863Z</time></trkpt><trkpt lat="44.2289665" lon="5.455241"><ele>903.0</ele><time>2026-04-10T09:48:10.864Z</time></trkpt><trkpt lat="44.2289786" lon="5.4550992"><ele>903.0</ele><time>2026-04-10T09:48:11.86Z</time></trkpt><trkpt lat="44.2289892" lon="5.4549676"><ele>903.0</ele><time>2026-04-10T09:48:12.86Z</time></trkpt><trkpt lat="44.2290224" lon="5.4548625"><ele>903.0</ele><time>2026-04-10T09:48:13.86Z</time></trkpt><trkpt lat="44.2290609" lon="5.4547522"><ele>903.0</ele><time>2026-04-10T09:48:14.861Z</time></trkpt><trkpt lat="44.2291067" lon="5.4546383"><ele>903.0</ele><time>2026-04-10T09:48:15.861Z</time></trkpt><trkpt lat="44.2291657" lon="5.4545424"><ele>903.0</ele><time>2026-04-10T09:48:16.858Z</time></trkpt><trkpt lat="44.2292208" lon="5.4544391"><ele>903.3333333333334</ele><time>2026-04-10T09:48:17.86Z</time></trkpt><trkpt lat="44.2292572" lon="5.4543349"><ele>903.6666666666667</ele><time>2026-04-10T09:48:18.857Z</time></trkpt><trkpt lat="44.2293032" lon="5.4542325"><ele>904.0</ele><time>2026-04-10T09:48:19.862Z</time></trkpt><trkpt lat="44.2293669" lon="5.4541443"><ele>904.3333333333334</ele><time>2026-04-10T09:48:20.864Z</time></trkpt><trkpt lat="44.2294433" lon="5.4540796"><ele>904.6666666666667</ele><time>2026-04-10T09:48:21.866Z</time></trkpt><trkpt lat="44.2295171" lon="5.4540144"><ele>905.0</ele><time>2026-04-10T09:48:22.861Z</time></trkpt><trkpt lat="44.229588" lon="5.453945"><ele>905.0000000000001</ele><time>2026-04-10T09:48:23.86Z</time></trkpt><trkpt lat="44.229667" lon="5.4538485"><ele>905.0</ele><time>2026-04-10T09:48:24.865Z</time></trkpt><trkpt lat="44.2297248" lon="5.4537586"><ele>905.0</ele><time>2026-04-10T09:48:25.863Z</time></trkpt><trkpt lat="44.2297527" lon="5.4536776"><ele>905.0</ele><time>2026-04-10T09:48:26.862Z</time></trkpt><trkpt lat="44.2297758" lon="5.4535907"><ele>905.0000000000001</ele><time>2026-04-10T09:48:27.863Z</time></trkpt><trkpt lat="44.2297944" lon="5.4534914"><ele>905.0</ele><time>2026-04-10T09:48:28.856Z</time></trkpt><trkpt lat="44.2298212" lon="5.4534082"><ele>904.1666666666667</ele><time>2026-04-10T09:48:29.857Z</time></trkpt><trkpt lat="44.2298626" lon="5.4533371"><ele>903.3333333333334</ele><time>2026-04-10T09:48:30.86Z</time></trkpt><trkpt lat="44.2299184" lon="5.4532525"><ele>902.5</ele><time>2026-04-10T09:48:31.859Z</time></trkpt><trkpt lat="44.229991" lon="5.453157"><ele>901.6666666666667</ele><time>2026-04-10T09:48:32.866Z</time></trkpt><trkpt lat="44.2300607" lon="5.4530733"><ele>900.8333333333334</ele><time>2026-04-10T09:48:33.861Z</time></trkpt><trkpt lat="44.2301497" lon="5.4530159"><ele>900.0</ele><time>2026-04-10T09:48:34.862Z</time></trkpt><trkpt lat="44.2302338" lon="5.4529924"><ele>899.0</ele><time>2026-04-10T09:48:35.859Z</time></trkpt><trkpt lat="44.2303262" lon="5.452954"><ele>898.0</ele><time>2026-04-10T09:48:36.863Z</time></trkpt><trkpt lat="44.2303887" lon="5.4528745"><ele>897.0</ele><time>2026-04-10T09:48:37.862Z</time></trkpt><trkpt lat="44.2304376" lon="5.4527761"><ele>896.0</ele><time>2026-04-10T09:48:38.859Z</time></trkpt><trkpt lat="44.2304753" lon="5.4526973"><ele>895.0</ele><time>2026-04-10T09:48:39.862Z</time></trkpt><trkpt lat="44.2305204" lon="5.4525815"><ele>894.0</ele><time>2026-04-10T09:48:41.865Z</time></trkpt><trkpt lat="44.2305449" lon="5.4524932"><ele>894.0</ele><time>2026-04-10T09:48:43.866Z</time></trkpt><trkpt lat="44.2305651" lon="5.4524018"><ele>894.0</ele><time>2026-04-10T09:48:45.861Z</time></trkpt><trkpt lat="44.2306072" lon="5.4523008"><ele>894.0</ele><time>2026-04-10T09:48:48.863Z</time></trkpt><trkpt lat="44.2306389" lon="5.452182"><ele>894.0</ele><time>2026-04-10T09:48:51.861Z</time></trkpt><trkpt lat="44.2306661" lon="5.452081"><ele>894.0</ele><time>2026-04-10T09:48:54.86Z</time></trkpt><trkpt lat="44.2307357" lon="5.451988"><ele>894.0</ele><time>2026-04-10T09:48:56.861Z</time></trkpt><trkpt lat="44.2307897" lon="5.4518702"><ele>894.4285714285713</ele><time>2026-04-10T09:48:58.859Z</time></trkpt><trkpt lat="44.2308432" lon="5.4518004"><ele>894.8571428571429</ele><time>2026-04-10T09:49:00.863Z</time></trkpt><trkpt lat="44.2308993" lon="5.4517173"><ele>895.2857142857142</ele><time>2026-04-10T09:49:02.865Z</time></trkpt><trkpt lat="44.2309367" lon="5.4516302"><ele>895.7142857142857</ele><time>2026-04-10T09:49:04.86Z</time></trkpt><trkpt lat="44.2309751" lon="5.4515584"><ele>896.1428571428571</ele><time>2026-04-10T09:49:07.861Z</time></trkpt><trkpt lat="44.2310248" lon="5.4514777"><ele>896.5714285714286</ele><time>2026-04-10T09:49:10.862Z</time></trkpt><trkpt lat="44.2310486" lon="5.4513696"><ele>897.0</ele><time>2026-04-10T09:49:13.859Z</time></trkpt><trkpt lat="44.2310369" lon="5.4512796"><ele>897.2</ele><time>2026-04-10T09:49:19.859Z</time></trkpt><trkpt lat="44.2310796" lon="5.4512124"><ele>897.4000000000001</ele><time>2026-04-10T09:49:46.856Z</time></trkpt><trkpt lat="44.2311178" lon="5.4510932"><ele>897.5999999999999</ele><time>2026-04-10T09:49:52.861Z</time></trkpt><trkpt lat="44.2311544" lon="5.4509947"><ele>897.8</ele><time>2026-04-10T09:49:54.862Z</time></trkpt><trkpt lat="44.2312254" lon="5.4507928"><ele>898.0</ele><time>2026-04-10T09:49:56.865Z</time></trkpt><trkpt lat="44.2312633" lon="5.4506827"><ele>897.9999999999999</ele><time>2026-04-10T09:49:57.863Z</time></trkpt><trkpt lat="44.2312878" lon="5.4505817"><ele>898.0</ele><time>2026-04-10T09:49:58.861Z</time></trkpt><trkpt lat="44.231309" lon="5.4504759"><ele>898.0</ele><time>2026-04-10T09:49:59.86Z</time></trkpt><trkpt lat="44.2313138" lon="5.4503624"><ele>898.0</ele><time>2026-04-10T09:50:00.867Z</time></trkpt><trkpt lat="44.2313121" lon="5.4502463"><ele>897.9999999999999</ele><time>2026-04-10T09:50:02.864Z</time></trkpt><trkpt lat="44.2313114" lon="5.4501503"><ele>898.0</ele><time>2026-04-10T09:50:04.863Z</time></trkpt><trkpt lat="44.2313643" lon="5.4500722"><ele>897.3333333333333</ele><time>2026-04-10T09:50:58.861Z</time></trkpt><trkpt lat="44.2313292" lon="5.4499389"><ele>896.6666666666666</ele><time>2026-04-10T09:51:10.862Z</time></trkpt><trkpt lat="44.2313272" lon="5.4498484"><ele>896.0</ele><time>2026-04-10T09:51:11.859Z</time></trkpt><trkpt lat="44.2313323" lon="5.4497564"><ele>895.3333333333333</ele><time>2026-04-10T09:51:12.86Z</time></trkpt><trkpt lat="44.2313396" lon="5.4496487"><ele>894.6666666666666</ele><time>2026-04-10T09:51:13.864Z</time></trkpt><trkpt lat="44.2313767" lon="5.4495268"><ele>894.0</ele><time>2026-04-10T09:51:14.861Z</time></trkpt><trkpt lat="44.2314197" lon="5.4494028"><ele>893.4000000000001</ele><time>2026-04-10T09:51:15.862Z</time></trkpt><trkpt lat="44.231464" lon="5.4492846"><ele>892.8000000000001</ele><time>2026-04-10T09:51:16.867Z</time></trkpt><trkpt lat="44.231507" lon="5.4491729"><ele>892.1999999999999</ele><time>2026-04-10T09:51:17.86Z</time></trkpt><trkpt lat="44.2315673" lon="5.4490637"><ele>891.5999999999999</ele><time>2026-04-10T09:51:18.859Z</time></trkpt><trkpt lat="44.2316363" lon="5.4489304"><ele>891.0</ele><time>2026-04-10T09:51:19.865Z</time></trkpt><trkpt lat="44.2317282" lon="5.4488393"><ele>891.0</ele><time>2026-04-10T09:51:20.865Z</time></trkpt><trkpt lat="44.2317866" lon="5.448721"><ele>890.9999999999999</ele><time>2026-04-10T09:51:21.864Z</time></trkpt><trkpt lat="44.2318541" lon="5.4486143"><ele>890.9999999999999</ele><time>2026-04-10T09:51:22.864Z</time></trkpt><trkpt lat="44.2319375" lon="5.4485271"><ele>891.0</ele><time>2026-04-10T09:51:23.865Z</time></trkpt><trkpt lat="44.2320219" lon="5.448436"><ele>891.0</ele><time>2026-04-10T09:51:24.859Z</time></trkpt><trkpt lat="44.2320933" lon="5.4483436"><ele>891.0</ele><time>2026-04-10T09:51:25.861Z</time></trkpt><trkpt lat="44.2321522" lon="5.4482373"><ele>890.9999999999999</ele><time>2026-04-10T09:51:26.861Z</time></trkpt><trkpt lat="44.2322069" lon="5.4480994"><ele>890.9999999999999</ele><time>2026-04-10T09:51:27.863Z</time></trkpt><trkpt lat="44.2322628" lon="5.447967"><ele>891.0</ele><time>2026-04-10T09:51:28.859Z</time></trkpt><trkpt lat="44.2323134" lon="5.4478423"><ele>891.0</ele><time>2026-04-10T09:51:29.865Z</time></trkpt><trkpt lat="44.2323782" lon="5.4476782"><ele>889.25</ele><time>2026-04-10T09:51:30.859Z</time></trkpt><trkpt lat="44.2324622" lon="5.4475306"><ele>887.5</ele><time>2026-04-10T09:51:31.863Z</time></trkpt><trkpt lat="44.2325428" lon="5.4474093"><ele>885.75</ele><time>2026-04-10T09:51:32.862Z</time></trkpt><trkpt lat="44.2326135" lon="5.4472738"><ele>884.0</ele><time>2026-04-10T09:51:33.862Z</time></trkpt><trkpt lat="44.2326688" lon="5.4471592"><ele>883.4000000000001</ele><time>2026-04-10T09:51:34.861Z</time></trkpt><trkpt lat="44.2327291" lon="5.4470337"><ele>882.8000000000001</ele><time>2026-04-10T09:51:35.856Z</time></trkpt><trkpt lat="44.2327854" lon="5.4469092"><ele>882.1999999999999</ele><time>2026-04-10T09:51:36.86Z</time></trkpt><trkpt lat="44.232824" lon="5.4468127"><ele>881.5999999999999</ele><time>2026-04-10T09:51:37.863Z</time></trkpt><trkpt lat="44.2328618" lon="5.4467119"><ele>881.0</ele><time>2026-04-10T09:51:38.861Z</time></trkpt><trkpt lat="44.232916" lon="5.4465995"><ele>881.0000000000001</ele><time>2026-04-10T09:51:39.861Z</time></trkpt><trkpt lat="44.2329798" lon="5.4465582"><ele>881.0</ele><time>2026-04-10T09:51:40.863Z</time></trkpt><trkpt lat="44.2330431" lon="5.4464729"><ele>881.0</ele><time>2026-04-10T09:51:41.865Z</time></trkpt><trkpt lat="44.2330914" lon="5.4463735"><ele>881.0</ele><time>2026-04-10T09:51:42.863Z</time></trkpt><trkpt lat="44.2331582" lon="5.4463231"><ele>881.0000000000001</ele><time>2026-04-10T09:51:43.861Z</time></trkpt><trkpt lat="44.2332339" lon="5.4462733"><ele>881.0</ele><time>2026-04-10T09:51:44.86Z</time></trkpt><trkpt lat="44.2332983" lon="5.4462101"><ele>880.4</ele><time>2026-04-10T09:51:45.867Z</time></trkpt><trkpt lat="44.2333653" lon="5.4461408"><ele>879.8</ele><time>2026-04-10T09:51:46.863Z</time></trkpt><trkpt lat="44.2334143" lon="5.4460459"><ele>879.1999999999999</ele><time>2026-04-10T09:51:47.865Z</time></trkpt><trkpt lat="44.2334473" lon="5.4459224"><ele>878.5999999999999</ele><time>2026-04-10T09:51:48.864Z</time></trkpt><trkpt lat="44.2334992" lon="5.4458076"><ele>878.0</ele><time>2026-04-10T09:51:49.86Z</time></trkpt><trkpt lat="44.2335827" lon="5.4456657"><ele>878.0</ele><time>2026-04-10T09:51:50.859Z</time></trkpt><trkpt lat="44.2336575" lon="5.4455144"><ele>878.0</ele><time>2026-04-10T09:51:51.86Z</time></trkpt><trkpt lat="44.233752" lon="5.445364"><ele>878.0</ele><time>2026-04-10T09:51:52.865Z</time></trkpt><trkpt lat="44.2338379" lon="5.4452264"><ele>878.0</ele><time>2026-04-10T09:51:53.861Z</time></trkpt><trkpt lat="44.2339217" lon="5.4450934"><ele>877.0</ele><time>2026-04-10T09:51:54.861Z</time></trkpt><trkpt lat="44.2339951" lon="5.4449436"><ele>876.0</ele><time>2026-04-10T09:51:55.861Z</time></trkpt><trkpt lat="44.2340703" lon="5.4447934"><ele>875.0</ele><time>2026-04-10T09:51:56.861Z</time></trkpt><trkpt lat="44.2341475" lon="5.4446324"><ele>874.0</ele><time>2026-04-10T09:51:57.86Z</time></trkpt><trkpt lat="44.2342291" lon="5.444467"><ele>873.8000000000001</ele><time>2026-04-10T09:51:58.868Z</time></trkpt><trkpt lat="44.234297" lon="5.4443196"><ele>873.6000000000001</ele><time>2026-04-10T09:51:59.868Z</time></trkpt><trkpt lat="44.2343617" lon="5.4441932"><ele>873.4</ele><time>2026-04-10T09:52:00.863Z</time></trkpt><trkpt lat="44.2344286" lon="5.4440948"><ele>873.2</ele><time>2026-04-10T09:52:01.859Z</time></trkpt><trkpt lat="44.2344874" lon="5.4440013"><ele>873.0</ele><time>2026-04-10T09:52:02.86Z</time></trkpt><trkpt lat="44.234527" lon="5.4439083"><ele>873.0</ele><time>2026-04-10T09:52:03.863Z</time></trkpt><trkpt lat="44.2345577" lon="5.4438012"><ele>873.0</ele><time>2026-04-10T09:52:04.864Z</time></trkpt><trkpt lat="44.2345945" lon="5.4436833"><ele>873.0</ele><time>2026-04-10T09:52:05.866Z</time></trkpt><trkpt lat="44.2346342" lon="5.4435628"><ele>873.0</ele><time>2026-04-10T09:52:06.865Z</time></trkpt><trkpt lat="44.2346727" lon="5.4434284"><ele>873.0</ele><time>2026-04-10T09:52:07.864Z</time></trkpt><trkpt lat="44.2347122" lon="5.4432903"><ele>872.8</ele><time>2026-04-10T09:52:08.865Z</time></trkpt><trkpt lat="44.2347587" lon="5.4431512"><ele>872.5999999999999</ele><time>2026-04-10T09:52:09.867Z</time></trkpt><trkpt lat="44.2348097" lon="5.4430278"><ele>872.4000000000001</ele><time>2026-04-10T09:52:10.862Z</time></trkpt><trkpt lat="44.2348722" lon="5.4429124"><ele>872.2</ele><time>2026-04-10T09:52:11.869Z</time></trkpt><trkpt lat="44.2349315" lon="5.4428083"><ele>872.0</ele><time>2026-04-10T09:52:12.861Z</time></trkpt><trkpt lat="44.2349868" lon="5.4426998"><ele>870.4000000000001</ele><time>2026-04-10T09:52:13.865Z</time></trkpt><trkpt lat="44.2350439" lon="5.4425785"><ele>868.8000000000001</ele><time>2026-04-10T09:52:14.863Z</time></trkpt><trkpt lat="44.235102" lon="5.4424448"><ele>867.2</ele><time>2026-04-10T09:52:15.862Z</time></trkpt><trkpt lat="44.2351503" lon="5.4423004"><ele>865.6</ele><time>2026-04-10T09:52:16.867Z</time></trkpt><trkpt lat="44.2352048" lon="5.4421649"><ele>864.0</ele><time>2026-04-10T09:52:17.866Z</time></trkpt><trkpt lat="44.2352683" lon="5.4420417"><ele>862.0</ele><time>2026-04-10T09:52:18.86Z</time></trkpt><trkpt lat="44.2353298" lon="5.4419166"><ele>860.0</ele><time>2026-04-10T09:52:19.864Z</time></trkpt><trkpt lat="44.235389" lon="5.4417823"><ele>858.0</ele><time>2026-04-10T09:52:20.869Z</time></trkpt><trkpt lat="44.2354506" lon="5.4416362"><ele>856.0</ele><time>2026-04-10T09:52:21.862Z</time></trkpt><trkpt lat="44.2355038" lon="5.4414874"><ele>856.0</ele><time>2026-04-10T09:52:22.859Z</time></trkpt><trkpt lat="44.2355548" lon="5.4413333"><ele>856.0</ele><time>2026-04-10T09:52:23.863Z</time></trkpt><trkpt lat="44.2356015" lon="5.4411818"><ele>856.0</ele><time>2026-04-10T09:52:24.863Z</time></trkpt><trkpt lat="44.2356538" lon="5.4410296"><ele>856.0</ele><time>2026-04-10T09:52:25.864Z</time></trkpt><trkpt lat="44.2357225" lon="5.4408823"><ele>855.75</ele><time>2026-04-10T09:52:26.863Z</time></trkpt><trkpt lat="44.2357972" lon="5.4407357"><ele>855.5</ele><time>2026-04-10T09:52:27.858Z</time></trkpt><trkpt lat="44.2358697" lon="5.4405914"><ele>855.25</ele><time>2026-04-10T09:52:28.871Z</time></trkpt><trkpt lat="44.235929" lon="5.4404411"><ele>855.0</ele><time>2026-04-10T09:52:29.867Z</time></trkpt><trkpt lat="44.2359823" lon="5.4402985"><ele>854.2</ele><time>2026-04-10T09:52:30.86Z</time></trkpt><trkpt lat="44.2360242" lon="5.4401781"><ele>853.4</ele><time>2026-04-10T09:52:31.859Z</time></trkpt><trkpt lat="44.2360567" lon="5.4400795"><ele>852.5999999999999</ele><time>2026-04-10T09:52:32.861Z</time></trkpt><trkpt lat="44.236086" lon="5.4400005"><ele>851.8</ele><time>2026-04-10T09:52:33.869Z</time></trkpt><trkpt lat="44.2361195" lon="5.4398541"><ele>851.0</ele><time>2026-04-10T09:52:35.863Z</time></trkpt><trkpt lat="44.2361422" lon="5.4397066"><ele>850.1999999999999</ele><time>2026-04-10T09:52:37.864Z</time></trkpt><trkpt lat="44.2361761" lon="5.4395678"><ele>849.4</ele><time>2026-04-10T09:52:39.861Z</time></trkpt><trkpt lat="44.2362233" lon="5.4394278"><ele>848.6</ele><time>2026-04-10T09:52:41.864Z</time></trkpt><trkpt lat="44.2362909" lon="5.4392666"><ele>847.8</ele><time>2026-04-10T09:52:43.864Z</time></trkpt><trkpt lat="44.2363384" lon="5.4391767"><ele>847.0</ele><time>2026-04-10T09:52:44.862Z</time></trkpt><trkpt lat="44.2363957" lon="5.4390899"><ele>846.9999999999999</ele><time>2026-04-10T09:52:45.863Z</time></trkpt><trkpt lat="44.2364491" lon="5.4390115"><ele>847.0</ele><time>2026-04-10T09:52:46.861Z</time></trkpt><trkpt lat="44.2364948" lon="5.4389357"><ele>847.0</ele><time>2026-04-10T09:52:47.866Z</time></trkpt><trkpt lat="44.2365413" lon="5.4388576"><ele>847.0</ele><time>2026-04-10T09:52:48.863Z</time></trkpt><trkpt lat="44.2365954" lon="5.438777"><ele>846.9999999999999</ele><time>2026-04-10T09:52:49.862Z</time></trkpt><trkpt lat="44.2366533" lon="5.4387026"><ele>847.0</ele><time>2026-04-10T09:52:50.858Z</time></trkpt><trkpt lat="44.2367075" lon="5.4386277"><ele>846.6666666666666</ele><time>2026-04-10T09:52:51.866Z</time></trkpt><trkpt lat="44.2367618" lon="5.4385381"><ele>846.3333333333333</ele><time>2026-04-10T09:52:52.863Z</time></trkpt><trkpt lat="44.2368382" lon="5.4384392"><ele>846.0</ele><time>2026-04-10T09:52:53.863Z</time></trkpt><trkpt lat="44.236899" lon="5.4383368"><ele>845.6666666666667</ele><time>2026-04-10T09:52:54.861Z</time></trkpt><trkpt lat="44.2369548" lon="5.4382458"><ele>845.3333333333334</ele><time>2026-04-10T09:52:55.861Z</time></trkpt><trkpt lat="44.2370111" lon="5.4381698"><ele>845.0</ele><time>2026-04-10T09:52:56.865Z</time></trkpt><trkpt lat="44.2370663" lon="5.4381013"><ele>845.0000000000001</ele><time>2026-04-10T09:52:57.862Z</time></trkpt><trkpt lat="44.2371199" lon="5.4380493"><ele>845.0</ele><time>2026-04-10T09:52:58.859Z</time></trkpt><trkpt lat="44.2371806" lon="5.4380141"><ele>845.0</ele><time>2026-04-10T09:52:59.859Z</time></trkpt><trkpt lat="44.2372543" lon="5.4379939"><ele>845.0</ele><time>2026-04-10T09:53:00.862Z</time></trkpt><trkpt lat="44.2373509" lon="5.4380082"><ele>845.0000000000001</ele><time>2026-04-10T09:53:01.864Z</time></trkpt><trkpt lat="44.2374526" lon="5.4380515"><ele>845.0</ele><time>2026-04-10T09:53:02.866Z</time></trkpt><trkpt lat="44.2375445" lon="5.4381246"><ele>843.75</ele><time>2026-04-10T09:53:03.86Z</time></trkpt><trkpt lat="44.2376372" lon="5.4382114"><ele>842.5</ele><time>2026-04-10T09:53:04.861Z</time></trkpt><trkpt lat="44.2377376" lon="5.438299"><ele>841.25</ele><time>2026-04-10T09:53:05.861Z</time></trkpt><trkpt lat="44.2378455" lon="5.4383753"><ele>840.0</ele><time>2026-04-10T09:53:06.867Z</time></trkpt><trkpt lat="44.2379571" lon="5.4384313"><ele>840.0</ele><time>2026-04-10T09:53:07.863Z</time></trkpt><trkpt lat="44.2380795" lon="5.4384547"><ele>840.0</ele><time>2026-04-10T09:53:08.869Z</time></trkpt><trkpt lat="44.2382029" lon="5.4384631"><ele>840.0</ele><time>2026-04-10T09:53:09.868Z</time></trkpt><trkpt lat="44.2383288" lon="5.4384573"><ele>840.0</ele><time>2026-04-10T09:53:10.863Z</time></trkpt><trkpt lat="44.2384513" lon="5.438442"><ele>839.0</ele><time>2026-04-10T09:53:11.86Z</time></trkpt><trkpt lat="44.2385672" lon="5.4384261"><ele>838.0</ele><time>2026-04-10T09:53:12.859Z</time></trkpt><trkpt lat="44.2386829" lon="5.4384085"><ele>837.0</ele><time>2026-04-10T09:53:13.867Z</time></trkpt><trkpt lat="44.2387841" lon="5.4383762"><ele>836.0</ele><time>2026-04-10T09:53:14.863Z</time></trkpt><trkpt lat="44.2388667" lon="5.4383108"><ele>835.0</ele><time>2026-04-10T09:53:15.863Z</time></trkpt><trkpt lat="44.238933" lon="5.4382254"><ele>835.0</ele><time>2026-04-10T09:53:16.863Z</time></trkpt><trkpt lat="44.2389397" lon="5.4380953"><ele>835.0</ele><time>2026-04-10T09:53:17.869Z</time></trkpt><trkpt lat="44.2389489" lon="5.437961"><ele>835.0</ele><time>2026-04-10T09:53:18.862Z</time></trkpt><trkpt lat="44.2389831" lon="5.4378397"><ele>835.0</ele><time>2026-04-10T09:53:19.864Z</time></trkpt><trkpt lat="44.2390563" lon="5.4377401"><ele>835.0</ele><time>2026-04-10T09:53:20.86Z</time></trkpt><trkpt lat="44.2391323" lon="5.4376719"><ele>834.4999999999999</ele><time>2026-04-10T09:53:21.864Z</time></trkpt><trkpt lat="44.2392151" lon="5.4376597"><ele>834.0</ele><time>2026-04-10T09:53:22.866Z</time></trkpt><trkpt lat="44.2392794" lon="5.4376692"><ele>833.5</ele><time>2026-04-10T09:53:23.864Z</time></trkpt><trkpt lat="44.2393283" lon="5.4377548"><ele>833.0</ele><time>2026-04-10T09:53:24.865Z</time></trkpt><trkpt lat="44.2393342" lon="5.437862"><ele>832.4999999999999</ele><time>2026-04-10T09:53:25.866Z</time></trkpt><trkpt lat="44.2393312" lon="5.437988"><ele>832.0</ele><time>2026-04-10T09:53:26.869Z</time></trkpt><trkpt lat="44.2393045" lon="5.438142"><ele>831.25</ele><time>2026-04-10T09:53:27.862Z</time></trkpt><trkpt lat="44.2392766" lon="5.4383088"><ele>830.5</ele><time>2026-04-10T09:53:28.869Z</time></trkpt><trkpt lat="44.2392692" lon="5.4384923"><ele>829.75</ele><time>2026-04-10T09:53:29.864Z</time></trkpt><trkpt lat="44.2392897" lon="5.4386814"><ele>829.0</ele><time>2026-04-10T09:53:30.856Z</time></trkpt><trkpt lat="44.2393297" lon="5.4388612"><ele>827.5</ele><time>2026-04-10T09:53:31.856Z</time></trkpt><trkpt lat="44.2393816" lon="5.4390347"><ele>826.0</ele><time>2026-04-10T09:53:32.861Z</time></trkpt><trkpt lat="44.2394385" lon="5.4391915"><ele>824.5</ele><time>2026-04-10T09:53:33.859Z</time></trkpt><trkpt lat="44.239515" lon="5.4393089"><ele>823.0</ele><time>2026-04-10T09:53:34.857Z</time></trkpt><trkpt lat="44.2396164" lon="5.4393753"><ele>823.0</ele><time>2026-04-10T09:53:35.858Z</time></trkpt><trkpt lat="44.2397411" lon="5.4393849"><ele>823.0</ele><time>2026-04-10T09:53:36.856Z</time></trkpt><trkpt lat="44.2398707" lon="5.4393786"><ele>823.0</ele><time>2026-04-10T09:53:37.863Z</time></trkpt><trkpt lat="44.2400241" lon="5.4393488"><ele>823.0</ele><time>2026-04-10T09:53:38.86Z</time></trkpt><trkpt lat="44.2401953" lon="5.4393532"><ele>822.6666666666666</ele><time>2026-04-10T09:53:39.861Z</time></trkpt><trkpt lat="44.240359" lon="5.4393867"><ele>822.3333333333333</ele><time>2026-04-10T09:53:40.859Z</time></trkpt><trkpt lat="44.2405151" lon="5.43943"><ele>822.0</ele><time>2026-04-10T09:53:41.864Z</time></trkpt><trkpt lat="44.2406651" lon="5.4394682"><ele>820.3333333333333</ele><time>2026-04-10T09:53:42.857Z</time></trkpt><trkpt lat="44.2408144" lon="5.4394719"><ele>818.6666666666666</ele><time>2026-04-10T09:53:43.857Z</time></trkpt><trkpt lat="44.2409686" lon="5.4394611"><ele>817.0</ele><time>2026-04-10T09:53:44.858Z</time></trkpt><trkpt lat="44.2411179" lon="5.4394725"><ele>817.0</ele><time>2026-04-10T09:53:45.856Z</time></trkpt><trkpt lat="44.2412571" lon="5.4395219"><ele>817.0</ele><time>2026-04-10T09:53:46.856Z</time></trkpt><trkpt lat="44.2413861" lon="5.439591"><ele>817.0</ele><time>2026-04-10T09:53:47.86Z</time></trkpt><trkpt lat="44.2414965" lon="5.4396758"><ele>817.0</ele><time>2026-04-10T09:53:48.867Z</time></trkpt><trkpt lat="44.2416085" lon="5.4397369"><ele>816.5</ele><time>2026-04-10T09:53:49.869Z</time></trkpt><trkpt lat="44.2417561" lon="5.439682"><ele>816.0</ele><time>2026-04-10T09:53:50.865Z</time></trkpt><trkpt lat="44.2418848" lon="5.4396395"><ele>815.5</ele><time>2026-04-10T09:53:51.866Z</time></trkpt><trkpt lat="44.2420083" lon="5.439589"><ele>815.0</ele><time>2026-04-10T09:53:52.866Z</time></trkpt><trkpt lat="44.2421159" lon="5.4394828"><ele>815.0</ele><time>2026-04-10T09:53:53.866Z</time></trkpt><trkpt lat="44.2422448" lon="5.4393638"><ele>815.0</ele><time>2026-04-10T09:53:54.859Z</time></trkpt><trkpt lat="44.2423691" lon="5.4392314"><ele>815.0</ele><time>2026-04-10T09:53:55.858Z</time></trkpt><trkpt lat="44.242477" lon="5.4391059"><ele>813.25</ele><time>2026-04-10T09:53:56.866Z</time></trkpt><trkpt lat="44.2425932" lon="5.4389826"><ele>811.5</ele><time>2026-04-10T09:53:57.866Z</time></trkpt><trkpt lat="44.242725" lon="5.4389056"><ele>809.75</ele><time>2026-04-10T09:53:58.861Z</time></trkpt><trkpt lat="44.2428691" lon="5.4388666"><ele>808.0</ele><time>2026-04-10T09:53:59.861Z</time></trkpt><trkpt lat="44.2429985" lon="5.4388614"><ele>806.0</ele><time>2026-04-10T09:54:00.861Z</time></trkpt><trkpt lat="44.2431545" lon="5.4389095"><ele>804.0</ele><time>2026-04-10T09:54:01.86Z</time></trkpt><trkpt lat="44.243298" lon="5.4389434"><ele>802.0</ele><time>2026-04-10T09:54:02.865Z</time></trkpt><trkpt lat="44.2434504" lon="5.4389707"><ele>802.0</ele><time>2026-04-10T09:54:03.858Z</time></trkpt><trkpt lat="44.2436049" lon="5.4389975"><ele>802.0</ele><time>2026-04-10T09:54:04.861Z</time></trkpt><trkpt lat="44.2437586" lon="5.4390279"><ele>802.0</ele><time>2026-04-10T09:54:05.863Z</time></trkpt><trkpt lat="44.2439139" lon="5.4390634"><ele>802.25</ele><time>2026-04-10T09:54:06.862Z</time></trkpt><trkpt lat="44.2440516" lon="5.4390999"><ele>802.5</ele><time>2026-04-10T09:54:07.862Z</time></trkpt><trkpt lat="44.2441853" lon="5.4391627"><ele>802.75</ele><time>2026-04-10T09:54:08.863Z</time></trkpt><trkpt lat="44.2443246" lon="5.4392352"><ele>803.0</ele><time>2026-04-10T09:54:09.858Z</time></trkpt><trkpt lat="44.2444747" lon="5.4393015"><ele>803.0</ele><time>2026-04-10T09:54:10.862Z</time></trkpt><trkpt lat="44.2446129" lon="5.4393655"><ele>803.0</ele><time>2026-04-10T09:54:11.861Z</time></trkpt><trkpt lat="44.2447485" lon="5.4394289"><ele>803.0</ele><time>2026-04-10T09:54:12.866Z</time></trkpt><trkpt lat="44.2448805" lon="5.4394744"><ele>803.0</ele><time>2026-04-10T09:54:13.859Z</time></trkpt><trkpt lat="44.2450162" lon="5.4395001"><ele>802.25</ele><time>2026-04-10T09:54:14.864Z</time></trkpt><trkpt lat="44.2451463" lon="5.4395386"><ele>801.5</ele><time>2026-04-10T09:54:15.865Z</time></trkpt><trkpt lat="44.245289" lon="5.439562"><ele>800.75</ele><time>2026-04-10T09:54:16.865Z</time></trkpt><trkpt lat="44.2454249" lon="5.4395845"><ele>800.0</ele><time>2026-04-10T09:54:17.86Z</time></trkpt><trkpt lat="44.2455853" lon="5.439611"><ele>798.0</ele><time>2026-04-10T09:54:18.871Z</time></trkpt><trkpt lat="44.245747" lon="5.4396391"><ele>796.0</ele><time>2026-04-10T09:54:19.864Z</time></trkpt><trkpt lat="44.2459105" lon="5.439667"><ele>794.0</ele><time>2026-04-10T09:54:20.863Z</time></trkpt><trkpt lat="44.2460775" lon="5.439703"><ele>794.0</ele><time>2026-04-10T09:54:21.864Z</time></trkpt><trkpt lat="44.2462521" lon="5.4397392"><ele>794.0</ele><time>2026-04-10T09:54:22.869Z</time></trkpt><trkpt lat="44.2464405" lon="5.4397812"><ele>794.0</ele><time>2026-04-10T09:54:23.869Z</time></trkpt><trkpt lat="44.2466182" lon="5.4398184"><ele>793.0</ele><time>2026-04-10T09:54:24.864Z</time></trkpt><trkpt lat="44.2467859" lon="5.439845"><ele>792.0</ele><time>2026-04-10T09:54:25.859Z</time></trkpt><trkpt lat="44.2469209" lon="5.43988"><ele>791.0</ele><time>2026-04-10T09:54:26.86Z</time></trkpt><trkpt lat="44.2470635" lon="5.4399099"><ele>791.0</ele><time>2026-04-10T09:54:27.866Z</time></trkpt><trkpt lat="44.2471571" lon="5.4399603"><ele>791.0</ele><time>2026-04-10T09:54:28.865Z</time></trkpt><trkpt lat="44.2472626" lon="5.4400024"><ele>791.0</ele><time>2026-04-10T09:54:29.863Z</time></trkpt><trkpt lat="44.2473418" lon="5.440045"><ele>791.0</ele><time>2026-04-10T09:54:30.866Z</time></trkpt><trkpt lat="44.2474113" lon="5.4400779"><ele>791.0</ele><time>2026-04-10T09:54:31.864Z</time></trkpt><trkpt lat="44.2475125" lon="5.4401072"><ele>791.5714285714286</ele><time>2026-04-10T09:54:33.864Z</time></trkpt><trkpt lat="44.2475812" lon="5.4400867"><ele>792.1428571428571</ele><time>2026-04-10T09:54:35.865Z</time></trkpt><trkpt lat="44.2476353" lon="5.4400416"><ele>792.7142857142858</ele><time>2026-04-10T09:54:38.861Z</time></trkpt><trkpt lat="44.2476942" lon="5.4399944"><ele>793.2857142857142</ele><time>2026-04-10T09:54:41.864Z</time></trkpt><trkpt lat="44.2476515" lon="5.4400601"><ele>793.8571428571429</ele><time>2026-04-10T09:55:02.855Z</time></trkpt><trkpt lat="44.2476102" lon="5.4401289"><ele>794.4285714285714</ele><time>2026-04-10T09:55:07.861Z</time></trkpt><trkpt lat="44.2475794" lon="5.4402119"><ele>795.0</ele><time>2026-04-10T09:55:10.865Z</time></trkpt><trkpt lat="44.2476551" lon="5.4402577"><ele>795.0</ele><time>2026-04-10T09:55:12.865Z</time></trkpt><trkpt lat="44.2477595" lon="5.4403496"><ele>795.0</ele><time>2026-04-10T09:55:14.861Z</time></trkpt><trkpt lat="44.2478432" lon="5.440425"><ele>795.0</ele><time>2026-04-10T09:55:16.859Z</time></trkpt><trkpt lat="44.2479218" lon="5.4404524"><ele>795.0</ele><time>2026-04-10T09:55:18.858Z</time></trkpt><trkpt lat="44.2479927" lon="5.4404414"><ele>795.0</ele><time>2026-04-10T09:55:20.858Z</time></trkpt><trkpt lat="44.2480712" lon="5.4403982"><ele>794.8</ele><time>2026-04-10T09:55:22.857Z</time></trkpt><trkpt lat="44.2481596" lon="5.4403713"><ele>794.6</ele><time>2026-04-10T09:55:24.857Z</time></trkpt><trkpt lat="44.2482192" lon="5.4402586"><ele>794.4000000000001</ele><time>2026-04-10T09:55:27.859Z</time></trkpt><trkpt lat="44.2482777" lon="5.440225"><ele>794.2</ele><time>2026-04-10T09:55:29.86Z</time></trkpt><trkpt lat="44.2483771" lon="5.4401923"><ele>794.0</ele><time>2026-04-10T09:55:31.86Z</time></trkpt><trkpt lat="44.2485007" lon="5.4401422"><ele>794.0</ele><time>2026-04-10T09:55:33.858Z</time></trkpt><trkpt lat="44.2486272" lon="5.4401734"><ele>794.0</ele><time>2026-04-10T09:55:35.861Z</time></trkpt><trkpt lat="44.2487251" lon="5.4401912"><ele>794.0</ele><time>2026-04-10T09:55:37.86Z</time></trkpt><trkpt lat="44.248801" lon="5.4401731"><ele>794.0</ele><time>2026-04-10T09:55:39.864Z</time></trkpt><trkpt lat="44.2489121" lon="5.4401666"><ele>794.0</ele><time>2026-04-10T09:55:41.858Z</time></trkpt><trkpt lat="44.2489808" lon="5.4401674"><ele>793.8333333333334</ele><time>2026-04-10T09:55:42.861Z</time></trkpt><trkpt lat="44.2490702" lon="5.4401673"><ele>793.6666666666667</ele><time>2026-04-10T09:55:43.863Z</time></trkpt><trkpt lat="44.2491574" lon="5.4401599"><ele>793.5</ele><time>2026-04-10T09:55:44.858Z</time></trkpt><trkpt lat="44.2492368" lon="5.4401647"><ele>793.3333333333333</ele><time>2026-04-10T09:55:45.861Z</time></trkpt><trkpt lat="44.2493176" lon="5.4401838"><ele>793.1666666666666</ele><time>2026-04-10T09:55:46.862Z</time></trkpt><trkpt lat="44.2493891" lon="5.4402019"><ele>793.0</ele><time>2026-04-10T09:55:47.859Z</time></trkpt><trkpt lat="44.2495098" lon="5.4401946"><ele>793.0</ele><time>2026-04-10T09:55:49.859Z</time></trkpt><trkpt lat="44.2496288" lon="5.4401789"><ele>793.0</ele><time>2026-04-10T09:55:51.863Z</time></trkpt><trkpt lat="44.2497127" lon="5.4401764"><ele>793.0</ele><time>2026-04-10T09:55:52.863Z</time></trkpt><trkpt lat="44.2498001" lon="5.4401882"><ele>793.0</ele><time>2026-04-10T09:55:53.864Z</time></trkpt><trkpt lat="44.2498896" lon="5.4402042"><ele>793.0</ele><time>2026-04-10T09:55:54.868Z</time></trkpt><trkpt lat="44.2499823" lon="5.4402147"><ele>792.5999999999999</ele><time>2026-04-10T09:55:55.873Z</time></trkpt><trkpt lat="44.2500718" lon="5.4402068"><ele>792.1999999999999</ele><time>2026-04-10T09:55:56.867Z</time></trkpt><trkpt lat="44.2501673" lon="5.4401977"><ele>791.8</ele><time>2026-04-10T09:55:57.864Z</time></trkpt><trkpt lat="44.250261" lon="5.4401903"><ele>791.4</ele><time>2026-04-10T09:55:58.861Z</time></trkpt><trkpt lat="44.2503501" lon="5.4401815"><ele>791.0</ele><time>2026-04-10T09:55:59.862Z</time></trkpt><trkpt lat="44.2504316" lon="5.4401702"><ele>791.0</ele><time>2026-04-10T09:56:00.866Z</time></trkpt><trkpt lat="44.2505115" lon="5.4401493"><ele>791.0</ele><time>2026-04-10T09:56:01.864Z</time></trkpt><trkpt lat="44.2506025" lon="5.440115"><ele>791.0</ele><time>2026-04-10T09:56:02.857Z</time></trkpt><trkpt lat="44.2507036" lon="5.4400584"><ele>791.0</ele><time>2026-04-10T09:56:03.864Z</time></trkpt><trkpt lat="44.250816" lon="5.4399952"><ele>791.0</ele><time>2026-04-10T09:56:04.863Z</time></trkpt><trkpt lat="44.2509243" lon="5.4399303"><ele>790.1999999999999</ele><time>2026-04-10T09:56:05.861Z</time></trkpt><trkpt lat="44.2510213" lon="5.4398759"><ele>789.4</ele><time>2026-04-10T09:56:06.864Z</time></trkpt><trkpt lat="44.2511132" lon="5.4398431"><ele>788.6</ele><time>2026-04-10T09:56:07.861Z</time></trkpt><trkpt lat="44.2512058" lon="5.4398099"><ele>787.8</ele><time>2026-04-10T09:56:08.863Z</time></trkpt><trkpt lat="44.2512828" lon="5.4397706"><ele>787.0</ele><time>2026-04-10T09:56:09.863Z</time></trkpt><trkpt lat="44.2513519" lon="5.4397059"><ele>786.9999999999999</ele><time>2026-04-10T09:56:10.868Z</time></trkpt><trkpt lat="44.2514201" lon="5.4396463"><ele>787.0</ele><time>2026-04-10T09:56:11.861Z</time></trkpt><trkpt lat="44.2514805" lon="5.4396048"><ele>787.0</ele><time>2026-04-10T09:56:12.865Z</time></trkpt><trkpt lat="44.2515399" lon="5.4395653"><ele>787.0</ele><time>2026-04-10T09:56:13.867Z</time></trkpt><trkpt lat="44.2516088" lon="5.4395298"><ele>786.9999999999999</ele><time>2026-04-10T09:56:14.868Z</time></trkpt><trkpt lat="44.2516881" lon="5.4394836"><ele>787.0</ele><time>2026-04-10T09:56:15.866Z</time></trkpt><trkpt lat="44.2517665" lon="5.4394083"><ele>787.6</ele><time>2026-04-10T09:56:16.859Z</time></trkpt><trkpt lat="44.2518448" lon="5.4393125"><ele>788.2</ele><time>2026-04-10T09:56:17.861Z</time></trkpt><trkpt lat="44.2519249" lon="5.4392099"><ele>788.8</ele><time>2026-04-10T09:56:18.863Z</time></trkpt><trkpt lat="44.2520168" lon="5.4391314"><ele>789.4</ele><time>2026-04-10T09:56:19.859Z</time></trkpt><trkpt lat="44.2521054" lon="5.4390535"><ele>790.0</ele><time>2026-04-10T09:56:20.857Z</time></trkpt><trkpt lat="44.2522032" lon="5.438964"><ele>789.6</ele><time>2026-04-10T09:56:21.857Z</time></trkpt><trkpt lat="44.252292" lon="5.4388808"><ele>789.2</ele><time>2026-04-10T09:56:22.858Z</time></trkpt><trkpt lat="44.2523832" lon="5.4388283"><ele>788.8</ele><time>2026-04-10T09:56:23.857Z</time></trkpt><trkpt lat="44.2524826" lon="5.4387688"><ele>788.4</ele><time>2026-04-10T09:56:24.862Z</time></trkpt><trkpt lat="44.2525816" lon="5.4387026"><ele>788.0</ele><time>2026-04-10T09:56:25.862Z</time></trkpt><trkpt lat="44.2526866" lon="5.4386369"><ele>788.0</ele><time>2026-04-10T09:56:26.863Z</time></trkpt><trkpt lat="44.2527991" lon="5.4385748"><ele>788.0</ele><time>2026-04-10T09:56:27.857Z</time></trkpt><trkpt lat="44.2529208" lon="5.4385143"><ele>788.0</ele><time>2026-04-10T09:56:28.856Z</time></trkpt><trkpt lat="44.2530268" lon="5.4384853"><ele>788.0</ele><time>2026-04-10T09:56:29.858Z</time></trkpt><trkpt lat="44.2531334" lon="5.4384889"><ele>785.8</ele><time>2026-04-10T09:56:30.862Z</time></trkpt><trkpt lat="44.2532427" lon="5.4384979"><ele>783.5999999999999</ele><time>2026-04-10T09:56:31.861Z</time></trkpt><trkpt lat="44.2533538" lon="5.4385048"><ele>781.4000000000001</ele><time>2026-04-10T09:56:32.864Z</time></trkpt><trkpt lat="44.2534548" lon="5.4385041"><ele>779.2</ele><time>2026-04-10T09:56:33.86Z</time></trkpt><trkpt lat="44.2535393" lon="5.4385143"><ele>777.0</ele><time>2026-04-10T09:56:34.863Z</time></trkpt><trkpt lat="44.2536141" lon="5.4385158"><ele>777.0</ele><time>2026-04-10T09:56:35.865Z</time></trkpt><trkpt lat="44.2536822" lon="5.4384946"><ele>777.0</ele><time>2026-04-10T09:56:36.861Z</time></trkpt><trkpt lat="44.2537436" lon="5.4384402"><ele>777.0</ele><time>2026-04-10T09:56:37.86Z</time></trkpt><trkpt lat="44.2537772" lon="5.438355"><ele>777.0</ele><time>2026-04-10T09:56:38.864Z</time></trkpt><trkpt lat="44.2538195" lon="5.4382731"><ele>777.0</ele><time>2026-04-10T09:56:39.861Z</time></trkpt><trkpt lat="44.2538693" lon="5.4382014"><ele>777.0</ele><time>2026-04-10T09:56:40.857Z</time></trkpt><trkpt lat="44.2539179" lon="5.4381054"><ele>777.0</ele><time>2026-04-10T09:56:42.859Z</time></trkpt><trkpt lat="44.2539823" lon="5.4379559"><ele>776.0</ele><time>2026-04-10T09:58:37.859Z</time></trkpt><trkpt lat="44.2540666" lon="5.4378128"><ele>775.0</ele><time>2026-04-10T09:58:39.86Z</time></trkpt><trkpt lat="44.2541292" lon="5.4377405"><ele>774.0</ele><time>2026-04-10T09:58:40.857Z</time></trkpt><trkpt lat="44.2542236" lon="5.4377017"><ele>773.0</ele><time>2026-04-10T09:58:41.858Z</time></trkpt><trkpt lat="44.2543344" lon="5.437664"><ele>772.0</ele><time>2026-04-10T09:58:42.859Z</time></trkpt><trkpt lat="44.2544589" lon="5.4376302"><ele>772.0</ele><time>2026-04-10T09:58:43.859Z</time></trkpt><trkpt lat="44.2545676" lon="5.4376093"><ele>772.0</ele><time>2026-04-10T09:58:44.857Z</time></trkpt><trkpt lat="44.2546825" lon="5.4376001"><ele>772.0</ele><time>2026-04-10T09:58:45.861Z</time></trkpt><trkpt lat="44.2547887" lon="5.4376004"><ele>772.0</ele><time>2026-04-10T09:58:46.859Z</time></trkpt><trkpt lat="44.2548945" lon="5.4375754"><ele>772.0</ele><time>2026-04-10T09:58:47.856Z</time></trkpt><trkpt lat="44.254997" lon="5.4375104"><ele>770.5</ele><time>2026-04-10T09:58:48.856Z</time></trkpt><trkpt lat="44.2550883" lon="5.4374273"><ele>769.0</ele><time>2026-04-10T09:58:49.86Z</time></trkpt><trkpt lat="44.255179" lon="5.4373373"><ele>767.5</ele><time>2026-04-10T09:58:50.861Z</time></trkpt><trkpt lat="44.2552781" lon="5.43724"><ele>766.0</ele><time>2026-04-10T09:58:51.858Z</time></trkpt><trkpt lat="44.255374" lon="5.4371432"><ele>765.5</ele><time>2026-04-10T09:58:52.858Z</time></trkpt><trkpt lat="44.2554809" lon="5.4370396"><ele>765.0</ele><time>2026-04-10T09:58:53.856Z</time></trkpt><trkpt lat="44.2555658" lon="5.4369445"><ele>764.5</ele><time>2026-04-10T09:58:54.863Z</time></trkpt><trkpt lat="44.2556428" lon="5.4368328"><ele>764.0</ele><time>2026-04-10T09:58:55.859Z</time></trkpt><trkpt lat="44.2557122" lon="5.4366947"><ele>764.0</ele><time>2026-04-10T09:58:56.858Z</time></trkpt><trkpt lat="44.2557827" lon="5.4365611"><ele>764.0</ele><time>2026-04-10T09:58:57.858Z</time></trkpt><trkpt lat="44.2558272" lon="5.4364209"><ele>764.0</ele><time>2026-04-10T09:58:58.857Z</time></trkpt><trkpt lat="44.2558639" lon="5.4362942"><ele>764.0</ele><time>2026-04-10T09:58:59.858Z</time></trkpt><trkpt lat="44.2558985" lon="5.436172"><ele>764.0</ele><time>2026-04-10T09:59:00.86Z</time></trkpt><trkpt lat="44.2559495" lon="5.4360889"><ele>764.1666666666666</ele><time>2026-04-10T09:59:01.856Z</time></trkpt><trkpt lat="44.2559732" lon="5.4360049"><ele>764.3333333333333</ele><time>2026-04-10T09:59:02.862Z</time></trkpt><trkpt lat="44.2560694" lon="5.4359633"><ele>764.5</ele><time>2026-04-10T09:59:04.856Z</time></trkpt><trkpt lat="44.2561354" lon="5.4359681"><ele>764.6666666666666</ele><time>2026-04-10T09:59:05.855Z</time></trkpt><trkpt lat="44.256217" lon="5.4359771"><ele>764.8333333333334</ele><time>2026-04-10T09:59:06.859Z</time></trkpt><trkpt lat="44.2563153" lon="5.4359809"><ele>765.0</ele><time>2026-04-10T09:59:07.857Z</time></trkpt><trkpt lat="44.2564004" lon="5.4359786"><ele>764.0</ele><time>2026-04-10T09:59:08.858Z</time></trkpt><trkpt lat="44.2564791" lon="5.4359412"><ele>763.0</ele><time>2026-04-10T09:59:09.855Z</time></trkpt><trkpt lat="44.2565544" lon="5.4358777"><ele>762.0</ele><time>2026-04-10T09:59:10.86Z</time></trkpt><trkpt lat="44.256624" lon="5.4357861"><ele>761.0</ele><time>2026-04-10T09:59:11.858Z</time></trkpt><trkpt lat="44.2566942" lon="5.4356942"><ele>760.0</ele><time>2026-04-10T09:59:12.864Z</time></trkpt><trkpt lat="44.2567681" lon="5.435606"><ele>760.0</ele><time>2026-04-10T09:59:13.859Z</time></trkpt><trkpt lat="44.25684" lon="5.4355314"><ele>760.0</ele><time>2026-04-10T09:59:14.858Z</time></trkpt><trkpt lat="44.2569303" lon="5.4355159"><ele>760.0</ele><time>2026-04-10T09:59:15.857Z</time></trkpt><trkpt lat="44.2570422" lon="5.435539"><ele>760.0</ele><time>2026-04-10T09:59:16.864Z</time></trkpt><trkpt lat="44.2571453" lon="5.4355872"><ele>760.0</ele><time>2026-04-10T09:59:17.854Z</time></trkpt><trkpt lat="44.2572373" lon="5.4356291"><ele>760.8333333333334</ele><time>2026-04-10T09:59:18.859Z</time></trkpt><trkpt lat="44.2573207" lon="5.4356506"><ele>761.6666666666667</ele><time>2026-04-10T09:59:19.858Z</time></trkpt><trkpt lat="44.2574" lon="5.4356433"><ele>762.5</ele><time>2026-04-10T09:59:20.857Z</time></trkpt><trkpt lat="44.2574723" lon="5.4356387"><ele>763.3333333333334</ele><time>2026-04-10T09:59:21.856Z</time></trkpt><trkpt lat="44.2575366" lon="5.4356384"><ele>764.1666666666666</ele><time>2026-04-10T09:59:22.855Z</time></trkpt><trkpt lat="44.2576371" lon="5.4355637"><ele>765.0</ele><time>2026-04-10T09:59:24.858Z</time></trkpt><trkpt lat="44.2576754" lon="5.4354841"><ele>764.4</ele><time>2026-04-10T09:59:25.864Z</time></trkpt><trkpt lat="44.2577111" lon="5.4353733"><ele>763.8</ele><time>2026-04-10T09:59:26.86Z</time></trkpt><trkpt lat="44.2577499" lon="5.4352448"><ele>763.2</ele><time>2026-04-10T09:59:27.855Z</time></trkpt><trkpt lat="44.2577898" lon="5.4350972"><ele>762.6</ele><time>2026-04-10T09:59:28.863Z</time></trkpt><trkpt lat="44.2578345" lon="5.434948"><ele>762.0</ele><time>2026-04-10T09:59:29.863Z</time></trkpt><trkpt lat="44.2578888" lon="5.4347748"><ele>761.5</ele><time>2026-04-10T09:59:30.858Z</time></trkpt><trkpt lat="44.2579382" lon="5.4346006"><ele>761.0</ele><time>2026-04-10T09:59:31.861Z</time></trkpt><trkpt lat="44.2579894" lon="5.4344257"><ele>760.5</ele><time>2026-04-10T09:59:32.856Z</time></trkpt><trkpt lat="44.2580462" lon="5.4342325"><ele>760.0</ele><time>2026-04-10T09:59:33.856Z</time></trkpt><trkpt lat="44.2581084" lon="5.4340436"><ele>761.25</ele><time>2026-04-10T09:59:34.859Z</time></trkpt><trkpt lat="44.2581641" lon="5.4338526"><ele>762.5</ele><time>2026-04-10T09:59:35.855Z</time></trkpt><trkpt lat="44.2582125" lon="5.4336749"><ele>763.75</ele><time>2026-04-10T09:59:36.856Z</time></trkpt><trkpt lat="44.2582633" lon="5.4335006"><ele>765.0</ele><time>2026-04-10T09:59:37.861Z</time></trkpt><trkpt lat="44.2583071" lon="5.4333386"><ele>765.0</ele><time>2026-04-10T09:59:38.862Z</time></trkpt><trkpt lat="44.2583564" lon="5.4331653"><ele>765.0</ele><time>2026-04-10T09:59:39.858Z</time></trkpt><trkpt lat="44.2584033" lon="5.4329939"><ele>765.0</ele><time>2026-04-10T09:59:40.855Z</time></trkpt><trkpt lat="44.258446" lon="5.4328233"><ele>765.0</ele><time>2026-04-10T09:59:41.86Z</time></trkpt><trkpt lat="44.2584978" lon="5.4326501"><ele>764.0</ele><time>2026-04-10T09:59:42.857Z</time></trkpt><trkpt lat="44.2585613" lon="5.4324677"><ele>763.0</ele><time>2026-04-10T09:59:43.863Z</time></trkpt><trkpt lat="44.2586442" lon="5.4322932"><ele>762.0</ele><time>2026-04-10T09:59:44.864Z</time></trkpt><trkpt lat="44.2587408" lon="5.4321369"><ele>761.0</ele><time>2026-04-10T09:59:45.863Z</time></trkpt><trkpt lat="44.2588409" lon="5.4319773"><ele>760.75</ele><time>2026-04-10T09:59:46.863Z</time></trkpt><trkpt lat="44.2589531" lon="5.4318203"><ele>760.5</ele><time>2026-04-10T09:59:47.861Z</time></trkpt><trkpt lat="44.259045" lon="5.4316692"><ele>760.25</ele><time>2026-04-10T09:59:48.857Z</time></trkpt><trkpt lat="44.2591424" lon="5.43152"><ele>760.0</ele><time>2026-04-10T09:59:49.857Z</time></trkpt><trkpt lat="44.2592298" lon="5.4313856"><ele>759.25</ele><time>2026-04-10T09:59:50.86Z</time></trkpt><trkpt lat="44.259321" lon="5.4312501"><ele>758.5</ele><time>2026-04-10T09:59:51.858Z</time></trkpt><trkpt lat="44.2594189" lon="5.4311536"><ele>757.75</ele><time>2026-04-10T09:59:52.863Z</time></trkpt><trkpt lat="44.2595147" lon="5.4310637"><ele>757.0</ele><time>2026-04-10T09:59:53.856Z</time></trkpt><trkpt lat="44.2596074" lon="5.4309757"><ele>757.0</ele><time>2026-04-10T09:59:54.859Z</time></trkpt><trkpt lat="44.2596954" lon="5.4308858"><ele>757.0</ele><time>2026-04-10T09:59:55.861Z</time></trkpt><trkpt lat="44.2597824" lon="5.4308019"><ele>757.0</ele><time>2026-04-10T09:59:56.863Z</time></trkpt><trkpt lat="44.2598853" lon="5.4307181"><ele>757.0</ele><time>2026-04-10T09:59:57.855Z</time></trkpt><trkpt lat="44.2599663" lon="5.4306375"><ele>757.0</ele><time>2026-04-10T09:59:58.861Z</time></trkpt><trkpt lat="44.2600726" lon="5.430569"><ele>757.25</ele><time>2026-04-10T09:59:59.859Z</time></trkpt><trkpt lat="44.260189" lon="5.4304756"><ele>757.5</ele><time>2026-04-10T10:00:00.859Z</time></trkpt><trkpt lat="44.2602777" lon="5.4303926"><ele>757.75</ele><time>2026-04-10T10:00:01.863Z</time></trkpt><trkpt lat="44.260378" lon="5.4303105"><ele>758.0</ele><time>2026-04-10T10:00:02.86Z</time></trkpt><trkpt lat="44.2604824" lon="5.43024"><ele>758.0</ele><time>2026-04-10T10:00:03.864Z</time></trkpt><trkpt lat="44.2605912" lon="5.4301685"><ele>758.0</ele><time>2026-04-10T10:00:04.863Z</time></trkpt><trkpt lat="44.2606957" lon="5.4300973"><ele>758.0</ele><time>2026-04-10T10:00:05.857Z</time></trkpt><trkpt lat="44.2607924" lon="5.430043"><ele>758.0</ele><time>2026-04-10T10:00:06.858Z</time></trkpt><trkpt lat="44.2609024" lon="5.4299881"><ele>758.25</ele><time>2026-04-10T10:00:07.856Z</time></trkpt><trkpt lat="44.2610224" lon="5.4299425"><ele>758.5</ele><time>2026-04-10T10:00:08.858Z</time></trkpt><trkpt lat="44.2611515" lon="5.4299026"><ele>758.75</ele><time>2026-04-10T10:00:09.861Z</time></trkpt><trkpt lat="44.2612947" lon="5.4298523"><ele>759.0</ele><time>2026-04-10T10:00:10.861Z</time></trkpt><trkpt lat="44.2614317" lon="5.4298126"><ele>759.6666666666666</ele><time>2026-04-10T10:00:11.858Z</time></trkpt><trkpt lat="44.2615842" lon="5.4297767"><ele>760.3333333333333</ele><time>2026-04-10T10:00:12.856Z</time></trkpt><trkpt lat="44.2617439" lon="5.4297663"><ele>761.0</ele><time>2026-04-10T10:00:13.861Z</time></trkpt><trkpt lat="44.2618996" lon="5.4297597"><ele>761.0</ele><time>2026-04-10T10:00:14.856Z</time></trkpt><trkpt lat="44.2620651" lon="5.4297539"><ele>761.0</ele><time>2026-04-10T10:00:15.856Z</time></trkpt><trkpt lat="44.2622378" lon="5.4297517"><ele>761.0</ele><time>2026-04-10T10:00:16.858Z</time></trkpt><trkpt lat="44.2624156" lon="5.4297559"><ele>761.6666666666666</ele><time>2026-04-10T10:00:17.854Z</time></trkpt><trkpt lat="44.2625899" lon="5.4297471"><ele>762.3333333333334</ele><time>2026-04-10T10:00:18.864Z</time></trkpt><trkpt lat="44.2627711" lon="5.4296828"><ele>763.0</ele><time>2026-04-10T10:00:19.867Z</time></trkpt><trkpt lat="44.2629491" lon="5.4296172"><ele>760.6666666666667</ele><time>2026-04-10T10:00:20.863Z</time></trkpt><trkpt lat="44.2631013" lon="5.4295222"><ele>758.3333333333334</ele><time>2026-04-10T10:00:21.857Z</time></trkpt><trkpt lat="44.2632365" lon="5.4293749"><ele>756.0</ele><time>2026-04-10T10:00:22.862Z</time></trkpt><trkpt lat="44.2633526" lon="5.429144"><ele>756.0</ele><time>2026-04-10T10:00:23.862Z</time></trkpt><trkpt lat="44.2634745" lon="5.4289784"><ele>756.0</ele><time>2026-04-10T10:00:24.857Z</time></trkpt><trkpt lat="44.2636052" lon="5.4288195"><ele>756.0</ele><time>2026-04-10T10:00:25.855Z</time></trkpt><trkpt lat="44.2637478" lon="5.4286657"><ele>756.0</ele><time>2026-04-10T10:00:26.859Z</time></trkpt><trkpt lat="44.2638838" lon="5.4284945"><ele>756.0</ele><time>2026-04-10T10:00:27.864Z</time></trkpt><trkpt lat="44.2640168" lon="5.4283458"><ele>756.0</ele><time>2026-04-10T10:00:28.862Z</time></trkpt><trkpt lat="44.2641503" lon="5.4281912"><ele>756.0</ele><time>2026-04-10T10:00:29.86Z</time></trkpt><trkpt lat="44.2642785" lon="5.4280085"><ele>756.0</ele><time>2026-04-10T10:00:30.857Z</time></trkpt><trkpt lat="44.2644024" lon="5.4278342"><ele>756.0</ele><time>2026-04-10T10:00:31.857Z</time></trkpt><trkpt lat="44.2645228" lon="5.427652"><ele>753.3333333333334</ele><time>2026-04-10T10:00:32.857Z</time></trkpt><trkpt lat="44.2646342" lon="5.427468"><ele>750.6666666666667</ele><time>2026-04-10T10:00:33.862Z</time></trkpt><trkpt lat="44.2647623" lon="5.4272829"><ele>748.0</ele><time>2026-04-10T10:00:34.856Z</time></trkpt><trkpt lat="44.2648789" lon="5.4271043"><ele>748.0</ele><time>2026-04-10T10:00:35.857Z</time></trkpt><trkpt lat="44.2650039" lon="5.4269344"><ele>748.0</ele><time>2026-04-10T10:00:36.855Z</time></trkpt><trkpt lat="44.2651291" lon="5.4267584"><ele>748.0</ele><time>2026-04-10T10:00:37.861Z</time></trkpt><trkpt lat="44.265264" lon="5.4266147"><ele>748.0</ele><time>2026-04-10T10:00:38.863Z</time></trkpt><trkpt lat="44.2653929" lon="5.4264451"><ele>748.0</ele><time>2026-04-10T10:00:39.863Z</time></trkpt><trkpt lat="44.2655133" lon="5.4262605"><ele>748.0</ele><time>2026-04-10T10:00:40.86Z</time></trkpt><trkpt lat="44.2656289" lon="5.4260863"><ele>748.6666666666667</ele><time>2026-04-10T10:00:41.858Z</time></trkpt><trkpt lat="44.2657492" lon="5.4259115"><ele>749.3333333333334</ele><time>2026-04-10T10:00:42.853Z</time></trkpt><trkpt lat="44.2658762" lon="5.4257363"><ele>750.0</ele><time>2026-04-10T10:00:43.86Z</time></trkpt><trkpt lat="44.2660014" lon="5.4255753"><ele>745.6666666666666</ele><time>2026-04-10T10:00:44.857Z</time></trkpt><trkpt lat="44.2661267" lon="5.425425"><ele>741.3333333333333</ele><time>2026-04-10T10:00:45.857Z</time></trkpt><trkpt lat="44.2662523" lon="5.42528"><ele>737.0</ele><time>2026-04-10T10:00:46.86Z</time></trkpt><trkpt lat="44.2663822" lon="5.4251423"><ele>740.0</ele><time>2026-04-10T10:00:47.859Z</time></trkpt><trkpt lat="44.2664981" lon="5.4250181"><ele>743.0</ele><time>2026-04-10T10:00:48.86Z</time></trkpt><trkpt lat="44.2666196" lon="5.4248898"><ele>746.0</ele><time>2026-04-10T10:00:49.86Z</time></trkpt><trkpt lat="44.2667281" lon="5.4247708"><ele>749.0</ele><time>2026-04-10T10:00:50.856Z</time></trkpt><trkpt lat="44.2668439" lon="5.4246548"><ele>745.5</ele><time>2026-04-10T10:00:51.855Z</time></trkpt><trkpt lat="44.2669534" lon="5.4245415"><ele>742.0</ele><time>2026-04-10T10:00:52.868Z</time></trkpt><trkpt lat="44.2670667" lon="5.4244458"><ele>738.5</ele><time>2026-04-10T10:00:53.858Z</time></trkpt><trkpt lat="44.267159" lon="5.4243517"><ele>735.0</ele><time>2026-04-10T10:00:54.853Z</time></trkpt><trkpt lat="44.2672508" lon="5.4242593"><ele>736.0</ele><time>2026-04-10T10:00:55.857Z</time></trkpt><trkpt lat="44.2673251" lon="5.4241892"><ele>737.0</ele><time>2026-04-10T10:00:56.857Z</time></trkpt><trkpt lat="44.2674137" lon="5.4241187"><ele>738.0</ele><time>2026-04-10T10:00:57.857Z</time></trkpt><trkpt lat="44.2674904" lon="5.4240869"><ele>739.0</ele><time>2026-04-10T10:00:58.856Z</time></trkpt><trkpt lat="44.2675605" lon="5.424052"><ele>740.0</ele><time>2026-04-10T10:00:59.865Z</time></trkpt><trkpt lat="44.2676006" lon="5.4239675"><ele>741.0</ele><time>2026-04-10T10:01:01.857Z</time></trkpt><trkpt lat="44.2676093" lon="5.4238706"><ele>740.8333333333334</ele><time>2026-04-10T10:01:03.859Z</time></trkpt><trkpt lat="44.2676014" lon="5.423773"><ele>740.6666666666666</ele><time>2026-04-10T10:01:06.855Z</time></trkpt><trkpt lat="44.2675857" lon="5.4236436"><ele>740.5</ele><time>2026-04-10T10:01:09.856Z</time></trkpt><trkpt lat="44.2675565" lon="5.4235292"><ele>740.3333333333333</ele><time>2026-04-10T10:01:11.855Z</time></trkpt><trkpt lat="44.2675156" lon="5.4234145"><ele>740.1666666666666</ele><time>2026-04-10T10:01:13.859Z</time></trkpt><trkpt lat="44.2675095" lon="5.4233115"><ele>740.0</ele><time>2026-04-10T10:01:15.86Z</time></trkpt><trkpt lat="44.2675449" lon="5.4231948"><ele>740.0</ele><time>2026-04-10T10:01:17.861Z</time></trkpt><trkpt lat="44.2675949" lon="5.4230683"><ele>740.0</ele><time>2026-04-10T10:01:19.857Z</time></trkpt><trkpt lat="44.2676451" lon="5.4229427"><ele>740.0</ele><time>2026-04-10T10:01:21.865Z</time></trkpt><trkpt lat="44.267685" lon="5.4228108"><ele>740.0</ele><time>2026-04-10T10:01:23.858Z</time></trkpt><trkpt lat="44.2677242" lon="5.4227339"><ele>740.0</ele><time>2026-04-10T10:01:24.857Z</time></trkpt><trkpt lat="44.2677741" lon="5.4226486"><ele>740.4</ele><time>2026-04-10T10:01:25.856Z</time></trkpt><trkpt lat="44.2678284" lon="5.4225507"><ele>740.8</ele><time>2026-04-10T10:01:26.855Z</time></trkpt><trkpt lat="44.2678936" lon="5.4224544"><ele>741.2</ele><time>2026-04-10T10:01:27.857Z</time></trkpt><trkpt lat="44.2679542" lon="5.4223581"><ele>741.6</ele><time>2026-04-10T10:01:28.858Z</time></trkpt><trkpt lat="44.268" lon="5.4222366"><ele>742.0</ele><time>2026-04-10T10:01:29.858Z</time></trkpt><trkpt lat="44.2680359" lon="5.4221129"><ele>742.3333333333334</ele><time>2026-04-10T10:01:30.86Z</time></trkpt><trkpt lat="44.2680773" lon="5.4219964"><ele>742.6666666666667</ele><time>2026-04-10T10:01:31.859Z</time></trkpt><trkpt lat="44.2681324" lon="5.4218885"><ele>743.0</ele><time>2026-04-10T10:01:32.858Z</time></trkpt><trkpt lat="44.2681911" lon="5.4218029"><ele>743.3333333333334</ele><time>2026-04-10T10:01:33.864Z</time></trkpt><trkpt lat="44.2682389" lon="5.4217145"><ele>743.6666666666666</ele><time>2026-04-10T10:01:34.857Z</time></trkpt><trkpt lat="44.268291" lon="5.4216328"><ele>744.0</ele><time>2026-04-10T10:01:35.854Z</time></trkpt><trkpt lat="44.2683438" lon="5.4215513"><ele>745.5</ele><time>2026-04-10T10:01:36.864Z</time></trkpt><trkpt lat="44.2683986" lon="5.4214645"><ele>747.0</ele><time>2026-04-10T10:01:37.858Z</time></trkpt><trkpt lat="44.2684637" lon="5.4213868"><ele>748.5</ele><time>2026-04-10T10:01:38.856Z</time></trkpt><trkpt lat="44.2685276" lon="5.4213092"><ele>750.0</ele><time>2026-04-10T10:01:39.861Z</time></trkpt><trkpt lat="44.2685867" lon="5.4212238"><ele>751.5</ele><time>2026-04-10T10:01:40.857Z</time></trkpt><trkpt lat="44.2686558" lon="5.4211537"><ele>753.0</ele><time>2026-04-10T10:01:41.86Z</time></trkpt><trkpt lat="44.2687257" lon="5.4210734"><ele>753.6666666666666</ele><time>2026-04-10T10:01:42.859Z</time></trkpt><trkpt lat="44.2687597" lon="5.4209644"><ele>754.3333333333334</ele><time>2026-04-10T10:01:43.859Z</time></trkpt><trkpt lat="44.2688098" lon="5.4208666"><ele>755.0</ele><time>2026-04-10T10:01:44.858Z</time></trkpt><trkpt lat="44.2688634" lon="5.4207646"><ele>755.6666666666667</ele><time>2026-04-10T10:01:45.856Z</time></trkpt><trkpt lat="44.2688956" lon="5.4206854"><ele>756.3333333333334</ele><time>2026-04-10T10:01:46.855Z</time></trkpt><trkpt lat="44.2689378" lon="5.4206001"><ele>757.0</ele><time>2026-04-10T10:01:47.856Z</time></trkpt><trkpt lat="44.2689754" lon="5.4204973"><ele>761.6666666666667</ele><time>2026-04-10T10:01:48.856Z</time></trkpt><trkpt lat="44.2690141" lon="5.4204046"><ele>766.3333333333334</ele><time>2026-04-10T10:01:49.858Z</time></trkpt><trkpt lat="44.2690515" lon="5.4203074"><ele>771.0</ele><time>2026-04-10T10:01:50.855Z</time></trkpt><trkpt lat="44.269088" lon="5.4202159"><ele>775.6666666666667</ele><time>2026-04-10T10:01:51.855Z</time></trkpt><trkpt lat="44.2691336" lon="5.4201291"><ele>780.3333333333334</ele><time>2026-04-10T10:01:52.86Z</time></trkpt><trkpt lat="44.2691613" lon="5.4200374"><ele>785.0</ele><time>2026-04-10T10:01:53.856Z</time></trkpt><trkpt lat="44.2692077" lon="5.4199271"><ele>785.0</ele><time>2026-04-10T10:01:55.857Z</time></trkpt><trkpt lat="44.2692835" lon="5.4198163"><ele>785.0</ele><time>2026-04-10T10:01:57.859Z</time></trkpt><trkpt lat="44.2693241" lon="5.4197359"><ele>785.0</ele><time>2026-04-10T10:01:58.857Z</time></trkpt><trkpt lat="44.2693584" lon="5.4196475"><ele>785.0</ele><time>2026-04-10T10:01:59.858Z</time></trkpt><trkpt lat="44.269437" lon="5.4195268"><ele>785.0</ele><time>2026-04-10T10:02:01.859Z</time></trkpt><trkpt lat="44.2695333" lon="5.4194346"><ele>784.8</ele><time>2026-04-10T10:02:03.855Z</time></trkpt><trkpt lat="44.2696053" lon="5.4193371"><ele>784.6</ele><time>2026-04-10T10:02:05.86Z</time></trkpt><trkpt lat="44.2696364" lon="5.4192169"><ele>784.4000000000001</ele><time>2026-04-10T10:02:07.868Z</time></trkpt><trkpt lat="44.2696801" lon="5.4190787"><ele>784.2</ele><time>2026-04-10T10:02:09.855Z</time></trkpt><trkpt lat="44.2697517" lon="5.4189222"><ele>784.0</ele><time>2026-04-10T10:02:11.857Z</time></trkpt><trkpt lat="44.2697963" lon="5.4188262"><ele>785.1666666666666</ele><time>2026-04-10T10:02:12.861Z</time></trkpt><trkpt lat="44.2698411" lon="5.4187327"><ele>786.3333333333333</ele><time>2026-04-10T10:02:13.858Z</time></trkpt><trkpt lat="44.2698803" lon="5.4186304"><ele>787.5</ele><time>2026-04-10T10:02:14.858Z</time></trkpt><trkpt lat="44.2699254" lon="5.4185326"><ele>788.6666666666667</ele><time>2026-04-10T10:02:15.862Z</time></trkpt><trkpt lat="44.2699725" lon="5.4184207"><ele>789.8333333333334</ele><time>2026-04-10T10:02:16.861Z</time></trkpt><trkpt lat="44.2700218" lon="5.418315"><ele>791.0</ele><time>2026-04-10T10:02:17.861Z</time></trkpt><trkpt lat="44.270064" lon="5.4182073"><ele>791.0</ele><time>2026-04-10T10:02:18.855Z</time></trkpt><trkpt lat="44.2701091" lon="5.4180893"><ele>791.0</ele><time>2026-04-10T10:02:19.854Z</time></trkpt><trkpt lat="44.2701548" lon="5.4179735"><ele>791.0</ele><time>2026-04-10T10:02:20.856Z</time></trkpt><trkpt lat="44.2702041" lon="5.4178614"><ele>791.0</ele><time>2026-04-10T10:02:21.859Z</time></trkpt><trkpt lat="44.2702542" lon="5.4177549"><ele>791.0</ele><time>2026-04-10T10:02:22.861Z</time></trkpt><trkpt lat="44.2702968" lon="5.4176524"><ele>792.0000000000001</ele><time>2026-04-10T10:02:23.859Z</time></trkpt><trkpt lat="44.2703352" lon="5.4175441"><ele>793.0</ele><time>2026-04-10T10:02:24.856Z</time></trkpt><trkpt lat="44.2703676" lon="5.4174289"><ele>794.0</ele><time>2026-04-10T10:02:25.857Z</time></trkpt><trkpt lat="44.2703905" lon="5.4173134"><ele>795.0</ele><time>2026-04-10T10:02:26.861Z</time></trkpt><trkpt lat="44.2704165" lon="5.4171979"><ele>796.0000000000001</ele><time>2026-04-10T10:02:27.859Z</time></trkpt><trkpt lat="44.2704369" lon="5.4170788"><ele>797.0</ele><time>2026-04-10T10:02:28.86Z</time></trkpt><trkpt lat="44.2704419" lon="5.4169593"><ele>797.6</ele><time>2026-04-10T10:02:29.857Z</time></trkpt><trkpt lat="44.2704294" lon="5.4168384"><ele>798.2</ele><time>2026-04-10T10:02:30.858Z</time></trkpt><trkpt lat="44.2703982" lon="5.4167204"><ele>798.8</ele><time>2026-04-10T10:02:31.861Z</time></trkpt><trkpt lat="44.2703679" lon="5.4165981"><ele>799.4</ele><time>2026-04-10T10:02:32.857Z</time></trkpt><trkpt lat="44.2703446" lon="5.4164685"><ele>800.0</ele><time>2026-04-10T10:02:33.864Z</time></trkpt><trkpt lat="44.2703264" lon="5.4163343"><ele>800.5</ele><time>2026-04-10T10:02:34.857Z</time></trkpt><trkpt lat="44.2703086" lon="5.416192"><ele>801.0</ele><time>2026-04-10T10:02:35.864Z</time></trkpt><trkpt lat="44.2703" lon="5.4160195"><ele>801.5</ele><time>2026-04-10T10:02:36.86Z</time></trkpt><trkpt lat="44.2702955" lon="5.4158662"><ele>802.0</ele><time>2026-04-10T10:02:37.859Z</time></trkpt><trkpt lat="44.2702771" lon="5.4157074"><ele>802.0</ele><time>2026-04-10T10:02:38.858Z</time></trkpt><trkpt lat="44.2702604" lon="5.4155459"><ele>802.0</ele><time>2026-04-10T10:02:39.863Z</time></trkpt><trkpt lat="44.2702297" lon="5.4153926"><ele>802.0</ele><time>2026-04-10T10:02:40.86Z</time></trkpt><trkpt lat="44.2702034" lon="5.4152393"><ele>802.0</ele><time>2026-04-10T10:02:41.857Z</time></trkpt><trkpt lat="44.2701817" lon="5.4150962"><ele>802.0</ele><time>2026-04-10T10:02:42.857Z</time></trkpt><trkpt lat="44.2701835" lon="5.4149585"><ele>802.75</ele><time>2026-04-10T10:02:43.871Z</time></trkpt><trkpt lat="44.2702192" lon="5.4148199"><ele>803.5</ele><time>2026-04-10T10:02:44.867Z</time></trkpt><trkpt lat="44.270243" lon="5.4146715"><ele>804.25</ele><time>2026-04-10T10:02:45.862Z</time></trkpt><trkpt lat="44.2702673" lon="5.4145079"><ele>805.0</ele><time>2026-04-10T10:02:46.857Z</time></trkpt><trkpt lat="44.2702969" lon="5.4143481"><ele>805.75</ele><time>2026-04-10T10:02:47.857Z</time></trkpt><trkpt lat="44.2703272" lon="5.4141978"><ele>806.5</ele><time>2026-04-10T10:02:48.855Z</time></trkpt><trkpt lat="44.2703648" lon="5.4140475"><ele>807.25</ele><time>2026-04-10T10:02:49.864Z</time></trkpt><trkpt lat="44.2704004" lon="5.4138926"><ele>808.0</ele><time>2026-04-10T10:02:50.857Z</time></trkpt><trkpt lat="44.2704424" lon="5.4137397"><ele>809.5</ele><time>2026-04-10T10:02:51.858Z</time></trkpt><trkpt lat="44.2704901" lon="5.4135902"><ele>811.0</ele><time>2026-04-10T10:02:52.86Z</time></trkpt><trkpt lat="44.2705504" lon="5.4134474"><ele>812.5</ele><time>2026-04-10T10:02:53.864Z</time></trkpt><trkpt lat="44.2706393" lon="5.4133223"><ele>814.0</ele><time>2026-04-10T10:02:54.856Z</time></trkpt><trkpt lat="44.270724" lon="5.4132211"><ele>812.2</ele><time>2026-04-10T10:02:55.862Z</time></trkpt><trkpt lat="44.2708006" lon="5.413112"><ele>810.4000000000001</ele><time>2026-04-10T10:02:56.86Z</time></trkpt><trkpt lat="44.270879" lon="5.4130271"><ele>808.6</ele><time>2026-04-10T10:02:57.858Z</time></trkpt><trkpt lat="44.270955" lon="5.4129668"><ele>806.8</ele><time>2026-04-10T10:02:58.858Z</time></trkpt><trkpt lat="44.2710552" lon="5.4129344"><ele>805.0</ele><time>2026-04-10T10:02:59.855Z</time></trkpt><trkpt lat="44.2711554" lon="5.4129116"><ele>805.0</ele><time>2026-04-10T10:03:00.862Z</time></trkpt><trkpt lat="44.2712546" lon="5.4128876"><ele>805.0</ele><time>2026-04-10T10:03:01.864Z</time></trkpt><trkpt lat="44.2713535" lon="5.4128538"><ele>805.0</ele><time>2026-04-10T10:03:02.86Z</time></trkpt><trkpt lat="44.2714566" lon="5.4128332"><ele>805.0</ele><time>2026-04-10T10:03:03.857Z</time></trkpt><trkpt lat="44.2715522" lon="5.4128117"><ele>805.0</ele><time>2026-04-10T10:03:04.856Z</time></trkpt><trkpt lat="44.2716374" lon="5.4127694"><ele>804.8</ele><time>2026-04-10T10:03:05.882Z</time></trkpt><trkpt lat="44.271728" lon="5.4127152"><ele>804.6</ele><time>2026-04-10T10:03:06.884Z</time></trkpt><trkpt lat="44.2718168" lon="5.4126564"><ele>804.4000000000001</ele><time>2026-04-10T10:03:07.863Z</time></trkpt><trkpt lat="44.2718994" lon="5.4125994"><ele>804.2</ele><time>2026-04-10T10:03:08.858Z</time></trkpt><trkpt lat="44.2719843" lon="5.4125422"><ele>804.0</ele><time>2026-04-10T10:03:09.864Z</time></trkpt><trkpt lat="44.2720596" lon="5.4124802"><ele>804.0</ele><time>2026-04-10T10:03:10.862Z</time></trkpt><trkpt lat="44.2721491" lon="5.4124049"><ele>804.0</ele><time>2026-04-10T10:03:11.86Z</time></trkpt><trkpt lat="44.2722305" lon="5.41232"><ele>804.0</ele><time>2026-04-10T10:03:12.856Z</time></trkpt><trkpt lat="44.2723069" lon="5.4122362"><ele>804.0</ele><time>2026-04-10T10:03:13.858Z</time></trkpt><trkpt lat="44.2723716" lon="5.4121367"><ele>804.0</ele><time>2026-04-10T10:03:14.859Z</time></trkpt><trkpt lat="44.2724213" lon="5.4120273"><ele>805.6</ele><time>2026-04-10T10:03:15.862Z</time></trkpt><trkpt lat="44.2724555" lon="5.4119111"><ele>807.2</ele><time>2026-04-10T10:03:16.86Z</time></trkpt><trkpt lat="44.2725044" lon="5.4117854"><ele>808.8000000000001</ele><time>2026-04-10T10:03:17.855Z</time></trkpt><trkpt lat="44.272543" lon="5.4116501"><ele>810.4000000000001</ele><time>2026-04-10T10:03:18.858Z</time></trkpt><trkpt lat="44.2725972" lon="5.4114924"><ele>812.0</ele><time>2026-04-10T10:03:19.859Z</time></trkpt><trkpt lat="44.2726796" lon="5.4113231"><ele>814.0</ele><time>2026-04-10T10:03:20.859Z</time></trkpt><trkpt lat="44.2727551" lon="5.4111519"><ele>816.0</ele><time>2026-04-10T10:03:21.858Z</time></trkpt><trkpt lat="44.2728184" lon="5.4109854"><ele>818.0</ele><time>2026-04-10T10:03:22.861Z</time></trkpt><trkpt lat="44.2728797" lon="5.410838"><ele>820.0</ele><time>2026-04-10T10:03:23.859Z</time></trkpt><trkpt lat="44.2729538" lon="5.4107108"><ele>820.0</ele><time>2026-04-10T10:03:24.859Z</time></trkpt><trkpt lat="44.2730292" lon="5.4106219"><ele>820.0</ele><time>2026-04-10T10:03:25.857Z</time></trkpt><trkpt lat="44.2731195" lon="5.4105441"><ele>820.0</ele><time>2026-04-10T10:03:26.86Z</time></trkpt><trkpt lat="44.2732037" lon="5.4104749"><ele>820.0</ele><time>2026-04-10T10:03:27.859Z</time></trkpt><trkpt lat="44.273296" lon="5.4104267"><ele>820.0</ele><time>2026-04-10T10:03:28.856Z</time></trkpt><trkpt lat="44.2733869" lon="5.4103729"><ele>821.0</ele><time>2026-04-10T10:03:29.861Z</time></trkpt><trkpt lat="44.2734783" lon="5.4103178"><ele>822.0</ele><time>2026-04-10T10:03:30.859Z</time></trkpt><trkpt lat="44.2735838" lon="5.4102622"><ele>823.0</ele><time>2026-04-10T10:03:31.861Z</time></trkpt><trkpt lat="44.2736829" lon="5.4102111"><ele>824.0</ele><time>2026-04-10T10:03:32.857Z</time></trkpt><trkpt lat="44.2737723" lon="5.4101685"><ele>825.0</ele><time>2026-04-10T10:03:33.857Z</time></trkpt><trkpt lat="44.2738567" lon="5.4101117"><ele>825.0</ele><time>2026-04-10T10:03:34.858Z</time></trkpt><trkpt lat="44.2739357" lon="5.4100497"><ele>825.0</ele><time>2026-04-10T10:03:35.858Z</time></trkpt><trkpt lat="44.2740153" lon="5.409977"><ele>825.0</ele><time>2026-04-10T10:03:36.855Z</time></trkpt><trkpt lat="44.2741031" lon="5.4098958"><ele>825.0</ele><time>2026-04-10T10:03:37.856Z</time></trkpt><trkpt lat="44.2741923" lon="5.4098122"><ele>825.0</ele><time>2026-04-10T10:03:38.856Z</time></trkpt><trkpt lat="44.2742802" lon="5.4097282"><ele>825.4</ele><time>2026-04-10T10:03:39.858Z</time></trkpt><trkpt lat="44.2743651" lon="5.4096267"><ele>825.8</ele><time>2026-04-10T10:03:40.861Z</time></trkpt><trkpt lat="44.2744487" lon="5.4095216"><ele>826.2</ele><time>2026-04-10T10:03:41.859Z</time></trkpt><trkpt lat="44.2745228" lon="5.4094069"><ele>826.6</ele><time>2026-04-10T10:03:42.864Z</time></trkpt><trkpt lat="44.2745972" lon="5.4092934"><ele>827.0</ele><time>2026-04-10T10:03:43.86Z</time></trkpt><trkpt lat="44.2746581" lon="5.4091984"><ele>827.0</ele><time>2026-04-10T10:03:44.86Z</time></trkpt><trkpt lat="44.274697" lon="5.4090969"><ele>827.0</ele><time>2026-04-10T10:03:45.857Z</time></trkpt><trkpt lat="44.2747151" lon="5.4089761"><ele>827.0</ele><time>2026-04-10T10:03:46.859Z</time></trkpt><trkpt lat="44.2747192" lon="5.4088381"><ele>827.0</ele><time>2026-04-10T10:03:47.865Z</time></trkpt><trkpt lat="44.2746995" lon="5.4086812"><ele>827.0</ele><time>2026-04-10T10:03:48.857Z</time></trkpt><trkpt lat="44.2746709" lon="5.4085043"><ele>828.0</ele><time>2026-04-10T10:03:49.857Z</time></trkpt><trkpt lat="44.2746517" lon="5.4083272"><ele>829.0</ele><time>2026-04-10T10:03:50.857Z</time></trkpt><trkpt lat="44.2746344" lon="5.4081615"><ele>830.0</ele><time>2026-04-10T10:03:51.855Z</time></trkpt><trkpt lat="44.2746128" lon="5.4080196"><ele>831.0</ele><time>2026-04-10T10:03:52.859Z</time></trkpt><trkpt lat="44.2745775" lon="5.4078893"><ele>831.3333333333334</ele><time>2026-04-10T10:03:53.855Z</time></trkpt><trkpt lat="44.2745428" lon="5.4077708"><ele>831.6666666666667</ele><time>2026-04-10T10:03:54.857Z</time></trkpt><trkpt lat="44.274523" lon="5.4076737"><ele>832.0</ele><time>2026-04-10T10:03:55.863Z</time></trkpt><trkpt lat="44.2744894" lon="5.40757"><ele>832.3333333333334</ele><time>2026-04-10T10:03:56.859Z</time></trkpt><trkpt lat="44.2744952" lon="5.407477"><ele>832.6666666666667</ele><time>2026-04-10T10:03:57.864Z</time></trkpt><trkpt lat="44.2746094" lon="5.4073882"><ele>833.0</ele><time>2026-04-10T10:03:59.856Z</time></trkpt><trkpt lat="44.2746699" lon="5.4072963"><ele>833.0</ele><time>2026-04-10T10:04:00.856Z</time></trkpt><trkpt lat="44.2747211" lon="5.4071756"><ele>833.0</ele><time>2026-04-10T10:04:01.855Z</time></trkpt><trkpt lat="44.2747723" lon="5.4070409"><ele>833.0</ele><time>2026-04-10T10:04:02.857Z</time></trkpt><trkpt lat="44.2748231" lon="5.4069119"><ele>833.0</ele><time>2026-04-10T10:04:03.857Z</time></trkpt><trkpt lat="44.2748907" lon="5.4068044"><ele>833.0</ele><time>2026-04-10T10:04:04.857Z</time></trkpt><trkpt lat="44.2749776" lon="5.4066929"><ele>831.5</ele><time>2026-04-10T10:04:05.858Z</time></trkpt><trkpt lat="44.2750663" lon="5.4065679"><ele>830.0</ele><time>2026-04-10T10:04:06.856Z</time></trkpt><trkpt lat="44.275153" lon="5.4064187"><ele>828.5</ele><time>2026-04-10T10:04:07.858Z</time></trkpt><trkpt lat="44.2752235" lon="5.4062652"><ele>827.0</ele><time>2026-04-10T10:04:08.859Z</time></trkpt><trkpt lat="44.2752733" lon="5.4061194"><ele>827.0</ele><time>2026-04-10T10:04:09.857Z</time></trkpt><trkpt lat="44.2752972" lon="5.4059739"><ele>827.0</ele><time>2026-04-10T10:04:10.859Z</time></trkpt><trkpt lat="44.2753074" lon="5.4058335"><ele>827.0</ele><time>2026-04-10T10:04:11.857Z</time></trkpt><trkpt lat="44.2753271" lon="5.4056854"><ele>827.0</ele><time>2026-04-10T10:04:12.856Z</time></trkpt><trkpt lat="44.2753522" lon="5.4055254"><ele>827.0</ele><time>2026-04-10T10:04:13.858Z</time></trkpt><trkpt lat="44.275379" lon="5.4053503"><ele>828.75</ele><time>2026-04-10T10:04:14.858Z</time></trkpt><trkpt lat="44.2754071" lon="5.4051774"><ele>830.5</ele><time>2026-04-10T10:04:15.857Z</time></trkpt><trkpt lat="44.2754373" lon="5.4050115"><ele>832.25</ele><time>2026-04-10T10:04:16.861Z</time></trkpt><trkpt lat="44.2754828" lon="5.4048574"><ele>834.0</ele><time>2026-04-10T10:04:17.855Z</time></trkpt><trkpt lat="44.27553" lon="5.4047068"><ele>835.75</ele><time>2026-04-10T10:04:18.861Z</time></trkpt><trkpt lat="44.2755785" lon="5.4045529"><ele>837.5</ele><time>2026-04-10T10:04:19.856Z</time></trkpt><trkpt lat="44.2756266" lon="5.40439"><ele>839.25</ele><time>2026-04-10T10:04:20.857Z</time></trkpt><trkpt lat="44.2756547" lon="5.4042241"><ele>841.0</ele><time>2026-04-10T10:04:21.859Z</time></trkpt><trkpt lat="44.2756781" lon="5.4040672"><ele>843.25</ele><time>2026-04-10T10:04:22.855Z</time></trkpt><trkpt lat="44.275712" lon="5.4039151"><ele>845.5</ele><time>2026-04-10T10:04:23.854Z</time></trkpt><trkpt lat="44.2757641" lon="5.4037644"><ele>847.75</ele><time>2026-04-10T10:04:24.861Z</time></trkpt><trkpt lat="44.2758334" lon="5.4036064"><ele>850.0</ele><time>2026-04-10T10:04:25.858Z</time></trkpt><trkpt lat="44.2759123" lon="5.4034427"><ele>850.25</ele><time>2026-04-10T10:04:26.856Z</time></trkpt><trkpt lat="44.2759888" lon="5.4032847"><ele>850.5</ele><time>2026-04-10T10:04:27.854Z</time></trkpt><trkpt lat="44.2760492" lon="5.4031399"><ele>850.75</ele><time>2026-04-10T10:04:28.867Z</time></trkpt><trkpt lat="44.2760846" lon="5.4029996"><ele>851.0</ele><time>2026-04-10T10:04:29.857Z</time></trkpt><trkpt lat="44.2761079" lon="5.402851"><ele>853.0</ele><time>2026-04-10T10:04:30.854Z</time></trkpt><trkpt lat="44.2761277" lon="5.4026991"><ele>855.0</ele><time>2026-04-10T10:04:31.861Z</time></trkpt><trkpt lat="44.2761507" lon="5.4025467"><ele>856.9999999999999</ele><time>2026-04-10T10:04:32.858Z</time></trkpt><trkpt lat="44.2761701" lon="5.4024008"><ele>859.0</ele><time>2026-04-10T10:04:33.863Z</time></trkpt><trkpt lat="44.2762076" lon="5.4022687"><ele>861.0</ele><time>2026-04-10T10:04:34.863Z</time></trkpt><trkpt lat="44.2762617" lon="5.4021427"><ele>859.25</ele><time>2026-04-10T10:04:35.859Z</time></trkpt><trkpt lat="44.2763378" lon="5.4020027"><ele>857.5</ele><time>2026-04-10T10:04:36.86Z</time></trkpt><trkpt lat="44.2764097" lon="5.4018681"><ele>855.75</ele><time>2026-04-10T10:04:37.861Z</time></trkpt><trkpt lat="44.2764759" lon="5.4017397"><ele>854.0</ele><time>2026-04-10T10:04:38.863Z</time></trkpt><trkpt lat="44.2765331" lon="5.401607"><ele>854.0</ele><time>2026-04-10T10:04:39.863Z</time></trkpt><trkpt lat="44.2765586" lon="5.4014928"><ele>854.0</ele><time>2026-04-10T10:04:40.856Z</time></trkpt><trkpt lat="44.2765745" lon="5.4013899"><ele>854.0</ele><time>2026-04-10T10:04:41.859Z</time></trkpt><trkpt lat="44.2765663" lon="5.401299"><ele>854.0</ele><time>2026-04-10T10:04:42.856Z</time></trkpt><trkpt lat="44.2765327" lon="5.4012208"><ele>854.0</ele><time>2026-04-10T10:04:43.854Z</time></trkpt><trkpt lat="44.2764808" lon="5.4011607"><ele>854.0</ele><time>2026-04-10T10:04:44.855Z</time></trkpt><trkpt lat="44.2764168" lon="5.4011058"><ele>854.0</ele><time>2026-04-10T10:04:45.863Z</time></trkpt><trkpt lat="44.2763737" lon="5.4010307"><ele>857.8000000000001</ele><time>2026-04-10T10:04:46.854Z</time></trkpt><trkpt lat="44.276351" lon="5.400917"><ele>861.6000000000001</ele><time>2026-04-10T10:04:47.857Z</time></trkpt><trkpt lat="44.2763398" lon="5.4007807"><ele>865.4</ele><time>2026-04-10T10:04:48.855Z</time></trkpt><trkpt lat="44.276332" lon="5.4006293"><ele>869.2</ele><time>2026-04-10T10:04:49.857Z</time></trkpt><trkpt lat="44.2763369" lon="5.4004821"><ele>873.0</ele><time>2026-04-10T10:04:50.855Z</time></trkpt><trkpt lat="44.2763551" lon="5.4003438"><ele>873.0</ele><time>2026-04-10T10:04:51.858Z</time></trkpt><trkpt lat="44.2763731" lon="5.4002103"><ele>873.0</ele><time>2026-04-10T10:04:52.859Z</time></trkpt><trkpt lat="44.2763919" lon="5.4000821"><ele>873.0</ele><time>2026-04-10T10:04:53.862Z</time></trkpt><trkpt lat="44.2764091" lon="5.3999557"><ele>873.0</ele><time>2026-04-10T10:04:54.855Z</time></trkpt><trkpt lat="44.2764423" lon="5.3998471"><ele>873.0</ele><time>2026-04-10T10:04:55.855Z</time></trkpt><trkpt lat="44.2764912" lon="5.3997388"><ele>867.4</ele><time>2026-04-10T10:04:56.856Z</time></trkpt><trkpt lat="44.2765451" lon="5.3996404"><ele>861.8</ele><time>2026-04-10T10:04:57.856Z</time></trkpt><trkpt lat="44.2765797" lon="5.3995376"><ele>856.2</ele><time>2026-04-10T10:04:58.857Z</time></trkpt><trkpt lat="44.27659" lon="5.3994125"><ele>850.6</ele><time>2026-04-10T10:04:59.855Z</time></trkpt><trkpt lat="44.2765871" lon="5.3992681"><ele>845.0</ele><time>2026-04-10T10:05:00.861Z</time></trkpt><trkpt lat="44.2765598" lon="5.3991144"><ele>845.0</ele><time>2026-04-10T10:05:01.855Z</time></trkpt><trkpt lat="44.2765271" lon="5.3989594"><ele>845.0</ele><time>2026-04-10T10:05:02.855Z</time></trkpt><trkpt lat="44.2765071" lon="5.3987876"><ele>845.0</ele><time>2026-04-10T10:05:03.853Z</time></trkpt><trkpt lat="44.2765036" lon="5.3985937"><ele>845.0</ele><time>2026-04-10T10:05:04.854Z</time></trkpt><trkpt lat="44.2765324" lon="5.398392"><ele>845.0</ele><time>2026-04-10T10:05:05.857Z</time></trkpt><trkpt lat="44.2765755" lon="5.3982054"><ele>845.0</ele><time>2026-04-10T10:05:06.858Z</time></trkpt><trkpt lat="44.2766422" lon="5.3980231"><ele>845.0</ele><time>2026-04-10T10:05:07.858Z</time></trkpt><trkpt lat="44.2767143" lon="5.3978687"><ele>845.0</ele><time>2026-04-10T10:05:08.853Z</time></trkpt><trkpt lat="44.2767894" lon="5.3977175"><ele>846.5</ele><time>2026-04-10T10:05:09.855Z</time></trkpt><trkpt lat="44.2768736" lon="5.3975744"><ele>848.0</ele><time>2026-04-10T10:05:10.856Z</time></trkpt><trkpt lat="44.2769621" lon="5.3974479"><ele>849.5</ele><time>2026-04-10T10:05:11.856Z</time></trkpt><trkpt lat="44.2770575" lon="5.3973337"><ele>851.0</ele><time>2026-04-10T10:05:12.854Z</time></trkpt><trkpt lat="44.2771456" lon="5.397218"><ele>850.8</ele><time>2026-04-10T10:05:13.854Z</time></trkpt><trkpt lat="44.2772145" lon="5.3971086"><ele>850.5999999999999</ele><time>2026-04-10T10:05:14.857Z</time></trkpt><trkpt lat="44.2772759" lon="5.397019"><ele>850.4</ele><time>2026-04-10T10:05:15.862Z</time></trkpt><trkpt lat="44.2773305" lon="5.3969382"><ele>850.2</ele><time>2026-04-10T10:05:16.856Z</time></trkpt><trkpt lat="44.2773309" lon="5.3967619"><ele>850.0</ele><time>2026-04-10T10:05:18.86Z</time></trkpt><trkpt lat="44.2773086" lon="5.3966562"><ele>850.0</ele><time>2026-04-10T10:05:19.852Z</time></trkpt><trkpt lat="44.2772688" lon="5.3965457"><ele>850.0</ele><time>2026-04-10T10:05:20.854Z</time></trkpt><trkpt lat="44.2772205" lon="5.3964201"><ele>850.0</ele><time>2026-04-10T10:05:21.854Z</time></trkpt><trkpt lat="44.2771511" lon="5.3963005"><ele>850.0</ele><time>2026-04-10T10:05:22.855Z</time></trkpt><trkpt lat="44.2770841" lon="5.3961857"><ele>850.0</ele><time>2026-04-10T10:05:23.857Z</time></trkpt><trkpt lat="44.27702" lon="5.3960643"><ele>850.8333333333333</ele><time>2026-04-10T10:05:24.855Z</time></trkpt><trkpt lat="44.2769884" lon="5.3959395"><ele>851.6666666666666</ele><time>2026-04-10T10:05:25.857Z</time></trkpt><trkpt lat="44.2769576" lon="5.3958195"><ele>852.5</ele><time>2026-04-10T10:05:26.853Z</time></trkpt><trkpt lat="44.2769369" lon="5.3957232"><ele>853.3333333333333</ele><time>2026-04-10T10:05:27.853Z</time></trkpt><trkpt lat="44.2769182" lon="5.3956384"><ele>854.1666666666666</ele><time>2026-04-10T10:05:28.854Z</time></trkpt><trkpt lat="44.2769654" lon="5.3954917"><ele>855.0</ele><time>2026-04-10T10:05:30.856Z</time></trkpt><trkpt lat="44.2770298" lon="5.3954582"><ele>855.0</ele><time>2026-04-10T10:05:31.855Z</time></trkpt><trkpt lat="44.2771056" lon="5.3954422"><ele>855.0</ele><time>2026-04-10T10:05:32.855Z</time></trkpt><trkpt lat="44.2771757" lon="5.3954172"><ele>855.0</ele><time>2026-04-10T10:05:33.855Z</time></trkpt><trkpt lat="44.2772452" lon="5.3953944"><ele>855.0</ele><time>2026-04-10T10:05:34.858Z</time></trkpt><trkpt lat="44.277331" lon="5.3953319"><ele>855.0</ele><time>2026-04-10T10:05:35.854Z</time></trkpt><trkpt lat="44.277422" lon="5.395256"><ele>855.0</ele><time>2026-04-10T10:05:36.858Z</time></trkpt><trkpt lat="44.2775167" lon="5.3951718"><ele>849.0</ele><time>2026-04-10T10:05:37.855Z</time></trkpt><trkpt lat="44.2776197" lon="5.3950772"><ele>843.0</ele><time>2026-04-10T10:05:38.861Z</time></trkpt><trkpt lat="44.2777224" lon="5.3949866"><ele>837.0</ele><time>2026-04-10T10:05:39.862Z</time></trkpt><trkpt lat="44.2778223" lon="5.3948905"><ele>831.0</ele><time>2026-04-10T10:05:40.859Z</time></trkpt><trkpt lat="44.2779244" lon="5.3947897"><ele>831.0</ele><time>2026-04-10T10:05:41.855Z</time></trkpt><trkpt lat="44.2780154" lon="5.3947009"><ele>831.0</ele><time>2026-04-10T10:05:42.86Z</time></trkpt><trkpt lat="44.2781057" lon="5.3946315"><ele>831.0</ele><time>2026-04-10T10:05:43.858Z</time></trkpt><trkpt lat="44.2781843" lon="5.394581"><ele>831.0</ele><time>2026-04-10T10:05:44.856Z</time></trkpt><trkpt lat="44.2782284" lon="5.3945089"><ele>831.0</ele><time>2026-04-10T10:05:45.856Z</time></trkpt><trkpt lat="44.2782572" lon="5.3944252"><ele>831.0</ele><time>2026-04-10T10:05:46.855Z</time></trkpt><trkpt lat="44.2782702" lon="5.3943186"><ele>827.4</ele><time>2026-04-10T10:05:47.856Z</time></trkpt><trkpt lat="44.2782834" lon="5.3942114"><ele>823.8</ele><time>2026-04-10T10:05:48.857Z</time></trkpt><trkpt lat="44.2782621" lon="5.3940941"><ele>820.1999999999999</ele><time>2026-04-10T10:05:49.856Z</time></trkpt><trkpt lat="44.278234" lon="5.3939704"><ele>816.5999999999999</ele><time>2026-04-10T10:05:50.858Z</time></trkpt><trkpt lat="44.2782122" lon="5.3938316"><ele>813.0</ele><time>2026-04-10T10:05:51.855Z</time></trkpt><trkpt lat="44.2781981" lon="5.3936689"><ele>813.0</ele><time>2026-04-10T10:05:52.861Z</time></trkpt><trkpt lat="44.2781761" lon="5.3935082"><ele>813.0</ele><time>2026-04-10T10:05:53.857Z</time></trkpt><trkpt lat="44.2781678" lon="5.3933414"><ele>813.0</ele><time>2026-04-10T10:05:54.855Z</time></trkpt><trkpt lat="44.2781689" lon="5.3931743"><ele>813.0</ele><time>2026-04-10T10:05:55.858Z</time></trkpt><trkpt lat="44.2781669" lon="5.3930191"><ele>814.0</ele><time>2026-04-10T10:05:56.858Z</time></trkpt><trkpt lat="44.2781497" lon="5.3928666"><ele>815.0</ele><time>2026-04-10T10:05:57.861Z</time></trkpt><trkpt lat="44.2781308" lon="5.3927332"><ele>816.0</ele><time>2026-04-10T10:05:58.859Z</time></trkpt><trkpt lat="44.2781145" lon="5.3926005"><ele>817.0</ele><time>2026-04-10T10:05:59.861Z</time></trkpt><trkpt lat="44.2781039" lon="5.3924708"><ele>818.0</ele><time>2026-04-10T10:06:00.856Z</time></trkpt><trkpt lat="44.2781929" lon="5.3923972"><ele>818.0</ele><time>2026-04-10T10:06:01.859Z</time></trkpt><trkpt lat="44.2782891" lon="5.3923205"><ele>818.0</ele><time>2026-04-10T10:06:02.857Z</time></trkpt><trkpt lat="44.2784012" lon="5.3922771"><ele>818.0</ele><time>2026-04-10T10:06:03.859Z</time></trkpt><trkpt lat="44.2785198" lon="5.3922538"><ele>818.0</ele><time>2026-04-10T10:06:04.854Z</time></trkpt><trkpt lat="44.2786478" lon="5.392228"><ele>818.0</ele><time>2026-04-10T10:06:05.853Z</time></trkpt><trkpt lat="44.278783" lon="5.3921956"><ele>818.0</ele><time>2026-04-10T10:06:06.855Z</time></trkpt><trkpt lat="44.2789167" lon="5.3921674"><ele>818.0</ele><time>2026-04-10T10:06:07.863Z</time></trkpt><trkpt lat="44.2790539" lon="5.3921843"><ele>818.0</ele><time>2026-04-10T10:06:08.862Z</time></trkpt><trkpt lat="44.2791878" lon="5.3921932"><ele>820.25</ele><time>2026-04-10T10:06:09.86Z</time></trkpt><trkpt lat="44.2793249" lon="5.3921903"><ele>822.5</ele><time>2026-04-10T10:06:10.86Z</time></trkpt><trkpt lat="44.2794562" lon="5.39218"><ele>824.75</ele><time>2026-04-10T10:06:11.857Z</time></trkpt><trkpt lat="44.2795832" lon="5.3921603"><ele>827.0</ele><time>2026-04-10T10:06:12.854Z</time></trkpt><trkpt lat="44.2797011" lon="5.3921399"><ele>824.8</ele><time>2026-04-10T10:06:13.865Z</time></trkpt><trkpt lat="44.279796" lon="5.3921234"><ele>822.6</ele><time>2026-04-10T10:06:14.856Z</time></trkpt><trkpt lat="44.2798836" lon="5.3920915"><ele>820.4</ele><time>2026-04-10T10:06:15.859Z</time></trkpt><trkpt lat="44.2799608" lon="5.3920438"><ele>818.1999999999999</ele><time>2026-04-10T10:06:16.856Z</time></trkpt><trkpt lat="44.2800385" lon="5.3919745"><ele>816.0</ele><time>2026-04-10T10:06:17.858Z</time></trkpt><trkpt lat="44.2801326" lon="5.3918753"><ele>816.0</ele><time>2026-04-10T10:06:18.863Z</time></trkpt><trkpt lat="44.2802286" lon="5.3917689"><ele>816.0</ele><time>2026-04-10T10:06:19.857Z</time></trkpt><trkpt lat="44.2803267" lon="5.3916728"><ele>816.0</ele><time>2026-04-10T10:06:20.854Z</time></trkpt><trkpt lat="44.2804256" lon="5.391581"><ele>816.0</ele><time>2026-04-10T10:06:21.86Z</time></trkpt><trkpt lat="44.2805052" lon="5.3914948"><ele>816.0</ele><time>2026-04-10T10:06:22.858Z</time></trkpt><trkpt lat="44.2805572" lon="5.3913906"><ele>816.0</ele><time>2026-04-10T10:06:23.86Z</time></trkpt><trkpt lat="44.2805883" lon="5.3912724"><ele>816.0</ele><time>2026-04-10T10:06:24.86Z</time></trkpt><trkpt lat="44.2806208" lon="5.3911551"><ele>816.0</ele><time>2026-04-10T10:06:25.862Z</time></trkpt><trkpt lat="44.2805698" lon="5.3910182"><ele>816.0</ele><time>2026-04-10T10:06:26.857Z</time></trkpt><trkpt lat="44.28052" lon="5.3908665"><ele>817.25</ele><time>2026-04-10T10:06:27.855Z</time></trkpt><trkpt lat="44.2804676" lon="5.3907078"><ele>818.5</ele><time>2026-04-10T10:06:28.855Z</time></trkpt><trkpt lat="44.2804254" lon="5.3905569"><ele>819.75</ele><time>2026-04-10T10:06:29.855Z</time></trkpt><trkpt lat="44.280374" lon="5.3904135"><ele>821.0</ele><time>2026-04-10T10:06:30.858Z</time></trkpt><trkpt lat="44.2803083" lon="5.3902813"><ele>818.8</ele><time>2026-04-10T10:06:31.856Z</time></trkpt><trkpt lat="44.2802359" lon="5.3901572"><ele>816.5999999999999</ele><time>2026-04-10T10:06:32.854Z</time></trkpt><trkpt lat="44.2801755" lon="5.3900371"><ele>814.4</ele><time>2026-04-10T10:06:33.86Z</time></trkpt><trkpt lat="44.2801192" lon="5.389904"><ele>812.2</ele><time>2026-04-10T10:06:34.858Z</time></trkpt><trkpt lat="44.280069" lon="5.3897702"><ele>810.0</ele><time>2026-04-10T10:06:35.856Z</time></trkpt><trkpt lat="44.2800246" lon="5.3896441"><ele>808.6666666666666</ele><time>2026-04-10T10:06:36.855Z</time></trkpt><trkpt lat="44.2799978" lon="5.389543"><ele>807.3333333333333</ele><time>2026-04-10T10:06:37.859Z</time></trkpt><trkpt lat="44.2799678" lon="5.389446"><ele>806.0</ele><time>2026-04-10T10:06:38.856Z</time></trkpt><trkpt lat="44.2799466" lon="5.389349"><ele>804.6666666666666</ele><time>2026-04-10T10:06:39.854Z</time></trkpt><trkpt lat="44.2799385" lon="5.3892315"><ele>803.3333333333333</ele><time>2026-04-10T10:06:40.854Z</time></trkpt><trkpt lat="44.2799475" lon="5.3890966"><ele>802.0</ele><time>2026-04-10T10:06:41.857Z</time></trkpt><trkpt lat="44.2799893" lon="5.3889608"><ele>801.9999999999999</ele><time>2026-04-10T10:06:42.855Z</time></trkpt><trkpt lat="44.2800416" lon="5.3888481"><ele>802.0</ele><time>2026-04-10T10:06:43.857Z</time></trkpt><trkpt lat="44.2801069" lon="5.388757"><ele>802.0</ele><time>2026-04-10T10:06:44.861Z</time></trkpt><trkpt lat="44.2801902" lon="5.3887143"><ele>802.0</ele><time>2026-04-10T10:06:45.857Z</time></trkpt><trkpt lat="44.2802712" lon="5.3886701"><ele>801.9999999999999</ele><time>2026-04-10T10:06:46.856Z</time></trkpt><trkpt lat="44.2803299" lon="5.388616"><ele>802.0</ele><time>2026-04-10T10:06:47.86Z</time></trkpt><trkpt lat="44.2803672" lon="5.3885153"><ele>800.8</ele><time>2026-04-10T10:06:49.86Z</time></trkpt><trkpt lat="44.2803114" lon="5.3884103"><ele>799.6</ele><time>2026-04-10T10:06:51.853Z</time></trkpt><trkpt lat="44.2802587" lon="5.388344"><ele>798.4</ele><time>2026-04-10T10:06:52.86Z</time></trkpt><trkpt lat="44.2801994" lon="5.3882848"><ele>797.1999999999999</ele><time>2026-04-10T10:06:53.855Z</time></trkpt><trkpt lat="44.2801265" lon="5.388217"><ele>796.0</ele><time>2026-04-10T10:06:54.853Z</time></trkpt><trkpt lat="44.2800113" lon="5.3881307"><ele>796.0</ele><time>2026-04-10T10:06:55.854Z</time></trkpt><trkpt lat="44.279892" lon="5.3880605"><ele>796.0</ele><time>2026-04-10T10:06:56.853Z</time></trkpt><trkpt lat="44.2797803" lon="5.3879911"><ele>796.0</ele><time>2026-04-10T10:06:57.86Z</time></trkpt><trkpt lat="44.2796871" lon="5.3879425"><ele>796.0</ele><time>2026-04-10T10:06:58.86Z</time></trkpt><trkpt lat="44.2795834" lon="5.3879088"><ele>795.0</ele><time>2026-04-10T10:06:59.856Z</time></trkpt><trkpt lat="44.2794601" lon="5.3879428"><ele>794.0</ele><time>2026-04-10T10:07:00.854Z</time></trkpt><trkpt lat="44.2793438" lon="5.3879826"><ele>793.0</ele><time>2026-04-10T10:07:01.855Z</time></trkpt><trkpt lat="44.27923" lon="5.388022"><ele>792.0</ele><time>2026-04-10T10:07:02.855Z</time></trkpt><trkpt lat="44.2791304" lon="5.3880543"><ele>794.6666666666666</ele><time>2026-04-10T10:07:03.854Z</time></trkpt><trkpt lat="44.279048" lon="5.3880804"><ele>797.3333333333333</ele><time>2026-04-10T10:07:04.856Z</time></trkpt><trkpt lat="44.2789722" lon="5.3880851"><ele>800.0</ele><time>2026-04-10T10:07:05.856Z</time></trkpt><trkpt lat="44.2789193" lon="5.3880108"><ele>802.6666666666666</ele><time>2026-04-10T10:07:06.853Z</time></trkpt><trkpt lat="44.2788801" lon="5.3878957"><ele>805.3333333333333</ele><time>2026-04-10T10:07:07.853Z</time></trkpt><trkpt lat="44.2788562" lon="5.3877684"><ele>808.0</ele><time>2026-04-10T10:07:08.861Z</time></trkpt><trkpt lat="44.2789268" lon="5.387655"><ele>804.0</ele><time>2026-04-10T10:07:09.853Z</time></trkpt><trkpt lat="44.2789832" lon="5.3875363"><ele>800.0</ele><time>2026-04-10T10:07:10.854Z</time></trkpt><trkpt lat="44.2790511" lon="5.3873821"><ele>796.0</ele><time>2026-04-10T10:07:11.851Z</time></trkpt><trkpt lat="44.2791298" lon="5.3872207"><ele>792.0</ele><time>2026-04-10T10:07:12.855Z</time></trkpt><trkpt lat="44.2791954" lon="5.3870569"><ele>791.5</ele><time>2026-04-10T10:07:13.857Z</time></trkpt><trkpt lat="44.2792915" lon="5.3869124"><ele>791.0</ele><time>2026-04-10T10:07:14.853Z</time></trkpt><trkpt lat="44.2793681" lon="5.3867523"><ele>790.5</ele><time>2026-04-10T10:07:15.855Z</time></trkpt><trkpt lat="44.2794326" lon="5.3866001"><ele>790.0</ele><time>2026-04-10T10:07:16.854Z</time></trkpt><trkpt lat="44.2794945" lon="5.3864592"><ele>789.6</ele><time>2026-04-10T10:07:17.857Z</time></trkpt><trkpt lat="44.2795624" lon="5.3863381"><ele>789.2</ele><time>2026-04-10T10:07:18.856Z</time></trkpt><trkpt lat="44.279596" lon="5.386249"><ele>788.8</ele><time>2026-04-10T10:07:19.859Z</time></trkpt><trkpt lat="44.2795737" lon="5.3860996"><ele>788.4</ele><time>2026-04-10T10:07:21.852Z</time></trkpt><trkpt lat="44.2794689" lon="5.3859996"><ele>788.0</ele><time>2026-04-10T10:07:23.853Z</time></trkpt><trkpt lat="44.2794052" lon="5.3859692"><ele>788.0</ele><time>2026-04-10T10:07:24.855Z</time></trkpt><trkpt lat="44.2793506" lon="5.3859157"><ele>788.0</ele><time>2026-04-10T10:07:25.858Z</time></trkpt><trkpt lat="44.2793081" lon="5.3858481"><ele>788.0</ele><time>2026-04-10T10:07:26.858Z</time></trkpt><trkpt lat="44.2792777" lon="5.3856554"><ele>788.0</ele><time>2026-04-10T10:07:28.856Z</time></trkpt><trkpt lat="44.2793714" lon="5.3855051"><ele>788.0</ele><time>2026-04-10T10:07:29.854Z</time></trkpt><trkpt lat="44.2794596" lon="5.3853673"><ele>789.5999999999999</ele><time>2026-04-10T10:07:30.855Z</time></trkpt><trkpt lat="44.2795335" lon="5.3852377"><ele>791.1999999999999</ele><time>2026-04-10T10:07:31.857Z</time></trkpt><trkpt lat="44.2795846" lon="5.3851185"><ele>792.8</ele><time>2026-04-10T10:07:32.857Z</time></trkpt><trkpt lat="44.2796399" lon="5.3849959"><ele>794.4</ele><time>2026-04-10T10:07:33.856Z</time></trkpt><trkpt lat="44.2796901" lon="5.3848846"><ele>796.0</ele><time>2026-04-10T10:07:34.853Z</time></trkpt><trkpt lat="44.2797139" lon="5.3847512"><ele>797.5999999999999</ele><time>2026-04-10T10:07:35.857Z</time></trkpt><trkpt lat="44.279741" lon="5.384621"><ele>799.2</ele><time>2026-04-10T10:07:36.854Z</time></trkpt><trkpt lat="44.2797853" lon="5.3845186"><ele>800.8</ele><time>2026-04-10T10:07:37.852Z</time></trkpt><trkpt lat="44.2798399" lon="5.3844383"><ele>802.4000000000001</ele><time>2026-04-10T10:07:38.854Z</time></trkpt><trkpt lat="44.2799246" lon="5.3843764"><ele>804.0</ele><time>2026-04-10T10:07:39.855Z</time></trkpt><trkpt lat="44.280027" lon="5.3843029"><ele>795.5</ele><time>2026-04-10T10:07:40.858Z</time></trkpt><trkpt lat="44.2801382" lon="5.3842095"><ele>787.0</ele><time>2026-04-10T10:07:41.853Z</time></trkpt><trkpt lat="44.2802428" lon="5.3841129"><ele>778.5</ele><time>2026-04-10T10:07:42.853Z</time></trkpt><trkpt lat="44.280321" lon="5.3840239"><ele>770.0</ele><time>2026-04-10T10:07:43.86Z</time></trkpt><trkpt lat="44.2803985" lon="5.383916"><ele>771.0</ele><time>2026-04-10T10:07:44.857Z</time></trkpt><trkpt lat="44.2804751" lon="5.3837938"><ele>772.0</ele><time>2026-04-10T10:07:45.855Z</time></trkpt><trkpt lat="44.2805532" lon="5.3836884"><ele>773.0</ele><time>2026-04-10T10:07:46.855Z</time></trkpt><trkpt lat="44.2806272" lon="5.383591"><ele>774.0</ele><time>2026-04-10T10:07:47.86Z</time></trkpt><trkpt lat="44.2806802" lon="5.3834851"><ele>775.0</ele><time>2026-04-10T10:07:48.855Z</time></trkpt><trkpt lat="44.2806773" lon="5.3833156"><ele>775.0</ele><time>2026-04-10T10:07:50.857Z</time></trkpt><trkpt lat="44.2806351" lon="5.383143"><ele>775.0</ele><time>2026-04-10T10:07:52.853Z</time></trkpt><trkpt lat="44.280594" lon="5.3830414"><ele>775.0</ele><time>2026-04-10T10:07:53.866Z</time></trkpt><trkpt lat="44.2805592" lon="5.3829458"><ele>775.0</ele><time>2026-04-10T10:07:54.859Z</time></trkpt><trkpt lat="44.2805312" lon="5.3828591"><ele>775.0</ele><time>2026-04-10T10:07:55.857Z</time></trkpt><trkpt lat="44.2805374" lon="5.3827309"><ele>769.0</ele><time>2026-04-10T10:07:57.858Z</time></trkpt><trkpt lat="44.280634" lon="5.3826674"><ele>763.0</ele><time>2026-04-10T10:07:58.856Z</time></trkpt><trkpt lat="44.2807651" lon="5.3826142"><ele>757.0</ele><time>2026-04-10T10:07:59.857Z</time></trkpt><trkpt lat="44.2808781" lon="5.3825922"><ele>751.0</ele><time>2026-04-10T10:08:00.853Z</time></trkpt><trkpt lat="44.2810034" lon="5.3826001"><ele>751.0</ele><time>2026-04-10T10:08:01.862Z</time></trkpt><trkpt lat="44.2811243" lon="5.3826174"><ele>751.0</ele><time>2026-04-10T10:08:02.858Z</time></trkpt><trkpt lat="44.2812236" lon="5.3826225"><ele>751.0</ele><time>2026-04-10T10:08:03.852Z</time></trkpt><trkpt lat="44.2813104" lon="5.3826144"><ele>751.0</ele><time>2026-04-10T10:08:04.853Z</time></trkpt><trkpt lat="44.2813845" lon="5.3825689"><ele>751.0</ele><time>2026-04-10T10:08:05.854Z</time></trkpt><trkpt lat="44.28145" lon="5.3825047"><ele>748.0</ele><time>2026-04-10T10:08:06.854Z</time></trkpt><trkpt lat="44.281487" lon="5.3824292"><ele>745.0</ele><time>2026-04-10T10:08:07.856Z</time></trkpt><trkpt lat="44.281508" lon="5.3823436"><ele>742.0</ele><time>2026-04-10T10:08:08.857Z</time></trkpt><trkpt lat="44.2815239" lon="5.3822191"><ele>739.0</ele><time>2026-04-10T10:08:09.854Z</time></trkpt><trkpt lat="44.2815177" lon="5.3820736"><ele>736.0</ele><time>2026-04-10T10:08:10.856Z</time></trkpt><trkpt lat="44.2815086" lon="5.3819354"><ele>733.0</ele><time>2026-04-10T10:08:11.856Z</time></trkpt><trkpt lat="44.2814931" lon="5.3817982"><ele>733.0</ele><time>2026-04-10T10:08:12.863Z</time></trkpt><trkpt lat="44.2815214" lon="5.3816503"><ele>733.0</ele><time>2026-04-10T10:08:13.863Z</time></trkpt><trkpt lat="44.281576" lon="5.3815034"><ele>733.0</ele><time>2026-04-10T10:08:14.857Z</time></trkpt><trkpt lat="44.281633" lon="5.3813675"><ele>733.0</ele><time>2026-04-10T10:08:15.856Z</time></trkpt><trkpt lat="44.281684" lon="5.381236"><ele>733.0</ele><time>2026-04-10T10:08:16.858Z</time></trkpt><trkpt lat="44.2817335" lon="5.3811034"><ele>734.2</ele><time>2026-04-10T10:08:17.864Z</time></trkpt><trkpt lat="44.2817941" lon="5.3809802"><ele>735.4</ele><time>2026-04-10T10:08:18.857Z</time></trkpt><trkpt lat="44.2818687" lon="5.3808769"><ele>736.6</ele><time>2026-04-10T10:08:19.855Z</time></trkpt><trkpt lat="44.2819314" lon="5.3807811"><ele>737.8000000000001</ele><time>2026-04-10T10:08:20.858Z</time></trkpt><trkpt lat="44.2820033" lon="5.3806993"><ele>739.0</ele><time>2026-04-10T10:08:21.853Z</time></trkpt><trkpt lat="44.2820922" lon="5.3806245"><ele>739.0</ele><time>2026-04-10T10:08:22.857Z</time></trkpt><trkpt lat="44.2822276" lon="5.3805553"><ele>739.0</ele><time>2026-04-10T10:08:23.854Z</time></trkpt><trkpt lat="44.2823533" lon="5.3804937"><ele>739.0</ele><time>2026-04-10T10:08:24.853Z</time></trkpt><trkpt lat="44.2824722" lon="5.3804586"><ele>739.0</ele><time>2026-04-10T10:08:25.854Z</time></trkpt><trkpt lat="44.2825826" lon="5.3804424"><ele>740.4000000000001</ele><time>2026-04-10T10:08:26.862Z</time></trkpt><trkpt lat="44.2826948" lon="5.3804469"><ele>741.8</ele><time>2026-04-10T10:08:27.86Z</time></trkpt><trkpt lat="44.2828019" lon="5.3804771"><ele>743.2</ele><time>2026-04-10T10:08:28.857Z</time></trkpt><trkpt lat="44.2829041" lon="5.3805337"><ele>744.5999999999999</ele><time>2026-04-10T10:08:29.857Z</time></trkpt><trkpt lat="44.2830051" lon="5.3806051"><ele>746.0</ele><time>2026-04-10T10:08:30.857Z</time></trkpt><trkpt lat="44.2830957" lon="5.3806829"><ele>739.4</ele><time>2026-04-10T10:08:31.855Z</time></trkpt><trkpt lat="44.283203" lon="5.3807536"><ele>732.8</ele><time>2026-04-10T10:08:32.858Z</time></trkpt><trkpt lat="44.2833096" lon="5.3808247"><ele>726.1999999999999</ele><time>2026-04-10T10:08:33.857Z</time></trkpt><trkpt lat="44.283413" lon="5.3808768"><ele>719.5999999999999</ele><time>2026-04-10T10:08:34.855Z</time></trkpt><trkpt lat="44.2835096" lon="5.3809174"><ele>713.0</ele><time>2026-04-10T10:08:35.855Z</time></trkpt><trkpt lat="44.2835951" lon="5.3809416"><ele>713.0</ele><time>2026-04-10T10:08:36.856Z</time></trkpt><trkpt lat="44.2836781" lon="5.3809491"><ele>713.0</ele><time>2026-04-10T10:08:37.856Z</time></trkpt><trkpt lat="44.2837554" lon="5.3809352"><ele>713.0</ele><time>2026-04-10T10:08:38.855Z</time></trkpt><trkpt lat="44.2838598" lon="5.3808946"><ele>713.0</ele><time>2026-04-10T10:08:39.856Z</time></trkpt><trkpt lat="44.2839458" lon="5.3808272"><ele>713.0</ele><time>2026-04-10T10:08:40.855Z</time></trkpt><trkpt lat="44.2840355" lon="5.380737"><ele>710.25</ele><time>2026-04-10T10:08:41.858Z</time></trkpt><trkpt lat="44.2841103" lon="5.3806074"><ele>707.5</ele><time>2026-04-10T10:08:42.854Z</time></trkpt><trkpt lat="44.284159" lon="5.3804646"><ele>704.75</ele><time>2026-04-10T10:08:43.857Z</time></trkpt><trkpt lat="44.2842115" lon="5.3803082"><ele>702.0</ele><time>2026-04-10T10:08:44.853Z</time></trkpt><trkpt lat="44.2842574" lon="5.3801433"><ele>702.0</ele><time>2026-04-10T10:08:45.855Z</time></trkpt><trkpt lat="44.2843091" lon="5.3799922"><ele>702.0</ele><time>2026-04-10T10:08:46.853Z</time></trkpt><trkpt lat="44.2843583" lon="5.3798724"><ele>702.0</ele><time>2026-04-10T10:08:47.861Z</time></trkpt><trkpt lat="44.2844066" lon="5.3797781"><ele>702.0</ele><time>2026-04-10T10:08:48.856Z</time></trkpt><trkpt lat="44.2845146" lon="5.3797307"><ele>702.0</ele><time>2026-04-10T10:08:50.853Z</time></trkpt><trkpt lat="44.2845782" lon="5.3797553"><ele>702.0</ele><time>2026-04-10T10:08:51.855Z</time></trkpt><trkpt lat="44.2846376" lon="5.3798468"><ele>702.0</ele><time>2026-04-10T10:08:52.853Z</time></trkpt><trkpt lat="44.2846996" lon="5.3799724"><ele>702.0</ele><time>2026-04-10T10:08:53.857Z</time></trkpt><trkpt lat="44.2847762" lon="5.3800706"><ele>702.0</ele><time>2026-04-10T10:08:54.856Z</time></trkpt><trkpt lat="44.284858" lon="5.3801424"><ele>702.0</ele><time>2026-04-10T10:08:55.856Z</time></trkpt><trkpt lat="44.2849423" lon="5.3802169"><ele>699.4000000000001</ele><time>2026-04-10T10:08:56.854Z</time></trkpt><trkpt lat="44.2850191" lon="5.3802871"><ele>696.8000000000001</ele><time>2026-04-10T10:08:57.855Z</time></trkpt><trkpt lat="44.2850966" lon="5.3803623"><ele>694.2</ele><time>2026-04-10T10:08:58.856Z</time></trkpt><trkpt lat="44.2851835" lon="5.3804366"><ele>691.6</ele><time>2026-04-10T10:08:59.858Z</time></trkpt><trkpt lat="44.2852695" lon="5.3805185"><ele>689.0</ele><time>2026-04-10T10:09:00.858Z</time></trkpt><trkpt lat="44.2853489" lon="5.3806054"><ele>687.0</ele><time>2026-04-10T10:09:01.856Z</time></trkpt><trkpt lat="44.2854295" lon="5.380664"><ele>685.0</ele><time>2026-04-10T10:09:02.854Z</time></trkpt><trkpt lat="44.2855103" lon="5.3807012"><ele>683.0</ele><time>2026-04-10T10:09:03.859Z</time></trkpt><trkpt lat="44.285593" lon="5.3807287"><ele>681.0</ele><time>2026-04-10T10:09:04.855Z</time></trkpt><trkpt lat="44.2856643" lon="5.3807189"><ele>679.0</ele><time>2026-04-10T10:09:05.857Z</time></trkpt><trkpt lat="44.2857332" lon="5.3806961"><ele>677.0</ele><time>2026-04-10T10:09:06.858Z</time></trkpt><trkpt lat="44.2858003" lon="5.3806259"><ele>675.4000000000001</ele><time>2026-04-10T10:09:07.852Z</time></trkpt><trkpt lat="44.2858729" lon="5.3805517"><ele>673.8000000000001</ele><time>2026-04-10T10:09:08.854Z</time></trkpt><trkpt lat="44.2859444" lon="5.380483"><ele>672.2</ele><time>2026-04-10T10:09:09.858Z</time></trkpt><trkpt lat="44.2860296" lon="5.3804332"><ele>670.6</ele><time>2026-04-10T10:09:10.854Z</time></trkpt><trkpt lat="44.2861121" lon="5.3803837"><ele>669.0</ele><time>2026-04-10T10:09:11.856Z</time></trkpt><trkpt lat="44.2861941" lon="5.3803181"><ele>669.0</ele><time>2026-04-10T10:09:12.855Z</time></trkpt><trkpt lat="44.2862599" lon="5.3802316"><ele>669.0</ele><time>2026-04-10T10:09:13.86Z</time></trkpt><trkpt lat="44.2863184" lon="5.3801159"><ele>669.0</ele><time>2026-04-10T10:09:14.854Z</time></trkpt><trkpt lat="44.2863704" lon="5.3800047"><ele>669.0</ele><time>2026-04-10T10:09:15.853Z</time></trkpt><trkpt lat="44.286473" lon="5.3799072"><ele>669.0</ele><time>2026-04-10T10:09:16.857Z</time></trkpt><trkpt lat="44.2865773" lon="5.3798053"><ele>665.75</ele><time>2026-04-10T10:09:17.856Z</time></trkpt><trkpt lat="44.2866765" lon="5.3796894"><ele>662.5</ele><time>2026-04-10T10:09:18.855Z</time></trkpt><trkpt lat="44.2867619" lon="5.3795764"><ele>659.25</ele><time>2026-04-10T10:09:19.854Z</time></trkpt><trkpt lat="44.2868386" lon="5.3794642"><ele>656.0</ele><time>2026-04-10T10:09:20.856Z</time></trkpt><trkpt lat="44.2869113" lon="5.3793463"><ele>656.0</ele><time>2026-04-10T10:09:21.857Z</time></trkpt><trkpt lat="44.2869784" lon="5.3792412"><ele>656.0</ele><time>2026-04-10T10:09:22.857Z</time></trkpt><trkpt lat="44.2870437" lon="5.3791448"><ele>656.0</ele><time>2026-04-10T10:09:23.866Z</time></trkpt><trkpt lat="44.2871021" lon="5.3790605"><ele>656.0</ele><time>2026-04-10T10:09:24.863Z</time></trkpt><trkpt lat="44.2871218" lon="5.3789317"><ele>656.0</ele><time>2026-04-10T10:09:25.855Z</time></trkpt><trkpt lat="44.2871258" lon="5.3787816"><ele>655.8</ele><time>2026-04-10T10:09:26.853Z</time></trkpt><trkpt lat="44.2871016" lon="5.3786449"><ele>655.5999999999999</ele><time>2026-04-10T10:09:27.858Z</time></trkpt><trkpt lat="44.2870931" lon="5.378536"><ele>655.4</ele><time>2026-04-10T10:09:28.852Z</time></trkpt><trkpt lat="44.2871199" lon="5.3783939"><ele>655.2</ele><time>2026-04-10T10:09:30.854Z</time></trkpt><trkpt lat="44.2872513" lon="5.3783754"><ele>655.0</ele><time>2026-04-10T10:09:32.852Z</time></trkpt><trkpt lat="44.2873381" lon="5.3784009"><ele>652.4</ele><time>2026-04-10T10:09:33.856Z</time></trkpt><trkpt lat="44.2874249" lon="5.37843"><ele>649.8</ele><time>2026-04-10T10:09:34.854Z</time></trkpt><trkpt lat="44.2875258" lon="5.3784554"><ele>647.2</ele><time>2026-04-10T10:09:35.856Z</time></trkpt><trkpt lat="44.2876248" lon="5.378437"><ele>644.6</ele><time>2026-04-10T10:09:36.853Z</time></trkpt><trkpt lat="44.2877344" lon="5.3783809"><ele>642.0</ele><time>2026-04-10T10:09:37.853Z</time></trkpt><trkpt lat="44.2878468" lon="5.3783239"><ele>642.0</ele><time>2026-04-10T10:09:38.86Z</time></trkpt><trkpt lat="44.2879465" lon="5.378266"><ele>642.0</ele><time>2026-04-10T10:09:39.857Z</time></trkpt><trkpt lat="44.2880484" lon="5.3781766"><ele>642.0</ele><time>2026-04-10T10:09:40.854Z</time></trkpt><trkpt lat="44.2881508" lon="5.3780594"><ele>642.0</ele><time>2026-04-10T10:09:41.853Z</time></trkpt><trkpt lat="44.2882552" lon="5.3779464"><ele>641.5</ele><time>2026-04-10T10:09:42.855Z</time></trkpt><trkpt lat="44.2883576" lon="5.3778336"><ele>641.0</ele><time>2026-04-10T10:09:43.86Z</time></trkpt><trkpt lat="44.2884463" lon="5.3777179"><ele>640.5</ele><time>2026-04-10T10:09:44.86Z</time></trkpt><trkpt lat="44.2885091" lon="5.3775542"><ele>640.0</ele><time>2026-04-10T10:09:45.859Z</time></trkpt><trkpt lat="44.288564" lon="5.3773818"><ele>640.0</ele><time>2026-04-10T10:09:46.853Z</time></trkpt><trkpt lat="44.2886031" lon="5.3772181"><ele>640.0</ele><time>2026-04-10T10:09:47.853Z</time></trkpt><trkpt lat="44.2886259" lon="5.3770676"><ele>640.0</ele><time>2026-04-10T10:09:48.854Z</time></trkpt><trkpt lat="44.2886639" lon="5.3769353"><ele>640.0</ele><time>2026-04-10T10:09:49.854Z</time></trkpt><trkpt lat="44.288739" lon="5.3768314"><ele>640.0</ele><time>2026-04-10T10:09:50.86Z</time></trkpt><trkpt lat="44.2888267" lon="5.3767623"><ele>638.25</ele><time>2026-04-10T10:09:51.856Z</time></trkpt><trkpt lat="44.2889418" lon="5.3766567"><ele>636.5</ele><time>2026-04-10T10:09:52.856Z</time></trkpt><trkpt lat="44.2890331" lon="5.3765202"><ele>634.75</ele><time>2026-04-10T10:09:53.856Z</time></trkpt><trkpt lat="44.2891067" lon="5.376365"><ele>633.0</ele><time>2026-04-10T10:09:54.855Z</time></trkpt><trkpt lat="44.2891935" lon="5.3761665"><ele>633.0</ele><time>2026-04-10T10:09:55.855Z</time></trkpt><trkpt lat="44.2892698" lon="5.3759721"><ele>633.0</ele><time>2026-04-10T10:09:56.857Z</time></trkpt><trkpt lat="44.2893526" lon="5.3758068"><ele>633.0</ele><time>2026-04-10T10:09:57.855Z</time></trkpt><trkpt lat="44.2894383" lon="5.3756598"><ele>633.0</ele><time>2026-04-10T10:09:58.856Z</time></trkpt><trkpt lat="44.2895176" lon="5.375509"><ele>635.5</ele><time>2026-04-10T10:09:59.856Z</time></trkpt><trkpt lat="44.2896095" lon="5.3753595"><ele>638.0</ele><time>2026-04-10T10:10:00.853Z</time></trkpt><trkpt lat="44.2896919" lon="5.375206"><ele>640.5</ele><time>2026-04-10T10:10:01.856Z</time></trkpt><trkpt lat="44.2897726" lon="5.3750522"><ele>643.0</ele><time>2026-04-10T10:10:02.852Z</time></trkpt><trkpt lat="44.2898762" lon="5.374904"><ele>638.0</ele><time>2026-04-10T10:10:03.857Z</time></trkpt><trkpt lat="44.2899709" lon="5.3747621"><ele>633.0</ele><time>2026-04-10T10:10:04.86Z</time></trkpt><trkpt lat="44.2900458" lon="5.3746246"><ele>628.0</ele><time>2026-04-10T10:10:05.856Z</time></trkpt><trkpt lat="44.290101" lon="5.374478"><ele>623.0</ele><time>2026-04-10T10:10:06.853Z</time></trkpt><trkpt lat="44.2901549" lon="5.3743316"><ele>623.0</ele><time>2026-04-10T10:10:07.853Z</time></trkpt><trkpt lat="44.2902283" lon="5.3741994"><ele>623.0</ele><time>2026-04-10T10:10:08.853Z</time></trkpt><trkpt lat="44.2903011" lon="5.3741113"><ele>623.0</ele><time>2026-04-10T10:10:09.855Z</time></trkpt><trkpt lat="44.2903584" lon="5.374013"><ele>623.0</ele><time>2026-04-10T10:10:10.852Z</time></trkpt><trkpt lat="44.2903921" lon="5.3738851"><ele>623.0</ele><time>2026-04-10T10:10:11.86Z</time></trkpt><trkpt lat="44.2904077" lon="5.3737173"><ele>623.5</ele><time>2026-04-10T10:10:12.855Z</time></trkpt><trkpt lat="44.2904301" lon="5.3735269"><ele>624.0</ele><time>2026-04-10T10:10:13.853Z</time></trkpt><trkpt lat="44.2904595" lon="5.3733386"><ele>624.5</ele><time>2026-04-10T10:10:14.854Z</time></trkpt><trkpt lat="44.290487" lon="5.3731684"><ele>625.0</ele><time>2026-04-10T10:10:15.857Z</time></trkpt><trkpt lat="44.2905077" lon="5.3730116"><ele>623.6</ele><time>2026-04-10T10:10:16.856Z</time></trkpt><trkpt lat="44.2905234" lon="5.3728548"><ele>622.2</ele><time>2026-04-10T10:10:17.855Z</time></trkpt><trkpt lat="44.2905346" lon="5.3727004"><ele>620.8</ele><time>2026-04-10T10:10:18.852Z</time></trkpt><trkpt lat="44.2905557" lon="5.3725645"><ele>619.4</ele><time>2026-04-10T10:10:19.859Z</time></trkpt><trkpt lat="44.2905737" lon="5.3724396"><ele>618.0</ele><time>2026-04-10T10:10:20.854Z</time></trkpt><trkpt lat="44.290595" lon="5.3723404"><ele>615.0</ele><time>2026-04-10T10:10:21.858Z</time></trkpt><trkpt lat="44.2906271" lon="5.3722613"><ele>612.0</ele><time>2026-04-10T10:10:22.864Z</time></trkpt><trkpt lat="44.2907483" lon="5.3722625"><ele>609.0</ele><time>2026-04-10T10:10:23.857Z</time></trkpt><trkpt lat="44.2908365" lon="5.372234"><ele>606.0</ele><time>2026-04-10T10:10:24.858Z</time></trkpt><trkpt lat="44.2909483" lon="5.3722014"><ele>603.0</ele><time>2026-04-10T10:10:25.856Z</time></trkpt><trkpt lat="44.2910455" lon="5.3722105"><ele>603.0</ele><time>2026-04-10T10:10:26.856Z</time></trkpt><trkpt lat="44.2911379" lon="5.3722032"><ele>603.0</ele><time>2026-04-10T10:10:27.859Z</time></trkpt><trkpt lat="44.2912225" lon="5.3721668"><ele>603.0</ele><time>2026-04-10T10:10:28.859Z</time></trkpt><trkpt lat="44.2912866" lon="5.3720958"><ele>603.0</ele><time>2026-04-10T10:10:29.855Z</time></trkpt><trkpt lat="44.291331" lon="5.372001"><ele>603.0</ele><time>2026-04-10T10:10:30.856Z</time></trkpt><trkpt lat="44.2913951" lon="5.3718962"><ele>603.0</ele><time>2026-04-10T10:10:31.854Z</time></trkpt><trkpt lat="44.291434" lon="5.3717781"><ele>604.3333333333334</ele><time>2026-04-10T10:10:32.857Z</time></trkpt><trkpt lat="44.2914478" lon="5.3716592"><ele>605.6666666666666</ele><time>2026-04-10T10:10:33.854Z</time></trkpt><trkpt lat="44.2914383" lon="5.3715315"><ele>607.0</ele><time>2026-04-10T10:10:34.859Z</time></trkpt><trkpt lat="44.2914186" lon="5.3714065"><ele>608.3333333333333</ele><time>2026-04-10T10:10:35.856Z</time></trkpt><trkpt lat="44.2914122" lon="5.3712837"><ele>609.6666666666666</ele><time>2026-04-10T10:10:36.853Z</time></trkpt><trkpt lat="44.2914266" lon="5.3711913"><ele>611.0</ele><time>2026-04-10T10:10:37.856Z</time></trkpt><trkpt lat="44.2915383" lon="5.3711343"><ele>608.4</ele><time>2026-04-10T10:10:38.854Z</time></trkpt><trkpt lat="44.2915934" lon="5.3710461"><ele>605.8</ele><time>2026-04-10T10:10:39.855Z</time></trkpt><trkpt lat="44.2916473" lon="5.3709317"><ele>603.1999999999999</ele><time>2026-04-10T10:10:40.855Z</time></trkpt><trkpt lat="44.2917001" lon="5.3707768"><ele>600.6</ele><time>2026-04-10T10:10:41.858Z</time></trkpt><trkpt lat="44.2917467" lon="5.3706324"><ele>598.0</ele><time>2026-04-10T10:10:42.856Z</time></trkpt><trkpt lat="44.2917696" lon="5.3704858"><ele>598.0</ele><time>2026-04-10T10:10:43.856Z</time></trkpt><trkpt lat="44.2917797" lon="5.3703508"><ele>598.0</ele><time>2026-04-10T10:10:44.855Z</time></trkpt><trkpt lat="44.2918112" lon="5.3702097"><ele>598.0</ele><time>2026-04-10T10:10:45.855Z</time></trkpt><trkpt lat="44.2918488" lon="5.3700701"><ele>598.0</ele><time>2026-04-10T10:10:46.853Z</time></trkpt><trkpt lat="44.2919502" lon="5.3698967"><ele>598.0</ele><time>2026-04-10T10:10:47.857Z</time></trkpt><trkpt lat="44.2920143" lon="5.3697349"><ele>598.0</ele><time>2026-04-10T10:10:48.856Z</time></trkpt><trkpt lat="44.2921019" lon="5.3695569"><ele>598.0</ele><time>2026-04-10T10:10:49.854Z</time></trkpt><trkpt lat="44.2921711" lon="5.369401"><ele>598.0</ele><time>2026-04-10T10:10:50.861Z</time></trkpt><trkpt lat="44.2922231" lon="5.3693016"><ele>598.1999999999999</ele><time>2026-04-10T10:10:51.855Z</time></trkpt><trkpt lat="44.2922745" lon="5.3692023"><ele>598.4</ele><time>2026-04-10T10:10:52.856Z</time></trkpt><trkpt lat="44.2923064" lon="5.3691107"><ele>598.5999999999999</ele><time>2026-04-10T10:10:53.862Z</time></trkpt><trkpt lat="44.2922058" lon="5.3689762"><ele>598.8</ele><time>2026-04-10T10:10:55.854Z</time></trkpt><trkpt lat="44.2921225" lon="5.3688909"><ele>599.0</ele><time>2026-04-10T10:10:56.854Z</time></trkpt><trkpt lat="44.2920412" lon="5.3688209"><ele>599.0</ele><time>2026-04-10T10:10:57.856Z</time></trkpt><trkpt lat="44.2919734" lon="5.3687603"><ele>599.0</ele><time>2026-04-10T10:10:58.853Z</time></trkpt><trkpt lat="44.2919247" lon="5.3686489"><ele>599.0</ele><time>2026-04-10T10:11:00.854Z</time></trkpt><trkpt lat="44.2919587" lon="5.3685688"><ele>599.0</ele><time>2026-04-10T10:11:02.856Z</time></trkpt><trkpt lat="44.2920536" lon="5.3685713"><ele>599.0</ele><time>2026-04-10T10:11:04.855Z</time></trkpt><trkpt lat="44.2921169" lon="5.36861"><ele>599.0</ele><time>2026-04-10T10:11:05.853Z</time></trkpt><trkpt lat="44.292209" lon="5.3686625"><ele>595.8</ele><time>2026-04-10T10:11:06.857Z</time></trkpt><trkpt lat="44.2923149" lon="5.3687105"><ele>592.5999999999999</ele><time>2026-04-10T10:11:07.852Z</time></trkpt><trkpt lat="44.2924089" lon="5.3687493"><ele>589.4</ele><time>2026-04-10T10:11:08.855Z</time></trkpt><trkpt lat="44.2924899" lon="5.3687678"><ele>586.1999999999999</ele><time>2026-04-10T10:11:09.856Z</time></trkpt><trkpt lat="44.2925587" lon="5.3687509"><ele>583.0</ele><time>2026-04-10T10:11:10.857Z</time></trkpt><trkpt lat="44.2926359" lon="5.368625"><ele>583.0</ele><time>2026-04-10T10:11:12.855Z</time></trkpt><trkpt lat="44.2926632" lon="5.368491"><ele>583.0</ele><time>2026-04-10T10:11:13.852Z</time></trkpt><trkpt lat="44.2926892" lon="5.3683253"><ele>583.0</ele><time>2026-04-10T10:11:14.862Z</time></trkpt><trkpt lat="44.2927139" lon="5.368152"><ele>583.0</ele><time>2026-04-10T10:11:15.855Z</time></trkpt><trkpt lat="44.2927414" lon="5.3679682"><ele>585.25</ele><time>2026-04-10T10:11:16.855Z</time></trkpt><trkpt lat="44.2927767" lon="5.3677701"><ele>587.5</ele><time>2026-04-10T10:11:17.856Z</time></trkpt><trkpt lat="44.2928103" lon="5.3675718"><ele>589.75</ele><time>2026-04-10T10:11:18.857Z</time></trkpt><trkpt lat="44.2928528" lon="5.3673686"><ele>592.0</ele><time>2026-04-10T10:11:19.854Z</time></trkpt><trkpt lat="44.292907" lon="5.3671674"><ele>595.0</ele><time>2026-04-10T10:11:20.857Z</time></trkpt><trkpt lat="44.2929619" lon="5.3669631"><ele>598.0</ele><time>2026-04-10T10:11:21.856Z</time></trkpt><trkpt lat="44.2930277" lon="5.3667668"><ele>601.0</ele><time>2026-04-10T10:11:22.855Z</time></trkpt><trkpt lat="44.2931005" lon="5.3665666"><ele>595.25</ele><time>2026-04-10T10:11:23.859Z</time></trkpt><trkpt lat="44.2931789" lon="5.3663821"><ele>589.5</ele><time>2026-04-10T10:11:24.855Z</time></trkpt><trkpt lat="44.2932694" lon="5.3662057"><ele>583.75</ele><time>2026-04-10T10:11:25.854Z</time></trkpt><trkpt lat="44.2933393" lon="5.3660444"><ele>578.0</ele><time>2026-04-10T10:11:26.854Z</time></trkpt><trkpt lat="44.2933897" lon="5.3658844"><ele>578.0</ele><time>2026-04-10T10:11:27.854Z</time></trkpt><trkpt lat="44.2934397" lon="5.3657243"><ele>578.0</ele><time>2026-04-10T10:11:28.855Z</time></trkpt><trkpt lat="44.2935045" lon="5.365569"><ele>578.0</ele><time>2026-04-10T10:11:29.862Z</time></trkpt><trkpt lat="44.2935492" lon="5.3654199"><ele>578.0</ele><time>2026-04-10T10:11:30.858Z</time></trkpt><trkpt lat="44.2935985" lon="5.3652877"><ele>577.0</ele><time>2026-04-10T10:11:31.853Z</time></trkpt><trkpt lat="44.2936382" lon="5.3651926"><ele>576.0</ele><time>2026-04-10T10:11:32.859Z</time></trkpt><trkpt lat="44.2936928" lon="5.3651313"><ele>575.0</ele><time>2026-04-10T10:11:33.854Z</time></trkpt><trkpt lat="44.2937682" lon="5.3650963"><ele>574.0</ele><time>2026-04-10T10:11:34.856Z</time></trkpt><trkpt lat="44.2938648" lon="5.3650674"><ele>573.0</ele><time>2026-04-10T10:11:35.854Z</time></trkpt><trkpt lat="44.2939932" lon="5.3650231"><ele>573.0</ele><time>2026-04-10T10:11:36.854Z</time></trkpt><trkpt lat="44.2941284" lon="5.3649745"><ele>573.0</ele><time>2026-04-10T10:11:37.853Z</time></trkpt><trkpt lat="44.2942476" lon="5.3649146"><ele>573.0</ele><time>2026-04-10T10:11:38.853Z</time></trkpt><trkpt lat="44.2943656" lon="5.3648519"><ele>573.0</ele><time>2026-04-10T10:11:39.855Z</time></trkpt><trkpt lat="44.2944899" lon="5.3647846"><ele>573.0</ele><time>2026-04-10T10:11:40.855Z</time></trkpt><trkpt lat="44.29461" lon="5.3647313"><ele>573.0</ele><time>2026-04-10T10:11:41.854Z</time></trkpt><trkpt lat="44.2947336" lon="5.36468"><ele>573.0</ele><time>2026-04-10T10:11:42.853Z</time></trkpt><trkpt lat="44.2948746" lon="5.3646391"><ele>573.0</ele><time>2026-04-10T10:11:43.856Z</time></trkpt><trkpt lat="44.2950051" lon="5.3646035"><ele>576.25</ele><time>2026-04-10T10:11:44.854Z</time></trkpt><trkpt lat="44.2951368" lon="5.3645851"><ele>579.5</ele><time>2026-04-10T10:11:45.856Z</time></trkpt><trkpt lat="44.2952735" lon="5.3645523"><ele>582.75</ele><time>2026-04-10T10:11:46.853Z</time></trkpt><trkpt lat="44.295406" lon="5.3645275"><ele>586.0</ele><time>2026-04-10T10:11:47.853Z</time></trkpt><trkpt lat="44.2955351" lon="5.3644871"><ele>581.75</ele><time>2026-04-10T10:11:48.851Z</time></trkpt><trkpt lat="44.2956669" lon="5.3644568"><ele>577.5</ele><time>2026-04-10T10:11:49.852Z</time></trkpt><trkpt lat="44.2957958" lon="5.3644342"><ele>573.25</ele><time>2026-04-10T10:11:50.854Z</time></trkpt><trkpt lat="44.2959236" lon="5.3644139"><ele>569.0</ele><time>2026-04-10T10:11:51.853Z</time></trkpt><trkpt lat="44.2960469" lon="5.3643838"><ele>569.0</ele><time>2026-04-10T10:11:52.857Z</time></trkpt><trkpt lat="44.2961542" lon="5.3643415"><ele>569.0</ele><time>2026-04-10T10:11:53.858Z</time></trkpt><trkpt lat="44.2962575" lon="5.3642789"><ele>569.0</ele><time>2026-04-10T10:11:54.856Z</time></trkpt><trkpt lat="44.2963518" lon="5.3641689"><ele>569.0</ele><time>2026-04-10T10:11:55.854Z</time></trkpt><trkpt lat="44.2964454" lon="5.3640371"><ele>565.6666666666666</ele><time>2026-04-10T10:11:56.857Z</time></trkpt><trkpt lat="44.2965491" lon="5.3639107"><ele>562.3333333333334</ele><time>2026-04-10T10:11:57.857Z</time></trkpt><trkpt lat="44.2966854" lon="5.3638121"><ele>559.0</ele><time>2026-04-10T10:11:58.852Z</time></trkpt><trkpt lat="44.2968293" lon="5.3637134"><ele>559.0</ele><time>2026-04-10T10:11:59.853Z</time></trkpt><trkpt lat="44.2969645" lon="5.3636262"><ele>559.0</ele><time>2026-04-10T10:12:00.857Z</time></trkpt><trkpt lat="44.2970864" lon="5.3635391"><ele>559.0</ele><time>2026-04-10T10:12:01.855Z</time></trkpt><trkpt lat="44.297205" lon="5.363452"><ele>559.0</ele><time>2026-04-10T10:12:02.852Z</time></trkpt><trkpt lat="44.2973157" lon="5.3633729"><ele>557.6</ele><time>2026-04-10T10:12:03.857Z</time></trkpt><trkpt lat="44.2974084" lon="5.363294"><ele>556.2</ele><time>2026-04-10T10:12:04.855Z</time></trkpt><trkpt lat="44.2974798" lon="5.3632177"><ele>554.8000000000001</ele><time>2026-04-10T10:12:05.85Z</time></trkpt><trkpt lat="44.2975326" lon="5.3631229"><ele>553.4</ele><time>2026-04-10T10:12:06.857Z</time></trkpt><trkpt lat="44.29756" lon="5.3630066"><ele>552.0</ele><time>2026-04-10T10:12:07.854Z</time></trkpt><trkpt lat="44.2975641" lon="5.3628679"><ele>552.0</ele><time>2026-04-10T10:12:08.853Z</time></trkpt><trkpt lat="44.2975633" lon="5.3627046"><ele>552.0</ele><time>2026-04-10T10:12:09.852Z</time></trkpt><trkpt lat="44.2975619" lon="5.3625262"><ele>552.0</ele><time>2026-04-10T10:12:10.854Z</time></trkpt><trkpt lat="44.2975677" lon="5.3623414"><ele>552.0</ele><time>2026-04-10T10:12:11.864Z</time></trkpt><trkpt lat="44.2975715" lon="5.3621528"><ele>552.0</ele><time>2026-04-10T10:12:12.854Z</time></trkpt><trkpt lat="44.297565" lon="5.3619571"><ele>552.0</ele><time>2026-04-10T10:12:13.863Z</time></trkpt><trkpt lat="44.2975505" lon="5.361755"><ele>552.0</ele><time>2026-04-10T10:12:14.858Z</time></trkpt><trkpt lat="44.2975466" lon="5.361566"><ele>552.0</ele><time>2026-04-10T10:12:15.856Z</time></trkpt><trkpt lat="44.2975486" lon="5.361376"><ele>552.75</ele><time>2026-04-10T10:12:16.855Z</time></trkpt><trkpt lat="44.2975723" lon="5.3611813"><ele>553.5</ele><time>2026-04-10T10:12:17.857Z</time></trkpt><trkpt lat="44.2976159" lon="5.3609884"><ele>554.25</ele><time>2026-04-10T10:12:18.86Z</time></trkpt><trkpt lat="44.297661" lon="5.3607933"><ele>555.0</ele><time>2026-04-10T10:12:19.858Z</time></trkpt><trkpt lat="44.2977102" lon="5.3606097"><ele>554.2</ele><time>2026-04-10T10:12:20.853Z</time></trkpt><trkpt lat="44.2977442" lon="5.3604559"><ele>553.4</ele><time>2026-04-10T10:12:21.857Z</time></trkpt><trkpt lat="44.2977614" lon="5.3603138"><ele>552.6</ele><time>2026-04-10T10:12:22.853Z</time></trkpt><trkpt lat="44.2977524" lon="5.3601878"><ele>551.8</ele><time>2026-04-10T10:12:23.854Z</time></trkpt><trkpt lat="44.2977084" lon="5.3600796"><ele>551.0</ele><time>2026-04-10T10:12:24.851Z</time></trkpt><trkpt lat="44.2976306" lon="5.3599931"><ele>551.0</ele><time>2026-04-10T10:12:25.854Z</time></trkpt><trkpt lat="44.2975247" lon="5.3599295"><ele>551.0</ele><time>2026-04-10T10:12:26.854Z</time></trkpt><trkpt lat="44.2974007" lon="5.3598707"><ele>551.0</ele><time>2026-04-10T10:12:27.854Z</time></trkpt><trkpt lat="44.2972681" lon="5.3598173"><ele>551.0</ele><time>2026-04-10T10:12:28.856Z</time></trkpt><trkpt lat="44.2971342" lon="5.3597682"><ele>551.0</ele><time>2026-04-10T10:12:29.86Z</time></trkpt><trkpt lat="44.2969981" lon="5.3597106"><ele>551.0</ele><time>2026-04-10T10:12:30.855Z</time></trkpt><trkpt lat="44.296872" lon="5.359665"><ele>551.0</ele><time>2026-04-10T10:12:31.855Z</time></trkpt><trkpt lat="44.2967169" lon="5.3596214"><ele>551.0</ele><time>2026-04-10T10:12:32.855Z</time></trkpt><trkpt lat="44.2965838" lon="5.3595705"><ele>551.0</ele><time>2026-04-10T10:12:33.853Z</time></trkpt><trkpt lat="44.2964752" lon="5.3595382"><ele>551.0</ele><time>2026-04-10T10:12:34.854Z</time></trkpt><trkpt lat="44.2963864" lon="5.3595092"><ele>551.0</ele><time>2026-04-10T10:12:35.855Z</time></trkpt><trkpt lat="44.296257" lon="5.3594212"><ele>551.0</ele><time>2026-04-10T10:12:37.854Z</time></trkpt><trkpt lat="44.2962632" lon="5.3593061"><ele>551.0</ele><time>2026-04-10T10:12:38.854Z</time></trkpt><trkpt lat="44.2963016" lon="5.3591961"><ele>553.0</ele><time>2026-04-10T10:12:39.855Z</time></trkpt><trkpt lat="44.2963467" lon="5.3590789"><ele>555.0</ele><time>2026-04-10T10:12:40.853Z</time></trkpt><trkpt lat="44.2963925" lon="5.3589545"><ele>557.0</ele><time>2026-04-10T10:12:41.855Z</time></trkpt><trkpt lat="44.2964495" lon="5.3588378"><ele>559.0</ele><time>2026-04-10T10:12:42.857Z</time></trkpt><trkpt lat="44.2965216" lon="5.3587275"><ele>561.0</ele><time>2026-04-10T10:12:43.862Z</time></trkpt><trkpt lat="44.2966173" lon="5.3586518"><ele>561.5</ele><time>2026-04-10T10:12:44.854Z</time></trkpt><trkpt lat="44.2967703" lon="5.3586645"><ele>562.0</ele><time>2026-04-10T10:12:45.853Z</time></trkpt><trkpt lat="44.2968818" lon="5.3586166"><ele>562.5</ele><time>2026-04-10T10:12:46.852Z</time></trkpt><trkpt lat="44.2969943" lon="5.3585795"><ele>563.0</ele><time>2026-04-10T10:12:47.852Z</time></trkpt><trkpt lat="44.2971355" lon="5.3585648"><ele>561.25</ele><time>2026-04-10T10:12:48.852Z</time></trkpt><trkpt lat="44.2972584" lon="5.358544"><ele>559.5</ele><time>2026-04-10T10:12:49.854Z</time></trkpt><trkpt lat="44.297387" lon="5.3585398"><ele>557.75</ele><time>2026-04-10T10:12:50.851Z</time></trkpt><trkpt lat="44.2975088" lon="5.3585069"><ele>556.0</ele><time>2026-04-10T10:12:51.853Z</time></trkpt><trkpt lat="44.2976234" lon="5.358484"><ele>556.0</ele><time>2026-04-10T10:12:52.853Z</time></trkpt><trkpt lat="44.2977238" lon="5.3584734"><ele>556.0</ele><time>2026-04-10T10:12:53.854Z</time></trkpt><trkpt lat="44.2977978" lon="5.3584314"><ele>556.0</ele><time>2026-04-10T10:12:54.855Z</time></trkpt><trkpt lat="44.2978581" lon="5.3583574"><ele>556.0</ele><time>2026-04-10T10:12:55.852Z</time></trkpt><trkpt lat="44.2978969" lon="5.3582496"><ele>556.0</ele><time>2026-04-10T10:12:56.852Z</time></trkpt><trkpt lat="44.2979156" lon="5.3581166"><ele>556.0</ele><time>2026-04-10T10:12:57.856Z</time></trkpt><trkpt lat="44.2979259" lon="5.3579625"><ele>557.25</ele><time>2026-04-10T10:12:58.855Z</time></trkpt><trkpt lat="44.2979371" lon="5.3577975"><ele>558.5</ele><time>2026-04-10T10:12:59.851Z</time></trkpt><trkpt lat="44.2979441" lon="5.3576252"><ele>559.75</ele><time>2026-04-10T10:13:00.855Z</time></trkpt><trkpt lat="44.2979541" lon="5.3574399"><ele>561.0</ele><time>2026-04-10T10:13:01.852Z</time></trkpt><trkpt lat="44.2979717" lon="5.3572571"><ele>561.5</ele><time>2026-04-10T10:13:02.857Z</time></trkpt><trkpt lat="44.2979879" lon="5.357077"><ele>562.0</ele><time>2026-04-10T10:13:03.854Z</time></trkpt><trkpt lat="44.2980041" lon="5.3569014"><ele>562.5</ele><time>2026-04-10T10:13:04.857Z</time></trkpt><trkpt lat="44.298044" lon="5.3567461"><ele>563.0</ele><time>2026-04-10T10:13:05.854Z</time></trkpt><trkpt lat="44.2981044" lon="5.3566022"><ele>561.75</ele><time>2026-04-10T10:13:06.86Z</time></trkpt><trkpt lat="44.2982087" lon="5.3564967"><ele>560.5</ele><time>2026-04-10T10:13:07.855Z</time></trkpt><trkpt lat="44.2982965" lon="5.3563659"><ele>559.25</ele><time>2026-04-10T10:13:08.853Z</time></trkpt><trkpt lat="44.2983762" lon="5.3562222"><ele>558.0</ele><time>2026-04-10T10:13:09.852Z</time></trkpt><trkpt lat="44.2984372" lon="5.35607"><ele>558.0</ele><time>2026-04-10T10:13:10.854Z</time></trkpt><trkpt lat="44.298486" lon="5.3559201"><ele>558.0</ele><time>2026-04-10T10:13:11.856Z</time></trkpt><trkpt lat="44.2985212" lon="5.3557787"><ele>558.0</ele><time>2026-04-10T10:13:12.85Z</time></trkpt><trkpt lat="44.2985537" lon="5.3556354"><ele>558.0</ele><time>2026-04-10T10:13:13.857Z</time></trkpt><trkpt lat="44.2985903" lon="5.3554786"><ele>558.4</ele><time>2026-04-10T10:13:14.853Z</time></trkpt><trkpt lat="44.2986199" lon="5.3553273"><ele>558.8</ele><time>2026-04-10T10:13:15.851Z</time></trkpt><trkpt lat="44.2986492" lon="5.355175"><ele>559.2</ele><time>2026-04-10T10:13:16.855Z</time></trkpt><trkpt lat="44.2986662" lon="5.3550302"><ele>559.6</ele><time>2026-04-10T10:13:17.852Z</time></trkpt><trkpt lat="44.2986682" lon="5.3548717"><ele>560.0</ele><time>2026-04-10T10:13:18.854Z</time></trkpt><trkpt lat="44.2986645" lon="5.3547224"><ele>560.75</ele><time>2026-04-10T10:13:19.854Z</time></trkpt><trkpt lat="44.2986655" lon="5.3545609"><ele>561.5</ele><time>2026-04-10T10:13:20.853Z</time></trkpt><trkpt lat="44.2986701" lon="5.3543991"><ele>562.25</ele><time>2026-04-10T10:13:21.853Z</time></trkpt><trkpt lat="44.2986746" lon="5.3542357"><ele>563.0</ele><time>2026-04-10T10:13:22.857Z</time></trkpt><trkpt lat="44.2986879" lon="5.3540609"><ele>563.0</ele><time>2026-04-10T10:13:23.856Z</time></trkpt><trkpt lat="44.2987097" lon="5.353887"><ele>563.0</ele><time>2026-04-10T10:13:24.861Z</time></trkpt><trkpt lat="44.29873" lon="5.3537098"><ele>563.0</ele><time>2026-04-10T10:13:25.853Z</time></trkpt><trkpt lat="44.2987474" lon="5.3535237"><ele>563.0</ele><time>2026-04-10T10:13:26.849Z</time></trkpt><trkpt lat="44.2987698" lon="5.3533263"><ele>563.25</ele><time>2026-04-10T10:13:27.859Z</time></trkpt><trkpt lat="44.2987972" lon="5.3531298"><ele>563.5</ele><time>2026-04-10T10:13:28.856Z</time></trkpt><trkpt lat="44.2988243" lon="5.3529456"><ele>563.75</ele><time>2026-04-10T10:13:29.851Z</time></trkpt><trkpt lat="44.29885" lon="5.352763"><ele>564.0</ele><time>2026-04-10T10:13:30.853Z</time></trkpt><trkpt lat="44.2988746" lon="5.3525897"><ele>564.5</ele><time>2026-04-10T10:13:31.853Z</time></trkpt><trkpt lat="44.2988958" lon="5.3524199"><ele>565.0</ele><time>2026-04-10T10:13:32.856Z</time></trkpt><trkpt lat="44.2989495" lon="5.3522617"><ele>565.5</ele><time>2026-04-10T10:13:33.857Z</time></trkpt><trkpt lat="44.2990203" lon="5.352112"><ele>566.0</ele><time>2026-04-10T10:13:34.855Z</time></trkpt><trkpt lat="44.2990852" lon="5.3519618"><ele>564.0</ele><time>2026-04-10T10:13:35.855Z</time></trkpt><trkpt lat="44.2991396" lon="5.3518012"><ele>562.0</ele><time>2026-04-10T10:13:36.854Z</time></trkpt><trkpt lat="44.2991839" lon="5.3516349"><ele>560.0</ele><time>2026-04-10T10:13:37.856Z</time></trkpt><trkpt lat="44.299224" lon="5.3514647"><ele>558.0</ele><time>2026-04-10T10:13:38.85Z</time></trkpt><trkpt lat="44.2992589" lon="5.3513058"><ele>558.0</ele><time>2026-04-10T10:13:39.854Z</time></trkpt><trkpt lat="44.2992836" lon="5.3511528"><ele>558.0</ele><time>2026-04-10T10:13:40.852Z</time></trkpt><trkpt lat="44.299308" lon="5.3510295"><ele>558.0</ele><time>2026-04-10T10:13:41.852Z</time></trkpt><trkpt lat="44.2993255" lon="5.3509137"><ele>558.0</ele><time>2026-04-10T10:13:42.851Z</time></trkpt><trkpt lat="44.2993352" lon="5.3507978"><ele>558.0</ele><time>2026-04-10T10:13:43.859Z</time></trkpt><trkpt lat="44.2993455" lon="5.3506758"><ele>558.0</ele><time>2026-04-10T10:13:44.853Z</time></trkpt><trkpt lat="44.2993527" lon="5.350569"><ele>558.0</ele><time>2026-04-10T10:13:45.858Z</time></trkpt><trkpt lat="44.299366" lon="5.3504139"><ele>558.0</ele><time>2026-04-10T10:13:47.858Z</time></trkpt><trkpt lat="44.2993839" lon="5.3502976"><ele>558.0</ele><time>2026-04-10T10:13:48.855Z</time></trkpt><trkpt lat="44.2993896" lon="5.3501589"><ele>558.0</ele><time>2026-04-10T10:13:49.852Z</time></trkpt><trkpt lat="44.299398" lon="5.350001"><ele>557.5</ele><time>2026-04-10T10:13:50.853Z</time></trkpt><trkpt lat="44.2994208" lon="5.3498328"><ele>557.0</ele><time>2026-04-10T10:13:51.852Z</time></trkpt><trkpt lat="44.299462" lon="5.3496561"><ele>556.5</ele><time>2026-04-10T10:13:52.855Z</time></trkpt><trkpt lat="44.299528" lon="5.3494853"><ele>556.0</ele><time>2026-04-10T10:13:53.851Z</time></trkpt><trkpt lat="44.2995875" lon="5.3493153"><ele>555.75</ele><time>2026-04-10T10:13:54.855Z</time></trkpt><trkpt lat="44.2996467" lon="5.3491478"><ele>555.5</ele><time>2026-04-10T10:13:55.852Z</time></trkpt><trkpt lat="44.2997079" lon="5.3489825"><ele>555.25</ele><time>2026-04-10T10:13:56.851Z</time></trkpt><trkpt lat="44.2997697" lon="5.3488127"><ele>555.0</ele><time>2026-04-10T10:13:57.851Z</time></trkpt><trkpt lat="44.2998274" lon="5.3486418"><ele>551.2</ele><time>2026-04-10T10:13:58.854Z</time></trkpt><trkpt lat="44.2998764" lon="5.3484755"><ele>547.4</ele><time>2026-04-10T10:13:59.853Z</time></trkpt><trkpt lat="44.2999065" lon="5.3483284"><ele>543.6</ele><time>2026-04-10T10:14:00.852Z</time></trkpt><trkpt lat="44.2999128" lon="5.3481918"><ele>539.8</ele><time>2026-04-10T10:14:01.853Z</time></trkpt><trkpt lat="44.2999184" lon="5.3480589"><ele>536.0</ele><time>2026-04-10T10:14:02.852Z</time></trkpt><trkpt lat="44.2999178" lon="5.3479299"><ele>534.6</ele><time>2026-04-10T10:14:03.851Z</time></trkpt><trkpt lat="44.2999177" lon="5.3477945"><ele>533.2</ele><time>2026-04-10T10:14:04.854Z</time></trkpt><trkpt lat="44.2999006" lon="5.3476484"><ele>531.8</ele><time>2026-04-10T10:14:05.853Z</time></trkpt><trkpt lat="44.2998804" lon="5.3475156"><ele>530.4</ele><time>2026-04-10T10:14:06.855Z</time></trkpt><trkpt lat="44.2998374" lon="5.3473935"><ele>529.0</ele><time>2026-04-10T10:14:07.855Z</time></trkpt><trkpt lat="44.2998046" lon="5.3473007"><ele>529.0</ele><time>2026-04-10T10:14:08.854Z</time></trkpt><trkpt lat="44.2997683" lon="5.3471682"><ele>529.0</ele><time>2026-04-10T10:14:10.857Z</time></trkpt><trkpt lat="44.2998538" lon="5.347148"><ele>529.0</ele><time>2026-04-10T10:14:12.857Z</time></trkpt><trkpt lat="44.2999487" lon="5.3472608"><ele>529.0</ele><time>2026-04-10T10:14:14.854Z</time></trkpt><trkpt lat="44.2999963" lon="5.3473438"><ele>529.0</ele><time>2026-04-10T10:14:15.855Z</time></trkpt><trkpt lat="44.3000531" lon="5.3474351"><ele>529.0</ele><time>2026-04-10T10:14:16.853Z</time></trkpt><trkpt lat="44.3001202" lon="5.3475307"><ele>529.0</ele><time>2026-04-10T10:14:17.858Z</time></trkpt><trkpt lat="44.3001845" lon="5.3476144"><ele>529.0</ele><time>2026-04-10T10:14:18.854Z</time></trkpt><trkpt lat="44.3002567" lon="5.3476839"><ele>529.0</ele><time>2026-04-10T10:14:19.856Z</time></trkpt><trkpt lat="44.300328" lon="5.3477489"><ele>529.0</ele><time>2026-04-10T10:14:20.854Z</time></trkpt><trkpt lat="44.3003972" lon="5.3478102"><ele>529.0</ele><time>2026-04-10T10:14:21.853Z</time></trkpt><trkpt lat="44.3004619" lon="5.3478676"><ele>529.0</ele><time>2026-04-10T10:14:22.855Z</time></trkpt><trkpt lat="44.3005226" lon="5.3479414"><ele>529.0</ele><time>2026-04-10T10:14:23.855Z</time></trkpt><trkpt lat="44.3005529" lon="5.348034"><ele>529.0</ele><time>2026-04-10T10:14:24.855Z</time></trkpt><trkpt lat="44.3005827" lon="5.3481258"><ele>529.0</ele><time>2026-04-10T10:14:25.854Z</time></trkpt><trkpt lat="44.3006124" lon="5.3482193"><ele>529.0</ele><time>2026-04-10T10:14:26.854Z</time></trkpt><trkpt lat="44.3006646" lon="5.3482814"><ele>529.0</ele><time>2026-04-10T10:14:27.855Z</time></trkpt><trkpt lat="44.3007804" lon="5.3482794"><ele>527.5</ele><time>2026-04-10T10:14:29.86Z</time></trkpt><trkpt lat="44.3008954" lon="5.3482001"><ele>526.0</ele><time>2026-04-10T10:14:31.852Z</time></trkpt><trkpt lat="44.3009564" lon="5.3481506"><ele>524.5</ele><time>2026-04-10T10:14:32.853Z</time></trkpt><trkpt lat="44.3010187" lon="5.348102"><ele>523.0</ele><time>2026-04-10T10:14:33.853Z</time></trkpt><trkpt lat="44.3010763" lon="5.3480535"><ele>521.5</ele><time>2026-04-10T10:14:34.856Z</time></trkpt><trkpt lat="44.3011553" lon="5.3480176"><ele>520.0</ele><time>2026-04-10T10:14:36.857Z</time></trkpt><trkpt lat="44.301223" lon="5.3480796"><ele>520.0</ele><time>2026-04-10T10:14:39.865Z</time></trkpt><trkpt lat="44.3012709" lon="5.3482382"><ele>520.0</ele><time>2026-04-10T10:14:41.854Z</time></trkpt><trkpt lat="44.3013202" lon="5.3483352"><ele>520.0</ele><time>2026-04-10T10:14:42.854Z</time></trkpt><trkpt lat="44.3013644" lon="5.3484495"><ele>520.0</ele><time>2026-04-10T10:14:43.85Z</time></trkpt><trkpt lat="44.3014214" lon="5.3485626"><ele>520.0</ele><time>2026-04-10T10:14:44.855Z</time></trkpt><trkpt lat="44.3014832" lon="5.3486811"><ele>522.75</ele><time>2026-04-10T10:14:45.855Z</time></trkpt><trkpt lat="44.3015538" lon="5.348805"><ele>525.5</ele><time>2026-04-10T10:14:46.854Z</time></trkpt><trkpt lat="44.3016227" lon="5.3489375"><ele>528.25</ele><time>2026-04-10T10:14:47.852Z</time></trkpt><trkpt lat="44.301687" lon="5.3490758"><ele>531.0</ele><time>2026-04-10T10:14:48.854Z</time></trkpt><trkpt lat="44.3017564" lon="5.3492145"><ele>531.0</ele><time>2026-04-10T10:14:49.855Z</time></trkpt><trkpt lat="44.3018228" lon="5.3493474"><ele>531.0</ele><time>2026-04-10T10:14:50.853Z</time></trkpt><trkpt lat="44.3018738" lon="5.3495171"><ele>531.0</ele><time>2026-04-10T10:14:51.85Z</time></trkpt><trkpt lat="44.3019234" lon="5.3496916"><ele>531.0</ele><time>2026-04-10T10:14:52.851Z</time></trkpt><trkpt lat="44.3019443" lon="5.3498795"><ele>528.75</ele><time>2026-04-10T10:14:53.851Z</time></trkpt><trkpt lat="44.3019648" lon="5.3500742"><ele>526.5</ele><time>2026-04-10T10:14:54.856Z</time></trkpt><trkpt lat="44.3019786" lon="5.350271"><ele>524.25</ele><time>2026-04-10T10:14:55.852Z</time></trkpt><trkpt lat="44.3019921" lon="5.3504709"><ele>522.0</ele><time>2026-04-10T10:14:56.851Z</time></trkpt><trkpt lat="44.3019864" lon="5.3506831"><ele>522.0</ele><time>2026-04-10T10:14:57.851Z</time></trkpt><trkpt lat="44.3019524" lon="5.3509042"><ele>522.0</ele><time>2026-04-10T10:14:58.853Z</time></trkpt><trkpt lat="44.3019152" lon="5.3511318"><ele>522.0</ele><time>2026-04-10T10:14:59.854Z</time></trkpt><trkpt lat="44.3018644" lon="5.35136"><ele>523.0</ele><time>2026-04-10T10:15:00.851Z</time></trkpt><trkpt lat="44.3017977" lon="5.35156"><ele>524.0</ele><time>2026-04-10T10:15:01.852Z</time></trkpt><trkpt lat="44.3017537" lon="5.3517562"><ele>525.0</ele><time>2026-04-10T10:15:02.856Z</time></trkpt><trkpt lat="44.3017018" lon="5.3519557"><ele>525.0</ele><time>2026-04-10T10:15:03.853Z</time></trkpt><trkpt lat="44.301651" lon="5.3521542"><ele>525.0</ele><time>2026-04-10T10:15:04.862Z</time></trkpt><trkpt lat="44.3015915" lon="5.35234"><ele>525.0</ele><time>2026-04-10T10:15:05.853Z</time></trkpt><trkpt lat="44.3015431" lon="5.3525177"><ele>525.0</ele><time>2026-04-10T10:15:06.853Z</time></trkpt><trkpt lat="44.3014973" lon="5.3527027"><ele>525.25</ele><time>2026-04-10T10:15:07.853Z</time></trkpt><trkpt lat="44.3014729" lon="5.3528738"><ele>525.5</ele><time>2026-04-10T10:15:08.855Z</time></trkpt><trkpt lat="44.3014559" lon="5.3530349"><ele>525.75</ele><time>2026-04-10T10:15:09.855Z</time></trkpt><trkpt lat="44.3014536" lon="5.3531928"><ele>526.0</ele><time>2026-04-10T10:15:10.856Z</time></trkpt><trkpt lat="44.3014493" lon="5.3533264"><ele>526.0</ele><time>2026-04-10T10:15:11.853Z</time></trkpt><trkpt lat="44.3014484" lon="5.3534482"><ele>526.0</ele><time>2026-04-10T10:15:12.856Z</time></trkpt><trkpt lat="44.3014479" lon="5.3535569"><ele>526.0</ele><time>2026-04-10T10:15:13.853Z</time></trkpt><trkpt lat="44.3014508" lon="5.3536461"><ele>526.0</ele><time>2026-04-10T10:15:14.854Z</time></trkpt><trkpt lat="44.3015191" lon="5.3537417"><ele>526.0</ele><time>2026-04-10T10:15:16.863Z</time></trkpt><trkpt lat="44.3016286" lon="5.3537039"><ele>526.0</ele><time>2026-04-10T10:15:18.852Z</time></trkpt><trkpt lat="44.3017107" lon="5.3536633"><ele>526.0</ele><time>2026-04-10T10:15:19.852Z</time></trkpt><trkpt lat="44.3017948" lon="5.3536582"><ele>526.0</ele><time>2026-04-10T10:15:20.855Z</time></trkpt><trkpt lat="44.3018699" lon="5.3537041"><ele>526.0</ele><time>2026-04-10T10:15:21.853Z</time></trkpt><trkpt lat="44.301972" lon="5.3537432"><ele>526.0</ele><time>2026-04-10T10:15:22.856Z</time></trkpt><trkpt lat="44.3020744" lon="5.3538014"><ele>526.0</ele><time>2026-04-10T10:15:23.851Z</time></trkpt><trkpt lat="44.3021689" lon="5.3538445"><ele>530.2</ele><time>2026-04-10T10:15:24.854Z</time></trkpt><trkpt lat="44.3022716" lon="5.3538744"><ele>534.4000000000001</ele><time>2026-04-10T10:15:25.852Z</time></trkpt><trkpt lat="44.3023804" lon="5.3538922"><ele>538.6</ele><time>2026-04-10T10:15:26.853Z</time></trkpt><trkpt lat="44.3024929" lon="5.3539211"><ele>542.8000000000001</ele><time>2026-04-10T10:15:27.854Z</time></trkpt><trkpt lat="44.3025997" lon="5.3539517"><ele>547.0</ele><time>2026-04-10T10:15:28.855Z</time></trkpt><trkpt lat="44.3027066" lon="5.3539884"><ele>547.0</ele><time>2026-04-10T10:15:29.851Z</time></trkpt><trkpt lat="44.3028081" lon="5.3540415"><ele>547.0</ele><time>2026-04-10T10:15:30.853Z</time></trkpt><trkpt lat="44.3028932" lon="5.3541161"><ele>547.0</ele><time>2026-04-10T10:15:31.851Z</time></trkpt><trkpt lat="44.302965" lon="5.3542209"><ele>547.0</ele><time>2026-04-10T10:15:32.856Z</time></trkpt><trkpt lat="44.303045" lon="5.3543254"><ele>547.0</ele><time>2026-04-10T10:15:33.854Z</time></trkpt><trkpt lat="44.303141" lon="5.3544059"><ele>547.2</ele><time>2026-04-10T10:15:34.857Z</time></trkpt><trkpt lat="44.303227" lon="5.3544256"><ele>547.4000000000001</ele><time>2026-04-10T10:15:35.854Z</time></trkpt><trkpt lat="44.3033076" lon="5.3544746"><ele>547.5999999999999</ele><time>2026-04-10T10:15:36.857Z</time></trkpt><trkpt lat="44.3033778" lon="5.3545324"><ele>547.8</ele><time>2026-04-10T10:15:37.856Z</time></trkpt><trkpt lat="44.3034468" lon="5.3546859"><ele>548.0</ele><time>2026-04-10T10:15:38.852Z</time></trkpt><trkpt lat="44.3035125" lon="5.3548408"><ele>552.0</ele><time>2026-04-10T10:15:39.852Z</time></trkpt><trkpt lat="44.3035696" lon="5.3550032"><ele>556.0</ele><time>2026-04-10T10:15:40.853Z</time></trkpt><trkpt lat="44.303633" lon="5.3551625"><ele>560.0</ele><time>2026-04-10T10:15:41.858Z</time></trkpt><trkpt lat="44.3036965" lon="5.3553296"><ele>564.0</ele><time>2026-04-10T10:15:42.855Z</time></trkpt><trkpt lat="44.3037681" lon="5.3555032"><ele>568.75</ele><time>2026-04-10T10:15:43.854Z</time></trkpt><trkpt lat="44.3038501" lon="5.3556579"><ele>573.5</ele><time>2026-04-10T10:15:44.854Z</time></trkpt><trkpt lat="44.3039385" lon="5.3557981"><ele>578.25</ele><time>2026-04-10T10:15:45.855Z</time></trkpt><trkpt lat="44.3040198" lon="5.3559409"><ele>583.0</ele><time>2026-04-10T10:15:46.856Z</time></trkpt><trkpt lat="44.3041083" lon="5.3560782"><ele>583.0</ele><time>2026-04-10T10:15:47.854Z</time></trkpt><trkpt lat="44.3042342" lon="5.3561584"><ele>583.0</ele><time>2026-04-10T10:15:48.855Z</time></trkpt><trkpt lat="44.304328" lon="5.3562701"><ele>583.0</ele><time>2026-04-10T10:15:49.852Z</time></trkpt><trkpt lat="44.304415" lon="5.3564039"><ele>583.0</ele><time>2026-04-10T10:15:50.856Z</time></trkpt><trkpt lat="44.3045042" lon="5.3565279"><ele>583.1999999999999</ele><time>2026-04-10T10:15:51.856Z</time></trkpt><trkpt lat="44.3045753" lon="5.3566506"><ele>583.4</ele><time>2026-04-10T10:15:52.855Z</time></trkpt><trkpt lat="44.3046494" lon="5.3567437"><ele>583.5999999999999</ele><time>2026-04-10T10:15:53.855Z</time></trkpt><trkpt lat="44.3047173" lon="5.3568314"><ele>583.8</ele><time>2026-04-10T10:15:54.856Z</time></trkpt><trkpt lat="44.3047596" lon="5.3569358"><ele>584.0</ele><time>2026-04-10T10:15:55.853Z</time></trkpt><trkpt lat="44.3047906" lon="5.3570531"><ele>584.0</ele><time>2026-04-10T10:15:56.855Z</time></trkpt><trkpt lat="44.3048188" lon="5.3571902"><ele>584.0</ele><time>2026-04-10T10:15:57.864Z</time></trkpt><trkpt lat="44.3048465" lon="5.3573338"><ele>584.0</ele><time>2026-04-10T10:15:58.854Z</time></trkpt><trkpt lat="44.3049348" lon="5.357416"><ele>584.0</ele><time>2026-04-10T10:15:59.853Z</time></trkpt><trkpt lat="44.3050216" lon="5.3574989"><ele>584.0</ele><time>2026-04-10T10:16:00.855Z</time></trkpt><trkpt lat="44.3051029" lon="5.3576117"><ele>585.4</ele><time>2026-04-10T10:16:01.859Z</time></trkpt><trkpt lat="44.3051939" lon="5.3577317"><ele>586.8</ele><time>2026-04-10T10:16:02.852Z</time></trkpt><trkpt lat="44.3052636" lon="5.357836"><ele>588.2</ele><time>2026-04-10T10:16:03.855Z</time></trkpt><trkpt lat="44.3053431" lon="5.3579272"><ele>589.6</ele><time>2026-04-10T10:16:04.853Z</time></trkpt><trkpt lat="44.3054082" lon="5.3580288"><ele>591.0</ele><time>2026-04-10T10:16:05.856Z</time></trkpt><trkpt lat="44.3054707" lon="5.3581436"><ele>593.2</ele><time>2026-04-10T10:16:06.852Z</time></trkpt><trkpt lat="44.3054928" lon="5.3582607"><ele>595.4000000000001</ele><time>2026-04-10T10:16:07.86Z</time></trkpt><trkpt lat="44.3054915" lon="5.3583887"><ele>597.6</ele><time>2026-04-10T10:16:08.853Z</time></trkpt><trkpt lat="44.3054116" lon="5.3585214"><ele>599.8000000000001</ele><time>2026-04-10T10:16:09.853Z</time></trkpt><trkpt lat="44.3053606" lon="5.3586472"><ele>602.0</ele><time>2026-04-10T10:16:10.853Z</time></trkpt><trkpt lat="44.305294" lon="5.3587943"><ele>604.25</ele><time>2026-04-10T10:16:11.865Z</time></trkpt><trkpt lat="44.3052462" lon="5.3589585"><ele>606.5</ele><time>2026-04-10T10:16:12.862Z</time></trkpt><trkpt lat="44.3051895" lon="5.3591243"><ele>608.75</ele><time>2026-04-10T10:16:13.854Z</time></trkpt><trkpt lat="44.3051426" lon="5.3592941"><ele>611.0</ele><time>2026-04-10T10:16:14.852Z</time></trkpt><trkpt lat="44.3050978" lon="5.3594272"><ele>611.0</ele><time>2026-04-10T10:16:15.857Z</time></trkpt><trkpt lat="44.3050679" lon="5.3595447"><ele>611.0</ele><time>2026-04-10T10:16:16.851Z</time></trkpt><trkpt lat="44.3050481" lon="5.3596561"><ele>611.0</ele><time>2026-04-10T10:16:17.853Z</time></trkpt><trkpt lat="44.3051152" lon="5.3597702"><ele>611.0</ele><time>2026-04-10T10:16:19.855Z</time></trkpt><trkpt lat="44.3051827" lon="5.3597648"><ele>611.0</ele><time>2026-04-10T10:16:20.852Z</time></trkpt><trkpt lat="44.3052783" lon="5.359705"><ele>611.0</ele><time>2026-04-10T10:16:21.855Z</time></trkpt><trkpt lat="44.3053834" lon="5.359652"><ele>611.0</ele><time>2026-04-10T10:16:22.857Z</time></trkpt><trkpt lat="44.305502" lon="5.3596144"><ele>611.0</ele><time>2026-04-10T10:16:23.854Z</time></trkpt><trkpt lat="44.3056064" lon="5.3595964"><ele>611.0</ele><time>2026-04-10T10:16:24.852Z</time></trkpt><trkpt lat="44.3057199" lon="5.3595942"><ele>611.0</ele><time>2026-04-10T10:16:25.856Z</time></trkpt><trkpt lat="44.3057903" lon="5.3595942"><ele>611.0</ele><time>2026-04-10T10:16:26.856Z</time></trkpt><trkpt lat="44.3059033" lon="5.3596605"><ele>611.4</ele><time>2026-04-10T10:16:28.852Z</time></trkpt><trkpt lat="44.3060078" lon="5.3597803"><ele>611.8</ele><time>2026-04-10T10:16:30.855Z</time></trkpt><trkpt lat="44.3060628" lon="5.3598739"><ele>612.1999999999999</ele><time>2026-04-10T10:16:31.852Z</time></trkpt><trkpt lat="44.3060901" lon="5.3599678"><ele>612.6</ele><time>2026-04-10T10:16:32.853Z</time></trkpt><trkpt lat="44.3060943" lon="5.3600819"><ele>613.0</ele><time>2026-04-10T10:16:33.855Z</time></trkpt><trkpt lat="44.3060801" lon="5.3602015"><ele>613.0</ele><time>2026-04-10T10:16:34.852Z</time></trkpt><trkpt lat="44.3060527" lon="5.3603451"><ele>613.0</ele><time>2026-04-10T10:16:35.856Z</time></trkpt><trkpt lat="44.3060613" lon="5.360499"><ele>613.0</ele><time>2026-04-10T10:16:36.853Z</time></trkpt><trkpt lat="44.3060805" lon="5.3606603"><ele>613.0</ele><time>2026-04-10T10:16:37.854Z</time></trkpt><trkpt lat="44.3060925" lon="5.3608152"><ele>613.0</ele><time>2026-04-10T10:16:38.852Z</time></trkpt><trkpt lat="44.3060835" lon="5.3609464"><ele>615.3333333333334</ele><time>2026-04-10T10:16:39.855Z</time></trkpt><trkpt lat="44.3061092" lon="5.3610553"><ele>617.6666666666667</ele><time>2026-04-10T10:16:40.854Z</time></trkpt><trkpt lat="44.3061546" lon="5.3611471"><ele>620.0</ele><time>2026-04-10T10:16:41.855Z</time></trkpt><trkpt lat="44.3062068" lon="5.3612025"><ele>622.3333333333334</ele><time>2026-04-10T10:16:42.853Z</time></trkpt><trkpt lat="44.3063168" lon="5.361204"><ele>624.6666666666666</ele><time>2026-04-10T10:16:44.859Z</time></trkpt><trkpt lat="44.3063747" lon="5.3611362"><ele>627.0</ele><time>2026-04-10T10:16:45.853Z</time></trkpt><trkpt lat="44.3064343" lon="5.3609901"><ele>628.25</ele><time>2026-04-10T10:16:46.854Z</time></trkpt><trkpt lat="44.3064748" lon="5.3608488"><ele>629.5</ele><time>2026-04-10T10:16:47.852Z</time></trkpt><trkpt lat="44.3065431" lon="5.3607463"><ele>630.75</ele><time>2026-04-10T10:16:48.854Z</time></trkpt><trkpt lat="44.3066256" lon="5.3606371"><ele>632.0</ele><time>2026-04-10T10:16:49.852Z</time></trkpt><trkpt lat="44.3067348" lon="5.3605101"><ele>627.0</ele><time>2026-04-10T10:16:50.854Z</time></trkpt><trkpt lat="44.3068185" lon="5.3604088"><ele>622.0</ele><time>2026-04-10T10:16:51.852Z</time></trkpt><trkpt lat="44.3069236" lon="5.3603643"><ele>617.0</ele><time>2026-04-10T10:16:52.854Z</time></trkpt><trkpt lat="44.3070295" lon="5.3602986"><ele>612.0</ele><time>2026-04-10T10:16:53.853Z</time></trkpt><trkpt lat="44.307142" lon="5.3602203"><ele>615.75</ele><time>2026-04-10T10:16:54.857Z</time></trkpt><trkpt lat="44.3072502" lon="5.3601428"><ele>619.5</ele><time>2026-04-10T10:16:55.854Z</time></trkpt><trkpt lat="44.3073653" lon="5.360046"><ele>623.25</ele><time>2026-04-10T10:16:56.854Z</time></trkpt><trkpt lat="44.3074517" lon="5.359982"><ele>627.0</ele><time>2026-04-10T10:16:57.853Z</time></trkpt><trkpt lat="44.3076195" lon="5.3598503"><ele>627.0</ele><time>2026-04-10T10:16:59.854Z</time></trkpt><trkpt lat="44.307688" lon="5.3598064"><ele>627.0</ele><time>2026-04-10T10:17:00.854Z</time></trkpt><trkpt lat="44.3077353" lon="5.3597306"><ele>627.0</ele><time>2026-04-10T10:17:01.855Z</time></trkpt><trkpt lat="44.3078266" lon="5.3596293"><ele>627.0</ele><time>2026-04-10T10:17:03.855Z</time></trkpt><trkpt lat="44.3078782" lon="5.3595649"><ele>627.0</ele><time>2026-04-10T10:17:04.854Z</time></trkpt><trkpt lat="44.3079759" lon="5.3594677"><ele>627.0</ele><time>2026-04-10T10:17:06.855Z</time></trkpt><trkpt lat="44.3080156" lon="5.3593919"><ele>627.0</ele><time>2026-04-10T10:17:07.864Z</time></trkpt><trkpt lat="44.3081289" lon="5.3591949"><ele>627.0</ele><time>2026-04-10T10:17:09.855Z</time></trkpt><trkpt lat="44.3081734" lon="5.3591317"><ele>627.0</ele><time>2026-04-10T10:17:10.851Z</time></trkpt><trkpt lat="44.3082633" lon="5.3590956"><ele>627.0</ele><time>2026-04-10T10:17:12.853Z</time></trkpt><trkpt lat="44.3081992" lon="5.3590737"><ele>627.0</ele><time>2026-04-10T10:17:21.854Z</time></trkpt><trkpt lat="44.3081262" lon="5.3591704"><ele>627.0</ele><time>2026-04-10T10:17:23.852Z</time></trkpt><trkpt lat="44.3080792" lon="5.3592407"><ele>627.0</ele><time>2026-04-10T10:17:24.86Z</time></trkpt><trkpt lat="44.3079873" lon="5.3593351"><ele>627.0</ele><time>2026-04-10T10:17:26.852Z</time></trkpt><trkpt lat="44.3079045" lon="5.3594648"><ele>627.0</ele><time>2026-04-10T10:17:28.85Z</time></trkpt><trkpt lat="44.3078446" lon="5.3595206"><ele>627.0</ele><time>2026-04-10T10:17:29.853Z</time></trkpt><trkpt lat="44.3077758" lon="5.3595712"><ele>627.0</ele><time>2026-04-10T10:17:30.852Z</time></trkpt><trkpt lat="44.3077116" lon="5.3596369"><ele>627.0</ele><time>2026-04-10T10:17:31.851Z</time></trkpt><trkpt lat="44.3076514" lon="5.359705"><ele>627.0</ele><time>2026-04-10T10:17:32.851Z</time></trkpt><trkpt lat="44.3075813" lon="5.3597711"><ele>627.0</ele><time>2026-04-10T10:17:33.853Z</time></trkpt><trkpt lat="44.3075235" lon="5.359828"><ele>627.0</ele><time>2026-04-10T10:17:34.853Z</time></trkpt><trkpt lat="44.3074703" lon="5.3598839"><ele>627.0</ele><time>2026-04-10T10:17:35.857Z</time></trkpt><trkpt lat="44.307413" lon="5.3599387"><ele>627.0</ele><time>2026-04-10T10:17:36.855Z</time></trkpt><trkpt lat="44.3073573" lon="5.3599929"><ele>627.0</ele><time>2026-04-10T10:17:37.853Z</time></trkpt><trkpt lat="44.3072986" lon="5.3600511"><ele>627.0</ele><time>2026-04-10T10:17:38.853Z</time></trkpt><trkpt lat="44.3072289" lon="5.3601192"><ele>627.0</ele><time>2026-04-10T10:17:39.85Z</time></trkpt><trkpt lat="44.3071534" lon="5.3601987"><ele>627.0</ele><time>2026-04-10T10:17:40.853Z</time></trkpt><trkpt lat="44.3070671" lon="5.3602534"><ele>628.0</ele><time>2026-04-10T10:17:41.852Z</time></trkpt><trkpt lat="44.3069937" lon="5.3603096"><ele>629.0</ele><time>2026-04-10T10:17:42.852Z</time></trkpt><trkpt lat="44.3069086" lon="5.3603519"><ele>630.0</ele><time>2026-04-10T10:17:43.856Z</time></trkpt><trkpt lat="44.3068147" lon="5.3604011"><ele>631.0</ele><time>2026-04-10T10:17:44.854Z</time></trkpt><trkpt lat="44.306742" lon="5.3604719"><ele>632.0</ele><time>2026-04-10T10:17:45.854Z</time></trkpt><trkpt lat="44.3066717" lon="5.3605682"><ele>632.0</ele><time>2026-04-10T10:17:46.853Z</time></trkpt><trkpt lat="44.3065941" lon="5.3606655"><ele>632.0</ele><time>2026-04-10T10:17:47.852Z</time></trkpt><trkpt lat="44.3065255" lon="5.3607619"><ele>632.0</ele><time>2026-04-10T10:17:48.851Z</time></trkpt><trkpt lat="44.3064744" lon="5.3608614"><ele>632.0</ele><time>2026-04-10T10:17:49.853Z</time></trkpt><trkpt lat="44.3064367" lon="5.3609518"><ele>632.0</ele><time>2026-04-10T10:17:50.857Z</time></trkpt><trkpt lat="44.3063993" lon="5.3610384"><ele>632.0</ele><time>2026-04-10T10:17:51.853Z</time></trkpt><trkpt lat="44.3063126" lon="5.3611565"><ele>631.1666666666666</ele><time>2026-04-10T10:17:53.85Z</time></trkpt><trkpt lat="44.3062585" lon="5.3612085"><ele>630.3333333333333</ele><time>2026-04-10T10:17:54.855Z</time></trkpt><trkpt lat="44.3061848" lon="5.3612065"><ele>629.5</ele><time>2026-04-10T10:17:55.857Z</time></trkpt><trkpt lat="44.3061092" lon="5.3612002"><ele>628.6666666666666</ele><time>2026-04-10T10:17:56.856Z</time></trkpt><trkpt lat="44.3060324" lon="5.3611726"><ele>627.8333333333334</ele><time>2026-04-10T10:17:57.855Z</time></trkpt><trkpt lat="44.3059777" lon="5.3610468"><ele>627.0</ele><time>2026-04-10T10:17:58.852Z</time></trkpt><trkpt lat="44.3059125" lon="5.3609586"><ele>627.0</ele><time>2026-04-10T10:17:59.854Z</time></trkpt><trkpt lat="44.3058778" lon="5.3608418"><ele>627.0</ele><time>2026-04-10T10:18:00.855Z</time></trkpt><trkpt lat="44.3058324" lon="5.3607555"><ele>627.0</ele><time>2026-04-10T10:18:01.854Z</time></trkpt><trkpt lat="44.3057839" lon="5.3606776"><ele>627.0</ele><time>2026-04-10T10:18:02.857Z</time></trkpt><trkpt lat="44.3056546" lon="5.3606399"><ele>627.0</ele><time>2026-04-10T10:18:04.851Z</time></trkpt><trkpt lat="44.305556" lon="5.3606689"><ele>628.2</ele><time>2026-04-10T10:18:06.853Z</time></trkpt><trkpt lat="44.3054873" lon="5.3608121"><ele>629.4000000000001</ele><time>2026-04-10T10:18:08.853Z</time></trkpt><trkpt lat="44.3054457" lon="5.360924"><ele>630.5999999999999</ele><time>2026-04-10T10:18:09.851Z</time></trkpt><trkpt lat="44.3054207" lon="5.3610594"><ele>631.8</ele><time>2026-04-10T10:18:10.852Z</time></trkpt><trkpt lat="44.3054227" lon="5.3611741"><ele>633.0</ele><time>2026-04-10T10:18:11.855Z</time></trkpt><trkpt lat="44.3054177" lon="5.3612773"><ele>633.0</ele><time>2026-04-10T10:18:12.855Z</time></trkpt><trkpt lat="44.3053985" lon="5.3613661"><ele>633.0</ele><time>2026-04-10T10:18:13.857Z</time></trkpt><trkpt lat="44.3053364" lon="5.3615012"><ele>633.0</ele><time>2026-04-10T10:18:15.855Z</time></trkpt><trkpt lat="44.3052316" lon="5.3614192"><ele>633.0</ele><time>2026-04-10T10:18:16.854Z</time></trkpt><trkpt lat="44.3051411" lon="5.3613512"><ele>633.0</ele><time>2026-04-10T10:18:17.853Z</time></trkpt><trkpt lat="44.3050564" lon="5.3612807"><ele>633.0</ele><time>2026-04-10T10:18:18.853Z</time></trkpt><trkpt lat="44.3049516" lon="5.361182"><ele>633.0</ele><time>2026-04-10T10:18:19.852Z</time></trkpt><trkpt lat="44.3048744" lon="5.3611222"><ele>633.0</ele><time>2026-04-10T10:18:20.856Z</time></trkpt><trkpt lat="44.3047958" lon="5.3611076"><ele>633.0</ele><time>2026-04-10T10:18:21.853Z</time></trkpt><trkpt lat="44.3047197" lon="5.3611158"><ele>633.0</ele><time>2026-04-10T10:18:22.851Z</time></trkpt><trkpt lat="44.3046396" lon="5.3611539"><ele>634.1666666666666</ele><time>2026-04-10T10:18:23.854Z</time></trkpt><trkpt lat="44.3045587" lon="5.3612012"><ele>635.3333333333334</ele><time>2026-04-10T10:18:24.851Z</time></trkpt><trkpt lat="44.3044916" lon="5.3612497"><ele>636.5</ele><time>2026-04-10T10:18:25.853Z</time></trkpt><trkpt lat="44.3044397" lon="5.3614139"><ele>637.6666666666667</ele><time>2026-04-10T10:18:27.857Z</time></trkpt><trkpt lat="44.3044358" lon="5.3615206"><ele>638.8333333333334</ele><time>2026-04-10T10:18:28.852Z</time></trkpt><trkpt lat="44.3044496" lon="5.3616249"><ele>640.0</ele><time>2026-04-10T10:18:29.856Z</time></trkpt><trkpt lat="44.3044532" lon="5.3617359"><ele>641.2</ele><time>2026-04-10T10:18:30.851Z</time></trkpt><trkpt lat="44.3044694" lon="5.3618572"><ele>642.4</ele><time>2026-04-10T10:18:31.85Z</time></trkpt><trkpt lat="44.3045051" lon="5.3619738"><ele>643.5999999999999</ele><time>2026-04-10T10:18:32.851Z</time></trkpt><trkpt lat="44.3045538" lon="5.3620965"><ele>644.8</ele><time>2026-04-10T10:18:33.852Z</time></trkpt><trkpt lat="44.3046051" lon="5.3622248"><ele>646.0</ele><time>2026-04-10T10:18:34.856Z</time></trkpt><trkpt lat="44.3046513" lon="5.362354"><ele>647.4</ele><time>2026-04-10T10:18:35.853Z</time></trkpt><trkpt lat="44.3047002" lon="5.3624799"><ele>648.8</ele><time>2026-04-10T10:18:36.856Z</time></trkpt><trkpt lat="44.3047444" lon="5.3626087"><ele>650.1999999999999</ele><time>2026-04-10T10:18:37.854Z</time></trkpt><trkpt lat="44.3047803" lon="5.3627475"><ele>651.5999999999999</ele><time>2026-04-10T10:18:38.856Z</time></trkpt><trkpt lat="44.3048276" lon="5.3628832"><ele>653.0</ele><time>2026-04-10T10:18:39.85Z</time></trkpt><trkpt lat="44.3048936" lon="5.3629937"><ele>656.0</ele><time>2026-04-10T10:18:40.857Z</time></trkpt><trkpt lat="44.3049657" lon="5.3630765"><ele>659.0</ele><time>2026-04-10T10:18:41.855Z</time></trkpt><trkpt lat="44.3050409" lon="5.3631612"><ele>662.0</ele><time>2026-04-10T10:18:42.854Z</time></trkpt><trkpt lat="44.305103" lon="5.363263"><ele>665.0</ele><time>2026-04-10T10:18:43.852Z</time></trkpt><trkpt lat="44.3051522" lon="5.3633818"><ele>668.0</ele><time>2026-04-10T10:18:44.853Z</time></trkpt><trkpt lat="44.305208" lon="5.3634967"><ele>668.0</ele><time>2026-04-10T10:18:45.85Z</time></trkpt><trkpt lat="44.3052697" lon="5.3636083"><ele>668.0</ele><time>2026-04-10T10:18:46.851Z</time></trkpt><trkpt lat="44.3053355" lon="5.3636898"><ele>668.0</ele><time>2026-04-10T10:18:47.851Z</time></trkpt><trkpt lat="44.3054008" lon="5.363764"><ele>668.0</ele><time>2026-04-10T10:18:48.852Z</time></trkpt><trkpt lat="44.3054491" lon="5.3638474"><ele>668.0</ele><time>2026-04-10T10:18:49.855Z</time></trkpt><trkpt lat="44.3054879" lon="5.3639428"><ele>668.0</ele><time>2026-04-10T10:18:50.853Z</time></trkpt><trkpt lat="44.3055107" lon="5.3640538"><ele>669.0</ele><time>2026-04-10T10:18:51.855Z</time></trkpt><trkpt lat="44.3055479" lon="5.3641269"><ele>670.0</ele><time>2026-04-10T10:18:52.855Z</time></trkpt><trkpt lat="44.3056545" lon="5.3642251"><ele>671.0</ele><time>2026-04-10T10:18:54.852Z</time></trkpt><trkpt lat="44.3057353" lon="5.3642562"><ele>672.0</ele><time>2026-04-10T10:18:55.852Z</time></trkpt><trkpt lat="44.3058217" lon="5.3642845"><ele>673.0</ele><time>2026-04-10T10:18:56.855Z</time></trkpt><trkpt lat="44.3059153" lon="5.3643262"><ele>675.8</ele><time>2026-04-10T10:18:57.857Z</time></trkpt><trkpt lat="44.3060109" lon="5.3643853"><ele>678.5999999999999</ele><time>2026-04-10T10:18:58.854Z</time></trkpt><trkpt lat="44.3061044" lon="5.364456"><ele>681.4000000000001</ele><time>2026-04-10T10:18:59.857Z</time></trkpt><trkpt lat="44.3061915" lon="5.3645242"><ele>684.2</ele><time>2026-04-10T10:19:00.853Z</time></trkpt><trkpt lat="44.3062809" lon="5.3645999"><ele>687.0</ele><time>2026-04-10T10:19:01.853Z</time></trkpt><trkpt lat="44.3063608" lon="5.3646781"><ele>689.3333333333334</ele><time>2026-04-10T10:19:02.852Z</time></trkpt><trkpt lat="44.306428" lon="5.3647589"><ele>691.6666666666666</ele><time>2026-04-10T10:19:03.853Z</time></trkpt><trkpt lat="44.306469" lon="5.3648367"><ele>694.0</ele><time>2026-04-10T10:19:04.852Z</time></trkpt><trkpt lat="44.306493" lon="5.3649313"><ele>696.3333333333333</ele><time>2026-04-10T10:19:05.855Z</time></trkpt><trkpt lat="44.3065145" lon="5.3650289"><ele>698.6666666666666</ele><time>2026-04-10T10:19:06.85Z</time></trkpt><trkpt lat="44.3065377" lon="5.3651277"><ele>701.0</ele><time>2026-04-10T10:19:07.851Z</time></trkpt><trkpt lat="44.3065691" lon="5.3652277"><ele>701.0</ele><time>2026-04-10T10:19:08.853Z</time></trkpt><trkpt lat="44.3065998" lon="5.3653484"><ele>701.0</ele><time>2026-04-10T10:19:09.854Z</time></trkpt><trkpt lat="44.3066358" lon="5.3654872"><ele>701.0</ele><time>2026-04-10T10:19:10.854Z</time></trkpt><trkpt lat="44.3066774" lon="5.3656167"><ele>701.0</ele><time>2026-04-10T10:19:11.851Z</time></trkpt><trkpt lat="44.3067057" lon="5.3657544"><ele>701.0</ele><time>2026-04-10T10:19:12.853Z</time></trkpt><trkpt lat="44.3067319" lon="5.3658932"><ele>703.8</ele><time>2026-04-10T10:19:13.854Z</time></trkpt><trkpt lat="44.3067518" lon="5.3660343"><ele>706.5999999999999</ele><time>2026-04-10T10:19:14.853Z</time></trkpt><trkpt lat="44.3067743" lon="5.366168"><ele>709.4</ele><time>2026-04-10T10:19:15.854Z</time></trkpt><trkpt lat="44.3068022" lon="5.3662831"><ele>712.2</ele><time>2026-04-10T10:19:16.851Z</time></trkpt><trkpt lat="44.306851" lon="5.3663956"><ele>715.0</ele><time>2026-04-10T10:19:17.855Z</time></trkpt><trkpt lat="44.3069053" lon="5.3664999"><ele>716.8</ele><time>2026-04-10T10:19:18.852Z</time></trkpt><trkpt lat="44.3069498" lon="5.3666097"><ele>718.6</ele><time>2026-04-10T10:19:19.859Z</time></trkpt><trkpt lat="44.3069917" lon="5.3667224"><ele>720.4000000000001</ele><time>2026-04-10T10:19:20.855Z</time></trkpt><trkpt lat="44.3069821" lon="5.3668502"><ele>722.2</ele><time>2026-04-10T10:19:21.854Z</time></trkpt><trkpt lat="44.306987" lon="5.3669843"><ele>724.0</ele><time>2026-04-10T10:19:22.863Z</time></trkpt><trkpt lat="44.3070217" lon="5.3670938"><ele>724.0</ele><time>2026-04-10T10:19:23.854Z</time></trkpt><trkpt lat="44.3070764" lon="5.367182"><ele>724.0</ele><time>2026-04-10T10:19:24.853Z</time></trkpt><trkpt lat="44.3071289" lon="5.3672718"><ele>724.0</ele><time>2026-04-10T10:19:25.854Z</time></trkpt><trkpt lat="44.30718" lon="5.367367"><ele>724.0</ele><time>2026-04-10T10:19:26.853Z</time></trkpt><trkpt lat="44.307233" lon="5.3674574"><ele>724.0</ele><time>2026-04-10T10:19:27.856Z</time></trkpt><trkpt lat="44.3072966" lon="5.3675703"><ele>724.0</ele><time>2026-04-10T10:19:28.854Z</time></trkpt><trkpt lat="44.3073397" lon="5.3677107"><ele>725.3333333333334</ele><time>2026-04-10T10:19:29.853Z</time></trkpt><trkpt lat="44.3073858" lon="5.3678391"><ele>726.6666666666667</ele><time>2026-04-10T10:19:30.855Z</time></trkpt><trkpt lat="44.3074431" lon="5.3679348"><ele>728.0</ele><time>2026-04-10T10:19:31.853Z</time></trkpt><trkpt lat="44.3075127" lon="5.3680094"><ele>729.3333333333334</ele><time>2026-04-10T10:19:32.851Z</time></trkpt><trkpt lat="44.3075849" lon="5.3680745"><ele>730.6666666666666</ele><time>2026-04-10T10:19:33.853Z</time></trkpt><trkpt lat="44.3076527" lon="5.3681422"><ele>732.0</ele><time>2026-04-10T10:19:34.86Z</time></trkpt><trkpt lat="44.3077099" lon="5.3682218"><ele>733.2</ele><time>2026-04-10T10:19:35.852Z</time></trkpt><trkpt lat="44.3077526" lon="5.3683151"><ele>734.4000000000001</ele><time>2026-04-10T10:19:36.855Z</time></trkpt><trkpt lat="44.3077855" lon="5.3684183"><ele>735.5999999999999</ele><time>2026-04-10T10:19:37.854Z</time></trkpt><trkpt lat="44.3078084" lon="5.368548"><ele>736.8</ele><time>2026-04-10T10:19:38.854Z</time></trkpt><trkpt lat="44.3078297" lon="5.3686855"><ele>738.0</ele><time>2026-04-10T10:19:39.856Z</time></trkpt><trkpt lat="44.3078423" lon="5.3688233"><ele>739.2</ele><time>2026-04-10T10:19:40.852Z</time></trkpt><trkpt lat="44.3078496" lon="5.368964"><ele>740.4</ele><time>2026-04-10T10:19:41.851Z</time></trkpt><trkpt lat="44.3078701" lon="5.3690985"><ele>741.6</ele><time>2026-04-10T10:19:42.857Z</time></trkpt><trkpt lat="44.3079174" lon="5.3692182"><ele>742.8000000000001</ele><time>2026-04-10T10:19:43.852Z</time></trkpt><trkpt lat="44.3079706" lon="5.3693388"><ele>744.0</ele><time>2026-04-10T10:19:44.853Z</time></trkpt><trkpt lat="44.3080156" lon="5.369481"><ele>744.0</ele><time>2026-04-10T10:19:45.853Z</time></trkpt><trkpt lat="44.3080495" lon="5.3696386"><ele>744.0</ele><time>2026-04-10T10:19:46.854Z</time></trkpt><trkpt lat="44.3080814" lon="5.3697871"><ele>744.0</ele><time>2026-04-10T10:19:47.854Z</time></trkpt><trkpt lat="44.3081143" lon="5.369922"><ele>744.0</ele><time>2026-04-10T10:19:48.852Z</time></trkpt><trkpt lat="44.3081501" lon="5.3700524"><ele>744.0</ele><time>2026-04-10T10:19:49.856Z</time></trkpt><trkpt lat="44.3081822" lon="5.3701815"><ele>745.0</ele><time>2026-04-10T10:19:50.857Z</time></trkpt><trkpt lat="44.3082169" lon="5.3703131"><ele>746.0</ele><time>2026-04-10T10:19:51.854Z</time></trkpt><trkpt lat="44.3082485" lon="5.3704447"><ele>747.0</ele><time>2026-04-10T10:19:52.856Z</time></trkpt><trkpt lat="44.308276" lon="5.3705771"><ele>748.0</ele><time>2026-04-10T10:19:53.852Z</time></trkpt><trkpt lat="44.3083077" lon="5.370706"><ele>749.0</ele><time>2026-04-10T10:19:54.857Z</time></trkpt><trkpt lat="44.3083325" lon="5.3708252"><ele>749.8333333333333</ele><time>2026-04-10T10:19:55.855Z</time></trkpt><trkpt lat="44.3083533" lon="5.3709335"><ele>750.6666666666666</ele><time>2026-04-10T10:19:56.852Z</time></trkpt><trkpt lat="44.3083732" lon="5.3710415"><ele>751.5</ele><time>2026-04-10T10:19:57.851Z</time></trkpt><trkpt lat="44.3083918" lon="5.371145"><ele>752.3333333333334</ele><time>2026-04-10T10:19:58.853Z</time></trkpt><trkpt lat="44.3084045" lon="5.3712373"><ele>753.1666666666667</ele><time>2026-04-10T10:19:59.855Z</time></trkpt><trkpt lat="44.30838" lon="5.3713837"><ele>754.0</ele><time>2026-04-10T10:20:01.86Z</time></trkpt><trkpt lat="44.3083302" lon="5.371519"><ele>755.6</ele><time>2026-04-10T10:20:03.85Z</time></trkpt><trkpt lat="44.3083316" lon="5.3717006"><ele>757.2</ele><time>2026-04-10T10:20:05.852Z</time></trkpt><trkpt lat="44.3083399" lon="5.3718067"><ele>758.8000000000001</ele><time>2026-04-10T10:20:06.852Z</time></trkpt><trkpt lat="44.3083396" lon="5.3719189"><ele>760.4000000000001</ele><time>2026-04-10T10:20:07.853Z</time></trkpt><trkpt lat="44.3083328" lon="5.372034"><ele>762.0</ele><time>2026-04-10T10:20:08.857Z</time></trkpt><trkpt lat="44.3083244" lon="5.3721521"><ele>763.2</ele><time>2026-04-10T10:20:09.851Z</time></trkpt><trkpt lat="44.3083132" lon="5.37228"><ele>764.4000000000001</ele><time>2026-04-10T10:20:10.851Z</time></trkpt><trkpt lat="44.3083022" lon="5.3724149"><ele>765.5999999999999</ele><time>2026-04-10T10:20:11.855Z</time></trkpt><trkpt lat="44.308293" lon="5.3725532"><ele>766.8</ele><time>2026-04-10T10:20:12.854Z</time></trkpt><trkpt lat="44.3082829" lon="5.3726916"><ele>768.0</ele><time>2026-04-10T10:20:13.853Z</time></trkpt><trkpt lat="44.3082813" lon="5.3728331"><ele>768.0</ele><time>2026-04-10T10:20:14.854Z</time></trkpt><trkpt lat="44.3082934" lon="5.3729772"><ele>768.0</ele><time>2026-04-10T10:20:15.856Z</time></trkpt><trkpt lat="44.3083032" lon="5.3731254"><ele>768.0</ele><time>2026-04-10T10:20:16.852Z</time></trkpt><trkpt lat="44.3083127" lon="5.3732829"><ele>768.0</ele><time>2026-04-10T10:20:17.852Z</time></trkpt><trkpt lat="44.308322" lon="5.3734392"><ele>768.0</ele><time>2026-04-10T10:20:18.854Z</time></trkpt><trkpt lat="44.3083367" lon="5.3735886"><ele>768.5999999999999</ele><time>2026-04-10T10:20:19.854Z</time></trkpt><trkpt lat="44.3083529" lon="5.3737374"><ele>769.1999999999999</ele><time>2026-04-10T10:20:20.853Z</time></trkpt><trkpt lat="44.3083692" lon="5.3738785"><ele>769.8</ele><time>2026-04-10T10:20:21.853Z</time></trkpt><trkpt lat="44.3083847" lon="5.3740255"><ele>770.4</ele><time>2026-04-10T10:20:22.856Z</time></trkpt><trkpt lat="44.308402" lon="5.3741766"><ele>771.0</ele><time>2026-04-10T10:20:23.854Z</time></trkpt><trkpt lat="44.3084194" lon="5.3743383"><ele>771.0</ele><time>2026-04-10T10:20:24.858Z</time></trkpt><trkpt lat="44.3084444" lon="5.3745035"><ele>771.0</ele><time>2026-04-10T10:20:25.863Z</time></trkpt><trkpt lat="44.3084686" lon="5.3746672"><ele>771.0</ele><time>2026-04-10T10:20:26.854Z</time></trkpt><trkpt lat="44.3084969" lon="5.3748303"><ele>771.0</ele><time>2026-04-10T10:20:27.85Z</time></trkpt><trkpt lat="44.3085237" lon="5.3749912"><ele>771.25</ele><time>2026-04-10T10:20:28.853Z</time></trkpt><trkpt lat="44.3085518" lon="5.3751554"><ele>771.5</ele><time>2026-04-10T10:20:29.851Z</time></trkpt><trkpt lat="44.3085799" lon="5.3753141"><ele>771.75</ele><time>2026-04-10T10:20:30.854Z</time></trkpt><trkpt lat="44.3085979" lon="5.3754813"><ele>772.0</ele><time>2026-04-10T10:20:31.855Z</time></trkpt><trkpt lat="44.3086072" lon="5.3756507"><ele>772.0</ele><time>2026-04-10T10:20:32.853Z</time></trkpt><trkpt lat="44.3086088" lon="5.3758384"><ele>772.0</ele><time>2026-04-10T10:20:33.856Z</time></trkpt><trkpt lat="44.3086174" lon="5.376015"><ele>772.0</ele><time>2026-04-10T10:20:34.853Z</time></trkpt><trkpt lat="44.3086313" lon="5.3761997"><ele>772.0</ele><time>2026-04-10T10:20:35.852Z</time></trkpt><trkpt lat="44.3086542" lon="5.3763814"><ele>772.0</ele><time>2026-04-10T10:20:36.852Z</time></trkpt><trkpt lat="44.3086884" lon="5.3765577"><ele>772.0</ele><time>2026-04-10T10:20:37.855Z</time></trkpt><trkpt lat="44.3087259" lon="5.3767094"><ele>772.0</ele><time>2026-04-10T10:20:38.855Z</time></trkpt><trkpt lat="44.308747" lon="5.3768484"><ele>772.0</ele><time>2026-04-10T10:20:39.853Z</time></trkpt><trkpt lat="44.3087694" lon="5.3769917"><ele>772.0</ele><time>2026-04-10T10:20:40.851Z</time></trkpt><trkpt lat="44.3087975" lon="5.3771275"><ele>772.0</ele><time>2026-04-10T10:20:41.851Z</time></trkpt><trkpt lat="44.3088258" lon="5.3772827"><ele>772.0</ele><time>2026-04-10T10:20:42.85Z</time></trkpt><trkpt lat="44.3088534" lon="5.3774514"><ele>772.0</ele><time>2026-04-10T10:20:43.855Z</time></trkpt><trkpt lat="44.3088909" lon="5.377605"><ele>771.0</ele><time>2026-04-10T10:20:44.852Z</time></trkpt><trkpt lat="44.3089011" lon="5.3777215"><ele>770.0</ele><time>2026-04-10T10:20:45.855Z</time></trkpt><trkpt lat="44.3089139" lon="5.3778571"><ele>769.0</ele><time>2026-04-10T10:20:46.856Z</time></trkpt><trkpt lat="44.3089468" lon="5.377983"><ele>768.0</ele><time>2026-04-10T10:20:47.852Z</time></trkpt><trkpt lat="44.3089936" lon="5.3780976"><ele>767.0</ele><time>2026-04-10T10:20:48.854Z</time></trkpt><trkpt lat="44.3090521" lon="5.3782159"><ele>771.25</ele><time>2026-04-10T10:20:49.851Z</time></trkpt><trkpt lat="44.3091283" lon="5.3783353"><ele>775.5</ele><time>2026-04-10T10:20:50.853Z</time></trkpt><trkpt lat="44.3092228" lon="5.3784335"><ele>779.75</ele><time>2026-04-10T10:20:51.852Z</time></trkpt><trkpt lat="44.3093065" lon="5.3785449"><ele>784.0</ele><time>2026-04-10T10:20:52.854Z</time></trkpt><trkpt lat="44.309377" lon="5.3786633"><ele>784.0</ele><time>2026-04-10T10:20:53.854Z</time></trkpt><trkpt lat="44.3094528" lon="5.3787741"><ele>784.0</ele><time>2026-04-10T10:20:54.852Z</time></trkpt><trkpt lat="44.3095134" lon="5.378891"><ele>784.0</ele><time>2026-04-10T10:20:55.852Z</time></trkpt><trkpt lat="44.3095728" lon="5.3789984"><ele>784.0</ele><time>2026-04-10T10:20:56.853Z</time></trkpt><trkpt lat="44.3096273" lon="5.3790843"><ele>784.0</ele><time>2026-04-10T10:20:57.857Z</time></trkpt><trkpt lat="44.3096707" lon="5.3791903"><ele>780.8000000000001</ele><time>2026-04-10T10:20:58.857Z</time></trkpt><trkpt lat="44.3097034" lon="5.3793129"><ele>777.6</ele><time>2026-04-10T10:20:59.851Z</time></trkpt><trkpt lat="44.3096874" lon="5.3794413"><ele>774.4</ele><time>2026-04-10T10:21:00.852Z</time></trkpt><trkpt lat="44.3096727" lon="5.3795675"><ele>771.2</ele><time>2026-04-10T10:21:01.853Z</time></trkpt><trkpt lat="44.309652" lon="5.3796714"><ele>768.0</ele><time>2026-04-10T10:21:02.855Z</time></trkpt><trkpt lat="44.3096389" lon="5.3798229"><ele>769.5999999999999</ele><time>2026-04-10T10:21:04.853Z</time></trkpt><trkpt lat="44.3097294" lon="5.3799047"><ele>771.1999999999999</ele><time>2026-04-10T10:21:06.853Z</time></trkpt><trkpt lat="44.3098055" lon="5.3799456"><ele>772.8</ele><time>2026-04-10T10:21:07.856Z</time></trkpt><trkpt lat="44.3098774" lon="5.3799986"><ele>774.4</ele><time>2026-04-10T10:21:08.855Z</time></trkpt><trkpt lat="44.3099695" lon="5.3800761"><ele>776.0</ele><time>2026-04-10T10:21:09.858Z</time></trkpt><trkpt lat="44.3100666" lon="5.3801623"><ele>776.0</ele><time>2026-04-10T10:21:10.853Z</time></trkpt><trkpt lat="44.310161" lon="5.38025"><ele>776.0</ele><time>2026-04-10T10:21:11.852Z</time></trkpt><trkpt lat="44.3102595" lon="5.3803258"><ele>776.0</ele><time>2026-04-10T10:21:12.853Z</time></trkpt><trkpt lat="44.3103562" lon="5.380411"><ele>776.0</ele><time>2026-04-10T10:21:13.853Z</time></trkpt><trkpt lat="44.3104409" lon="5.3804947"><ele>776.0</ele><time>2026-04-10T10:21:14.852Z</time></trkpt><trkpt lat="44.3105233" lon="5.3805826"><ele>774.3333333333334</ele><time>2026-04-10T10:21:15.855Z</time></trkpt><trkpt lat="44.3105891" lon="5.3806487"><ele>772.6666666666667</ele><time>2026-04-10T10:21:16.857Z</time></trkpt><trkpt lat="44.3106493" lon="5.3806974"><ele>771.0</ele><time>2026-04-10T10:21:17.855Z</time></trkpt><trkpt lat="44.3107613" lon="5.380691"><ele>769.3333333333334</ele><time>2026-04-10T10:21:19.85Z</time></trkpt><trkpt lat="44.3108304" lon="5.3807298"><ele>767.6666666666667</ele><time>2026-04-10T10:21:21.852Z</time></trkpt><trkpt lat="44.3108168" lon="5.3808735"><ele>766.0</ele><time>2026-04-10T10:21:23.855Z</time></trkpt><trkpt lat="44.3107765" lon="5.3809484"><ele>766.0</ele><time>2026-04-10T10:21:24.863Z</time></trkpt><trkpt lat="44.3107371" lon="5.3810388"><ele>766.0</ele><time>2026-04-10T10:21:25.856Z</time></trkpt><trkpt lat="44.3107147" lon="5.3811437"><ele>766.0</ele><time>2026-04-10T10:21:26.854Z</time></trkpt><trkpt lat="44.3106996" lon="5.3812563"><ele>766.0</ele><time>2026-04-10T10:21:27.854Z</time></trkpt><trkpt lat="44.3106847" lon="5.3813446"><ele>766.0</ele><time>2026-04-10T10:21:28.852Z</time></trkpt><trkpt lat="44.3105593" lon="5.3813887"><ele>766.0</ele><time>2026-04-10T10:21:30.853Z</time></trkpt><trkpt lat="44.3104835" lon="5.3813652"><ele>765.0</ele><time>2026-04-10T10:21:31.852Z</time></trkpt><trkpt lat="44.3104075" lon="5.3813185"><ele>764.0</ele><time>2026-04-10T10:21:32.853Z</time></trkpt><trkpt lat="44.3103212" lon="5.3812542"><ele>763.0</ele><time>2026-04-10T10:21:33.852Z</time></trkpt><trkpt lat="44.3102333" lon="5.381179"><ele>762.0</ele><time>2026-04-10T10:21:34.853Z</time></trkpt><trkpt lat="44.3101435" lon="5.381113"><ele>761.0</ele><time>2026-04-10T10:21:35.851Z</time></trkpt><trkpt lat="44.3100538" lon="5.3810541"><ele>761.0</ele><time>2026-04-10T10:21:36.854Z</time></trkpt><trkpt lat="44.3099677" lon="5.3810165"><ele>761.0</ele><time>2026-04-10T10:21:37.856Z</time></trkpt><trkpt lat="44.3099007" lon="5.3810034"><ele>761.0</ele><time>2026-04-10T10:21:38.853Z</time></trkpt><trkpt lat="44.309807" lon="5.3810354"><ele>761.0</ele><time>2026-04-10T10:21:40.852Z</time></trkpt><trkpt lat="44.3098367" lon="5.3811605"><ele>761.0</ele><time>2026-04-10T10:21:42.852Z</time></trkpt><trkpt lat="44.3099406" lon="5.3812611"><ele>761.0</ele><time>2026-04-10T10:21:44.852Z</time></trkpt><trkpt lat="44.3100232" lon="5.3813147"><ele>761.0</ele><time>2026-04-10T10:21:45.851Z</time></trkpt><trkpt lat="44.3100859" lon="5.3813978"><ele>761.0</ele><time>2026-04-10T10:21:46.852Z</time></trkpt><trkpt lat="44.3101449" lon="5.3815168"><ele>761.0</ele><time>2026-04-10T10:21:47.852Z</time></trkpt><trkpt lat="44.3102225" lon="5.3816343"><ele>761.0</ele><time>2026-04-10T10:21:48.854Z</time></trkpt><trkpt lat="44.3103202" lon="5.3817364"><ele>759.5999999999999</ele><time>2026-04-10T10:21:49.852Z</time></trkpt><trkpt lat="44.3104223" lon="5.3818134"><ele>758.2</ele><time>2026-04-10T10:21:50.854Z</time></trkpt><trkpt lat="44.3105268" lon="5.3818754"><ele>756.8</ele><time>2026-04-10T10:21:51.851Z</time></trkpt><trkpt lat="44.3106171" lon="5.3819336"><ele>755.4000000000001</ele><time>2026-04-10T10:21:52.856Z</time></trkpt><trkpt lat="44.3106908" lon="5.381994"><ele>754.0</ele><time>2026-04-10T10:21:53.852Z</time></trkpt><trkpt lat="44.3107208" lon="5.3820844"><ele>753.8000000000001</ele><time>2026-04-10T10:21:54.851Z</time></trkpt><trkpt lat="44.3107222" lon="5.382184"><ele>753.6</ele><time>2026-04-10T10:21:55.851Z</time></trkpt><trkpt lat="44.310716" lon="5.3822935"><ele>753.4</ele><time>2026-04-10T10:21:56.855Z</time></trkpt><trkpt lat="44.310678" lon="5.3823718"><ele>753.2</ele><time>2026-04-10T10:21:57.853Z</time></trkpt><trkpt lat="44.3105724" lon="5.3824829"><ele>753.0</ele><time>2026-04-10T10:21:59.855Z</time></trkpt><trkpt lat="44.3104539" lon="5.3825202"><ele>752.0</ele><time>2026-04-10T10:22:00.851Z</time></trkpt><trkpt lat="44.3103492" lon="5.3825677"><ele>751.0</ele><time>2026-04-10T10:22:01.856Z</time></trkpt><trkpt lat="44.3102537" lon="5.3826071"><ele>750.0</ele><time>2026-04-10T10:22:02.854Z</time></trkpt><trkpt lat="44.31015" lon="5.3826844"><ele>749.0</ele><time>2026-04-10T10:22:03.85Z</time></trkpt><trkpt lat="44.3099855" lon="5.3828322"><ele>749.0</ele><time>2026-04-10T10:22:05.851Z</time></trkpt><trkpt lat="44.3099018" lon="5.3828954"><ele>749.0</ele><time>2026-04-10T10:22:06.85Z</time></trkpt><trkpt lat="44.3098202" lon="5.3829343"><ele>749.0</ele><time>2026-04-10T10:22:07.849Z</time></trkpt><trkpt lat="44.3097428" lon="5.3829387"><ele>749.0</ele><time>2026-04-10T10:22:08.85Z</time></trkpt><trkpt lat="44.3096812" lon="5.3828861"><ele>749.0</ele><time>2026-04-10T10:22:09.853Z</time></trkpt><trkpt lat="44.3095781" lon="5.3828419"><ele>749.0</ele><time>2026-04-10T10:22:11.848Z</time></trkpt><trkpt lat="44.3095496" lon="5.3829286"><ele>749.0</ele><time>2026-04-10T10:22:14.853Z</time></trkpt><trkpt lat="44.3096475" lon="5.3829913"><ele>749.0</ele><time>2026-04-10T10:22:16.857Z</time></trkpt><trkpt lat="44.3097169" lon="5.3830446"><ele>749.0</ele><time>2026-04-10T10:22:17.853Z</time></trkpt><trkpt lat="44.3098156" lon="5.38306"><ele>749.0</ele><time>2026-04-10T10:22:18.849Z</time></trkpt><trkpt lat="44.3099156" lon="5.3830587"><ele>749.0</ele><time>2026-04-10T10:22:19.85Z</time></trkpt><trkpt lat="44.3100229" lon="5.3830513"><ele>749.0</ele><time>2026-04-10T10:22:20.855Z</time></trkpt><trkpt lat="44.3101582" lon="5.3830214"><ele>749.0</ele><time>2026-04-10T10:22:21.852Z</time></trkpt><trkpt lat="44.3102774" lon="5.3830126"><ele>749.0</ele><time>2026-04-10T10:22:22.856Z</time></trkpt><trkpt lat="44.310399" lon="5.3830141"><ele>749.0</ele><time>2026-04-10T10:22:23.849Z</time></trkpt><trkpt lat="44.3105161" lon="5.3830268"><ele>753.5</ele><time>2026-04-10T10:22:24.852Z</time></trkpt><trkpt lat="44.3106337" lon="5.3830704"><ele>758.0</ele><time>2026-04-10T10:22:25.854Z</time></trkpt><trkpt lat="44.310736" lon="5.383185"><ele>762.5</ele><time>2026-04-10T10:22:26.852Z</time></trkpt><trkpt lat="44.310802" lon="5.3833412"><ele>767.0</ele><time>2026-04-10T10:22:27.853Z</time></trkpt><trkpt lat="44.310888" lon="5.38345"><ele>767.0</ele><time>2026-04-10T10:22:28.852Z</time></trkpt><trkpt lat="44.3109757" lon="5.3835384"><ele>767.0</ele><time>2026-04-10T10:22:29.854Z</time></trkpt><trkpt lat="44.3110628" lon="5.3836128"><ele>767.0</ele><time>2026-04-10T10:22:30.852Z</time></trkpt><trkpt lat="44.3112592" lon="5.3836175"><ele>767.0</ele><time>2026-04-10T10:22:32.853Z</time></trkpt><trkpt lat="44.3113385" lon="5.3835413"><ele>768.4000000000001</ele><time>2026-04-10T10:22:33.851Z</time></trkpt><trkpt lat="44.3114129" lon="5.3834481"><ele>769.8000000000001</ele><time>2026-04-10T10:22:34.852Z</time></trkpt><trkpt lat="44.3114883" lon="5.3833489"><ele>771.2</ele><time>2026-04-10T10:22:35.853Z</time></trkpt><trkpt lat="44.3115727" lon="5.3832451"><ele>772.6</ele><time>2026-04-10T10:22:36.852Z</time></trkpt><trkpt lat="44.311673" lon="5.383149"><ele>774.0</ele><time>2026-04-10T10:22:37.852Z</time></trkpt><trkpt lat="44.3117807" lon="5.3830612"><ele>771.25</ele><time>2026-04-10T10:22:38.854Z</time></trkpt><trkpt lat="44.3118925" lon="5.3829503"><ele>768.5</ele><time>2026-04-10T10:22:39.852Z</time></trkpt><trkpt lat="44.3119901" lon="5.3828072"><ele>765.75</ele><time>2026-04-10T10:22:40.851Z</time></trkpt><trkpt lat="44.3120861" lon="5.3826617"><ele>763.0</ele><time>2026-04-10T10:22:41.854Z</time></trkpt><trkpt lat="44.3121917" lon="5.382525"><ele>766.25</ele><time>2026-04-10T10:22:42.854Z</time></trkpt><trkpt lat="44.3123055" lon="5.3824041"><ele>769.5</ele><time>2026-04-10T10:22:43.858Z</time></trkpt><trkpt lat="44.3124446" lon="5.3823836"><ele>772.75</ele><time>2026-04-10T10:22:44.851Z</time></trkpt><trkpt lat="44.3125792" lon="5.3823736"><ele>776.0</ele><time>2026-04-10T10:22:45.857Z</time></trkpt><trkpt lat="44.3127129" lon="5.382392"><ele>776.0</ele><time>2026-04-10T10:22:46.852Z</time></trkpt><trkpt lat="44.312858" lon="5.3824362"><ele>776.0</ele><time>2026-04-10T10:22:47.851Z</time></trkpt><trkpt lat="44.3129238" lon="5.3825646"><ele>776.0</ele><time>2026-04-10T10:22:48.851Z</time></trkpt><trkpt lat="44.3130292" lon="5.3826072"><ele>776.0</ele><time>2026-04-10T10:22:49.856Z</time></trkpt><trkpt lat="44.3131323" lon="5.3825749"><ele>777.0</ele><time>2026-04-10T10:22:50.851Z</time></trkpt><trkpt lat="44.313227" lon="5.3825267"><ele>778.0</ele><time>2026-04-10T10:22:51.854Z</time></trkpt><trkpt lat="44.3133254" lon="5.3823925"><ele>779.0</ele><time>2026-04-10T10:22:52.855Z</time></trkpt><trkpt lat="44.3133641" lon="5.382213"><ele>780.0</ele><time>2026-04-10T10:22:53.851Z</time></trkpt><trkpt lat="44.3134604" lon="5.3820745"><ele>779.3333333333333</ele><time>2026-04-10T10:22:54.85Z</time></trkpt><trkpt lat="44.3135848" lon="5.3819806"><ele>778.6666666666666</ele><time>2026-04-10T10:22:55.851Z</time></trkpt><trkpt lat="44.3138815" lon="5.3819018"><ele>778.0</ele><time>2026-04-10T10:22:57.853Z</time></trkpt><trkpt lat="44.3140332" lon="5.3818862"><ele>778.0</ele><time>2026-04-10T10:22:58.853Z</time></trkpt><trkpt lat="44.3141976" lon="5.3818631"><ele>778.0</ele><time>2026-04-10T10:22:59.855Z</time></trkpt><trkpt lat="44.3143598" lon="5.3818883"><ele>778.0</ele><time>2026-04-10T10:23:00.85Z</time></trkpt><trkpt lat="44.3145392" lon="5.3818828"><ele>778.0</ele><time>2026-04-10T10:23:01.851Z</time></trkpt><trkpt lat="44.3147111" lon="5.381855"><ele>778.0</ele><time>2026-04-10T10:23:02.851Z</time></trkpt><trkpt lat="44.3148832" lon="5.3818154"><ele>778.0</ele><time>2026-04-10T10:23:03.85Z</time></trkpt><trkpt lat="44.3150421" lon="5.3817633"><ele>780.3333333333333</ele><time>2026-04-10T10:23:04.869Z</time></trkpt><trkpt lat="44.3151922" lon="5.3817071"><ele>782.6666666666667</ele><time>2026-04-10T10:23:05.861Z</time></trkpt><trkpt lat="44.3153372" lon="5.3816339"><ele>785.0</ele><time>2026-04-10T10:23:06.855Z</time></trkpt><trkpt lat="44.3156269" lon="5.3814222"><ele>786.3333333333334</ele><time>2026-04-10T10:23:08.852Z</time></trkpt><trkpt lat="44.3157759" lon="5.3812976"><ele>787.6666666666667</ele><time>2026-04-10T10:23:09.853Z</time></trkpt><trkpt lat="44.3159174" lon="5.3811543"><ele>789.0</ele><time>2026-04-10T10:23:10.849Z</time></trkpt><trkpt lat="44.3160512" lon="5.3810054"><ele>789.0</ele><time>2026-04-10T10:23:11.852Z</time></trkpt><trkpt lat="44.3161754" lon="5.3808188"><ele>789.0</ele><time>2026-04-10T10:23:12.851Z</time></trkpt><trkpt lat="44.3162896" lon="5.3806182"><ele>789.0</ele><time>2026-04-10T10:23:13.852Z</time></trkpt><trkpt lat="44.3164122" lon="5.3804225"><ele>791.3333333333333</ele><time>2026-04-10T10:23:14.862Z</time></trkpt><trkpt lat="44.3165531" lon="5.3802512"><ele>793.6666666666666</ele><time>2026-04-10T10:23:15.855Z</time></trkpt><trkpt lat="44.3167042" lon="5.3800887"><ele>796.0</ele><time>2026-04-10T10:23:16.854Z</time></trkpt><trkpt lat="44.316834" lon="5.3799569"><ele>796.0</ele><time>2026-04-10T10:23:17.856Z</time></trkpt><trkpt lat="44.316953" lon="5.3798464"><ele>796.0</ele><time>2026-04-10T10:23:18.851Z</time></trkpt><trkpt lat="44.3170624" lon="5.3797697"><ele>796.0</ele><time>2026-04-10T10:23:19.852Z</time></trkpt><trkpt lat="44.3171787" lon="5.3797034"><ele>796.0</ele><time>2026-04-10T10:23:20.852Z</time></trkpt><trkpt lat="44.3173002" lon="5.3797461"><ele>794.5</ele><time>2026-04-10T10:23:21.853Z</time></trkpt><trkpt lat="44.3174112" lon="5.3798236"><ele>793.0</ele><time>2026-04-10T10:23:22.853Z</time></trkpt><trkpt lat="44.3175118" lon="5.3799106"><ele>791.5</ele><time>2026-04-10T10:23:23.857Z</time></trkpt><trkpt lat="44.3176154" lon="5.3800056"><ele>790.0</ele><time>2026-04-10T10:23:24.852Z</time></trkpt><trkpt lat="44.317726" lon="5.3801178"><ele>790.0</ele><time>2026-04-10T10:23:25.85Z</time></trkpt><trkpt lat="44.317831" lon="5.3802413"><ele>790.0</ele><time>2026-04-10T10:23:26.854Z</time></trkpt><trkpt lat="44.3179138" lon="5.3803803"><ele>790.0</ele><time>2026-04-10T10:23:27.849Z</time></trkpt><trkpt lat="44.3179795" lon="5.3805468"><ele>790.0</ele><time>2026-04-10T10:23:28.853Z</time></trkpt><trkpt lat="44.3180302" lon="5.3807093"><ele>793.6666666666666</ele><time>2026-04-10T10:23:29.854Z</time></trkpt><trkpt lat="44.3180322" lon="5.380903"><ele>797.3333333333333</ele><time>2026-04-10T10:23:30.854Z</time></trkpt><trkpt lat="44.3180393" lon="5.3810796"><ele>801.0</ele><time>2026-04-10T10:23:31.85Z</time></trkpt><trkpt lat="44.3180536" lon="5.3814489"><ele>805.0</ele><time>2026-04-10T10:23:33.853Z</time></trkpt><trkpt lat="44.3180621" lon="5.3816494"><ele>809.0</ele><time>2026-04-10T10:23:34.85Z</time></trkpt><trkpt lat="44.3180631" lon="5.3818634"><ele>813.0</ele><time>2026-04-10T10:23:35.853Z</time></trkpt><trkpt lat="44.3180556" lon="5.3820851"><ele>815.6666666666667</ele><time>2026-04-10T10:23:36.855Z</time></trkpt><trkpt lat="44.3180509" lon="5.3823024"><ele>818.3333333333334</ele><time>2026-04-10T10:23:37.852Z</time></trkpt><trkpt lat="44.3180456" lon="5.3825206"><ele>821.0</ele><time>2026-04-10T10:23:38.854Z</time></trkpt><trkpt lat="44.3180615" lon="5.3827339"><ele>809.5</ele><time>2026-04-10T10:23:39.853Z</time></trkpt><trkpt lat="44.3180725" lon="5.3829431"><ele>798.0</ele><time>2026-04-10T10:23:40.849Z</time></trkpt><trkpt lat="44.3181067" lon="5.3831444"><ele>786.5</ele><time>2026-04-10T10:23:41.853Z</time></trkpt><trkpt lat="44.3181423" lon="5.3833443"><ele>775.0</ele><time>2026-04-10T10:23:42.852Z</time></trkpt><trkpt lat="44.3181996" lon="5.3835207"><ele>775.0</ele><time>2026-04-10T10:23:43.853Z</time></trkpt><trkpt lat="44.3182522" lon="5.3836873"><ele>775.0</ele><time>2026-04-10T10:23:44.852Z</time></trkpt><trkpt lat="44.3183658" lon="5.3838027"><ele>775.0</ele><time>2026-04-10T10:23:45.853Z</time></trkpt><trkpt lat="44.3185246" lon="5.3837648"><ele>775.0</ele><time>2026-04-10T10:23:46.853Z</time></trkpt><trkpt lat="44.3186647" lon="5.383761"><ele>775.0</ele><time>2026-04-10T10:23:47.853Z</time></trkpt><trkpt lat="44.3188007" lon="5.3837243"><ele>775.0</ele><time>2026-04-10T10:23:48.853Z</time></trkpt><trkpt lat="44.3189326" lon="5.3836699"><ele>775.0</ele><time>2026-04-10T10:23:49.849Z</time></trkpt><trkpt lat="44.3192248" lon="5.3835429"><ele>773.0</ele><time>2026-04-10T10:23:51.852Z</time></trkpt><trkpt lat="44.3193555" lon="5.3835089"><ele>771.0</ele><time>2026-04-10T10:23:52.854Z</time></trkpt><trkpt lat="44.319475" lon="5.3834846"><ele>769.0</ele><time>2026-04-10T10:23:53.852Z</time></trkpt><trkpt lat="44.3196095" lon="5.383565"><ele>767.0</ele><time>2026-04-10T10:23:54.851Z</time></trkpt><trkpt lat="44.3197323" lon="5.3836799"><ele>765.3333333333333</ele><time>2026-04-10T10:23:55.853Z</time></trkpt><trkpt lat="44.3198544" lon="5.3837897"><ele>763.6666666666666</ele><time>2026-04-10T10:23:56.85Z</time></trkpt><trkpt lat="44.3199806" lon="5.3839504"><ele>762.0</ele><time>2026-04-10T10:23:57.854Z</time></trkpt><trkpt lat="44.320074" lon="5.3841735"><ele>762.0</ele><time>2026-04-10T10:23:58.854Z</time></trkpt><trkpt lat="44.3201171" lon="5.3845026"><ele>762.0</ele><time>2026-04-10T10:23:59.854Z</time></trkpt><trkpt lat="44.3203076" lon="5.3849756"><ele>760.0</ele><time>2026-04-10T10:24:01.851Z</time></trkpt><trkpt lat="44.3204341" lon="5.3851743"><ele>758.0</ele><time>2026-04-10T10:24:02.852Z</time></trkpt><trkpt lat="44.3205611" lon="5.3853645"><ele>756.0</ele><time>2026-04-10T10:24:03.852Z</time></trkpt><trkpt lat="44.3206929" lon="5.3855502"><ele>756.0</ele><time>2026-04-10T10:24:04.851Z</time></trkpt><trkpt lat="44.3208129" lon="5.3857429"><ele>756.0</ele><time>2026-04-10T10:24:05.852Z</time></trkpt><trkpt lat="44.3209025" lon="5.3859547"><ele>756.0</ele><time>2026-04-10T10:24:06.852Z</time></trkpt><trkpt lat="44.3209989" lon="5.386139"><ele>756.0</ele><time>2026-04-10T10:24:07.852Z</time></trkpt><trkpt lat="44.3210849" lon="5.386303"><ele>756.0</ele><time>2026-04-10T10:24:08.851Z</time></trkpt><trkpt lat="44.3211534" lon="5.3864639"><ele>756.0</ele><time>2026-04-10T10:24:09.85Z</time></trkpt><trkpt lat="44.3211276" lon="5.3869001"><ele>758.0</ele><time>2026-04-10T10:24:11.853Z</time></trkpt><trkpt lat="44.3211045" lon="5.3871381"><ele>760.0</ele><time>2026-04-10T10:24:12.851Z</time></trkpt><trkpt lat="44.3210789" lon="5.3873631"><ele>762.0</ele><time>2026-04-10T10:24:13.85Z</time></trkpt><trkpt lat="44.3210687" lon="5.3875654"><ele>762.25</ele><time>2026-04-10T10:24:14.85Z</time></trkpt><trkpt lat="44.3210886" lon="5.387766"><ele>762.5</ele><time>2026-04-10T10:24:15.852Z</time></trkpt><trkpt lat="44.3211566" lon="5.3879451"><ele>762.75</ele><time>2026-04-10T10:24:16.855Z</time></trkpt><trkpt lat="44.3212573" lon="5.3881034"><ele>763.0</ele><time>2026-04-10T10:24:17.851Z</time></trkpt><trkpt lat="44.3213696" lon="5.3882614"><ele>756.0</ele><time>2026-04-10T10:24:18.854Z</time></trkpt><trkpt lat="44.3214772" lon="5.388432"><ele>749.0</ele><time>2026-04-10T10:24:19.85Z</time></trkpt><trkpt lat="44.3215902" lon="5.3886067"><ele>742.0</ele><time>2026-04-10T10:24:20.856Z</time></trkpt><trkpt lat="44.3216988" lon="5.3887814"><ele>744.6666666666667</ele><time>2026-04-10T10:24:21.851Z</time></trkpt><trkpt lat="44.3217966" lon="5.3889717"><ele>747.3333333333334</ele><time>2026-04-10T10:24:22.852Z</time></trkpt><trkpt lat="44.321901" lon="5.3891361"><ele>750.0</ele><time>2026-04-10T10:24:23.851Z</time></trkpt><trkpt lat="44.3219881" lon="5.3893184"><ele>752.5</ele><time>2026-04-10T10:24:24.851Z</time></trkpt><trkpt lat="44.3220566" lon="5.3898034"><ele>755.0</ele><time>2026-04-10T10:24:26.849Z</time></trkpt><trkpt lat="44.3220815" lon="5.3900288"><ele>755.0</ele><time>2026-04-10T10:24:27.852Z</time></trkpt><trkpt lat="44.3221226" lon="5.3902533"><ele>755.0</ele><time>2026-04-10T10:24:28.856Z</time></trkpt><trkpt lat="44.3221692" lon="5.3904716"><ele>755.0</ele><time>2026-04-10T10:24:29.85Z</time></trkpt><trkpt lat="44.3222299" lon="5.3906617"><ele>749.6666666666666</ele><time>2026-04-10T10:24:30.85Z</time></trkpt><trkpt lat="44.3223363" lon="5.3908256"><ele>744.3333333333334</ele><time>2026-04-10T10:24:31.849Z</time></trkpt><trkpt lat="44.3224589" lon="5.3909462"><ele>739.0</ele><time>2026-04-10T10:24:32.854Z</time></trkpt><trkpt lat="44.32259" lon="5.3910284"><ele>739.0</ele><time>2026-04-10T10:24:33.851Z</time></trkpt><trkpt lat="44.3227363" lon="5.3910591"><ele>739.0</ele><time>2026-04-10T10:24:34.86Z</time></trkpt><trkpt lat="44.3229782" lon="5.3911398"><ele>739.0</ele><time>2026-04-10T10:24:36.853Z</time></trkpt><trkpt lat="44.3230699" lon="5.3911972"><ele>737.0</ele><time>2026-04-10T10:24:37.851Z</time></trkpt><trkpt lat="44.3231608" lon="5.3912388"><ele>735.0</ele><time>2026-04-10T10:24:38.856Z</time></trkpt><trkpt lat="44.32323" lon="5.3912356"><ele>733.0</ele><time>2026-04-10T10:24:39.85Z</time></trkpt><trkpt lat="44.3233061" lon="5.3912162"><ele>731.0</ele><time>2026-04-10T10:24:40.853Z</time></trkpt><trkpt lat="44.3233637" lon="5.3911704"><ele>729.0</ele><time>2026-04-10T10:24:41.85Z</time></trkpt><trkpt lat="44.323223" lon="5.3909921"><ele>729.0</ele><time>2026-04-10T10:24:43.852Z</time></trkpt><trkpt lat="44.3231484" lon="5.390929"><ele>729.0</ele><time>2026-04-10T10:24:44.851Z</time></trkpt><trkpt lat="44.3230554" lon="5.3908514"><ele>729.0</ele><time>2026-04-10T10:24:45.849Z</time></trkpt><trkpt lat="44.3229603" lon="5.3907643"><ele>729.0</ele><time>2026-04-10T10:24:46.853Z</time></trkpt><trkpt lat="44.3228631" lon="5.3906733"><ele>729.0</ele><time>2026-04-10T10:24:47.853Z</time></trkpt><trkpt lat="44.3227874" lon="5.390543"><ele>730.0</ele><time>2026-04-10T10:24:48.851Z</time></trkpt><trkpt lat="44.3227265" lon="5.3903793"><ele>731.0</ele><time>2026-04-10T10:24:49.857Z</time></trkpt><trkpt lat="44.3226983" lon="5.3901872"><ele>732.0</ele><time>2026-04-10T10:24:50.852Z</time></trkpt><trkpt lat="44.3226938" lon="5.3899557"><ele>733.0</ele><time>2026-04-10T10:24:51.852Z</time></trkpt><trkpt lat="44.3226943" lon="5.3897287"><ele>731.6666666666667</ele><time>2026-04-10T10:24:52.853Z</time></trkpt><trkpt lat="44.32272" lon="5.3895125"><ele>730.3333333333334</ele><time>2026-04-10T10:24:53.854Z</time></trkpt><trkpt lat="44.3227649" lon="5.3893049"><ele>729.0</ele><time>2026-04-10T10:24:54.848Z</time></trkpt><trkpt lat="44.3228297" lon="5.3891014"><ele>729.0</ele><time>2026-04-10T10:24:55.851Z</time></trkpt><trkpt lat="44.3228724" lon="5.3889068"><ele>729.0</ele><time>2026-04-10T10:24:56.853Z</time></trkpt><trkpt lat="44.3228877" lon="5.3887005"><ele>729.0</ele><time>2026-04-10T10:24:57.85Z</time></trkpt><trkpt lat="44.3229028" lon="5.3885037"><ele>729.0</ele><time>2026-04-10T10:24:58.853Z</time></trkpt><trkpt lat="44.322897" lon="5.3883111"><ele>727.75</ele><time>2026-04-10T10:24:59.854Z</time></trkpt><trkpt lat="44.3228661" lon="5.3881322"><ele>726.5</ele><time>2026-04-10T10:25:00.85Z</time></trkpt><trkpt lat="44.3228154" lon="5.3879725"><ele>725.25</ele><time>2026-04-10T10:25:01.853Z</time></trkpt><trkpt lat="44.3227094" lon="5.3878571"><ele>724.0</ele><time>2026-04-10T10:25:02.851Z</time></trkpt><trkpt lat="44.3226178" lon="5.3877356"><ele>722.5</ele><time>2026-04-10T10:25:03.852Z</time></trkpt><trkpt lat="44.3225608" lon="5.3875836"><ele>721.0</ele><time>2026-04-10T10:25:04.853Z</time></trkpt><trkpt lat="44.3225385" lon="5.3874056"><ele>719.5</ele><time>2026-04-10T10:25:05.851Z</time></trkpt><trkpt lat="44.3225683" lon="5.387228"><ele>718.0</ele><time>2026-04-10T10:25:06.851Z</time></trkpt><trkpt lat="44.32263" lon="5.3870506"><ele>717.25</ele><time>2026-04-10T10:25:07.851Z</time></trkpt><trkpt lat="44.3226926" lon="5.3868744"><ele>716.5</ele><time>2026-04-10T10:25:08.855Z</time></trkpt><trkpt lat="44.3227476" lon="5.3867067"><ele>715.75</ele><time>2026-04-10T10:25:09.852Z</time></trkpt><trkpt lat="44.3227785" lon="5.3865487"><ele>715.0</ele><time>2026-04-10T10:25:10.851Z</time></trkpt><trkpt lat="44.3227737" lon="5.3863949"><ele>713.0</ele><time>2026-04-10T10:25:11.854Z</time></trkpt><trkpt lat="44.32271" lon="5.3862603"><ele>711.0</ele><time>2026-04-10T10:25:12.853Z</time></trkpt><trkpt lat="44.3226123" lon="5.386151"><ele>709.0</ele><time>2026-04-10T10:25:13.851Z</time></trkpt><trkpt lat="44.3225064" lon="5.3860471"><ele>707.0</ele><time>2026-04-10T10:25:14.852Z</time></trkpt><trkpt lat="44.3224004" lon="5.3859485"><ele>707.0</ele><time>2026-04-10T10:25:15.85Z</time></trkpt><trkpt lat="44.3223164" lon="5.3858565"><ele>707.0</ele><time>2026-04-10T10:25:16.855Z</time></trkpt><trkpt lat="44.3222538" lon="5.3857633"><ele>707.0</ele><time>2026-04-10T10:25:17.851Z</time></trkpt><trkpt lat="44.3222169" lon="5.3856602"><ele>707.0</ele><time>2026-04-10T10:25:18.852Z</time></trkpt><trkpt lat="44.3222406" lon="5.3855716"><ele>707.0</ele><time>2026-04-10T10:25:19.853Z</time></trkpt><trkpt lat="44.3222922" lon="5.385448"><ele>707.0</ele><time>2026-04-10T10:25:21.854Z</time></trkpt><trkpt lat="44.3223994" lon="5.3854722"><ele>707.0</ele><time>2026-04-10T10:25:22.852Z</time></trkpt><trkpt lat="44.3224441" lon="5.3856997"><ele>707.0</ele><time>2026-04-10T10:25:23.85Z</time></trkpt><trkpt lat="44.3225128" lon="5.3857806"><ele>707.0</ele><time>2026-04-10T10:25:24.849Z</time></trkpt><trkpt lat="44.3225949" lon="5.3858304"><ele>707.0</ele><time>2026-04-10T10:25:25.85Z</time></trkpt><trkpt lat="44.3227029" lon="5.3858139"><ele>707.0</ele><time>2026-04-10T10:25:26.851Z</time></trkpt><trkpt lat="44.3228119" lon="5.3857997"><ele>707.0</ele><time>2026-04-10T10:25:27.855Z</time></trkpt><trkpt lat="44.3229281" lon="5.3857949"><ele>707.0</ele><time>2026-04-10T10:25:28.848Z</time></trkpt><trkpt lat="44.3230418" lon="5.3858259"><ele>705.25</ele><time>2026-04-10T10:25:29.848Z</time></trkpt><trkpt lat="44.3231512" lon="5.3858896"><ele>703.5</ele><time>2026-04-10T10:25:30.85Z</time></trkpt><trkpt lat="44.323265" lon="5.3859851"><ele>701.75</ele><time>2026-04-10T10:25:31.848Z</time></trkpt><trkpt lat="44.3233545" lon="5.3861095"><ele>700.0</ele><time>2026-04-10T10:25:32.863Z</time></trkpt><trkpt lat="44.3233573" lon="5.3863574"><ele>700.0</ele><time>2026-04-10T10:25:33.852Z</time></trkpt><trkpt lat="44.32338" lon="5.3865795"><ele>700.0</ele><time>2026-04-10T10:25:34.853Z</time></trkpt><trkpt lat="44.3233789" lon="5.386792"><ele>700.0</ele><time>2026-04-10T10:25:35.851Z</time></trkpt><trkpt lat="44.3233355" lon="5.3870091"><ele>700.0</ele><time>2026-04-10T10:25:36.857Z</time></trkpt><trkpt lat="44.3233374" lon="5.3872327"><ele>700.0</ele><time>2026-04-10T10:25:37.85Z</time></trkpt><trkpt lat="44.3233401" lon="5.3874397"><ele>700.0</ele><time>2026-04-10T10:25:38.849Z</time></trkpt><trkpt lat="44.3233609" lon="5.3876205"><ele>700.0</ele><time>2026-04-10T10:25:39.853Z</time></trkpt><trkpt lat="44.3233988" lon="5.3877876"><ele>700.0</ele><time>2026-04-10T10:25:40.852Z</time></trkpt><trkpt lat="44.323448" lon="5.3879406"><ele>700.0</ele><time>2026-04-10T10:25:41.852Z</time></trkpt><trkpt lat="44.323505" lon="5.3880613"><ele>700.0</ele><time>2026-04-10T10:25:42.854Z</time></trkpt><trkpt lat="44.3236669" lon="5.388096"><ele>700.0</ele><time>2026-04-10T10:25:43.851Z</time></trkpt><trkpt lat="44.3237789" lon="5.3881656"><ele>698.0</ele><time>2026-04-10T10:25:44.85Z</time></trkpt><trkpt lat="44.3238968" lon="5.3882342"><ele>696.0</ele><time>2026-04-10T10:25:45.853Z</time></trkpt><trkpt lat="44.3240309" lon="5.3882809"><ele>694.0</ele><time>2026-04-10T10:25:46.853Z</time></trkpt><trkpt lat="44.3241559" lon="5.3882711"><ele>692.0</ele><time>2026-04-10T10:25:47.85Z</time></trkpt><trkpt lat="44.3242848" lon="5.3882473"><ele>692.0</ele><time>2026-04-10T10:25:48.85Z</time></trkpt><trkpt lat="44.3244302" lon="5.3881817"><ele>692.0</ele><time>2026-04-10T10:25:49.85Z</time></trkpt><trkpt lat="44.3245724" lon="5.3881632"><ele>692.0</ele><time>2026-04-10T10:25:50.855Z</time></trkpt><trkpt lat="44.3247257" lon="5.3881617"><ele>692.0</ele><time>2026-04-10T10:25:51.853Z</time></trkpt><trkpt lat="44.3248919" lon="5.3881948"><ele>690.6666666666666</ele><time>2026-04-10T10:25:52.852Z</time></trkpt><trkpt lat="44.325057" lon="5.3882545"><ele>689.3333333333334</ele><time>2026-04-10T10:25:53.853Z</time></trkpt><trkpt lat="44.3252159" lon="5.3883033"><ele>688.0</ele><time>2026-04-10T10:25:54.851Z</time></trkpt><trkpt lat="44.3253553" lon="5.3883578"><ele>688.0</ele><time>2026-04-10T10:25:55.85Z</time></trkpt><trkpt lat="44.3254813" lon="5.3884069"><ele>688.0</ele><time>2026-04-10T10:25:56.874Z</time></trkpt><trkpt lat="44.3255913" lon="5.3884499"><ele>688.0</ele><time>2026-04-10T10:25:57.851Z</time></trkpt><trkpt lat="44.3256783" lon="5.3884724"><ele>688.0</ele><time>2026-04-10T10:25:58.853Z</time></trkpt><trkpt lat="44.3257497" lon="5.3884722"><ele>688.0</ele><time>2026-04-10T10:25:59.851Z</time></trkpt><trkpt lat="44.3258198" lon="5.3884865"><ele>688.0</ele><time>2026-04-10T10:26:00.848Z</time></trkpt><trkpt lat="44.3258872" lon="5.3884614"><ele>688.0</ele><time>2026-04-10T10:26:01.847Z</time></trkpt><trkpt lat="44.3259475" lon="5.3883997"><ele>688.0</ele><time>2026-04-10T10:26:02.861Z</time></trkpt><trkpt lat="44.3259138" lon="5.3882823"><ele>688.0</ele><time>2026-04-10T10:26:03.853Z</time></trkpt><trkpt lat="44.3258515" lon="5.3882236"><ele>688.0</ele><time>2026-04-10T10:26:04.85Z</time></trkpt><trkpt lat="44.3257362" lon="5.3881702"><ele>688.0</ele><time>2026-04-10T10:26:05.853Z</time></trkpt><trkpt lat="44.3255233" lon="5.3880439"><ele>685.6666666666667</ele><time>2026-04-10T10:26:06.851Z</time></trkpt><trkpt lat="44.3254188" lon="5.3879079"><ele>683.3333333333334</ele><time>2026-04-10T10:26:07.847Z</time></trkpt><trkpt lat="44.3253048" lon="5.3877432"><ele>681.0</ele><time>2026-04-10T10:26:08.85Z</time></trkpt><trkpt lat="44.3252008" lon="5.3875735"><ele>681.0</ele><time>2026-04-10T10:26:09.854Z</time></trkpt><trkpt lat="44.3251689" lon="5.3873675"><ele>681.0</ele><time>2026-04-10T10:26:10.851Z</time></trkpt><trkpt lat="44.3251518" lon="5.3871651"><ele>681.0</ele><time>2026-04-10T10:26:11.854Z</time></trkpt><trkpt lat="44.3251292" lon="5.3869918"><ele>681.0</ele><time>2026-04-10T10:26:12.855Z</time></trkpt><trkpt lat="44.3251069" lon="5.3868338"><ele>680.6666666666666</ele><time>2026-04-10T10:26:13.85Z</time></trkpt><trkpt lat="44.3250189" lon="5.386703"><ele>680.3333333333333</ele><time>2026-04-10T10:26:14.851Z</time></trkpt><trkpt lat="44.3249417" lon="5.3865613"><ele>680.0</ele><time>2026-04-10T10:26:15.851Z</time></trkpt><trkpt lat="44.3247092" lon="5.3866087"><ele>680.0</ele><time>2026-04-10T10:26:16.854Z</time></trkpt><trkpt lat="44.3245889" lon="5.3865322"><ele>680.0</ele><time>2026-04-10T10:26:17.852Z</time></trkpt><trkpt lat="44.3244825" lon="5.3863909"><ele>680.0</ele><time>2026-04-10T10:26:18.849Z</time></trkpt><trkpt lat="44.3243757" lon="5.3862445"><ele>680.0</ele><time>2026-04-10T10:26:19.852Z</time></trkpt><trkpt lat="44.3242981" lon="5.3860684"><ele>678.3333333333333</ele><time>2026-04-10T10:26:20.854Z</time></trkpt><trkpt lat="44.3243313" lon="5.3857679"><ele>676.6666666666666</ele><time>2026-04-10T10:26:21.853Z</time></trkpt><trkpt lat="44.3243142" lon="5.3855198"><ele>675.0</ele><time>2026-04-10T10:26:22.852Z</time></trkpt><trkpt lat="44.3243167" lon="5.3852622"><ele>673.3333333333334</ele><time>2026-04-10T10:26:23.853Z</time></trkpt><trkpt lat="44.3243357" lon="5.3850064"><ele>671.6666666666667</ele><time>2026-04-10T10:26:24.859Z</time></trkpt><trkpt lat="44.3243548" lon="5.3847361"><ele>670.0</ele><time>2026-04-10T10:26:25.856Z</time></trkpt><trkpt lat="44.3243744" lon="5.3844617"><ele>668.6666666666667</ele><time>2026-04-10T10:26:26.851Z</time></trkpt><trkpt lat="44.3244024" lon="5.3841847"><ele>667.3333333333334</ele><time>2026-04-10T10:26:27.851Z</time></trkpt><trkpt lat="44.3244456" lon="5.3839349"><ele>666.0</ele><time>2026-04-10T10:26:28.857Z</time></trkpt><trkpt lat="44.3244963" lon="5.3836808"><ele>665.6666666666666</ele><time>2026-04-10T10:26:29.849Z</time></trkpt><trkpt lat="44.3245245" lon="5.3834421"><ele>665.3333333333333</ele><time>2026-04-10T10:26:30.852Z</time></trkpt><trkpt lat="44.3245398" lon="5.3832061"><ele>665.0</ele><time>2026-04-10T10:26:31.858Z</time></trkpt><trkpt lat="44.3245418" lon="5.3829715"><ele>663.8</ele><time>2026-04-10T10:26:32.853Z</time></trkpt><trkpt lat="44.3245142" lon="5.3827564"><ele>662.6</ele><time>2026-04-10T10:26:33.849Z</time></trkpt><trkpt lat="44.324509" lon="5.3825494"><ele>661.4000000000001</ele><time>2026-04-10T10:26:34.851Z</time></trkpt><trkpt lat="44.3245099" lon="5.382452"><ele>660.2</ele><time>2026-04-10T10:26:36.853Z</time></trkpt><trkpt lat="44.3245665" lon="5.3823886"><ele>659.0</ele><time>2026-04-10T10:26:38.851Z</time></trkpt><trkpt lat="44.3246237" lon="5.3824636"><ele>659.0</ele><time>2026-04-10T10:26:39.852Z</time></trkpt><trkpt lat="44.3246156" lon="5.3827045"><ele>659.0</ele><time>2026-04-10T10:26:40.852Z</time></trkpt><trkpt lat="44.3246451" lon="5.3828424"><ele>659.0</ele><time>2026-04-10T10:26:41.854Z</time></trkpt><trkpt lat="44.3247448" lon="5.382997"><ele>659.0</ele><time>2026-04-10T10:26:42.852Z</time></trkpt><trkpt lat="44.3248222" lon="5.3831511"><ele>656.3333333333333</ele><time>2026-04-10T10:26:43.852Z</time></trkpt><trkpt lat="44.324919" lon="5.3832951"><ele>653.6666666666666</ele><time>2026-04-10T10:26:44.849Z</time></trkpt><trkpt lat="44.3250974" lon="5.383429"><ele>651.0</ele><time>2026-04-10T10:26:45.852Z</time></trkpt><trkpt lat="44.3252101" lon="5.3835491"><ele>651.0</ele><time>2026-04-10T10:26:46.853Z</time></trkpt><trkpt lat="44.3253058" lon="5.3836573"><ele>651.0</ele><time>2026-04-10T10:26:47.858Z</time></trkpt><trkpt lat="44.325422" lon="5.3837434"><ele>651.0</ele><time>2026-04-10T10:26:48.85Z</time></trkpt><trkpt lat="44.3255389" lon="5.3837735"><ele>651.0</ele><time>2026-04-10T10:26:49.853Z</time></trkpt><trkpt lat="44.3256691" lon="5.3837363"><ele>649.75</ele><time>2026-04-10T10:26:50.85Z</time></trkpt><trkpt lat="44.3257943" lon="5.3837"><ele>648.5</ele><time>2026-04-10T10:26:51.851Z</time></trkpt><trkpt lat="44.3259259" lon="5.3837221"><ele>647.25</ele><time>2026-04-10T10:26:52.853Z</time></trkpt><trkpt lat="44.3260456" lon="5.3837759"><ele>646.0</ele><time>2026-04-10T10:26:53.853Z</time></trkpt><trkpt lat="44.3261701" lon="5.3838894"><ele>646.0</ele><time>2026-04-10T10:26:54.851Z</time></trkpt><trkpt lat="44.3262882" lon="5.3840143"><ele>646.0</ele><time>2026-04-10T10:26:55.854Z</time></trkpt><trkpt lat="44.3264076" lon="5.3841572"><ele>646.0</ele><time>2026-04-10T10:26:56.856Z</time></trkpt><trkpt lat="44.3265183" lon="5.3843118"><ele>644.75</ele><time>2026-04-10T10:26:57.851Z</time></trkpt><trkpt lat="44.3266146" lon="5.3844679"><ele>643.5</ele><time>2026-04-10T10:26:58.852Z</time></trkpt><trkpt lat="44.3266984" lon="5.3846405"><ele>642.25</ele><time>2026-04-10T10:26:59.851Z</time></trkpt><trkpt lat="44.326775" lon="5.3848108"><ele>641.0</ele><time>2026-04-10T10:27:00.851Z</time></trkpt><trkpt lat="44.3268462" lon="5.3849785"><ele>641.0</ele><time>2026-04-10T10:27:01.852Z</time></trkpt><trkpt lat="44.3269112" lon="5.3851253"><ele>641.0</ele><time>2026-04-10T10:27:02.853Z</time></trkpt><trkpt lat="44.3269674" lon="5.3852718"><ele>641.0</ele><time>2026-04-10T10:27:03.851Z</time></trkpt><trkpt lat="44.3270366" lon="5.3853357"><ele>641.0</ele><time>2026-04-10T10:27:04.857Z</time></trkpt><trkpt lat="44.3271234" lon="5.3853788"><ele>641.0</ele><time>2026-04-10T10:27:05.851Z</time></trkpt><trkpt lat="44.3272137" lon="5.3853576"><ele>639.5999999999999</ele><time>2026-04-10T10:27:06.857Z</time></trkpt><trkpt lat="44.3273132" lon="5.3853233"><ele>638.1999999999999</ele><time>2026-04-10T10:27:07.851Z</time></trkpt><trkpt lat="44.3274023" lon="5.3852667"><ele>636.8</ele><time>2026-04-10T10:27:08.85Z</time></trkpt><trkpt lat="44.3274718" lon="5.3851631"><ele>635.4</ele><time>2026-04-10T10:27:09.853Z</time></trkpt><trkpt lat="44.3275298" lon="5.3850462"><ele>634.0</ele><time>2026-04-10T10:27:10.85Z</time></trkpt><trkpt lat="44.3275585" lon="5.384857"><ele>634.0</ele><time>2026-04-10T10:27:11.85Z</time></trkpt><trkpt lat="44.3276021" lon="5.3846828"><ele>634.0</ele><time>2026-04-10T10:27:12.849Z</time></trkpt><trkpt lat="44.3276479" lon="5.38452"><ele>634.0</ele><time>2026-04-10T10:27:13.855Z</time></trkpt><trkpt lat="44.3277024" lon="5.3843818"><ele>634.0</ele><time>2026-04-10T10:27:14.854Z</time></trkpt><trkpt lat="44.3277496" lon="5.384262"><ele>632.1666666666667</ele><time>2026-04-10T10:27:15.849Z</time></trkpt><trkpt lat="44.3278429" lon="5.3841879"><ele>630.3333333333334</ele><time>2026-04-10T10:27:17.854Z</time></trkpt><trkpt lat="44.3278961" lon="5.3841307"><ele>628.5</ele><time>2026-04-10T10:27:20.859Z</time></trkpt><trkpt lat="44.3278738" lon="5.3840367"><ele>626.6666666666666</ele><time>2026-04-10T10:28:04.855Z</time></trkpt><trkpt lat="44.3278187" lon="5.3841074"><ele>624.8333333333333</ele><time>2026-04-10T10:28:05.855Z</time></trkpt><trkpt lat="44.3277734" lon="5.3841712"><ele>623.0</ele><time>2026-04-10T10:28:06.852Z</time></trkpt><trkpt lat="44.3277298" lon="5.3842503"><ele>623.0</ele><time>2026-04-10T10:28:07.85Z</time></trkpt><trkpt lat="44.3276825" lon="5.3843332"><ele>623.0</ele><time>2026-04-10T10:28:08.856Z</time></trkpt><trkpt lat="44.3276412" lon="5.3844418"><ele>623.0</ele><time>2026-04-10T10:28:09.847Z</time></trkpt><trkpt lat="44.3276041" lon="5.3845698"><ele>623.0</ele><time>2026-04-10T10:28:10.85Z</time></trkpt><trkpt lat="44.327568" lon="5.3847107"><ele>623.0</ele><time>2026-04-10T10:28:11.852Z</time></trkpt><trkpt lat="44.3275381" lon="5.3848648"><ele>625.1999999999999</ele><time>2026-04-10T10:28:12.85Z</time></trkpt><trkpt lat="44.3275036" lon="5.3850123"><ele>627.4</ele><time>2026-04-10T10:28:13.85Z</time></trkpt><trkpt lat="44.3274697" lon="5.385146"><ele>629.5999999999999</ele><time>2026-04-10T10:28:14.85Z</time></trkpt><trkpt lat="44.3274266" lon="5.3852429"><ele>631.8</ele><time>2026-04-10T10:28:15.853Z</time></trkpt><trkpt lat="44.3273377" lon="5.385298"><ele>634.0</ele><time>2026-04-10T10:28:16.852Z</time></trkpt><trkpt lat="44.3272424" lon="5.3853441"><ele>635.4</ele><time>2026-04-10T10:28:17.853Z</time></trkpt><trkpt lat="44.32715" lon="5.3853739"><ele>636.8</ele><time>2026-04-10T10:28:18.854Z</time></trkpt><trkpt lat="44.3270554" lon="5.3853676"><ele>638.1999999999999</ele><time>2026-04-10T10:28:19.849Z</time></trkpt><trkpt lat="44.326965" lon="5.3853406"><ele>639.5999999999999</ele><time>2026-04-10T10:28:20.852Z</time></trkpt><trkpt lat="44.3268766" lon="5.3852725"><ele>641.0</ele><time>2026-04-10T10:28:21.85Z</time></trkpt><trkpt lat="44.3268263" lon="5.3850079"><ele>641.0</ele><time>2026-04-10T10:28:22.85Z</time></trkpt><trkpt lat="44.3267715" lon="5.3848304"><ele>641.0</ele><time>2026-04-10T10:28:23.851Z</time></trkpt><trkpt lat="44.3267208" lon="5.3846791"><ele>641.0</ele><time>2026-04-10T10:28:24.856Z</time></trkpt><trkpt lat="44.3266873" lon="5.3845601"><ele>641.0</ele><time>2026-04-10T10:28:25.849Z</time></trkpt><trkpt lat="44.3266892" lon="5.3844448"><ele>641.0</ele><time>2026-04-10T10:28:26.848Z</time></trkpt><trkpt lat="44.3266962" lon="5.3843272"><ele>639.6666666666666</ele><time>2026-04-10T10:28:27.85Z</time></trkpt><trkpt lat="44.3267158" lon="5.3842207"><ele>638.3333333333333</ele><time>2026-04-10T10:28:28.854Z</time></trkpt><trkpt lat="44.3267212" lon="5.3841183"><ele>637.0</ele><time>2026-04-10T10:28:29.851Z</time></trkpt><trkpt lat="44.326726" lon="5.384006"><ele>635.6666666666666</ele><time>2026-04-10T10:28:30.851Z</time></trkpt><trkpt lat="44.326721" lon="5.383902"><ele>634.3333333333334</ele><time>2026-04-10T10:28:31.849Z</time></trkpt><trkpt lat="44.3266996" lon="5.3837851"><ele>633.0</ele><time>2026-04-10T10:28:32.85Z</time></trkpt><trkpt lat="44.3266631" lon="5.3836723"><ele>631.8</ele><time>2026-04-10T10:28:33.851Z</time></trkpt><trkpt lat="44.3266005" lon="5.3835515"><ele>630.5999999999999</ele><time>2026-04-10T10:28:34.853Z</time></trkpt><trkpt lat="44.3265314" lon="5.3834332"><ele>629.4000000000001</ele><time>2026-04-10T10:28:35.853Z</time></trkpt><trkpt lat="44.3264717" lon="5.3832996"><ele>628.2</ele><time>2026-04-10T10:28:36.852Z</time></trkpt><trkpt lat="44.3264177" lon="5.3831556"><ele>627.0</ele><time>2026-04-10T10:28:37.852Z</time></trkpt><trkpt lat="44.3263657" lon="5.3830196"><ele>628.2</ele><time>2026-04-10T10:28:38.852Z</time></trkpt><trkpt lat="44.3263231" lon="5.3828844"><ele>629.4000000000001</ele><time>2026-04-10T10:28:39.853Z</time></trkpt><trkpt lat="44.3262723" lon="5.3827633"><ele>630.5999999999999</ele><time>2026-04-10T10:28:40.852Z</time></trkpt><trkpt lat="44.3262128" lon="5.3826327"><ele>631.8</ele><time>2026-04-10T10:28:41.852Z</time></trkpt><trkpt lat="44.3261497" lon="5.3825043"><ele>633.0</ele><time>2026-04-10T10:28:42.852Z</time></trkpt><trkpt lat="44.3260896" lon="5.3823922"><ele>633.0</ele><time>2026-04-10T10:28:43.848Z</time></trkpt><trkpt lat="44.3260189" lon="5.3823114"><ele>633.0</ele><time>2026-04-10T10:28:44.849Z</time></trkpt><trkpt lat="44.3259498" lon="5.3822713"><ele>633.0</ele><time>2026-04-10T10:28:45.853Z</time></trkpt><trkpt lat="44.3258732" lon="5.382227"><ele>633.0</ele><time>2026-04-10T10:28:46.854Z</time></trkpt><trkpt lat="44.3257926" lon="5.3821594"><ele>633.0</ele><time>2026-04-10T10:28:47.85Z</time></trkpt><trkpt lat="44.3257313" lon="5.3820337"><ele>631.8</ele><time>2026-04-10T10:28:48.851Z</time></trkpt><trkpt lat="44.3256702" lon="5.3818927"><ele>630.5999999999999</ele><time>2026-04-10T10:28:49.854Z</time></trkpt><trkpt lat="44.3256052" lon="5.38177"><ele>629.4000000000001</ele><time>2026-04-10T10:28:50.854Z</time></trkpt><trkpt lat="44.3255411" lon="5.3816919"><ele>628.2</ele><time>2026-04-10T10:28:51.851Z</time></trkpt><trkpt lat="44.3254575" lon="5.3816328"><ele>627.0</ele><time>2026-04-10T10:28:52.849Z</time></trkpt><trkpt lat="44.3253989" lon="5.3815818"><ele>626.4</ele><time>2026-04-10T10:28:53.855Z</time></trkpt><trkpt lat="44.3253396" lon="5.3814643"><ele>625.8000000000001</ele><time>2026-04-10T10:28:55.849Z</time></trkpt><trkpt lat="44.3253785" lon="5.3813368"><ele>625.2</ele><time>2026-04-10T10:28:57.849Z</time></trkpt><trkpt lat="44.3254525" lon="5.381245"><ele>624.6</ele><time>2026-04-10T10:28:58.85Z</time></trkpt><trkpt lat="44.3255208" lon="5.3811392"><ele>624.0</ele><time>2026-04-10T10:28:59.85Z</time></trkpt><trkpt lat="44.3255657" lon="5.3810364"><ele>624.0</ele><time>2026-04-10T10:29:00.853Z</time></trkpt><trkpt lat="44.325591" lon="5.3809181"><ele>624.0</ele><time>2026-04-10T10:29:01.853Z</time></trkpt><trkpt lat="44.3255889" lon="5.3807753"><ele>624.0</ele><time>2026-04-10T10:29:02.854Z</time></trkpt><trkpt lat="44.3255756" lon="5.3806249"><ele>624.0</ele><time>2026-04-10T10:29:03.853Z</time></trkpt><trkpt lat="44.3255612" lon="5.3804774"><ele>624.0</ele><time>2026-04-10T10:29:04.852Z</time></trkpt><trkpt lat="44.3255497" lon="5.3803243"><ele>626.8</ele><time>2026-04-10T10:29:05.85Z</time></trkpt><trkpt lat="44.3255324" lon="5.3801696"><ele>629.5999999999999</ele><time>2026-04-10T10:29:06.852Z</time></trkpt><trkpt lat="44.3255173" lon="5.3800176"><ele>632.4</ele><time>2026-04-10T10:29:07.852Z</time></trkpt><trkpt lat="44.3255032" lon="5.3798658"><ele>635.1999999999999</ele><time>2026-04-10T10:29:08.852Z</time></trkpt><trkpt lat="44.3254935" lon="5.3797245"><ele>638.0</ele><time>2026-04-10T10:29:09.85Z</time></trkpt><trkpt lat="44.3254748" lon="5.3795752"><ele>638.4</ele><time>2026-04-10T10:29:10.849Z</time></trkpt><trkpt lat="44.3254629" lon="5.3794285"><ele>638.8</ele><time>2026-04-10T10:29:11.851Z</time></trkpt><trkpt lat="44.3254541" lon="5.3792841"><ele>639.2</ele><time>2026-04-10T10:29:12.852Z</time></trkpt><trkpt lat="44.3254498" lon="5.379126"><ele>639.6</ele><time>2026-04-10T10:29:13.849Z</time></trkpt><trkpt lat="44.3254511" lon="5.3789685"><ele>640.0</ele><time>2026-04-10T10:29:14.851Z</time></trkpt><trkpt lat="44.3254563" lon="5.3788088"><ele>638.2</ele><time>2026-04-10T10:29:15.849Z</time></trkpt><trkpt lat="44.3254665" lon="5.3786576"><ele>636.4</ele><time>2026-04-10T10:29:16.851Z</time></trkpt><trkpt lat="44.3254648" lon="5.3785219"><ele>634.6</ele><time>2026-04-10T10:29:17.856Z</time></trkpt><trkpt lat="44.3254542" lon="5.3784055"><ele>632.8</ele><time>2026-04-10T10:29:18.849Z</time></trkpt><trkpt lat="44.3254254" lon="5.3783025"><ele>631.0</ele><time>2026-04-10T10:29:19.849Z</time></trkpt><trkpt lat="44.3253751" lon="5.378211"><ele>631.0</ele><time>2026-04-10T10:29:20.851Z</time></trkpt><trkpt lat="44.325317" lon="5.3781353"><ele>631.0</ele><time>2026-04-10T10:29:21.852Z</time></trkpt><trkpt lat="44.3252541" lon="5.3780664"><ele>631.0</ele><time>2026-04-10T10:29:22.855Z</time></trkpt><trkpt lat="44.3251411" lon="5.3780823"><ele>631.0</ele><time>2026-04-10T10:29:24.852Z</time></trkpt><trkpt lat="44.3250777" lon="5.3781062"><ele>631.0</ele><time>2026-04-10T10:29:25.851Z</time></trkpt><trkpt lat="44.3249918" lon="5.3781338"><ele>631.0</ele><time>2026-04-10T10:29:26.851Z</time></trkpt><trkpt lat="44.3248984" lon="5.3781456"><ele>631.0</ele><time>2026-04-10T10:29:27.851Z</time></trkpt><trkpt lat="44.3247653" lon="5.3781601"><ele>631.0</ele><time>2026-04-10T10:29:28.852Z</time></trkpt><trkpt lat="44.3246455" lon="5.3781936"><ele>631.0</ele><time>2026-04-10T10:29:29.849Z</time></trkpt><trkpt lat="44.3245363" lon="5.3781917"><ele>631.0</ele><time>2026-04-10T10:29:30.849Z</time></trkpt><trkpt lat="44.3244151" lon="5.3781892"><ele>632.0</ele><time>2026-04-10T10:29:31.848Z</time></trkpt><trkpt lat="44.3242881" lon="5.3781574"><ele>633.0</ele><time>2026-04-10T10:29:32.849Z</time></trkpt><trkpt lat="44.3241713" lon="5.3781154"><ele>634.0</ele><time>2026-04-10T10:29:33.85Z</time></trkpt><trkpt lat="44.3240669" lon="5.378085"><ele>635.0</ele><time>2026-04-10T10:29:34.85Z</time></trkpt><trkpt lat="44.323975" lon="5.3780484"><ele>636.0</ele><time>2026-04-10T10:29:35.849Z</time></trkpt><trkpt lat="44.3238781" lon="5.3780278"><ele>637.0</ele><time>2026-04-10T10:29:36.852Z</time></trkpt><trkpt lat="44.3237778" lon="5.3780318"><ele>638.0</ele><time>2026-04-10T10:29:37.851Z</time></trkpt><trkpt lat="44.3236903" lon="5.3780424"><ele>639.0</ele><time>2026-04-10T10:29:38.853Z</time></trkpt><trkpt lat="44.3236117" lon="5.3780773"><ele>640.0</ele><time>2026-04-10T10:29:39.85Z</time></trkpt><trkpt lat="44.3235512" lon="5.3781337"><ele>641.0</ele><time>2026-04-10T10:29:40.853Z</time></trkpt><trkpt lat="44.3234391" lon="5.378188"><ele>641.0</ele><time>2026-04-10T10:29:42.848Z</time></trkpt><trkpt lat="44.3234091" lon="5.3780266"><ele>641.0</ele><time>2026-04-10T10:29:44.849Z</time></trkpt><trkpt lat="44.3234322" lon="5.3779429"><ele>641.0</ele><time>2026-04-10T10:29:45.851Z</time></trkpt><trkpt lat="44.3234732" lon="5.377842"><ele>641.0</ele><time>2026-04-10T10:29:46.852Z</time></trkpt><trkpt lat="44.3235082" lon="5.3777291"><ele>641.0</ele><time>2026-04-10T10:29:47.853Z</time></trkpt><trkpt lat="44.3235317" lon="5.3776069"><ele>641.0</ele><time>2026-04-10T10:29:48.855Z</time></trkpt><trkpt lat="44.3235395" lon="5.3774803"><ele>641.4</ele><time>2026-04-10T10:29:49.853Z</time></trkpt><trkpt lat="44.3235539" lon="5.3773477"><ele>641.8</ele><time>2026-04-10T10:29:50.853Z</time></trkpt><trkpt lat="44.3235794" lon="5.3772073"><ele>642.1999999999999</ele><time>2026-04-10T10:29:51.851Z</time></trkpt><trkpt lat="44.323634" lon="5.3770705"><ele>642.5999999999999</ele><time>2026-04-10T10:29:52.85Z</time></trkpt><trkpt lat="44.3237031" lon="5.3769283"><ele>643.0</ele><time>2026-04-10T10:29:53.852Z</time></trkpt><trkpt lat="44.3237711" lon="5.3767882"><ele>643.75</ele><time>2026-04-10T10:29:54.854Z</time></trkpt><trkpt lat="44.3238403" lon="5.3766396"><ele>644.5</ele><time>2026-04-10T10:29:55.846Z</time></trkpt><trkpt lat="44.3239044" lon="5.3764829"><ele>645.25</ele><time>2026-04-10T10:29:56.851Z</time></trkpt><trkpt lat="44.3239761" lon="5.3763275"><ele>646.0</ele><time>2026-04-10T10:29:57.852Z</time></trkpt><trkpt lat="44.3240543" lon="5.3761757"><ele>646.0</ele><time>2026-04-10T10:29:58.855Z</time></trkpt><trkpt lat="44.3241123" lon="5.3760331"><ele>646.0</ele><time>2026-04-10T10:29:59.853Z</time></trkpt><trkpt lat="44.3242024" lon="5.3759094"><ele>646.0</ele><time>2026-04-10T10:30:00.849Z</time></trkpt><trkpt lat="44.3242865" lon="5.3757674"><ele>646.0</ele><time>2026-04-10T10:30:01.855Z</time></trkpt><trkpt lat="44.3243572" lon="5.3756387"><ele>649.1999999999999</ele><time>2026-04-10T10:30:02.853Z</time></trkpt><trkpt lat="44.3244074" lon="5.375515"><ele>652.4</ele><time>2026-04-10T10:30:03.849Z</time></trkpt><trkpt lat="44.3244459" lon="5.3753874"><ele>655.6</ele><time>2026-04-10T10:30:04.85Z</time></trkpt><trkpt lat="44.3244861" lon="5.3752656"><ele>658.8</ele><time>2026-04-10T10:30:05.852Z</time></trkpt><trkpt lat="44.3245407" lon="5.375168"><ele>662.0</ele><time>2026-04-10T10:30:06.849Z</time></trkpt><trkpt lat="44.3245895" lon="5.3750688"><ele>662.0</ele><time>2026-04-10T10:30:07.855Z</time></trkpt><trkpt lat="44.324622" lon="5.3749582"><ele>662.0</ele><time>2026-04-10T10:30:08.854Z</time></trkpt><trkpt lat="44.3246198" lon="5.3748261"><ele>662.0</ele><time>2026-04-10T10:30:09.854Z</time></trkpt><trkpt lat="44.324615" lon="5.3746783"><ele>662.0</ele><time>2026-04-10T10:30:10.852Z</time></trkpt><trkpt lat="44.3245996" lon="5.3745375"><ele>662.0</ele><time>2026-04-10T10:30:11.852Z</time></trkpt><trkpt lat="44.3245717" lon="5.374412"><ele>662.1666666666666</ele><time>2026-04-10T10:30:12.852Z</time></trkpt><trkpt lat="44.3245331" lon="5.3742908"><ele>662.3333333333333</ele><time>2026-04-10T10:30:13.851Z</time></trkpt><trkpt lat="44.3245035" lon="5.3741852"><ele>662.5</ele><time>2026-04-10T10:30:14.853Z</time></trkpt><trkpt lat="44.3244869" lon="5.3740863"><ele>662.6666666666666</ele><time>2026-04-10T10:30:15.851Z</time></trkpt><trkpt lat="44.3245101" lon="5.3739965"><ele>662.8333333333334</ele><time>2026-04-10T10:30:16.851Z</time></trkpt><trkpt lat="44.3245653" lon="5.3739368"><ele>663.0</ele><time>2026-04-10T10:30:17.851Z</time></trkpt><trkpt lat="44.3246301" lon="5.3738318"><ele>663.0</ele><time>2026-04-10T10:30:19.85Z</time></trkpt><trkpt lat="44.3246508" lon="5.3736701"><ele>663.0</ele><time>2026-04-10T10:30:21.853Z</time></trkpt><trkpt lat="44.3247252" lon="5.3735777"><ele>663.0</ele><time>2026-04-10T10:30:23.854Z</time></trkpt><trkpt lat="44.3247915" lon="5.3735655"><ele>663.0</ele><time>2026-04-10T10:30:24.852Z</time></trkpt><trkpt lat="44.324887" lon="5.3734883"><ele>663.0</ele><time>2026-04-10T10:30:26.849Z</time></trkpt><trkpt lat="44.3249256" lon="5.3733869"><ele>661.0</ele><time>2026-04-10T10:30:27.851Z</time></trkpt><trkpt lat="44.3249709" lon="5.3732316"><ele>659.0</ele><time>2026-04-10T10:30:28.847Z</time></trkpt><trkpt lat="44.3250157" lon="5.3730915"><ele>657.0</ele><time>2026-04-10T10:30:29.847Z</time></trkpt><trkpt lat="44.3250532" lon="5.3729852"><ele>655.0</ele><time>2026-04-10T10:30:30.855Z</time></trkpt><trkpt lat="44.3250995" lon="5.3728846"><ele>653.0</ele><time>2026-04-10T10:30:31.854Z</time></trkpt><trkpt lat="44.3251569" lon="5.3727841"><ele>653.0</ele><time>2026-04-10T10:30:32.85Z</time></trkpt><trkpt lat="44.3252465" lon="5.3726834"><ele>653.0</ele><time>2026-04-10T10:30:33.85Z</time></trkpt><trkpt lat="44.3253176" lon="5.3725686"><ele>653.0</ele><time>2026-04-10T10:30:34.851Z</time></trkpt><trkpt lat="44.3253729" lon="5.3724455"><ele>653.0</ele><time>2026-04-10T10:30:35.852Z</time></trkpt><trkpt lat="44.3254227" lon="5.3723283"><ele>653.0</ele><time>2026-04-10T10:30:36.849Z</time></trkpt><trkpt lat="44.3254782" lon="5.372251"><ele>653.8333333333333</ele><time>2026-04-10T10:30:37.851Z</time></trkpt><trkpt lat="44.3255204" lon="5.3721844"><ele>654.6666666666666</ele><time>2026-04-10T10:30:38.851Z</time></trkpt><trkpt lat="44.3255244" lon="5.3720134"><ele>655.5</ele><time>2026-04-10T10:30:40.852Z</time></trkpt><trkpt lat="44.3255001" lon="5.3719315"><ele>656.3333333333334</ele><time>2026-04-10T10:30:41.856Z</time></trkpt><trkpt lat="44.3254824" lon="5.3718362"><ele>657.1666666666667</ele><time>2026-04-10T10:30:42.853Z</time></trkpt><trkpt lat="44.3254449" lon="5.3717333"><ele>658.0</ele><time>2026-04-10T10:30:43.856Z</time></trkpt><trkpt lat="44.3253863" lon="5.3716643"><ele>658.0</ele><time>2026-04-10T10:30:44.851Z</time></trkpt><trkpt lat="44.3253212" lon="5.3716305"><ele>658.0</ele><time>2026-04-10T10:30:45.854Z</time></trkpt><trkpt lat="44.3252132" lon="5.3716312"><ele>658.0</ele><time>2026-04-10T10:30:46.847Z</time></trkpt><trkpt lat="44.325099" lon="5.3716461"><ele>658.0</ele><time>2026-04-10T10:30:47.853Z</time></trkpt><trkpt lat="44.3249832" lon="5.3716447"><ele>658.0</ele><time>2026-04-10T10:30:48.85Z</time></trkpt><trkpt lat="44.324862" lon="5.3716201"><ele>658.0</ele><time>2026-04-10T10:30:49.851Z</time></trkpt><trkpt lat="44.3247723" lon="5.3715564"><ele>658.0</ele><time>2026-04-10T10:30:50.851Z</time></trkpt><trkpt lat="44.3246996" lon="5.3714645"><ele>658.0</ele><time>2026-04-10T10:30:51.854Z</time></trkpt><trkpt lat="44.3246178" lon="5.3713729"><ele>658.0</ele><time>2026-04-10T10:30:52.854Z</time></trkpt><trkpt lat="44.3245346" lon="5.371264"><ele>658.0</ele><time>2026-04-10T10:30:53.85Z</time></trkpt><trkpt lat="44.324459" lon="5.3711725"><ele>661.8</ele><time>2026-04-10T10:30:54.847Z</time></trkpt><trkpt lat="44.3243749" lon="5.371087"><ele>665.5999999999999</ele><time>2026-04-10T10:30:55.85Z</time></trkpt><trkpt lat="44.3243047" lon="5.3709836"><ele>669.4000000000001</ele><time>2026-04-10T10:30:56.855Z</time></trkpt><trkpt lat="44.3242403" lon="5.3708684"><ele>673.2</ele><time>2026-04-10T10:30:57.851Z</time></trkpt><trkpt lat="44.3241835" lon="5.3707646"><ele>677.0</ele><time>2026-04-10T10:30:58.849Z</time></trkpt><trkpt lat="44.3241336" lon="5.3706432"><ele>677.0</ele><time>2026-04-10T10:31:00.846Z</time></trkpt><trkpt lat="44.3241937" lon="5.3706037"><ele>677.0</ele><time>2026-04-10T10:31:03.852Z</time></trkpt><trkpt lat="44.3242886" lon="5.3706056"><ele>677.0</ele><time>2026-04-10T10:31:06.851Z</time></trkpt><trkpt lat="44.3243723" lon="5.370627"><ele>677.0</ele><time>2026-04-10T10:31:08.852Z</time></trkpt><trkpt lat="44.324485" lon="5.37065"><ele>677.0</ele><time>2026-04-10T10:31:10.849Z</time></trkpt><trkpt lat="44.324561" lon="5.37065"><ele>677.0</ele><time>2026-04-10T10:31:12.853Z</time></trkpt><trkpt lat="44.3246183" lon="5.3706062"><ele>677.0</ele><time>2026-04-10T10:31:13.854Z</time></trkpt><trkpt lat="44.3246666" lon="5.3705427"><ele>677.0</ele><time>2026-04-10T10:31:14.851Z</time></trkpt><trkpt lat="44.3246991" lon="5.370465"><ele>677.0</ele><time>2026-04-10T10:31:15.853Z</time></trkpt><trkpt lat="44.3246586" lon="5.3703841"><ele>677.0</ele><time>2026-04-10T10:31:16.851Z</time></trkpt><trkpt lat="44.3246002" lon="5.3702831"><ele>677.0</ele><time>2026-04-10T10:31:17.85Z</time></trkpt><trkpt lat="44.32454" lon="5.3701756"><ele>677.0</ele><time>2026-04-10T10:31:18.852Z</time></trkpt><trkpt lat="44.3244809" lon="5.3700761"><ele>676.1666666666666</ele><time>2026-04-10T10:31:19.852Z</time></trkpt><trkpt lat="44.3244408" lon="5.3699729"><ele>675.3333333333333</ele><time>2026-04-10T10:31:20.851Z</time></trkpt><trkpt lat="44.3244108" lon="5.3698541"><ele>674.5</ele><time>2026-04-10T10:31:21.85Z</time></trkpt><trkpt lat="44.3243742" lon="5.3697361"><ele>673.6666666666666</ele><time>2026-04-10T10:31:22.853Z</time></trkpt><trkpt lat="44.3243351" lon="5.3696237"><ele>672.8333333333334</ele><time>2026-04-10T10:31:23.857Z</time></trkpt><trkpt lat="44.3242941" lon="5.3695079"><ele>672.0</ele><time>2026-04-10T10:31:24.851Z</time></trkpt><trkpt lat="44.3242623" lon="5.3693831"><ele>670.5</ele><time>2026-04-10T10:31:25.847Z</time></trkpt><trkpt lat="44.324231" lon="5.3692705"><ele>669.0</ele><time>2026-04-10T10:31:26.853Z</time></trkpt><trkpt lat="44.3242137" lon="5.3691725"><ele>667.5</ele><time>2026-04-10T10:31:27.853Z</time></trkpt><trkpt lat="44.3242026" lon="5.3690789"><ele>666.0</ele><time>2026-04-10T10:31:28.85Z</time></trkpt><trkpt lat="44.3242554" lon="5.3689523"><ele>664.5</ele><time>2026-04-10T10:31:30.853Z</time></trkpt><trkpt lat="44.3242629" lon="5.3688594"><ele>663.0</ele><time>2026-04-10T10:31:31.852Z</time></trkpt><trkpt lat="44.3242639" lon="5.3687443"><ele>662.2</ele><time>2026-04-10T10:31:32.851Z</time></trkpt><trkpt lat="44.3242875" lon="5.3686318"><ele>661.4</ele><time>2026-04-10T10:31:33.851Z</time></trkpt><trkpt lat="44.3243418" lon="5.3685234"><ele>660.6</ele><time>2026-04-10T10:31:34.851Z</time></trkpt><trkpt lat="44.324405" lon="5.3684236"><ele>659.8000000000001</ele><time>2026-04-10T10:31:35.849Z</time></trkpt><trkpt lat="44.3244717" lon="5.3683216"><ele>659.0</ele><time>2026-04-10T10:31:36.855Z</time></trkpt><trkpt lat="44.3245394" lon="5.3682207"><ele>659.0</ele><time>2026-04-10T10:31:37.863Z</time></trkpt><trkpt lat="44.3246086" lon="5.3681155"><ele>659.0</ele><time>2026-04-10T10:31:38.857Z</time></trkpt><trkpt lat="44.324667" lon="5.3680078"><ele>659.0</ele><time>2026-04-10T10:31:39.849Z</time></trkpt><trkpt lat="44.3247274" lon="5.3678974"><ele>659.0</ele><time>2026-04-10T10:31:40.858Z</time></trkpt><trkpt lat="44.3247813" lon="5.3677921"><ele>659.0</ele><time>2026-04-10T10:31:41.856Z</time></trkpt><trkpt lat="44.3248401" lon="5.3676978"><ele>654.5</ele><time>2026-04-10T10:31:42.852Z</time></trkpt><trkpt lat="44.3248941" lon="5.3676118"><ele>650.0</ele><time>2026-04-10T10:31:43.85Z</time></trkpt><trkpt lat="44.3249563" lon="5.3675341"><ele>645.5</ele><time>2026-04-10T10:31:44.849Z</time></trkpt><trkpt lat="44.3250326" lon="5.3674693"><ele>641.0</ele><time>2026-04-10T10:31:45.851Z</time></trkpt><trkpt lat="44.3250975" lon="5.3674163"><ele>636.5</ele><time>2026-04-10T10:31:46.85Z</time></trkpt><trkpt lat="44.3251984" lon="5.3673941"><ele>632.0</ele><time>2026-04-10T10:31:48.853Z</time></trkpt><trkpt lat="44.3252473" lon="5.3675347"><ele>632.0</ele><time>2026-04-10T10:31:50.849Z</time></trkpt><trkpt lat="44.3253154" lon="5.367672"><ele>632.0</ele><time>2026-04-10T10:31:52.849Z</time></trkpt><trkpt lat="44.3254522" lon="5.3676396"><ele>632.0</ele><time>2026-04-10T10:31:54.849Z</time></trkpt><trkpt lat="44.325508" lon="5.3675934"><ele>632.0</ele><time>2026-04-10T10:31:55.854Z</time></trkpt><trkpt lat="44.3255569" lon="5.367453"><ele>632.0</ele><time>2026-04-10T10:31:57.852Z</time></trkpt><trkpt lat="44.3255642" lon="5.3673632"><ele>632.0</ele><time>2026-04-10T10:31:58.854Z</time></trkpt><trkpt lat="44.3255534" lon="5.3672338"><ele>632.0</ele><time>2026-04-10T10:31:59.851Z</time></trkpt><trkpt lat="44.3255112" lon="5.3670948"><ele>632.0</ele><time>2026-04-10T10:32:00.852Z</time></trkpt><trkpt lat="44.3254648" lon="5.3669147"><ele>632.0</ele><time>2026-04-10T10:32:01.85Z</time></trkpt><trkpt lat="44.3254204" lon="5.3667424"><ele>630.5</ele><time>2026-04-10T10:32:02.854Z</time></trkpt><trkpt lat="44.32538" lon="5.366576"><ele>629.0</ele><time>2026-04-10T10:32:03.849Z</time></trkpt><trkpt lat="44.3253683" lon="5.3664044"><ele>627.5</ele><time>2026-04-10T10:32:04.851Z</time></trkpt><trkpt lat="44.3253619" lon="5.3662424"><ele>626.0</ele><time>2026-04-10T10:32:05.851Z</time></trkpt><trkpt lat="44.3253598" lon="5.3661004"><ele>624.8333333333333</ele><time>2026-04-10T10:32:06.849Z</time></trkpt><trkpt lat="44.3253581" lon="5.3659754"><ele>623.6666666666666</ele><time>2026-04-10T10:32:07.852Z</time></trkpt><trkpt lat="44.3253838" lon="5.3658708"><ele>622.5</ele><time>2026-04-10T10:32:08.851Z</time></trkpt><trkpt lat="44.3254144" lon="5.3657781"><ele>621.3333333333334</ele><time>2026-04-10T10:32:09.851Z</time></trkpt><trkpt lat="44.3254484" lon="5.3656562"><ele>620.1666666666667</ele><time>2026-04-10T10:32:10.851Z</time></trkpt><trkpt lat="44.3254531" lon="5.3655411"><ele>619.0</ele><time>2026-04-10T10:32:11.853Z</time></trkpt><trkpt lat="44.3254608" lon="5.3654205"><ele>618.4</ele><time>2026-04-10T10:32:12.847Z</time></trkpt><trkpt lat="44.3254927" lon="5.3652932"><ele>617.8</ele><time>2026-04-10T10:32:13.854Z</time></trkpt><trkpt lat="44.3255387" lon="5.3651619"><ele>617.2</ele><time>2026-04-10T10:32:14.852Z</time></trkpt><trkpt lat="44.325635" lon="5.365067"><ele>616.6</ele><time>2026-04-10T10:32:15.852Z</time></trkpt><trkpt lat="44.3257196" lon="5.3649579"><ele>616.0</ele><time>2026-04-10T10:32:16.851Z</time></trkpt><trkpt lat="44.3257879" lon="5.3647977"><ele>614.25</ele><time>2026-04-10T10:32:17.85Z</time></trkpt><trkpt lat="44.3258679" lon="5.3646391"><ele>612.5</ele><time>2026-04-10T10:32:18.853Z</time></trkpt><trkpt lat="44.3259601" lon="5.3645133"><ele>610.75</ele><time>2026-04-10T10:32:19.85Z</time></trkpt><trkpt lat="44.3260395" lon="5.3644093"><ele>609.0</ele><time>2026-04-10T10:32:20.853Z</time></trkpt><trkpt lat="44.3261111" lon="5.3642912"><ele>609.0</ele><time>2026-04-10T10:32:21.851Z</time></trkpt><trkpt lat="44.3261828" lon="5.3641589"><ele>609.0</ele><time>2026-04-10T10:32:22.853Z</time></trkpt><trkpt lat="44.3262589" lon="5.3640243"><ele>609.0</ele><time>2026-04-10T10:32:23.852Z</time></trkpt><trkpt lat="44.3263418" lon="5.3638926"><ele>609.0</ele><time>2026-04-10T10:32:24.851Z</time></trkpt><trkpt lat="44.3264301" lon="5.3637799"><ele>606.2</ele><time>2026-04-10T10:32:25.852Z</time></trkpt><trkpt lat="44.3265233" lon="5.3636803"><ele>603.4</ele><time>2026-04-10T10:32:26.849Z</time></trkpt><trkpt lat="44.3266064" lon="5.3635945"><ele>600.6</ele><time>2026-04-10T10:32:27.85Z</time></trkpt><trkpt lat="44.3266748" lon="5.3634962"><ele>597.8</ele><time>2026-04-10T10:32:28.854Z</time></trkpt><trkpt lat="44.3267247" lon="5.3633727"><ele>595.0</ele><time>2026-04-10T10:32:29.853Z</time></trkpt><trkpt lat="44.3267615" lon="5.3632312"><ele>595.0</ele><time>2026-04-10T10:32:30.852Z</time></trkpt><trkpt lat="44.3267947" lon="5.3630876"><ele>595.0</ele><time>2026-04-10T10:32:31.857Z</time></trkpt><trkpt lat="44.3268245" lon="5.3629405"><ele>595.0</ele><time>2026-04-10T10:32:32.85Z</time></trkpt><trkpt lat="44.3268226" lon="5.3627732"><ele>595.0</ele><time>2026-04-10T10:32:33.856Z</time></trkpt><trkpt lat="44.3268249" lon="5.3625964"><ele>593.25</ele><time>2026-04-10T10:32:34.853Z</time></trkpt><trkpt lat="44.3268258" lon="5.3624148"><ele>591.5</ele><time>2026-04-10T10:32:35.85Z</time></trkpt><trkpt lat="44.3268272" lon="5.3622212"><ele>589.75</ele><time>2026-04-10T10:32:36.849Z</time></trkpt><trkpt lat="44.3268342" lon="5.362025"><ele>588.0</ele><time>2026-04-10T10:32:37.847Z</time></trkpt><trkpt lat="44.3268347" lon="5.3618274"><ele>586.0</ele><time>2026-04-10T10:32:38.85Z</time></trkpt><trkpt lat="44.3268369" lon="5.3616318"><ele>584.0</ele><time>2026-04-10T10:32:39.852Z</time></trkpt><trkpt lat="44.3268705" lon="5.3614382"><ele>582.0</ele><time>2026-04-10T10:32:40.853Z</time></trkpt><trkpt lat="44.3269129" lon="5.3612597"><ele>580.0</ele><time>2026-04-10T10:32:41.849Z</time></trkpt><trkpt lat="44.3269699" lon="5.3610974"><ele>578.75</ele><time>2026-04-10T10:32:42.853Z</time></trkpt><trkpt lat="44.3270367" lon="5.360946"><ele>577.5</ele><time>2026-04-10T10:32:43.854Z</time></trkpt><trkpt lat="44.3271361" lon="5.3607961"><ele>576.25</ele><time>2026-04-10T10:32:44.852Z</time></trkpt><trkpt lat="44.3272389" lon="5.3606477"><ele>575.0</ele><time>2026-04-10T10:32:45.853Z</time></trkpt><trkpt lat="44.3273265" lon="5.3605018"><ele>572.0</ele><time>2026-04-10T10:32:46.847Z</time></trkpt><trkpt lat="44.3273966" lon="5.3603406"><ele>569.0</ele><time>2026-04-10T10:32:47.848Z</time></trkpt><trkpt lat="44.3274607" lon="5.3601624"><ele>566.0</ele><time>2026-04-10T10:32:48.853Z</time></trkpt><trkpt lat="44.3275277" lon="5.359987"><ele>563.0</ele><time>2026-04-10T10:32:49.851Z</time></trkpt><trkpt lat="44.3276276" lon="5.3598221"><ele>562.25</ele><time>2026-04-10T10:32:50.852Z</time></trkpt><trkpt lat="44.3277278" lon="5.3596593"><ele>561.5</ele><time>2026-04-10T10:32:51.855Z</time></trkpt><trkpt lat="44.3278192" lon="5.3594915"><ele>560.75</ele><time>2026-04-10T10:32:52.856Z</time></trkpt><trkpt lat="44.3279051" lon="5.3593456"><ele>560.0</ele><time>2026-04-10T10:32:53.852Z</time></trkpt><trkpt lat="44.3279864" lon="5.3592116"><ele>558.25</ele><time>2026-04-10T10:32:54.849Z</time></trkpt><trkpt lat="44.3280863" lon="5.3590773"><ele>556.5</ele><time>2026-04-10T10:32:55.849Z</time></trkpt><trkpt lat="44.3281843" lon="5.358961"><ele>554.75</ele><time>2026-04-10T10:32:56.852Z</time></trkpt><trkpt lat="44.3282833" lon="5.3588493"><ele>553.0</ele><time>2026-04-10T10:32:57.853Z</time></trkpt><trkpt lat="44.3283847" lon="5.3587355"><ele>552.25</ele><time>2026-04-10T10:32:58.849Z</time></trkpt><trkpt lat="44.3284912" lon="5.3586195"><ele>551.5</ele><time>2026-04-10T10:32:59.85Z</time></trkpt><trkpt lat="44.3285957" lon="5.3584969"><ele>550.75</ele><time>2026-04-10T10:33:00.85Z</time></trkpt><trkpt lat="44.3286999" lon="5.358367"><ele>550.0</ele><time>2026-04-10T10:33:01.855Z</time></trkpt><trkpt lat="44.328802" lon="5.3582295"><ele>547.0</ele><time>2026-04-10T10:33:02.85Z</time></trkpt><trkpt lat="44.3289043" lon="5.3580946"><ele>544.0</ele><time>2026-04-10T10:33:03.848Z</time></trkpt><trkpt lat="44.3290029" lon="5.3579573"><ele>541.0</ele><time>2026-04-10T10:33:04.852Z</time></trkpt><trkpt lat="44.3290855" lon="5.3578131"><ele>538.0</ele><time>2026-04-10T10:33:05.851Z</time></trkpt><trkpt lat="44.3291686" lon="5.3576544"><ele>537.5</ele><time>2026-04-10T10:33:06.848Z</time></trkpt><trkpt lat="44.3292536" lon="5.3574893"><ele>537.0</ele><time>2026-04-10T10:33:07.851Z</time></trkpt><trkpt lat="44.3293441" lon="5.3573302"><ele>536.5</ele><time>2026-04-10T10:33:08.853Z</time></trkpt><trkpt lat="44.329439" lon="5.3571875"><ele>536.0</ele><time>2026-04-10T10:33:09.851Z</time></trkpt><trkpt lat="44.3295318" lon="5.3570551"><ele>535.5</ele><time>2026-04-10T10:33:10.848Z</time></trkpt><trkpt lat="44.3296156" lon="5.356924"><ele>535.0</ele><time>2026-04-10T10:33:11.85Z</time></trkpt><trkpt lat="44.329695" lon="5.3567894"><ele>534.5</ele><time>2026-04-10T10:33:12.85Z</time></trkpt><trkpt lat="44.3297765" lon="5.3566546"><ele>534.0</ele><time>2026-04-10T10:33:13.849Z</time></trkpt><trkpt lat="44.3298619" lon="5.3565112"><ele>532.25</ele><time>2026-04-10T10:33:14.851Z</time></trkpt><trkpt lat="44.3299451" lon="5.3563686"><ele>530.5</ele><time>2026-04-10T10:33:15.85Z</time></trkpt><trkpt lat="44.3300275" lon="5.3562194"><ele>528.75</ele><time>2026-04-10T10:33:16.851Z</time></trkpt><trkpt lat="44.3301104" lon="5.356071"><ele>527.0</ele><time>2026-04-10T10:33:17.851Z</time></trkpt><trkpt lat="44.3302101" lon="5.3559392"><ele>527.0</ele><time>2026-04-10T10:33:18.85Z</time></trkpt><trkpt lat="44.3302978" lon="5.3558252"><ele>527.0</ele><time>2026-04-10T10:33:19.849Z</time></trkpt><trkpt lat="44.3303757" lon="5.3557019"><ele>527.0</ele><time>2026-04-10T10:33:20.85Z</time></trkpt><trkpt lat="44.3303979" lon="5.3555687"><ele>527.0</ele><time>2026-04-10T10:33:21.848Z</time></trkpt><trkpt lat="44.3304012" lon="5.3554303"><ele>527.0</ele><time>2026-04-10T10:33:22.846Z</time></trkpt><trkpt lat="44.3304007" lon="5.35528"><ele>525.75</ele><time>2026-04-10T10:33:23.849Z</time></trkpt><trkpt lat="44.3304435" lon="5.3551153"><ele>524.5</ele><time>2026-04-10T10:33:24.853Z</time></trkpt><trkpt lat="44.3304895" lon="5.3549525"><ele>523.25</ele><time>2026-04-10T10:33:25.849Z</time></trkpt><trkpt lat="44.3305404" lon="5.3547937"><ele>522.0</ele><time>2026-04-10T10:33:26.851Z</time></trkpt><trkpt lat="44.3306298" lon="5.3546045"><ele>517.0</ele><time>2026-04-10T10:33:27.85Z</time></trkpt><trkpt lat="44.3307242" lon="5.3544168"><ele>512.0</ele><time>2026-04-10T10:33:28.853Z</time></trkpt><trkpt lat="44.3308163" lon="5.3542274"><ele>507.0</ele><time>2026-04-10T10:33:29.85Z</time></trkpt><trkpt lat="44.3308881" lon="5.3540667"><ele>507.0</ele><time>2026-04-10T10:33:30.853Z</time></trkpt><trkpt lat="44.3309308" lon="5.3539238"><ele>507.0</ele><time>2026-04-10T10:33:31.851Z</time></trkpt><trkpt lat="44.3309431" lon="5.3537679"><ele>507.0</ele><time>2026-04-10T10:33:32.848Z</time></trkpt><trkpt lat="44.3309382" lon="5.3536065"><ele>507.0</ele><time>2026-04-10T10:33:33.851Z</time></trkpt><trkpt lat="44.3309203" lon="5.3534141"><ele>506.66666666666663</ele><time>2026-04-10T10:33:34.851Z</time></trkpt><trkpt lat="44.3308791" lon="5.3531569"><ele>506.3333333333333</ele><time>2026-04-10T10:33:35.867Z</time></trkpt><trkpt lat="44.3308384" lon="5.3528911"><ele>506.0</ele><time>2026-04-10T10:33:36.865Z</time></trkpt><trkpt lat="44.3308035" lon="5.3526277"><ele>505.3333333333333</ele><time>2026-04-10T10:33:37.849Z</time></trkpt><trkpt lat="44.3307676" lon="5.3523552"><ele>504.66666666666663</ele><time>2026-04-10T10:33:38.853Z</time></trkpt><trkpt lat="44.3307339" lon="5.3520949"><ele>504.0</ele><time>2026-04-10T10:33:39.852Z</time></trkpt><trkpt lat="44.3307017" lon="5.3518587"><ele>503.3333333333333</ele><time>2026-04-10T10:33:40.85Z</time></trkpt><trkpt lat="44.3306807" lon="5.3516719"><ele>502.66666666666663</ele><time>2026-04-10T10:33:41.848Z</time></trkpt><trkpt lat="44.3306884" lon="5.3515609"><ele>502.0</ele><time>2026-04-10T10:33:42.855Z</time></trkpt><trkpt lat="44.3307163" lon="5.3514626"><ele>501.3333333333333</ele><time>2026-04-10T10:33:43.848Z</time></trkpt><trkpt lat="44.3307501" lon="5.3513727"><ele>500.66666666666663</ele><time>2026-04-10T10:33:44.849Z</time></trkpt><trkpt lat="44.3308064" lon="5.3512961"><ele>500.0</ele><time>2026-04-10T10:33:45.85Z</time></trkpt><trkpt lat="44.3308956" lon="5.3512776"><ele>500.0</ele><time>2026-04-10T10:33:46.852Z</time></trkpt><trkpt lat="44.3310036" lon="5.3512444"><ele>500.0</ele><time>2026-04-10T10:33:47.851Z</time></trkpt><trkpt lat="44.3311715" lon="5.3512452"><ele>500.0</ele><time>2026-04-10T10:33:48.848Z</time></trkpt><trkpt lat="44.3313216" lon="5.35125"><ele>500.0</ele><time>2026-04-10T10:33:49.851Z</time></trkpt><trkpt lat="44.3314814" lon="5.3512276"><ele>500.0</ele><time>2026-04-10T10:33:50.855Z</time></trkpt><trkpt lat="44.3316368" lon="5.3511964"><ele>500.0</ele><time>2026-04-10T10:33:51.852Z</time></trkpt><trkpt lat="44.3318036" lon="5.3511311"><ele>500.0</ele><time>2026-04-10T10:33:52.852Z</time></trkpt><trkpt lat="44.3319878" lon="5.351061"><ele>500.0</ele><time>2026-04-10T10:33:53.849Z</time></trkpt><trkpt lat="44.3321598" lon="5.3509727"><ele>500.0</ele><time>2026-04-10T10:33:54.852Z</time></trkpt><trkpt lat="44.3323212" lon="5.3509249"><ele>500.0</ele><time>2026-04-10T10:33:55.86Z</time></trkpt><trkpt lat="44.3324589" lon="5.3508628"><ele>500.8</ele><time>2026-04-10T10:33:56.85Z</time></trkpt><trkpt lat="44.332579" lon="5.3507983"><ele>501.6</ele><time>2026-04-10T10:33:57.853Z</time></trkpt><trkpt lat="44.3326595" lon="5.3507068"><ele>502.4</ele><time>2026-04-10T10:33:58.854Z</time></trkpt><trkpt lat="44.3327104" lon="5.350575"><ele>503.2</ele><time>2026-04-10T10:33:59.854Z</time></trkpt><trkpt lat="44.3327247" lon="5.3504575"><ele>504.0</ele><time>2026-04-10T10:34:00.852Z</time></trkpt><trkpt lat="44.3327202" lon="5.350349"><ele>504.0</ele><time>2026-04-10T10:34:01.853Z</time></trkpt><trkpt lat="44.3327196" lon="5.3502451"><ele>504.0</ele><time>2026-04-10T10:34:02.852Z</time></trkpt><trkpt lat="44.3327462" lon="5.3501069"><ele>504.0</ele><time>2026-04-10T10:34:04.853Z</time></trkpt><trkpt lat="44.3327409" lon="5.3499073"><ele>504.0</ele><time>2026-04-10T10:34:06.85Z</time></trkpt><trkpt lat="44.3327307" lon="5.3497917"><ele>504.0</ele><time>2026-04-10T10:34:07.852Z</time></trkpt><trkpt lat="44.3326991" lon="5.3496132"><ele>504.25</ele><time>2026-04-10T10:34:08.857Z</time></trkpt><trkpt lat="44.3326627" lon="5.3494531"><ele>504.5</ele><time>2026-04-10T10:34:09.851Z</time></trkpt><trkpt lat="44.3326328" lon="5.3492812"><ele>504.75</ele><time>2026-04-10T10:34:10.851Z</time></trkpt><trkpt lat="44.332606" lon="5.3491031"><ele>505.0</ele><time>2026-04-10T10:34:11.852Z</time></trkpt><trkpt lat="44.3325717" lon="5.3489233"><ele>504.75</ele><time>2026-04-10T10:34:12.847Z</time></trkpt><trkpt lat="44.3325408" lon="5.3487471"><ele>504.5</ele><time>2026-04-10T10:34:13.854Z</time></trkpt><trkpt lat="44.3325022" lon="5.3485551"><ele>504.25</ele><time>2026-04-10T10:34:14.855Z</time></trkpt><trkpt lat="44.3324623" lon="5.3483586"><ele>504.0</ele><time>2026-04-10T10:34:15.852Z</time></trkpt><trkpt lat="44.3324201" lon="5.3481483"><ele>503.0</ele><time>2026-04-10T10:34:16.848Z</time></trkpt><trkpt lat="44.3323728" lon="5.3479347"><ele>502.0</ele><time>2026-04-10T10:34:17.854Z</time></trkpt><trkpt lat="44.332332" lon="5.3477161"><ele>501.0</ele><time>2026-04-10T10:34:18.85Z</time></trkpt><trkpt lat="44.3322942" lon="5.3474795"><ele>501.0</ele><time>2026-04-10T10:34:19.848Z</time></trkpt><trkpt lat="44.332266" lon="5.3472461"><ele>501.0</ele><time>2026-04-10T10:34:20.847Z</time></trkpt><trkpt lat="44.3322492" lon="5.3470144"><ele>501.0</ele><time>2026-04-10T10:34:21.852Z</time></trkpt><trkpt lat="44.3322337" lon="5.3467854"><ele>499.33333333333337</ele><time>2026-04-10T10:34:22.849Z</time></trkpt><trkpt lat="44.3322773" lon="5.3465776"><ele>497.6666666666667</ele><time>2026-04-10T10:34:23.849Z</time></trkpt><trkpt lat="44.3323752" lon="5.3463589"><ele>496.0</ele><time>2026-04-10T10:34:24.851Z</time></trkpt><trkpt lat="44.3324308" lon="5.346153"><ele>495.33333333333337</ele><time>2026-04-10T10:34:25.857Z</time></trkpt><trkpt lat="44.332458" lon="5.3459324"><ele>494.66666666666663</ele><time>2026-04-10T10:34:26.853Z</time></trkpt><trkpt lat="44.3324541" lon="5.3456964"><ele>494.0</ele><time>2026-04-10T10:34:27.852Z</time></trkpt><trkpt lat="44.3324371" lon="5.3454567"><ele>494.0</ele><time>2026-04-10T10:34:28.851Z</time></trkpt><trkpt lat="44.3324027" lon="5.3452243"><ele>494.0</ele><time>2026-04-10T10:34:29.85Z</time></trkpt><trkpt lat="44.3323697" lon="5.3449901"><ele>494.0</ele><time>2026-04-10T10:34:30.851Z</time></trkpt><trkpt lat="44.3323317" lon="5.3447493"><ele>493.0</ele><time>2026-04-10T10:34:31.852Z</time></trkpt><trkpt lat="44.3322819" lon="5.3445231"><ele>492.0</ele><time>2026-04-10T10:34:32.851Z</time></trkpt><trkpt lat="44.3322192" lon="5.3443188"><ele>491.0</ele><time>2026-04-10T10:34:33.852Z</time></trkpt><trkpt lat="44.3321264" lon="5.3441241"><ele>491.0</ele><time>2026-04-10T10:34:34.849Z</time></trkpt><trkpt lat="44.3320183" lon="5.3439447"><ele>491.0</ele><time>2026-04-10T10:34:35.848Z</time></trkpt><trkpt lat="44.3319099" lon="5.3437569"><ele>491.0</ele><time>2026-04-10T10:34:36.852Z</time></trkpt><trkpt lat="44.3318094" lon="5.3435559"><ele>492.3333333333333</ele><time>2026-04-10T10:34:37.847Z</time></trkpt><trkpt lat="44.3317197" lon="5.3433452"><ele>493.66666666666663</ele><time>2026-04-10T10:34:38.851Z</time></trkpt><trkpt lat="44.3316443" lon="5.3431255"><ele>495.0</ele><time>2026-04-10T10:34:39.851Z</time></trkpt><trkpt lat="44.3315681" lon="5.3429062"><ele>497.0</ele><time>2026-04-10T10:34:40.852Z</time></trkpt><trkpt lat="44.3314922" lon="5.3426822"><ele>499.0</ele><time>2026-04-10T10:34:41.852Z</time></trkpt><trkpt lat="44.3314132" lon="5.3424617"><ele>501.0</ele><time>2026-04-10T10:34:42.849Z</time></trkpt><trkpt lat="44.331332" lon="5.3422431"><ele>496.66666666666663</ele><time>2026-04-10T10:34:43.85Z</time></trkpt><trkpt lat="44.3312528" lon="5.3420296"><ele>492.3333333333333</ele><time>2026-04-10T10:34:44.852Z</time></trkpt><trkpt lat="44.3311674" lon="5.3418387"><ele>488.0</ele><time>2026-04-10T10:34:45.85Z</time></trkpt><trkpt lat="44.331081" lon="5.341631"><ele>488.0</ele><time>2026-04-10T10:34:46.855Z</time></trkpt><trkpt lat="44.3310056" lon="5.3414226"><ele>488.0</ele><time>2026-04-10T10:34:47.848Z</time></trkpt><trkpt lat="44.330951" lon="5.341198"><ele>488.0</ele><time>2026-04-10T10:34:48.848Z</time></trkpt><trkpt lat="44.3309159" lon="5.3409698"><ele>488.3333333333333</ele><time>2026-04-10T10:34:49.859Z</time></trkpt><trkpt lat="44.3308926" lon="5.3407332"><ele>488.66666666666663</ele><time>2026-04-10T10:34:50.853Z</time></trkpt><trkpt lat="44.3308888" lon="5.3404907"><ele>489.0</ele><time>2026-04-10T10:34:51.854Z</time></trkpt><trkpt lat="44.3308852" lon="5.3402436"><ele>488.0</ele><time>2026-04-10T10:34:52.852Z</time></trkpt><trkpt lat="44.3308849" lon="5.3399911"><ele>487.0</ele><time>2026-04-10T10:34:53.855Z</time></trkpt><trkpt lat="44.3308907" lon="5.3397413"><ele>486.0</ele><time>2026-04-10T10:34:54.854Z</time></trkpt><trkpt lat="44.3308878" lon="5.3394876"><ele>485.33333333333337</ele><time>2026-04-10T10:34:55.857Z</time></trkpt><trkpt lat="44.3308858" lon="5.339246"><ele>484.6666666666667</ele><time>2026-04-10T10:34:56.856Z</time></trkpt><trkpt lat="44.3308843" lon="5.3390126"><ele>484.0</ele><time>2026-04-10T10:34:57.849Z</time></trkpt><trkpt lat="44.330883" lon="5.3387879"><ele>483.33333333333337</ele><time>2026-04-10T10:34:58.849Z</time></trkpt><trkpt lat="44.3308799" lon="5.3385667"><ele>482.66666666666663</ele><time>2026-04-10T10:34:59.85Z</time></trkpt><trkpt lat="44.330882" lon="5.3383504"><ele>482.0</ele><time>2026-04-10T10:35:00.85Z</time></trkpt><trkpt lat="44.3308799" lon="5.33813"><ele>482.5</ele><time>2026-04-10T10:35:01.847Z</time></trkpt><trkpt lat="44.3308787" lon="5.3379145"><ele>483.0</ele><time>2026-04-10T10:35:02.854Z</time></trkpt><trkpt lat="44.3308762" lon="5.3377085"><ele>483.5</ele><time>2026-04-10T10:35:03.846Z</time></trkpt><trkpt lat="44.3308699" lon="5.3375169"><ele>484.0</ele><time>2026-04-10T10:35:04.851Z</time></trkpt><trkpt lat="44.3308669" lon="5.3373354"><ele>484.6</ele><time>2026-04-10T10:35:05.852Z</time></trkpt><trkpt lat="44.330861" lon="5.3371604"><ele>485.2</ele><time>2026-04-10T10:35:06.85Z</time></trkpt><trkpt lat="44.3308457" lon="5.3370086"><ele>485.80000000000007</ele><time>2026-04-10T10:35:07.85Z</time></trkpt><trkpt lat="44.3308248" lon="5.3368725"><ele>486.40000000000003</ele><time>2026-04-10T10:35:08.852Z</time></trkpt><trkpt lat="44.3308067" lon="5.3367377"><ele>487.0</ele><time>2026-04-10T10:35:09.85Z</time></trkpt><trkpt lat="44.3307783" lon="5.3365958"><ele>487.00000000000006</ele><time>2026-04-10T10:35:11.847Z</time></trkpt><trkpt lat="44.3307575" lon="5.3364944"><ele>487.0</ele><time>2026-04-10T10:35:13.848Z</time></trkpt><trkpt lat="44.3306966" lon="5.3365278"><ele>487.0</ele><time>2026-04-10T10:35:16.855Z</time></trkpt><trkpt lat="44.3307124" lon="5.336625"><ele>487.0</ele><time>2026-04-10T10:35:20.855Z</time></trkpt><trkpt lat="44.3307826" lon="5.336754"><ele>487.00000000000006</ele><time>2026-04-10T10:35:32.855Z</time></trkpt><trkpt lat="44.3307994" lon="5.3368497"><ele>487.0</ele><time>2026-04-10T10:35:33.852Z</time></trkpt><trkpt lat="44.3308184" lon="5.3369635"><ele>487.0</ele><time>2026-04-10T10:35:34.873Z</time></trkpt><trkpt lat="44.3308363" lon="5.3370888"><ele>487.00000000000006</ele><time>2026-04-10T10:35:35.856Z</time></trkpt><trkpt lat="44.3308495" lon="5.3372187"><ele>487.00000000000006</ele><time>2026-04-10T10:35:36.856Z</time></trkpt><trkpt lat="44.3308551" lon="5.3373519"><ele>487.0</ele><time>2026-04-10T10:35:37.858Z</time></trkpt><trkpt lat="44.3308521" lon="5.3374886"><ele>487.0</ele><time>2026-04-10T10:35:38.857Z</time></trkpt><trkpt lat="44.3308535" lon="5.3376313"><ele>486.25</ele><time>2026-04-10T10:35:39.853Z</time></trkpt><trkpt lat="44.3308529" lon="5.3377897"><ele>485.5</ele><time>2026-04-10T10:35:40.858Z</time></trkpt><trkpt lat="44.3308477" lon="5.3379601"><ele>484.75</ele><time>2026-04-10T10:35:41.854Z</time></trkpt><trkpt lat="44.3308599" lon="5.3381497"><ele>484.0</ele><time>2026-04-10T10:35:42.853Z</time></trkpt><trkpt lat="44.3308629" lon="5.3383377"><ele>484.0</ele><time>2026-04-10T10:35:43.849Z</time></trkpt><trkpt lat="44.3308696" lon="5.3385358"><ele>484.0</ele><time>2026-04-10T10:35:44.855Z</time></trkpt><trkpt lat="44.3308619" lon="5.3387351"><ele>484.0</ele><time>2026-04-10T10:35:45.852Z</time></trkpt><trkpt lat="44.3308553" lon="5.3389433"><ele>484.0</ele><time>2026-04-10T10:35:46.853Z</time></trkpt><trkpt lat="44.3308514" lon="5.339158"><ele>484.0</ele><time>2026-04-10T10:35:47.847Z</time></trkpt><trkpt lat="44.3308565" lon="5.3393649"><ele>484.0</ele><time>2026-04-10T10:35:48.847Z</time></trkpt><trkpt lat="44.3308529" lon="5.3395686"><ele>484.0</ele><time>2026-04-10T10:35:49.847Z</time></trkpt><trkpt lat="44.3308528" lon="5.3397579"><ele>484.0</ele><time>2026-04-10T10:35:50.848Z</time></trkpt><trkpt lat="44.3308515" lon="5.3399353"><ele>484.5</ele><time>2026-04-10T10:35:51.851Z</time></trkpt><trkpt lat="44.3308534" lon="5.3401039"><ele>485.0</ele><time>2026-04-10T10:35:52.851Z</time></trkpt><trkpt lat="44.3308542" lon="5.3402754"><ele>485.5</ele><time>2026-04-10T10:35:53.852Z</time></trkpt><trkpt lat="44.33085" lon="5.3404358"><ele>486.0</ele><time>2026-04-10T10:35:54.85Z</time></trkpt><trkpt lat="44.3308615" lon="5.3405906"><ele>486.6</ele><time>2026-04-10T10:35:55.856Z</time></trkpt><trkpt lat="44.3308663" lon="5.3407319"><ele>487.20000000000005</ele><time>2026-04-10T10:35:56.858Z</time></trkpt><trkpt lat="44.3308748" lon="5.3408639"><ele>487.79999999999995</ele><time>2026-04-10T10:35:57.852Z</time></trkpt><trkpt lat="44.3308839" lon="5.3409892"><ele>488.4</ele><time>2026-04-10T10:35:58.846Z</time></trkpt><trkpt lat="44.3308961" lon="5.341089"><ele>489.0</ele><time>2026-04-10T10:35:59.848Z</time></trkpt><trkpt lat="44.3309179" lon="5.3412304"><ele>489.0</ele><time>2026-04-10T10:36:01.846Z</time></trkpt><trkpt lat="44.3308995" lon="5.3413563"><ele>489.0</ele><time>2026-04-10T10:36:04.857Z</time></trkpt><trkpt lat="44.3308418" lon="5.3414097"><ele>489.0</ele><time>2026-04-10T10:36:07.848Z</time></trkpt><trkpt lat="44.3307651" lon="5.3414707"><ele>489.0</ele><time>2026-04-10T10:36:10.849Z</time></trkpt><trkpt lat="44.3307048" lon="5.3414994"><ele>489.0</ele><time>2026-04-10T10:36:13.849Z</time></trkpt><trkpt lat="44.3306313" lon="5.341561"><ele>489.0</ele><time>2026-04-10T10:36:16.852Z</time></trkpt><trkpt lat="44.3305334" lon="5.3416258"><ele>488.2</ele><time>2026-04-10T10:36:18.853Z</time></trkpt><trkpt lat="44.330432" lon="5.3416741"><ele>487.4</ele><time>2026-04-10T10:36:20.85Z</time></trkpt><trkpt lat="44.3303333" lon="5.3417145"><ele>486.6</ele><time>2026-04-10T10:36:22.85Z</time></trkpt><trkpt lat="44.3302053" lon="5.3417214"><ele>485.8</ele><time>2026-04-10T10:36:24.86Z</time></trkpt><trkpt lat="44.3301243" lon="5.3416897"><ele>485.0</ele><time>2026-04-10T10:36:25.851Z</time></trkpt><trkpt lat="44.330052" lon="5.3416316"><ele>485.0</ele><time>2026-04-10T10:36:26.857Z</time></trkpt><trkpt lat="44.329993" lon="5.3415422"><ele>485.0</ele><time>2026-04-10T10:36:27.857Z</time></trkpt><trkpt lat="44.3299418" lon="5.3414315"><ele>485.0</ele><time>2026-04-10T10:36:28.851Z</time></trkpt><trkpt lat="44.3298898" lon="5.3413183"><ele>485.0</ele><time>2026-04-10T10:36:29.85Z</time></trkpt><trkpt lat="44.3298342" lon="5.3412012"><ele>485.0</ele><time>2026-04-10T10:36:30.857Z</time></trkpt><trkpt lat="44.3297749" lon="5.3410672"><ele>485.75</ele><time>2026-04-10T10:36:31.848Z</time></trkpt><trkpt lat="44.3297175" lon="5.3409198"><ele>486.5</ele><time>2026-04-10T10:36:32.854Z</time></trkpt><trkpt lat="44.3296582" lon="5.3407522"><ele>487.25</ele><time>2026-04-10T10:36:33.849Z</time></trkpt><trkpt lat="44.3296052" lon="5.3405642"><ele>488.0</ele><time>2026-04-10T10:36:34.851Z</time></trkpt><trkpt lat="44.3295519" lon="5.3403756"><ele>488.3333333333333</ele><time>2026-04-10T10:36:35.855Z</time></trkpt><trkpt lat="44.3294971" lon="5.3401831"><ele>488.66666666666663</ele><time>2026-04-10T10:36:36.852Z</time></trkpt><trkpt lat="44.3294374" lon="5.3399844"><ele>489.0</ele><time>2026-04-10T10:36:37.854Z</time></trkpt><trkpt lat="44.3293758" lon="5.3397808"><ele>487.66666666666663</ele><time>2026-04-10T10:36:38.851Z</time></trkpt><trkpt lat="44.3293146" lon="5.3395704"><ele>486.3333333333333</ele><time>2026-04-10T10:36:39.849Z</time></trkpt><trkpt lat="44.3292523" lon="5.3393469"><ele>485.0</ele><time>2026-04-10T10:36:40.849Z</time></trkpt><trkpt lat="44.3291962" lon="5.3391222"><ele>485.0</ele><time>2026-04-10T10:36:41.855Z</time></trkpt><trkpt lat="44.3291328" lon="5.3388897"><ele>485.0</ele><time>2026-04-10T10:36:42.849Z</time></trkpt><trkpt lat="44.3290738" lon="5.338671"><ele>485.0</ele><time>2026-04-10T10:36:43.853Z</time></trkpt><trkpt lat="44.3290115" lon="5.3384688"><ele>484.3333333333333</ele><time>2026-04-10T10:36:44.849Z</time></trkpt><trkpt lat="44.3289568" lon="5.3382647"><ele>483.66666666666663</ele><time>2026-04-10T10:36:45.856Z</time></trkpt><trkpt lat="44.3289055" lon="5.3380556"><ele>483.0</ele><time>2026-04-10T10:36:46.853Z</time></trkpt><trkpt lat="44.3288485" lon="5.3378405"><ele>483.33333333333337</ele><time>2026-04-10T10:36:47.849Z</time></trkpt><trkpt lat="44.3287902" lon="5.3376179"><ele>483.6666666666667</ele><time>2026-04-10T10:36:48.849Z</time></trkpt><trkpt lat="44.328738" lon="5.3373893"><ele>484.0</ele><time>2026-04-10T10:36:49.849Z</time></trkpt><trkpt lat="44.328688" lon="5.3371575"><ele>484.0</ele><time>2026-04-10T10:36:50.847Z</time></trkpt><trkpt lat="44.3286331" lon="5.3369162"><ele>484.0</ele><time>2026-04-10T10:36:51.852Z</time></trkpt><trkpt lat="44.3285735" lon="5.3366695"><ele>484.0</ele><time>2026-04-10T10:36:52.852Z</time></trkpt><trkpt lat="44.3285141" lon="5.3364208"><ele>482.6666666666667</ele><time>2026-04-10T10:36:53.854Z</time></trkpt><trkpt lat="44.3284616" lon="5.3361847"><ele>481.33333333333337</ele><time>2026-04-10T10:36:54.85Z</time></trkpt><trkpt lat="44.3284043" lon="5.335958"><ele>480.0</ele><time>2026-04-10T10:36:55.851Z</time></trkpt><trkpt lat="44.32834" lon="5.3357489"><ele>479.0</ele><time>2026-04-10T10:36:56.852Z</time></trkpt><trkpt lat="44.3282724" lon="5.3355395"><ele>478.0</ele><time>2026-04-10T10:36:57.849Z</time></trkpt><trkpt lat="44.3281812" lon="5.3353412"><ele>477.0</ele><time>2026-04-10T10:36:58.856Z</time></trkpt><trkpt lat="44.3280691" lon="5.3351468"><ele>476.33333333333337</ele><time>2026-04-10T10:36:59.857Z</time></trkpt><trkpt lat="44.3279643" lon="5.3349422"><ele>475.6666666666667</ele><time>2026-04-10T10:37:00.856Z</time></trkpt><trkpt lat="44.3278531" lon="5.3347423"><ele>475.0</ele><time>2026-04-10T10:37:01.852Z</time></trkpt><trkpt lat="44.3277428" lon="5.3345379"><ele>475.0</ele><time>2026-04-10T10:37:02.851Z</time></trkpt><trkpt lat="44.3276429" lon="5.3343343"><ele>475.0</ele><time>2026-04-10T10:37:03.852Z</time></trkpt><trkpt lat="44.327536" lon="5.3341282"><ele>475.0</ele><time>2026-04-10T10:37:04.858Z</time></trkpt><trkpt lat="44.3274315" lon="5.3339293"><ele>474.6666666666667</ele><time>2026-04-10T10:37:05.855Z</time></trkpt><trkpt lat="44.3272857" lon="5.3337871"><ele>474.33333333333337</ele><time>2026-04-10T10:37:06.86Z</time></trkpt><trkpt lat="44.327098" lon="5.3336539"><ele>474.0</ele><time>2026-04-10T10:37:07.855Z</time></trkpt><trkpt lat="44.3269247" lon="5.3335358"><ele>476.0</ele><time>2026-04-10T10:37:08.855Z</time></trkpt><trkpt lat="44.3267588" lon="5.3334196"><ele>478.0</ele><time>2026-04-10T10:37:09.849Z</time></trkpt><trkpt lat="44.326579" lon="5.3333074"><ele>480.0</ele><time>2026-04-10T10:37:10.852Z</time></trkpt><trkpt lat="44.3264265" lon="5.3331877"><ele>480.66666666666663</ele><time>2026-04-10T10:37:11.851Z</time></trkpt><trkpt lat="44.326247" lon="5.3330649"><ele>481.3333333333333</ele><time>2026-04-10T10:37:12.854Z</time></trkpt><trkpt lat="44.3260781" lon="5.3329441"><ele>482.0</ele><time>2026-04-10T10:37:13.857Z</time></trkpt><trkpt lat="44.3259054" lon="5.3328244"><ele>482.0</ele><time>2026-04-10T10:37:14.859Z</time></trkpt><trkpt lat="44.3257339" lon="5.3327083"><ele>482.0</ele><time>2026-04-10T10:37:15.857Z</time></trkpt><trkpt lat="44.3255661" lon="5.3325835"><ele>482.0</ele><time>2026-04-10T10:37:16.849Z</time></trkpt><trkpt lat="44.3254072" lon="5.3324673"><ele>483.0</ele><time>2026-04-10T10:37:17.848Z</time></trkpt><trkpt lat="44.3252577" lon="5.3323611"><ele>484.0</ele><time>2026-04-10T10:37:18.854Z</time></trkpt><trkpt lat="44.325115" lon="5.332258"><ele>485.0</ele><time>2026-04-10T10:37:19.846Z</time></trkpt><trkpt lat="44.3249807" lon="5.3321642"><ele>485.0</ele><time>2026-04-10T10:37:20.852Z</time></trkpt><trkpt lat="44.324857" lon="5.3320728"><ele>485.0</ele><time>2026-04-10T10:37:21.851Z</time></trkpt><trkpt lat="44.3247449" lon="5.3319855"><ele>485.0</ele><time>2026-04-10T10:37:22.852Z</time></trkpt><trkpt lat="44.3246488" lon="5.3318971"><ele>485.0</ele><time>2026-04-10T10:37:23.852Z</time></trkpt><trkpt lat="44.3245679" lon="5.3317926"><ele>486.25</ele><time>2026-04-10T10:37:24.851Z</time></trkpt><trkpt lat="44.3245031" lon="5.3316479"><ele>487.5</ele><time>2026-04-10T10:37:25.847Z</time></trkpt><trkpt lat="44.3244626" lon="5.3314767"><ele>488.75</ele><time>2026-04-10T10:37:26.849Z</time></trkpt><trkpt lat="44.3244579" lon="5.3312836"><ele>490.0</ele><time>2026-04-10T10:37:27.852Z</time></trkpt><trkpt lat="44.3244917" lon="5.3310824"><ele>491.33333333333337</ele><time>2026-04-10T10:37:28.853Z</time></trkpt><trkpt lat="44.3245425" lon="5.3308724"><ele>492.66666666666663</ele><time>2026-04-10T10:37:29.852Z</time></trkpt><trkpt lat="44.3245894" lon="5.3306547"><ele>494.0</ele><time>2026-04-10T10:37:30.851Z</time></trkpt><trkpt lat="44.3246026" lon="5.330433"><ele>494.3333333333333</ele><time>2026-04-10T10:37:31.855Z</time></trkpt><trkpt lat="44.3246012" lon="5.3302106"><ele>494.66666666666663</ele><time>2026-04-10T10:37:32.848Z</time></trkpt><trkpt lat="44.3245308" lon="5.3299675"><ele>495.0</ele><time>2026-04-10T10:37:33.85Z</time></trkpt><trkpt lat="44.3244712" lon="5.3297227"><ele>495.0</ele><time>2026-04-10T10:37:34.851Z</time></trkpt><trkpt lat="44.3244128" lon="5.3294613"><ele>495.0</ele><time>2026-04-10T10:37:35.849Z</time></trkpt><trkpt lat="44.3243486" lon="5.3291926"><ele>495.0</ele><time>2026-04-10T10:37:36.849Z</time></trkpt><trkpt lat="44.3242812" lon="5.3289258"><ele>494.66666666666663</ele><time>2026-04-10T10:37:37.848Z</time></trkpt><trkpt lat="44.3242198" lon="5.3286584"><ele>494.3333333333333</ele><time>2026-04-10T10:37:38.849Z</time></trkpt><trkpt lat="44.3241613" lon="5.3284076"><ele>494.0</ele><time>2026-04-10T10:37:39.852Z</time></trkpt><trkpt lat="44.3241153" lon="5.3281633"><ele>494.0</ele><time>2026-04-10T10:37:40.85Z</time></trkpt><trkpt lat="44.3240589" lon="5.3279374"><ele>494.0</ele><time>2026-04-10T10:37:41.847Z</time></trkpt><trkpt lat="44.3239785" lon="5.32773"><ele>494.0</ele><time>2026-04-10T10:37:42.851Z</time></trkpt><trkpt lat="44.3238822" lon="5.3275497"><ele>497.3333333333333</ele><time>2026-04-10T10:37:43.85Z</time></trkpt><trkpt lat="44.3237594" lon="5.3273885"><ele>500.66666666666663</ele><time>2026-04-10T10:37:44.85Z</time></trkpt><trkpt lat="44.3236361" lon="5.327233"><ele>504.0</ele><time>2026-04-10T10:37:45.848Z</time></trkpt><trkpt lat="44.323523" lon="5.3270671"><ele>504.0</ele><time>2026-04-10T10:37:46.854Z</time></trkpt><trkpt lat="44.323439" lon="5.3268611"><ele>504.0</ele><time>2026-04-10T10:37:47.848Z</time></trkpt><trkpt lat="44.3233847" lon="5.3266371"><ele>504.0</ele><time>2026-04-10T10:37:48.847Z</time></trkpt><trkpt lat="44.3233554" lon="5.3264046"><ele>505.0</ele><time>2026-04-10T10:37:49.854Z</time></trkpt><trkpt lat="44.3233516" lon="5.3261819"><ele>506.0</ele><time>2026-04-10T10:37:50.851Z</time></trkpt><trkpt lat="44.3234253" lon="5.325937"><ele>507.0</ele><time>2026-04-10T10:37:51.853Z</time></trkpt><trkpt lat="44.3234608" lon="5.3257128"><ele>507.5</ele><time>2026-04-10T10:37:52.85Z</time></trkpt><trkpt lat="44.323458" lon="5.3255048"><ele>508.0</ele><time>2026-04-10T10:37:53.849Z</time></trkpt><trkpt lat="44.3234358" lon="5.3253119"><ele>508.5</ele><time>2026-04-10T10:37:54.851Z</time></trkpt><trkpt lat="44.3234145" lon="5.3251251"><ele>509.0</ele><time>2026-04-10T10:37:55.849Z</time></trkpt><trkpt lat="44.3233839" lon="5.3249579"><ele>509.0</ele><time>2026-04-10T10:37:56.851Z</time></trkpt><trkpt lat="44.3233621" lon="5.3248078"><ele>509.0</ele><time>2026-04-10T10:37:57.848Z</time></trkpt><trkpt lat="44.3233643" lon="5.3246811"><ele>509.0</ele><time>2026-04-10T10:37:58.851Z</time></trkpt><trkpt lat="44.3234008" lon="5.3245815"><ele>509.0</ele><time>2026-04-10T10:37:59.849Z</time></trkpt><trkpt lat="44.3234602" lon="5.3245078"><ele>509.0</ele><time>2026-04-10T10:38:00.85Z</time></trkpt><trkpt lat="44.3235647" lon="5.3244755"><ele>509.0</ele><time>2026-04-10T10:38:01.85Z</time></trkpt><trkpt lat="44.3236761" lon="5.3244212"><ele>509.0</ele><time>2026-04-10T10:38:02.854Z</time></trkpt><trkpt lat="44.3237872" lon="5.3243372"><ele>509.0</ele><time>2026-04-10T10:38:03.861Z</time></trkpt><trkpt lat="44.3238833" lon="5.3242068"><ele>509.0</ele><time>2026-04-10T10:38:04.855Z</time></trkpt><trkpt lat="44.3239713" lon="5.3240503"><ele>506.5</ele><time>2026-04-10T10:38:05.849Z</time></trkpt><trkpt lat="44.3240461" lon="5.3238858"><ele>504.0</ele><time>2026-04-10T10:38:06.85Z</time></trkpt><trkpt lat="44.3241309" lon="5.3237099"><ele>501.5</ele><time>2026-04-10T10:38:07.85Z</time></trkpt><trkpt lat="44.3242217" lon="5.323538"><ele>499.0</ele><time>2026-04-10T10:38:08.848Z</time></trkpt><trkpt lat="44.3243474" lon="5.3233923"><ele>499.0</ele><time>2026-04-10T10:38:09.851Z</time></trkpt><trkpt lat="44.32448" lon="5.3232742"><ele>499.0</ele><time>2026-04-10T10:38:10.848Z</time></trkpt><trkpt lat="44.324627" lon="5.3231758"><ele>499.0</ele><time>2026-04-10T10:38:11.852Z</time></trkpt><trkpt lat="44.3247732" lon="5.3230843"><ele>495.33333333333337</ele><time>2026-04-10T10:38:12.852Z</time></trkpt><trkpt lat="44.3249188" lon="5.3229907"><ele>491.66666666666663</ele><time>2026-04-10T10:38:13.851Z</time></trkpt><trkpt lat="44.3250619" lon="5.3228896"><ele>488.0</ele><time>2026-04-10T10:38:14.852Z</time></trkpt><trkpt lat="44.3252026" lon="5.3227842"><ele>488.0</ele><time>2026-04-10T10:38:15.848Z</time></trkpt><trkpt lat="44.3253381" lon="5.3226807"><ele>488.0</ele><time>2026-04-10T10:38:16.855Z</time></trkpt><trkpt lat="44.3254779" lon="5.3225778"><ele>488.0</ele><time>2026-04-10T10:38:17.85Z</time></trkpt><trkpt lat="44.3256101" lon="5.322471"><ele>487.59999999999997</ele><time>2026-04-10T10:38:18.847Z</time></trkpt><trkpt lat="44.325729" lon="5.3223754"><ele>487.19999999999993</ele><time>2026-04-10T10:38:19.846Z</time></trkpt><trkpt lat="44.3258311" lon="5.3222935"><ele>486.8</ele><time>2026-04-10T10:38:20.852Z</time></trkpt><trkpt lat="44.3259129" lon="5.3222115"><ele>486.4</ele><time>2026-04-10T10:38:21.85Z</time></trkpt><trkpt lat="44.3259689" lon="5.3221276"><ele>486.0</ele><time>2026-04-10T10:38:22.848Z</time></trkpt><trkpt lat="44.3259981" lon="5.3220271"><ele>485.8</ele><time>2026-04-10T10:38:23.854Z</time></trkpt><trkpt lat="44.3259996" lon="5.3219218"><ele>485.6</ele><time>2026-04-10T10:38:24.851Z</time></trkpt><trkpt lat="44.3259695" lon="5.3218063"><ele>485.4</ele><time>2026-04-10T10:38:25.85Z</time></trkpt><trkpt lat="44.3259117" lon="5.3216693"><ele>485.2</ele><time>2026-04-10T10:38:26.849Z</time></trkpt><trkpt lat="44.3258402" lon="5.32151"><ele>485.0</ele><time>2026-04-10T10:38:27.848Z</time></trkpt><trkpt lat="44.3257589" lon="5.3213309"><ele>485.0</ele><time>2026-04-10T10:38:28.848Z</time></trkpt><trkpt lat="44.3256752" lon="5.3211467"><ele>485.0</ele><time>2026-04-10T10:38:29.853Z</time></trkpt><trkpt lat="44.325587" lon="5.3209636"><ele>485.0</ele><time>2026-04-10T10:38:30.852Z</time></trkpt><trkpt lat="44.3254974" lon="5.3207797"><ele>490.0</ele><time>2026-04-10T10:38:31.848Z</time></trkpt><trkpt lat="44.3254064" lon="5.3205952"><ele>495.0</ele><time>2026-04-10T10:38:32.853Z</time></trkpt><trkpt lat="44.3253201" lon="5.3204047"><ele>500.0</ele><time>2026-04-10T10:38:33.846Z</time></trkpt><trkpt lat="44.3252318" lon="5.3202119"><ele>500.0</ele><time>2026-04-10T10:38:34.851Z</time></trkpt><trkpt lat="44.3251421" lon="5.3200223"><ele>500.0</ele><time>2026-04-10T10:38:35.848Z</time></trkpt><trkpt lat="44.3250532" lon="5.3198239"><ele>500.0</ele><time>2026-04-10T10:38:36.849Z</time></trkpt><trkpt lat="44.3249602" lon="5.3196298"><ele>500.0</ele><time>2026-04-10T10:38:37.848Z</time></trkpt><trkpt lat="44.324867" lon="5.3194359"><ele>500.0</ele><time>2026-04-10T10:38:38.848Z</time></trkpt><trkpt lat="44.3247772" lon="5.3192363"><ele>500.0</ele><time>2026-04-10T10:38:39.846Z</time></trkpt><trkpt lat="44.3246787" lon="5.3190413"><ele>505.0</ele><time>2026-04-10T10:38:40.847Z</time></trkpt><trkpt lat="44.3245855" lon="5.3188436"><ele>510.0</ele><time>2026-04-10T10:38:41.852Z</time></trkpt><trkpt lat="44.3244931" lon="5.3186452"><ele>515.0</ele><time>2026-04-10T10:38:42.852Z</time></trkpt><trkpt lat="44.3243916" lon="5.3184534"><ele>515.0</ele><time>2026-04-10T10:38:43.847Z</time></trkpt><trkpt lat="44.3242828" lon="5.3182675"><ele>515.0</ele><time>2026-04-10T10:38:44.851Z</time></trkpt><trkpt lat="44.3241672" lon="5.3180816"><ele>515.0</ele><time>2026-04-10T10:38:45.851Z</time></trkpt><trkpt lat="44.3240455" lon="5.3178974"><ele>514.0</ele><time>2026-04-10T10:38:46.851Z</time></trkpt><trkpt lat="44.3239375" lon="5.317704"><ele>513.0</ele><time>2026-04-10T10:38:47.847Z</time></trkpt><trkpt lat="44.3238306" lon="5.3175051"><ele>512.0</ele><time>2026-04-10T10:38:48.851Z</time></trkpt><trkpt lat="44.323737" lon="5.3173043"><ele>515.75</ele><time>2026-04-10T10:38:49.853Z</time></trkpt><trkpt lat="44.3236589" lon="5.3171195"><ele>519.5</ele><time>2026-04-10T10:38:50.853Z</time></trkpt><trkpt lat="44.3235986" lon="5.3169455"><ele>523.25</ele><time>2026-04-10T10:38:51.848Z</time></trkpt><trkpt lat="44.3235527" lon="5.3167892"><ele>527.0</ele><time>2026-04-10T10:38:52.848Z</time></trkpt><trkpt lat="44.323522" lon="5.316646"><ele>527.0</ele><time>2026-04-10T10:38:53.85Z</time></trkpt><trkpt lat="44.3234926" lon="5.3165157"><ele>527.0</ele><time>2026-04-10T10:38:54.85Z</time></trkpt><trkpt lat="44.3234615" lon="5.3163879"><ele>527.0</ele><time>2026-04-10T10:38:55.851Z</time></trkpt><trkpt lat="44.3234234" lon="5.3162626"><ele>527.0</ele><time>2026-04-10T10:38:56.853Z</time></trkpt><trkpt lat="44.3233815" lon="5.3161334"><ele>527.0</ele><time>2026-04-10T10:38:57.848Z</time></trkpt><trkpt lat="44.3233349" lon="5.3160117"><ele>526.6666666666666</ele><time>2026-04-10T10:38:58.853Z</time></trkpt><trkpt lat="44.3232828" lon="5.3158997"><ele>526.3333333333333</ele><time>2026-04-10T10:38:59.854Z</time></trkpt><trkpt lat="44.3232367" lon="5.3158057"><ele>526.0</ele><time>2026-04-10T10:39:00.852Z</time></trkpt><trkpt lat="44.3231808" lon="5.3157247"><ele>525.6666666666666</ele><time>2026-04-10T10:39:01.858Z</time></trkpt><trkpt lat="44.3231267" lon="5.315645"><ele>525.3333333333334</ele><time>2026-04-10T10:39:02.845Z</time></trkpt><trkpt lat="44.3230687" lon="5.3155626"><ele>525.0</ele><time>2026-04-10T10:39:03.848Z</time></trkpt><trkpt lat="44.3230118" lon="5.3154827"><ele>526.1666666666666</ele><time>2026-04-10T10:39:04.846Z</time></trkpt><trkpt lat="44.322954" lon="5.3154091"><ele>527.3333333333334</ele><time>2026-04-10T10:39:05.851Z</time></trkpt><trkpt lat="44.3229054" lon="5.3153441"><ele>528.5</ele><time>2026-04-10T10:39:06.853Z</time></trkpt><trkpt lat="44.3228327" lon="5.3152523"><ele>529.6666666666667</ele><time>2026-04-10T10:39:08.848Z</time></trkpt><trkpt lat="44.3227726" lon="5.3151801"><ele>530.8333333333334</ele><time>2026-04-10T10:39:10.849Z</time></trkpt><trkpt lat="44.3227174" lon="5.3151231"><ele>532.0</ele><time>2026-04-10T10:39:12.848Z</time></trkpt><trkpt lat="44.3226433" lon="5.3150529"><ele>532.0</ele><time>2026-04-10T10:39:14.847Z</time></trkpt><trkpt lat="44.3225825" lon="5.3149509"><ele>532.0</ele><time>2026-04-10T10:39:16.847Z</time></trkpt><trkpt lat="44.3224948" lon="5.3148339"><ele>532.0</ele><time>2026-04-10T10:39:18.847Z</time></trkpt><trkpt lat="44.3224169" lon="5.3147436"><ele>532.0</ele><time>2026-04-10T10:39:20.846Z</time></trkpt><trkpt lat="44.3223546" lon="5.3146911"><ele>532.0</ele><time>2026-04-10T10:39:22.849Z</time></trkpt><trkpt lat="44.3222816" lon="5.314639"><ele>531.8333333333334</ele><time>2026-04-10T10:39:25.847Z</time></trkpt><trkpt lat="44.3222208" lon="5.3146129"><ele>531.6666666666667</ele><time>2026-04-10T10:39:27.849Z</time></trkpt><trkpt lat="44.3221217" lon="5.3145421"><ele>531.5</ele><time>2026-04-10T10:39:29.852Z</time></trkpt><trkpt lat="44.3220584" lon="5.3144781"><ele>531.3333333333334</ele><time>2026-04-10T10:39:30.846Z</time></trkpt><trkpt lat="44.3219988" lon="5.3144058"><ele>531.1666666666666</ele><time>2026-04-10T10:39:31.85Z</time></trkpt><trkpt lat="44.3219506" lon="5.3143422"><ele>531.0</ele><time>2026-04-10T10:39:32.847Z</time></trkpt><trkpt lat="44.3218871" lon="5.3142321"><ele>531.0</ele><time>2026-04-10T10:39:34.848Z</time></trkpt><trkpt lat="44.3218402" lon="5.31416"><ele>531.0</ele><time>2026-04-10T10:39:36.849Z</time></trkpt><trkpt lat="44.3218081" lon="5.3140481"><ele>531.0</ele><time>2026-04-10T10:39:38.852Z</time></trkpt><trkpt lat="44.3217929" lon="5.3139578"><ele>531.0</ele><time>2026-04-10T10:39:39.846Z</time></trkpt><trkpt lat="44.3217772" lon="5.3138495"><ele>531.0</ele><time>2026-04-10T10:39:40.853Z</time></trkpt><trkpt lat="44.3217551" lon="5.3137354"><ele>531.0</ele><time>2026-04-10T10:39:41.852Z</time></trkpt><trkpt lat="44.3217235" lon="5.3136183"><ele>530.4</ele><time>2026-04-10T10:39:42.85Z</time></trkpt><trkpt lat="44.3216872" lon="5.3135012"><ele>529.8</ele><time>2026-04-10T10:39:43.849Z</time></trkpt><trkpt lat="44.3216462" lon="5.3133714"><ele>529.1999999999999</ele><time>2026-04-10T10:39:44.847Z</time></trkpt><trkpt lat="44.3215928" lon="5.3132443"><ele>528.6</ele><time>2026-04-10T10:39:45.848Z</time></trkpt><trkpt lat="44.3215278" lon="5.3131173"><ele>528.0</ele><time>2026-04-10T10:39:46.849Z</time></trkpt><trkpt lat="44.3214593" lon="5.3129736"><ele>530.0</ele><time>2026-04-10T10:39:47.846Z</time></trkpt><trkpt lat="44.3213873" lon="5.3128187"><ele>532.0</ele><time>2026-04-10T10:39:48.848Z</time></trkpt><trkpt lat="44.3213094" lon="5.3126757"><ele>534.0</ele><time>2026-04-10T10:39:49.846Z</time></trkpt><trkpt lat="44.3212219" lon="5.3125264"><ele>536.0</ele><time>2026-04-10T10:39:50.855Z</time></trkpt><trkpt lat="44.3211294" lon="5.3123848"><ele>536.0</ele><time>2026-04-10T10:39:51.851Z</time></trkpt><trkpt lat="44.3210311" lon="5.3122432"><ele>536.0</ele><time>2026-04-10T10:39:52.847Z</time></trkpt><trkpt lat="44.320933" lon="5.3120895"><ele>536.0</ele><time>2026-04-10T10:39:53.85Z</time></trkpt><trkpt lat="44.3208338" lon="5.3119236"><ele>536.0</ele><time>2026-04-10T10:39:54.863Z</time></trkpt><trkpt lat="44.3207374" lon="5.311749"><ele>536.3333333333333</ele><time>2026-04-10T10:39:55.85Z</time></trkpt><trkpt lat="44.3206385" lon="5.3115672"><ele>536.6666666666666</ele><time>2026-04-10T10:39:56.849Z</time></trkpt><trkpt lat="44.3205509" lon="5.3113617"><ele>537.0</ele><time>2026-04-10T10:39:57.848Z</time></trkpt><trkpt lat="44.3204665" lon="5.3111526"><ele>537.0</ele><time>2026-04-10T10:39:58.848Z</time></trkpt><trkpt lat="44.3203585" lon="5.3109619"><ele>537.0</ele><time>2026-04-10T10:39:59.851Z</time></trkpt><trkpt lat="44.3202308" lon="5.3107984"><ele>537.0</ele><time>2026-04-10T10:40:00.856Z</time></trkpt><trkpt lat="44.3201089" lon="5.3106398"><ele>535.75</ele><time>2026-04-10T10:40:01.854Z</time></trkpt><trkpt lat="44.3199867" lon="5.3105632"><ele>534.5</ele><time>2026-04-10T10:40:02.849Z</time></trkpt><trkpt lat="44.3198497" lon="5.3104814"><ele>533.25</ele><time>2026-04-10T10:40:03.847Z</time></trkpt><trkpt lat="44.3197047" lon="5.3104252"><ele>532.0</ele><time>2026-04-10T10:40:04.848Z</time></trkpt><trkpt lat="44.3195647" lon="5.3103675"><ele>536.0</ele><time>2026-04-10T10:40:05.855Z</time></trkpt><trkpt lat="44.3194373" lon="5.3102624"><ele>540.0</ele><time>2026-04-10T10:40:06.851Z</time></trkpt><trkpt lat="44.3193139" lon="5.3101179"><ele>544.0</ele><time>2026-04-10T10:40:07.846Z</time></trkpt><trkpt lat="44.3191859" lon="5.3099583"><ele>544.0</ele><time>2026-04-10T10:40:08.851Z</time></trkpt><trkpt lat="44.3190679" lon="5.3097882"><ele>544.0</ele><time>2026-04-10T10:40:09.851Z</time></trkpt><trkpt lat="44.3189615" lon="5.3096227"><ele>544.0</ele><time>2026-04-10T10:40:10.847Z</time></trkpt><trkpt lat="44.3188718" lon="5.3094627"><ele>547.25</ele><time>2026-04-10T10:40:11.848Z</time></trkpt><trkpt lat="44.3187979" lon="5.3092912"><ele>550.5</ele><time>2026-04-10T10:40:12.854Z</time></trkpt><trkpt lat="44.3187455" lon="5.309109"><ele>553.75</ele><time>2026-04-10T10:40:13.852Z</time></trkpt><trkpt lat="44.3187443" lon="5.3089071"><ele>557.0</ele><time>2026-04-10T10:40:14.855Z</time></trkpt><trkpt lat="44.3187552" lon="5.3086968"><ele>557.0</ele><time>2026-04-10T10:40:15.849Z</time></trkpt><trkpt lat="44.3187743" lon="5.3084691"><ele>557.0</ele><time>2026-04-10T10:40:16.849Z</time></trkpt><trkpt lat="44.3187888" lon="5.3082321"><ele>557.0</ele><time>2026-04-10T10:40:17.845Z</time></trkpt><trkpt lat="44.3187998" lon="5.3080186"><ele>556.25</ele><time>2026-04-10T10:40:18.847Z</time></trkpt><trkpt lat="44.318818" lon="5.3078236"><ele>555.5</ele><time>2026-04-10T10:40:19.852Z</time></trkpt><trkpt lat="44.3187914" lon="5.3076557"><ele>554.75</ele><time>2026-04-10T10:40:20.848Z</time></trkpt><trkpt lat="44.3187277" lon="5.3075101"><ele>554.0</ele><time>2026-04-10T10:40:21.865Z</time></trkpt><trkpt lat="44.3186221" lon="5.3073799"><ele>554.0</ele><time>2026-04-10T10:40:22.865Z</time></trkpt><trkpt lat="44.3184996" lon="5.3072567"><ele>554.0</ele><time>2026-04-10T10:40:23.857Z</time></trkpt><trkpt lat="44.3183841" lon="5.3071597"><ele>554.0</ele><time>2026-04-10T10:40:24.855Z</time></trkpt><trkpt lat="44.3182803" lon="5.3070431"><ele>554.0</ele><time>2026-04-10T10:40:25.852Z</time></trkpt><trkpt lat="44.318204" lon="5.3068897"><ele>553.5</ele><time>2026-04-10T10:40:26.85Z</time></trkpt><trkpt lat="44.3181497" lon="5.306714"><ele>553.0</ele><time>2026-04-10T10:40:27.848Z</time></trkpt><trkpt lat="44.3181101" lon="5.3065106"><ele>552.5</ele><time>2026-04-10T10:40:28.848Z</time></trkpt><trkpt lat="44.3180704" lon="5.3063048"><ele>552.0</ele><time>2026-04-10T10:40:29.85Z</time></trkpt><trkpt lat="44.3180426" lon="5.306099"><ele>556.0</ele><time>2026-04-10T10:40:30.851Z</time></trkpt><trkpt lat="44.318015" lon="5.3059026"><ele>560.0</ele><time>2026-04-10T10:40:31.85Z</time></trkpt><trkpt lat="44.3179992" lon="5.3057081"><ele>564.0</ele><time>2026-04-10T10:40:32.873Z</time></trkpt><trkpt lat="44.3179915" lon="5.3055108"><ele>568.0</ele><time>2026-04-10T10:40:33.86Z</time></trkpt><trkpt lat="44.3180043" lon="5.3053114"><ele>568.75</ele><time>2026-04-10T10:40:34.849Z</time></trkpt><trkpt lat="44.3180157" lon="5.3051102"><ele>569.5</ele><time>2026-04-10T10:40:35.846Z</time></trkpt><trkpt lat="44.3180198" lon="5.3049147"><ele>570.25</ele><time>2026-04-10T10:40:36.847Z</time></trkpt><trkpt lat="44.3179975" lon="5.3047189"><ele>571.0</ele><time>2026-04-10T10:40:37.857Z</time></trkpt><trkpt lat="44.317961" lon="5.3045489"><ele>571.0</ele><time>2026-04-10T10:40:38.85Z</time></trkpt><trkpt lat="44.3179375" lon="5.3043957"><ele>571.0</ele><time>2026-04-10T10:40:39.852Z</time></trkpt><trkpt lat="44.317926" lon="5.3042562"><ele>571.0</ele><time>2026-04-10T10:40:40.85Z</time></trkpt><trkpt lat="44.317974" lon="5.3041511"><ele>571.0</ele><time>2026-04-10T10:40:41.853Z</time></trkpt><trkpt lat="44.3180334" lon="5.3040429"><ele>571.0</ele><time>2026-04-10T10:40:42.849Z</time></trkpt><trkpt lat="44.3181259" lon="5.303968"><ele>568.75</ele><time>2026-04-10T10:40:43.85Z</time></trkpt><trkpt lat="44.3182334" lon="5.3039484"><ele>566.5</ele><time>2026-04-10T10:40:44.854Z</time></trkpt><trkpt lat="44.3183836" lon="5.3040234"><ele>564.25</ele><time>2026-04-10T10:40:45.849Z</time></trkpt><trkpt lat="44.3185401" lon="5.3040973"><ele>562.0</ele><time>2026-04-10T10:40:46.851Z</time></trkpt><trkpt lat="44.3186931" lon="5.3041425"><ele>562.0</ele><time>2026-04-10T10:40:47.853Z</time></trkpt><trkpt lat="44.3188081" lon="5.3041444"><ele>562.0</ele><time>2026-04-10T10:40:48.847Z</time></trkpt><trkpt lat="44.3188939" lon="5.3041141"><ele>562.0</ele><time>2026-04-10T10:40:49.85Z</time></trkpt><trkpt lat="44.3189457" lon="5.3040123"><ele>562.0</ele><time>2026-04-10T10:40:50.848Z</time></trkpt><trkpt lat="44.3189612" lon="5.3038625"><ele>562.0</ele><time>2026-04-10T10:40:51.845Z</time></trkpt><trkpt lat="44.3189536" lon="5.3036865"><ele>562.75</ele><time>2026-04-10T10:40:52.845Z</time></trkpt><trkpt lat="44.3189442" lon="5.3035052"><ele>563.5</ele><time>2026-04-10T10:40:53.854Z</time></trkpt><trkpt lat="44.3189391" lon="5.3033296"><ele>564.25</ele><time>2026-04-10T10:40:54.85Z</time></trkpt><trkpt lat="44.3189352" lon="5.3031476"><ele>565.0</ele><time>2026-04-10T10:40:55.86Z</time></trkpt><trkpt lat="44.3189242" lon="5.3029588"><ele>568.75</ele><time>2026-04-10T10:40:56.851Z</time></trkpt><trkpt lat="44.3188981" lon="5.3027672"><ele>572.5</ele><time>2026-04-10T10:40:57.847Z</time></trkpt><trkpt lat="44.3188761" lon="5.3025635"><ele>576.25</ele><time>2026-04-10T10:40:58.846Z</time></trkpt><trkpt lat="44.3188708" lon="5.3023513"><ele>580.0</ele><time>2026-04-10T10:40:59.851Z</time></trkpt><trkpt lat="44.3188789" lon="5.302141"><ele>581.25</ele><time>2026-04-10T10:41:00.846Z</time></trkpt><trkpt lat="44.3188947" lon="5.3019419"><ele>582.5</ele><time>2026-04-10T10:41:01.849Z</time></trkpt><trkpt lat="44.3189358" lon="5.3017626"><ele>583.75</ele><time>2026-04-10T10:41:02.853Z</time></trkpt><trkpt lat="44.3190143" lon="5.3016053"><ele>585.0</ele><time>2026-04-10T10:41:03.851Z</time></trkpt><trkpt lat="44.3191203" lon="5.3014875"><ele>583.5</ele><time>2026-04-10T10:41:04.848Z</time></trkpt><trkpt lat="44.319218" lon="5.3013623"><ele>582.0</ele><time>2026-04-10T10:41:05.852Z</time></trkpt><trkpt lat="44.3192479" lon="5.3011718"><ele>580.5</ele><time>2026-04-10T10:41:06.848Z</time></trkpt><trkpt lat="44.3193019" lon="5.3010052"><ele>579.0</ele><time>2026-04-10T10:41:07.851Z</time></trkpt><trkpt lat="44.3193126" lon="5.3008223"><ele>579.0</ele><time>2026-04-10T10:41:08.851Z</time></trkpt><trkpt lat="44.3192408" lon="5.3006693"><ele>579.0</ele><time>2026-04-10T10:41:09.851Z</time></trkpt><trkpt lat="44.3191685" lon="5.3005309"><ele>579.0</ele><time>2026-04-10T10:41:10.85Z</time></trkpt><trkpt lat="44.3190754" lon="5.3003899"><ele>579.0</ele><time>2026-04-10T10:41:11.853Z</time></trkpt><trkpt lat="44.3189839" lon="5.3002422"><ele>581.75</ele><time>2026-04-10T10:41:12.846Z</time></trkpt><trkpt lat="44.3188968" lon="5.3000777"><ele>584.5</ele><time>2026-04-10T10:41:13.85Z</time></trkpt><trkpt lat="44.3188171" lon="5.2998982"><ele>587.25</ele><time>2026-04-10T10:41:14.849Z</time></trkpt><trkpt lat="44.3187527" lon="5.2997131"><ele>590.0</ele><time>2026-04-10T10:41:15.849Z</time></trkpt><trkpt lat="44.3187023" lon="5.299519"><ele>590.0</ele><time>2026-04-10T10:41:16.848Z</time></trkpt><trkpt lat="44.318647" lon="5.2993269"><ele>590.0</ele><time>2026-04-10T10:41:17.854Z</time></trkpt><trkpt lat="44.3185428" lon="5.2991873"><ele>590.0</ele><time>2026-04-10T10:41:18.851Z</time></trkpt><trkpt lat="44.3184442" lon="5.2990636"><ele>590.0</ele><time>2026-04-10T10:41:19.846Z</time></trkpt><trkpt lat="44.3183189" lon="5.2989586"><ele>590.0</ele><time>2026-04-10T10:41:20.851Z</time></trkpt><trkpt lat="44.3181957" lon="5.2988401"><ele>590.0</ele><time>2026-04-10T10:41:21.848Z</time></trkpt><trkpt lat="44.3180733" lon="5.298762"><ele>590.0</ele><time>2026-04-10T10:41:22.852Z</time></trkpt><trkpt lat="44.3179403" lon="5.2987294"><ele>590.0</ele><time>2026-04-10T10:41:23.848Z</time></trkpt><trkpt lat="44.3178028" lon="5.2987127"><ele>590.0</ele><time>2026-04-10T10:41:24.852Z</time></trkpt><trkpt lat="44.3176555" lon="5.2986947"><ele>590.0</ele><time>2026-04-10T10:41:25.848Z</time></trkpt><trkpt lat="44.3175088" lon="5.2986645"><ele>590.0</ele><time>2026-04-10T10:41:26.849Z</time></trkpt><trkpt lat="44.3173553" lon="5.2986204"><ele>596.0</ele><time>2026-04-10T10:41:27.851Z</time></trkpt><trkpt lat="44.3172288" lon="5.2985343"><ele>602.0</ele><time>2026-04-10T10:41:28.85Z</time></trkpt><trkpt lat="44.3171106" lon="5.2984047"><ele>608.0</ele><time>2026-04-10T10:41:29.85Z</time></trkpt><trkpt lat="44.3170033" lon="5.2982718"><ele>614.0</ele><time>2026-04-10T10:41:30.855Z</time></trkpt><trkpt lat="44.3169162" lon="5.2981111"><ele>612.3333333333333</ele><time>2026-04-10T10:41:31.849Z</time></trkpt><trkpt lat="44.3168953" lon="5.2978851"><ele>610.6666666666666</ele><time>2026-04-10T10:41:32.849Z</time></trkpt><trkpt lat="44.3168637" lon="5.2976824"><ele>609.0</ele><time>2026-04-10T10:41:33.85Z</time></trkpt><trkpt lat="44.3168208" lon="5.2974773"><ele>609.0</ele><time>2026-04-10T10:41:34.85Z</time></trkpt><trkpt lat="44.3167669" lon="5.2972785"><ele>609.0</ele><time>2026-04-10T10:41:35.849Z</time></trkpt><trkpt lat="44.3167113" lon="5.2970706"><ele>609.0</ele><time>2026-04-10T10:41:36.85Z</time></trkpt><trkpt lat="44.3166674" lon="5.2968531"><ele>610.0</ele><time>2026-04-10T10:41:37.853Z</time></trkpt><trkpt lat="44.3166407" lon="5.2966343"><ele>611.0</ele><time>2026-04-10T10:41:38.852Z</time></trkpt><trkpt lat="44.3166219" lon="5.2964016"><ele>612.0</ele><time>2026-04-10T10:41:39.848Z</time></trkpt><trkpt lat="44.3165926" lon="5.2961946"><ele>612.0</ele><time>2026-04-10T10:41:40.848Z</time></trkpt><trkpt lat="44.3165868" lon="5.2959903"><ele>612.0</ele><time>2026-04-10T10:41:41.85Z</time></trkpt><trkpt lat="44.3165898" lon="5.2957817"><ele>612.0</ele><time>2026-04-10T10:41:42.851Z</time></trkpt><trkpt lat="44.316644" lon="5.2956293"><ele>612.0</ele><time>2026-04-10T10:41:43.85Z</time></trkpt><trkpt lat="44.316718" lon="5.2955122"><ele>616.3333333333334</ele><time>2026-04-10T10:41:44.852Z</time></trkpt><trkpt lat="44.3169173" lon="5.2954436"><ele>620.6666666666667</ele><time>2026-04-10T10:41:45.849Z</time></trkpt><trkpt lat="44.3170265" lon="5.2952915"><ele>625.0</ele><time>2026-04-10T10:41:46.849Z</time></trkpt><trkpt lat="44.3171078" lon="5.2951237"><ele>625.0</ele><time>2026-04-10T10:41:47.85Z</time></trkpt><trkpt lat="44.3171577" lon="5.2949519"><ele>625.0</ele><time>2026-04-10T10:41:48.852Z</time></trkpt><trkpt lat="44.3171835" lon="5.2947781"><ele>625.0</ele><time>2026-04-10T10:41:49.85Z</time></trkpt><trkpt lat="44.3171905" lon="5.2945978"><ele>625.0</ele><time>2026-04-10T10:41:50.848Z</time></trkpt><trkpt lat="44.3171483" lon="5.2944278"><ele>625.25</ele><time>2026-04-10T10:41:51.851Z</time></trkpt><trkpt lat="44.3170952" lon="5.2942422"><ele>625.5</ele><time>2026-04-10T10:41:52.851Z</time></trkpt><trkpt lat="44.3170457" lon="5.294062"><ele>625.75</ele><time>2026-04-10T10:41:53.848Z</time></trkpt><trkpt lat="44.3170122" lon="5.2938968"><ele>626.0</ele><time>2026-04-10T10:41:54.85Z</time></trkpt><trkpt lat="44.3169715" lon="5.2937502"><ele>623.0</ele><time>2026-04-10T10:41:55.847Z</time></trkpt><trkpt lat="44.3168952" lon="5.2936538"><ele>620.0</ele><time>2026-04-10T10:41:56.846Z</time></trkpt><trkpt lat="44.316821" lon="5.2936029"><ele>617.0</ele><time>2026-04-10T10:41:57.85Z</time></trkpt><trkpt lat="44.3166915" lon="5.2935948"><ele>614.0</ele><time>2026-04-10T10:41:58.851Z</time></trkpt><trkpt lat="44.3165642" lon="5.2935815"><ele>611.0</ele><time>2026-04-10T10:41:59.849Z</time></trkpt><trkpt lat="44.3164276" lon="5.2935619"><ele>615.3333333333333</ele><time>2026-04-10T10:42:00.85Z</time></trkpt><trkpt lat="44.316275" lon="5.2935575"><ele>619.6666666666666</ele><time>2026-04-10T10:42:01.852Z</time></trkpt><trkpt lat="44.3161262" lon="5.2935581"><ele>624.0</ele><time>2026-04-10T10:42:02.845Z</time></trkpt><trkpt lat="44.3159676" lon="5.2935596"><ele>624.0</ele><time>2026-04-10T10:42:03.855Z</time></trkpt><trkpt lat="44.3158213" lon="5.2935611"><ele>624.0</ele><time>2026-04-10T10:42:04.855Z</time></trkpt><trkpt lat="44.3156861" lon="5.2935681"><ele>624.0</ele><time>2026-04-10T10:42:05.85Z</time></trkpt><trkpt lat="44.3155587" lon="5.2935671"><ele>624.0</ele><time>2026-04-10T10:42:06.849Z</time></trkpt><trkpt lat="44.3154625" lon="5.2935088"><ele>629.25</ele><time>2026-04-10T10:42:07.849Z</time></trkpt><trkpt lat="44.3153506" lon="5.2934427"><ele>634.5</ele><time>2026-04-10T10:42:08.851Z</time></trkpt><trkpt lat="44.3152894" lon="5.293292"><ele>639.75</ele><time>2026-04-10T10:42:09.848Z</time></trkpt><trkpt lat="44.3152643" lon="5.2930836"><ele>645.0</ele><time>2026-04-10T10:42:10.849Z</time></trkpt><trkpt lat="44.3152315" lon="5.2928847"><ele>645.0</ele><time>2026-04-10T10:42:11.847Z</time></trkpt><trkpt lat="44.3152243" lon="5.292666"><ele>645.0</ele><time>2026-04-10T10:42:12.851Z</time></trkpt><trkpt lat="44.3152256" lon="5.2924525"><ele>645.0</ele><time>2026-04-10T10:42:13.848Z</time></trkpt><trkpt lat="44.3152455" lon="5.2922335"><ele>646.6666666666666</ele><time>2026-04-10T10:42:14.847Z</time></trkpt><trkpt lat="44.3152604" lon="5.2920173"><ele>648.3333333333333</ele><time>2026-04-10T10:42:15.85Z</time></trkpt><trkpt lat="44.315265" lon="5.2918064"><ele>650.0</ele><time>2026-04-10T10:42:16.846Z</time></trkpt><trkpt lat="44.3152585" lon="5.2915986"><ele>649.75</ele><time>2026-04-10T10:42:17.852Z</time></trkpt><trkpt lat="44.3152324" lon="5.2913948"><ele>649.5</ele><time>2026-04-10T10:42:18.849Z</time></trkpt><trkpt lat="44.315198" lon="5.2911939"><ele>649.25</ele><time>2026-04-10T10:42:19.849Z</time></trkpt><trkpt lat="44.3151485" lon="5.2910053"><ele>649.0</ele><time>2026-04-10T10:42:20.85Z</time></trkpt><trkpt lat="44.3151008" lon="5.2908406"><ele>649.0</ele><time>2026-04-10T10:42:21.848Z</time></trkpt><trkpt lat="44.3150815" lon="5.2906724"><ele>649.0</ele><time>2026-04-10T10:42:22.848Z</time></trkpt><trkpt lat="44.3150765" lon="5.290501"><ele>649.0</ele><time>2026-04-10T10:42:23.86Z</time></trkpt><trkpt lat="44.3150936" lon="5.2903268"><ele>649.0</ele><time>2026-04-10T10:42:24.852Z</time></trkpt><trkpt lat="44.3150667" lon="5.2901427"><ele>648.5</ele><time>2026-04-10T10:42:25.846Z</time></trkpt><trkpt lat="44.3150242" lon="5.2899612"><ele>648.0</ele><time>2026-04-10T10:42:26.849Z</time></trkpt><trkpt lat="44.3149712" lon="5.2897777"><ele>647.5</ele><time>2026-04-10T10:42:27.848Z</time></trkpt><trkpt lat="44.3149193" lon="5.2895872"><ele>647.0</ele><time>2026-04-10T10:42:28.844Z</time></trkpt><trkpt lat="44.3148523" lon="5.2893835"><ele>647.25</ele><time>2026-04-10T10:42:29.849Z</time></trkpt><trkpt lat="44.314785" lon="5.2892242"><ele>647.5</ele><time>2026-04-10T10:42:30.844Z</time></trkpt><trkpt lat="44.3146982" lon="5.2890826"><ele>647.75</ele><time>2026-04-10T10:42:31.851Z</time></trkpt><trkpt lat="44.314606" lon="5.2889739"><ele>648.0</ele><time>2026-04-10T10:42:32.848Z</time></trkpt><trkpt lat="44.3145086" lon="5.2889057"><ele>648.0</ele><time>2026-04-10T10:42:33.848Z</time></trkpt><trkpt lat="44.3144002" lon="5.2888734"><ele>648.0</ele><time>2026-04-10T10:42:34.846Z</time></trkpt><trkpt lat="44.3142909" lon="5.2888938"><ele>648.0</ele><time>2026-04-10T10:42:35.85Z</time></trkpt><trkpt lat="44.3141779" lon="5.2889261"><ele>648.0</ele><time>2026-04-10T10:42:36.849Z</time></trkpt><trkpt lat="44.3140767" lon="5.2890418"><ele>650.5</ele><time>2026-04-10T10:42:37.853Z</time></trkpt><trkpt lat="44.3139776" lon="5.2891198"><ele>653.0</ele><time>2026-04-10T10:42:38.848Z</time></trkpt><trkpt lat="44.3138744" lon="5.2891727"><ele>655.5</ele><time>2026-04-10T10:42:39.847Z</time></trkpt><trkpt lat="44.3137642" lon="5.2892006"><ele>658.0</ele><time>2026-04-10T10:42:40.845Z</time></trkpt><trkpt lat="44.3136476" lon="5.2891304"><ele>660.75</ele><time>2026-04-10T10:42:41.851Z</time></trkpt><trkpt lat="44.3136223" lon="5.2889342"><ele>663.5</ele><time>2026-04-10T10:42:42.848Z</time></trkpt><trkpt lat="44.3135618" lon="5.2887806"><ele>666.25</ele><time>2026-04-10T10:42:43.847Z</time></trkpt><trkpt lat="44.3135408" lon="5.2885731"><ele>669.0</ele><time>2026-04-10T10:42:44.847Z</time></trkpt><trkpt lat="44.3135223" lon="5.2883764"><ele>669.0</ele><time>2026-04-10T10:42:45.848Z</time></trkpt><trkpt lat="44.3135449" lon="5.2881726"><ele>669.0</ele><time>2026-04-10T10:42:46.846Z</time></trkpt><trkpt lat="44.3135671" lon="5.2879769"><ele>669.0</ele><time>2026-04-10T10:42:47.848Z</time></trkpt><trkpt lat="44.3135871" lon="5.2878023"><ele>669.0</ele><time>2026-04-10T10:42:48.85Z</time></trkpt><trkpt lat="44.313708" lon="5.2877114"><ele>666.5</ele><time>2026-04-10T10:42:49.848Z</time></trkpt><trkpt lat="44.3138744" lon="5.2876853"><ele>664.0</ele><time>2026-04-10T10:42:50.849Z</time></trkpt><trkpt lat="44.3139839" lon="5.287591"><ele>661.5</ele><time>2026-04-10T10:42:51.847Z</time></trkpt><trkpt lat="44.3140749" lon="5.2874645"><ele>659.0</ele><time>2026-04-10T10:42:52.848Z</time></trkpt><trkpt lat="44.3141428" lon="5.2873326"><ele>659.25</ele><time>2026-04-10T10:42:53.847Z</time></trkpt><trkpt lat="44.3141879" lon="5.287193"><ele>659.5</ele><time>2026-04-10T10:42:54.846Z</time></trkpt><trkpt lat="44.3142143" lon="5.2870471"><ele>659.75</ele><time>2026-04-10T10:42:55.851Z</time></trkpt><trkpt lat="44.3141854" lon="5.2869137"><ele>660.0</ele><time>2026-04-10T10:42:56.854Z</time></trkpt><trkpt lat="44.3140861" lon="5.2867875"><ele>660.0</ele><time>2026-04-10T10:42:57.851Z</time></trkpt><trkpt lat="44.313997" lon="5.2866991"><ele>660.0</ele><time>2026-04-10T10:42:58.846Z</time></trkpt><trkpt lat="44.3139037" lon="5.2866694"><ele>660.0</ele><time>2026-04-10T10:42:59.851Z</time></trkpt><trkpt lat="44.3137993" lon="5.2866724"><ele>660.0</ele><time>2026-04-10T10:43:00.851Z</time></trkpt><trkpt lat="44.3136874" lon="5.2866653"><ele>660.0</ele><time>2026-04-10T10:43:01.847Z</time></trkpt><trkpt lat="44.3135664" lon="5.2866046"><ele>662.75</ele><time>2026-04-10T10:43:02.847Z</time></trkpt><trkpt lat="44.3134367" lon="5.2865442"><ele>665.5</ele><time>2026-04-10T10:43:03.848Z</time></trkpt><trkpt lat="44.3133046" lon="5.2864489"><ele>668.25</ele><time>2026-04-10T10:43:04.851Z</time></trkpt><trkpt lat="44.3131808" lon="5.2863634"><ele>671.0</ele><time>2026-04-10T10:43:05.854Z</time></trkpt><trkpt lat="44.3130686" lon="5.2862716"><ele>679.0</ele><time>2026-04-10T10:43:06.846Z</time></trkpt><trkpt lat="44.3129982" lon="5.2861542"><ele>687.0</ele><time>2026-04-10T10:43:07.847Z</time></trkpt><trkpt lat="44.3129262" lon="5.2860121"><ele>695.0</ele><time>2026-04-10T10:43:08.85Z</time></trkpt><trkpt lat="44.3128823" lon="5.2858634"><ele>703.0</ele><time>2026-04-10T10:43:09.849Z</time></trkpt><trkpt lat="44.312939" lon="5.2856916"><ele>703.25</ele><time>2026-04-10T10:43:10.846Z</time></trkpt><trkpt lat="44.3130373" lon="5.2855085"><ele>703.5</ele><time>2026-04-10T10:43:11.859Z</time></trkpt><trkpt lat="44.3131458" lon="5.2853393"><ele>703.75</ele><time>2026-04-10T10:43:12.851Z</time></trkpt><trkpt lat="44.313196" lon="5.2851864"><ele>704.0</ele><time>2026-04-10T10:43:13.848Z</time></trkpt><trkpt lat="44.3132022" lon="5.2850444"><ele>702.5</ele><time>2026-04-10T10:43:14.852Z</time></trkpt><trkpt lat="44.3131813" lon="5.2849222"><ele>701.0</ele><time>2026-04-10T10:43:15.85Z</time></trkpt><trkpt lat="44.3131356" lon="5.2848189"><ele>699.5</ele><time>2026-04-10T10:43:16.847Z</time></trkpt><trkpt lat="44.3130038" lon="5.2847145"><ele>698.0</ele><time>2026-04-10T10:43:17.85Z</time></trkpt><trkpt lat="44.3129086" lon="5.2845808"><ele>698.0</ele><time>2026-04-10T10:43:18.847Z</time></trkpt><trkpt lat="44.3128081" lon="5.284435"><ele>698.0</ele><time>2026-04-10T10:43:19.847Z</time></trkpt><trkpt lat="44.3127173" lon="5.2842132"><ele>698.0</ele><time>2026-04-10T10:43:20.852Z</time></trkpt><trkpt lat="44.3126408" lon="5.2840023"><ele>697.0</ele><time>2026-04-10T10:43:21.851Z</time></trkpt><trkpt lat="44.3126162" lon="5.2837533"><ele>696.0</ele><time>2026-04-10T10:43:22.85Z</time></trkpt><trkpt lat="44.3125897" lon="5.283498"><ele>695.0</ele><time>2026-04-10T10:43:23.849Z</time></trkpt><trkpt lat="44.3125527" lon="5.28325"><ele>696.25</ele><time>2026-04-10T10:43:24.843Z</time></trkpt><trkpt lat="44.3125127" lon="5.2830231"><ele>697.5</ele><time>2026-04-10T10:43:25.844Z</time></trkpt><trkpt lat="44.312473" lon="5.2828344"><ele>698.75</ele><time>2026-04-10T10:43:26.847Z</time></trkpt><trkpt lat="44.3124679" lon="5.2826592"><ele>700.0</ele><time>2026-04-10T10:43:27.855Z</time></trkpt><trkpt lat="44.3124839" lon="5.2824982"><ele>700.0</ele><time>2026-04-10T10:43:28.85Z</time></trkpt><trkpt lat="44.3125486" lon="5.282347"><ele>700.0</ele><time>2026-04-10T10:43:29.85Z</time></trkpt><trkpt lat="44.312603" lon="5.2821989"><ele>700.0</ele><time>2026-04-10T10:43:30.846Z</time></trkpt><trkpt lat="44.31262" lon="5.2820201"><ele>700.0</ele><time>2026-04-10T10:43:31.853Z</time></trkpt><trkpt lat="44.3125985" lon="5.2818218"><ele>701.0</ele><time>2026-04-10T10:43:32.849Z</time></trkpt><trkpt lat="44.312561" lon="5.28161"><ele>702.0</ele><time>2026-04-10T10:43:33.85Z</time></trkpt><trkpt lat="44.3125135" lon="5.2813917"><ele>703.0</ele><time>2026-04-10T10:43:34.845Z</time></trkpt><trkpt lat="44.3124782" lon="5.2811616"><ele>703.3333333333334</ele><time>2026-04-10T10:43:35.848Z</time></trkpt><trkpt lat="44.3124486" lon="5.2809297"><ele>703.6666666666666</ele><time>2026-04-10T10:43:36.845Z</time></trkpt><trkpt lat="44.3124192" lon="5.2807246"><ele>704.0</ele><time>2026-04-10T10:43:37.856Z</time></trkpt><trkpt lat="44.3124118" lon="5.2805211"><ele>705.6666666666666</ele><time>2026-04-10T10:43:38.852Z</time></trkpt><trkpt lat="44.3124289" lon="5.2803098"><ele>707.3333333333334</ele><time>2026-04-10T10:43:39.852Z</time></trkpt><trkpt lat="44.3124774" lon="5.2801029"><ele>709.0</ele><time>2026-04-10T10:43:40.847Z</time></trkpt><trkpt lat="44.3125571" lon="5.2798882"><ele>711.6666666666667</ele><time>2026-04-10T10:43:41.849Z</time></trkpt><trkpt lat="44.3126066" lon="5.2796752"><ele>714.3333333333334</ele><time>2026-04-10T10:43:42.853Z</time></trkpt><trkpt lat="44.3126413" lon="5.2794499"><ele>717.0</ele><time>2026-04-10T10:43:43.85Z</time></trkpt><trkpt lat="44.3126675" lon="5.2792435"><ele>717.0</ele><time>2026-04-10T10:43:44.85Z</time></trkpt><trkpt lat="44.3126836" lon="5.279067"><ele>717.0</ele><time>2026-04-10T10:43:45.846Z</time></trkpt><trkpt lat="44.3126934" lon="5.2788926"><ele>717.0</ele><time>2026-04-10T10:43:46.85Z</time></trkpt><trkpt lat="44.3126976" lon="5.278736"><ele>717.0</ele><time>2026-04-10T10:43:47.849Z</time></trkpt><trkpt lat="44.3126973" lon="5.2785973"><ele>716.5</ele><time>2026-04-10T10:43:48.85Z</time></trkpt><trkpt lat="44.3126938" lon="5.2784727"><ele>716.0</ele><time>2026-04-10T10:43:49.851Z</time></trkpt><trkpt lat="44.3126915" lon="5.2783472"><ele>715.5</ele><time>2026-04-10T10:43:50.849Z</time></trkpt><trkpt lat="44.312693" lon="5.2782336"><ele>715.0</ele><time>2026-04-10T10:43:51.85Z</time></trkpt><trkpt lat="44.3126845" lon="5.2781434"><ele>714.5</ele><time>2026-04-10T10:43:52.849Z</time></trkpt><trkpt lat="44.3126978" lon="5.2779888"><ele>714.0</ele><time>2026-04-10T10:43:54.853Z</time></trkpt><trkpt lat="44.3126975" lon="5.2778779"><ele>713.3333333333334</ele><time>2026-04-10T10:43:56.851Z</time></trkpt><trkpt lat="44.3127064" lon="5.2777872"><ele>712.6666666666666</ele><time>2026-04-10T10:43:59.852Z</time></trkpt><trkpt lat="44.3127352" lon="5.2776823"><ele>712.0</ele><time>2026-04-10T10:45:01.852Z</time></trkpt><trkpt lat="44.3127619" lon="5.2775859"><ele>711.3333333333333</ele><time>2026-04-10T10:45:02.85Z</time></trkpt><trkpt lat="44.3127949" lon="5.277461"><ele>710.6666666666666</ele><time>2026-04-10T10:45:03.853Z</time></trkpt><trkpt lat="44.3128112" lon="5.2773389"><ele>710.0</ele><time>2026-04-10T10:45:04.851Z</time></trkpt><trkpt lat="44.3128383" lon="5.2771533"><ele>710.0</ele><time>2026-04-10T10:45:05.849Z</time></trkpt><trkpt lat="44.3128573" lon="5.2769634"><ele>710.0</ele><time>2026-04-10T10:45:06.848Z</time></trkpt><trkpt lat="44.312877" lon="5.2767585"><ele>710.0</ele><time>2026-04-10T10:45:07.852Z</time></trkpt><trkpt lat="44.3129122" lon="5.2765428"><ele>710.0</ele><time>2026-04-10T10:45:08.846Z</time></trkpt><trkpt lat="44.312939" lon="5.2763163"><ele>710.0</ele><time>2026-04-10T10:45:09.845Z</time></trkpt><trkpt lat="44.3129626" lon="5.2760753"><ele>710.0</ele><time>2026-04-10T10:45:10.85Z</time></trkpt><trkpt lat="44.3129824" lon="5.2758127"><ele>710.0</ele><time>2026-04-10T10:45:11.848Z</time></trkpt><trkpt lat="44.3129965" lon="5.2755491"><ele>711.6666666666666</ele><time>2026-04-10T10:45:12.849Z</time></trkpt><trkpt lat="44.3130151" lon="5.2752821"><ele>713.3333333333334</ele><time>2026-04-10T10:45:13.846Z</time></trkpt><trkpt lat="44.3130276" lon="5.2750222"><ele>715.0</ele><time>2026-04-10T10:45:14.847Z</time></trkpt><trkpt lat="44.3130406" lon="5.2747664"><ele>716.6666666666667</ele><time>2026-04-10T10:45:15.852Z</time></trkpt><trkpt lat="44.3130469" lon="5.2745181"><ele>718.3333333333334</ele><time>2026-04-10T10:45:16.851Z</time></trkpt><trkpt lat="44.3130391" lon="5.2742741"><ele>720.0</ele><time>2026-04-10T10:45:17.845Z</time></trkpt><trkpt lat="44.3130209" lon="5.2740279"><ele>717.6666666666666</ele><time>2026-04-10T10:45:18.849Z</time></trkpt><trkpt lat="44.3129478" lon="5.2738275"><ele>715.3333333333333</ele><time>2026-04-10T10:45:19.85Z</time></trkpt><trkpt lat="44.3128775" lon="5.2736233"><ele>713.0</ele><time>2026-04-10T10:45:20.849Z</time></trkpt><trkpt lat="44.3128223" lon="5.2734061"><ele>713.0</ele><time>2026-04-10T10:45:21.846Z</time></trkpt><trkpt lat="44.3127947" lon="5.2731753"><ele>713.0</ele><time>2026-04-10T10:45:22.848Z</time></trkpt><trkpt lat="44.3127928" lon="5.2729323"><ele>713.0</ele><time>2026-04-10T10:45:23.852Z</time></trkpt><trkpt lat="44.3128341" lon="5.2726833"><ele>712.6666666666666</ele><time>2026-04-10T10:45:24.844Z</time></trkpt><trkpt lat="44.312912" lon="5.272439"><ele>712.3333333333334</ele><time>2026-04-10T10:45:25.851Z</time></trkpt><trkpt lat="44.312994" lon="5.2722028"><ele>712.0</ele><time>2026-04-10T10:45:26.85Z</time></trkpt><trkpt lat="44.3130839" lon="5.271961"><ele>706.3333333333334</ele><time>2026-04-10T10:45:27.849Z</time></trkpt><trkpt lat="44.3131551" lon="5.2717093"><ele>700.6666666666666</ele><time>2026-04-10T10:45:28.85Z</time></trkpt><trkpt lat="44.3132207" lon="5.271461"><ele>695.0</ele><time>2026-04-10T10:45:29.844Z</time></trkpt><trkpt lat="44.3132916" lon="5.2712113"><ele>695.0</ele><time>2026-04-10T10:45:30.849Z</time></trkpt><trkpt lat="44.3133887" lon="5.2709742"><ele>695.0</ele><time>2026-04-10T10:45:31.847Z</time></trkpt><trkpt lat="44.3135029" lon="5.2707556"><ele>695.0</ele><time>2026-04-10T10:45:32.849Z</time></trkpt><trkpt lat="44.3136208" lon="5.2705443"><ele>695.3333333333333</ele><time>2026-04-10T10:45:33.848Z</time></trkpt><trkpt lat="44.3137448" lon="5.2703303"><ele>695.6666666666666</ele><time>2026-04-10T10:45:34.847Z</time></trkpt><trkpt lat="44.3138688" lon="5.2701211"><ele>696.0</ele><time>2026-04-10T10:45:35.85Z</time></trkpt><trkpt lat="44.3139813" lon="5.2699081"><ele>692.6666666666666</ele><time>2026-04-10T10:45:36.848Z</time></trkpt><trkpt lat="44.3140832" lon="5.2696972"><ele>689.3333333333333</ele><time>2026-04-10T10:45:37.849Z</time></trkpt><trkpt lat="44.3141761" lon="5.2695033"><ele>686.0</ele><time>2026-04-10T10:45:38.848Z</time></trkpt><trkpt lat="44.3142687" lon="5.2693356"><ele>686.0</ele><time>2026-04-10T10:45:39.845Z</time></trkpt><trkpt lat="44.314367" lon="5.2692049"><ele>686.0</ele><time>2026-04-10T10:45:40.849Z</time></trkpt><trkpt lat="44.3144664" lon="5.2690843"><ele>686.0</ele><time>2026-04-10T10:45:41.849Z</time></trkpt><trkpt lat="44.3146296" lon="5.2691229"><ele>686.0</ele><time>2026-04-10T10:45:42.849Z</time></trkpt><trkpt lat="44.3147614" lon="5.2691376"><ele>686.0</ele><time>2026-04-10T10:45:43.853Z</time></trkpt><trkpt lat="44.3148973" lon="5.2691434"><ele>686.0</ele><time>2026-04-10T10:45:44.849Z</time></trkpt><trkpt lat="44.3150266" lon="5.2691092"><ele>686.0</ele><time>2026-04-10T10:45:45.845Z</time></trkpt><trkpt lat="44.3151501" lon="5.2690179"><ele>686.0</ele><time>2026-04-10T10:45:46.851Z</time></trkpt><trkpt lat="44.3152658" lon="5.2688887"><ele>686.0</ele><time>2026-04-10T10:45:47.846Z</time></trkpt><trkpt lat="44.3153923" lon="5.2687667"><ele>686.0</ele><time>2026-04-10T10:45:48.852Z</time></trkpt><trkpt lat="44.3155461" lon="5.2686931"><ele>686.0</ele><time>2026-04-10T10:45:49.843Z</time></trkpt><trkpt lat="44.3157133" lon="5.2686465"><ele>681.3333333333333</ele><time>2026-04-10T10:45:50.845Z</time></trkpt><trkpt lat="44.3158753" lon="5.268613"><ele>676.6666666666666</ele><time>2026-04-10T10:45:51.885Z</time></trkpt><trkpt lat="44.3160253" lon="5.2685394"><ele>672.0</ele><time>2026-04-10T10:45:52.851Z</time></trkpt><trkpt lat="44.3161629" lon="5.2684117"><ele>672.0</ele><time>2026-04-10T10:45:53.844Z</time></trkpt><trkpt lat="44.3162976" lon="5.2682595"><ele>672.0</ele><time>2026-04-10T10:45:54.847Z</time></trkpt><trkpt lat="44.3164288" lon="5.2681006"><ele>672.0</ele><time>2026-04-10T10:45:55.85Z</time></trkpt><trkpt lat="44.3165673" lon="5.2679479"><ele>669.6666666666666</ele><time>2026-04-10T10:45:56.847Z</time></trkpt><trkpt lat="44.3167095" lon="5.2677937"><ele>667.3333333333333</ele><time>2026-04-10T10:45:57.847Z</time></trkpt><trkpt lat="44.3168603" lon="5.267623"><ele>665.0</ele><time>2026-04-10T10:45:58.848Z</time></trkpt><trkpt lat="44.3170078" lon="5.2674398"><ele>663.3333333333333</ele><time>2026-04-10T10:45:59.846Z</time></trkpt><trkpt lat="44.3171654" lon="5.2672484"><ele>661.6666666666666</ele><time>2026-04-10T10:46:00.853Z</time></trkpt><trkpt lat="44.317323" lon="5.2670522"><ele>660.0</ele><time>2026-04-10T10:46:01.849Z</time></trkpt><trkpt lat="44.3174898" lon="5.2668765"><ele>660.0</ele><time>2026-04-10T10:46:02.847Z</time></trkpt><trkpt lat="44.3176635" lon="5.2667394"><ele>660.0</ele><time>2026-04-10T10:46:03.848Z</time></trkpt><trkpt lat="44.317831" lon="5.2665994"><ele>660.0</ele><time>2026-04-10T10:46:04.848Z</time></trkpt><trkpt lat="44.3179807" lon="5.2664381"><ele>657.3333333333334</ele><time>2026-04-10T10:46:05.847Z</time></trkpt><trkpt lat="44.318121" lon="5.2662546"><ele>654.6666666666667</ele><time>2026-04-10T10:46:06.847Z</time></trkpt><trkpt lat="44.3182646" lon="5.2660677"><ele>652.0</ele><time>2026-04-10T10:46:07.847Z</time></trkpt><trkpt lat="44.3184149" lon="5.2658814"><ele>652.0</ele><time>2026-04-10T10:46:08.848Z</time></trkpt><trkpt lat="44.3185771" lon="5.2657505"><ele>652.0</ele><time>2026-04-10T10:46:09.85Z</time></trkpt><trkpt lat="44.3187275" lon="5.2656525"><ele>652.0</ele><time>2026-04-10T10:46:10.846Z</time></trkpt><trkpt lat="44.3188489" lon="5.2655408"><ele>650.3333333333334</ele><time>2026-04-10T10:46:11.852Z</time></trkpt><trkpt lat="44.3189434" lon="5.2653849"><ele>648.6666666666666</ele><time>2026-04-10T10:46:12.848Z</time></trkpt><trkpt lat="44.3190239" lon="5.2651899"><ele>647.0</ele><time>2026-04-10T10:46:13.85Z</time></trkpt><trkpt lat="44.3191063" lon="5.2649863"><ele>647.0</ele><time>2026-04-10T10:46:14.847Z</time></trkpt><trkpt lat="44.3192019" lon="5.2647994"><ele>647.0</ele><time>2026-04-10T10:46:15.849Z</time></trkpt><trkpt lat="44.3193237" lon="5.2646447"><ele>647.0</ele><time>2026-04-10T10:46:16.845Z</time></trkpt><trkpt lat="44.3194728" lon="5.264532"><ele>649.3333333333333</ele><time>2026-04-10T10:46:17.849Z</time></trkpt><trkpt lat="44.3196154" lon="5.2644284"><ele>651.6666666666666</ele><time>2026-04-10T10:46:18.848Z</time></trkpt><trkpt lat="44.3197406" lon="5.2643136"><ele>654.0</ele><time>2026-04-10T10:46:19.854Z</time></trkpt><trkpt lat="44.3198443" lon="5.2641691"><ele>649.6666666666666</ele><time>2026-04-10T10:46:20.844Z</time></trkpt><trkpt lat="44.3199265" lon="5.2639772"><ele>645.3333333333333</ele><time>2026-04-10T10:46:21.846Z</time></trkpt><trkpt lat="44.3199891" lon="5.2637642"><ele>641.0</ele><time>2026-04-10T10:46:22.843Z</time></trkpt><trkpt lat="44.3200615" lon="5.2635357"><ele>641.0</ele><time>2026-04-10T10:46:23.848Z</time></trkpt><trkpt lat="44.320157" lon="5.2633228"><ele>641.0</ele><time>2026-04-10T10:46:24.847Z</time></trkpt><trkpt lat="44.320269" lon="5.2631506"><ele>641.0</ele><time>2026-04-10T10:46:25.851Z</time></trkpt><trkpt lat="44.3203899" lon="5.2629971"><ele>640.3333333333333</ele><time>2026-04-10T10:46:26.848Z</time></trkpt><trkpt lat="44.3205041" lon="5.2628537"><ele>639.6666666666666</ele><time>2026-04-10T10:46:27.846Z</time></trkpt><trkpt lat="44.3206267" lon="5.2627267"><ele>639.0</ele><time>2026-04-10T10:46:28.852Z</time></trkpt><trkpt lat="44.3207629" lon="5.2626401"><ele>639.0</ele><time>2026-04-10T10:46:29.853Z</time></trkpt><trkpt lat="44.320915" lon="5.2625931"><ele>639.0</ele><time>2026-04-10T10:46:30.848Z</time></trkpt><trkpt lat="44.3210557" lon="5.2625714"><ele>639.0</ele><time>2026-04-10T10:46:31.851Z</time></trkpt><trkpt lat="44.3212127" lon="5.2626655"><ele>639.0</ele><time>2026-04-10T10:46:32.847Z</time></trkpt><trkpt lat="44.3213571" lon="5.2627616"><ele>639.0</ele><time>2026-04-10T10:46:33.85Z</time></trkpt><trkpt lat="44.3214802" lon="5.26293"><ele>639.0</ele><time>2026-04-10T10:46:34.847Z</time></trkpt><trkpt lat="44.3215868" lon="5.2631184"><ele>636.0</ele><time>2026-04-10T10:46:35.85Z</time></trkpt><trkpt lat="44.3216931" lon="5.2633169"><ele>633.0</ele><time>2026-04-10T10:46:36.846Z</time></trkpt><trkpt lat="44.3217935" lon="5.2635027"><ele>630.0</ele><time>2026-04-10T10:46:37.852Z</time></trkpt><trkpt lat="44.3218954" lon="5.2636687"><ele>630.0</ele><time>2026-04-10T10:46:38.848Z</time></trkpt><trkpt lat="44.3219994" lon="5.2638187"><ele>630.0</ele><time>2026-04-10T10:46:39.848Z</time></trkpt><trkpt lat="44.3221" lon="5.2639501"><ele>630.0</ele><time>2026-04-10T10:46:40.863Z</time></trkpt><trkpt lat="44.3222115" lon="5.2640321"><ele>630.0</ele><time>2026-04-10T10:46:41.845Z</time></trkpt><trkpt lat="44.3223204" lon="5.2641105"><ele>629.5</ele><time>2026-04-10T10:46:42.848Z</time></trkpt><trkpt lat="44.3224548" lon="5.2640935"><ele>629.0</ele><time>2026-04-10T10:46:43.85Z</time></trkpt><trkpt lat="44.3225813" lon="5.2640586"><ele>628.5</ele><time>2026-04-10T10:46:44.85Z</time></trkpt><trkpt lat="44.3227106" lon="5.2638972"><ele>628.0</ele><time>2026-04-10T10:46:45.846Z</time></trkpt><trkpt lat="44.3228398" lon="5.2637677"><ele>628.0</ele><time>2026-04-10T10:46:46.853Z</time></trkpt><trkpt lat="44.3229747" lon="5.2636302"><ele>628.0</ele><time>2026-04-10T10:46:47.848Z</time></trkpt><trkpt lat="44.3231125" lon="5.2635381"><ele>628.0</ele><time>2026-04-10T10:46:48.848Z</time></trkpt><trkpt lat="44.3232576" lon="5.2634951"><ele>625.5</ele><time>2026-04-10T10:46:49.846Z</time></trkpt><trkpt lat="44.3234014" lon="5.2635021"><ele>623.0</ele><time>2026-04-10T10:46:50.849Z</time></trkpt><trkpt lat="44.3235388" lon="5.2635256"><ele>620.5</ele><time>2026-04-10T10:46:51.849Z</time></trkpt><trkpt lat="44.3236601" lon="5.263543"><ele>618.0</ele><time>2026-04-10T10:46:52.847Z</time></trkpt><trkpt lat="44.3237525" lon="5.2635251"><ele>618.0</ele><time>2026-04-10T10:46:53.847Z</time></trkpt><trkpt lat="44.3238268" lon="5.2634549"><ele>618.0</ele><time>2026-04-10T10:46:54.846Z</time></trkpt><trkpt lat="44.3238548" lon="5.2633457"><ele>618.0</ele><time>2026-04-10T10:46:55.85Z</time></trkpt><trkpt lat="44.3238524" lon="5.2632249"><ele>618.0</ele><time>2026-04-10T10:46:56.848Z</time></trkpt><trkpt lat="44.3238328" lon="5.2630905"><ele>618.0</ele><time>2026-04-10T10:46:57.85Z</time></trkpt><trkpt lat="44.3238094" lon="5.2629445"><ele>618.4</ele><time>2026-04-10T10:46:58.848Z</time></trkpt><trkpt lat="44.3238159" lon="5.2627993"><ele>618.8</ele><time>2026-04-10T10:46:59.849Z</time></trkpt><trkpt lat="44.323842" lon="5.2626527"><ele>619.2</ele><time>2026-04-10T10:47:00.847Z</time></trkpt><trkpt lat="44.3238806" lon="5.2625098"><ele>619.6</ele><time>2026-04-10T10:47:01.849Z</time></trkpt><trkpt lat="44.3239171" lon="5.2623763"><ele>620.0</ele><time>2026-04-10T10:47:02.853Z</time></trkpt><trkpt lat="44.3239824" lon="5.2622899"><ele>619.6</ele><time>2026-04-10T10:47:03.851Z</time></trkpt><trkpt lat="44.3240855" lon="5.2622903"><ele>619.2</ele><time>2026-04-10T10:47:04.854Z</time></trkpt><trkpt lat="44.3241811" lon="5.2622654"><ele>618.8</ele><time>2026-04-10T10:47:05.846Z</time></trkpt><trkpt lat="44.3242955" lon="5.2622417"><ele>618.4</ele><time>2026-04-10T10:47:06.85Z</time></trkpt><trkpt lat="44.3244251" lon="5.2622007"><ele>618.0</ele><time>2026-04-10T10:47:07.849Z</time></trkpt><trkpt lat="44.3245666" lon="5.2621462"><ele>618.0</ele><time>2026-04-10T10:47:08.849Z</time></trkpt><trkpt lat="44.3247064" lon="5.2620891"><ele>618.0</ele><time>2026-04-10T10:47:09.85Z</time></trkpt><trkpt lat="44.3248529" lon="5.2620295"><ele>618.0</ele><time>2026-04-10T10:47:10.85Z</time></trkpt><trkpt lat="44.3249941" lon="5.2619741"><ele>618.0</ele><time>2026-04-10T10:47:11.857Z</time></trkpt><trkpt lat="44.3251255" lon="5.261914"><ele>617.5</ele><time>2026-04-10T10:47:12.85Z</time></trkpt><trkpt lat="44.3252497" lon="5.2618562"><ele>617.0</ele><time>2026-04-10T10:47:13.85Z</time></trkpt><trkpt lat="44.3253824" lon="5.2618022"><ele>616.5</ele><time>2026-04-10T10:47:14.846Z</time></trkpt><trkpt lat="44.3255213" lon="5.2617538"><ele>616.0</ele><time>2026-04-10T10:47:15.844Z</time></trkpt><trkpt lat="44.3256586" lon="5.2617095"><ele>616.75</ele><time>2026-04-10T10:47:16.849Z</time></trkpt><trkpt lat="44.3257858" lon="5.2616596"><ele>617.5</ele><time>2026-04-10T10:47:17.85Z</time></trkpt><trkpt lat="44.3258965" lon="5.261585"><ele>618.25</ele><time>2026-04-10T10:47:18.85Z</time></trkpt><trkpt lat="44.3259937" lon="5.2614943"><ele>619.0</ele><time>2026-04-10T10:47:19.845Z</time></trkpt><trkpt lat="44.3260776" lon="5.2613927"><ele>619.0</ele><time>2026-04-10T10:47:20.845Z</time></trkpt><trkpt lat="44.3261507" lon="5.2612827"><ele>619.0</ele><time>2026-04-10T10:47:21.844Z</time></trkpt><trkpt lat="44.326217" lon="5.2611663"><ele>619.0</ele><time>2026-04-10T10:47:22.848Z</time></trkpt><trkpt lat="44.3262867" lon="5.2610421"><ele>619.0</ele><time>2026-04-10T10:47:23.847Z</time></trkpt><trkpt lat="44.326352" lon="5.2609067"><ele>619.0</ele><time>2026-04-10T10:47:24.854Z</time></trkpt><trkpt lat="44.3264277" lon="5.2607632"><ele>617.0</ele><time>2026-04-10T10:47:25.85Z</time></trkpt><trkpt lat="44.3265028" lon="5.2606326"><ele>615.0</ele><time>2026-04-10T10:47:26.857Z</time></trkpt><trkpt lat="44.3265799" lon="5.2604754"><ele>613.0</ele><time>2026-04-10T10:47:27.853Z</time></trkpt><trkpt lat="44.3266628" lon="5.2603269"><ele>611.0</ele><time>2026-04-10T10:47:28.851Z</time></trkpt><trkpt lat="44.3267497" lon="5.260179"><ele>611.0</ele><time>2026-04-10T10:47:29.851Z</time></trkpt><trkpt lat="44.326833" lon="5.2600252"><ele>611.0</ele><time>2026-04-10T10:47:30.846Z</time></trkpt><trkpt lat="44.3269228" lon="5.2598636"><ele>611.0</ele><time>2026-04-10T10:47:31.845Z</time></trkpt><trkpt lat="44.3270192" lon="5.2596958"><ele>611.0</ele><time>2026-04-10T10:47:32.846Z</time></trkpt><trkpt lat="44.3271162" lon="5.2595281"><ele>610.3333333333333</ele><time>2026-04-10T10:47:33.852Z</time></trkpt><trkpt lat="44.3272166" lon="5.2593562"><ele>609.6666666666666</ele><time>2026-04-10T10:47:34.847Z</time></trkpt><trkpt lat="44.3273118" lon="5.2591803"><ele>609.0</ele><time>2026-04-10T10:47:35.847Z</time></trkpt><trkpt lat="44.3274044" lon="5.2590047"><ele>610.5</ele><time>2026-04-10T10:47:36.846Z</time></trkpt><trkpt lat="44.327493" lon="5.2588427"><ele>612.0</ele><time>2026-04-10T10:47:37.853Z</time></trkpt><trkpt lat="44.3275693" lon="5.2586925"><ele>613.5</ele><time>2026-04-10T10:47:38.851Z</time></trkpt><trkpt lat="44.3276524" lon="5.2585435"><ele>615.0</ele><time>2026-04-10T10:47:39.845Z</time></trkpt><trkpt lat="44.3277292" lon="5.2584004"><ele>615.0</ele><time>2026-04-10T10:47:40.846Z</time></trkpt><trkpt lat="44.3278075" lon="5.2582472"><ele>615.0</ele><time>2026-04-10T10:47:41.849Z</time></trkpt><trkpt lat="44.3278773" lon="5.2580797"><ele>615.0</ele><time>2026-04-10T10:47:42.849Z</time></trkpt><trkpt lat="44.3279362" lon="5.2579"><ele>615.0</ele><time>2026-04-10T10:47:43.852Z</time></trkpt><trkpt lat="44.3279796" lon="5.2577086"><ele>615.6666666666666</ele><time>2026-04-10T10:47:44.848Z</time></trkpt><trkpt lat="44.3279983" lon="5.2575018"><ele>616.3333333333333</ele><time>2026-04-10T10:47:45.853Z</time></trkpt><trkpt lat="44.3280098" lon="5.2572818"><ele>617.0</ele><time>2026-04-10T10:47:46.844Z</time></trkpt><trkpt lat="44.3280149" lon="5.2570512"><ele>617.6666666666666</ele><time>2026-04-10T10:47:47.848Z</time></trkpt><trkpt lat="44.3280172" lon="5.2568089"><ele>618.3333333333334</ele><time>2026-04-10T10:47:48.845Z</time></trkpt><trkpt lat="44.3280172" lon="5.2565765"><ele>619.0</ele><time>2026-04-10T10:47:49.847Z</time></trkpt><trkpt lat="44.3280085" lon="5.2563616"><ele>619.5</ele><time>2026-04-10T10:47:50.85Z</time></trkpt><trkpt lat="44.3279839" lon="5.2561655"><ele>620.0</ele><time>2026-04-10T10:47:51.848Z</time></trkpt><trkpt lat="44.3279458" lon="5.2559881"><ele>620.5</ele><time>2026-04-10T10:47:52.847Z</time></trkpt><trkpt lat="44.3278988" lon="5.2558254"><ele>621.0</ele><time>2026-04-10T10:47:53.848Z</time></trkpt><trkpt lat="44.3278658" lon="5.2556818"><ele>621.6</ele><time>2026-04-10T10:47:54.846Z</time></trkpt><trkpt lat="44.327851" lon="5.2555498"><ele>622.2</ele><time>2026-04-10T10:47:55.85Z</time></trkpt><trkpt lat="44.3278719" lon="5.2554363"><ele>622.8</ele><time>2026-04-10T10:47:56.849Z</time></trkpt><trkpt lat="44.3279064" lon="5.2553305"><ele>623.4</ele><time>2026-04-10T10:47:57.85Z</time></trkpt><trkpt lat="44.3280164" lon="5.255361"><ele>624.0</ele><time>2026-04-10T10:47:58.85Z</time></trkpt><trkpt lat="44.3281254" lon="5.2553921"><ele>622.5</ele><time>2026-04-10T10:47:59.846Z</time></trkpt><trkpt lat="44.3282333" lon="5.2554232"><ele>621.0</ele><time>2026-04-10T10:48:00.845Z</time></trkpt><trkpt lat="44.3283438" lon="5.2554284"><ele>619.5</ele><time>2026-04-10T10:48:01.847Z</time></trkpt><trkpt lat="44.3284583" lon="5.2553892"><ele>618.0</ele><time>2026-04-10T10:48:02.849Z</time></trkpt><trkpt lat="44.3285761" lon="5.2553137"><ele>618.0</ele><time>2026-04-10T10:48:03.848Z</time></trkpt><trkpt lat="44.3286983" lon="5.2552197"><ele>618.0</ele><time>2026-04-10T10:48:04.846Z</time></trkpt><trkpt lat="44.3288106" lon="5.2551304"><ele>618.0</ele><time>2026-04-10T10:48:05.851Z</time></trkpt><trkpt lat="44.32891" lon="5.255035"><ele>618.0</ele><time>2026-04-10T10:48:06.848Z</time></trkpt><trkpt lat="44.3289862" lon="5.2549193"><ele>616.5</ele><time>2026-04-10T10:48:07.849Z</time></trkpt><trkpt lat="44.32904" lon="5.2547718"><ele>615.0</ele><time>2026-04-10T10:48:08.85Z</time></trkpt><trkpt lat="44.3290844" lon="5.2546182"><ele>613.5</ele><time>2026-04-10T10:48:09.85Z</time></trkpt><trkpt lat="44.329088" lon="5.2544199"><ele>612.0</ele><time>2026-04-10T10:48:10.848Z</time></trkpt><trkpt lat="44.3291085" lon="5.254225"><ele>612.0</ele><time>2026-04-10T10:48:11.845Z</time></trkpt><trkpt lat="44.3291278" lon="5.2540373"><ele>612.0</ele><time>2026-04-10T10:48:12.854Z</time></trkpt><trkpt lat="44.3291486" lon="5.2538618"><ele>612.0</ele><time>2026-04-10T10:48:13.85Z</time></trkpt><trkpt lat="44.3291623" lon="5.2537007"><ele>612.0</ele><time>2026-04-10T10:48:14.849Z</time></trkpt><trkpt lat="44.3291556" lon="5.2535585"><ele>611.2</ele><time>2026-04-10T10:48:15.848Z</time></trkpt><trkpt lat="44.3291014" lon="5.2534692"><ele>610.4000000000001</ele><time>2026-04-10T10:48:16.851Z</time></trkpt><trkpt lat="44.3290296" lon="5.2533936"><ele>609.5999999999999</ele><time>2026-04-10T10:48:17.848Z</time></trkpt><trkpt lat="44.3289268" lon="5.2533284"><ele>608.8</ele><time>2026-04-10T10:48:18.847Z</time></trkpt><trkpt lat="44.3288091" lon="5.2532637"><ele>608.0</ele><time>2026-04-10T10:48:19.846Z</time></trkpt><trkpt lat="44.3286682" lon="5.253188"><ele>606.6666666666666</ele><time>2026-04-10T10:48:20.854Z</time></trkpt><trkpt lat="44.3285165" lon="5.2531097"><ele>605.3333333333334</ele><time>2026-04-10T10:48:21.86Z</time></trkpt><trkpt lat="44.3283796" lon="5.2530141"><ele>604.0</ele><time>2026-04-10T10:48:22.849Z</time></trkpt><trkpt lat="44.3282474" lon="5.2528895"><ele>604.0</ele><time>2026-04-10T10:48:23.845Z</time></trkpt><trkpt lat="44.3281032" lon="5.2527597"><ele>604.0</ele><time>2026-04-10T10:48:24.856Z</time></trkpt><trkpt lat="44.3279589" lon="5.2526369"><ele>604.0</ele><time>2026-04-10T10:48:25.846Z</time></trkpt><trkpt lat="44.3278248" lon="5.2524912"><ele>605.3333333333334</ele><time>2026-04-10T10:48:26.847Z</time></trkpt><trkpt lat="44.3277155" lon="5.2523283"><ele>606.6666666666666</ele><time>2026-04-10T10:48:27.847Z</time></trkpt><trkpt lat="44.3276179" lon="5.2521522"><ele>608.0</ele><time>2026-04-10T10:48:28.849Z</time></trkpt><trkpt lat="44.3275221" lon="5.2519634"><ele>608.0</ele><time>2026-04-10T10:48:29.847Z</time></trkpt><trkpt lat="44.3274439" lon="5.2517598"><ele>608.0</ele><time>2026-04-10T10:48:30.847Z</time></trkpt><trkpt lat="44.3273855" lon="5.2515493"><ele>608.0</ele><time>2026-04-10T10:48:31.853Z</time></trkpt><trkpt lat="44.3273319" lon="5.2513454"><ele>606.75</ele><time>2026-04-10T10:48:32.847Z</time></trkpt><trkpt lat="44.3272838" lon="5.2511645"><ele>605.5</ele><time>2026-04-10T10:48:33.854Z</time></trkpt><trkpt lat="44.3272402" lon="5.2509888"><ele>604.25</ele><time>2026-04-10T10:48:34.845Z</time></trkpt><trkpt lat="44.3272143" lon="5.25082"><ele>603.0</ele><time>2026-04-10T10:48:35.849Z</time></trkpt><trkpt lat="44.3272076" lon="5.2506609"><ele>603.25</ele><time>2026-04-10T10:48:36.854Z</time></trkpt><trkpt lat="44.3272199" lon="5.2505041"><ele>603.5</ele><time>2026-04-10T10:48:37.849Z</time></trkpt><trkpt lat="44.3272482" lon="5.2503456"><ele>603.75</ele><time>2026-04-10T10:48:38.849Z</time></trkpt><trkpt lat="44.3272957" lon="5.2501922"><ele>604.0</ele><time>2026-04-10T10:48:39.847Z</time></trkpt><trkpt lat="44.3273536" lon="5.2500568"><ele>604.0</ele><time>2026-04-10T10:48:40.846Z</time></trkpt><trkpt lat="44.327399" lon="5.2499479"><ele>604.0</ele><time>2026-04-10T10:48:41.848Z</time></trkpt><trkpt lat="44.32743" lon="5.2498338"><ele>604.0</ele><time>2026-04-10T10:48:42.85Z</time></trkpt><trkpt lat="44.3274401" lon="5.2497162"><ele>604.0</ele><time>2026-04-10T10:48:43.854Z</time></trkpt><trkpt lat="44.3274608" lon="5.2496069"><ele>604.0</ele><time>2026-04-10T10:48:44.846Z</time></trkpt><trkpt lat="44.3275105" lon="5.2494988"><ele>604.0</ele><time>2026-04-10T10:48:45.845Z</time></trkpt><trkpt lat="44.3275723" lon="5.249428"><ele>605.6</ele><time>2026-04-10T10:48:46.85Z</time></trkpt><trkpt lat="44.3276551" lon="5.2493994"><ele>607.2</ele><time>2026-04-10T10:48:47.848Z</time></trkpt><trkpt lat="44.3277454" lon="5.2493993"><ele>608.8000000000001</ele><time>2026-04-10T10:48:48.851Z</time></trkpt><trkpt lat="44.3278457" lon="5.2494443"><ele>610.4</ele><time>2026-04-10T10:48:49.847Z</time></trkpt><trkpt lat="44.3279423" lon="5.2494683"><ele>612.0</ele><time>2026-04-10T10:48:50.844Z</time></trkpt><trkpt lat="44.3280341" lon="5.2494774"><ele>611.4</ele><time>2026-04-10T10:48:51.85Z</time></trkpt><trkpt lat="44.3281144" lon="5.2494629"><ele>610.8000000000001</ele><time>2026-04-10T10:48:52.852Z</time></trkpt><trkpt lat="44.3281969" lon="5.2494176"><ele>610.2</ele><time>2026-04-10T10:48:53.849Z</time></trkpt><trkpt lat="44.3282802" lon="5.2493489"><ele>609.6</ele><time>2026-04-10T10:48:54.85Z</time></trkpt><trkpt lat="44.3283716" lon="5.2492649"><ele>609.0</ele><time>2026-04-10T10:48:55.853Z</time></trkpt><trkpt lat="44.3284789" lon="5.2491921"><ele>609.0</ele><time>2026-04-10T10:48:56.849Z</time></trkpt><trkpt lat="44.3285897" lon="5.2491499"><ele>609.0</ele><time>2026-04-10T10:48:57.845Z</time></trkpt><trkpt lat="44.328694" lon="5.249097"><ele>609.0</ele><time>2026-04-10T10:48:58.847Z</time></trkpt><trkpt lat="44.3287769" lon="5.2490082"><ele>609.0</ele><time>2026-04-10T10:48:59.853Z</time></trkpt><trkpt lat="44.3288321" lon="5.2488787"><ele>609.0</ele><time>2026-04-10T10:49:00.846Z</time></trkpt><trkpt lat="44.3288514" lon="5.2487269"><ele>612.0</ele><time>2026-04-10T10:49:01.85Z</time></trkpt><trkpt lat="44.3288525" lon="5.2485602"><ele>615.0</ele><time>2026-04-10T10:49:02.843Z</time></trkpt><trkpt lat="44.32884" lon="5.2483779"><ele>618.0</ele><time>2026-04-10T10:49:03.845Z</time></trkpt><trkpt lat="44.3288286" lon="5.248197"><ele>621.0</ele><time>2026-04-10T10:49:04.849Z</time></trkpt><trkpt lat="44.3288072" lon="5.2480112"><ele>622.75</ele><time>2026-04-10T10:49:05.849Z</time></trkpt><trkpt lat="44.3287554" lon="5.2478175"><ele>624.5</ele><time>2026-04-10T10:49:06.848Z</time></trkpt><trkpt lat="44.3286959" lon="5.2476265"><ele>626.25</ele><time>2026-04-10T10:49:07.845Z</time></trkpt><trkpt lat="44.328638" lon="5.2474552"><ele>628.0</ele><time>2026-04-10T10:49:08.849Z</time></trkpt><trkpt lat="44.3285892" lon="5.2472977"><ele>628.8</ele><time>2026-04-10T10:49:09.847Z</time></trkpt><trkpt lat="44.3285559" lon="5.247157"><ele>629.5999999999999</ele><time>2026-04-10T10:49:10.85Z</time></trkpt><trkpt lat="44.3285465" lon="5.2470174"><ele>630.4000000000001</ele><time>2026-04-10T10:49:11.854Z</time></trkpt><trkpt lat="44.3285833" lon="5.246891"><ele>631.2</ele><time>2026-04-10T10:49:12.844Z</time></trkpt><trkpt lat="44.3286247" lon="5.2467621"><ele>632.0</ele><time>2026-04-10T10:49:13.845Z</time></trkpt><trkpt lat="44.3286624" lon="5.2466181"><ele>631.4</ele><time>2026-04-10T10:49:14.844Z</time></trkpt><trkpt lat="44.3286636" lon="5.2464555"><ele>630.8000000000001</ele><time>2026-04-10T10:49:15.848Z</time></trkpt><trkpt lat="44.3286474" lon="5.2463117"><ele>630.2</ele><time>2026-04-10T10:49:16.845Z</time></trkpt><trkpt lat="44.3286008" lon="5.2461808"><ele>629.6</ele><time>2026-04-10T10:49:17.847Z</time></trkpt><trkpt lat="44.3285354" lon="5.2460673"><ele>629.0</ele><time>2026-04-10T10:49:18.847Z</time></trkpt><trkpt lat="44.3284423" lon="5.2459736"><ele>629.0</ele><time>2026-04-10T10:49:19.845Z</time></trkpt><trkpt lat="44.3283467" lon="5.2458909"><ele>629.0</ele><time>2026-04-10T10:49:20.849Z</time></trkpt><trkpt lat="44.3282675" lon="5.245785"><ele>629.0</ele><time>2026-04-10T10:49:21.851Z</time></trkpt><trkpt lat="44.3282126" lon="5.2456564"><ele>629.0</ele><time>2026-04-10T10:49:22.843Z</time></trkpt><trkpt lat="44.3282082" lon="5.2454845"><ele>628.0</ele><time>2026-04-10T10:49:23.849Z</time></trkpt><trkpt lat="44.3281741" lon="5.2453185"><ele>627.0</ele><time>2026-04-10T10:49:24.848Z</time></trkpt><trkpt lat="44.3281248" lon="5.2451567"><ele>626.0</ele><time>2026-04-10T10:49:25.847Z</time></trkpt><trkpt lat="44.3280739" lon="5.2450137"><ele>625.0</ele><time>2026-04-10T10:49:26.848Z</time></trkpt><trkpt lat="44.328002" lon="5.2449021"><ele>628.5</ele><time>2026-04-10T10:49:27.852Z</time></trkpt><trkpt lat="44.3279292" lon="5.2447907"><ele>632.0</ele><time>2026-04-10T10:49:28.847Z</time></trkpt><trkpt lat="44.3278724" lon="5.2447211"><ele>635.5</ele><time>2026-04-10T10:49:29.852Z</time></trkpt><trkpt lat="44.327835" lon="5.2446427"><ele>639.0</ele><time>2026-04-10T10:49:30.85Z</time></trkpt><trkpt lat="44.3278745" lon="5.2445183"><ele>642.5</ele><time>2026-04-10T10:49:31.849Z</time></trkpt><trkpt lat="44.3279389" lon="5.2444147"><ele>646.0</ele><time>2026-04-10T10:49:32.849Z</time></trkpt><trkpt lat="44.3280249" lon="5.2443112"><ele>647.75</ele><time>2026-04-10T10:49:33.846Z</time></trkpt><trkpt lat="44.3281233" lon="5.2442118"><ele>649.5</ele><time>2026-04-10T10:49:34.852Z</time></trkpt><trkpt lat="44.328224" lon="5.2440958"><ele>651.25</ele><time>2026-04-10T10:49:35.855Z</time></trkpt><trkpt lat="44.3283175" lon="5.2439614"><ele>653.0</ele><time>2026-04-10T10:49:36.855Z</time></trkpt><trkpt lat="44.328398" lon="5.2438157"><ele>653.0</ele><time>2026-04-10T10:49:37.846Z</time></trkpt><trkpt lat="44.3285006" lon="5.243692"><ele>653.0</ele><time>2026-04-10T10:49:38.847Z</time></trkpt><trkpt lat="44.328636" lon="5.2436368"><ele>653.0</ele><time>2026-04-10T10:49:39.845Z</time></trkpt><trkpt lat="44.3287735" lon="5.2435814"><ele>653.0</ele><time>2026-04-10T10:49:40.845Z</time></trkpt><trkpt lat="44.3289323" lon="5.2435527"><ele>651.3333333333333</ele><time>2026-04-10T10:49:41.853Z</time></trkpt><trkpt lat="44.3290867" lon="5.2435181"><ele>649.6666666666666</ele><time>2026-04-10T10:49:42.847Z</time></trkpt><trkpt lat="44.3292459" lon="5.2434581"><ele>648.0</ele><time>2026-04-10T10:49:43.848Z</time></trkpt><trkpt lat="44.3294066" lon="5.2433952"><ele>648.0</ele><time>2026-04-10T10:49:44.845Z</time></trkpt><trkpt lat="44.3295781" lon="5.2433434"><ele>648.0</ele><time>2026-04-10T10:49:45.851Z</time></trkpt><trkpt lat="44.3297476" lon="5.2432753"><ele>648.0</ele><time>2026-04-10T10:49:46.844Z</time></trkpt><trkpt lat="44.3299186" lon="5.2431898"><ele>654.3333333333334</ele><time>2026-04-10T10:49:47.851Z</time></trkpt><trkpt lat="44.330082" lon="5.243074"><ele>660.6666666666667</ele><time>2026-04-10T10:49:48.849Z</time></trkpt><trkpt lat="44.3302404" lon="5.2429519"><ele>667.0</ele><time>2026-04-10T10:49:49.851Z</time></trkpt><trkpt lat="44.3304046" lon="5.242824"><ele>662.3333333333334</ele><time>2026-04-10T10:49:50.847Z</time></trkpt><trkpt lat="44.3305688" lon="5.2426987"><ele>657.6666666666666</ele><time>2026-04-10T10:49:51.849Z</time></trkpt><trkpt lat="44.3307351" lon="5.242588"><ele>653.0</ele><time>2026-04-10T10:49:52.851Z</time></trkpt><trkpt lat="44.3308712" lon="5.2424854"><ele>653.0</ele><time>2026-04-10T10:49:53.85Z</time></trkpt><trkpt lat="44.3309867" lon="5.2424088"><ele>653.0</ele><time>2026-04-10T10:49:54.845Z</time></trkpt><trkpt lat="44.3310574" lon="5.242318"><ele>653.0</ele><time>2026-04-10T10:49:55.85Z</time></trkpt><trkpt lat="44.3310933" lon="5.2422236"><ele>653.0</ele><time>2026-04-10T10:49:56.846Z</time></trkpt><trkpt lat="44.3310904" lon="5.2421112"><ele>653.0</ele><time>2026-04-10T10:49:57.845Z</time></trkpt><trkpt lat="44.3310791" lon="5.2419868"><ele>654.8</ele><time>2026-04-10T10:49:58.848Z</time></trkpt><trkpt lat="44.3310671" lon="5.2418407"><ele>656.5999999999999</ele><time>2026-04-10T10:49:59.847Z</time></trkpt><trkpt lat="44.3310513" lon="5.2416979"><ele>658.4000000000001</ele><time>2026-04-10T10:50:00.844Z</time></trkpt><trkpt lat="44.3310226" lon="5.2415642"><ele>660.2</ele><time>2026-04-10T10:50:01.848Z</time></trkpt><trkpt lat="44.3309878" lon="5.2414485"><ele>662.0</ele><time>2026-04-10T10:50:02.851Z</time></trkpt><trkpt lat="44.3309432" lon="5.2413424"><ele>662.0</ele><time>2026-04-10T10:50:03.842Z</time></trkpt><trkpt lat="44.3308866" lon="5.2412517"><ele>662.0</ele><time>2026-04-10T10:50:04.846Z</time></trkpt><trkpt lat="44.3308253" lon="5.2411731"><ele>662.0</ele><time>2026-04-10T10:50:05.847Z</time></trkpt><trkpt lat="44.3307471" lon="5.2410897"><ele>662.0</ele><time>2026-04-10T10:50:06.852Z</time></trkpt><trkpt lat="44.3306716" lon="5.2410086"><ele>662.0</ele><time>2026-04-10T10:50:07.849Z</time></trkpt><trkpt lat="44.3305839" lon="5.2409113"><ele>664.5</ele><time>2026-04-10T10:50:08.848Z</time></trkpt><trkpt lat="44.3304882" lon="5.2408041"><ele>667.0</ele><time>2026-04-10T10:50:09.844Z</time></trkpt><trkpt lat="44.3303827" lon="5.240685"><ele>669.5</ele><time>2026-04-10T10:50:10.848Z</time></trkpt><trkpt lat="44.3302766" lon="5.240563"><ele>672.0</ele><time>2026-04-10T10:50:11.845Z</time></trkpt><trkpt lat="44.3301792" lon="5.2404347"><ele>672.0</ele><time>2026-04-10T10:50:12.847Z</time></trkpt><trkpt lat="44.3300854" lon="5.2402893"><ele>672.0</ele><time>2026-04-10T10:50:13.847Z</time></trkpt><trkpt lat="44.329989" lon="5.2401299"><ele>672.0</ele><time>2026-04-10T10:50:14.847Z</time></trkpt><trkpt lat="44.3298954" lon="5.2399651"><ele>672.0</ele><time>2026-04-10T10:50:15.848Z</time></trkpt><trkpt lat="44.3298055" lon="5.2398104"><ele>675.25</ele><time>2026-04-10T10:50:16.85Z</time></trkpt><trkpt lat="44.3297187" lon="5.2396537"><ele>678.5</ele><time>2026-04-10T10:50:17.848Z</time></trkpt><trkpt lat="44.3296271" lon="5.2394963"><ele>681.75</ele><time>2026-04-10T10:50:18.847Z</time></trkpt><trkpt lat="44.3295328" lon="5.2393317"><ele>685.0</ele><time>2026-04-10T10:50:19.85Z</time></trkpt><trkpt lat="44.3294211" lon="5.2391631"><ele>685.0</ele><time>2026-04-10T10:50:20.849Z</time></trkpt><trkpt lat="44.3293105" lon="5.2389901"><ele>685.0</ele><time>2026-04-10T10:50:21.876Z</time></trkpt><trkpt lat="44.3291945" lon="5.2388064"><ele>685.0</ele><time>2026-04-10T10:50:22.889Z</time></trkpt><trkpt lat="44.3290893" lon="5.2386113"><ele>683.3333333333334</ele><time>2026-04-10T10:50:23.868Z</time></trkpt><trkpt lat="44.3289814" lon="5.2384121"><ele>681.6666666666666</ele><time>2026-04-10T10:50:24.858Z</time></trkpt><trkpt lat="44.328881" lon="5.238236"><ele>680.0</ele><time>2026-04-10T10:50:25.853Z</time></trkpt><trkpt lat="44.3287836" lon="5.2380709"><ele>685.3333333333333</ele><time>2026-04-10T10:50:26.847Z</time></trkpt><trkpt lat="44.3286737" lon="5.2379103"><ele>690.6666666666666</ele><time>2026-04-10T10:50:27.855Z</time></trkpt><trkpt lat="44.3285724" lon="5.2377354"><ele>696.0</ele><time>2026-04-10T10:50:28.849Z</time></trkpt><trkpt lat="44.3284897" lon="5.2375423"><ele>696.0</ele><time>2026-04-10T10:50:29.852Z</time></trkpt><trkpt lat="44.3284388" lon="5.2373338"><ele>696.0</ele><time>2026-04-10T10:50:30.85Z</time></trkpt><trkpt lat="44.3284004" lon="5.2371164"><ele>696.0</ele><time>2026-04-10T10:50:31.851Z</time></trkpt><trkpt lat="44.3283687" lon="5.2369142"><ele>696.5</ele><time>2026-04-10T10:50:32.853Z</time></trkpt><trkpt lat="44.3283258" lon="5.2367408"><ele>697.0</ele><time>2026-04-10T10:50:33.853Z</time></trkpt><trkpt lat="44.3282782" lon="5.2365611"><ele>697.5</ele><time>2026-04-10T10:50:34.852Z</time></trkpt><trkpt lat="44.3282103" lon="5.2363965"><ele>698.0</ele><time>2026-04-10T10:50:35.849Z</time></trkpt><trkpt lat="44.3281472" lon="5.2362187"><ele>699.5</ele><time>2026-04-10T10:50:36.848Z</time></trkpt><trkpt lat="44.3280887" lon="5.2360381"><ele>701.0</ele><time>2026-04-10T10:50:37.875Z</time></trkpt><trkpt lat="44.3280216" lon="5.2358612"><ele>702.5</ele><time>2026-04-10T10:50:38.868Z</time></trkpt><trkpt lat="44.3279611" lon="5.2356831"><ele>704.0</ele><time>2026-04-10T10:50:39.851Z</time></trkpt><trkpt lat="44.3279012" lon="5.2355047"><ele>706.25</ele><time>2026-04-10T10:50:40.847Z</time></trkpt><trkpt lat="44.3278285" lon="5.2353297"><ele>708.5</ele><time>2026-04-10T10:50:41.846Z</time></trkpt><trkpt lat="44.3277505" lon="5.235174"><ele>710.75</ele><time>2026-04-10T10:50:42.849Z</time></trkpt><trkpt lat="44.327675" lon="5.2350343"><ele>713.0</ele><time>2026-04-10T10:50:43.846Z</time></trkpt><trkpt lat="44.3276097" lon="5.2349101"><ele>713.0</ele><time>2026-04-10T10:50:44.848Z</time></trkpt><trkpt lat="44.3275677" lon="5.2348158"><ele>713.0</ele><time>2026-04-10T10:50:45.848Z</time></trkpt><trkpt lat="44.3275554" lon="5.2347259"><ele>713.0</ele><time>2026-04-10T10:50:46.849Z</time></trkpt><trkpt lat="44.3275929" lon="5.2346534"><ele>713.0</ele><time>2026-04-10T10:50:47.849Z</time></trkpt><trkpt lat="44.3276827" lon="5.2346075"><ele>713.0</ele><time>2026-04-10T10:50:49.846Z</time></trkpt><trkpt lat="44.3277867" lon="5.2346691"><ele>713.0</ele><time>2026-04-10T10:50:50.846Z</time></trkpt><trkpt lat="44.3278931" lon="5.2347421"><ele>713.0</ele><time>2026-04-10T10:50:51.852Z</time></trkpt><trkpt lat="44.3280011" lon="5.2348158"><ele>713.0</ele><time>2026-04-10T10:50:52.846Z</time></trkpt><trkpt lat="44.328107" lon="5.2348968"><ele>713.0</ele><time>2026-04-10T10:50:53.85Z</time></trkpt><trkpt lat="44.3282358" lon="5.234964"><ele>713.0</ele><time>2026-04-10T10:50:54.844Z</time></trkpt><trkpt lat="44.3283468" lon="5.2350284"><ele>713.0</ele><time>2026-04-10T10:50:55.852Z</time></trkpt><trkpt lat="44.3284722" lon="5.2350446"><ele>713.0</ele><time>2026-04-10T10:50:56.846Z</time></trkpt><trkpt lat="44.3285916" lon="5.2350566"><ele>713.0</ele><time>2026-04-10T10:50:57.849Z</time></trkpt><trkpt lat="44.3287191" lon="5.2350452"><ele>713.0</ele><time>2026-04-10T10:50:58.844Z</time></trkpt><trkpt lat="44.3288215" lon="5.2350583"><ele>713.8</ele><time>2026-04-10T10:50:59.844Z</time></trkpt><trkpt lat="44.3289241" lon="5.2350495"><ele>714.5999999999999</ele><time>2026-04-10T10:51:00.843Z</time></trkpt><trkpt lat="44.3290212" lon="5.2350328"><ele>715.4000000000001</ele><time>2026-04-10T10:51:01.845Z</time></trkpt><trkpt lat="44.3291143" lon="5.2350071"><ele>716.2</ele><time>2026-04-10T10:51:02.848Z</time></trkpt><trkpt lat="44.3292306" lon="5.2349729"><ele>717.0</ele><time>2026-04-10T10:51:03.849Z</time></trkpt><trkpt lat="44.3293473" lon="5.2349421"><ele>717.0</ele><time>2026-04-10T10:51:04.846Z</time></trkpt><trkpt lat="44.329459" lon="5.2349533"><ele>717.0</ele><time>2026-04-10T10:51:05.851Z</time></trkpt><trkpt lat="44.3295864" lon="5.2349672"><ele>717.0</ele><time>2026-04-10T10:51:06.846Z</time></trkpt><trkpt lat="44.3297013" lon="5.2350146"><ele>717.0</ele><time>2026-04-10T10:51:07.845Z</time></trkpt><trkpt lat="44.3298116" lon="5.2350726"><ele>719.0</ele><time>2026-04-10T10:51:08.85Z</time></trkpt><trkpt lat="44.3299205" lon="5.2351285"><ele>721.0</ele><time>2026-04-10T10:51:09.844Z</time></trkpt><trkpt lat="44.3300129" lon="5.2352182"><ele>723.0</ele><time>2026-04-10T10:51:10.844Z</time></trkpt><trkpt lat="44.3301164" lon="5.2353086"><ele>725.0</ele><time>2026-04-10T10:51:11.843Z</time></trkpt><trkpt lat="44.3302155" lon="5.2353892"><ele>725.0</ele><time>2026-04-10T10:51:12.848Z</time></trkpt><trkpt lat="44.3303063" lon="5.2354514"><ele>725.0</ele><time>2026-04-10T10:51:13.851Z</time></trkpt><trkpt lat="44.3304006" lon="5.2355006"><ele>725.0</ele><time>2026-04-10T10:51:14.848Z</time></trkpt><trkpt lat="44.3304869" lon="5.2355457"><ele>725.0</ele><time>2026-04-10T10:51:15.85Z</time></trkpt><trkpt lat="44.3305705" lon="5.2355884"><ele>725.0</ele><time>2026-04-10T10:51:16.849Z</time></trkpt><trkpt lat="44.3306508" lon="5.2356233"><ele>723.3333333333333</ele><time>2026-04-10T10:51:17.844Z</time></trkpt><trkpt lat="44.3307191" lon="5.2356596"><ele>721.6666666666666</ele><time>2026-04-10T10:51:18.849Z</time></trkpt><trkpt lat="44.3307846" lon="5.2356923"><ele>720.0</ele><time>2026-04-10T10:51:19.843Z</time></trkpt><trkpt lat="44.3308464" lon="5.2357168"><ele>718.3333333333334</ele><time>2026-04-10T10:51:20.849Z</time></trkpt><trkpt lat="44.3309548" lon="5.2357492"><ele>716.6666666666667</ele><time>2026-04-10T10:51:22.847Z</time></trkpt><trkpt lat="44.3310185" lon="5.2357615"><ele>715.0</ele><time>2026-04-10T10:51:23.847Z</time></trkpt><trkpt lat="44.3311001" lon="5.2357706"><ele>715.0</ele><time>2026-04-10T10:51:24.849Z</time></trkpt><trkpt lat="44.331193" lon="5.2357827"><ele>715.0</ele><time>2026-04-10T10:51:25.842Z</time></trkpt><trkpt lat="44.3312902" lon="5.235802"><ele>715.0</ele><time>2026-04-10T10:51:26.847Z</time></trkpt><trkpt lat="44.3313919" lon="5.2358369"><ele>715.0</ele><time>2026-04-10T10:51:27.851Z</time></trkpt><trkpt lat="44.331505" lon="5.2358758"><ele>715.0</ele><time>2026-04-10T10:51:28.849Z</time></trkpt><trkpt lat="44.331623" lon="5.2359011"><ele>715.8333333333334</ele><time>2026-04-10T10:51:29.847Z</time></trkpt><trkpt lat="44.3317358" lon="5.2359187"><ele>716.6666666666667</ele><time>2026-04-10T10:51:30.849Z</time></trkpt><trkpt lat="44.3318379" lon="5.2359233"><ele>717.5</ele><time>2026-04-10T10:51:31.848Z</time></trkpt><trkpt lat="44.3319305" lon="5.2359225"><ele>718.3333333333334</ele><time>2026-04-10T10:51:32.846Z</time></trkpt><trkpt lat="44.3319951" lon="5.2359127"><ele>719.1666666666666</ele><time>2026-04-10T10:51:33.846Z</time></trkpt><trkpt lat="44.3320621" lon="5.2358818"><ele>720.0</ele><time>2026-04-10T10:51:34.848Z</time></trkpt><trkpt lat="44.3320589" lon="5.2357801"><ele>720.0</ele><time>2026-04-10T10:51:35.85Z</time></trkpt><trkpt lat="44.3320393" lon="5.235679"><ele>720.0</ele><time>2026-04-10T10:51:36.847Z</time></trkpt><trkpt lat="44.3319899" lon="5.2355677"><ele>720.0</ele><time>2026-04-10T10:51:37.851Z</time></trkpt><trkpt lat="44.3319139" lon="5.2354434"><ele>720.0</ele><time>2026-04-10T10:51:38.846Z</time></trkpt><trkpt lat="44.3318408" lon="5.2353043"><ele>720.0</ele><time>2026-04-10T10:51:39.854Z</time></trkpt><trkpt lat="44.3317668" lon="5.2351353"><ele>719.6666666666666</ele><time>2026-04-10T10:51:40.852Z</time></trkpt><trkpt lat="44.3316838" lon="5.2349581"><ele>719.3333333333333</ele><time>2026-04-10T10:51:41.848Z</time></trkpt><trkpt lat="44.3315966" lon="5.2347721"><ele>719.0</ele><time>2026-04-10T10:51:42.855Z</time></trkpt><trkpt lat="44.3315161" lon="5.2345827"><ele>722.6666666666666</ele><time>2026-04-10T10:51:43.852Z</time></trkpt><trkpt lat="44.3314389" lon="5.2343824"><ele>726.3333333333334</ele><time>2026-04-10T10:51:44.846Z</time></trkpt><trkpt lat="44.3313723" lon="5.2341588"><ele>730.0</ele><time>2026-04-10T10:51:45.852Z</time></trkpt><trkpt lat="44.331308" lon="5.2339461"><ele>730.0</ele><time>2026-04-10T10:51:46.843Z</time></trkpt><trkpt lat="44.3312394" lon="5.2337263"><ele>730.0</ele><time>2026-04-10T10:51:47.848Z</time></trkpt><trkpt lat="44.3311574" lon="5.2335188"><ele>730.0</ele><time>2026-04-10T10:51:48.848Z</time></trkpt><trkpt lat="44.33107" lon="5.2333138"><ele>723.3333333333334</ele><time>2026-04-10T10:51:49.845Z</time></trkpt><trkpt lat="44.3309733" lon="5.2330978"><ele>716.6666666666666</ele><time>2026-04-10T10:51:50.845Z</time></trkpt><trkpt lat="44.3308789" lon="5.2328791"><ele>710.0</ele><time>2026-04-10T10:51:51.85Z</time></trkpt><trkpt lat="44.3307735" lon="5.2326599"><ele>710.0</ele><time>2026-04-10T10:51:52.847Z</time></trkpt><trkpt lat="44.3306582" lon="5.2324448"><ele>710.0</ele><time>2026-04-10T10:51:53.851Z</time></trkpt><trkpt lat="44.3305345" lon="5.2322333"><ele>710.0</ele><time>2026-04-10T10:51:54.849Z</time></trkpt><trkpt lat="44.3304191" lon="5.232013"><ele>709.6666666666666</ele><time>2026-04-10T10:51:55.847Z</time></trkpt><trkpt lat="44.3303132" lon="5.2317918"><ele>709.3333333333334</ele><time>2026-04-10T10:51:56.845Z</time></trkpt><trkpt lat="44.3302215" lon="5.2315771"><ele>709.0</ele><time>2026-04-10T10:51:57.848Z</time></trkpt><trkpt lat="44.3301286" lon="5.2313754"><ele>709.0</ele><time>2026-04-10T10:51:58.849Z</time></trkpt><trkpt lat="44.3300386" lon="5.2311797"><ele>709.0</ele><time>2026-04-10T10:51:59.843Z</time></trkpt><trkpt lat="44.3299534" lon="5.2309803"><ele>709.0</ele><time>2026-04-10T10:52:00.849Z</time></trkpt><trkpt lat="44.3298726" lon="5.2307843"><ele>702.3333333333334</ele><time>2026-04-10T10:52:01.848Z</time></trkpt><trkpt lat="44.3298002" lon="5.2305866"><ele>695.6666666666666</ele><time>2026-04-10T10:52:02.846Z</time></trkpt><trkpt lat="44.329726" lon="5.2303838"><ele>689.0</ele><time>2026-04-10T10:52:03.85Z</time></trkpt><trkpt lat="44.3296575" lon="5.2301824"><ele>696.6666666666666</ele><time>2026-04-10T10:52:04.848Z</time></trkpt><trkpt lat="44.3295742" lon="5.2299971"><ele>704.3333333333334</ele><time>2026-04-10T10:52:05.843Z</time></trkpt><trkpt lat="44.3294993" lon="5.2298107"><ele>712.0</ele><time>2026-04-10T10:52:06.848Z</time></trkpt><trkpt lat="44.3294383" lon="5.2296326"><ele>712.0</ele><time>2026-04-10T10:52:07.846Z</time></trkpt><trkpt lat="44.3293855" lon="5.229481"><ele>712.0</ele><time>2026-04-10T10:52:08.846Z</time></trkpt><trkpt lat="44.3293203" lon="5.229358"><ele>712.0</ele><time>2026-04-10T10:52:09.85Z</time></trkpt><trkpt lat="44.3292411" lon="5.2292497"><ele>712.0</ele><time>2026-04-10T10:52:10.851Z</time></trkpt><trkpt lat="44.3291588" lon="5.2291648"><ele>712.0</ele><time>2026-04-10T10:52:11.849Z</time></trkpt><trkpt lat="44.3290709" lon="5.2291052"><ele>712.0</ele><time>2026-04-10T10:52:12.843Z</time></trkpt><trkpt lat="44.3289629" lon="5.2290697"><ele>712.0</ele><time>2026-04-10T10:52:13.843Z</time></trkpt><trkpt lat="44.3288568" lon="5.2290584"><ele>712.0</ele><time>2026-04-10T10:52:14.845Z</time></trkpt><trkpt lat="44.3287337" lon="5.2290495"><ele>712.0</ele><time>2026-04-10T10:52:15.846Z</time></trkpt><trkpt lat="44.3286086" lon="5.2290221"><ele>708.5</ele><time>2026-04-10T10:52:16.847Z</time></trkpt><trkpt lat="44.3284872" lon="5.2289687"><ele>705.0</ele><time>2026-04-10T10:52:17.847Z</time></trkpt><trkpt lat="44.3283602" lon="5.2289122"><ele>701.5</ele><time>2026-04-10T10:52:18.845Z</time></trkpt><trkpt lat="44.3282364" lon="5.2288573"><ele>698.0</ele><time>2026-04-10T10:52:19.843Z</time></trkpt><trkpt lat="44.3281161" lon="5.2287987"><ele>698.0</ele><time>2026-04-10T10:52:20.847Z</time></trkpt><trkpt lat="44.3279933" lon="5.2287444"><ele>698.0</ele><time>2026-04-10T10:52:21.849Z</time></trkpt><trkpt lat="44.3278664" lon="5.2287179"><ele>698.0</ele><time>2026-04-10T10:52:22.848Z</time></trkpt><trkpt lat="44.3277379" lon="5.2287053"><ele>698.0</ele><time>2026-04-10T10:52:23.849Z</time></trkpt><trkpt lat="44.3276049" lon="5.2287001"><ele>698.0</ele><time>2026-04-10T10:52:24.844Z</time></trkpt><trkpt lat="44.3274741" lon="5.228679"><ele>698.0</ele><time>2026-04-10T10:52:25.844Z</time></trkpt><trkpt lat="44.3273403" lon="5.228648"><ele>698.0</ele><time>2026-04-10T10:52:26.851Z</time></trkpt><trkpt lat="44.3271999" lon="5.228608"><ele>698.0</ele><time>2026-04-10T10:52:27.844Z</time></trkpt><trkpt lat="44.3270728" lon="5.2285384"><ele>697.5</ele><time>2026-04-10T10:52:28.85Z</time></trkpt><trkpt lat="44.3269413" lon="5.2284799"><ele>697.0</ele><time>2026-04-10T10:52:29.846Z</time></trkpt><trkpt lat="44.3268149" lon="5.2284301"><ele>696.5</ele><time>2026-04-10T10:52:30.851Z</time></trkpt><trkpt lat="44.3267002" lon="5.2283933"><ele>696.0</ele><time>2026-04-10T10:52:31.845Z</time></trkpt><trkpt lat="44.3265914" lon="5.2283711"><ele>696.0</ele><time>2026-04-10T10:52:32.85Z</time></trkpt><trkpt lat="44.326484" lon="5.228364"><ele>696.0</ele><time>2026-04-10T10:52:33.845Z</time></trkpt><trkpt lat="44.3263664" lon="5.2283646"><ele>696.0</ele><time>2026-04-10T10:52:34.844Z</time></trkpt><trkpt lat="44.3262427" lon="5.228376"><ele>696.0</ele><time>2026-04-10T10:52:35.845Z</time></trkpt><trkpt lat="44.3261241" lon="5.2284196"><ele>695.5</ele><time>2026-04-10T10:52:36.846Z</time></trkpt><trkpt lat="44.3260016" lon="5.2284679"><ele>695.0</ele><time>2026-04-10T10:52:37.85Z</time></trkpt><trkpt lat="44.3258867" lon="5.2285245"><ele>694.5</ele><time>2026-04-10T10:52:38.849Z</time></trkpt><trkpt lat="44.3257603" lon="5.2285641"><ele>694.0</ele><time>2026-04-10T10:52:39.846Z</time></trkpt><trkpt lat="44.3256298" lon="5.2285783"><ele>695.5</ele><time>2026-04-10T10:52:40.846Z</time></trkpt><trkpt lat="44.3255045" lon="5.2285475"><ele>697.0</ele><time>2026-04-10T10:52:41.844Z</time></trkpt><trkpt lat="44.3253773" lon="5.2284979"><ele>698.5</ele><time>2026-04-10T10:52:42.846Z</time></trkpt><trkpt lat="44.3253048" lon="5.2284052"><ele>700.0</ele><time>2026-04-10T10:52:43.847Z</time></trkpt><trkpt lat="44.325204" lon="5.2283628"><ele>700.0</ele><time>2026-04-10T10:52:44.844Z</time></trkpt><trkpt lat="44.3251089" lon="5.2283645"><ele>700.0</ele><time>2026-04-10T10:52:45.843Z</time></trkpt><trkpt lat="44.3250064" lon="5.2283721"><ele>700.0</ele><time>2026-04-10T10:52:46.847Z</time></trkpt><trkpt lat="44.3249025" lon="5.2283717"><ele>700.0</ele><time>2026-04-10T10:52:47.843Z</time></trkpt><trkpt lat="44.3247851" lon="5.2283577"><ele>700.0</ele><time>2026-04-10T10:52:48.852Z</time></trkpt><trkpt lat="44.3246703" lon="5.2283318"><ele>702.0</ele><time>2026-04-10T10:52:49.846Z</time></trkpt><trkpt lat="44.3245547" lon="5.2283105"><ele>704.0</ele><time>2026-04-10T10:52:50.844Z</time></trkpt><trkpt lat="44.324442" lon="5.2283026"><ele>706.0</ele><time>2026-04-10T10:52:51.844Z</time></trkpt><trkpt lat="44.3243474" lon="5.2283024"><ele>708.0</ele><time>2026-04-10T10:52:52.84Z</time></trkpt><trkpt lat="44.3242544" lon="5.2283027"><ele>710.0</ele><time>2026-04-10T10:52:53.844Z</time></trkpt><trkpt lat="44.3241782" lon="5.2283017"><ele>710.0</ele><time>2026-04-10T10:52:54.848Z</time></trkpt><trkpt lat="44.3240652" lon="5.2282139"><ele>710.0</ele><time>2026-04-10T10:52:56.842Z</time></trkpt><trkpt lat="44.3240073" lon="5.2281185"><ele>710.0</ele><time>2026-04-10T10:52:57.844Z</time></trkpt><trkpt lat="44.324006" lon="5.2279883"><ele>710.0</ele><time>2026-04-10T10:52:58.84Z</time></trkpt><trkpt lat="44.3240662" lon="5.2278281"><ele>710.0</ele><time>2026-04-10T10:52:59.843Z</time></trkpt><trkpt lat="44.3241333" lon="5.2276622"><ele>709.0</ele><time>2026-04-10T10:53:00.846Z</time></trkpt><trkpt lat="44.3242071" lon="5.2275334"><ele>708.0</ele><time>2026-04-10T10:53:01.845Z</time></trkpt><trkpt lat="44.3242726" lon="5.2273896"><ele>707.0</ele><time>2026-04-10T10:53:02.847Z</time></trkpt><trkpt lat="44.3243962" lon="5.2273114"><ele>706.0</ele><time>2026-04-10T10:53:03.847Z</time></trkpt><trkpt lat="44.3244801" lon="5.2272172"><ele>708.1999999999999</ele><time>2026-04-10T10:53:04.845Z</time></trkpt><trkpt lat="44.324534" lon="5.2271075"><ele>710.4</ele><time>2026-04-10T10:53:05.847Z</time></trkpt><trkpt lat="44.3245617" lon="5.2270011"><ele>712.6</ele><time>2026-04-10T10:53:06.846Z</time></trkpt><trkpt lat="44.3245601" lon="5.226867"><ele>714.8</ele><time>2026-04-10T10:53:07.843Z</time></trkpt><trkpt lat="44.3245249" lon="5.2267504"><ele>717.0</ele><time>2026-04-10T10:53:08.849Z</time></trkpt><trkpt lat="44.3245058" lon="5.2266087"><ele>719.5</ele><time>2026-04-10T10:53:09.843Z</time></trkpt><trkpt lat="44.3245226" lon="5.2264475"><ele>722.0</ele><time>2026-04-10T10:53:10.845Z</time></trkpt><trkpt lat="44.3245358" lon="5.2262751"><ele>724.5</ele><time>2026-04-10T10:53:11.848Z</time></trkpt><trkpt lat="44.3245719" lon="5.2260982"><ele>727.0</ele><time>2026-04-10T10:53:12.844Z</time></trkpt><trkpt lat="44.3246323" lon="5.2259407"><ele>727.0</ele><time>2026-04-10T10:53:13.85Z</time></trkpt><trkpt lat="44.3247071" lon="5.2257821"><ele>727.0</ele><time>2026-04-10T10:53:14.843Z</time></trkpt><trkpt lat="44.324772" lon="5.2256142"><ele>727.0</ele><time>2026-04-10T10:53:15.841Z</time></trkpt><trkpt lat="44.3248277" lon="5.225436"><ele>727.0</ele><time>2026-04-10T10:53:16.847Z</time></trkpt><trkpt lat="44.3248883" lon="5.2252532"><ele>728.5</ele><time>2026-04-10T10:53:17.843Z</time></trkpt><trkpt lat="44.3249828" lon="5.2251056"><ele>730.0</ele><time>2026-04-10T10:53:18.848Z</time></trkpt><trkpt lat="44.3250988" lon="5.2249746"><ele>731.5</ele><time>2026-04-10T10:53:19.845Z</time></trkpt><trkpt lat="44.3252285" lon="5.2248776"><ele>733.0</ele><time>2026-04-10T10:53:20.85Z</time></trkpt><trkpt lat="44.3253475" lon="5.2247599"><ele>733.0</ele><time>2026-04-10T10:53:21.846Z</time></trkpt><trkpt lat="44.3254588" lon="5.2246489"><ele>733.0</ele><time>2026-04-10T10:53:22.844Z</time></trkpt><trkpt lat="44.3255409" lon="5.2245442"><ele>733.0</ele><time>2026-04-10T10:53:23.843Z</time></trkpt><trkpt lat="44.3256139" lon="5.2244262"><ele>733.0</ele><time>2026-04-10T10:53:24.854Z</time></trkpt><trkpt lat="44.3256453" lon="5.2242811"><ele>727.25</ele><time>2026-04-10T10:53:25.844Z</time></trkpt><trkpt lat="44.3256606" lon="5.2241076"><ele>721.5</ele><time>2026-04-10T10:53:26.845Z</time></trkpt><trkpt lat="44.3256644" lon="5.2239145"><ele>715.75</ele><time>2026-04-10T10:53:27.845Z</time></trkpt><trkpt lat="44.3256441" lon="5.2237322"><ele>710.0</ele><time>2026-04-10T10:53:28.849Z</time></trkpt><trkpt lat="44.3255992" lon="5.2235639"><ele>713.5</ele><time>2026-04-10T10:53:29.842Z</time></trkpt><trkpt lat="44.3255206" lon="5.2234061"><ele>717.0</ele><time>2026-04-10T10:53:30.847Z</time></trkpt><trkpt lat="44.325412" lon="5.2232671"><ele>720.5</ele><time>2026-04-10T10:53:31.85Z</time></trkpt><trkpt lat="44.3252984" lon="5.2231215"><ele>724.0</ele><time>2026-04-10T10:53:32.847Z</time></trkpt><trkpt lat="44.3252083" lon="5.2229404"><ele>724.0</ele><time>2026-04-10T10:53:33.85Z</time></trkpt><trkpt lat="44.3251195" lon="5.2227437"><ele>724.0</ele><time>2026-04-10T10:53:34.844Z</time></trkpt><trkpt lat="44.3250277" lon="5.2225581"><ele>724.0</ele><time>2026-04-10T10:53:35.851Z</time></trkpt><trkpt lat="44.3249319" lon="5.222406"><ele>722.0</ele><time>2026-04-10T10:53:36.843Z</time></trkpt><trkpt lat="44.3248402" lon="5.2222568"><ele>720.0</ele><time>2026-04-10T10:53:37.846Z</time></trkpt><trkpt lat="44.3247892" lon="5.2220804"><ele>718.0</ele><time>2026-04-10T10:53:38.848Z</time></trkpt><trkpt lat="44.324752" lon="5.2218972"><ele>716.0</ele><time>2026-04-10T10:53:39.843Z</time></trkpt><trkpt lat="44.3247097" lon="5.2217068"><ele>722.0</ele><time>2026-04-10T10:53:40.848Z</time></trkpt><trkpt lat="44.3246581" lon="5.221519"><ele>728.0</ele><time>2026-04-10T10:53:41.845Z</time></trkpt><trkpt lat="44.3245973" lon="5.2213352"><ele>734.0</ele><time>2026-04-10T10:53:42.842Z</time></trkpt><trkpt lat="44.324539" lon="5.2211682"><ele>740.0</ele><time>2026-04-10T10:53:43.846Z</time></trkpt><trkpt lat="44.3244839" lon="5.2210179"><ele>740.0</ele><time>2026-04-10T10:53:44.843Z</time></trkpt><trkpt lat="44.3244313" lon="5.2208932"><ele>740.0</ele><time>2026-04-10T10:53:45.844Z</time></trkpt><trkpt lat="44.324375" lon="5.2207822"><ele>740.0</ele><time>2026-04-10T10:53:46.845Z</time></trkpt><trkpt lat="44.32432" lon="5.2206708"><ele>740.0</ele><time>2026-04-10T10:53:47.846Z</time></trkpt><trkpt lat="44.3242613" lon="5.2205632"><ele>740.0</ele><time>2026-04-10T10:53:48.847Z</time></trkpt><trkpt lat="44.3242071" lon="5.2204526"><ele>739.0</ele><time>2026-04-10T10:53:49.848Z</time></trkpt><trkpt lat="44.3241521" lon="5.2203368"><ele>738.0</ele><time>2026-04-10T10:53:50.848Z</time></trkpt><trkpt lat="44.3240931" lon="5.2202308"><ele>737.0</ele><time>2026-04-10T10:53:51.855Z</time></trkpt><trkpt lat="44.3240371" lon="5.2201165"><ele>736.0</ele><time>2026-04-10T10:53:52.848Z</time></trkpt><trkpt lat="44.3240067" lon="5.2200028"><ele>735.0</ele><time>2026-04-10T10:53:53.845Z</time></trkpt><trkpt lat="44.3239851" lon="5.219867"><ele>734.8</ele><time>2026-04-10T10:53:54.848Z</time></trkpt><trkpt lat="44.323992" lon="5.2197249"><ele>734.6</ele><time>2026-04-10T10:53:55.85Z</time></trkpt><trkpt lat="44.324012" lon="5.2195929"><ele>734.4000000000001</ele><time>2026-04-10T10:53:56.849Z</time></trkpt><trkpt lat="44.3240276" lon="5.2194727"><ele>734.2</ele><time>2026-04-10T10:53:57.849Z</time></trkpt><trkpt lat="44.3240624" lon="5.2193662"><ele>734.0</ele><time>2026-04-10T10:53:58.849Z</time></trkpt><trkpt lat="44.32411" lon="5.2192653"><ele>734.0</ele><time>2026-04-10T10:53:59.847Z</time></trkpt><trkpt lat="44.3241885" lon="5.2192282"><ele>734.0</ele><time>2026-04-10T10:54:00.85Z</time></trkpt><trkpt lat="44.3242734" lon="5.2191991"><ele>734.0</ele><time>2026-04-10T10:54:01.847Z</time></trkpt><trkpt lat="44.3243672" lon="5.2192149"><ele>734.0</ele><time>2026-04-10T10:54:02.851Z</time></trkpt><trkpt lat="44.3244637" lon="5.2192288"><ele>734.0</ele><time>2026-04-10T10:54:03.848Z</time></trkpt><trkpt lat="44.3245642" lon="5.2192481"><ele>734.0</ele><time>2026-04-10T10:54:04.842Z</time></trkpt><trkpt lat="44.3246661" lon="5.219269"><ele>734.0</ele><time>2026-04-10T10:54:05.846Z</time></trkpt><trkpt lat="44.3247593" lon="5.2192851"><ele>734.0</ele><time>2026-04-10T10:54:06.842Z</time></trkpt><trkpt lat="44.3248502" lon="5.2192936"><ele>734.0</ele><time>2026-04-10T10:54:07.844Z</time></trkpt><trkpt lat="44.3249324" lon="5.2193032"><ele>734.0</ele><time>2026-04-10T10:54:08.851Z</time></trkpt><trkpt lat="44.325018" lon="5.219305"><ele>733.5</ele><time>2026-04-10T10:54:09.844Z</time></trkpt><trkpt lat="44.3250904" lon="5.2192903"><ele>733.0</ele><time>2026-04-10T10:54:10.851Z</time></trkpt><trkpt lat="44.325159" lon="5.2192617"><ele>732.5</ele><time>2026-04-10T10:54:11.844Z</time></trkpt><trkpt lat="44.3252223" lon="5.2192089"><ele>732.0</ele><time>2026-04-10T10:54:12.851Z</time></trkpt><trkpt lat="44.3252989" lon="5.2191495"><ele>731.5</ele><time>2026-04-10T10:54:13.845Z</time></trkpt><trkpt lat="44.3253833" lon="5.2190794"><ele>731.0</ele><time>2026-04-10T10:54:14.85Z</time></trkpt><trkpt lat="44.3254711" lon="5.2190279"><ele>729.4</ele><time>2026-04-10T10:54:15.849Z</time></trkpt><trkpt lat="44.3255623" lon="5.2189845"><ele>727.8</ele><time>2026-04-10T10:54:16.858Z</time></trkpt><trkpt lat="44.3256541" lon="5.2189355"><ele>726.1999999999999</ele><time>2026-04-10T10:54:17.844Z</time></trkpt><trkpt lat="44.3257365" lon="5.2188749"><ele>724.5999999999999</ele><time>2026-04-10T10:54:18.843Z</time></trkpt><trkpt lat="44.3258028" lon="5.2188"><ele>723.0</ele><time>2026-04-10T10:54:19.842Z</time></trkpt><trkpt lat="44.3258704" lon="5.2186946"><ele>723.0</ele><time>2026-04-10T10:54:20.845Z</time></trkpt><trkpt lat="44.3259368" lon="5.2185725"><ele>723.0</ele><time>2026-04-10T10:54:21.849Z</time></trkpt><trkpt lat="44.3260085" lon="5.2184483"><ele>723.0</ele><time>2026-04-10T10:54:22.843Z</time></trkpt><trkpt lat="44.3260842" lon="5.2183204"><ele>723.0</ele><time>2026-04-10T10:54:23.848Z</time></trkpt><trkpt lat="44.3261506" lon="5.2181978"><ele>723.0</ele><time>2026-04-10T10:54:24.848Z</time></trkpt><trkpt lat="44.3262121" lon="5.2180944"><ele>723.0</ele><time>2026-04-10T10:54:25.846Z</time></trkpt><trkpt lat="44.3262781" lon="5.218024"><ele>723.0</ele><time>2026-04-10T10:54:26.844Z</time></trkpt><trkpt lat="44.3263587" lon="5.2179834"><ele>723.0</ele><time>2026-04-10T10:54:27.846Z</time></trkpt><trkpt lat="44.3264475" lon="5.2179477"><ele>723.0</ele><time>2026-04-10T10:54:28.845Z</time></trkpt><trkpt lat="44.3265674" lon="5.2179"><ele>723.2</ele><time>2026-04-10T10:54:29.847Z</time></trkpt><trkpt lat="44.3266632" lon="5.217839"><ele>723.4</ele><time>2026-04-10T10:54:30.863Z</time></trkpt><trkpt lat="44.326757" lon="5.2177736"><ele>723.6</ele><time>2026-04-10T10:54:31.855Z</time></trkpt><trkpt lat="44.3268595" lon="5.2177173"><ele>723.8000000000001</ele><time>2026-04-10T10:54:32.853Z</time></trkpt><trkpt lat="44.3269576" lon="5.2176642"><ele>724.0</ele><time>2026-04-10T10:54:33.852Z</time></trkpt><trkpt lat="44.3270501" lon="5.2176133"><ele>724.0</ele><time>2026-04-10T10:54:34.843Z</time></trkpt><trkpt lat="44.3271452" lon="5.2175597"><ele>724.0</ele><time>2026-04-10T10:54:35.843Z</time></trkpt><trkpt lat="44.3272278" lon="5.2174831"><ele>724.0</ele><time>2026-04-10T10:54:36.843Z</time></trkpt><trkpt lat="44.3273057" lon="5.2174036"><ele>724.0</ele><time>2026-04-10T10:54:37.848Z</time></trkpt><trkpt lat="44.3273899" lon="5.2173313"><ele>724.0</ele><time>2026-04-10T10:54:38.846Z</time></trkpt><trkpt lat="44.3274759" lon="5.2172849"><ele>720.6666666666667</ele><time>2026-04-10T10:54:39.845Z</time></trkpt><trkpt lat="44.3275597" lon="5.2172519"><ele>717.3333333333334</ele><time>2026-04-10T10:54:40.847Z</time></trkpt><trkpt lat="44.3276487" lon="5.2172116"><ele>714.0</ele><time>2026-04-10T10:54:41.852Z</time></trkpt><trkpt lat="44.3277356" lon="5.2171719"><ele>710.6666666666666</ele><time>2026-04-10T10:54:42.846Z</time></trkpt><trkpt lat="44.327808" lon="5.2171218"><ele>707.3333333333333</ele><time>2026-04-10T10:54:43.848Z</time></trkpt><trkpt lat="44.3278791" lon="5.2170489"><ele>704.0</ele><time>2026-04-10T10:54:44.851Z</time></trkpt><trkpt lat="44.3279416" lon="5.2169624"><ele>704.0</ele><time>2026-04-10T10:54:45.845Z</time></trkpt><trkpt lat="44.3280026" lon="5.2168704"><ele>704.0</ele><time>2026-04-10T10:54:46.849Z</time></trkpt><trkpt lat="44.3279992" lon="5.2167271"><ele>704.0</ele><time>2026-04-10T10:54:47.846Z</time></trkpt><trkpt lat="44.3280213" lon="5.2165955"><ele>704.0</ele><time>2026-04-10T10:54:48.844Z</time></trkpt><trkpt lat="44.3280535" lon="5.2164615"><ele>704.0</ele><time>2026-04-10T10:54:49.845Z</time></trkpt><trkpt lat="44.3281441" lon="5.2163958"><ele>702.0</ele><time>2026-04-10T10:54:50.846Z</time></trkpt><trkpt lat="44.3282174" lon="5.2162959"><ele>700.0</ele><time>2026-04-10T10:54:51.842Z</time></trkpt><trkpt lat="44.3282942" lon="5.2162142"><ele>698.0</ele><time>2026-04-10T10:54:52.846Z</time></trkpt><trkpt lat="44.3283891" lon="5.2161271"><ele>696.0</ele><time>2026-04-10T10:54:53.851Z</time></trkpt><trkpt lat="44.3284888" lon="5.2160614"><ele>694.0</ele><time>2026-04-10T10:54:54.848Z</time></trkpt><trkpt lat="44.3285891" lon="5.2159905"><ele>694.0</ele><time>2026-04-10T10:54:55.844Z</time></trkpt><trkpt lat="44.3286836" lon="5.2158992"><ele>694.0</ele><time>2026-04-10T10:54:56.844Z</time></trkpt><trkpt lat="44.3287713" lon="5.2158122"><ele>694.0</ele><time>2026-04-10T10:54:57.846Z</time></trkpt><trkpt lat="44.3288645" lon="5.2157439"><ele>694.0</ele><time>2026-04-10T10:54:58.843Z</time></trkpt><trkpt lat="44.328968" lon="5.2157101"><ele>694.0</ele><time>2026-04-10T10:54:59.844Z</time></trkpt><trkpt lat="44.3290891" lon="5.2156677"><ele>690.25</ele><time>2026-04-10T10:55:00.849Z</time></trkpt><trkpt lat="44.3292125" lon="5.2156366"><ele>686.5</ele><time>2026-04-10T10:55:01.846Z</time></trkpt><trkpt lat="44.3293281" lon="5.2156117"><ele>682.75</ele><time>2026-04-10T10:55:02.85Z</time></trkpt><trkpt lat="44.3294619" lon="5.2156091"><ele>679.0</ele><time>2026-04-10T10:55:03.848Z</time></trkpt><trkpt lat="44.3295678" lon="5.2156262"><ele>679.0</ele><time>2026-04-10T10:55:04.846Z</time></trkpt><trkpt lat="44.3296898" lon="5.2156362"><ele>679.0</ele><time>2026-04-10T10:55:05.848Z</time></trkpt><trkpt lat="44.3298016" lon="5.2156238"><ele>679.0</ele><time>2026-04-10T10:55:06.846Z</time></trkpt><trkpt lat="44.3299138" lon="5.2156102"><ele>679.0</ele><time>2026-04-10T10:55:07.851Z</time></trkpt><trkpt lat="44.3300247" lon="5.2155824"><ele>678.5</ele><time>2026-04-10T10:55:08.846Z</time></trkpt><trkpt lat="44.3301273" lon="5.215573"><ele>678.0</ele><time>2026-04-10T10:55:09.845Z</time></trkpt><trkpt lat="44.3302227" lon="5.2155949"><ele>677.5</ele><time>2026-04-10T10:55:10.84Z</time></trkpt><trkpt lat="44.3303105" lon="5.2156043"><ele>677.0</ele><time>2026-04-10T10:55:11.841Z</time></trkpt><trkpt lat="44.3303836" lon="5.2155835"><ele>676.5</ele><time>2026-04-10T10:55:12.845Z</time></trkpt><trkpt lat="44.3304609" lon="5.2155364"><ele>676.0</ele><time>2026-04-10T10:55:13.842Z</time></trkpt><trkpt lat="44.3305163" lon="5.2154458"><ele>676.5999999999999</ele><time>2026-04-10T10:55:14.843Z</time></trkpt><trkpt lat="44.3305723" lon="5.2153487"><ele>677.2</ele><time>2026-04-10T10:55:15.842Z</time></trkpt><trkpt lat="44.3306562" lon="5.2152801"><ele>677.8</ele><time>2026-04-10T10:55:16.844Z</time></trkpt><trkpt lat="44.3307614" lon="5.2152256"><ele>678.4000000000001</ele><time>2026-04-10T10:55:17.842Z</time></trkpt><trkpt lat="44.3308714" lon="5.2151878"><ele>679.0</ele><time>2026-04-10T10:55:18.842Z</time></trkpt><trkpt lat="44.3309859" lon="5.21514"><ele>679.0</ele><time>2026-04-10T10:55:19.844Z</time></trkpt><trkpt lat="44.3310885" lon="5.215089"><ele>679.0</ele><time>2026-04-10T10:55:20.841Z</time></trkpt><trkpt lat="44.3311924" lon="5.2150388"><ele>679.0</ele><time>2026-04-10T10:55:21.85Z</time></trkpt><trkpt lat="44.3312944" lon="5.2149724"><ele>679.0</ele><time>2026-04-10T10:55:22.842Z</time></trkpt><trkpt lat="44.331395" lon="5.2148982"><ele>679.0</ele><time>2026-04-10T10:55:23.841Z</time></trkpt><trkpt lat="44.3314986" lon="5.2148164"><ele>675.5</ele><time>2026-04-10T10:55:24.849Z</time></trkpt><trkpt lat="44.3315966" lon="5.2147556"><ele>672.0</ele><time>2026-04-10T10:55:25.846Z</time></trkpt><trkpt lat="44.3316961" lon="5.2146869"><ele>668.5</ele><time>2026-04-10T10:55:26.842Z</time></trkpt><trkpt lat="44.3317946" lon="5.2146026"><ele>665.0</ele><time>2026-04-10T10:55:27.84Z</time></trkpt><trkpt lat="44.3318973" lon="5.2145194"><ele>665.0</ele><time>2026-04-10T10:55:28.844Z</time></trkpt><trkpt lat="44.3319955" lon="5.2144388"><ele>665.0</ele><time>2026-04-10T10:55:29.841Z</time></trkpt><trkpt lat="44.332098" lon="5.2143399"><ele>665.0</ele><time>2026-04-10T10:55:30.845Z</time></trkpt><trkpt lat="44.3321998" lon="5.2142472"><ele>665.0</ele><time>2026-04-10T10:55:31.845Z</time></trkpt><trkpt lat="44.3323039" lon="5.2141756"><ele>667.5</ele><time>2026-04-10T10:55:32.844Z</time></trkpt><trkpt lat="44.3324013" lon="5.2140883"><ele>670.0</ele><time>2026-04-10T10:55:33.849Z</time></trkpt><trkpt lat="44.3325006" lon="5.2140009"><ele>672.5</ele><time>2026-04-10T10:55:34.849Z</time></trkpt><trkpt lat="44.3326011" lon="5.2139155"><ele>675.0</ele><time>2026-04-10T10:55:35.846Z</time></trkpt><trkpt lat="44.3326934" lon="5.2138483"><ele>671.75</ele><time>2026-04-10T10:55:36.847Z</time></trkpt><trkpt lat="44.3328002" lon="5.2137899"><ele>668.5</ele><time>2026-04-10T10:55:37.845Z</time></trkpt><trkpt lat="44.3329037" lon="5.2137279"><ele>665.25</ele><time>2026-04-10T10:55:38.851Z</time></trkpt><trkpt lat="44.3330109" lon="5.2136849"><ele>662.0</ele><time>2026-04-10T10:55:39.847Z</time></trkpt><trkpt lat="44.333115" lon="5.2136297"><ele>662.0</ele><time>2026-04-10T10:55:40.849Z</time></trkpt><trkpt lat="44.3332203" lon="5.2135693"><ele>662.0</ele><time>2026-04-10T10:55:41.848Z</time></trkpt><trkpt lat="44.3333086" lon="5.2134719"><ele>662.0</ele><time>2026-04-10T10:55:42.842Z</time></trkpt><trkpt lat="44.3333867" lon="5.2133736"><ele>662.0</ele><time>2026-04-10T10:55:43.847Z</time></trkpt><trkpt lat="44.3334689" lon="5.213288"><ele>662.0</ele><time>2026-04-10T10:55:44.843Z</time></trkpt><trkpt lat="44.3335545" lon="5.2132125"><ele>662.0</ele><time>2026-04-10T10:55:45.843Z</time></trkpt><trkpt lat="44.3336531" lon="5.2132424"><ele>662.0</ele><time>2026-04-10T10:55:46.848Z</time></trkpt><trkpt lat="44.3337509" lon="5.2132856"><ele>662.0</ele><time>2026-04-10T10:55:47.848Z</time></trkpt><trkpt lat="44.333851" lon="5.213323"><ele>662.0</ele><time>2026-04-10T10:55:48.841Z</time></trkpt><trkpt lat="44.3339534" lon="5.2133696"><ele>662.0</ele><time>2026-04-10T10:55:49.845Z</time></trkpt><trkpt lat="44.334059" lon="5.2134366"><ele>662.0</ele><time>2026-04-10T10:55:50.854Z</time></trkpt><trkpt lat="44.3341696" lon="5.2134872"><ele>662.0</ele><time>2026-04-10T10:55:51.845Z</time></trkpt><trkpt lat="44.3342796" lon="5.2135313"><ele>662.0</ele><time>2026-04-10T10:55:52.85Z</time></trkpt><trkpt lat="44.3343886" lon="5.2135658"><ele>662.0</ele><time>2026-04-10T10:55:53.847Z</time></trkpt><trkpt lat="44.3344987" lon="5.2135741"><ele>662.0</ele><time>2026-04-10T10:55:54.849Z</time></trkpt><trkpt lat="44.334599" lon="5.2135715"><ele>662.0</ele><time>2026-04-10T10:55:55.848Z</time></trkpt><trkpt lat="44.3346777" lon="5.2135862"><ele>662.0</ele><time>2026-04-10T10:55:56.846Z</time></trkpt><trkpt lat="44.3347528" lon="5.2136346"><ele>662.0</ele><time>2026-04-10T10:55:57.846Z</time></trkpt><trkpt lat="44.3348045" lon="5.2137146"><ele>662.0</ele><time>2026-04-10T10:55:58.843Z</time></trkpt><trkpt lat="44.3348465" lon="5.2138227"><ele>662.0</ele><time>2026-04-10T10:55:59.849Z</time></trkpt><trkpt lat="44.334871" lon="5.2139684"><ele>660.0</ele><time>2026-04-10T10:56:00.85Z</time></trkpt><trkpt lat="44.33488" lon="5.2141285"><ele>658.0</ele><time>2026-04-10T10:56:01.842Z</time></trkpt><trkpt lat="44.3348805" lon="5.2142707"><ele>656.0</ele><time>2026-04-10T10:56:02.844Z</time></trkpt><trkpt lat="44.3348791" lon="5.2144082"><ele>654.0</ele><time>2026-04-10T10:56:03.844Z</time></trkpt><trkpt lat="44.3348819" lon="5.2145344"><ele>652.0</ele><time>2026-04-10T10:56:04.842Z</time></trkpt><trkpt lat="44.3349166" lon="5.214695"><ele>652.0</ele><time>2026-04-10T10:56:06.846Z</time></trkpt><trkpt lat="44.3349602" lon="5.2147659"><ele>652.0</ele><time>2026-04-10T10:56:07.844Z</time></trkpt><trkpt lat="44.3350831" lon="5.2147524"><ele>652.0</ele><time>2026-04-10T10:56:09.842Z</time></trkpt><trkpt lat="44.3351722" lon="5.2147001"><ele>652.0</ele><time>2026-04-10T10:56:10.844Z</time></trkpt><trkpt lat="44.3352923" lon="5.2146258"><ele>652.0</ele><time>2026-04-10T10:56:11.846Z</time></trkpt><trkpt lat="44.3354391" lon="5.2146204"><ele>648.75</ele><time>2026-04-10T10:56:12.854Z</time></trkpt><trkpt lat="44.3355584" lon="5.2146133"><ele>645.5</ele><time>2026-04-10T10:56:13.841Z</time></trkpt><trkpt lat="44.3356743" lon="5.2146187"><ele>642.25</ele><time>2026-04-10T10:56:14.847Z</time></trkpt><trkpt lat="44.3357806" lon="5.2146094"><ele>639.0</ele><time>2026-04-10T10:56:15.845Z</time></trkpt><trkpt lat="44.3359163" lon="5.2145598"><ele>639.0</ele><time>2026-04-10T10:56:16.844Z</time></trkpt><trkpt lat="44.3360395" lon="5.2144994"><ele>639.0</ele><time>2026-04-10T10:56:17.847Z</time></trkpt><trkpt lat="44.3361778" lon="5.2144252"><ele>639.0</ele><time>2026-04-10T10:56:18.849Z</time></trkpt><trkpt lat="44.336299" lon="5.2143333"><ele>639.0</ele><time>2026-04-10T10:56:19.849Z</time></trkpt><trkpt lat="44.3364165" lon="5.2142499"><ele>640.5</ele><time>2026-04-10T10:56:20.844Z</time></trkpt><trkpt lat="44.3365299" lon="5.2141794"><ele>642.0</ele><time>2026-04-10T10:56:21.848Z</time></trkpt><trkpt lat="44.3366334" lon="5.214101"><ele>643.5</ele><time>2026-04-10T10:56:22.848Z</time></trkpt><trkpt lat="44.3367314" lon="5.2140178"><ele>645.0</ele><time>2026-04-10T10:56:23.849Z</time></trkpt><trkpt lat="44.3368155" lon="5.2139184"><ele>641.8</ele><time>2026-04-10T10:56:24.846Z</time></trkpt><trkpt lat="44.3368978" lon="5.2138401"><ele>638.6</ele><time>2026-04-10T10:56:25.849Z</time></trkpt><trkpt lat="44.336978" lon="5.2137759"><ele>635.4</ele><time>2026-04-10T10:56:26.846Z</time></trkpt><trkpt lat="44.3370622" lon="5.2137494"><ele>632.2</ele><time>2026-04-10T10:56:27.844Z</time></trkpt><trkpt lat="44.3371401" lon="5.213795"><ele>629.0</ele><time>2026-04-10T10:56:28.849Z</time></trkpt><trkpt lat="44.3372258" lon="5.2138545"><ele>629.0</ele><time>2026-04-10T10:56:29.844Z</time></trkpt><trkpt lat="44.3373228" lon="5.2138885"><ele>629.0</ele><time>2026-04-10T10:56:30.842Z</time></trkpt><trkpt lat="44.3374229" lon="5.2139024"><ele>629.0</ele><time>2026-04-10T10:56:31.843Z</time></trkpt><trkpt lat="44.3375261" lon="5.2138787"><ele>629.0</ele><time>2026-04-10T10:56:32.845Z</time></trkpt><trkpt lat="44.3376166" lon="5.2138045"><ele>629.0</ele><time>2026-04-10T10:56:33.847Z</time></trkpt><trkpt lat="44.3376845" lon="5.2136632"><ele>629.0</ele><time>2026-04-10T10:56:34.847Z</time></trkpt><trkpt lat="44.3377493" lon="5.2135259"><ele>629.0</ele><time>2026-04-10T10:56:35.848Z</time></trkpt><trkpt lat="44.337819" lon="5.2134124"><ele>629.0</ele><time>2026-04-10T10:56:36.849Z</time></trkpt><trkpt lat="44.3378995" lon="5.2133515"><ele>629.0</ele><time>2026-04-10T10:56:37.84Z</time></trkpt><trkpt lat="44.3379914" lon="5.213289"><ele>629.0</ele><time>2026-04-10T10:56:38.844Z</time></trkpt><trkpt lat="44.3380958" lon="5.2132426"><ele>630.0</ele><time>2026-04-10T10:56:39.846Z</time></trkpt><trkpt lat="44.3382117" lon="5.2132117"><ele>631.0</ele><time>2026-04-10T10:56:40.853Z</time></trkpt><trkpt lat="44.33839" lon="5.213199"><ele>632.0</ele><time>2026-04-10T10:56:41.843Z</time></trkpt><trkpt lat="44.3385714" lon="5.2131795"><ele>623.0</ele><time>2026-04-10T10:56:42.849Z</time></trkpt><trkpt lat="44.3387294" lon="5.2131367"><ele>614.0</ele><time>2026-04-10T10:56:43.848Z</time></trkpt><trkpt lat="44.3388725" lon="5.213095"><ele>605.0</ele><time>2026-04-10T10:56:44.845Z</time></trkpt><trkpt lat="44.3390143" lon="5.2130604"><ele>602.5</ele><time>2026-04-10T10:56:45.845Z</time></trkpt><trkpt lat="44.3391508" lon="5.2130232"><ele>600.0</ele><time>2026-04-10T10:56:46.843Z</time></trkpt><trkpt lat="44.3392805" lon="5.2130257"><ele>597.5</ele><time>2026-04-10T10:56:47.844Z</time></trkpt><trkpt lat="44.3394111" lon="5.213054"><ele>595.0</ele><time>2026-04-10T10:56:48.841Z</time></trkpt><trkpt lat="44.3395282" lon="5.213078"><ele>595.0</ele><time>2026-04-10T10:56:49.844Z</time></trkpt><trkpt lat="44.3396408" lon="5.2131105"><ele>595.0</ele><time>2026-04-10T10:56:50.848Z</time></trkpt><trkpt lat="44.339735" lon="5.2131578"><ele>595.0</ele><time>2026-04-10T10:56:51.844Z</time></trkpt><trkpt lat="44.3398098" lon="5.2132104"><ele>595.0</ele><time>2026-04-10T10:56:52.844Z</time></trkpt><trkpt lat="44.3398773" lon="5.2132548"><ele>595.0</ele><time>2026-04-10T10:56:53.845Z</time></trkpt><trkpt lat="44.3399307" lon="5.2133066"><ele>595.0</ele><time>2026-04-10T10:56:54.843Z</time></trkpt><trkpt lat="44.3399705" lon="5.2133931"><ele>598.4</ele><time>2026-04-10T10:56:55.846Z</time></trkpt><trkpt lat="44.3400165" lon="5.2134768"><ele>601.8</ele><time>2026-04-10T10:56:56.848Z</time></trkpt><trkpt lat="44.3400344" lon="5.2136003"><ele>605.2</ele><time>2026-04-10T10:56:57.846Z</time></trkpt><trkpt lat="44.3400634" lon="5.2137245"><ele>608.6</ele><time>2026-04-10T10:56:58.843Z</time></trkpt><trkpt lat="44.3401005" lon="5.213853"><ele>612.0</ele><time>2026-04-10T10:56:59.847Z</time></trkpt><trkpt lat="44.3401201" lon="5.2139828"><ele>613.4</ele><time>2026-04-10T10:57:00.848Z</time></trkpt><trkpt lat="44.3401169" lon="5.2141059"><ele>614.8000000000001</ele><time>2026-04-10T10:57:01.844Z</time></trkpt><trkpt lat="44.3400868" lon="5.214235"><ele>616.2</ele><time>2026-04-10T10:57:02.848Z</time></trkpt><trkpt lat="44.3400453" lon="5.2143622"><ele>617.6</ele><time>2026-04-10T10:57:03.853Z</time></trkpt><trkpt lat="44.3400086" lon="5.2144826"><ele>619.0</ele><time>2026-04-10T10:57:04.842Z</time></trkpt><trkpt lat="44.3399702" lon="5.2146042"><ele>619.0</ele><time>2026-04-10T10:57:05.844Z</time></trkpt><trkpt lat="44.3399706" lon="5.2147627"><ele>619.0</ele><time>2026-04-10T10:57:06.846Z</time></trkpt><trkpt lat="44.3400216" lon="5.2149445"><ele>619.0</ele><time>2026-04-10T10:57:07.847Z</time></trkpt><trkpt lat="44.3400471" lon="5.2151152"><ele>619.0</ele><time>2026-04-10T10:57:08.845Z</time></trkpt><trkpt lat="44.340065" lon="5.2152918"><ele>618.2</ele><time>2026-04-10T10:57:09.849Z</time></trkpt><trkpt lat="44.340085" lon="5.2154485"><ele>617.4</ele><time>2026-04-10T10:57:10.849Z</time></trkpt><trkpt lat="44.3400914" lon="5.2155828"><ele>616.6</ele><time>2026-04-10T10:57:11.849Z</time></trkpt><trkpt lat="44.3400908" lon="5.2157178"><ele>615.8</ele><time>2026-04-10T10:57:12.851Z</time></trkpt><trkpt lat="44.3400653" lon="5.2158716"><ele>615.0</ele><time>2026-04-10T10:57:13.847Z</time></trkpt><trkpt lat="44.3400662" lon="5.216014"><ele>614.2</ele><time>2026-04-10T10:57:14.847Z</time></trkpt><trkpt lat="44.3400933" lon="5.2161416"><ele>613.4</ele><time>2026-04-10T10:57:15.841Z</time></trkpt><trkpt lat="44.340114" lon="5.2162471"><ele>612.6</ele><time>2026-04-10T10:57:16.843Z</time></trkpt><trkpt lat="44.3400727" lon="5.2164104"><ele>611.8</ele><time>2026-04-10T10:57:18.844Z</time></trkpt><trkpt lat="44.3400023" lon="5.2164841"><ele>611.0</ele><time>2026-04-10T10:57:19.846Z</time></trkpt><trkpt lat="44.3399174" lon="5.2165687"><ele>608.25</ele><time>2026-04-10T10:57:20.848Z</time></trkpt><trkpt lat="44.339834" lon="5.2166845"><ele>605.5</ele><time>2026-04-10T10:57:21.847Z</time></trkpt><trkpt lat="44.3397645" lon="5.2168306"><ele>602.75</ele><time>2026-04-10T10:57:22.846Z</time></trkpt><trkpt lat="44.3397073" lon="5.2169965"><ele>600.0</ele><time>2026-04-10T10:57:23.847Z</time></trkpt><trkpt lat="44.3396478" lon="5.217177"><ele>606.5</ele><time>2026-04-10T10:57:24.842Z</time></trkpt><trkpt lat="44.339581" lon="5.2173445"><ele>613.0</ele><time>2026-04-10T10:57:25.842Z</time></trkpt><trkpt lat="44.3395048" lon="5.217476"><ele>619.5</ele><time>2026-04-10T10:57:26.844Z</time></trkpt><trkpt lat="44.3394266" lon="5.2176148"><ele>626.0</ele><time>2026-04-10T10:57:27.849Z</time></trkpt><trkpt lat="44.3393634" lon="5.217767"><ele>626.0</ele><time>2026-04-10T10:57:28.845Z</time></trkpt><trkpt lat="44.3393129" lon="5.2179243"><ele>626.0</ele><time>2026-04-10T10:57:29.844Z</time></trkpt><trkpt lat="44.3392662" lon="5.2180696"><ele>626.0</ele><time>2026-04-10T10:57:30.842Z</time></trkpt><trkpt lat="44.3392423" lon="5.2181878"><ele>626.0</ele><time>2026-04-10T10:57:31.84Z</time></trkpt><trkpt lat="44.3392347" lon="5.2182909"><ele>626.0</ele><time>2026-04-10T10:57:32.851Z</time></trkpt><trkpt lat="44.3392593" lon="5.2183867"><ele>624.0</ele><time>2026-04-10T10:57:33.844Z</time></trkpt><trkpt lat="44.3393024" lon="5.2184659"><ele>622.0</ele><time>2026-04-10T10:57:34.845Z</time></trkpt><trkpt lat="44.3393463" lon="5.218547"><ele>620.0</ele><time>2026-04-10T10:57:35.846Z</time></trkpt><trkpt lat="44.3393502" lon="5.2187146"><ele>618.0</ele><time>2026-04-10T10:57:37.846Z</time></trkpt><trkpt lat="44.3393355" lon="5.2188158"><ele>616.0</ele><time>2026-04-10T10:57:38.846Z</time></trkpt><trkpt lat="44.3393187" lon="5.2189202"><ele>614.0</ele><time>2026-04-10T10:57:39.843Z</time></trkpt><trkpt lat="44.3393345" lon="5.21902"><ele>614.0</ele><time>2026-04-10T10:57:40.849Z</time></trkpt><trkpt lat="44.3393497" lon="5.219116"><ele>614.0</ele><time>2026-04-10T10:57:41.844Z</time></trkpt><trkpt lat="44.3393386" lon="5.2192143"><ele>614.0</ele><time>2026-04-10T10:57:42.852Z</time></trkpt><trkpt lat="44.3392927" lon="5.2193115"><ele>614.0</ele><time>2026-04-10T10:57:43.85Z</time></trkpt><trkpt lat="44.3392466" lon="5.2194038"><ele>614.0</ele><time>2026-04-10T10:57:44.849Z</time></trkpt><trkpt lat="44.3392595" lon="5.2195456"><ele>614.0</ele><time>2026-04-10T10:57:46.847Z</time></trkpt><trkpt lat="44.3393741" lon="5.2195731"><ele>614.0</ele><time>2026-04-10T10:57:48.849Z</time></trkpt><trkpt lat="44.3394646" lon="5.2195461"><ele>614.0</ele><time>2026-04-10T10:57:49.843Z</time></trkpt><trkpt lat="44.3395832" lon="5.2195071"><ele>614.0</ele><time>2026-04-10T10:57:50.848Z</time></trkpt><trkpt lat="44.3396786" lon="5.2194885"><ele>614.0</ele><time>2026-04-10T10:57:51.843Z</time></trkpt><trkpt lat="44.3397454" lon="5.2195111"><ele>614.0</ele><time>2026-04-10T10:57:52.846Z</time></trkpt><trkpt lat="44.3397929" lon="5.2196111"><ele>614.1666666666666</ele><time>2026-04-10T10:57:54.846Z</time></trkpt><trkpt lat="44.3397464" lon="5.2197394"><ele>614.3333333333333</ele><time>2026-04-10T10:57:56.848Z</time></trkpt><trkpt lat="44.3397039" lon="5.2198205"><ele>614.5</ele><time>2026-04-10T10:57:57.846Z</time></trkpt><trkpt lat="44.3396687" lon="5.2199022"><ele>614.6666666666666</ele><time>2026-04-10T10:57:58.843Z</time></trkpt><trkpt lat="44.3396315" lon="5.2200287"><ele>614.8333333333334</ele><time>2026-04-10T10:58:00.847Z</time></trkpt><trkpt lat="44.3396345" lon="5.2201428"><ele>615.0</ele><time>2026-04-10T11:00:43.845Z</time></trkpt><trkpt lat="44.33968" lon="5.2202321"><ele>611.6</ele><time>2026-04-10T11:00:46.844Z</time></trkpt><trkpt lat="44.339792" lon="5.2201706"><ele>608.2</ele><time>2026-04-10T11:00:48.848Z</time></trkpt><trkpt lat="44.3398246" lon="5.2200918"><ele>604.8</ele><time>2026-04-10T11:00:49.845Z</time></trkpt><trkpt lat="44.3399221" lon="5.2199824"><ele>601.4</ele><time>2026-04-10T11:00:51.841Z</time></trkpt><trkpt lat="44.3399979" lon="5.2199427"><ele>598.0</ele><time>2026-04-10T11:00:52.842Z</time></trkpt><trkpt lat="44.340081" lon="5.2199118"><ele>598.0</ele><time>2026-04-10T11:00:53.845Z</time></trkpt><trkpt lat="44.3401585" lon="5.2198699"><ele>598.0</ele><time>2026-04-10T11:00:54.846Z</time></trkpt><trkpt lat="44.3402534" lon="5.21985"><ele>598.0</ele><time>2026-04-10T11:00:55.851Z</time></trkpt><trkpt lat="44.3403476" lon="5.2198608"><ele>598.0</ele><time>2026-04-10T11:00:56.843Z</time></trkpt><trkpt lat="44.3404372" lon="5.2198687"><ele>598.0</ele><time>2026-04-10T11:00:57.843Z</time></trkpt><trkpt lat="44.340536" lon="5.2198677"><ele>597.75</ele><time>2026-04-10T11:00:58.845Z</time></trkpt><trkpt lat="44.340639" lon="5.2198876"><ele>597.5</ele><time>2026-04-10T11:00:59.849Z</time></trkpt><trkpt lat="44.340752" lon="5.2199082"><ele>597.25</ele><time>2026-04-10T11:01:00.842Z</time></trkpt><trkpt lat="44.340868" lon="5.219897"><ele>597.0</ele><time>2026-04-10T11:01:01.845Z</time></trkpt><trkpt lat="44.3409837" lon="5.2198818"><ele>597.0</ele><time>2026-04-10T11:01:02.847Z</time></trkpt><trkpt lat="44.3410898" lon="5.2198604"><ele>597.0</ele><time>2026-04-10T11:01:03.843Z</time></trkpt><trkpt lat="44.3411981" lon="5.2198289"><ele>597.0</ele><time>2026-04-10T11:01:04.842Z</time></trkpt><trkpt lat="44.3413114" lon="5.2198156"><ele>597.0</ele><time>2026-04-10T11:01:05.845Z</time></trkpt><trkpt lat="44.3414282" lon="5.2198392"><ele>598.1666666666666</ele><time>2026-04-10T11:01:06.847Z</time></trkpt><trkpt lat="44.3415409" lon="5.2198484"><ele>599.3333333333334</ele><time>2026-04-10T11:01:07.847Z</time></trkpt><trkpt lat="44.3416379" lon="5.2198617"><ele>600.5</ele><time>2026-04-10T11:01:08.844Z</time></trkpt><trkpt lat="44.3417128" lon="5.2198734"><ele>601.6666666666667</ele><time>2026-04-10T11:01:09.846Z</time></trkpt><trkpt lat="44.3417871" lon="5.2198565"><ele>602.8333333333334</ele><time>2026-04-10T11:01:10.843Z</time></trkpt><trkpt lat="44.3418578" lon="5.2198021"><ele>604.0</ele><time>2026-04-10T11:01:11.846Z</time></trkpt><trkpt lat="44.341914" lon="5.2197228"><ele>598.8</ele><time>2026-04-10T11:01:12.846Z</time></trkpt><trkpt lat="44.3419479" lon="5.2196117"><ele>593.5999999999999</ele><time>2026-04-10T11:01:13.841Z</time></trkpt><trkpt lat="44.3419462" lon="5.2194559"><ele>588.4</ele><time>2026-04-10T11:01:14.843Z</time></trkpt><trkpt lat="44.3419573" lon="5.2193332"><ele>583.1999999999999</ele><time>2026-04-10T11:01:15.841Z</time></trkpt><trkpt lat="44.3420238" lon="5.2192135"><ele>578.0</ele><time>2026-04-10T11:01:16.845Z</time></trkpt><trkpt lat="44.3420894" lon="5.2191206"><ele>578.0</ele><time>2026-04-10T11:01:17.849Z</time></trkpt><trkpt lat="44.3421439" lon="5.2190464"><ele>578.0</ele><time>2026-04-10T11:01:18.848Z</time></trkpt><trkpt lat="44.3422727" lon="5.2191259"><ele>578.0</ele><time>2026-04-10T11:01:20.844Z</time></trkpt><trkpt lat="44.3423534" lon="5.2191574"><ele>578.0</ele><time>2026-04-10T11:01:21.847Z</time></trkpt><trkpt lat="44.3424367" lon="5.2191895"><ele>578.0</ele><time>2026-04-10T11:01:22.848Z</time></trkpt><trkpt lat="44.3425123" lon="5.2191936"><ele>577.6</ele><time>2026-04-10T11:01:23.84Z</time></trkpt><trkpt lat="44.3426059" lon="5.2191667"><ele>577.1999999999999</ele><time>2026-04-10T11:01:24.844Z</time></trkpt><trkpt lat="44.3426942" lon="5.2191378"><ele>576.8</ele><time>2026-04-10T11:01:25.843Z</time></trkpt><trkpt lat="44.3427923" lon="5.2190994"><ele>576.4</ele><time>2026-04-10T11:01:26.845Z</time></trkpt><trkpt lat="44.3428882" lon="5.2189858"><ele>576.0</ele><time>2026-04-10T11:01:27.845Z</time></trkpt><trkpt lat="44.3429689" lon="5.2188939"><ele>579.25</ele><time>2026-04-10T11:01:28.84Z</time></trkpt><trkpt lat="44.3430704" lon="5.2188209"><ele>582.5</ele><time>2026-04-10T11:01:29.84Z</time></trkpt><trkpt lat="44.3431728" lon="5.2187247"><ele>585.75</ele><time>2026-04-10T11:01:30.843Z</time></trkpt><trkpt lat="44.3432954" lon="5.2186666"><ele>589.0</ele><time>2026-04-10T11:01:31.842Z</time></trkpt><trkpt lat="44.3434037" lon="5.2186161"><ele>589.0</ele><time>2026-04-10T11:01:32.842Z</time></trkpt><trkpt lat="44.3435002" lon="5.2185527"><ele>589.0</ele><time>2026-04-10T11:01:33.842Z</time></trkpt><trkpt lat="44.3435831" lon="5.2185658"><ele>589.0</ele><time>2026-04-10T11:01:34.844Z</time></trkpt><trkpt lat="44.3436606" lon="5.2185669"><ele>589.0</ele><time>2026-04-10T11:01:35.846Z</time></trkpt><trkpt lat="44.3437111" lon="5.2186375"><ele>589.0</ele><time>2026-04-10T11:01:36.843Z</time></trkpt><trkpt lat="44.3437736" lon="5.2187019"><ele>589.0</ele><time>2026-04-10T11:01:37.841Z</time></trkpt><trkpt lat="44.3438416" lon="5.2187508"><ele>588.4</ele><time>2026-04-10T11:01:38.842Z</time></trkpt><trkpt lat="44.3439087" lon="5.2187446"><ele>587.8</ele><time>2026-04-10T11:01:39.842Z</time></trkpt><trkpt lat="44.3439986" lon="5.2186925"><ele>587.2</ele><time>2026-04-10T11:01:40.842Z</time></trkpt><trkpt lat="44.3440892" lon="5.2186345"><ele>586.6</ele><time>2026-04-10T11:01:41.841Z</time></trkpt><trkpt lat="44.3441773" lon="5.218554"><ele>586.0</ele><time>2026-04-10T11:01:42.843Z</time></trkpt><trkpt lat="44.34425" lon="5.2184773"><ele>586.0</ele><time>2026-04-10T11:01:43.841Z</time></trkpt><trkpt lat="44.3443077" lon="5.218429"><ele>586.0</ele><time>2026-04-10T11:01:44.846Z</time></trkpt><trkpt lat="44.3444299" lon="5.2184845"><ele>586.0</ele><time>2026-04-10T11:01:46.843Z</time></trkpt><trkpt lat="44.3445521" lon="5.2186756"><ele>586.0</ele><time>2026-04-10T11:01:48.843Z</time></trkpt><trkpt lat="44.3446151" lon="5.218755"><ele>586.0</ele><time>2026-04-10T11:01:49.847Z</time></trkpt><trkpt lat="44.3446921" lon="5.218819"><ele>586.0</ele><time>2026-04-10T11:01:50.849Z</time></trkpt><trkpt lat="44.3447429" lon="5.2188812"><ele>586.0</ele><time>2026-04-10T11:01:51.843Z</time></trkpt><trkpt lat="44.3447759" lon="5.2189791"><ele>586.0</ele><time>2026-04-10T11:01:52.844Z</time></trkpt><trkpt lat="44.3448178" lon="5.2190892"><ele>586.0</ele><time>2026-04-10T11:01:53.851Z</time></trkpt><trkpt lat="44.344835" lon="5.2191983"><ele>586.0</ele><time>2026-04-10T11:01:54.846Z</time></trkpt><trkpt lat="44.3448588" lon="5.2193059"><ele>586.6</ele><time>2026-04-10T11:01:55.846Z</time></trkpt><trkpt lat="44.3449899" lon="5.2193515"><ele>587.2</ele><time>2026-04-10T11:01:57.842Z</time></trkpt><trkpt lat="44.3450793" lon="5.2193577"><ele>587.8</ele><time>2026-04-10T11:01:58.843Z</time></trkpt><trkpt lat="44.3451737" lon="5.219394"><ele>588.4</ele><time>2026-04-10T11:01:59.847Z</time></trkpt><trkpt lat="44.3452708" lon="5.2194282"><ele>589.0</ele><time>2026-04-10T11:02:00.846Z</time></trkpt><trkpt lat="44.3453572" lon="5.2194867"><ele>589.0</ele><time>2026-04-10T11:02:01.844Z</time></trkpt><trkpt lat="44.3454436" lon="5.2195211"><ele>589.0</ele><time>2026-04-10T11:02:02.841Z</time></trkpt><trkpt lat="44.3455404" lon="5.2195225"><ele>589.0</ele><time>2026-04-10T11:02:03.843Z</time></trkpt><trkpt lat="44.3456297" lon="5.219427"><ele>589.0</ele><time>2026-04-10T11:02:04.842Z</time></trkpt><trkpt lat="44.3457263" lon="5.2193703"><ele>589.0</ele><time>2026-04-10T11:02:05.843Z</time></trkpt><trkpt lat="44.3458167" lon="5.2193232"><ele>585.6</ele><time>2026-04-10T11:02:06.846Z</time></trkpt><trkpt lat="44.3459284" lon="5.2193077"><ele>582.2</ele><time>2026-04-10T11:02:07.846Z</time></trkpt><trkpt lat="44.346009" lon="5.2193386"><ele>578.8000000000001</ele><time>2026-04-10T11:02:08.846Z</time></trkpt><trkpt lat="44.3461063" lon="5.2193774"><ele>575.4</ele><time>2026-04-10T11:02:09.846Z</time></trkpt><trkpt lat="44.3461671" lon="5.219489"><ele>572.0</ele><time>2026-04-10T11:02:10.841Z</time></trkpt><trkpt lat="44.3462559" lon="5.2195321"><ele>572.0</ele><time>2026-04-10T11:02:11.842Z</time></trkpt><trkpt lat="44.3463541" lon="5.2195499"><ele>572.0</ele><time>2026-04-10T11:02:12.841Z</time></trkpt><trkpt lat="44.3464766" lon="5.2195566"><ele>572.0</ele><time>2026-04-10T11:02:13.844Z</time></trkpt><trkpt lat="44.3465945" lon="5.2195624"><ele>572.0</ele><time>2026-04-10T11:02:14.843Z</time></trkpt><trkpt lat="44.3467282" lon="5.2195236"><ele>570.5</ele><time>2026-04-10T11:02:15.845Z</time></trkpt><trkpt lat="44.3468676" lon="5.2194168"><ele>569.0</ele><time>2026-04-10T11:02:16.849Z</time></trkpt><trkpt lat="44.3469901" lon="5.2193498"><ele>567.5</ele><time>2026-04-10T11:02:17.842Z</time></trkpt><trkpt lat="44.3470959" lon="5.219281"><ele>566.0</ele><time>2026-04-10T11:02:18.84Z</time></trkpt><trkpt lat="44.3471874" lon="5.2192346"><ele>566.0</ele><time>2026-04-10T11:02:19.845Z</time></trkpt><trkpt lat="44.3473011" lon="5.2192241"><ele>566.0</ele><time>2026-04-10T11:02:20.843Z</time></trkpt><trkpt lat="44.3473814" lon="5.2192841"><ele>566.0</ele><time>2026-04-10T11:02:21.843Z</time></trkpt><trkpt lat="44.3474588" lon="5.2193585"><ele>566.0</ele><time>2026-04-10T11:02:22.845Z</time></trkpt><trkpt lat="44.3475371" lon="5.219463"><ele>566.0</ele><time>2026-04-10T11:02:23.846Z</time></trkpt><trkpt lat="44.3476284" lon="5.2195956"><ele>566.0</ele><time>2026-04-10T11:02:24.842Z</time></trkpt><trkpt lat="44.3477147" lon="5.219732"><ele>566.0</ele><time>2026-04-10T11:02:25.843Z</time></trkpt><trkpt lat="44.3478217" lon="5.2198672"><ele>566.0</ele><time>2026-04-10T11:02:26.848Z</time></trkpt><trkpt lat="44.3479235" lon="5.2200038"><ele>566.0</ele><time>2026-04-10T11:02:27.845Z</time></trkpt><trkpt lat="44.3480171" lon="5.2201171"><ele>565.2</ele><time>2026-04-10T11:02:28.844Z</time></trkpt><trkpt lat="44.3481141" lon="5.2202074"><ele>564.4000000000001</ele><time>2026-04-10T11:02:29.85Z</time></trkpt><trkpt lat="44.3481935" lon="5.2202641"><ele>563.6</ele><time>2026-04-10T11:02:30.848Z</time></trkpt><trkpt lat="44.348273" lon="5.2203044"><ele>562.8000000000001</ele><time>2026-04-10T11:02:31.846Z</time></trkpt><trkpt lat="44.3483551" lon="5.2203208"><ele>562.0</ele><time>2026-04-10T11:02:32.846Z</time></trkpt><trkpt lat="44.3484384" lon="5.2203347"><ele>562.0</ele><time>2026-04-10T11:02:33.845Z</time></trkpt><trkpt lat="44.3485685" lon="5.2203964"><ele>562.0</ele><time>2026-04-10T11:02:35.851Z</time></trkpt><trkpt lat="44.3486314" lon="5.2204697"><ele>562.0</ele><time>2026-04-10T11:02:36.843Z</time></trkpt><trkpt lat="44.3487055" lon="5.2205644"><ele>562.0</ele><time>2026-04-10T11:02:37.841Z</time></trkpt><trkpt lat="44.3487922" lon="5.2206297"><ele>562.0</ele><time>2026-04-10T11:02:38.842Z</time></trkpt><trkpt lat="44.3488824" lon="5.220681"><ele>561.4</ele><time>2026-04-10T11:02:39.843Z</time></trkpt><trkpt lat="44.3489928" lon="5.2207278"><ele>560.8000000000001</ele><time>2026-04-10T11:02:40.841Z</time></trkpt><trkpt lat="44.3490893" lon="5.2207841"><ele>560.2</ele><time>2026-04-10T11:02:41.849Z</time></trkpt><trkpt lat="44.3491694" lon="5.220823"><ele>559.6</ele><time>2026-04-10T11:02:42.849Z</time></trkpt><trkpt lat="44.3492438" lon="5.2209608"><ele>559.0</ele><time>2026-04-10T11:02:43.844Z</time></trkpt><trkpt lat="44.3493224" lon="5.2210859"><ele>559.0</ele><time>2026-04-10T11:02:44.842Z</time></trkpt><trkpt lat="44.3494425" lon="5.2212089"><ele>559.0</ele><time>2026-04-10T11:02:45.849Z</time></trkpt><trkpt lat="44.3495714" lon="5.2212982"><ele>559.0</ele><time>2026-04-10T11:02:46.842Z</time></trkpt><trkpt lat="44.3496954" lon="5.2213776"><ele>559.0</ele><time>2026-04-10T11:02:47.842Z</time></trkpt><trkpt lat="44.3498196" lon="5.221462"><ele>556.4</ele><time>2026-04-10T11:02:48.856Z</time></trkpt><trkpt lat="44.3499296" lon="5.2215522"><ele>553.8</ele><time>2026-04-10T11:02:49.844Z</time></trkpt><trkpt lat="44.3499962" lon="5.2216319"><ele>551.2</ele><time>2026-04-10T11:02:50.842Z</time></trkpt><trkpt lat="44.3500439" lon="5.2217231"><ele>548.6</ele><time>2026-04-10T11:02:51.842Z</time></trkpt><trkpt lat="44.3500583" lon="5.2218443"><ele>546.0</ele><time>2026-04-10T11:02:52.847Z</time></trkpt><trkpt lat="44.3500749" lon="5.2219434"><ele>546.0</ele><time>2026-04-10T11:02:53.842Z</time></trkpt><trkpt lat="44.3500305" lon="5.2220606"><ele>546.0</ele><time>2026-04-10T11:02:54.847Z</time></trkpt><trkpt lat="44.3500417" lon="5.2221781"><ele>546.0</ele><time>2026-04-10T11:02:55.846Z</time></trkpt><trkpt lat="44.3500725" lon="5.2223044"><ele>546.0</ele><time>2026-04-10T11:02:56.845Z</time></trkpt><trkpt lat="44.3501001" lon="5.2224088"><ele>546.0</ele><time>2026-04-10T11:02:57.846Z</time></trkpt><trkpt lat="44.3501216" lon="5.2225163"><ele>546.0</ele><time>2026-04-10T11:02:58.843Z</time></trkpt><trkpt lat="44.350194" lon="5.2225752"><ele>546.0</ele><time>2026-04-10T11:03:00.841Z</time></trkpt><trkpt lat="44.3502584" lon="5.2224937"><ele>546.0</ele><time>2026-04-10T11:03:02.847Z</time></trkpt><trkpt lat="44.3503224" lon="5.2224063"><ele>546.0</ele><time>2026-04-10T11:03:03.846Z</time></trkpt><trkpt lat="44.3504534" lon="5.2222351"><ele>546.0</ele><time>2026-04-10T11:03:04.843Z</time></trkpt><trkpt lat="44.3505814" lon="5.2221011"><ele>544.75</ele><time>2026-04-10T11:03:05.841Z</time></trkpt><trkpt lat="44.3507083" lon="5.2219925"><ele>543.5</ele><time>2026-04-10T11:03:06.845Z</time></trkpt><trkpt lat="44.3508285" lon="5.2218932"><ele>542.25</ele><time>2026-04-10T11:03:07.848Z</time></trkpt><trkpt lat="44.3509382" lon="5.22181"><ele>541.0</ele><time>2026-04-10T11:03:08.847Z</time></trkpt><trkpt lat="44.3510515" lon="5.2217378"><ele>541.0</ele><time>2026-04-10T11:03:09.841Z</time></trkpt><trkpt lat="44.3511754" lon="5.221741"><ele>541.0</ele><time>2026-04-10T11:03:10.844Z</time></trkpt><trkpt lat="44.3512901" lon="5.2217275"><ele>541.0</ele><time>2026-04-10T11:03:11.843Z</time></trkpt><trkpt lat="44.3514032" lon="5.2217184"><ele>541.0</ele><time>2026-04-10T11:03:12.842Z</time></trkpt><trkpt lat="44.3515144" lon="5.2217283"><ele>541.2</ele><time>2026-04-10T11:03:13.841Z</time></trkpt><trkpt lat="44.3516293" lon="5.2217695"><ele>541.4000000000001</ele><time>2026-04-10T11:03:14.84Z</time></trkpt><trkpt lat="44.3517455" lon="5.2217961"><ele>541.6</ele><time>2026-04-10T11:03:15.842Z</time></trkpt><trkpt lat="44.3518496" lon="5.2218194"><ele>541.8000000000001</ele><time>2026-04-10T11:03:16.841Z</time></trkpt><trkpt lat="44.3519336" lon="5.2218355"><ele>542.0</ele><time>2026-04-10T11:03:17.846Z</time></trkpt><trkpt lat="44.3520061" lon="5.2218607"><ele>542.0</ele><time>2026-04-10T11:03:18.842Z</time></trkpt><trkpt lat="44.3520639" lon="5.2218994"><ele>542.0</ele><time>2026-04-10T11:03:19.845Z</time></trkpt><trkpt lat="44.3521097" lon="5.2219667"><ele>542.0</ele><time>2026-04-10T11:03:20.844Z</time></trkpt><trkpt lat="44.3520812" lon="5.2221401"><ele>542.0</ele><time>2026-04-10T11:03:21.847Z</time></trkpt><trkpt lat="44.3520638" lon="5.2222582"><ele>542.0</ele><time>2026-04-10T11:03:22.848Z</time></trkpt><trkpt lat="44.3520584" lon="5.2223944"><ele>542.0</ele><time>2026-04-10T11:03:23.844Z</time></trkpt><trkpt lat="44.3520762" lon="5.222519"><ele>543.0</ele><time>2026-04-10T11:03:24.85Z</time></trkpt><trkpt lat="44.3521174" lon="5.2226418"><ele>544.0</ele><time>2026-04-10T11:03:25.843Z</time></trkpt><trkpt lat="44.3521716" lon="5.2227644"><ele>545.0</ele><time>2026-04-10T11:03:26.841Z</time></trkpt><trkpt lat="44.3522209" lon="5.2228931"><ele>546.0</ele><time>2026-04-10T11:03:27.844Z</time></trkpt><trkpt lat="44.3522514" lon="5.2230317"><ele>547.0</ele><time>2026-04-10T11:03:28.841Z</time></trkpt><trkpt lat="44.3522837" lon="5.223188"><ele>543.2</ele><time>2026-04-10T11:03:29.842Z</time></trkpt><trkpt lat="44.3523268" lon="5.2233338"><ele>539.4000000000001</ele><time>2026-04-10T11:03:30.844Z</time></trkpt><trkpt lat="44.352366" lon="5.223476"><ele>535.5999999999999</ele><time>2026-04-10T11:03:31.843Z</time></trkpt><trkpt lat="44.3523769" lon="5.2236135"><ele>531.8</ele><time>2026-04-10T11:03:32.843Z</time></trkpt><trkpt lat="44.3523717" lon="5.2237194"><ele>528.0</ele><time>2026-04-10T11:03:33.84Z</time></trkpt><trkpt lat="44.3524037" lon="5.2238388"><ele>528.0</ele><time>2026-04-10T11:03:34.844Z</time></trkpt><trkpt lat="44.3524659" lon="5.2239176"><ele>528.0</ele><time>2026-04-10T11:03:35.843Z</time></trkpt><trkpt lat="44.3525516" lon="5.2239895"><ele>528.0</ele><time>2026-04-10T11:03:36.846Z</time></trkpt><trkpt lat="44.3526653" lon="5.2240411"><ele>528.0</ele><time>2026-04-10T11:03:37.843Z</time></trkpt><trkpt lat="44.3527771" lon="5.2240981"><ele>528.0</ele><time>2026-04-10T11:03:38.841Z</time></trkpt><trkpt lat="44.3529064" lon="5.2241485"><ele>530.1999999999999</ele><time>2026-04-10T11:03:39.842Z</time></trkpt><trkpt lat="44.3530076" lon="5.2242108"><ele>532.4</ele><time>2026-04-10T11:03:40.844Z</time></trkpt><trkpt lat="44.3531081" lon="5.2242829"><ele>534.5999999999999</ele><time>2026-04-10T11:03:41.844Z</time></trkpt><trkpt lat="44.3531883" lon="5.2243773"><ele>536.8</ele><time>2026-04-10T11:03:42.847Z</time></trkpt><trkpt lat="44.3532702" lon="5.2244616"><ele>539.0</ele><time>2026-04-10T11:03:43.842Z</time></trkpt><trkpt lat="44.3533606" lon="5.2245382"><ele>535.0</ele><time>2026-04-10T11:03:44.843Z</time></trkpt><trkpt lat="44.3534551" lon="5.2246228"><ele>531.0</ele><time>2026-04-10T11:03:45.842Z</time></trkpt><trkpt lat="44.353528" lon="5.224705"><ele>527.0</ele><time>2026-04-10T11:03:46.845Z</time></trkpt><trkpt lat="44.353599" lon="5.224758"><ele>523.0</ele><time>2026-04-10T11:03:47.844Z</time></trkpt><trkpt lat="44.3536676" lon="5.2247867"><ele>519.0</ele><time>2026-04-10T11:03:48.844Z</time></trkpt><trkpt lat="44.3537485" lon="5.2247502"><ele>515.0</ele><time>2026-04-10T11:03:49.841Z</time></trkpt><trkpt lat="44.3538407" lon="5.22471"><ele>512.0</ele><time>2026-04-10T11:03:50.843Z</time></trkpt><trkpt lat="44.3539428" lon="5.2247163"><ele>509.0</ele><time>2026-04-10T11:03:51.847Z</time></trkpt><trkpt lat="44.3540495" lon="5.22475"><ele>506.0</ele><time>2026-04-10T11:03:52.847Z</time></trkpt><trkpt lat="44.3541614" lon="5.2247653"><ele>503.0</ele><time>2026-04-10T11:03:53.843Z</time></trkpt><trkpt lat="44.3542628" lon="5.2247582"><ele>500.0</ele><time>2026-04-10T11:03:54.844Z</time></trkpt><trkpt lat="44.3543484" lon="5.2247239"><ele>500.0</ele><time>2026-04-10T11:03:55.841Z</time></trkpt><trkpt lat="44.3544271" lon="5.2246274"><ele>500.0</ele><time>2026-04-10T11:03:56.849Z</time></trkpt><trkpt lat="44.3545066" lon="5.2245243"><ele>500.0</ele><time>2026-04-10T11:03:57.842Z</time></trkpt><trkpt lat="44.3545818" lon="5.2244301"><ele>500.0</ele><time>2026-04-10T11:03:58.842Z</time></trkpt><trkpt lat="44.3546693" lon="5.2243607"><ele>500.0</ele><time>2026-04-10T11:03:59.84Z</time></trkpt><trkpt lat="44.354776" lon="5.224328"><ele>501.25</ele><time>2026-04-10T11:04:00.842Z</time></trkpt><trkpt lat="44.3548872" lon="5.2242805"><ele>502.5</ele><time>2026-04-10T11:04:01.841Z</time></trkpt><trkpt lat="44.3549911" lon="5.2242035"><ele>503.75</ele><time>2026-04-10T11:04:02.842Z</time></trkpt><trkpt lat="44.3550982" lon="5.2241222"><ele>505.0</ele><time>2026-04-10T11:04:03.847Z</time></trkpt><trkpt lat="44.3552163" lon="5.2240732"><ele>505.0</ele><time>2026-04-10T11:04:04.843Z</time></trkpt><trkpt lat="44.3553308" lon="5.2240289"><ele>505.0</ele><time>2026-04-10T11:04:05.846Z</time></trkpt><trkpt lat="44.3554303" lon="5.2240056"><ele>505.0</ele><time>2026-04-10T11:04:06.843Z</time></trkpt><trkpt lat="44.3555133" lon="5.2240091"><ele>505.0</ele><time>2026-04-10T11:04:07.841Z</time></trkpt><trkpt lat="44.355584" lon="5.2240594"><ele>505.0</ele><time>2026-04-10T11:04:08.841Z</time></trkpt><trkpt lat="44.3556649" lon="5.2241318"><ele>504.5</ele><time>2026-04-10T11:04:09.844Z</time></trkpt><trkpt lat="44.3557554" lon="5.2242146"><ele>504.0</ele><time>2026-04-10T11:04:10.847Z</time></trkpt><trkpt lat="44.3558754" lon="5.2242925"><ele>503.5</ele><time>2026-04-10T11:04:11.844Z</time></trkpt><trkpt lat="44.3559883" lon="5.224364"><ele>503.0</ele><time>2026-04-10T11:04:12.841Z</time></trkpt><trkpt lat="44.3561079" lon="5.2244249"><ele>503.0</ele><time>2026-04-10T11:04:13.844Z</time></trkpt><trkpt lat="44.3562306" lon="5.2244631"><ele>503.0</ele><time>2026-04-10T11:04:14.84Z</time></trkpt><trkpt lat="44.3563578" lon="5.2244632"><ele>503.0</ele><time>2026-04-10T11:04:15.842Z</time></trkpt><trkpt lat="44.3564882" lon="5.2244522"><ele>503.0</ele><time>2026-04-10T11:04:16.845Z</time></trkpt><trkpt lat="44.3566204" lon="5.2244397"><ele>500.0</ele><time>2026-04-10T11:04:17.841Z</time></trkpt><trkpt lat="44.3567507" lon="5.2244205"><ele>497.0</ele><time>2026-04-10T11:04:18.846Z</time></trkpt><trkpt lat="44.3568826" lon="5.224407"><ele>494.0</ele><time>2026-04-10T11:04:19.846Z</time></trkpt><trkpt lat="44.3570067" lon="5.2244027"><ele>491.0</ele><time>2026-04-10T11:04:20.846Z</time></trkpt><trkpt lat="44.3571331" lon="5.2244021"><ele>492.4</ele><time>2026-04-10T11:04:21.845Z</time></trkpt><trkpt lat="44.3572553" lon="5.2243957"><ele>493.8</ele><time>2026-04-10T11:04:22.845Z</time></trkpt><trkpt lat="44.3573721" lon="5.2243773"><ele>495.19999999999993</ele><time>2026-04-10T11:04:23.842Z</time></trkpt><trkpt lat="44.3574865" lon="5.224362"><ele>496.59999999999997</ele><time>2026-04-10T11:04:24.841Z</time></trkpt><trkpt lat="44.3575734" lon="5.2243569"><ele>498.0</ele><time>2026-04-10T11:04:25.841Z</time></trkpt><trkpt lat="44.3576539" lon="5.2243674"><ele>498.0</ele><time>2026-04-10T11:04:26.84Z</time></trkpt><trkpt lat="44.3577282" lon="5.2243912"><ele>498.0</ele><time>2026-04-10T11:04:27.843Z</time></trkpt><trkpt lat="44.3578075" lon="5.2244996"><ele>498.0</ele><time>2026-04-10T11:04:29.839Z</time></trkpt><trkpt lat="44.3578929" lon="5.2245308"><ele>498.0</ele><time>2026-04-10T11:04:31.844Z</time></trkpt><trkpt lat="44.3579645" lon="5.2246222"><ele>498.0</ele><time>2026-04-10T11:04:33.842Z</time></trkpt><trkpt lat="44.3579799" lon="5.2247171"><ele>498.0</ele><time>2026-04-10T11:04:34.849Z</time></trkpt><trkpt lat="44.3579871" lon="5.2248214"><ele>501.2</ele><time>2026-04-10T11:04:35.844Z</time></trkpt><trkpt lat="44.3579935" lon="5.2249404"><ele>504.4</ele><time>2026-04-10T11:04:36.841Z</time></trkpt><trkpt lat="44.3579983" lon="5.2250696"><ele>507.59999999999997</ele><time>2026-04-10T11:04:37.839Z</time></trkpt><trkpt lat="44.3579921" lon="5.2252179"><ele>510.79999999999995</ele><time>2026-04-10T11:04:38.848Z</time></trkpt><trkpt lat="44.3579868" lon="5.2253753"><ele>514.0</ele><time>2026-04-10T11:04:39.84Z</time></trkpt><trkpt lat="44.357988" lon="5.2255331"><ele>513.25</ele><time>2026-04-10T11:04:40.842Z</time></trkpt><trkpt lat="44.3580208" lon="5.2256893"><ele>512.5</ele><time>2026-04-10T11:04:41.844Z</time></trkpt><trkpt lat="44.3580805" lon="5.2258326"><ele>511.75</ele><time>2026-04-10T11:04:42.841Z</time></trkpt><trkpt lat="44.3581661" lon="5.2259562"><ele>511.0</ele><time>2026-04-10T11:04:43.841Z</time></trkpt><trkpt lat="44.3582406" lon="5.2260757"><ele>506.8</ele><time>2026-04-10T11:04:44.841Z</time></trkpt><trkpt lat="44.3582993" lon="5.2261895"><ele>502.6</ele><time>2026-04-10T11:04:45.846Z</time></trkpt><trkpt lat="44.3583304" lon="5.2262989"><ele>498.4</ele><time>2026-04-10T11:04:46.846Z</time></trkpt><trkpt lat="44.358394" lon="5.2264259"><ele>494.2</ele><time>2026-04-10T11:04:48.843Z</time></trkpt><trkpt lat="44.3584666" lon="5.2263644"><ele>490.0</ele><time>2026-04-10T11:04:50.845Z</time></trkpt><trkpt lat="44.3584621" lon="5.226264"><ele>490.0</ele><time>2026-04-10T11:04:51.843Z</time></trkpt><trkpt lat="44.3584335" lon="5.2261576"><ele>490.0</ele><time>2026-04-10T11:04:52.842Z</time></trkpt><trkpt lat="44.3584043" lon="5.2260338"><ele>490.0</ele><time>2026-04-10T11:04:53.849Z</time></trkpt><trkpt lat="44.3583783" lon="5.2258876"><ele>490.0</ele><time>2026-04-10T11:04:54.839Z</time></trkpt><trkpt lat="44.358352" lon="5.2257219"><ele>490.0</ele><time>2026-04-10T11:04:55.841Z</time></trkpt><trkpt lat="44.3583425" lon="5.2255547"><ele>490.5</ele><time>2026-04-10T11:04:56.84Z</time></trkpt><trkpt lat="44.3583504" lon="5.2253746"><ele>491.0</ele><time>2026-04-10T11:04:57.84Z</time></trkpt><trkpt lat="44.3583749" lon="5.2251929"><ele>491.5</ele><time>2026-04-10T11:04:58.839Z</time></trkpt><trkpt lat="44.3584008" lon="5.2250249"><ele>492.0</ele><time>2026-04-10T11:04:59.848Z</time></trkpt><trkpt lat="44.358447" lon="5.2248703"><ele>494.0</ele><time>2026-04-10T11:05:00.85Z</time></trkpt><trkpt lat="44.35851" lon="5.2247053"><ele>496.0</ele><time>2026-04-10T11:05:01.845Z</time></trkpt><trkpt lat="44.3586601" lon="5.2246185"><ele>498.0</ele><time>2026-04-10T11:05:02.849Z</time></trkpt><trkpt lat="44.3587827" lon="5.2245182"><ele>500.0</ele><time>2026-04-10T11:05:03.84Z</time></trkpt><trkpt lat="44.3588919" lon="5.224411"><ele>495.0</ele><time>2026-04-10T11:05:04.849Z</time></trkpt><trkpt lat="44.3589946" lon="5.2243317"><ele>490.0</ele><time>2026-04-10T11:05:05.838Z</time></trkpt><trkpt lat="44.3590708" lon="5.2242376"><ele>485.0</ele><time>2026-04-10T11:05:06.843Z</time></trkpt><trkpt lat="44.3591193" lon="5.2241261"><ele>480.0</ele><time>2026-04-10T11:05:07.84Z</time></trkpt><trkpt lat="44.3591469" lon="5.2240219"><ele>475.0</ele><time>2026-04-10T11:05:08.844Z</time></trkpt><trkpt lat="44.3591748" lon="5.2239402"><ele>475.00000000000006</ele><time>2026-04-10T11:05:09.842Z</time></trkpt><trkpt lat="44.3592616" lon="5.2239341"><ele>475.0</ele><time>2026-04-10T11:05:11.849Z</time></trkpt><trkpt lat="44.3592875" lon="5.2240836"><ele>475.0</ele><time>2026-04-10T11:05:13.85Z</time></trkpt><trkpt lat="44.3592524" lon="5.2241637"><ele>475.0</ele><time>2026-04-10T11:05:14.845Z</time></trkpt><trkpt lat="44.3592512" lon="5.2243007"><ele>475.00000000000006</ele><time>2026-04-10T11:05:16.844Z</time></trkpt><trkpt lat="44.3593189" lon="5.2243295"><ele>475.0</ele><time>2026-04-10T11:05:17.842Z</time></trkpt><trkpt lat="44.3593994" lon="5.2243172"><ele>475.0</ele><time>2026-04-10T11:05:18.846Z</time></trkpt><trkpt lat="44.3594915" lon="5.2242754"><ele>475.0</ele><time>2026-04-10T11:05:19.846Z</time></trkpt><trkpt lat="44.3595907" lon="5.2242325"><ele>475.0</ele><time>2026-04-10T11:05:20.841Z</time></trkpt><trkpt lat="44.3596724" lon="5.2241867"><ele>475.0</ele><time>2026-04-10T11:05:21.842Z</time></trkpt><trkpt lat="44.3597267" lon="5.2241089"><ele>475.0</ele><time>2026-04-10T11:05:22.841Z</time></trkpt><trkpt lat="44.3597423" lon="5.2239922"><ele>471.4</ele><time>2026-04-10T11:05:23.844Z</time></trkpt><trkpt lat="44.3597107" lon="5.2238782"><ele>467.8</ele><time>2026-04-10T11:05:24.84Z</time></trkpt><trkpt lat="44.3596676" lon="5.2237794"><ele>464.20000000000005</ele><time>2026-04-10T11:05:25.845Z</time></trkpt><trkpt lat="44.3595552" lon="5.2237325"><ele>460.6</ele><time>2026-04-10T11:05:26.843Z</time></trkpt><trkpt lat="44.359466" lon="5.223664"><ele>457.0</ele><time>2026-04-10T11:05:27.843Z</time></trkpt><trkpt lat="44.359392" lon="5.2235944"><ele>457.0</ele><time>2026-04-10T11:05:28.846Z</time></trkpt><trkpt lat="44.3593314" lon="5.2235313"><ele>457.00000000000006</ele><time>2026-04-10T11:05:29.846Z</time></trkpt><trkpt lat="44.359283" lon="5.2234736"><ele>457.00000000000006</ele><time>2026-04-10T11:05:30.852Z</time></trkpt><trkpt lat="44.3592507" lon="5.2233605"><ele>457.0</ele><time>2026-04-10T11:05:32.846Z</time></trkpt><trkpt lat="44.3593501" lon="5.2233368"><ele>457.0</ele><time>2026-04-10T11:05:34.846Z</time></trkpt><trkpt lat="44.3594631" lon="5.2234511"><ele>457.0</ele><time>2026-04-10T11:05:36.849Z</time></trkpt><trkpt lat="44.3595257" lon="5.2235242"><ele>457.0</ele><time>2026-04-10T11:05:37.844Z</time></trkpt><trkpt lat="44.3596704" lon="5.2235245"><ele>457.0</ele><time>2026-04-10T11:05:38.845Z</time></trkpt><trkpt lat="44.3597908" lon="5.2235328"><ele>457.0</ele><time>2026-04-10T11:05:39.841Z</time></trkpt><trkpt lat="44.3599031" lon="5.2235564"><ele>454.75</ele><time>2026-04-10T11:05:40.838Z</time></trkpt><trkpt lat="44.360013" lon="5.2236035"><ele>452.5</ele><time>2026-04-10T11:05:41.839Z</time></trkpt><trkpt lat="44.3600835" lon="5.2237265"><ele>450.25</ele><time>2026-04-10T11:05:42.848Z</time></trkpt><trkpt lat="44.3601626" lon="5.2238431"><ele>448.0</ele><time>2026-04-10T11:05:43.847Z</time></trkpt><trkpt lat="44.3602052" lon="5.223996"><ele>448.0</ele><time>2026-04-10T11:05:44.849Z</time></trkpt><trkpt lat="44.3602445" lon="5.2241278"><ele>447.99999999999994</ele><time>2026-04-10T11:05:45.84Z</time></trkpt><trkpt lat="44.3602845" lon="5.2242541"><ele>447.99999999999994</ele><time>2026-04-10T11:05:46.841Z</time></trkpt><trkpt lat="44.3602372" lon="5.224399"><ele>448.0</ele><time>2026-04-10T11:05:47.844Z</time></trkpt><trkpt lat="44.3601793" lon="5.2245114"><ele>448.0</ele><time>2026-04-10T11:05:48.843Z</time></trkpt><trkpt lat="44.3600276" lon="5.224561"><ele>448.00000000000006</ele><time>2026-04-10T11:05:49.842Z</time></trkpt><trkpt lat="44.3599355" lon="5.2246273"><ele>448.0</ele><time>2026-04-10T11:05:50.844Z</time></trkpt><trkpt lat="44.3598459" lon="5.2246781"><ele>448.0</ele><time>2026-04-10T11:05:51.842Z</time></trkpt><trkpt lat="44.3597733" lon="5.2247259"><ele>448.0</ele><time>2026-04-10T11:05:52.84Z</time></trkpt><trkpt lat="44.3597166" lon="5.2247823"><ele>448.00000000000006</ele><time>2026-04-10T11:05:53.839Z</time></trkpt><trkpt lat="44.3597183" lon="5.2249117"><ele>448.0</ele><time>2026-04-10T11:05:55.84Z</time></trkpt><trkpt lat="44.3597822" lon="5.2249326"><ele>448.0</ele><time>2026-04-10T11:05:56.84Z</time></trkpt><trkpt lat="44.3598476" lon="5.2249556"><ele>448.0</ele><time>2026-04-10T11:05:57.844Z</time></trkpt><trkpt lat="44.3599636" lon="5.2249276"><ele>448.0</ele><time>2026-04-10T11:05:58.847Z</time></trkpt><trkpt lat="44.3601122" lon="5.2248214"><ele>448.0</ele><time>2026-04-10T11:05:59.844Z</time></trkpt><trkpt lat="44.3602283" lon="5.2247622"><ele>448.0</ele><time>2026-04-10T11:06:00.84Z</time></trkpt><trkpt lat="44.3603589" lon="5.2246661"><ele>448.0</ele><time>2026-04-10T11:06:01.843Z</time></trkpt><trkpt lat="44.3604441" lon="5.2245209"><ele>448.0</ele><time>2026-04-10T11:06:02.843Z</time></trkpt><trkpt lat="44.3605317" lon="5.2243964"><ele>448.0</ele><time>2026-04-10T11:06:03.84Z</time></trkpt><trkpt lat="44.3606267" lon="5.2242723"><ele>440.0</ele><time>2026-04-10T11:06:04.842Z</time></trkpt><trkpt lat="44.3606944" lon="5.2241283"><ele>432.0</ele><time>2026-04-10T11:06:05.841Z</time></trkpt><trkpt lat="44.3607054" lon="5.223982"><ele>424.0</ele><time>2026-04-10T11:06:06.844Z</time></trkpt><trkpt lat="44.3606909" lon="5.2238374"><ele>416.0</ele><time>2026-04-10T11:06:07.841Z</time></trkpt><trkpt lat="44.3606488" lon="5.2236804"><ele>414.75</ele><time>2026-04-10T11:06:08.839Z</time></trkpt><trkpt lat="44.3605977" lon="5.2235088"><ele>413.5</ele><time>2026-04-10T11:06:09.841Z</time></trkpt><trkpt lat="44.3605493" lon="5.223349"><ele>412.25</ele><time>2026-04-10T11:06:10.841Z</time></trkpt><trkpt lat="44.3604778" lon="5.2232368"><ele>411.0</ele><time>2026-04-10T11:06:11.839Z</time></trkpt><trkpt lat="44.3604074" lon="5.2231502"><ele>409.8333333333333</ele><time>2026-04-10T11:06:12.84Z</time></trkpt><trkpt lat="44.3603394" lon="5.2230935"><ele>408.66666666666663</ele><time>2026-04-10T11:06:13.847Z</time></trkpt><trkpt lat="44.3602573" lon="5.2231167"><ele>407.5</ele><time>2026-04-10T11:06:14.843Z</time></trkpt><trkpt lat="44.3601819" lon="5.2230599"><ele>406.3333333333333</ele><time>2026-04-10T11:06:16.841Z</time></trkpt><trkpt lat="44.3602379" lon="5.2229953"><ele>405.16666666666663</ele><time>2026-04-10T11:06:18.842Z</time></trkpt><trkpt lat="44.3603036" lon="5.2230198"><ele>404.0</ele><time>2026-04-10T11:06:19.842Z</time></trkpt><trkpt lat="44.360397" lon="5.2230766"><ele>405.75</ele><time>2026-04-10T11:06:20.847Z</time></trkpt><trkpt lat="44.3605579" lon="5.2231805"><ele>407.5</ele><time>2026-04-10T11:06:21.846Z</time></trkpt><trkpt lat="44.3606643" lon="5.2232622"><ele>409.25</ele><time>2026-04-10T11:06:22.846Z</time></trkpt><trkpt lat="44.360787" lon="5.2233521"><ele>411.0</ele><time>2026-04-10T11:06:23.841Z</time></trkpt><trkpt lat="44.3609058" lon="5.2234262"><ele>411.0</ele><time>2026-04-10T11:06:24.839Z</time></trkpt><trkpt lat="44.3609887" lon="5.223523"><ele>411.0</ele><time>2026-04-10T11:06:25.842Z</time></trkpt><trkpt lat="44.3609902" lon="5.2236274"><ele>411.0</ele><time>2026-04-10T11:06:26.839Z</time></trkpt><trkpt lat="44.3610893" lon="5.2236666"><ele>411.0</ele><time>2026-04-10T11:06:28.84Z</time></trkpt><trkpt lat="44.3611496" lon="5.2235347"><ele>411.0</ele><time>2026-04-10T11:06:30.84Z</time></trkpt><trkpt lat="44.3610706" lon="5.2233954"><ele>411.0</ele><time>2026-04-10T11:06:31.84Z</time></trkpt><trkpt lat="44.361025" lon="5.2232769"><ele>411.0</ele><time>2026-04-10T11:06:32.841Z</time></trkpt><trkpt lat="44.3609349" lon="5.2231487"><ele>411.0</ele><time>2026-04-10T11:06:33.838Z</time></trkpt><trkpt lat="44.3608577" lon="5.2230639"><ele>411.0</ele><time>2026-04-10T11:06:34.839Z</time></trkpt><trkpt lat="44.3607882" lon="5.2229979"><ele>411.0</ele><time>2026-04-10T11:06:35.837Z</time></trkpt><trkpt lat="44.3607398" lon="5.2229386"><ele>408.4</ele><time>2026-04-10T11:06:36.838Z</time></trkpt><trkpt lat="44.3607252" lon="5.2228079"><ele>405.8</ele><time>2026-04-10T11:06:38.839Z</time></trkpt><trkpt lat="44.3607989" lon="5.2228188"><ele>403.2</ele><time>2026-04-10T11:06:40.845Z</time></trkpt><trkpt lat="44.3608692" lon="5.2228534"><ele>400.59999999999997</ele><time>2026-04-10T11:06:41.849Z</time></trkpt><trkpt lat="44.3610399" lon="5.2229771"><ele>398.0</ele><time>2026-04-10T11:06:42.845Z</time></trkpt><trkpt lat="44.3611416" lon="5.2230394"><ele>398.0</ele><time>2026-04-10T11:06:43.843Z</time></trkpt><trkpt lat="44.3612235" lon="5.223126"><ele>398.0</ele><time>2026-04-10T11:06:44.84Z</time></trkpt><trkpt lat="44.3612757" lon="5.223261"><ele>398.0</ele><time>2026-04-10T11:06:45.844Z</time></trkpt><trkpt lat="44.361335" lon="5.2233876"><ele>398.0</ele><time>2026-04-10T11:06:46.838Z</time></trkpt><trkpt lat="44.3613245" lon="5.2235225"><ele>398.0</ele><time>2026-04-10T11:06:47.847Z</time></trkpt><trkpt lat="44.3613434" lon="5.2236324"><ele>397.0</ele><time>2026-04-10T11:06:48.847Z</time></trkpt><trkpt lat="44.3613974" lon="5.2237211"><ele>396.0</ele><time>2026-04-10T11:06:49.84Z</time></trkpt><trkpt lat="44.3614635" lon="5.2237759"><ele>395.0</ele><time>2026-04-10T11:06:50.842Z</time></trkpt><trkpt lat="44.3615341" lon="5.223831"><ele>394.0</ele><time>2026-04-10T11:06:51.843Z</time></trkpt><trkpt lat="44.3616172" lon="5.223873"><ele>393.0</ele><time>2026-04-10T11:06:52.842Z</time></trkpt><trkpt lat="44.3617906" lon="5.2237478"><ele>393.0</ele><time>2026-04-10T11:06:53.843Z</time></trkpt><trkpt lat="44.361932" lon="5.2237342"><ele>393.0</ele><time>2026-04-10T11:06:54.844Z</time></trkpt><trkpt lat="44.362107" lon="5.2237648"><ele>393.0</ele><time>2026-04-10T11:06:55.839Z</time></trkpt><trkpt lat="44.3622837" lon="5.2237664"><ele>391.33333333333337</ele><time>2026-04-10T11:06:56.841Z</time></trkpt><trkpt lat="44.3624455" lon="5.2237717"><ele>389.6666666666667</ele><time>2026-04-10T11:06:57.842Z</time></trkpt><trkpt lat="44.3626118" lon="5.2237511"><ele>388.0</ele><time>2026-04-10T11:06:58.841Z</time></trkpt><trkpt lat="44.3627678" lon="5.2237058"><ele>388.0</ele><time>2026-04-10T11:06:59.846Z</time></trkpt><trkpt lat="44.3629268" lon="5.2236553"><ele>388.0</ele><time>2026-04-10T11:07:00.843Z</time></trkpt><trkpt lat="44.3630763" lon="5.2235934"><ele>388.0</ele><time>2026-04-10T11:07:01.841Z</time></trkpt><trkpt lat="44.3632242" lon="5.2235278"><ele>387.0</ele><time>2026-04-10T11:07:02.845Z</time></trkpt><trkpt lat="44.363362" lon="5.2234607"><ele>386.0</ele><time>2026-04-10T11:07:03.849Z</time></trkpt><trkpt lat="44.3634746" lon="5.2234173"><ele>385.0</ele><time>2026-04-10T11:07:04.842Z</time></trkpt><trkpt lat="44.3635763" lon="5.2233421"><ele>384.0</ele><time>2026-04-10T11:07:05.845Z</time></trkpt><trkpt lat="44.3636597" lon="5.2232623"><ele>384.0</ele><time>2026-04-10T11:07:06.844Z</time></trkpt><trkpt lat="44.3637171" lon="5.2231534"><ele>384.0</ele><time>2026-04-10T11:07:07.84Z</time></trkpt><trkpt lat="44.3636627" lon="5.2230233"><ele>384.0</ele><time>2026-04-10T11:07:08.839Z</time></trkpt><trkpt lat="44.3636776" lon="5.22293"><ele>384.0</ele><time>2026-04-10T11:07:09.838Z</time></trkpt><trkpt lat="44.3638024" lon="5.2228794"><ele>384.0</ele><time>2026-04-10T11:07:11.842Z</time></trkpt><trkpt lat="44.3639045" lon="5.2228789"><ele>385.75</ele><time>2026-04-10T11:07:12.839Z</time></trkpt><trkpt lat="44.36402" lon="5.2228624"><ele>387.5</ele><time>2026-04-10T11:07:13.838Z</time></trkpt><trkpt lat="44.36415" lon="5.2228257"><ele>389.25</ele><time>2026-04-10T11:07:14.846Z</time></trkpt><trkpt lat="44.3642909" lon="5.2227884"><ele>391.0</ele><time>2026-04-10T11:07:15.842Z</time></trkpt><trkpt lat="44.3644395" lon="5.2227643"><ele>391.0</ele><time>2026-04-10T11:07:16.838Z</time></trkpt><trkpt lat="44.3646126" lon="5.2227695"><ele>391.0</ele><time>2026-04-10T11:07:17.84Z</time></trkpt><trkpt lat="44.3648003" lon="5.2227788"><ele>391.0</ele><time>2026-04-10T11:07:18.84Z</time></trkpt><trkpt lat="44.3649829" lon="5.2228046"><ele>391.33333333333337</ele><time>2026-04-10T11:07:19.843Z</time></trkpt><trkpt lat="44.3651593" lon="5.2228417"><ele>391.66666666666663</ele><time>2026-04-10T11:07:20.841Z</time></trkpt><trkpt lat="44.3653216" lon="5.2228918"><ele>392.0</ele><time>2026-04-10T11:07:21.842Z</time></trkpt><trkpt lat="44.3654829" lon="5.2229117"><ele>391.66666666666663</ele><time>2026-04-10T11:07:22.843Z</time></trkpt><trkpt lat="44.3656457" lon="5.2229187"><ele>391.33333333333337</ele><time>2026-04-10T11:07:23.842Z</time></trkpt><trkpt lat="44.3658183" lon="5.2229143"><ele>391.0</ele><time>2026-04-10T11:07:24.84Z</time></trkpt><trkpt lat="44.3659861" lon="5.2229136"><ele>391.0</ele><time>2026-04-10T11:07:25.841Z</time></trkpt><trkpt lat="44.3661528" lon="5.2229122"><ele>391.0</ele><time>2026-04-10T11:07:26.842Z</time></trkpt><trkpt lat="44.3663105" lon="5.2229046"><ele>391.0</ele><time>2026-04-10T11:07:27.848Z</time></trkpt><trkpt lat="44.3664479" lon="5.2228965"><ele>389.5</ele><time>2026-04-10T11:07:28.845Z</time></trkpt><trkpt lat="44.3665874" lon="5.2228896"><ele>388.0</ele><time>2026-04-10T11:07:29.841Z</time></trkpt><trkpt lat="44.3666863" lon="5.2228978"><ele>386.5</ele><time>2026-04-10T11:07:30.845Z</time></trkpt><trkpt lat="44.3667904" lon="5.2229412"><ele>385.0</ele><time>2026-04-10T11:07:31.848Z</time></trkpt><trkpt lat="44.3668662" lon="5.2230735"><ele>382.75</ele><time>2026-04-10T11:07:32.841Z</time></trkpt><trkpt lat="44.3669719" lon="5.2231863"><ele>380.5</ele><time>2026-04-10T11:07:33.843Z</time></trkpt><trkpt lat="44.3670795" lon="5.2232935"><ele>378.25</ele><time>2026-04-10T11:07:34.85Z</time></trkpt><trkpt lat="44.3671986" lon="5.2233207"><ele>376.0</ele><time>2026-04-10T11:07:35.841Z</time></trkpt><trkpt lat="44.3674052" lon="5.2233153"><ele>375.66666666666663</ele><time>2026-04-10T11:07:36.845Z</time></trkpt><trkpt lat="44.367603" lon="5.2232978"><ele>375.3333333333333</ele><time>2026-04-10T11:07:37.846Z</time></trkpt><trkpt lat="44.3677728" lon="5.2233292"><ele>375.0</ele><time>2026-04-10T11:07:38.84Z</time></trkpt><trkpt lat="44.3679286" lon="5.2233948"><ele>373.3333333333333</ele><time>2026-04-10T11:07:39.843Z</time></trkpt><trkpt lat="44.3680828" lon="5.2234704"><ele>371.66666666666663</ele><time>2026-04-10T11:07:40.847Z</time></trkpt><trkpt lat="44.3682445" lon="5.2235478"><ele>370.0</ele><time>2026-04-10T11:07:41.845Z</time></trkpt><trkpt lat="44.3683909" lon="5.2236181"><ele>370.0</ele><time>2026-04-10T11:07:42.843Z</time></trkpt><trkpt lat="44.3685312" lon="5.2236737"><ele>370.0</ele><time>2026-04-10T11:07:43.847Z</time></trkpt><trkpt lat="44.3686767" lon="5.2236916"><ele>370.0</ele><time>2026-04-10T11:07:44.843Z</time></trkpt><trkpt lat="44.3688223" lon="5.2236834"><ele>370.0</ele><time>2026-04-10T11:07:45.847Z</time></trkpt><trkpt lat="44.3689825" lon="5.2236438"><ele>371.0</ele><time>2026-04-10T11:07:46.845Z</time></trkpt><trkpt lat="44.3691082" lon="5.2235404"><ele>372.0</ele><time>2026-04-10T11:07:47.845Z</time></trkpt><trkpt lat="44.3692411" lon="5.2233478"><ele>373.0</ele><time>2026-04-10T11:07:48.841Z</time></trkpt><trkpt lat="44.3693818" lon="5.2232265"><ele>370.0</ele><time>2026-04-10T11:07:49.841Z</time></trkpt><trkpt lat="44.3695392" lon="5.2231267"><ele>367.0</ele><time>2026-04-10T11:07:50.842Z</time></trkpt><trkpt lat="44.3696886" lon="5.2230344"><ele>364.0</ele><time>2026-04-10T11:07:51.842Z</time></trkpt><trkpt lat="44.3698219" lon="5.2229137"><ele>364.0</ele><time>2026-04-10T11:07:52.841Z</time></trkpt><trkpt lat="44.3699656" lon="5.2228469"><ele>364.0</ele><time>2026-04-10T11:07:53.844Z</time></trkpt><trkpt lat="44.3701075" lon="5.2228014"><ele>364.0</ele><time>2026-04-10T11:07:54.84Z</time></trkpt><trkpt lat="44.3702487" lon="5.2227875"><ele>364.0</ele><time>2026-04-10T11:07:55.842Z</time></trkpt><trkpt lat="44.3703981" lon="5.2227967"><ele>363.66666666666663</ele><time>2026-04-10T11:07:56.839Z</time></trkpt><trkpt lat="44.3705546" lon="5.2228076"><ele>363.3333333333333</ele><time>2026-04-10T11:07:57.839Z</time></trkpt><trkpt lat="44.3707027" lon="5.2227933"><ele>363.0</ele><time>2026-04-10T11:07:58.84Z</time></trkpt><trkpt lat="44.3708536" lon="5.2227851"><ele>363.0</ele><time>2026-04-10T11:07:59.84Z</time></trkpt><trkpt lat="44.3709826" lon="5.2227521"><ele>363.0</ele><time>2026-04-10T11:08:00.839Z</time></trkpt><trkpt lat="44.3711046" lon="5.2227239"><ele>363.0</ele><time>2026-04-10T11:08:01.849Z</time></trkpt><trkpt lat="44.371215" lon="5.2227007"><ele>363.0</ele><time>2026-04-10T11:08:02.845Z</time></trkpt><trkpt lat="44.3713169" lon="5.222685"><ele>362.8333333333333</ele><time>2026-04-10T11:08:03.85Z</time></trkpt><trkpt lat="44.3714142" lon="5.2226695"><ele>362.6666666666667</ele><time>2026-04-10T11:08:04.843Z</time></trkpt><trkpt lat="44.3715091" lon="5.2226621"><ele>362.5</ele><time>2026-04-10T11:08:05.839Z</time></trkpt><trkpt lat="44.3715905" lon="5.2226627"><ele>362.33333333333337</ele><time>2026-04-10T11:08:06.842Z</time></trkpt><trkpt lat="44.3716778" lon="5.2226707"><ele>362.1666666666667</ele><time>2026-04-10T11:08:07.843Z</time></trkpt><trkpt lat="44.3717552" lon="5.2226931"><ele>362.0</ele><time>2026-04-10T11:08:08.844Z</time></trkpt><trkpt lat="44.3718364" lon="5.2227233"><ele>362.0</ele><time>2026-04-10T11:08:09.843Z</time></trkpt><trkpt lat="44.3719296" lon="5.2227548"><ele>362.0</ele><time>2026-04-10T11:08:10.839Z</time></trkpt><trkpt lat="44.3720173" lon="5.2227656"><ele>362.0</ele><time>2026-04-10T11:08:11.844Z</time></trkpt><trkpt lat="44.3721116" lon="5.2227628"><ele>362.0</ele><time>2026-04-10T11:08:12.839Z</time></trkpt><trkpt lat="44.3722305" lon="5.2227519"><ele>362.0</ele><time>2026-04-10T11:08:13.843Z</time></trkpt><trkpt lat="44.3723443" lon="5.2227303"><ele>360.75</ele><time>2026-04-10T11:08:14.842Z</time></trkpt><trkpt lat="44.3724611" lon="5.2227012"><ele>359.5</ele><time>2026-04-10T11:08:15.839Z</time></trkpt><trkpt lat="44.3725867" lon="5.2226616"><ele>358.25</ele><time>2026-04-10T11:08:16.844Z</time></trkpt><trkpt lat="44.3727182" lon="5.2226221"><ele>357.0</ele><time>2026-04-10T11:08:17.844Z</time></trkpt><trkpt lat="44.3728585" lon="5.2225857"><ele>357.0</ele><time>2026-04-10T11:08:18.838Z</time></trkpt><trkpt lat="44.3730023" lon="5.2225493"><ele>357.0</ele><time>2026-04-10T11:08:19.842Z</time></trkpt><trkpt lat="44.3731551" lon="5.222523"><ele>357.0</ele><time>2026-04-10T11:08:20.851Z</time></trkpt><trkpt lat="44.3732985" lon="5.2225186"><ele>357.0</ele><time>2026-04-10T11:08:21.851Z</time></trkpt><trkpt lat="44.37344" lon="5.2225182"><ele>356.25</ele><time>2026-04-10T11:08:22.839Z</time></trkpt><trkpt lat="44.3735726" lon="5.2225074"><ele>355.5</ele><time>2026-04-10T11:08:23.845Z</time></trkpt><trkpt lat="44.3737059" lon="5.2225122"><ele>354.75</ele><time>2026-04-10T11:08:24.845Z</time></trkpt><trkpt lat="44.3738286" lon="5.2225296"><ele>354.0</ele><time>2026-04-10T11:08:25.849Z</time></trkpt><trkpt lat="44.3739416" lon="5.2225491"><ele>352.75</ele><time>2026-04-10T11:08:26.846Z</time></trkpt><trkpt lat="44.374051" lon="5.2225623"><ele>351.5</ele><time>2026-04-10T11:08:27.846Z</time></trkpt><trkpt lat="44.3741617" lon="5.2225715"><ele>350.25</ele><time>2026-04-10T11:08:28.843Z</time></trkpt><trkpt lat="44.3742763" lon="5.2225902"><ele>349.0</ele><time>2026-04-10T11:08:29.843Z</time></trkpt><trkpt lat="44.3743936" lon="5.2225994"><ele>349.0</ele><time>2026-04-10T11:08:30.851Z</time></trkpt><trkpt lat="44.3745129" lon="5.2226031"><ele>349.0</ele><time>2026-04-10T11:08:31.84Z</time></trkpt><trkpt lat="44.374636" lon="5.2225835"><ele>349.0</ele><time>2026-04-10T11:08:32.842Z</time></trkpt><trkpt lat="44.3747537" lon="5.2225249"><ele>349.0</ele><time>2026-04-10T11:08:33.844Z</time></trkpt><trkpt lat="44.3748725" lon="5.2224533"><ele>349.0</ele><time>2026-04-10T11:08:34.842Z</time></trkpt><trkpt lat="44.3749967" lon="5.2223771"><ele>349.0</ele><time>2026-04-10T11:08:35.84Z</time></trkpt><trkpt lat="44.3751212" lon="5.222297"><ele>349.0</ele><time>2026-04-10T11:08:36.842Z</time></trkpt><trkpt lat="44.3752486" lon="5.2222058"><ele>349.0</ele><time>2026-04-10T11:08:37.842Z</time></trkpt><trkpt lat="44.3753727" lon="5.2220969"><ele>348.3333333333333</ele><time>2026-04-10T11:08:38.84Z</time></trkpt><trkpt lat="44.3755022" lon="5.2219929"><ele>347.6666666666667</ele><time>2026-04-10T11:08:39.843Z</time></trkpt><trkpt lat="44.375639" lon="5.221881"><ele>347.0</ele><time>2026-04-10T11:08:40.84Z</time></trkpt><trkpt lat="44.3757883" lon="5.2217666"><ele>346.6666666666667</ele><time>2026-04-10T11:08:41.84Z</time></trkpt><trkpt lat="44.3759523" lon="5.2216305"><ele>346.3333333333333</ele><time>2026-04-10T11:08:42.841Z</time></trkpt><trkpt lat="44.376124" lon="5.2215076"><ele>346.0</ele><time>2026-04-10T11:08:43.839Z</time></trkpt><trkpt lat="44.3763017" lon="5.2213952"><ele>345.3333333333333</ele><time>2026-04-10T11:08:44.84Z</time></trkpt><trkpt lat="44.3764893" lon="5.2212974"><ele>344.6666666666667</ele><time>2026-04-10T11:08:45.849Z</time></trkpt><trkpt lat="44.3766835" lon="5.2212118"><ele>344.0</ele><time>2026-04-10T11:08:46.846Z</time></trkpt><trkpt lat="44.3768759" lon="5.2211249"><ele>344.0</ele><time>2026-04-10T11:08:47.843Z</time></trkpt><trkpt lat="44.3770688" lon="5.221048"><ele>344.0</ele><time>2026-04-10T11:08:48.845Z</time></trkpt><trkpt lat="44.3772676" lon="5.2209809"><ele>344.0</ele><time>2026-04-10T11:08:49.838Z</time></trkpt><trkpt lat="44.3774713" lon="5.2209313"><ele>344.0</ele><time>2026-04-10T11:08:50.842Z</time></trkpt><trkpt lat="44.3776713" lon="5.2209331"><ele>344.0</ele><time>2026-04-10T11:08:51.841Z</time></trkpt><trkpt lat="44.3778615" lon="5.2209241"><ele>344.0</ele><time>2026-04-10T11:08:52.841Z</time></trkpt><trkpt lat="44.378047" lon="5.2208967"><ele>343.0</ele><time>2026-04-10T11:08:53.844Z</time></trkpt><trkpt lat="44.3782277" lon="5.2208614"><ele>342.0</ele><time>2026-04-10T11:08:54.842Z</time></trkpt><trkpt lat="44.3784105" lon="5.2208433"><ele>341.0</ele><time>2026-04-10T11:08:55.841Z</time></trkpt><trkpt lat="44.3785884" lon="5.2208344"><ele>341.0</ele><time>2026-04-10T11:08:56.839Z</time></trkpt><trkpt lat="44.3787608" lon="5.2208365"><ele>341.0</ele><time>2026-04-10T11:08:57.839Z</time></trkpt><trkpt lat="44.3789308" lon="5.2208359"><ele>341.0</ele><time>2026-04-10T11:08:58.843Z</time></trkpt><trkpt lat="44.3791018" lon="5.2208069"><ele>341.6666666666667</ele><time>2026-04-10T11:08:59.844Z</time></trkpt><trkpt lat="44.3792608" lon="5.220758"><ele>342.3333333333333</ele><time>2026-04-10T11:09:00.839Z</time></trkpt><trkpt lat="44.3794126" lon="5.2207116"><ele>343.0</ele><time>2026-04-10T11:09:01.841Z</time></trkpt><trkpt lat="44.3795635" lon="5.2206904"><ele>342.0</ele><time>2026-04-10T11:09:02.846Z</time></trkpt><trkpt lat="44.3797158" lon="5.220732"><ele>341.0</ele><time>2026-04-10T11:09:03.84Z</time></trkpt><trkpt lat="44.3798671" lon="5.2207982"><ele>340.0</ele><time>2026-04-10T11:09:04.839Z</time></trkpt><trkpt lat="44.3800177" lon="5.220884"><ele>340.0</ele><time>2026-04-10T11:09:05.84Z</time></trkpt><trkpt lat="44.3801732" lon="5.2209792"><ele>340.0</ele><time>2026-04-10T11:09:06.842Z</time></trkpt><trkpt lat="44.3803317" lon="5.2210667"><ele>340.0</ele><time>2026-04-10T11:09:07.844Z</time></trkpt><trkpt lat="44.3804962" lon="5.2211548"><ele>338.3333333333333</ele><time>2026-04-10T11:09:08.841Z</time></trkpt><trkpt lat="44.3806586" lon="5.2212416"><ele>336.6666666666667</ele><time>2026-04-10T11:09:09.849Z</time></trkpt><trkpt lat="44.380816" lon="5.2213245"><ele>335.0</ele><time>2026-04-10T11:09:10.847Z</time></trkpt><trkpt lat="44.3809654" lon="5.2213932"><ele>335.0</ele><time>2026-04-10T11:09:11.838Z</time></trkpt><trkpt lat="44.3811016" lon="5.2214478"><ele>335.0</ele><time>2026-04-10T11:09:12.839Z</time></trkpt><trkpt lat="44.3812337" lon="5.2214865"><ele>335.0</ele><time>2026-04-10T11:09:13.839Z</time></trkpt><trkpt lat="44.3813608" lon="5.2215179"><ele>335.0</ele><time>2026-04-10T11:09:14.844Z</time></trkpt><trkpt lat="44.3814751" lon="5.2215358"><ele>334.4</ele><time>2026-04-10T11:09:15.844Z</time></trkpt><trkpt lat="44.3815828" lon="5.2215079"><ele>333.8</ele><time>2026-04-10T11:09:16.842Z</time></trkpt><trkpt lat="44.3816852" lon="5.2214617"><ele>333.20000000000005</ele><time>2026-04-10T11:09:17.841Z</time></trkpt><trkpt lat="44.3817852" lon="5.2214005"><ele>332.6</ele><time>2026-04-10T11:09:18.844Z</time></trkpt><trkpt lat="44.3818801" lon="5.2213237"><ele>332.0</ele><time>2026-04-10T11:09:19.842Z</time></trkpt><trkpt lat="44.3819636" lon="5.2212319"><ele>332.0</ele><time>2026-04-10T11:09:20.84Z</time></trkpt><trkpt lat="44.3820158" lon="5.221117"><ele>332.0</ele><time>2026-04-10T11:09:21.841Z</time></trkpt><trkpt lat="44.382059" lon="5.2210092"><ele>332.0</ele><time>2026-04-10T11:09:22.846Z</time></trkpt><trkpt lat="44.3820344" lon="5.220917"><ele>332.0</ele><time>2026-04-10T11:09:23.842Z</time></trkpt><trkpt lat="44.382052" lon="5.2208296"><ele>332.0</ele><time>2026-04-10T11:09:24.841Z</time></trkpt><trkpt lat="44.3821004" lon="5.2207727"><ele>332.0</ele><time>2026-04-10T11:09:25.841Z</time></trkpt><trkpt lat="44.3821834" lon="5.220735"><ele>330.5</ele><time>2026-04-10T11:09:26.847Z</time></trkpt><trkpt lat="44.3822962" lon="5.2207611"><ele>329.0</ele><time>2026-04-10T11:09:27.844Z</time></trkpt><trkpt lat="44.3824126" lon="5.2207759"><ele>327.5</ele><time>2026-04-10T11:09:28.843Z</time></trkpt><trkpt lat="44.3825425" lon="5.220794"><ele>326.0</ele><time>2026-04-10T11:09:29.846Z</time></trkpt><trkpt lat="44.3826865" lon="5.2208269"><ele>326.0</ele><time>2026-04-10T11:09:30.841Z</time></trkpt><trkpt lat="44.3828266" lon="5.2208513"><ele>326.0</ele><time>2026-04-10T11:09:31.841Z</time></trkpt><trkpt lat="44.3829558" lon="5.2208924"><ele>326.0</ele><time>2026-04-10T11:09:32.843Z</time></trkpt><trkpt lat="44.3830701" lon="5.2209506"><ele>326.0</ele><time>2026-04-10T11:09:33.84Z</time></trkpt><trkpt lat="44.3831756" lon="5.2210155"><ele>325.6</ele><time>2026-04-10T11:09:34.847Z</time></trkpt><trkpt lat="44.3832808" lon="5.2210677"><ele>325.20000000000005</ele><time>2026-04-10T11:09:35.843Z</time></trkpt><trkpt lat="44.3833864" lon="5.2210875"><ele>324.79999999999995</ele><time>2026-04-10T11:09:36.841Z</time></trkpt><trkpt lat="44.3834807" lon="5.2210559"><ele>324.4</ele><time>2026-04-10T11:09:37.841Z</time></trkpt><trkpt lat="44.3835678" lon="5.2209769"><ele>324.0</ele><time>2026-04-10T11:09:38.84Z</time></trkpt><trkpt lat="44.3836447" lon="5.2208579"><ele>324.0</ele><time>2026-04-10T11:09:39.839Z</time></trkpt><trkpt lat="44.3837119" lon="5.2206995"><ele>324.0</ele><time>2026-04-10T11:09:40.841Z</time></trkpt><trkpt lat="44.3837752" lon="5.2205282"><ele>324.0</ele><time>2026-04-10T11:09:41.851Z</time></trkpt><trkpt lat="44.3838344" lon="5.2203364"><ele>324.0</ele><time>2026-04-10T11:09:42.841Z</time></trkpt><trkpt lat="44.3838852" lon="5.2201314"><ele>323.3333333333333</ele><time>2026-04-10T11:09:43.841Z</time></trkpt><trkpt lat="44.3839262" lon="5.2199108"><ele>322.66666666666663</ele><time>2026-04-10T11:09:44.844Z</time></trkpt><trkpt lat="44.3839549" lon="5.2196828"><ele>322.0</ele><time>2026-04-10T11:09:45.84Z</time></trkpt><trkpt lat="44.3839892" lon="5.2194565"><ele>322.0</ele><time>2026-04-10T11:09:46.841Z</time></trkpt><trkpt lat="44.3840351" lon="5.2192321"><ele>322.0</ele><time>2026-04-10T11:09:47.839Z</time></trkpt><trkpt lat="44.384095" lon="5.2190103"><ele>322.0</ele><time>2026-04-10T11:09:48.841Z</time></trkpt><trkpt lat="44.3841683" lon="5.2187952"><ele>324.66666666666663</ele><time>2026-04-10T11:09:49.838Z</time></trkpt><trkpt lat="44.3842568" lon="5.218576"><ele>327.3333333333333</ele><time>2026-04-10T11:09:50.842Z</time></trkpt><trkpt lat="44.384349" lon="5.2183846"><ele>330.0</ele><time>2026-04-10T11:09:51.841Z</time></trkpt><trkpt lat="44.3844423" lon="5.2182023"><ele>328.6666666666667</ele><time>2026-04-10T11:09:52.841Z</time></trkpt><trkpt lat="44.3846015" lon="5.2180829"><ele>327.33333333333337</ele><time>2026-04-10T11:09:53.841Z</time></trkpt><trkpt lat="44.384746" lon="5.2179529"><ele>326.0</ele><time>2026-04-10T11:09:54.838Z</time></trkpt><trkpt lat="44.3848905" lon="5.2178142"><ele>326.0</ele><time>2026-04-10T11:09:55.842Z</time></trkpt><trkpt lat="44.3850188" lon="5.2176753"><ele>326.0</ele><time>2026-04-10T11:09:56.842Z</time></trkpt><trkpt lat="44.3851409" lon="5.2175382"><ele>326.0</ele><time>2026-04-10T11:09:57.841Z</time></trkpt><trkpt lat="44.3852621" lon="5.2173943"><ele>326.0</ele><time>2026-04-10T11:09:58.841Z</time></trkpt><trkpt lat="44.3853793" lon="5.2172502"><ele>326.0</ele><time>2026-04-10T11:09:59.84Z</time></trkpt><trkpt lat="44.3855048" lon="5.2171163"><ele>326.0</ele><time>2026-04-10T11:10:00.842Z</time></trkpt><trkpt lat="44.3856357" lon="5.2170031"><ele>326.0</ele><time>2026-04-10T11:10:01.841Z</time></trkpt><trkpt lat="44.3857599" lon="5.2168896"><ele>326.0</ele><time>2026-04-10T11:10:02.84Z</time></trkpt><trkpt lat="44.3858586" lon="5.2167662"><ele>326.0</ele><time>2026-04-10T11:10:03.847Z</time></trkpt><trkpt lat="44.3859371" lon="5.2166243"><ele>326.0</ele><time>2026-04-10T11:10:04.849Z</time></trkpt><trkpt lat="44.3860159" lon="5.2164579"><ele>328.5</ele><time>2026-04-10T11:10:05.841Z</time></trkpt><trkpt lat="44.3860846" lon="5.2162911"><ele>331.0</ele><time>2026-04-10T11:10:06.844Z</time></trkpt><trkpt lat="44.3861434" lon="5.2161427"><ele>333.5</ele><time>2026-04-10T11:10:07.847Z</time></trkpt><trkpt lat="44.3861994" lon="5.2159864"><ele>336.0</ele><time>2026-04-10T11:10:08.844Z</time></trkpt><trkpt lat="44.3862384" lon="5.2158217"><ele>336.0</ele><time>2026-04-10T11:10:09.847Z</time></trkpt><trkpt lat="44.3862518" lon="5.2156552"><ele>336.0</ele><time>2026-04-10T11:10:10.839Z</time></trkpt><trkpt lat="44.3862511" lon="5.2154962"><ele>336.0</ele><time>2026-04-10T11:10:11.841Z</time></trkpt><trkpt lat="44.3862297" lon="5.215333"><ele>336.0</ele><time>2026-04-10T11:10:12.845Z</time></trkpt><trkpt lat="44.3861957" lon="5.2151555"><ele>336.0</ele><time>2026-04-10T11:10:13.839Z</time></trkpt><trkpt lat="44.3861545" lon="5.2149752"><ele>336.0</ele><time>2026-04-10T11:10:14.841Z</time></trkpt><trkpt lat="44.386105" lon="5.2147765"><ele>336.0</ele><time>2026-04-10T11:10:15.844Z</time></trkpt><trkpt lat="44.3860503" lon="5.2145708"><ele>336.0</ele><time>2026-04-10T11:10:16.845Z</time></trkpt><trkpt lat="44.3859987" lon="5.2143496"><ele>333.6666666666667</ele><time>2026-04-10T11:10:17.844Z</time></trkpt><trkpt lat="44.3859466" lon="5.2141147"><ele>331.33333333333337</ele><time>2026-04-10T11:10:18.847Z</time></trkpt><trkpt lat="44.3858945" lon="5.2138784"><ele>329.0</ele><time>2026-04-10T11:10:19.845Z</time></trkpt><trkpt lat="44.3858338" lon="5.2136367"><ele>326.0</ele><time>2026-04-10T11:10:20.845Z</time></trkpt><trkpt lat="44.3857648" lon="5.2133909"><ele>323.0</ele><time>2026-04-10T11:10:21.847Z</time></trkpt><trkpt lat="44.3856892" lon="5.213149"><ele>320.0</ele><time>2026-04-10T11:10:22.843Z</time></trkpt><trkpt lat="44.3856212" lon="5.2129376"><ele>317.6666666666667</ele><time>2026-04-10T11:10:23.841Z</time></trkpt><trkpt lat="44.385541" lon="5.2127534"><ele>315.3333333333333</ele><time>2026-04-10T11:10:24.839Z</time></trkpt><trkpt lat="44.3854368" lon="5.2125906"><ele>313.0</ele><time>2026-04-10T11:10:25.842Z</time></trkpt><trkpt lat="44.385315" lon="5.2124622"><ele>313.3333333333333</ele><time>2026-04-10T11:10:26.84Z</time></trkpt><trkpt lat="44.3851765" lon="5.2123417"><ele>313.6666666666667</ele><time>2026-04-10T11:10:27.841Z</time></trkpt><trkpt lat="44.3850326" lon="5.2122288"><ele>314.0</ele><time>2026-04-10T11:10:28.838Z</time></trkpt><trkpt lat="44.3848943" lon="5.2121144"><ele>314.0</ele><time>2026-04-10T11:10:29.845Z</time></trkpt><trkpt lat="44.3847735" lon="5.2119983"><ele>314.0</ele><time>2026-04-10T11:10:30.842Z</time></trkpt><trkpt lat="44.3846516" lon="5.2118835"><ele>314.0</ele><time>2026-04-10T11:10:31.839Z</time></trkpt><trkpt lat="44.3845382" lon="5.2117862"><ele>314.0</ele><time>2026-04-10T11:10:32.845Z</time></trkpt><trkpt lat="44.384429" lon="5.2116989"><ele>314.4</ele><time>2026-04-10T11:10:33.842Z</time></trkpt><trkpt lat="44.3843325" lon="5.2116296"><ele>314.79999999999995</ele><time>2026-04-10T11:10:34.847Z</time></trkpt><trkpt lat="44.3842543" lon="5.2115725"><ele>315.20000000000005</ele><time>2026-04-10T11:10:35.845Z</time></trkpt><trkpt lat="44.384166" lon="5.2114968"><ele>315.6</ele><time>2026-04-10T11:10:37.841Z</time></trkpt><trkpt lat="44.3841349" lon="5.2114169"><ele>316.0</ele><time>2026-04-10T11:10:39.84Z</time></trkpt><trkpt lat="44.3840862" lon="5.2112759"><ele>316.0</ele><time>2026-04-10T11:10:41.841Z</time></trkpt><trkpt lat="44.3840436" lon="5.2111807"><ele>316.0</ele><time>2026-04-10T11:10:42.842Z</time></trkpt><trkpt lat="44.3839838" lon="5.2110848"><ele>316.0</ele><time>2026-04-10T11:10:43.839Z</time></trkpt><trkpt lat="44.3839216" lon="5.2109907"><ele>316.0</ele><time>2026-04-10T11:10:44.845Z</time></trkpt><trkpt lat="44.3838559" lon="5.2109084"><ele>316.0</ele><time>2026-04-10T11:10:45.843Z</time></trkpt><trkpt lat="44.3837963" lon="5.210827"><ele>316.0</ele><time>2026-04-10T11:10:46.841Z</time></trkpt><trkpt lat="44.3837388" lon="5.2107361"><ele>316.8333333333333</ele><time>2026-04-10T11:10:47.841Z</time></trkpt><trkpt lat="44.3836852" lon="5.2106277"><ele>317.66666666666663</ele><time>2026-04-10T11:10:48.845Z</time></trkpt><trkpt lat="44.3836197" lon="5.2105379"><ele>318.5</ele><time>2026-04-10T11:10:49.845Z</time></trkpt><trkpt lat="44.3835543" lon="5.2104631"><ele>319.3333333333333</ele><time>2026-04-10T11:10:50.842Z</time></trkpt><trkpt lat="44.3834832" lon="5.2104047"><ele>320.1666666666667</ele><time>2026-04-10T11:10:51.841Z</time></trkpt><trkpt lat="44.3834135" lon="5.2103224"><ele>321.0</ele><time>2026-04-10T11:10:52.846Z</time></trkpt><trkpt lat="44.383355" lon="5.2102093"><ele>321.0</ele><time>2026-04-10T11:10:53.837Z</time></trkpt><trkpt lat="44.38331" lon="5.2100774"><ele>321.0</ele><time>2026-04-10T11:10:54.84Z</time></trkpt><trkpt lat="44.3832753" lon="5.2099267"><ele>321.0</ele><time>2026-04-10T11:10:55.843Z</time></trkpt><trkpt lat="44.3832252" lon="5.2097826"><ele>321.0</ele><time>2026-04-10T11:10:56.843Z</time></trkpt><trkpt lat="44.3831535" lon="5.2096322"><ele>318.5</ele><time>2026-04-10T11:10:57.84Z</time></trkpt><trkpt lat="44.3830732" lon="5.2094658"><ele>316.0</ele><time>2026-04-10T11:10:58.843Z</time></trkpt><trkpt lat="44.382988" lon="5.2093005"><ele>313.5</ele><time>2026-04-10T11:10:59.843Z</time></trkpt><trkpt lat="44.3829187" lon="5.2091307"><ele>311.0</ele><time>2026-04-10T11:11:00.839Z</time></trkpt><trkpt lat="44.3828853" lon="5.2089483"><ele>319.0</ele><time>2026-04-10T11:11:01.842Z</time></trkpt><trkpt lat="44.3828558" lon="5.2087489"><ele>327.0</ele><time>2026-04-10T11:11:02.839Z</time></trkpt><trkpt lat="44.3828468" lon="5.2085349"><ele>335.0</ele><time>2026-04-10T11:11:03.846Z</time></trkpt><trkpt lat="44.382827" lon="5.2083105"><ele>335.33333333333337</ele><time>2026-04-10T11:11:04.841Z</time></trkpt><trkpt lat="44.3828045" lon="5.2080833"><ele>335.6666666666667</ele><time>2026-04-10T11:11:05.848Z</time></trkpt><trkpt lat="44.3827743" lon="5.2078449"><ele>336.0</ele><time>2026-04-10T11:11:06.844Z</time></trkpt><trkpt lat="44.3827476" lon="5.2076082"><ele>336.0</ele><time>2026-04-10T11:11:07.851Z</time></trkpt><trkpt lat="44.3827307" lon="5.2073751"><ele>336.0</ele><time>2026-04-10T11:11:08.849Z</time></trkpt><trkpt lat="44.382728" lon="5.2071394"><ele>336.0</ele><time>2026-04-10T11:11:09.851Z</time></trkpt><trkpt lat="44.3827446" lon="5.2069183"><ele>335.25</ele><time>2026-04-10T11:11:10.841Z</time></trkpt><trkpt lat="44.3827624" lon="5.2067146"><ele>334.5</ele><time>2026-04-10T11:11:11.841Z</time></trkpt><trkpt lat="44.3827658" lon="5.2065188"><ele>333.75</ele><time>2026-04-10T11:11:12.844Z</time></trkpt><trkpt lat="44.3827446" lon="5.2063111"><ele>333.0</ele><time>2026-04-10T11:11:13.849Z</time></trkpt><trkpt lat="44.382711" lon="5.206095"><ele>331.0</ele><time>2026-04-10T11:11:14.849Z</time></trkpt><trkpt lat="44.3826739" lon="5.2058783"><ele>329.0</ele><time>2026-04-10T11:11:15.84Z</time></trkpt><trkpt lat="44.3826456" lon="5.2056494"><ele>327.0</ele><time>2026-04-10T11:11:16.847Z</time></trkpt><trkpt lat="44.382623" lon="5.2054158"><ele>325.6666666666667</ele><time>2026-04-10T11:11:17.842Z</time></trkpt><trkpt lat="44.3826057" lon="5.205182"><ele>324.33333333333337</ele><time>2026-04-10T11:11:18.838Z</time></trkpt><trkpt lat="44.3825883" lon="5.2049456"><ele>323.0</ele><time>2026-04-10T11:11:19.839Z</time></trkpt><trkpt lat="44.3825735" lon="5.2047178"><ele>321.6666666666667</ele><time>2026-04-10T11:11:20.843Z</time></trkpt><trkpt lat="44.3825655" lon="5.204498"><ele>320.3333333333333</ele><time>2026-04-10T11:11:21.839Z</time></trkpt><trkpt lat="44.3825694" lon="5.2042809"><ele>319.0</ele><time>2026-04-10T11:11:22.841Z</time></trkpt><trkpt lat="44.3825859" lon="5.2040633"><ele>319.66666666666663</ele><time>2026-04-10T11:11:23.84Z</time></trkpt><trkpt lat="44.382606" lon="5.2038514"><ele>320.3333333333333</ele><time>2026-04-10T11:11:24.847Z</time></trkpt><trkpt lat="44.3826106" lon="5.203638"><ele>321.0</ele><time>2026-04-10T11:11:25.838Z</time></trkpt><trkpt lat="44.3826015" lon="5.203429"><ele>321.0</ele><time>2026-04-10T11:11:26.84Z</time></trkpt><trkpt lat="44.3825889" lon="5.203222"><ele>321.0</ele><time>2026-04-10T11:11:27.841Z</time></trkpt><trkpt lat="44.3825785" lon="5.2030271"><ele>321.0</ele><time>2026-04-10T11:11:28.843Z</time></trkpt><trkpt lat="44.3825633" lon="5.2028424"><ele>321.0</ele><time>2026-04-10T11:11:29.845Z</time></trkpt><trkpt lat="44.3825525" lon="5.2026704"><ele>320.0</ele><time>2026-04-10T11:11:30.848Z</time></trkpt><trkpt lat="44.3825408" lon="5.2025091"><ele>319.0</ele><time>2026-04-10T11:11:31.844Z</time></trkpt><trkpt lat="44.3825228" lon="5.2023584"><ele>318.0</ele><time>2026-04-10T11:11:32.842Z</time></trkpt><trkpt lat="44.3825016" lon="5.2022087"><ele>317.0</ele><time>2026-04-10T11:11:33.846Z</time></trkpt><trkpt lat="44.3824766" lon="5.2020475"><ele>314.75</ele><time>2026-04-10T11:11:34.867Z</time></trkpt><trkpt lat="44.3824477" lon="5.2018886"><ele>312.5</ele><time>2026-04-10T11:11:35.864Z</time></trkpt><trkpt lat="44.3824133" lon="5.201727"><ele>310.25</ele><time>2026-04-10T11:11:36.84Z</time></trkpt><trkpt lat="44.3823658" lon="5.2015707"><ele>308.0</ele><time>2026-04-10T11:11:37.84Z</time></trkpt><trkpt lat="44.3822861" lon="5.2014386"><ele>307.0</ele><time>2026-04-10T11:11:38.839Z</time></trkpt><trkpt lat="44.3821845" lon="5.2013176"><ele>306.0</ele><time>2026-04-10T11:11:39.841Z</time></trkpt><trkpt lat="44.3820715" lon="5.2012218"><ele>305.0</ele><time>2026-04-10T11:11:40.843Z</time></trkpt><trkpt lat="44.3819822" lon="5.2010918"><ele>304.0</ele><time>2026-04-10T11:11:41.843Z</time></trkpt><trkpt lat="44.3819095" lon="5.2009328"><ele>307.75</ele><time>2026-04-10T11:11:42.838Z</time></trkpt><trkpt lat="44.3818542" lon="5.200755"><ele>311.5</ele><time>2026-04-10T11:11:43.84Z</time></trkpt><trkpt lat="44.3817987" lon="5.200564"><ele>315.25</ele><time>2026-04-10T11:11:44.841Z</time></trkpt><trkpt lat="44.3817425" lon="5.2003679"><ele>319.0</ele><time>2026-04-10T11:11:45.839Z</time></trkpt><trkpt lat="44.381685" lon="5.2001654"><ele>319.0</ele><time>2026-04-10T11:11:46.839Z</time></trkpt><trkpt lat="44.3816288" lon="5.1999701"><ele>319.0</ele><time>2026-04-10T11:11:47.841Z</time></trkpt><trkpt lat="44.3815774" lon="5.1997876"><ele>319.0</ele><time>2026-04-10T11:11:48.846Z</time></trkpt><trkpt lat="44.3815294" lon="5.1996189"><ele>319.0</ele><time>2026-04-10T11:11:49.841Z</time></trkpt><trkpt lat="44.3814777" lon="5.1994717"><ele>319.5</ele><time>2026-04-10T11:11:50.845Z</time></trkpt><trkpt lat="44.3814118" lon="5.1993559"><ele>320.0</ele><time>2026-04-10T11:11:51.845Z</time></trkpt><trkpt lat="44.381344" lon="5.1992497"><ele>320.5</ele><time>2026-04-10T11:11:52.84Z</time></trkpt><trkpt lat="44.381208" lon="5.1992142"><ele>321.0</ele><time>2026-04-10T11:11:53.839Z</time></trkpt><trkpt lat="44.3810878" lon="5.1991694"><ele>321.0</ele><time>2026-04-10T11:11:54.839Z</time></trkpt><trkpt lat="44.3809679" lon="5.1991329"><ele>321.0</ele><time>2026-04-10T11:11:55.843Z</time></trkpt><trkpt lat="44.3808529" lon="5.1991154"><ele>321.0</ele><time>2026-04-10T11:11:56.841Z</time></trkpt><trkpt lat="44.3807306" lon="5.1991104"><ele>321.0</ele><time>2026-04-10T11:11:57.842Z</time></trkpt><trkpt lat="44.3806082" lon="5.1991135"><ele>322.25</ele><time>2026-04-10T11:11:58.839Z</time></trkpt><trkpt lat="44.3804754" lon="5.1991214"><ele>323.5</ele><time>2026-04-10T11:11:59.853Z</time></trkpt><trkpt lat="44.3803522" lon="5.1991438"><ele>324.75</ele><time>2026-04-10T11:12:00.855Z</time></trkpt><trkpt lat="44.3802277" lon="5.1991433"><ele>326.0</ele><time>2026-04-10T11:12:01.847Z</time></trkpt><trkpt lat="44.3801311" lon="5.1990957"><ele>323.8</ele><time>2026-04-10T11:12:02.842Z</time></trkpt><trkpt lat="44.3800581" lon="5.1989945"><ele>321.6</ele><time>2026-04-10T11:12:03.842Z</time></trkpt><trkpt lat="44.3800131" lon="5.1988638"><ele>319.4</ele><time>2026-04-10T11:12:04.842Z</time></trkpt><trkpt lat="44.3799872" lon="5.1987014"><ele>317.2</ele><time>2026-04-10T11:12:05.845Z</time></trkpt><trkpt lat="44.3799527" lon="5.1985362"><ele>315.0</ele><time>2026-04-10T11:12:06.843Z</time></trkpt><trkpt lat="44.379897" lon="5.1983918"><ele>315.0</ele><time>2026-04-10T11:12:07.848Z</time></trkpt><trkpt lat="44.3798221" lon="5.1982434"><ele>315.0</ele><time>2026-04-10T11:12:08.843Z</time></trkpt><trkpt lat="44.3797322" lon="5.1980995"><ele>315.0</ele><time>2026-04-10T11:12:09.845Z</time></trkpt><trkpt lat="44.3796313" lon="5.1979583"><ele>315.0</ele><time>2026-04-10T11:12:10.845Z</time></trkpt><trkpt lat="44.3795325" lon="5.1978172"><ele>316.0</ele><time>2026-04-10T11:12:11.844Z</time></trkpt><trkpt lat="44.3794115" lon="5.197659"><ele>317.0</ele><time>2026-04-10T11:12:12.84Z</time></trkpt><trkpt lat="44.3792918" lon="5.1974941"><ele>318.0</ele><time>2026-04-10T11:12:13.843Z</time></trkpt><trkpt lat="44.3791751" lon="5.1973187"><ele>320.0</ele><time>2026-04-10T11:12:14.84Z</time></trkpt><trkpt lat="44.3790518" lon="5.1971363"><ele>322.0</ele><time>2026-04-10T11:12:15.846Z</time></trkpt><trkpt lat="44.3789295" lon="5.1969349"><ele>324.0</ele><time>2026-04-10T11:12:16.843Z</time></trkpt><trkpt lat="44.3788167" lon="5.1967361"><ele>324.0</ele><time>2026-04-10T11:12:17.842Z</time></trkpt><trkpt lat="44.3787104" lon="5.1965411"><ele>324.0</ele><time>2026-04-10T11:12:18.847Z</time></trkpt><trkpt lat="44.3786269" lon="5.1963775"><ele>324.0</ele><time>2026-04-10T11:12:19.842Z</time></trkpt><trkpt lat="44.3785497" lon="5.1962279"><ele>322.75</ele><time>2026-04-10T11:12:20.84Z</time></trkpt><trkpt lat="44.3784819" lon="5.1960691"><ele>321.5</ele><time>2026-04-10T11:12:21.846Z</time></trkpt><trkpt lat="44.3784298" lon="5.1958888"><ele>320.25</ele><time>2026-04-10T11:12:22.84Z</time></trkpt><trkpt lat="44.3784092" lon="5.1957002"><ele>319.0</ele><time>2026-04-10T11:12:23.844Z</time></trkpt><trkpt lat="44.3783888" lon="5.1954922"><ele>317.5</ele><time>2026-04-10T11:12:24.84Z</time></trkpt><trkpt lat="44.3783532" lon="5.1952878"><ele>316.0</ele><time>2026-04-10T11:12:25.842Z</time></trkpt><trkpt lat="44.3783028" lon="5.1950889"><ele>314.5</ele><time>2026-04-10T11:12:26.845Z</time></trkpt><trkpt lat="44.3782549" lon="5.1948927"><ele>313.0</ele><time>2026-04-10T11:12:27.848Z</time></trkpt><trkpt lat="44.3782077" lon="5.1947038"><ele>311.5</ele><time>2026-04-10T11:12:28.84Z</time></trkpt><trkpt lat="44.378164" lon="5.194511"><ele>310.0</ele><time>2026-04-10T11:12:29.844Z</time></trkpt><trkpt lat="44.3781268" lon="5.1943061"><ele>308.5</ele><time>2026-04-10T11:12:30.841Z</time></trkpt><trkpt lat="44.3781098" lon="5.1941034"><ele>307.0</ele><time>2026-04-10T11:12:31.84Z</time></trkpt><trkpt lat="44.3781132" lon="5.1939055"><ele>306.75</ele><time>2026-04-10T11:12:32.84Z</time></trkpt><trkpt lat="44.3781206" lon="5.1937132"><ele>306.5</ele><time>2026-04-10T11:12:33.843Z</time></trkpt><trkpt lat="44.3781308" lon="5.1935316"><ele>306.25</ele><time>2026-04-10T11:12:34.844Z</time></trkpt><trkpt lat="44.3781417" lon="5.193351"><ele>306.0</ele><time>2026-04-10T11:12:35.843Z</time></trkpt><trkpt lat="44.3781543" lon="5.193178"><ele>307.0</ele><time>2026-04-10T11:12:36.846Z</time></trkpt><trkpt lat="44.3781573" lon="5.1930265"><ele>308.0</ele><time>2026-04-10T11:12:37.848Z</time></trkpt><trkpt lat="44.3781694" lon="5.1928823"><ele>309.0</ele><time>2026-04-10T11:12:38.84Z</time></trkpt><trkpt lat="44.3781918" lon="5.19274"><ele>310.0</ele><time>2026-04-10T11:12:39.84Z</time></trkpt><trkpt lat="44.3782095" lon="5.1925968"><ele>311.0</ele><time>2026-04-10T11:12:40.841Z</time></trkpt><trkpt lat="44.3782327" lon="5.1924551"><ele>311.6666666666667</ele><time>2026-04-10T11:12:41.847Z</time></trkpt><trkpt lat="44.3782479" lon="5.1923256"><ele>312.33333333333337</ele><time>2026-04-10T11:12:42.838Z</time></trkpt><trkpt lat="44.3782758" lon="5.1922038"><ele>313.0</ele><time>2026-04-10T11:12:43.839Z</time></trkpt><trkpt lat="44.3783034" lon="5.1920978"><ele>313.6666666666667</ele><time>2026-04-10T11:12:44.844Z</time></trkpt><trkpt lat="44.3783328" lon="5.1919971"><ele>314.3333333333333</ele><time>2026-04-10T11:12:45.843Z</time></trkpt><trkpt lat="44.3783671" lon="5.1919032"><ele>315.0</ele><time>2026-04-10T11:12:46.84Z</time></trkpt><trkpt lat="44.3783942" lon="5.1918179"><ele>315.0</ele><time>2026-04-10T11:12:47.844Z</time></trkpt><trkpt lat="44.3784291" lon="5.1917282"><ele>315.0</ele><time>2026-04-10T11:12:48.841Z</time></trkpt><trkpt lat="44.3784557" lon="5.1916387"><ele>315.0</ele><time>2026-04-10T11:12:49.846Z</time></trkpt><trkpt lat="44.3784857" lon="5.1915435"><ele>315.0</ele><time>2026-04-10T11:12:50.841Z</time></trkpt><trkpt lat="44.3785026" lon="5.1914419"><ele>315.0</ele><time>2026-04-10T11:12:51.844Z</time></trkpt><trkpt lat="44.378493" lon="5.1913527"><ele>315.0</ele><time>2026-04-10T11:12:52.844Z</time></trkpt><trkpt lat="44.3784859" lon="5.1911864"><ele>314.2</ele><time>2026-04-10T11:12:54.85Z</time></trkpt><trkpt lat="44.3784719" lon="5.1910986"><ele>313.4</ele><time>2026-04-10T11:12:55.841Z</time></trkpt><trkpt lat="44.3784452" lon="5.1909499"><ele>312.6</ele><time>2026-04-10T11:12:57.847Z</time></trkpt><trkpt lat="44.378437" lon="5.1908206"><ele>311.8</ele><time>2026-04-10T11:12:59.846Z</time></trkpt><trkpt lat="44.3785329" lon="5.1907893"><ele>311.0</ele><time>2026-04-10T11:13:01.839Z</time></trkpt><trkpt lat="44.3786317" lon="5.1907757"><ele>311.0</ele><time>2026-04-10T11:13:03.84Z</time></trkpt><trkpt lat="44.3787095" lon="5.1907823"><ele>311.0</ele><time>2026-04-10T11:13:05.84Z</time></trkpt><trkpt lat="44.3787777" lon="5.1907744"><ele>311.0</ele><time>2026-04-10T11:13:07.841Z</time></trkpt><trkpt lat="44.378846" lon="5.1907656"><ele>311.0</ele><time>2026-04-10T11:13:10.84Z</time></trkpt><trkpt lat="44.3789191" lon="5.1907571"><ele>311.0</ele><time>2026-04-10T11:13:28.844Z</time></trkpt><trkpt lat="44.3789847" lon="5.1907474"><ele>311.0</ele><time>2026-04-10T11:13:31.843Z</time></trkpt><trkpt lat="44.3789711" lon="5.1906145"><ele>312.1666666666667</ele><time>2026-04-10T11:13:34.84Z</time></trkpt><trkpt lat="44.3789302" lon="5.1905276"><ele>313.33333333333337</ele><time>2026-04-10T11:13:35.838Z</time></trkpt><trkpt lat="44.3789291" lon="5.1904115"><ele>314.5</ele><time>2026-04-10T11:13:37.841Z</time></trkpt><trkpt lat="44.3789908" lon="5.1902811"><ele>315.6666666666667</ele><time>2026-04-10T11:13:39.841Z</time></trkpt><trkpt lat="44.3790564" lon="5.1902082"><ele>316.8333333333333</ele><time>2026-04-10T11:13:41.847Z</time></trkpt><trkpt lat="44.3791111" lon="5.1901091"><ele>318.0</ele><time>2026-04-10T11:13:43.84Z</time></trkpt><trkpt lat="44.3791695" lon="5.1900181"><ele>318.0</ele><time>2026-04-10T11:13:46.842Z</time></trkpt><trkpt lat="44.3791677" lon="5.1899207"><ele>318.0</ele><time>2026-04-10T11:13:50.848Z</time></trkpt><trkpt lat="44.3791806" lon="5.1898203"><ele>318.0</ele><time>2026-04-10T11:13:52.839Z</time></trkpt><trkpt lat="44.3792024" lon="5.1897026"><ele>318.0</ele><time>2026-04-10T11:13:54.839Z</time></trkpt><trkpt lat="44.3792085" lon="5.1895981"><ele>318.0</ele><time>2026-04-10T11:13:57.838Z</time></trkpt><trkpt lat="44.3792128" lon="5.1894969"><ele>318.0</ele><time>2026-04-10T11:14:01.85Z</time></trkpt><trkpt lat="44.3792298" lon="5.1894095"><ele>318.0</ele><time>2026-04-10T11:16:53.846Z</time></trkpt><trkpt lat="44.3792663" lon="5.1893292"><ele>316.5</ele><time>2026-04-10T11:19:09.844Z</time></trkpt><trkpt lat="44.3792318" lon="5.1891531"><ele>315.0</ele><time>2026-04-10T11:19:11.842Z</time></trkpt><trkpt lat="44.3792524" lon="5.1890331"><ele>313.5</ele><time>2026-04-10T11:19:14.842Z</time></trkpt><trkpt lat="44.3792417" lon="5.1889409"><ele>312.0</ele><time>2026-04-10T11:19:15.845Z</time></trkpt><trkpt lat="44.3792549" lon="5.1888406"><ele>310.5</ele><time>2026-04-10T11:19:16.846Z</time></trkpt><trkpt lat="44.3792638" lon="5.1887389"><ele>309.0</ele><time>2026-04-10T11:19:17.847Z</time></trkpt><trkpt lat="44.3792899" lon="5.1885845"><ele>308.5</ele><time>2026-04-10T11:19:19.843Z</time></trkpt><trkpt lat="44.379328" lon="5.1884162"><ele>308.0</ele><time>2026-04-10T11:19:21.846Z</time></trkpt><trkpt lat="44.3793511" lon="5.1883336"><ele>307.5</ele><time>2026-04-10T11:19:22.845Z</time></trkpt><trkpt lat="44.379384" lon="5.188257"><ele>307.0</ele><time>2026-04-10T11:19:23.846Z</time></trkpt><trkpt lat="44.379412" lon="5.1881681"><ele>306.5</ele><time>2026-04-10T11:19:24.848Z</time></trkpt><trkpt lat="44.3794328" lon="5.1880791"><ele>306.0</ele><time>2026-04-10T11:19:25.847Z</time></trkpt><trkpt lat="44.3794398" lon="5.1879802"><ele>305.3333333333333</ele><time>2026-04-10T11:19:26.846Z</time></trkpt><trkpt lat="44.3794799" lon="5.1878273"><ele>304.6666666666667</ele><time>2026-04-10T11:19:28.847Z</time></trkpt><trkpt lat="44.3795214" lon="5.1876948"><ele>304.0</ele><time>2026-04-10T11:19:30.851Z</time></trkpt><trkpt lat="44.3795419" lon="5.1876004"><ele>303.33333333333337</ele><time>2026-04-10T11:19:32.852Z</time></trkpt><trkpt lat="44.3795002" lon="5.1875162"><ele>302.6666666666667</ele><time>2026-04-10T11:19:34.845Z</time></trkpt><trkpt lat="44.3794306" lon="5.1875593"><ele>302.0</ele><time>2026-04-10T11:19:36.846Z</time></trkpt><trkpt lat="44.3794016" lon="5.1877009"><ele>302.0</ele><time>2026-04-10T11:19:38.852Z</time></trkpt><trkpt lat="44.3793674" lon="5.1878624"><ele>302.0</ele><time>2026-04-10T11:19:40.849Z</time></trkpt><trkpt lat="44.3793295" lon="5.1879403"><ele>302.0</ele><time>2026-04-10T11:19:41.838Z</time></trkpt><trkpt lat="44.3792683" lon="5.1879767"><ele>302.0</ele><time>2026-04-10T11:19:42.842Z</time></trkpt><trkpt lat="44.3792004" lon="5.1880113"><ele>302.0</ele><time>2026-04-10T11:19:43.843Z</time></trkpt><trkpt lat="44.3791058" lon="5.1880239"><ele>302.0</ele><time>2026-04-10T11:19:44.843Z</time></trkpt><trkpt lat="44.3790094" lon="5.1880584"><ele>302.0</ele><time>2026-04-10T11:19:45.847Z</time></trkpt><trkpt lat="44.3789073" lon="5.1880947"><ele>302.0</ele><time>2026-04-10T11:19:46.848Z</time></trkpt><trkpt lat="44.3788382" lon="5.188115"><ele>302.0</ele><time>2026-04-10T11:19:47.845Z</time></trkpt><trkpt lat="44.378768" lon="5.1881501"><ele>302.0</ele><time>2026-04-10T11:19:48.851Z</time></trkpt><trkpt lat="44.3787037" lon="5.18819"><ele>302.0</ele><time>2026-04-10T11:19:49.846Z</time></trkpt><trkpt lat="44.3786481" lon="5.1883298"><ele>302.0</ele><time>2026-04-10T11:19:51.849Z</time></trkpt><trkpt lat="44.378678" lon="5.1884429"><ele>301.6666666666667</ele><time>2026-04-10T11:19:52.847Z</time></trkpt><trkpt lat="44.3786861" lon="5.1885497"><ele>301.33333333333337</ele><time>2026-04-10T11:19:53.841Z</time></trkpt><trkpt lat="44.3786986" lon="5.1886489"><ele>301.0</ele><time>2026-04-10T11:19:54.85Z</time></trkpt><trkpt lat="44.3787249" lon="5.1887345"><ele>300.6666666666667</ele><time>2026-04-10T11:19:55.845Z</time></trkpt><trkpt lat="44.3787584" lon="5.1888798"><ele>300.3333333333333</ele><time>2026-04-10T11:19:57.846Z</time></trkpt><trkpt lat="44.3787785" lon="5.1890085"><ele>300.0</ele><time>2026-04-10T11:19:59.844Z</time></trkpt><trkpt lat="44.3787905" lon="5.1890996"><ele>300.85714285714283</ele><time>2026-04-10T11:20:02.853Z</time></trkpt><trkpt lat="44.3787633" lon="5.1891837"><ele>301.7142857142857</ele><time>2026-04-10T11:20:06.853Z</time></trkpt><trkpt lat="44.3787005" lon="5.1892114"><ele>302.57142857142856</ele><time>2026-04-10T11:22:14.844Z</time></trkpt><trkpt lat="44.3786338" lon="5.189184"><ele>303.42857142857144</ele><time>2026-04-10T11:22:32.845Z</time></trkpt><trkpt lat="44.3786948" lon="5.1892152"><ele>304.2857142857143</ele><time>2026-04-10T11:23:39.843Z</time></trkpt><trkpt lat="44.3787372" lon="5.1891441"><ele>305.1428571428571</ele><time>2026-04-10T11:26:08.872Z</time></trkpt><trkpt lat="44.3788109" lon="5.1891134"><ele>306.0</ele><time>2026-04-10T11:37:54.843Z</time></trkpt><trkpt lat="44.3787745" lon="5.1891925"><ele>306.0</ele><time>2026-04-10T11:38:42.851Z</time></trkpt><trkpt lat="44.3787125" lon="5.189216"><ele>306.0</ele><time>2026-04-10T11:54:38.843Z</time></trkpt><trkpt lat="44.3787805" lon="5.1892267"><ele>306.0</ele><time>2026-04-10T11:55:39.842Z</time></trkpt></trkseg><trkseg><trkpt lat="44.3787993" lon="5.1891711"><ele>306.0</ele><time>2026-04-10T12:58:06.832Z</time></trkpt><trkpt lat="44.3787562" lon="5.1892531"><ele>306.0</ele><time>2026-04-10T12:59:08.838Z</time></trkpt><trkpt lat="44.3788468" lon="5.189256"><ele>306.0</ele><time>2026-04-10T12:59:16.833Z</time></trkpt><trkpt lat="44.3789467" lon="5.1892653"><ele>306.0</ele><time>2026-04-10T12:59:18.833Z</time></trkpt><trkpt lat="44.3790359" lon="5.1892811"><ele>306.0</ele><time>2026-04-10T12:59:20.829Z</time></trkpt><trkpt lat="44.3791205" lon="5.1893024"><ele>306.0</ele><time>2026-04-10T12:59:22.833Z</time></trkpt><trkpt lat="44.3791839" lon="5.1892677"><ele>306.0</ele><time>2026-04-10T12:59:32.829Z</time></trkpt><trkpt lat="44.3792138" lon="5.1891486"><ele>306.0</ele><time>2026-04-10T12:59:35.826Z</time></trkpt><trkpt lat="44.3792215" lon="5.1890488"><ele>306.0</ele><time>2026-04-10T12:59:37.831Z</time></trkpt><trkpt lat="44.3792462" lon="5.188938"><ele>306.0</ele><time>2026-04-10T12:59:39.825Z</time></trkpt><trkpt lat="44.3792688" lon="5.1888539"><ele>306.0</ele><time>2026-04-10T12:59:41.833Z</time></trkpt><trkpt lat="44.3792894" lon="5.188765"><ele>306.0</ele><time>2026-04-10T12:59:44.834Z</time></trkpt><trkpt lat="44.379257" lon="5.1889274"><ele>306.5</ele><time>2026-04-10T12:59:51.837Z</time></trkpt><trkpt lat="44.3792552" lon="5.1890191"><ele>307.0</ele><time>2026-04-10T12:59:52.832Z</time></trkpt><trkpt lat="44.3792603" lon="5.1891239"><ele>307.5</ele><time>2026-04-10T12:59:53.835Z</time></trkpt><trkpt lat="44.3792542" lon="5.1892241"><ele>308.0</ele><time>2026-04-10T12:59:54.835Z</time></trkpt><trkpt lat="44.3792611" lon="5.1893134"><ele>308.5</ele><time>2026-04-10T12:59:56.833Z</time></trkpt><trkpt lat="44.379245" lon="5.1894556"><ele>309.0</ele><time>2026-04-10T13:00:00.836Z</time></trkpt><trkpt lat="44.3792227" lon="5.1896334"><ele>309.0</ele><time>2026-04-10T13:00:02.834Z</time></trkpt><trkpt lat="44.379208" lon="5.1897431"><ele>309.0</ele><time>2026-04-10T13:00:03.826Z</time></trkpt><trkpt lat="44.3792067" lon="5.1898565"><ele>309.0</ele><time>2026-04-10T13:00:04.829Z</time></trkpt><trkpt lat="44.3792163" lon="5.1899736"><ele>309.0</ele><time>2026-04-10T13:00:05.833Z</time></trkpt><trkpt lat="44.3792431" lon="5.1900893"><ele>309.0</ele><time>2026-04-10T13:00:06.829Z</time></trkpt><trkpt lat="44.3792727" lon="5.1902244"><ele>309.0</ele><time>2026-04-10T13:00:07.831Z</time></trkpt><trkpt lat="44.3792976" lon="5.1903528"><ele>309.4</ele><time>2026-04-10T13:00:08.827Z</time></trkpt><trkpt lat="44.3793245" lon="5.1904729"><ele>309.79999999999995</ele><time>2026-04-10T13:00:09.826Z</time></trkpt><trkpt lat="44.3793508" lon="5.1905973"><ele>310.20000000000005</ele><time>2026-04-10T13:00:10.824Z</time></trkpt><trkpt lat="44.3793772" lon="5.1907215"><ele>310.6</ele><time>2026-04-10T13:00:11.825Z</time></trkpt><trkpt lat="44.3794035" lon="5.1908457"><ele>311.0</ele><time>2026-04-10T13:00:12.825Z</time></trkpt><trkpt lat="44.3802194" lon="5.1916081"><ele>311.5</ele><time>2026-04-10T13:00:19.837Z</time></trkpt><trkpt lat="44.380289" lon="5.1917517"><ele>312.0</ele><time>2026-04-10T13:00:20.831Z</time></trkpt><trkpt lat="44.3803642" lon="5.191897"><ele>312.5</ele><time>2026-04-10T13:00:21.832Z</time></trkpt><trkpt lat="44.3804365" lon="5.1920276"><ele>313.0</ele><time>2026-04-10T13:00:22.834Z</time></trkpt><trkpt lat="44.3805008" lon="5.1921451"><ele>312.0</ele><time>2026-04-10T13:00:23.832Z</time></trkpt><trkpt lat="44.3805761" lon="5.1922551"><ele>311.0</ele><time>2026-04-10T13:00:24.83Z</time></trkpt><trkpt lat="44.3806696" lon="5.1923593"><ele>310.0</ele><time>2026-04-10T13:00:25.832Z</time></trkpt><trkpt lat="44.3807649" lon="5.1924702"><ele>309.0</ele><time>2026-04-10T13:00:26.834Z</time></trkpt><trkpt lat="44.3808618" lon="5.1925566"><ele>309.0</ele><time>2026-04-10T13:00:27.832Z</time></trkpt><trkpt lat="44.3809608" lon="5.1926481"><ele>309.0</ele><time>2026-04-10T13:00:28.833Z</time></trkpt><trkpt lat="44.3810735" lon="5.1927296"><ele>309.0</ele><time>2026-04-10T13:00:29.83Z</time></trkpt><trkpt lat="44.3811767" lon="5.1928123"><ele>309.0</ele><time>2026-04-10T13:00:30.832Z</time></trkpt><trkpt lat="44.3812891" lon="5.192895"><ele>308.75</ele><time>2026-04-10T13:00:31.831Z</time></trkpt><trkpt lat="44.3814139" lon="5.1929892"><ele>308.5</ele><time>2026-04-10T13:00:32.835Z</time></trkpt><trkpt lat="44.381537" lon="5.193079"><ele>308.25</ele><time>2026-04-10T13:00:33.835Z</time></trkpt><trkpt lat="44.3816672" lon="5.1931713"><ele>308.0</ele><time>2026-04-10T13:00:34.83Z</time></trkpt><trkpt lat="44.3817997" lon="5.1932983"><ele>308.0</ele><time>2026-04-10T13:00:35.838Z</time></trkpt><trkpt lat="44.3819299" lon="5.1933879"><ele>308.0</ele><time>2026-04-10T13:00:36.833Z</time></trkpt><trkpt lat="44.3820445" lon="5.1934799"><ele>308.0</ele><time>2026-04-10T13:00:37.834Z</time></trkpt><trkpt lat="44.3821465" lon="5.1935608"><ele>308.0</ele><time>2026-04-10T13:00:38.832Z</time></trkpt><trkpt lat="44.3822379" lon="5.1936407"><ele>308.0</ele><time>2026-04-10T13:00:39.829Z</time></trkpt><trkpt lat="44.3823241" lon="5.1937212"><ele>308.0</ele><time>2026-04-10T13:00:40.832Z</time></trkpt><trkpt lat="44.3824068" lon="5.1938111"><ele>308.0</ele><time>2026-04-10T13:00:41.832Z</time></trkpt><trkpt lat="44.3824923" lon="5.1939071"><ele>308.0</ele><time>2026-04-10T13:00:42.834Z</time></trkpt><trkpt lat="44.3825826" lon="5.1940018"><ele>308.0</ele><time>2026-04-10T13:00:43.834Z</time></trkpt><trkpt lat="44.3826816" lon="5.1940901"><ele>308.0</ele><time>2026-04-10T13:00:44.829Z</time></trkpt><trkpt lat="44.382791" lon="5.1941617"><ele>308.0</ele><time>2026-04-10T13:00:45.834Z</time></trkpt><trkpt lat="44.3829217" lon="5.1942054"><ele>308.0</ele><time>2026-04-10T13:00:46.835Z</time></trkpt><trkpt lat="44.3830734" lon="5.1942371"><ele>308.0</ele><time>2026-04-10T13:00:47.833Z</time></trkpt><trkpt lat="44.3832375" lon="5.1942662"><ele>309.6666666666667</ele><time>2026-04-10T13:00:48.832Z</time></trkpt><trkpt lat="44.3834169" lon="5.1943064"><ele>311.3333333333333</ele><time>2026-04-10T13:00:49.834Z</time></trkpt><trkpt lat="44.3836049" lon="5.1943822"><ele>313.0</ele><time>2026-04-10T13:00:50.832Z</time></trkpt><trkpt lat="44.3837968" lon="5.1944561"><ele>314.0</ele><time>2026-04-10T13:00:51.836Z</time></trkpt><trkpt lat="44.3839901" lon="5.1945341"><ele>315.0</ele><time>2026-04-10T13:00:52.836Z</time></trkpt><trkpt lat="44.3841796" lon="5.194612"><ele>316.0</ele><time>2026-04-10T13:00:53.834Z</time></trkpt><trkpt lat="44.3843686" lon="5.194681"><ele>316.0</ele><time>2026-04-10T13:00:54.837Z</time></trkpt><trkpt lat="44.3845503" lon="5.1947494"><ele>316.0</ele><time>2026-04-10T13:00:55.838Z</time></trkpt><trkpt lat="44.3847266" lon="5.1948199"><ele>316.0</ele><time>2026-04-10T13:00:56.855Z</time></trkpt><trkpt lat="44.3849004" lon="5.1948935"><ele>314.66666666666663</ele><time>2026-04-10T13:00:57.836Z</time></trkpt><trkpt lat="44.385073" lon="5.1949645"><ele>313.3333333333333</ele><time>2026-04-10T13:00:58.832Z</time></trkpt><trkpt lat="44.3852407" lon="5.19503"><ele>312.0</ele><time>2026-04-10T13:00:59.827Z</time></trkpt><trkpt lat="44.3854093" lon="5.1950948"><ele>314.0</ele><time>2026-04-10T13:01:00.833Z</time></trkpt><trkpt lat="44.385574" lon="5.1951555"><ele>316.0</ele><time>2026-04-10T13:01:01.833Z</time></trkpt><trkpt lat="44.3857346" lon="5.1952167"><ele>318.0</ele><time>2026-04-10T13:01:02.836Z</time></trkpt><trkpt lat="44.385896" lon="5.1952811"><ele>318.0</ele><time>2026-04-10T13:01:03.835Z</time></trkpt><trkpt lat="44.3860568" lon="5.1953353"><ele>318.0</ele><time>2026-04-10T13:01:04.832Z</time></trkpt><trkpt lat="44.3862167" lon="5.1953966"><ele>318.0</ele><time>2026-04-10T13:01:05.838Z</time></trkpt><trkpt lat="44.386371" lon="5.1954565"><ele>318.6666666666667</ele><time>2026-04-10T13:01:06.839Z</time></trkpt><trkpt lat="44.386527" lon="5.1955197"><ele>319.33333333333337</ele><time>2026-04-10T13:01:07.837Z</time></trkpt><trkpt lat="44.3866851" lon="5.1955847"><ele>320.0</ele><time>2026-04-10T13:01:08.837Z</time></trkpt><trkpt lat="44.386844" lon="5.1956464"><ele>320.0</ele><time>2026-04-10T13:01:09.835Z</time></trkpt><trkpt lat="44.3870045" lon="5.1957079"><ele>320.0</ele><time>2026-04-10T13:01:10.836Z</time></trkpt><trkpt lat="44.3871643" lon="5.1957656"><ele>320.0</ele><time>2026-04-10T13:01:11.832Z</time></trkpt><trkpt lat="44.38733" lon="5.1958399"><ele>320.0</ele><time>2026-04-10T13:01:12.838Z</time></trkpt><trkpt lat="44.3874903" lon="5.1959005"><ele>320.0</ele><time>2026-04-10T13:01:13.835Z</time></trkpt><trkpt lat="44.3876456" lon="5.1960024"><ele>320.0</ele><time>2026-04-10T13:01:14.833Z</time></trkpt><trkpt lat="44.3877826" lon="5.1961036"><ele>320.0</ele><time>2026-04-10T13:01:15.836Z</time></trkpt><trkpt lat="44.3879102" lon="5.1961971"><ele>320.0</ele><time>2026-04-10T13:01:16.833Z</time></trkpt><trkpt lat="44.3880327" lon="5.1962799"><ele>320.0</ele><time>2026-04-10T13:01:17.834Z</time></trkpt><trkpt lat="44.3881423" lon="5.1963541"><ele>320.0</ele><time>2026-04-10T13:01:18.831Z</time></trkpt><trkpt lat="44.388244" lon="5.1964217"><ele>320.1666666666667</ele><time>2026-04-10T13:01:19.834Z</time></trkpt><trkpt lat="44.388326" lon="5.1964809"><ele>320.33333333333337</ele><time>2026-04-10T13:01:20.829Z</time></trkpt><trkpt lat="44.3884038" lon="5.1965366"><ele>320.5</ele><time>2026-04-10T13:01:21.831Z</time></trkpt><trkpt lat="44.3884634" lon="5.1965894"><ele>320.6666666666667</ele><time>2026-04-10T13:01:22.834Z</time></trkpt><trkpt lat="44.3885179" lon="5.1966365"><ele>320.8333333333333</ele><time>2026-04-10T13:01:23.833Z</time></trkpt><trkpt lat="44.3886333" lon="5.1965851"><ele>321.0</ele><time>2026-04-10T13:01:25.833Z</time></trkpt><trkpt lat="44.3886892" lon="5.1965143"><ele>321.0</ele><time>2026-04-10T13:01:26.835Z</time></trkpt><trkpt lat="44.3887512" lon="5.1964315"><ele>321.0</ele><time>2026-04-10T13:01:27.835Z</time></trkpt><trkpt lat="44.3888266" lon="5.196353"><ele>321.0</ele><time>2026-04-10T13:01:28.831Z</time></trkpt><trkpt lat="44.3889056" lon="5.1962686"><ele>321.0</ele><time>2026-04-10T13:01:29.834Z</time></trkpt><trkpt lat="44.388995" lon="5.1962144"><ele>321.0</ele><time>2026-04-10T13:01:30.835Z</time></trkpt><trkpt lat="44.3890766" lon="5.1961562"><ele>321.4</ele><time>2026-04-10T13:01:31.835Z</time></trkpt><trkpt lat="44.3891608" lon="5.1960918"><ele>321.8</ele><time>2026-04-10T13:01:32.83Z</time></trkpt><trkpt lat="44.3892491" lon="5.1960279"><ele>322.2</ele><time>2026-04-10T13:01:33.832Z</time></trkpt><trkpt lat="44.3893392" lon="5.1959668"><ele>322.59999999999997</ele><time>2026-04-10T13:01:34.834Z</time></trkpt><trkpt lat="44.3894333" lon="5.1958999"><ele>323.0</ele><time>2026-04-10T13:01:35.839Z</time></trkpt><trkpt lat="44.3895304" lon="5.1958245"><ele>323.0</ele><time>2026-04-10T13:01:36.84Z</time></trkpt><trkpt lat="44.3896308" lon="5.1957526"><ele>323.0</ele><time>2026-04-10T13:01:37.829Z</time></trkpt><trkpt lat="44.389737" lon="5.1956921"><ele>323.0</ele><time>2026-04-10T13:01:38.837Z</time></trkpt><trkpt lat="44.3898455" lon="5.1956229"><ele>323.0</ele><time>2026-04-10T13:01:39.829Z</time></trkpt><trkpt lat="44.3899547" lon="5.1955589"><ele>323.5</ele><time>2026-04-10T13:01:40.835Z</time></trkpt><trkpt lat="44.3900723" lon="5.195509"><ele>324.0</ele><time>2026-04-10T13:01:41.833Z</time></trkpt><trkpt lat="44.390193" lon="5.1954722"><ele>324.5</ele><time>2026-04-10T13:01:42.833Z</time></trkpt><trkpt lat="44.3903146" lon="5.1954304"><ele>325.0</ele><time>2026-04-10T13:01:43.832Z</time></trkpt><trkpt lat="44.3904349" lon="5.1953859"><ele>324.75</ele><time>2026-04-10T13:01:44.826Z</time></trkpt><trkpt lat="44.3905532" lon="5.1953495"><ele>324.5</ele><time>2026-04-10T13:01:45.832Z</time></trkpt><trkpt lat="44.390678" lon="5.1953104"><ele>324.25</ele><time>2026-04-10T13:01:46.832Z</time></trkpt><trkpt lat="44.3908094" lon="5.1952802"><ele>324.0</ele><time>2026-04-10T13:01:47.83Z</time></trkpt><trkpt lat="44.3909437" lon="5.1952584"><ele>324.0</ele><time>2026-04-10T13:01:48.834Z</time></trkpt><trkpt lat="44.3910844" lon="5.195254"><ele>324.0</ele><time>2026-04-10T13:01:49.832Z</time></trkpt><trkpt lat="44.3912247" lon="5.1952575"><ele>324.0</ele><time>2026-04-10T13:01:50.831Z</time></trkpt><trkpt lat="44.3913696" lon="5.1952733"><ele>324.0</ele><time>2026-04-10T13:01:51.827Z</time></trkpt><trkpt lat="44.3915144" lon="5.195292"><ele>325.0</ele><time>2026-04-10T13:01:52.832Z</time></trkpt><trkpt lat="44.3916614" lon="5.1953203"><ele>326.0</ele><time>2026-04-10T13:01:53.83Z</time></trkpt><trkpt lat="44.3918131" lon="5.1953433"><ele>327.0</ele><time>2026-04-10T13:01:54.828Z</time></trkpt><trkpt lat="44.3919648" lon="5.1953689"><ele>327.0</ele><time>2026-04-10T13:01:55.825Z</time></trkpt><trkpt lat="44.3921157" lon="5.1953971"><ele>327.0</ele><time>2026-04-10T13:01:56.835Z</time></trkpt><trkpt lat="44.392271" lon="5.195426"><ele>327.0</ele><time>2026-04-10T13:01:57.831Z</time></trkpt><trkpt lat="44.3924265" lon="5.1954579"><ele>326.0</ele><time>2026-04-10T13:01:58.841Z</time></trkpt><trkpt lat="44.3925814" lon="5.1955127"><ele>325.0</ele><time>2026-04-10T13:01:59.837Z</time></trkpt><trkpt lat="44.3927326" lon="5.1955903"><ele>324.0</ele><time>2026-04-10T13:02:00.829Z</time></trkpt><trkpt lat="44.3928817" lon="5.1956876"><ele>327.0</ele><time>2026-04-10T13:02:01.828Z</time></trkpt><trkpt lat="44.3930315" lon="5.1957852"><ele>330.0</ele><time>2026-04-10T13:02:02.832Z</time></trkpt><trkpt lat="44.3931843" lon="5.1958768"><ele>333.0</ele><time>2026-04-10T13:02:03.828Z</time></trkpt><trkpt lat="44.3933342" lon="5.1959692"><ele>333.0</ele><time>2026-04-10T13:02:04.831Z</time></trkpt><trkpt lat="44.393485" lon="5.1960489"><ele>333.0</ele><time>2026-04-10T13:02:05.838Z</time></trkpt><trkpt lat="44.3936383" lon="5.1961157"><ele>333.0</ele><time>2026-04-10T13:02:06.83Z</time></trkpt><trkpt lat="44.393797" lon="5.196149"><ele>334.3333333333333</ele><time>2026-04-10T13:02:07.832Z</time></trkpt><trkpt lat="44.3939578" lon="5.1961506"><ele>335.66666666666663</ele><time>2026-04-10T13:02:08.833Z</time></trkpt><trkpt lat="44.3941147" lon="5.1961077"><ele>337.0</ele><time>2026-04-10T13:02:09.83Z</time></trkpt><trkpt lat="44.3942614" lon="5.1960312"><ele>337.0</ele><time>2026-04-10T13:02:10.83Z</time></trkpt><trkpt lat="44.3944" lon="5.1959454"><ele>337.0</ele><time>2026-04-10T13:02:11.835Z</time></trkpt><trkpt lat="44.3945382" lon="5.1958271"><ele>337.0</ele><time>2026-04-10T13:02:12.834Z</time></trkpt><trkpt lat="44.3946828" lon="5.1957314"><ele>339.0</ele><time>2026-04-10T13:02:13.83Z</time></trkpt><trkpt lat="44.3948297" lon="5.1956429"><ele>341.0</ele><time>2026-04-10T13:02:14.832Z</time></trkpt><trkpt lat="44.3949792" lon="5.1955819"><ele>343.0</ele><time>2026-04-10T13:02:15.833Z</time></trkpt><trkpt lat="44.3951302" lon="5.1955211"><ele>343.0</ele><time>2026-04-10T13:02:16.826Z</time></trkpt><trkpt lat="44.3952836" lon="5.1954698"><ele>343.0</ele><time>2026-04-10T13:02:17.835Z</time></trkpt><trkpt lat="44.3954405" lon="5.1954314"><ele>343.0</ele><time>2026-04-10T13:02:18.83Z</time></trkpt><trkpt lat="44.3956015" lon="5.1954167"><ele>344.66666666666663</ele><time>2026-04-10T13:02:19.826Z</time></trkpt><trkpt lat="44.3957688" lon="5.1954098"><ele>346.3333333333333</ele><time>2026-04-10T13:02:20.83Z</time></trkpt><trkpt lat="44.3959404" lon="5.1954217"><ele>348.0</ele><time>2026-04-10T13:02:21.831Z</time></trkpt><trkpt lat="44.3961178" lon="5.1954187"><ele>348.0</ele><time>2026-04-10T13:02:22.832Z</time></trkpt><trkpt lat="44.3963029" lon="5.1954334"><ele>348.0</ele><time>2026-04-10T13:02:23.831Z</time></trkpt><trkpt lat="44.3964901" lon="5.1954299"><ele>348.0</ele><time>2026-04-10T13:02:24.834Z</time></trkpt><trkpt lat="44.396673" lon="5.1954186"><ele>347.6666666666667</ele><time>2026-04-10T13:02:25.834Z</time></trkpt><trkpt lat="44.3968607" lon="5.1954154"><ele>347.33333333333337</ele><time>2026-04-10T13:02:26.83Z</time></trkpt><trkpt lat="44.3970459" lon="5.1954114"><ele>347.0</ele><time>2026-04-10T13:02:27.832Z</time></trkpt><trkpt lat="44.3972405" lon="5.1954179"><ele>347.6666666666667</ele><time>2026-04-10T13:02:28.835Z</time></trkpt><trkpt lat="44.3974317" lon="5.1954212"><ele>348.3333333333333</ele><time>2026-04-10T13:02:29.829Z</time></trkpt><trkpt lat="44.3976186" lon="5.1954159"><ele>349.0</ele><time>2026-04-10T13:02:30.831Z</time></trkpt><trkpt lat="44.3978106" lon="5.1954067"><ele>349.0</ele><time>2026-04-10T13:02:31.83Z</time></trkpt><trkpt lat="44.3979955" lon="5.1954021"><ele>349.0</ele><time>2026-04-10T13:02:32.829Z</time></trkpt><trkpt lat="44.3981777" lon="5.1953933"><ele>349.0</ele><time>2026-04-10T13:02:33.835Z</time></trkpt><trkpt lat="44.3983601" lon="5.1953922"><ele>348.0</ele><time>2026-04-10T13:02:34.831Z</time></trkpt><trkpt lat="44.39854" lon="5.1953907"><ele>347.0</ele><time>2026-04-10T13:02:35.828Z</time></trkpt><trkpt lat="44.3987198" lon="5.1953859"><ele>346.0</ele><time>2026-04-10T13:02:36.836Z</time></trkpt><trkpt lat="44.3989045" lon="5.1953851"><ele>343.0</ele><time>2026-04-10T13:02:37.834Z</time></trkpt><trkpt lat="44.3990753" lon="5.1953921"><ele>340.0</ele><time>2026-04-10T13:02:38.827Z</time></trkpt><trkpt lat="44.3992299" lon="5.1954109"><ele>337.0</ele><time>2026-04-10T13:02:39.825Z</time></trkpt><trkpt lat="44.3993781" lon="5.1954562"><ele>337.0</ele><time>2026-04-10T13:02:40.827Z</time></trkpt><trkpt lat="44.3995196" lon="5.1955467"><ele>337.0</ele><time>2026-04-10T13:02:41.828Z</time></trkpt><trkpt lat="44.3996576" lon="5.1956458"><ele>337.0</ele><time>2026-04-10T13:02:42.832Z</time></trkpt><trkpt lat="44.3997711" lon="5.1958264"><ele>336.3333333333333</ele><time>2026-04-10T13:02:43.828Z</time></trkpt><trkpt lat="44.3998842" lon="5.1959855"><ele>335.6666666666667</ele><time>2026-04-10T13:02:44.834Z</time></trkpt><trkpt lat="44.4000065" lon="5.1961654"><ele>335.0</ele><time>2026-04-10T13:02:45.833Z</time></trkpt><trkpt lat="44.4001306" lon="5.1963315"><ele>335.0</ele><time>2026-04-10T13:02:46.833Z</time></trkpt><trkpt lat="44.4002659" lon="5.196472"><ele>335.0</ele><time>2026-04-10T13:02:47.83Z</time></trkpt><trkpt lat="44.4004206" lon="5.1965721"><ele>335.0</ele><time>2026-04-10T13:02:48.834Z</time></trkpt><trkpt lat="44.4005865" lon="5.1966289"><ele>336.33333333333337</ele><time>2026-04-10T13:02:49.828Z</time></trkpt><trkpt lat="44.4007539" lon="5.1966726"><ele>337.6666666666667</ele><time>2026-04-10T13:02:50.832Z</time></trkpt><trkpt lat="44.4009304" lon="5.1967065"><ele>339.0</ele><time>2026-04-10T13:02:51.829Z</time></trkpt><trkpt lat="44.4011083" lon="5.1967446"><ele>339.0</ele><time>2026-04-10T13:02:52.829Z</time></trkpt><trkpt lat="44.4012861" lon="5.1967849"><ele>339.0</ele><time>2026-04-10T13:02:53.834Z</time></trkpt><trkpt lat="44.4014664" lon="5.1968198"><ele>339.0</ele><time>2026-04-10T13:02:54.835Z</time></trkpt><trkpt lat="44.4016517" lon="5.1968524"><ele>340.0</ele><time>2026-04-10T13:02:55.832Z</time></trkpt><trkpt lat="44.4018294" lon="5.1968889"><ele>341.0</ele><time>2026-04-10T13:02:56.829Z</time></trkpt><trkpt lat="44.4020108" lon="5.1969455"><ele>342.0</ele><time>2026-04-10T13:02:57.832Z</time></trkpt><trkpt lat="44.4021906" lon="5.197011"><ele>343.0</ele><time>2026-04-10T13:02:58.831Z</time></trkpt><trkpt lat="44.4023574" lon="5.1970886"><ele>344.0</ele><time>2026-04-10T13:02:59.832Z</time></trkpt><trkpt lat="44.4025121" lon="5.1971657"><ele>345.0</ele><time>2026-04-10T13:03:00.834Z</time></trkpt><trkpt lat="44.4026603" lon="5.1972314"><ele>345.0</ele><time>2026-04-10T13:03:01.83Z</time></trkpt><trkpt lat="44.4027972" lon="5.1972972"><ele>345.0</ele><time>2026-04-10T13:03:02.833Z</time></trkpt><trkpt lat="44.4029238" lon="5.197362"><ele>345.0</ele><time>2026-04-10T13:03:03.832Z</time></trkpt><trkpt lat="44.4030451" lon="5.1974219"><ele>345.0</ele><time>2026-04-10T13:03:04.829Z</time></trkpt><trkpt lat="44.4031625" lon="5.1974739"><ele>345.0</ele><time>2026-04-10T13:03:05.83Z</time></trkpt><trkpt lat="44.4032749" lon="5.1975277"><ele>345.0</ele><time>2026-04-10T13:03:06.832Z</time></trkpt><trkpt lat="44.4033879" lon="5.1975849"><ele>345.0</ele><time>2026-04-10T13:03:07.835Z</time></trkpt><trkpt lat="44.4034998" lon="5.1976352"><ele>345.0</ele><time>2026-04-10T13:03:08.83Z</time></trkpt><trkpt lat="44.4036139" lon="5.1976833"><ele>345.0</ele><time>2026-04-10T13:03:09.832Z</time></trkpt><trkpt lat="44.4037252" lon="5.1977428"><ele>345.0</ele><time>2026-04-10T13:03:10.83Z</time></trkpt><trkpt lat="44.4038339" lon="5.1977977"><ele>345.0</ele><time>2026-04-10T13:03:11.835Z</time></trkpt><trkpt lat="44.4039457" lon="5.1978448"><ele>345.0</ele><time>2026-04-10T13:03:12.836Z</time></trkpt><trkpt lat="44.4040653" lon="5.1978944"><ele>346.75</ele><time>2026-04-10T13:03:13.834Z</time></trkpt><trkpt lat="44.404181" lon="5.1979444"><ele>348.5</ele><time>2026-04-10T13:03:14.836Z</time></trkpt><trkpt lat="44.4042938" lon="5.1980005"><ele>350.25</ele><time>2026-04-10T13:03:15.837Z</time></trkpt><trkpt lat="44.4044084" lon="5.1980561"><ele>352.0</ele><time>2026-04-10T13:03:16.831Z</time></trkpt><trkpt lat="44.4045254" lon="5.1981183"><ele>352.5</ele><time>2026-04-10T13:03:17.831Z</time></trkpt><trkpt lat="44.4046448" lon="5.1981757"><ele>353.0</ele><time>2026-04-10T13:03:18.828Z</time></trkpt><trkpt lat="44.4047651" lon="5.198232"><ele>353.5</ele><time>2026-04-10T13:03:19.829Z</time></trkpt><trkpt lat="44.4048824" lon="5.1982904"><ele>354.0</ele><time>2026-04-10T13:03:20.831Z</time></trkpt><trkpt lat="44.4050011" lon="5.198348"><ele>354.0</ele><time>2026-04-10T13:03:21.833Z</time></trkpt><trkpt lat="44.4051086" lon="5.1984049"><ele>354.0</ele><time>2026-04-10T13:03:22.832Z</time></trkpt><trkpt lat="44.4052157" lon="5.1984458"><ele>354.0</ele><time>2026-04-10T13:03:23.832Z</time></trkpt><trkpt lat="44.4053181" lon="5.1985099"><ele>354.0</ele><time>2026-04-10T13:03:24.835Z</time></trkpt><trkpt lat="44.4054132" lon="5.1985704"><ele>354.0</ele><time>2026-04-10T13:03:25.831Z</time></trkpt><trkpt lat="44.4055059" lon="5.1986565"><ele>353.75</ele><time>2026-04-10T13:03:26.833Z</time></trkpt><trkpt lat="44.4055949" lon="5.1987525"><ele>353.5</ele><time>2026-04-10T13:03:27.83Z</time></trkpt><trkpt lat="44.4056897" lon="5.1988342"><ele>353.25</ele><time>2026-04-10T13:03:28.832Z</time></trkpt><trkpt lat="44.4057843" lon="5.1989432"><ele>353.0</ele><time>2026-04-10T13:03:29.835Z</time></trkpt><trkpt lat="44.4058777" lon="5.1990476"><ele>353.0</ele><time>2026-04-10T13:03:30.833Z</time></trkpt><trkpt lat="44.4059753" lon="5.1991578"><ele>353.0</ele><time>2026-04-10T13:03:31.836Z</time></trkpt><trkpt lat="44.4060727" lon="5.1992755"><ele>353.0</ele><time>2026-04-10T13:03:32.833Z</time></trkpt><trkpt lat="44.4061698" lon="5.1993923"><ele>353.0</ele><time>2026-04-10T13:03:33.834Z</time></trkpt><trkpt lat="44.4062712" lon="5.1995046"><ele>353.75</ele><time>2026-04-10T13:03:34.837Z</time></trkpt><trkpt lat="44.4063702" lon="5.1996215"><ele>354.5</ele><time>2026-04-10T13:03:35.832Z</time></trkpt><trkpt lat="44.4064704" lon="5.1997432"><ele>355.25</ele><time>2026-04-10T13:03:36.83Z</time></trkpt><trkpt lat="44.4065666" lon="5.1998611"><ele>356.0</ele><time>2026-04-10T13:03:37.835Z</time></trkpt><trkpt lat="44.4066614" lon="5.1999764"><ele>356.0</ele><time>2026-04-10T13:03:38.831Z</time></trkpt><trkpt lat="44.4067585" lon="5.2000901"><ele>356.0</ele><time>2026-04-10T13:03:39.827Z</time></trkpt><trkpt lat="44.406854" lon="5.2002041"><ele>356.0</ele><time>2026-04-10T13:03:40.83Z</time></trkpt><trkpt lat="44.4069457" lon="5.2003194"><ele>356.0</ele><time>2026-04-10T13:03:41.839Z</time></trkpt><trkpt lat="44.4070288" lon="5.2004181"><ele>356.0</ele><time>2026-04-10T13:03:42.833Z</time></trkpt><trkpt lat="44.407107" lon="5.2005084"><ele>356.0</ele><time>2026-04-10T13:03:43.83Z</time></trkpt><trkpt lat="44.4071792" lon="5.2005959"><ele>356.0</ele><time>2026-04-10T13:03:44.828Z</time></trkpt><trkpt lat="44.4072509" lon="5.200672"><ele>356.0</ele><time>2026-04-10T13:03:45.833Z</time></trkpt><trkpt lat="44.4073359" lon="5.200747"><ele>356.0</ele><time>2026-04-10T13:03:46.834Z</time></trkpt><trkpt lat="44.4074262" lon="5.2007993"><ele>356.20000000000005</ele><time>2026-04-10T13:03:47.833Z</time></trkpt><trkpt lat="44.4075285" lon="5.2008483"><ele>356.40000000000003</ele><time>2026-04-10T13:03:48.834Z</time></trkpt><trkpt lat="44.4076235" lon="5.2009017"><ele>356.6</ele><time>2026-04-10T13:03:49.832Z</time></trkpt><trkpt lat="44.4077262" lon="5.2009407"><ele>356.8</ele><time>2026-04-10T13:03:50.83Z</time></trkpt><trkpt lat="44.4078237" lon="5.2009804"><ele>357.0</ele><time>2026-04-10T13:03:51.832Z</time></trkpt><trkpt lat="44.4079216" lon="5.201015"><ele>357.0</ele><time>2026-04-10T13:03:52.826Z</time></trkpt><trkpt lat="44.4080185" lon="5.2010441"><ele>357.0</ele><time>2026-04-10T13:03:53.826Z</time></trkpt><trkpt lat="44.408114" lon="5.2010713"><ele>357.0</ele><time>2026-04-10T13:03:54.826Z</time></trkpt><trkpt lat="44.4082092" lon="5.2011087"><ele>357.0</ele><time>2026-04-10T13:03:55.83Z</time></trkpt><trkpt lat="44.4083039" lon="5.2011393"><ele>357.0</ele><time>2026-04-10T13:03:56.833Z</time></trkpt><trkpt lat="44.4084011" lon="5.2011836"><ele>357.0</ele><time>2026-04-10T13:03:57.829Z</time></trkpt><trkpt lat="44.4085008" lon="5.2012311"><ele>357.0</ele><time>2026-04-10T13:03:58.826Z</time></trkpt><trkpt lat="44.4086039" lon="5.2012748"><ele>357.0</ele><time>2026-04-10T13:03:59.832Z</time></trkpt><trkpt lat="44.4087096" lon="5.2013182"><ele>357.0</ele><time>2026-04-10T13:04:00.834Z</time></trkpt><trkpt lat="44.4088193" lon="5.2013649"><ele>357.0</ele><time>2026-04-10T13:04:01.835Z</time></trkpt><trkpt lat="44.4089225" lon="5.2014023"><ele>357.25</ele><time>2026-04-10T13:04:02.832Z</time></trkpt><trkpt lat="44.4090282" lon="5.2014484"><ele>357.5</ele><time>2026-04-10T13:04:03.833Z</time></trkpt><trkpt lat="44.4091406" lon="5.2014952"><ele>357.75</ele><time>2026-04-10T13:04:04.827Z</time></trkpt><trkpt lat="44.4092546" lon="5.2015385"><ele>358.0</ele><time>2026-04-10T13:04:05.829Z</time></trkpt><trkpt lat="44.4093728" lon="5.2015801"><ele>357.5</ele><time>2026-04-10T13:04:06.828Z</time></trkpt><trkpt lat="44.4094903" lon="5.2016218"><ele>357.0</ele><time>2026-04-10T13:04:07.831Z</time></trkpt><trkpt lat="44.4096115" lon="5.2016683"><ele>356.5</ele><time>2026-04-10T13:04:08.832Z</time></trkpt><trkpt lat="44.4097335" lon="5.2017187"><ele>356.0</ele><time>2026-04-10T13:04:09.826Z</time></trkpt><trkpt lat="44.4098501" lon="5.2017621"><ele>355.8</ele><time>2026-04-10T13:04:10.828Z</time></trkpt><trkpt lat="44.4099643" lon="5.2018019"><ele>355.6</ele><time>2026-04-10T13:04:11.827Z</time></trkpt><trkpt lat="44.4100705" lon="5.2018377"><ele>355.4</ele><time>2026-04-10T13:04:12.826Z</time></trkpt><trkpt lat="44.410171" lon="5.2018721"><ele>355.2</ele><time>2026-04-10T13:04:13.829Z</time></trkpt><trkpt lat="44.4102604" lon="5.2019045"><ele>355.0</ele><time>2026-04-10T13:04:14.827Z</time></trkpt><trkpt lat="44.4103429" lon="5.2019366"><ele>355.0</ele><time>2026-04-10T13:04:15.824Z</time></trkpt><trkpt lat="44.4104215" lon="5.2019543"><ele>355.0</ele><time>2026-04-10T13:04:16.828Z</time></trkpt><trkpt lat="44.4104913" lon="5.2019421"><ele>355.0</ele><time>2026-04-10T13:04:17.829Z</time></trkpt><trkpt lat="44.4105461" lon="5.2018902"><ele>355.0</ele><time>2026-04-10T13:04:18.829Z</time></trkpt><trkpt lat="44.4106001" lon="5.2018049"><ele>355.0</ele><time>2026-04-10T13:04:19.829Z</time></trkpt><trkpt lat="44.4106384" lon="5.2017068"><ele>355.0</ele><time>2026-04-10T13:04:20.834Z</time></trkpt><trkpt lat="44.4106743" lon="5.2015933"><ele>356.0</ele><time>2026-04-10T13:04:21.833Z</time></trkpt><trkpt lat="44.4107051" lon="5.2014702"><ele>357.0</ele><time>2026-04-10T13:04:22.83Z</time></trkpt><trkpt lat="44.4107368" lon="5.2013476"><ele>358.0</ele><time>2026-04-10T13:04:23.832Z</time></trkpt><trkpt lat="44.4107732" lon="5.2012172"><ele>359.0</ele><time>2026-04-10T13:04:24.831Z</time></trkpt><trkpt lat="44.4108099" lon="5.2010802"><ele>360.0</ele><time>2026-04-10T13:04:25.831Z</time></trkpt><trkpt lat="44.410844" lon="5.2009421"><ele>360.0</ele><time>2026-04-10T13:04:26.829Z</time></trkpt><trkpt lat="44.4108801" lon="5.200795"><ele>360.0</ele><time>2026-04-10T13:04:27.829Z</time></trkpt><trkpt lat="44.4109132" lon="5.2006453"><ele>360.0</ele><time>2026-04-10T13:04:28.832Z</time></trkpt><trkpt lat="44.4109508" lon="5.2005035"><ele>360.0</ele><time>2026-04-10T13:04:29.831Z</time></trkpt><trkpt lat="44.4109902" lon="5.2003616"><ele>360.0</ele><time>2026-04-10T13:04:30.826Z</time></trkpt><trkpt lat="44.4110388" lon="5.2002262"><ele>359.75</ele><time>2026-04-10T13:04:31.827Z</time></trkpt><trkpt lat="44.4111165" lon="5.2001"><ele>359.5</ele><time>2026-04-10T13:04:32.826Z</time></trkpt><trkpt lat="44.4111973" lon="5.1999746"><ele>359.25</ele><time>2026-04-10T13:04:33.826Z</time></trkpt><trkpt lat="44.4113344" lon="5.1998481"><ele>359.0</ele><time>2026-04-10T13:04:34.828Z</time></trkpt><trkpt lat="44.4114701" lon="5.199727"><ele>360.6666666666667</ele><time>2026-04-10T13:04:35.83Z</time></trkpt><trkpt lat="44.4116078" lon="5.1996438"><ele>362.3333333333333</ele><time>2026-04-10T13:04:36.828Z</time></trkpt><trkpt lat="44.4117434" lon="5.1995437"><ele>364.0</ele><time>2026-04-10T13:04:37.826Z</time></trkpt><trkpt lat="44.411883" lon="5.1994517"><ele>364.0</ele><time>2026-04-10T13:04:38.828Z</time></trkpt><trkpt lat="44.41203" lon="5.1993384"><ele>364.0</ele><time>2026-04-10T13:04:39.829Z</time></trkpt><trkpt lat="44.412162" lon="5.1992111"><ele>364.0</ele><time>2026-04-10T13:04:40.826Z</time></trkpt><trkpt lat="44.412289" lon="5.1990891"><ele>366.3333333333333</ele><time>2026-04-10T13:04:41.834Z</time></trkpt><trkpt lat="44.4124067" lon="5.198946"><ele>368.6666666666667</ele><time>2026-04-10T13:04:42.83Z</time></trkpt><trkpt lat="44.4124968" lon="5.1987716"><ele>371.0</ele><time>2026-04-10T13:04:43.828Z</time></trkpt><trkpt lat="44.4125906" lon="5.1986128"><ele>371.0</ele><time>2026-04-10T13:04:44.828Z</time></trkpt><trkpt lat="44.4126465" lon="5.1984242"><ele>371.0</ele><time>2026-04-10T13:04:45.831Z</time></trkpt><trkpt lat="44.4126772" lon="5.1982291"><ele>371.0</ele><time>2026-04-10T13:04:46.829Z</time></trkpt><trkpt lat="44.4126973" lon="5.1980171"><ele>371.0</ele><time>2026-04-10T13:04:47.829Z</time></trkpt><trkpt lat="44.4127182" lon="5.1978121"><ele>371.5</ele><time>2026-04-10T13:04:48.829Z</time></trkpt><trkpt lat="44.4127417" lon="5.1975993"><ele>372.0</ele><time>2026-04-10T13:04:49.831Z</time></trkpt><trkpt lat="44.4127888" lon="5.1973944"><ele>372.5</ele><time>2026-04-10T13:04:50.831Z</time></trkpt><trkpt lat="44.4128388" lon="5.1972133"><ele>373.0</ele><time>2026-04-10T13:04:51.828Z</time></trkpt><trkpt lat="44.4128999" lon="5.19703"><ele>374.25</ele><time>2026-04-10T13:04:52.828Z</time></trkpt><trkpt lat="44.4130173" lon="5.196897"><ele>375.5</ele><time>2026-04-10T13:04:53.829Z</time></trkpt><trkpt lat="44.4131378" lon="5.1967766"><ele>376.75</ele><time>2026-04-10T13:04:54.829Z</time></trkpt><trkpt lat="44.4132622" lon="5.1967186"><ele>378.0</ele><time>2026-04-10T13:04:55.831Z</time></trkpt><trkpt lat="44.4133908" lon="5.1966777"><ele>378.0</ele><time>2026-04-10T13:04:56.826Z</time></trkpt><trkpt lat="44.4135606" lon="5.1966911"><ele>378.0</ele><time>2026-04-10T13:04:57.826Z</time></trkpt><trkpt lat="44.4137081" lon="5.1966606"><ele>378.0</ele><time>2026-04-10T13:04:58.828Z</time></trkpt><trkpt lat="44.4138545" lon="5.1966071"><ele>377.75</ele><time>2026-04-10T13:04:59.828Z</time></trkpt><trkpt lat="44.4139871" lon="5.1965218"><ele>377.5</ele><time>2026-04-10T13:05:00.826Z</time></trkpt><trkpt lat="44.4140863" lon="5.1963738"><ele>377.25</ele><time>2026-04-10T13:05:01.824Z</time></trkpt><trkpt lat="44.4141841" lon="5.1962112"><ele>377.0</ele><time>2026-04-10T13:05:02.825Z</time></trkpt><trkpt lat="44.4142482" lon="5.1960158"><ele>377.0</ele><time>2026-04-10T13:05:03.827Z</time></trkpt><trkpt lat="44.4143046" lon="5.1958189"><ele>377.0</ele><time>2026-04-10T13:05:04.826Z</time></trkpt><trkpt lat="44.414279" lon="5.1956037"><ele>377.0</ele><time>2026-04-10T13:05:05.831Z</time></trkpt><trkpt lat="44.4142463" lon="5.1954193"><ele>377.0</ele><time>2026-04-10T13:05:06.831Z</time></trkpt><trkpt lat="44.4142335" lon="5.1952192"><ele>377.25</ele><time>2026-04-10T13:05:07.829Z</time></trkpt><trkpt lat="44.4142285" lon="5.1950484"><ele>377.5</ele><time>2026-04-10T13:05:08.832Z</time></trkpt><trkpt lat="44.4142518" lon="5.1948828"><ele>377.75</ele><time>2026-04-10T13:05:09.826Z</time></trkpt><trkpt lat="44.4143137" lon="5.1947497"><ele>378.0</ele><time>2026-04-10T13:05:10.828Z</time></trkpt><trkpt lat="44.4143844" lon="5.1946478"><ele>379.6666666666667</ele><time>2026-04-10T13:05:11.831Z</time></trkpt><trkpt lat="44.4146481" lon="5.1947294"><ele>381.33333333333337</ele><time>2026-04-10T13:05:12.828Z</time></trkpt><trkpt lat="44.4148052" lon="5.1947285"><ele>383.0</ele><time>2026-04-10T13:05:13.829Z</time></trkpt><trkpt lat="44.4150181" lon="5.1947713"><ele>383.0</ele><time>2026-04-10T13:05:14.826Z</time></trkpt><trkpt lat="44.4151788" lon="5.1947769"><ele>383.0</ele><time>2026-04-10T13:05:15.831Z</time></trkpt><trkpt lat="44.4153535" lon="5.1947851"><ele>383.0</ele><time>2026-04-10T13:05:16.834Z</time></trkpt><trkpt lat="44.4155235" lon="5.1947783"><ele>381.33333333333337</ele><time>2026-04-10T13:05:17.828Z</time></trkpt><trkpt lat="44.4157249" lon="5.1947717"><ele>379.6666666666667</ele><time>2026-04-10T13:05:18.829Z</time></trkpt><trkpt lat="44.4159057" lon="5.1947654"><ele>378.0</ele><time>2026-04-10T13:05:19.829Z</time></trkpt><trkpt lat="44.4160915" lon="5.1947463"><ele>378.0</ele><time>2026-04-10T13:05:20.829Z</time></trkpt><trkpt lat="44.4162492" lon="5.1947384"><ele>378.0</ele><time>2026-04-10T13:05:21.83Z</time></trkpt><trkpt lat="44.4163998" lon="5.1947075"><ele>378.0</ele><time>2026-04-10T13:05:22.828Z</time></trkpt><trkpt lat="44.4165402" lon="5.1946548"><ele>379.25</ele><time>2026-04-10T13:05:23.832Z</time></trkpt><trkpt lat="44.4166667" lon="5.1945643"><ele>380.5</ele><time>2026-04-10T13:05:24.828Z</time></trkpt><trkpt lat="44.4167901" lon="5.1944493"><ele>381.75</ele><time>2026-04-10T13:05:25.828Z</time></trkpt><trkpt lat="44.4169082" lon="5.1943286"><ele>383.0</ele><time>2026-04-10T13:05:26.83Z</time></trkpt><trkpt lat="44.4170271" lon="5.194184"><ele>383.0</ele><time>2026-04-10T13:05:27.836Z</time></trkpt><trkpt lat="44.4171491" lon="5.1940271"><ele>383.0</ele><time>2026-04-10T13:05:28.829Z</time></trkpt><trkpt lat="44.4172749" lon="5.1938805"><ele>383.0</ele><time>2026-04-10T13:05:29.829Z</time></trkpt><trkpt lat="44.4174133" lon="5.1937234"><ele>384.33333333333337</ele><time>2026-04-10T13:05:30.829Z</time></trkpt><trkpt lat="44.4175482" lon="5.1935861"><ele>385.6666666666667</ele><time>2026-04-10T13:05:31.826Z</time></trkpt><trkpt lat="44.4176766" lon="5.1934206"><ele>387.0</ele><time>2026-04-10T13:05:32.825Z</time></trkpt><trkpt lat="44.4178156" lon="5.1932772"><ele>386.33333333333337</ele><time>2026-04-10T13:05:33.83Z</time></trkpt><trkpt lat="44.4179575" lon="5.1931515"><ele>385.6666666666667</ele><time>2026-04-10T13:05:34.829Z</time></trkpt><trkpt lat="44.4180919" lon="5.1930229"><ele>385.0</ele><time>2026-04-10T13:05:35.826Z</time></trkpt><trkpt lat="44.4182257" lon="5.192998"><ele>385.0</ele><time>2026-04-10T13:05:36.828Z</time></trkpt><trkpt lat="44.4183754" lon="5.1929789"><ele>385.0</ele><time>2026-04-10T13:05:37.828Z</time></trkpt><trkpt lat="44.4185237" lon="5.1929477"><ele>385.0</ele><time>2026-04-10T13:05:38.831Z</time></trkpt><trkpt lat="44.4186796" lon="5.1928736"><ele>387.0</ele><time>2026-04-10T13:05:39.83Z</time></trkpt><trkpt lat="44.4188269" lon="5.1927985"><ele>389.0</ele><time>2026-04-10T13:05:40.825Z</time></trkpt><trkpt lat="44.4189752" lon="5.1926723"><ele>391.0</ele><time>2026-04-10T13:05:41.83Z</time></trkpt><trkpt lat="44.4191194" lon="5.1925664"><ele>391.0</ele><time>2026-04-10T13:05:42.832Z</time></trkpt><trkpt lat="44.4192778" lon="5.1924777"><ele>391.0</ele><time>2026-04-10T13:05:43.831Z</time></trkpt><trkpt lat="44.419447" lon="5.1923898"><ele>391.0</ele><time>2026-04-10T13:05:44.829Z</time></trkpt><trkpt lat="44.4196033" lon="5.1923381"><ele>390.6666666666667</ele><time>2026-04-10T13:05:45.827Z</time></trkpt><trkpt lat="44.4197672" lon="5.1922846"><ele>390.33333333333337</ele><time>2026-04-10T13:05:46.828Z</time></trkpt><trkpt lat="44.419936" lon="5.1922098"><ele>390.0</ele><time>2026-04-10T13:05:47.827Z</time></trkpt><trkpt lat="44.4201062" lon="5.1921495"><ele>390.0</ele><time>2026-04-10T13:05:48.828Z</time></trkpt><trkpt lat="44.4202648" lon="5.1920941"><ele>390.0</ele><time>2026-04-10T13:05:49.827Z</time></trkpt><trkpt lat="44.420425" lon="5.192048"><ele>390.0</ele><time>2026-04-10T13:05:50.825Z</time></trkpt><trkpt lat="44.4205885" lon="5.1919999"><ele>390.33333333333337</ele><time>2026-04-10T13:05:51.826Z</time></trkpt><trkpt lat="44.4207499" lon="5.1919606"><ele>390.6666666666667</ele><time>2026-04-10T13:05:52.825Z</time></trkpt><trkpt lat="44.4209138" lon="5.191916"><ele>391.0</ele><time>2026-04-10T13:05:53.826Z</time></trkpt><trkpt lat="44.4210861" lon="5.1918374"><ele>391.0</ele><time>2026-04-10T13:05:54.828Z</time></trkpt><trkpt lat="44.4212668" lon="5.1917645"><ele>391.0</ele><time>2026-04-10T13:05:55.833Z</time></trkpt><trkpt lat="44.4214264" lon="5.1917095"><ele>391.0</ele><time>2026-04-10T13:05:56.831Z</time></trkpt><trkpt lat="44.421586" lon="5.191653"><ele>393.33333333333337</ele><time>2026-04-10T13:05:57.834Z</time></trkpt><trkpt lat="44.4217467" lon="5.19159"><ele>395.66666666666663</ele><time>2026-04-10T13:05:58.83Z</time></trkpt><trkpt lat="44.421886" lon="5.1915639"><ele>398.0</ele><time>2026-04-10T13:05:59.831Z</time></trkpt><trkpt lat="44.4220303" lon="5.1915119"><ele>400.5</ele><time>2026-04-10T13:06:00.829Z</time></trkpt><trkpt lat="44.4221706" lon="5.1915251"><ele>403.0</ele><time>2026-04-10T13:06:01.828Z</time></trkpt><trkpt lat="44.4223026" lon="5.1915159"><ele>405.5</ele><time>2026-04-10T13:06:02.825Z</time></trkpt><trkpt lat="44.4224214" lon="5.1915474"><ele>408.0</ele><time>2026-04-10T13:06:03.83Z</time></trkpt><trkpt lat="44.4225125" lon="5.1915378"><ele>408.0</ele><time>2026-04-10T13:06:04.829Z</time></trkpt><trkpt lat="44.4226007" lon="5.1915181"><ele>408.0</ele><time>2026-04-10T13:06:05.826Z</time></trkpt><trkpt lat="44.422676" lon="5.1914034"><ele>408.0</ele><time>2026-04-10T13:06:06.826Z</time></trkpt><trkpt lat="44.4227299" lon="5.1912589"><ele>408.0</ele><time>2026-04-10T13:06:07.835Z</time></trkpt><trkpt lat="44.4227385" lon="5.1910354"><ele>407.75</ele><time>2026-04-10T13:06:08.829Z</time></trkpt><trkpt lat="44.4227708" lon="5.1908291"><ele>407.5</ele><time>2026-04-10T13:06:09.829Z</time></trkpt><trkpt lat="44.4227954" lon="5.1906409"><ele>407.25</ele><time>2026-04-10T13:06:10.825Z</time></trkpt><trkpt lat="44.4228054" lon="5.1904399"><ele>407.0</ele><time>2026-04-10T13:06:11.827Z</time></trkpt><trkpt lat="44.4227841" lon="5.1902114"><ele>407.0</ele><time>2026-04-10T13:06:12.826Z</time></trkpt><trkpt lat="44.4227355" lon="5.1900085"><ele>407.0</ele><time>2026-04-10T13:06:13.825Z</time></trkpt><trkpt lat="44.4227008" lon="5.1898032"><ele>407.0</ele><time>2026-04-10T13:06:14.828Z</time></trkpt><trkpt lat="44.4226648" lon="5.1895931"><ele>407.0</ele><time>2026-04-10T13:06:15.826Z</time></trkpt><trkpt lat="44.4226421" lon="5.1893756"><ele>407.0</ele><time>2026-04-10T13:06:16.828Z</time></trkpt><trkpt lat="44.4226243" lon="5.1891534"><ele>407.0</ele><time>2026-04-10T13:06:17.824Z</time></trkpt><trkpt lat="44.4225957" lon="5.1889311"><ele>406.66666666666663</ele><time>2026-04-10T13:06:18.828Z</time></trkpt><trkpt lat="44.4225734" lon="5.1887111"><ele>406.33333333333337</ele><time>2026-04-10T13:06:19.826Z</time></trkpt><trkpt lat="44.4225771" lon="5.1884868"><ele>406.0</ele><time>2026-04-10T13:06:20.827Z</time></trkpt><trkpt lat="44.4225763" lon="5.1882636"><ele>405.6666666666667</ele><time>2026-04-10T13:06:21.828Z</time></trkpt><trkpt lat="44.4225684" lon="5.1880615"><ele>405.33333333333337</ele><time>2026-04-10T13:06:22.827Z</time></trkpt><trkpt lat="44.4226194" lon="5.1879059"><ele>405.0</ele><time>2026-04-10T13:06:23.827Z</time></trkpt><trkpt lat="44.4227889" lon="5.1877782"><ele>405.0</ele><time>2026-04-10T13:06:24.831Z</time></trkpt><trkpt lat="44.4228798" lon="5.187605"><ele>405.0</ele><time>2026-04-10T13:06:25.829Z</time></trkpt><trkpt lat="44.4229567" lon="5.1874247"><ele>405.0</ele><time>2026-04-10T13:06:26.829Z</time></trkpt><trkpt lat="44.423025" lon="5.1872479"><ele>405.0</ele><time>2026-04-10T13:06:27.826Z</time></trkpt><trkpt lat="44.4230962" lon="5.1870777"><ele>407.25</ele><time>2026-04-10T13:06:28.835Z</time></trkpt><trkpt lat="44.4231922" lon="5.1869322"><ele>409.5</ele><time>2026-04-10T13:06:29.835Z</time></trkpt><trkpt lat="44.4233155" lon="5.1868368"><ele>411.75</ele><time>2026-04-10T13:06:30.836Z</time></trkpt><trkpt lat="44.4234038" lon="5.1866871"><ele>414.0</ele><time>2026-04-10T13:06:31.83Z</time></trkpt><trkpt lat="44.4234851" lon="5.1865242"><ele>413.75</ele><time>2026-04-10T13:06:32.826Z</time></trkpt><trkpt lat="44.4235296" lon="5.1863305"><ele>413.5</ele><time>2026-04-10T13:06:33.833Z</time></trkpt><trkpt lat="44.4235789" lon="5.1861401"><ele>413.25</ele><time>2026-04-10T13:06:34.829Z</time></trkpt><trkpt lat="44.4236328" lon="5.1859533"><ele>413.0</ele><time>2026-04-10T13:06:35.83Z</time></trkpt><trkpt lat="44.4236813" lon="5.1857525"><ele>412.3333333333333</ele><time>2026-04-10T13:06:36.827Z</time></trkpt><trkpt lat="44.4237762" lon="5.1855664"><ele>411.66666666666663</ele><time>2026-04-10T13:06:37.825Z</time></trkpt><trkpt lat="44.42382" lon="5.1853745"><ele>411.0</ele><time>2026-04-10T13:06:38.828Z</time></trkpt><trkpt lat="44.4238868" lon="5.18517"><ele>413.66666666666663</ele><time>2026-04-10T13:06:39.826Z</time></trkpt><trkpt lat="44.4239366" lon="5.1849594"><ele>416.3333333333333</ele><time>2026-04-10T13:06:40.836Z</time></trkpt><trkpt lat="44.4239888" lon="5.1847429"><ele>419.0</ele><time>2026-04-10T13:06:41.835Z</time></trkpt><trkpt lat="44.4240364" lon="5.1845466"><ele>419.0</ele><time>2026-04-10T13:06:42.827Z</time></trkpt><trkpt lat="44.4240885" lon="5.184357"><ele>419.0</ele><time>2026-04-10T13:06:43.825Z</time></trkpt><trkpt lat="44.4241401" lon="5.1841827"><ele>419.0</ele><time>2026-04-10T13:06:44.83Z</time></trkpt><trkpt lat="44.4241888" lon="5.1840203"><ele>419.0</ele><time>2026-04-10T13:06:45.836Z</time></trkpt><trkpt lat="44.4242649" lon="5.1838892"><ele>418.3333333333333</ele><time>2026-04-10T13:06:46.828Z</time></trkpt><trkpt lat="44.4244314" lon="5.1837435"><ele>417.66666666666663</ele><time>2026-04-10T13:06:47.836Z</time></trkpt><trkpt lat="44.4245689" lon="5.1836097"><ele>417.0</ele><time>2026-04-10T13:06:48.828Z</time></trkpt><trkpt lat="44.4247105" lon="5.1834733"><ele>419.0</ele><time>2026-04-10T13:06:49.826Z</time></trkpt><trkpt lat="44.4248436" lon="5.1833349"><ele>421.0</ele><time>2026-04-10T13:06:50.828Z</time></trkpt><trkpt lat="44.4249805" lon="5.1831933"><ele>423.0</ele><time>2026-04-10T13:06:51.829Z</time></trkpt><trkpt lat="44.4251216" lon="5.1830482"><ele>423.0</ele><time>2026-04-10T13:06:52.825Z</time></trkpt><trkpt lat="44.4252647" lon="5.1829106"><ele>423.0</ele><time>2026-04-10T13:06:53.831Z</time></trkpt><trkpt lat="44.4254044" lon="5.182767"><ele>423.0</ele><time>2026-04-10T13:06:54.831Z</time></trkpt><trkpt lat="44.4255394" lon="5.1826318"><ele>424.33333333333337</ele><time>2026-04-10T13:06:55.826Z</time></trkpt><trkpt lat="44.4256792" lon="5.1824931"><ele>425.6666666666667</ele><time>2026-04-10T13:06:56.831Z</time></trkpt><trkpt lat="44.4258192" lon="5.1823544"><ele>427.0</ele><time>2026-04-10T13:06:57.833Z</time></trkpt><trkpt lat="44.4259586" lon="5.182214"><ele>427.6666666666667</ele><time>2026-04-10T13:06:58.832Z</time></trkpt><trkpt lat="44.4261015" lon="5.1820734"><ele>428.33333333333337</ele><time>2026-04-10T13:06:59.827Z</time></trkpt><trkpt lat="44.4262424" lon="5.1819286"><ele>429.0</ele><time>2026-04-10T13:07:00.829Z</time></trkpt><trkpt lat="44.4263782" lon="5.1817898"><ele>429.66666666666663</ele><time>2026-04-10T13:07:01.832Z</time></trkpt><trkpt lat="44.4265149" lon="5.1816592"><ele>430.3333333333333</ele><time>2026-04-10T13:07:02.835Z</time></trkpt><trkpt lat="44.4266516" lon="5.1815264"><ele>431.0</ele><time>2026-04-10T13:07:03.831Z</time></trkpt><trkpt lat="44.4267883" lon="5.1813915"><ele>431.3333333333333</ele><time>2026-04-10T13:07:04.83Z</time></trkpt><trkpt lat="44.4269222" lon="5.1812543"><ele>431.66666666666663</ele><time>2026-04-10T13:07:05.83Z</time></trkpt><trkpt lat="44.4270537" lon="5.1811148"><ele>432.0</ele><time>2026-04-10T13:07:06.831Z</time></trkpt><trkpt lat="44.4271843" lon="5.1809747"><ele>432.33333333333337</ele><time>2026-04-10T13:07:07.833Z</time></trkpt><trkpt lat="44.4273133" lon="5.1808504"><ele>432.6666666666667</ele><time>2026-04-10T13:07:08.83Z</time></trkpt><trkpt lat="44.4274331" lon="5.1807188"><ele>433.0</ele><time>2026-04-10T13:07:09.829Z</time></trkpt><trkpt lat="44.4275545" lon="5.1806127"><ele>433.0</ele><time>2026-04-10T13:07:10.835Z</time></trkpt><trkpt lat="44.4276662" lon="5.180498"><ele>433.0</ele><time>2026-04-10T13:07:11.832Z</time></trkpt><trkpt lat="44.4277798" lon="5.1803729"><ele>433.0</ele><time>2026-04-10T13:07:12.83Z</time></trkpt><trkpt lat="44.4278887" lon="5.1802542"><ele>433.0</ele><time>2026-04-10T13:07:13.836Z</time></trkpt><trkpt lat="44.4279854" lon="5.1801335"><ele>433.4</ele><time>2026-04-10T13:07:14.839Z</time></trkpt><trkpt lat="44.4280455" lon="5.1799941"><ele>433.79999999999995</ele><time>2026-04-10T13:07:15.836Z</time></trkpt><trkpt lat="44.4280949" lon="5.1798579"><ele>434.2</ele><time>2026-04-10T13:07:16.829Z</time></trkpt><trkpt lat="44.4281368" lon="5.1797133"><ele>434.6</ele><time>2026-04-10T13:07:17.832Z</time></trkpt><trkpt lat="44.4281421" lon="5.1795928"><ele>435.0</ele><time>2026-04-10T13:07:18.831Z</time></trkpt><trkpt lat="44.4281515" lon="5.1794431"><ele>435.0</ele><time>2026-04-10T13:07:20.831Z</time></trkpt><trkpt lat="44.4281863" lon="5.1793242"><ele>435.0</ele><time>2026-04-10T13:07:22.828Z</time></trkpt><trkpt lat="44.4282533" lon="5.1792976"><ele>435.0</ele><time>2026-04-10T13:07:25.829Z</time></trkpt><trkpt lat="44.4283435" lon="5.1792175"><ele>435.0</ele><time>2026-04-10T13:07:27.826Z</time></trkpt><trkpt lat="44.4284637" lon="5.1791283"><ele>435.0</ele><time>2026-04-10T13:07:29.826Z</time></trkpt><trkpt lat="44.428533" lon="5.1790566"><ele>435.0</ele><time>2026-04-10T13:07:30.826Z</time></trkpt><trkpt lat="44.4286171" lon="5.1790035"><ele>435.0</ele><time>2026-04-10T13:07:31.828Z</time></trkpt><trkpt lat="44.4286971" lon="5.1789613"><ele>435.0</ele><time>2026-04-10T13:07:32.825Z</time></trkpt><trkpt lat="44.4287727" lon="5.1789674"><ele>435.0</ele><time>2026-04-10T13:07:33.83Z</time></trkpt><trkpt lat="44.4288845" lon="5.1789731"><ele>435.0</ele><time>2026-04-10T13:07:34.831Z</time></trkpt><trkpt lat="44.428979" lon="5.1789726"><ele>435.4</ele><time>2026-04-10T13:07:35.828Z</time></trkpt><trkpt lat="44.4290817" lon="5.1789835"><ele>435.8</ele><time>2026-04-10T13:07:36.83Z</time></trkpt><trkpt lat="44.4291677" lon="5.1790112"><ele>436.20000000000005</ele><time>2026-04-10T13:07:37.826Z</time></trkpt><trkpt lat="44.4292296" lon="5.1790391"><ele>436.6</ele><time>2026-04-10T13:07:38.827Z</time></trkpt><trkpt lat="44.4293116" lon="5.1789852"><ele>437.0</ele><time>2026-04-10T13:07:40.834Z</time></trkpt><trkpt lat="44.4293579" lon="5.1788206"><ele>437.0</ele><time>2026-04-10T13:07:42.828Z</time></trkpt><trkpt lat="44.4293798" lon="5.1787174"><ele>437.0</ele><time>2026-04-10T13:07:43.829Z</time></trkpt><trkpt lat="44.4294214" lon="5.1786409"><ele>437.0</ele><time>2026-04-10T13:07:44.826Z</time></trkpt><trkpt lat="44.429467" lon="5.1785761"><ele>437.0</ele><time>2026-04-10T13:07:45.825Z</time></trkpt><trkpt lat="44.42955" lon="5.1785393"><ele>437.0</ele><time>2026-04-10T13:07:46.828Z</time></trkpt><trkpt lat="44.4296219" lon="5.1785139"><ele>437.0</ele><time>2026-04-10T13:07:47.826Z</time></trkpt><trkpt lat="44.4296936" lon="5.1784745"><ele>437.0</ele><time>2026-04-10T13:07:48.827Z</time></trkpt><trkpt lat="44.4297661" lon="5.178416"><ele>437.20000000000005</ele><time>2026-04-10T13:07:49.829Z</time></trkpt><trkpt lat="44.4298233" lon="5.1783536"><ele>437.40000000000003</ele><time>2026-04-10T13:07:50.83Z</time></trkpt><trkpt lat="44.4298832" lon="5.1782113"><ele>437.59999999999997</ele><time>2026-04-10T13:07:52.824Z</time></trkpt><trkpt lat="44.429901" lon="5.1780401"><ele>437.79999999999995</ele><time>2026-04-10T13:07:54.827Z</time></trkpt><trkpt lat="44.4299583" lon="5.1779497"><ele>438.0</ele><time>2026-04-10T13:07:55.83Z</time></trkpt><trkpt lat="44.4300281" lon="5.1778347"><ele>438.79999999999995</ele><time>2026-04-10T13:07:56.826Z</time></trkpt><trkpt lat="44.430091" lon="5.1777388"><ele>439.59999999999997</ele><time>2026-04-10T13:07:57.83Z</time></trkpt><trkpt lat="44.4301568" lon="5.1776389"><ele>440.40000000000003</ele><time>2026-04-10T13:07:58.833Z</time></trkpt><trkpt lat="44.430215" lon="5.1775315"><ele>441.20000000000005</ele><time>2026-04-10T13:07:59.831Z</time></trkpt><trkpt lat="44.4302548" lon="5.1774134"><ele>442.0</ele><time>2026-04-10T13:08:00.829Z</time></trkpt><trkpt lat="44.4303103" lon="5.1773026"><ele>443.00000000000006</ele><time>2026-04-10T13:08:01.827Z</time></trkpt><trkpt lat="44.4303666" lon="5.1772278"><ele>444.0</ele><time>2026-04-10T13:08:02.83Z</time></trkpt><trkpt lat="44.430423" lon="5.1771437"><ele>445.0</ele><time>2026-04-10T13:08:03.826Z</time></trkpt><trkpt lat="44.4304809" lon="5.1770533"><ele>446.0</ele><time>2026-04-10T13:08:04.829Z</time></trkpt><trkpt lat="44.4305247" lon="5.17697"><ele>447.00000000000006</ele><time>2026-04-10T13:08:05.83Z</time></trkpt><trkpt lat="44.4305687" lon="5.1768752"><ele>448.0</ele><time>2026-04-10T13:08:06.827Z</time></trkpt><trkpt lat="44.4306088" lon="5.1767879"><ele>449.0</ele><time>2026-04-10T13:08:07.824Z</time></trkpt><trkpt lat="44.4306611" lon="5.1766975"><ele>449.99999999999994</ele><time>2026-04-10T13:08:08.828Z</time></trkpt><trkpt lat="44.4307236" lon="5.1766124"><ele>450.99999999999994</ele><time>2026-04-10T13:08:09.825Z</time></trkpt><trkpt lat="44.4307932" lon="5.1765393"><ele>452.0</ele><time>2026-04-10T13:08:10.828Z</time></trkpt><trkpt lat="44.4308821" lon="5.1764637"><ele>453.0</ele><time>2026-04-10T13:08:11.831Z</time></trkpt><trkpt lat="44.4309737" lon="5.1764077"><ele>453.2</ele><time>2026-04-10T13:08:12.831Z</time></trkpt><trkpt lat="44.4310763" lon="5.1763327"><ele>453.4</ele><time>2026-04-10T13:08:13.823Z</time></trkpt><trkpt lat="44.4311668" lon="5.1762576"><ele>453.59999999999997</ele><time>2026-04-10T13:08:14.829Z</time></trkpt><trkpt lat="44.4312628" lon="5.1761741"><ele>453.79999999999995</ele><time>2026-04-10T13:08:15.833Z</time></trkpt><trkpt lat="44.431351" lon="5.1760843"><ele>454.0</ele><time>2026-04-10T13:08:16.83Z</time></trkpt><trkpt lat="44.4314308" lon="5.1759858"><ele>455.5</ele><time>2026-04-10T13:08:17.834Z</time></trkpt><trkpt lat="44.4315049" lon="5.1758636"><ele>457.0</ele><time>2026-04-10T13:08:18.832Z</time></trkpt><trkpt lat="44.4315739" lon="5.1757402"><ele>458.5</ele><time>2026-04-10T13:08:19.828Z</time></trkpt><trkpt lat="44.4316365" lon="5.1756071"><ele>460.0</ele><time>2026-04-10T13:08:20.827Z</time></trkpt><trkpt lat="44.4317043" lon="5.1754817"><ele>460.25</ele><time>2026-04-10T13:08:21.825Z</time></trkpt><trkpt lat="44.4317804" lon="5.1753662"><ele>460.5</ele><time>2026-04-10T13:08:22.832Z</time></trkpt><trkpt lat="44.4318546" lon="5.1752461"><ele>460.75</ele><time>2026-04-10T13:08:23.829Z</time></trkpt><trkpt lat="44.4319169" lon="5.1751124"><ele>461.0</ele><time>2026-04-10T13:08:24.83Z</time></trkpt><trkpt lat="44.4319775" lon="5.1749715"><ele>461.75</ele><time>2026-04-10T13:08:25.829Z</time></trkpt><trkpt lat="44.4320354" lon="5.1748276"><ele>462.5</ele><time>2026-04-10T13:08:26.829Z</time></trkpt><trkpt lat="44.4320992" lon="5.1746876"><ele>463.25</ele><time>2026-04-10T13:08:27.827Z</time></trkpt><trkpt lat="44.4321675" lon="5.1745458"><ele>464.0</ele><time>2026-04-10T13:08:28.831Z</time></trkpt><trkpt lat="44.4322361" lon="5.1744136"><ele>465.5</ele><time>2026-04-10T13:08:29.833Z</time></trkpt><trkpt lat="44.4323017" lon="5.1742821"><ele>467.0</ele><time>2026-04-10T13:08:30.831Z</time></trkpt><trkpt lat="44.4323679" lon="5.1741444"><ele>468.5</ele><time>2026-04-10T13:08:31.832Z</time></trkpt><trkpt lat="44.4324331" lon="5.1740085"><ele>470.0</ele><time>2026-04-10T13:08:32.826Z</time></trkpt><trkpt lat="44.4325055" lon="5.1738768"><ele>471.75</ele><time>2026-04-10T13:08:33.835Z</time></trkpt><trkpt lat="44.4325799" lon="5.1737537"><ele>473.5</ele><time>2026-04-10T13:08:34.83Z</time></trkpt><trkpt lat="44.4326448" lon="5.1736238"><ele>475.25</ele><time>2026-04-10T13:08:35.827Z</time></trkpt><trkpt lat="44.4327085" lon="5.1734791"><ele>477.0</ele><time>2026-04-10T13:08:36.829Z</time></trkpt><trkpt lat="44.4327699" lon="5.1733459"><ele>477.0</ele><time>2026-04-10T13:08:37.83Z</time></trkpt><trkpt lat="44.4328374" lon="5.1732198"><ele>477.00000000000006</ele><time>2026-04-10T13:08:38.829Z</time></trkpt><trkpt lat="44.4329047" lon="5.1731076"><ele>477.00000000000006</ele><time>2026-04-10T13:08:39.828Z</time></trkpt><trkpt lat="44.4329676" lon="5.1730032"><ele>477.0</ele><time>2026-04-10T13:08:40.832Z</time></trkpt><trkpt lat="44.4330259" lon="5.172901"><ele>477.0</ele><time>2026-04-10T13:08:41.826Z</time></trkpt><trkpt lat="44.4330843" lon="5.1728007"><ele>479.3333333333333</ele><time>2026-04-10T13:08:42.827Z</time></trkpt><trkpt lat="44.4331554" lon="5.1726992"><ele>481.66666666666663</ele><time>2026-04-10T13:08:43.826Z</time></trkpt><trkpt lat="44.4332263" lon="5.1726076"><ele>484.0</ele><time>2026-04-10T13:08:44.827Z</time></trkpt><trkpt lat="44.4333" lon="5.1725275"><ele>486.3333333333333</ele><time>2026-04-10T13:08:45.823Z</time></trkpt><trkpt lat="44.43335" lon="5.1724535"><ele>488.66666666666663</ele><time>2026-04-10T13:08:46.831Z</time></trkpt><trkpt lat="44.4333792" lon="5.1723635"><ele>491.0</ele><time>2026-04-10T13:08:47.826Z</time></trkpt><trkpt lat="44.4334183" lon="5.172283"><ele>491.2857142857143</ele><time>2026-04-10T13:08:48.832Z</time></trkpt><trkpt lat="44.4334698" lon="5.1722219"><ele>491.57142857142856</ele><time>2026-04-10T13:08:49.83Z</time></trkpt><trkpt lat="44.4335315" lon="5.172154"><ele>491.85714285714283</ele><time>2026-04-10T13:08:50.825Z</time></trkpt><trkpt lat="44.4335967" lon="5.172091"><ele>492.1428571428571</ele><time>2026-04-10T13:08:51.83Z</time></trkpt><trkpt lat="44.4336579" lon="5.1720364"><ele>492.42857142857144</ele><time>2026-04-10T13:08:52.832Z</time></trkpt><trkpt lat="44.4337117" lon="5.1719719"><ele>492.71428571428567</ele><time>2026-04-10T13:08:53.829Z</time></trkpt><trkpt lat="44.4337549" lon="5.1718983"><ele>493.0</ele><time>2026-04-10T13:08:54.83Z</time></trkpt><trkpt lat="44.4338005" lon="5.1718253"><ele>496.57142857142856</ele><time>2026-04-10T13:08:55.829Z</time></trkpt><trkpt lat="44.4338518" lon="5.171746"><ele>500.14285714285717</ele><time>2026-04-10T13:08:56.829Z</time></trkpt><trkpt lat="44.4338909" lon="5.1716763"><ele>503.7142857142857</ele><time>2026-04-10T13:08:57.828Z</time></trkpt><trkpt lat="44.4339353" lon="5.1716131"><ele>507.2857142857143</ele><time>2026-04-10T13:08:58.826Z</time></trkpt><trkpt lat="44.4339932" lon="5.1715584"><ele>510.8571428571429</ele><time>2026-04-10T13:08:59.824Z</time></trkpt><trkpt lat="44.4340537" lon="5.1715185"><ele>514.4285714285714</ele><time>2026-04-10T13:09:00.848Z</time></trkpt><trkpt lat="44.4341588" lon="5.1715205"><ele>518.0</ele><time>2026-04-10T13:09:02.829Z</time></trkpt><trkpt lat="44.4342213" lon="5.1715606"><ele>518.0</ele><time>2026-04-10T13:09:03.826Z</time></trkpt><trkpt lat="44.434283" lon="5.1716008"><ele>518.0</ele><time>2026-04-10T13:09:04.826Z</time></trkpt><trkpt lat="44.4343723" lon="5.1716886"><ele>518.0</ele><time>2026-04-10T13:09:06.825Z</time></trkpt><trkpt lat="44.4344121" lon="5.1718327"><ele>518.0</ele><time>2026-04-10T13:09:08.826Z</time></trkpt><trkpt lat="44.434431" lon="5.1719406"><ele>518.0</ele><time>2026-04-10T13:09:10.834Z</time></trkpt><trkpt lat="44.4344938" lon="5.1719296"><ele>518.0</ele><time>2026-04-10T13:09:12.829Z</time></trkpt><trkpt lat="44.4345591" lon="5.1718473"><ele>518.0</ele><time>2026-04-10T13:09:14.826Z</time></trkpt><trkpt lat="44.4345574" lon="5.1717481"><ele>518.0</ele><time>2026-04-10T13:09:15.829Z</time></trkpt><trkpt lat="44.4345469" lon="5.1716313"><ele>518.0</ele><time>2026-04-10T13:09:16.833Z</time></trkpt><trkpt lat="44.4345331" lon="5.1715189"><ele>518.0</ele><time>2026-04-10T13:09:17.833Z</time></trkpt><trkpt lat="44.434528" lon="5.1714128"><ele>518.0</ele><time>2026-04-10T13:09:18.829Z</time></trkpt><trkpt lat="44.4345755" lon="5.171335"><ele>518.0</ele><time>2026-04-10T13:09:21.826Z</time></trkpt><trkpt lat="44.4346678" lon="5.1712652"><ele>523.8333333333333</ele><time>2026-04-10T13:09:23.827Z</time></trkpt><trkpt lat="44.4347263" lon="5.1711827"><ele>529.6666666666666</ele><time>2026-04-10T13:09:24.832Z</time></trkpt><trkpt lat="44.4348093" lon="5.1711546"><ele>535.5</ele><time>2026-04-10T13:09:26.828Z</time></trkpt><trkpt lat="44.434841" lon="5.1712634"><ele>541.3333333333334</ele><time>2026-04-10T13:09:28.826Z</time></trkpt><trkpt lat="44.4348163" lon="5.1714017"><ele>547.1666666666667</ele><time>2026-04-10T13:09:30.832Z</time></trkpt><trkpt lat="44.4348415" lon="5.1715239"><ele>553.0</ele><time>2026-04-10T13:09:32.827Z</time></trkpt><trkpt lat="44.4349183" lon="5.1716256"><ele>553.0</ele><time>2026-04-10T13:09:34.833Z</time></trkpt><trkpt lat="44.4349582" lon="5.1716997"><ele>553.0</ele><time>2026-04-10T13:09:35.828Z</time></trkpt><trkpt lat="44.4350143" lon="5.1718284"><ele>553.0</ele><time>2026-04-10T13:09:37.83Z</time></trkpt><trkpt lat="44.4350294" lon="5.1719199"><ele>553.0</ele><time>2026-04-10T13:09:38.832Z</time></trkpt><trkpt lat="44.4350381" lon="5.1720177"><ele>553.0</ele><time>2026-04-10T13:09:39.83Z</time></trkpt><trkpt lat="44.4350484" lon="5.1721159"><ele>553.0</ele><time>2026-04-10T13:09:40.834Z</time></trkpt><trkpt lat="44.4350652" lon="5.1722036"><ele>553.0</ele><time>2026-04-10T13:09:41.834Z</time></trkpt><trkpt lat="44.4350789" lon="5.1723102"><ele>553.0</ele><time>2026-04-10T13:09:42.832Z</time></trkpt><trkpt lat="44.4351238" lon="5.1724687"><ele>553.0</ele><time>2026-04-10T13:09:44.831Z</time></trkpt><trkpt lat="44.4351786" lon="5.1725765"><ele>553.0</ele><time>2026-04-10T13:09:46.828Z</time></trkpt><trkpt lat="44.4352407" lon="5.1725251"><ele>553.0</ele><time>2026-04-10T13:09:49.831Z</time></trkpt><trkpt lat="44.4352592" lon="5.172398"><ele>553.0</ele><time>2026-04-10T13:09:51.83Z</time></trkpt><trkpt lat="44.435309" lon="5.1722438"><ele>553.0</ele><time>2026-04-10T13:09:53.826Z</time></trkpt><trkpt lat="44.4353731" lon="5.1720965"><ele>553.0</ele><time>2026-04-10T13:09:55.829Z</time></trkpt><trkpt lat="44.4354114" lon="5.1720041"><ele>553.0</ele><time>2026-04-10T13:09:56.823Z</time></trkpt><trkpt lat="44.4354505" lon="5.1719135"><ele>553.0</ele><time>2026-04-10T13:09:57.824Z</time></trkpt><trkpt lat="44.4354839" lon="5.1718314"><ele>553.0</ele><time>2026-04-10T13:09:58.828Z</time></trkpt><trkpt lat="44.4355437" lon="5.1716622"><ele>560.5</ele><time>2026-04-10T13:10:00.834Z</time></trkpt><trkpt lat="44.4355662" lon="5.1715393"><ele>568.0</ele><time>2026-04-10T13:10:01.831Z</time></trkpt><trkpt lat="44.4355891" lon="5.1714134"><ele>575.5</ele><time>2026-04-10T13:10:02.825Z</time></trkpt><trkpt lat="44.4356127" lon="5.171304"><ele>583.0</ele><time>2026-04-10T13:10:03.824Z</time></trkpt><trkpt lat="44.4356235" lon="5.1711867"><ele>590.5</ele><time>2026-04-10T13:10:04.824Z</time></trkpt><trkpt lat="44.4356403" lon="5.1710767"><ele>598.0</ele><time>2026-04-10T13:10:05.824Z</time></trkpt><trkpt lat="44.4356589" lon="5.1709717"><ele>598.0</ele><time>2026-04-10T13:10:06.824Z</time></trkpt><trkpt lat="44.4356869" lon="5.1708726"><ele>598.0</ele><time>2026-04-10T13:10:07.825Z</time></trkpt><trkpt lat="44.4357178" lon="5.1707922"><ele>598.0</ele><time>2026-04-10T13:10:08.831Z</time></trkpt><trkpt lat="44.4357224" lon="5.1706529"><ele>598.0</ele><time>2026-04-10T13:10:10.828Z</time></trkpt><trkpt lat="44.4357092" lon="5.170509"><ele>598.0</ele><time>2026-04-10T13:10:12.827Z</time></trkpt><trkpt lat="44.4357233" lon="5.170371"><ele>598.0</ele><time>2026-04-10T13:10:14.827Z</time></trkpt><trkpt lat="44.4357496" lon="5.1702508"><ele>599.6</ele><time>2026-04-10T13:10:16.823Z</time></trkpt><trkpt lat="44.4357605" lon="5.1700972"><ele>601.1999999999999</ele><time>2026-04-10T13:10:18.828Z</time></trkpt><trkpt lat="44.4357481" lon="5.1699419"><ele>602.8</ele><time>2026-04-10T13:10:20.826Z</time></trkpt><trkpt lat="44.4357305" lon="5.1697556"><ele>604.4</ele><time>2026-04-10T13:10:22.827Z</time></trkpt><trkpt lat="44.4357228" lon="5.1696514"><ele>606.0</ele><time>2026-04-10T13:10:23.826Z</time></trkpt><trkpt lat="44.4357245" lon="5.1695552"><ele>606.6666666666666</ele><time>2026-04-10T13:10:24.827Z</time></trkpt><trkpt lat="44.4357218" lon="5.1694493"><ele>607.3333333333334</ele><time>2026-04-10T13:10:25.827Z</time></trkpt><trkpt lat="44.4357185" lon="5.1693369"><ele>608.0</ele><time>2026-04-10T13:10:26.826Z</time></trkpt><trkpt lat="44.4356887" lon="5.1692561"><ele>608.6666666666667</ele><time>2026-04-10T13:10:27.828Z</time></trkpt><trkpt lat="44.4356438" lon="5.1691941"><ele>609.3333333333334</ele><time>2026-04-10T13:10:28.829Z</time></trkpt><trkpt lat="44.435588" lon="5.1691418"><ele>610.0</ele><time>2026-04-10T13:10:29.83Z</time></trkpt><trkpt lat="44.4354663" lon="5.1690752"><ele>610.0</ele><time>2026-04-10T13:10:31.831Z</time></trkpt><trkpt lat="44.4353796" lon="5.1690907"><ele>610.0</ele><time>2026-04-10T13:10:32.83Z</time></trkpt><trkpt lat="44.4352907" lon="5.169139"><ele>610.0</ele><time>2026-04-10T13:10:33.826Z</time></trkpt><trkpt lat="44.4352126" lon="5.1691746"><ele>610.0</ele><time>2026-04-10T13:10:34.828Z</time></trkpt><trkpt lat="44.4351381" lon="5.1692015"><ele>610.0</ele><time>2026-04-10T13:10:35.824Z</time></trkpt><trkpt lat="44.4350687" lon="5.1692153"><ele>610.0</ele><time>2026-04-10T13:10:36.827Z</time></trkpt><trkpt lat="44.4349935" lon="5.1692143"><ele>610.0</ele><time>2026-04-10T13:10:37.835Z</time></trkpt><trkpt lat="44.434908" lon="5.1692103"><ele>610.0</ele><time>2026-04-10T13:10:38.825Z</time></trkpt><trkpt lat="44.4348271" lon="5.1691908"><ele>610.0</ele><time>2026-04-10T13:10:39.827Z</time></trkpt><trkpt lat="44.4347427" lon="5.1692045"><ele>610.0</ele><time>2026-04-10T13:10:40.834Z</time></trkpt><trkpt lat="44.4346573" lon="5.1692167"><ele>610.0</ele><time>2026-04-10T13:10:41.831Z</time></trkpt><trkpt lat="44.4345872" lon="5.1691964"><ele>610.0</ele><time>2026-04-10T13:10:43.829Z</time></trkpt><trkpt lat="44.4345142" lon="5.169175"><ele>606.3333333333334</ele><time>2026-04-10T13:10:57.748Z</time></trkpt><trkpt lat="44.4344546" lon="5.1691005"><ele>602.6666666666667</ele><time>2026-04-10T13:11:00.795Z</time></trkpt><trkpt lat="44.4344431" lon="5.1689839"><ele>599.0</ele><time>2026-04-10T13:11:03.824Z</time></trkpt><trkpt lat="44.4344502" lon="5.1688538"><ele>595.3333333333334</ele><time>2026-04-10T13:11:06.826Z</time></trkpt><trkpt lat="44.4344679" lon="5.1687377"><ele>591.6666666666666</ele><time>2026-04-10T13:11:08.829Z</time></trkpt><trkpt lat="44.434512" lon="5.1686241"><ele>588.0</ele><time>2026-04-10T13:11:10.813Z</time></trkpt><trkpt lat="44.4345824" lon="5.1685226"><ele>588.0</ele><time>2026-04-10T13:11:12.829Z</time></trkpt><trkpt lat="44.4346297" lon="5.16842"><ele>588.0</ele><time>2026-04-10T13:11:14.771Z</time></trkpt><trkpt lat="44.434671" lon="5.1683211"><ele>588.0</ele><time>2026-04-10T13:11:16.832Z</time></trkpt><trkpt lat="44.4347132" lon="5.1682205"><ele>588.0</ele><time>2026-04-10T13:11:18.825Z</time></trkpt><trkpt lat="44.4347708" lon="5.168132"><ele>588.0</ele><time>2026-04-10T13:11:20.825Z</time></trkpt><trkpt lat="44.4348422" lon="5.1680286"><ele>588.0</ele><time>2026-04-10T13:11:22.825Z</time></trkpt><trkpt lat="44.4349117" lon="5.1679123"><ele>594.0</ele><time>2026-04-10T13:11:24.823Z</time></trkpt><trkpt lat="44.4349968" lon="5.1678115"><ele>600.0</ele><time>2026-04-10T13:11:26.824Z</time></trkpt><trkpt lat="44.4350352" lon="5.1677396"><ele>606.0</ele><time>2026-04-10T13:11:27.824Z</time></trkpt><trkpt lat="44.43508" lon="5.167669"><ele>612.0</ele><time>2026-04-10T13:11:28.824Z</time></trkpt><trkpt lat="44.4351328" lon="5.1675845"><ele>618.0</ele><time>2026-04-10T13:11:29.825Z</time></trkpt><trkpt lat="44.4351897" lon="5.1675122"><ele>624.0</ele><time>2026-04-10T13:11:30.833Z</time></trkpt><trkpt lat="44.4352486" lon="5.1674411"><ele>624.0</ele><time>2026-04-10T13:11:31.825Z</time></trkpt><trkpt lat="44.4353052" lon="5.1673649"><ele>624.0</ele><time>2026-04-10T13:11:32.827Z</time></trkpt><trkpt lat="44.4353568" lon="5.1672906"><ele>624.0</ele><time>2026-04-10T13:11:33.824Z</time></trkpt><trkpt lat="44.4353929" lon="5.1671884"><ele>624.0</ele><time>2026-04-10T13:11:34.828Z</time></trkpt><trkpt lat="44.4354102" lon="5.1670874"><ele>624.0</ele><time>2026-04-10T13:11:35.826Z</time></trkpt><trkpt lat="44.4354209" lon="5.1669707"><ele>624.0</ele><time>2026-04-10T13:11:36.825Z</time></trkpt><trkpt lat="44.4354271" lon="5.1668603"><ele>623.5</ele><time>2026-04-10T13:11:37.829Z</time></trkpt><trkpt lat="44.4354271" lon="5.166759"><ele>623.0</ele><time>2026-04-10T13:11:38.829Z</time></trkpt><trkpt lat="44.4354141" lon="5.1666709"><ele>622.5</ele><time>2026-04-10T13:11:39.828Z</time></trkpt><trkpt lat="44.4354273" lon="5.1665286"><ele>622.0</ele><time>2026-04-10T13:11:41.822Z</time></trkpt><trkpt lat="44.4354907" lon="5.1664152"><ele>621.5</ele><time>2026-04-10T13:11:43.825Z</time></trkpt><trkpt lat="44.4355431" lon="5.1663654"><ele>621.0</ele><time>2026-04-10T13:11:44.825Z</time></trkpt><trkpt lat="44.4355954" lon="5.1663017"><ele>624.4285714285713</ele><time>2026-04-10T13:11:45.826Z</time></trkpt><trkpt lat="44.4356591" lon="5.1662274"><ele>627.8571428571429</ele><time>2026-04-10T13:11:46.824Z</time></trkpt><trkpt lat="44.4357149" lon="5.1661624"><ele>631.2857142857142</ele><time>2026-04-10T13:11:47.826Z</time></trkpt><trkpt lat="44.4357543" lon="5.1660916"><ele>634.7142857142857</ele><time>2026-04-10T13:11:48.826Z</time></trkpt><trkpt lat="44.4357987" lon="5.1660163"><ele>638.1428571428571</ele><time>2026-04-10T13:11:49.824Z</time></trkpt><trkpt lat="44.4358324" lon="5.1659334"><ele>641.5714285714286</ele><time>2026-04-10T13:11:50.83Z</time></trkpt><trkpt lat="44.4358788" lon="5.1658671"><ele>645.0</ele><time>2026-04-10T13:11:51.829Z</time></trkpt><trkpt lat="44.4359243" lon="5.165768"><ele>641.0</ele><time>2026-04-10T13:11:52.832Z</time></trkpt><trkpt lat="44.4359608" lon="5.1656789"><ele>637.0</ele><time>2026-04-10T13:11:53.825Z</time></trkpt><trkpt lat="44.4360063" lon="5.1655889"><ele>633.0</ele><time>2026-04-10T13:11:54.824Z</time></trkpt><trkpt lat="44.4360581" lon="5.1654935"><ele>629.0</ele><time>2026-04-10T13:11:55.827Z</time></trkpt><trkpt lat="44.4361061" lon="5.1654056"><ele>625.0</ele><time>2026-04-10T13:11:56.825Z</time></trkpt><trkpt lat="44.4361482" lon="5.165318"><ele>621.0</ele><time>2026-04-10T13:11:57.823Z</time></trkpt><trkpt lat="44.4361885" lon="5.1652321"><ele>621.0</ele><time>2026-04-10T13:11:58.825Z</time></trkpt><trkpt lat="44.4362474" lon="5.165153"><ele>621.0</ele><time>2026-04-10T13:11:59.824Z</time></trkpt><trkpt lat="44.436293" lon="5.1650897"><ele>621.0</ele><time>2026-04-10T13:12:00.824Z</time></trkpt><trkpt lat="44.4363694" lon="5.1650023"><ele>621.0</ele><time>2026-04-10T13:12:02.824Z</time></trkpt><trkpt lat="44.4364528" lon="5.164987"><ele>621.0</ele><time>2026-04-10T13:12:03.824Z</time></trkpt><trkpt lat="44.4365304" lon="5.1649473"><ele>621.0</ele><time>2026-04-10T13:12:04.826Z</time></trkpt><trkpt lat="44.4365928" lon="5.1649041"><ele>624.6666666666666</ele><time>2026-04-10T13:12:05.822Z</time></trkpt><trkpt lat="44.4366591" lon="5.1648752"><ele>628.3333333333334</ele><time>2026-04-10T13:12:06.822Z</time></trkpt><trkpt lat="44.4367311" lon="5.1648136"><ele>632.0</ele><time>2026-04-10T13:12:07.826Z</time></trkpt><trkpt lat="44.436811" lon="5.1647482"><ele>635.6666666666667</ele><time>2026-04-10T13:12:08.824Z</time></trkpt><trkpt lat="44.4368756" lon="5.1646772"><ele>639.3333333333334</ele><time>2026-04-10T13:12:09.828Z</time></trkpt><trkpt lat="44.4369347" lon="5.1646137"><ele>643.0</ele><time>2026-04-10T13:12:10.824Z</time></trkpt><trkpt lat="44.4370031" lon="5.1645471"><ele>643.0</ele><time>2026-04-10T13:12:11.826Z</time></trkpt><trkpt lat="44.4370695" lon="5.1644919"><ele>643.0</ele><time>2026-04-10T13:12:12.823Z</time></trkpt><trkpt lat="44.4371229" lon="5.1644139"><ele>643.0</ele><time>2026-04-10T13:12:13.825Z</time></trkpt><trkpt lat="44.437181" lon="5.1643475"><ele>643.0</ele><time>2026-04-10T13:12:14.826Z</time></trkpt><trkpt lat="44.4372318" lon="5.1642821"><ele>643.0</ele><time>2026-04-10T13:12:15.824Z</time></trkpt><trkpt lat="44.4372929" lon="5.1642237"><ele>643.0</ele><time>2026-04-10T13:12:16.827Z</time></trkpt><trkpt lat="44.4373626" lon="5.1641491"><ele>646.3333333333334</ele><time>2026-04-10T13:12:17.823Z</time></trkpt><trkpt lat="44.4374481" lon="5.1640936"><ele>649.6666666666667</ele><time>2026-04-10T13:12:18.822Z</time></trkpt><trkpt lat="44.4375005" lon="5.1640163"><ele>653.0</ele><time>2026-04-10T13:12:19.824Z</time></trkpt><trkpt lat="44.4375648" lon="5.1639526"><ele>656.3333333333334</ele><time>2026-04-10T13:12:20.827Z</time></trkpt><trkpt lat="44.4376192" lon="5.1638978"><ele>659.6666666666666</ele><time>2026-04-10T13:12:21.829Z</time></trkpt><trkpt lat="44.4377001" lon="5.1637547"><ele>663.0</ele><time>2026-04-10T13:12:23.823Z</time></trkpt><trkpt lat="44.4377304" lon="5.1636655"><ele>663.0</ele><time>2026-04-10T13:12:24.823Z</time></trkpt><trkpt lat="44.437769" lon="5.1635829"><ele>663.0</ele><time>2026-04-10T13:12:25.826Z</time></trkpt><trkpt lat="44.4378111" lon="5.1635142"><ele>663.0</ele><time>2026-04-10T13:12:26.83Z</time></trkpt><trkpt lat="44.437899" lon="5.1634235"><ele>663.0</ele><time>2026-04-10T13:12:28.824Z</time></trkpt><trkpt lat="44.4380021" lon="5.1633493"><ele>663.0</ele><time>2026-04-10T13:12:30.829Z</time></trkpt><trkpt lat="44.4380443" lon="5.1632833"><ele>663.0</ele><time>2026-04-10T13:12:31.828Z</time></trkpt><trkpt lat="44.4381312" lon="5.163181"><ele>666.8</ele><time>2026-04-10T13:12:33.827Z</time></trkpt><trkpt lat="44.4382308" lon="5.1630998"><ele>670.5999999999999</ele><time>2026-04-10T13:12:35.827Z</time></trkpt><trkpt lat="44.4382839" lon="5.1630339"><ele>674.4000000000001</ele><time>2026-04-10T13:12:36.826Z</time></trkpt><trkpt lat="44.4383366" lon="5.1629773"><ele>678.2</ele><time>2026-04-10T13:12:37.832Z</time></trkpt><trkpt lat="44.4384244" lon="5.1629208"><ele>682.0</ele><time>2026-04-10T13:12:39.826Z</time></trkpt><trkpt lat="44.4385244" lon="5.1628347"><ele>682.0</ele><time>2026-04-10T13:12:41.824Z</time></trkpt><trkpt lat="44.4386338" lon="5.1627292"><ele>682.0</ele><time>2026-04-10T13:12:43.823Z</time></trkpt><trkpt lat="44.4386825" lon="5.1626691"><ele>682.0</ele><time>2026-04-10T13:12:44.825Z</time></trkpt><trkpt lat="44.4387775" lon="5.1625901"><ele>682.0</ele><time>2026-04-10T13:12:46.822Z</time></trkpt><trkpt lat="44.4388848" lon="5.1625405"><ele>682.0</ele><time>2026-04-10T13:12:48.828Z</time></trkpt><trkpt lat="44.4389586" lon="5.162509"><ele>685.0</ele><time>2026-04-10T13:12:50.825Z</time></trkpt><trkpt lat="44.4390288" lon="5.1624815"><ele>688.0</ele><time>2026-04-10T13:12:52.825Z</time></trkpt><trkpt lat="44.4391343" lon="5.1624659"><ele>691.0</ele><time>2026-04-10T13:12:54.826Z</time></trkpt><trkpt lat="44.4392422" lon="5.1624076"><ele>694.0</ele><time>2026-04-10T13:12:56.827Z</time></trkpt><trkpt lat="44.439312" lon="5.1623678"><ele>697.0</ele><time>2026-04-10T13:12:57.827Z</time></trkpt><trkpt lat="44.4393846" lon="5.1623228"><ele>700.0</ele><time>2026-04-10T13:12:58.826Z</time></trkpt><trkpt lat="44.43946" lon="5.1622766"><ele>700.0</ele><time>2026-04-10T13:12:59.828Z</time></trkpt><trkpt lat="44.439534" lon="5.1622427"><ele>700.0</ele><time>2026-04-10T13:13:00.829Z</time></trkpt><trkpt lat="44.4395962" lon="5.1621979"><ele>700.0</ele><time>2026-04-10T13:13:01.826Z</time></trkpt><trkpt lat="44.4396655" lon="5.1621587"><ele>700.0</ele><time>2026-04-10T13:13:02.825Z</time></trkpt><trkpt lat="44.4397389" lon="5.1621354"><ele>700.0</ele><time>2026-04-10T13:13:03.828Z</time></trkpt><trkpt lat="44.4398525" lon="5.1621154"><ele>700.0</ele><time>2026-04-10T13:13:05.827Z</time></trkpt><trkpt lat="44.4399414" lon="5.1620766"><ele>706.8</ele><time>2026-04-10T13:13:07.83Z</time></trkpt><trkpt lat="44.4400567" lon="5.1620507"><ele>713.6</ele><time>2026-04-10T13:13:09.825Z</time></trkpt><trkpt lat="44.4401213" lon="5.162037"><ele>720.4000000000001</ele><time>2026-04-10T13:13:10.825Z</time></trkpt><trkpt lat="44.4402273" lon="5.1620152"><ele>727.2</ele><time>2026-04-10T13:13:12.825Z</time></trkpt><trkpt lat="44.440298" lon="5.1620029"><ele>734.0</ele><time>2026-04-10T13:13:13.827Z</time></trkpt><trkpt lat="44.4404219" lon="5.1619794"><ele>734.4000000000001</ele><time>2026-04-10T13:13:15.826Z</time></trkpt><trkpt lat="44.440524" lon="5.1619155"><ele>734.8</ele><time>2026-04-10T13:13:17.826Z</time></trkpt><trkpt lat="44.4406072" lon="5.1618329"><ele>735.2</ele><time>2026-04-10T13:13:19.829Z</time></trkpt><trkpt lat="44.440679" lon="5.1617415"><ele>735.5999999999999</ele><time>2026-04-10T13:13:21.825Z</time></trkpt><trkpt lat="44.4407349" lon="5.1616625"><ele>736.0</ele><time>2026-04-10T13:15:25.834Z</time></trkpt><trkpt lat="44.4407998" lon="5.1615839"><ele>739.3333333333334</ele><time>2026-04-10T13:15:26.826Z</time></trkpt><trkpt lat="44.4408876" lon="5.1615312"><ele>742.6666666666667</ele><time>2026-04-10T13:15:28.831Z</time></trkpt><trkpt lat="44.4409479" lon="5.1614831"><ele>746.0</ele><time>2026-04-10T13:15:29.83Z</time></trkpt><trkpt lat="44.4410177" lon="5.1614319"><ele>749.3333333333334</ele><time>2026-04-10T13:15:30.828Z</time></trkpt><trkpt lat="44.441086" lon="5.1613679"><ele>752.6666666666666</ele><time>2026-04-10T13:15:31.826Z</time></trkpt><trkpt lat="44.4411501" lon="5.1613052"><ele>756.0</ele><time>2026-04-10T13:15:32.833Z</time></trkpt><trkpt lat="44.4412079" lon="5.1612419"><ele>756.0</ele><time>2026-04-10T13:15:33.824Z</time></trkpt><trkpt lat="44.4412562" lon="5.1611758"><ele>756.0</ele><time>2026-04-10T13:15:34.829Z</time></trkpt><trkpt lat="44.4412958" lon="5.161098"><ele>756.0</ele><time>2026-04-10T13:15:35.829Z</time></trkpt><trkpt lat="44.4413361" lon="5.1610059"><ele>756.0</ele><time>2026-04-10T13:15:36.824Z</time></trkpt><trkpt lat="44.4414572" lon="5.1608832"><ele>756.0</ele><time>2026-04-10T13:15:38.823Z</time></trkpt><trkpt lat="44.4415196" lon="5.1608254"><ele>756.0</ele><time>2026-04-10T13:15:39.827Z</time></trkpt><trkpt lat="44.4415798" lon="5.1607675"><ele>756.8571428571429</ele><time>2026-04-10T13:15:40.828Z</time></trkpt><trkpt lat="44.4416386" lon="5.160725"><ele>757.7142857142858</ele><time>2026-04-10T13:15:41.83Z</time></trkpt><trkpt lat="44.4416884" lon="5.1606653"><ele>758.5714285714286</ele><time>2026-04-10T13:15:42.824Z</time></trkpt><trkpt lat="44.4417502" lon="5.1606173"><ele>759.4285714285714</ele><time>2026-04-10T13:15:43.826Z</time></trkpt><trkpt lat="44.4418024" lon="5.1605613"><ele>760.2857142857143</ele><time>2026-04-10T13:15:44.826Z</time></trkpt><trkpt lat="44.4418789" lon="5.1604862"><ele>761.1428571428571</ele><time>2026-04-10T13:15:46.829Z</time></trkpt><trkpt lat="44.4419541" lon="5.1604861"><ele>762.0</ele><time>2026-04-10T13:15:47.832Z</time></trkpt><trkpt lat="44.4420711" lon="5.1604749"><ele>761.1666666666666</ele><time>2026-04-10T13:15:49.826Z</time></trkpt><trkpt lat="44.4421936" lon="5.1604127"><ele>760.3333333333334</ele><time>2026-04-10T13:15:51.828Z</time></trkpt><trkpt lat="44.4422457" lon="5.1603519"><ele>759.5</ele><time>2026-04-10T13:15:52.827Z</time></trkpt><trkpt lat="44.4423136" lon="5.1603219"><ele>758.6666666666667</ele><time>2026-04-10T13:15:53.827Z</time></trkpt><trkpt lat="44.4423861" lon="5.160306"><ele>757.8333333333334</ele><time>2026-04-10T13:15:54.829Z</time></trkpt><trkpt lat="44.4424587" lon="5.1602947"><ele>757.0</ele><time>2026-04-10T13:15:55.83Z</time></trkpt><trkpt lat="44.4425332" lon="5.1602751"><ele>757.0</ele><time>2026-04-10T13:15:56.833Z</time></trkpt><trkpt lat="44.442602" lon="5.1602516"><ele>757.0</ele><time>2026-04-10T13:15:57.838Z</time></trkpt><trkpt lat="44.442718" lon="5.160243"><ele>757.0</ele><time>2026-04-10T13:15:59.829Z</time></trkpt><trkpt lat="44.4427916" lon="5.1602011"><ele>757.0</ele><time>2026-04-10T13:16:00.826Z</time></trkpt><trkpt lat="44.4428394" lon="5.1601436"><ele>757.0</ele><time>2026-04-10T13:16:01.83Z</time></trkpt><trkpt lat="44.4429379" lon="5.1601048"><ele>757.0</ele><time>2026-04-10T13:16:03.825Z</time></trkpt><trkpt lat="44.4430541" lon="5.1600486"><ele>755.2</ele><time>2026-04-10T13:16:05.831Z</time></trkpt><trkpt lat="44.4431441" lon="5.159904"><ele>753.4000000000001</ele><time>2026-04-10T13:16:07.834Z</time></trkpt><trkpt lat="44.4431741" lon="5.1597951"><ele>751.5999999999999</ele><time>2026-04-10T13:16:08.831Z</time></trkpt><trkpt lat="44.44321" lon="5.1596852"><ele>749.8</ele><time>2026-04-10T13:16:09.824Z</time></trkpt><trkpt lat="44.4432515" lon="5.1595802"><ele>748.0</ele><time>2026-04-10T13:16:10.824Z</time></trkpt><trkpt lat="44.4433079" lon="5.1595077"><ele>752.2</ele><time>2026-04-10T13:16:11.827Z</time></trkpt><trkpt lat="44.443381" lon="5.1594412"><ele>756.4</ele><time>2026-04-10T13:16:12.827Z</time></trkpt><trkpt lat="44.4434686" lon="5.1593897"><ele>760.6</ele><time>2026-04-10T13:16:13.832Z</time></trkpt><trkpt lat="44.4435674" lon="5.1593516"><ele>764.8000000000001</ele><time>2026-04-10T13:16:14.832Z</time></trkpt><trkpt lat="44.443678" lon="5.1593418"><ele>769.0</ele><time>2026-04-10T13:16:15.83Z</time></trkpt><trkpt lat="44.4437832" lon="5.1593152"><ele>767.0</ele><time>2026-04-10T13:16:16.826Z</time></trkpt><trkpt lat="44.4438842" lon="5.1593043"><ele>765.0</ele><time>2026-04-10T13:16:17.828Z</time></trkpt><trkpt lat="44.4439757" lon="5.1592832"><ele>763.0</ele><time>2026-04-10T13:16:18.828Z</time></trkpt><trkpt lat="44.4440608" lon="5.1592629"><ele>761.0</ele><time>2026-04-10T13:16:19.83Z</time></trkpt><trkpt lat="44.4441505" lon="5.1592379"><ele>759.0</ele><time>2026-04-10T13:16:20.828Z</time></trkpt><trkpt lat="44.444232" lon="5.1591932"><ele>759.0</ele><time>2026-04-10T13:16:21.825Z</time></trkpt><trkpt lat="44.4443138" lon="5.1591463"><ele>759.0</ele><time>2026-04-10T13:16:22.832Z</time></trkpt><trkpt lat="44.4443937" lon="5.1591143"><ele>759.0</ele><time>2026-04-10T13:16:23.827Z</time></trkpt><trkpt lat="44.4444768" lon="5.159079"><ele>759.0</ele><time>2026-04-10T13:16:24.827Z</time></trkpt><trkpt lat="44.4445517" lon="5.159041"><ele>759.0</ele><time>2026-04-10T13:16:25.827Z</time></trkpt><trkpt lat="44.4446219" lon="5.1590008"><ele>759.0</ele><time>2026-04-10T13:16:26.832Z</time></trkpt><trkpt lat="44.4446906" lon="5.1589854"><ele>760.6</ele><time>2026-04-10T13:16:27.83Z</time></trkpt><trkpt lat="44.4448088" lon="5.1590603"><ele>762.2</ele><time>2026-04-10T13:16:29.825Z</time></trkpt><trkpt lat="44.4448725" lon="5.1591282"><ele>763.8000000000001</ele><time>2026-04-10T13:16:30.827Z</time></trkpt><trkpt lat="44.4449253" lon="5.1592162"><ele>765.4000000000001</ele><time>2026-04-10T13:16:31.824Z</time></trkpt><trkpt lat="44.4449773" lon="5.1593081"><ele>767.0</ele><time>2026-04-10T13:16:32.826Z</time></trkpt><trkpt lat="44.4450251" lon="5.1593929"><ele>767.0</ele><time>2026-04-10T13:16:33.828Z</time></trkpt><trkpt lat="44.4450751" lon="5.1594687"><ele>767.0</ele><time>2026-04-10T13:16:34.83Z</time></trkpt><trkpt lat="44.4451178" lon="5.1595564"><ele>767.0</ele><time>2026-04-10T13:16:35.828Z</time></trkpt><trkpt lat="44.445153" lon="5.1596432"><ele>767.0</ele><time>2026-04-10T13:16:36.826Z</time></trkpt><trkpt lat="44.445188" lon="5.1597508"><ele>767.0</ele><time>2026-04-10T13:16:37.828Z</time></trkpt><trkpt lat="44.4452214" lon="5.1598609"><ele>767.0</ele><time>2026-04-10T13:16:38.825Z</time></trkpt><trkpt lat="44.4452571" lon="5.1599722"><ele>768.8333333333333</ele><time>2026-04-10T13:16:39.829Z</time></trkpt><trkpt lat="44.4452983" lon="5.1600784"><ele>770.6666666666666</ele><time>2026-04-10T13:16:40.835Z</time></trkpt><trkpt lat="44.4453412" lon="5.1601802"><ele>772.5</ele><time>2026-04-10T13:16:41.833Z</time></trkpt><trkpt lat="44.4453825" lon="5.1602656"><ele>774.3333333333333</ele><time>2026-04-10T13:16:42.827Z</time></trkpt><trkpt lat="44.4454322" lon="5.1603394"><ele>776.1666666666666</ele><time>2026-04-10T13:16:43.826Z</time></trkpt><trkpt lat="44.4454856" lon="5.1604032"><ele>778.0</ele><time>2026-04-10T13:16:44.828Z</time></trkpt><trkpt lat="44.4455488" lon="5.1604588"><ele>778.0</ele><time>2026-04-10T13:16:45.828Z</time></trkpt><trkpt lat="44.4456145" lon="5.1605027"><ele>778.0</ele><time>2026-04-10T13:16:46.827Z</time></trkpt><trkpt lat="44.4456843" lon="5.1605267"><ele>778.0</ele><time>2026-04-10T13:16:47.828Z</time></trkpt><trkpt lat="44.4457617" lon="5.1605266"><ele>778.0</ele><time>2026-04-10T13:16:48.831Z</time></trkpt><trkpt lat="44.445833" lon="5.1605153"><ele>778.0</ele><time>2026-04-10T13:16:49.828Z</time></trkpt><trkpt lat="44.4458968" lon="5.1604999"><ele>778.0</ele><time>2026-04-10T13:16:50.834Z</time></trkpt><trkpt lat="44.4459659" lon="5.1604904"><ele>778.0</ele><time>2026-04-10T13:16:51.825Z</time></trkpt><trkpt lat="44.4460357" lon="5.1604801"><ele>777.9999999999999</ele><time>2026-04-10T13:16:52.826Z</time></trkpt><trkpt lat="44.4461087" lon="5.1604736"><ele>778.0</ele><time>2026-04-10T13:16:53.825Z</time></trkpt><trkpt lat="44.4461837" lon="5.1604781"><ele>778.0</ele><time>2026-04-10T13:16:54.825Z</time></trkpt><trkpt lat="44.4462611" lon="5.1604848"><ele>778.0</ele><time>2026-04-10T13:16:55.826Z</time></trkpt><trkpt lat="44.4463406" lon="5.1604797"><ele>777.9999999999999</ele><time>2026-04-10T13:16:56.827Z</time></trkpt><trkpt lat="44.446421" lon="5.1604794"><ele>778.0</ele><time>2026-04-10T13:16:57.828Z</time></trkpt><trkpt lat="44.4464994" lon="5.1604758"><ele>778.4285714285714</ele><time>2026-04-10T13:16:58.826Z</time></trkpt><trkpt lat="44.4465887" lon="5.1604845"><ele>778.8571428571428</ele><time>2026-04-10T13:16:59.825Z</time></trkpt><trkpt lat="44.4466695" lon="5.1605048"><ele>779.2857142857142</ele><time>2026-04-10T13:17:00.831Z</time></trkpt><trkpt lat="44.4467316" lon="5.1605198"><ele>779.7142857142858</ele><time>2026-04-10T13:17:01.832Z</time></trkpt><trkpt lat="44.4468062" lon="5.1605485"><ele>780.1428571428571</ele><time>2026-04-10T13:17:02.831Z</time></trkpt><trkpt lat="44.4468734" lon="5.1605801"><ele>780.5714285714286</ele><time>2026-04-10T13:17:03.828Z</time></trkpt><trkpt lat="44.4469364" lon="5.1606076"><ele>781.0</ele><time>2026-04-10T13:17:04.828Z</time></trkpt><trkpt lat="44.4470006" lon="5.1606125"><ele>781.0</ele><time>2026-04-10T13:17:05.828Z</time></trkpt><trkpt lat="44.4471032" lon="5.1606104"><ele>781.0</ele><time>2026-04-10T13:17:07.825Z</time></trkpt><trkpt lat="44.4472033" lon="5.1605657"><ele>781.0</ele><time>2026-04-10T13:17:09.833Z</time></trkpt><trkpt lat="44.447296" lon="5.1604778"><ele>781.0</ele><time>2026-04-10T13:17:11.832Z</time></trkpt><trkpt lat="44.4473469" lon="5.1604184"><ele>781.0</ele><time>2026-04-10T13:17:12.831Z</time></trkpt><trkpt lat="44.4474629" lon="5.1603051"><ele>778.5999999999999</ele><time>2026-04-10T13:17:14.831Z</time></trkpt><trkpt lat="44.4475455" lon="5.1602138"><ele>776.2</ele><time>2026-04-10T13:17:16.825Z</time></trkpt><trkpt lat="44.4475834" lon="5.1600569"><ele>773.8</ele><time>2026-04-10T13:17:19.831Z</time></trkpt><trkpt lat="44.4476068" lon="5.1599257"><ele>771.4000000000001</ele><time>2026-04-10T13:17:21.834Z</time></trkpt><trkpt lat="44.4476712" lon="5.1598616"><ele>769.0</ele><time>2026-04-10T13:17:23.826Z</time></trkpt><trkpt lat="44.4477694" lon="5.1598564"><ele>768.8333333333333</ele><time>2026-04-10T13:17:25.831Z</time></trkpt><trkpt lat="44.4478393" lon="5.1598383"><ele>768.6666666666666</ele><time>2026-04-10T13:17:26.829Z</time></trkpt><trkpt lat="44.4479844" lon="5.1597682"><ele>768.5</ele><time>2026-04-10T13:17:28.828Z</time></trkpt><trkpt lat="44.4480575" lon="5.1597188"><ele>768.3333333333333</ele><time>2026-04-10T13:17:29.826Z</time></trkpt><trkpt lat="44.4481217" lon="5.159655"><ele>768.1666666666666</ele><time>2026-04-10T13:17:30.827Z</time></trkpt><trkpt lat="44.4481805" lon="5.1596224"><ele>768.0</ele><time>2026-04-10T13:17:31.826Z</time></trkpt><trkpt lat="44.4482435" lon="5.1595894"><ele>764.5999999999999</ele><time>2026-04-10T13:17:32.827Z</time></trkpt><trkpt lat="44.4483439" lon="5.1595983"><ele>761.1999999999999</ele><time>2026-04-10T13:17:34.834Z</time></trkpt><trkpt lat="44.4484239" lon="5.1596435"><ele>757.8</ele><time>2026-04-10T13:17:36.826Z</time></trkpt><trkpt lat="44.4485229" lon="5.1596934"><ele>754.4</ele><time>2026-04-10T13:17:38.825Z</time></trkpt><trkpt lat="44.4486265" lon="5.1597452"><ele>751.0</ele><time>2026-04-10T13:17:40.827Z</time></trkpt><trkpt lat="44.4487085" lon="5.1598251"><ele>751.8333333333334</ele><time>2026-04-10T13:17:42.827Z</time></trkpt><trkpt lat="44.4487605" lon="5.1598788"><ele>752.6666666666667</ele><time>2026-04-10T13:17:43.827Z</time></trkpt><trkpt lat="44.4488382" lon="5.1599269"><ele>753.5</ele><time>2026-04-10T13:17:44.826Z</time></trkpt><trkpt lat="44.4488981" lon="5.1599765"><ele>754.3333333333334</ele><time>2026-04-10T13:17:45.828Z</time></trkpt><trkpt lat="44.4489615" lon="5.1600169"><ele>755.1666666666666</ele><time>2026-04-10T13:17:46.826Z</time></trkpt><trkpt lat="44.449066" lon="5.1600667"><ele>756.0</ele><time>2026-04-10T13:17:48.826Z</time></trkpt><trkpt lat="44.4491293" lon="5.1600587"><ele>752.8</ele><time>2026-04-10T13:17:50.831Z</time></trkpt><trkpt lat="44.4491636" lon="5.1599718"><ele>749.5999999999999</ele><time>2026-04-10T13:18:00.824Z</time></trkpt><trkpt lat="44.4492236" lon="5.1598324"><ele>746.4</ele><time>2026-04-10T13:18:03.831Z</time></trkpt><trkpt lat="44.449281" lon="5.159696"><ele>743.2</ele><time>2026-04-10T13:18:05.828Z</time></trkpt><trkpt lat="44.4493552" lon="5.1595489"><ele>740.0</ele><time>2026-04-10T13:18:07.825Z</time></trkpt><trkpt lat="44.4494118" lon="5.1595031"><ele>740.0</ele><time>2026-04-10T13:18:08.828Z</time></trkpt><trkpt lat="44.4494979" lon="5.1594135"><ele>740.0</ele><time>2026-04-10T13:18:10.827Z</time></trkpt><trkpt lat="44.4495855" lon="5.159304"><ele>740.0</ele><time>2026-04-10T13:18:12.824Z</time></trkpt><trkpt lat="44.4496541" lon="5.1592323"><ele>740.0</ele><time>2026-04-10T13:18:13.826Z</time></trkpt><trkpt lat="44.4497084" lon="5.1591609"><ele>740.0</ele><time>2026-04-10T13:18:14.826Z</time></trkpt><trkpt lat="44.4497989" lon="5.1590271"><ele>731.0</ele><time>2026-04-10T13:18:16.828Z</time></trkpt><trkpt lat="44.4499006" lon="5.1589446"><ele>722.0</ele><time>2026-04-10T13:18:18.825Z</time></trkpt><trkpt lat="44.4499985" lon="5.1588999"><ele>713.0</ele><time>2026-04-10T13:18:20.827Z</time></trkpt><trkpt lat="44.4500752" lon="5.1589215"><ele>704.0</ele><time>2026-04-10T13:18:22.83Z</time></trkpt><trkpt lat="44.4501345" lon="5.1589587"><ele>695.0</ele><time>2026-04-10T13:18:23.827Z</time></trkpt><trkpt lat="44.4502628" lon="5.1589593"><ele>695.0</ele><time>2026-04-10T13:18:25.834Z</time></trkpt><trkpt lat="44.4504026" lon="5.1588612"><ele>695.0</ele><time>2026-04-10T13:18:27.83Z</time></trkpt><trkpt lat="44.4504617" lon="5.1587676"><ele>695.0</ele><time>2026-04-10T13:18:28.829Z</time></trkpt><trkpt lat="44.4505439" lon="5.1587097"><ele>695.0</ele><time>2026-04-10T13:18:29.824Z</time></trkpt><trkpt lat="44.4506122" lon="5.1586307"><ele>695.0</ele><time>2026-04-10T13:18:30.822Z</time></trkpt><trkpt lat="44.4506835" lon="5.1585474"><ele>697.2</ele><time>2026-04-10T13:18:31.827Z</time></trkpt><trkpt lat="44.4507576" lon="5.1584682"><ele>699.4</ele><time>2026-04-10T13:18:32.825Z</time></trkpt><trkpt lat="44.450844" lon="5.1584143"><ele>701.5999999999999</ele><time>2026-04-10T13:18:33.824Z</time></trkpt><trkpt lat="44.4508905" lon="5.1582994"><ele>703.8</ele><time>2026-04-10T13:18:34.828Z</time></trkpt><trkpt lat="44.4509357" lon="5.1581915"><ele>706.0</ele><time>2026-04-10T13:18:35.824Z</time></trkpt><trkpt lat="44.4509817" lon="5.1580878"><ele>701.5999999999999</ele><time>2026-04-10T13:18:36.825Z</time></trkpt><trkpt lat="44.4510247" lon="5.1579884"><ele>697.2</ele><time>2026-04-10T13:18:37.832Z</time></trkpt><trkpt lat="44.4510865" lon="5.1579117"><ele>692.8</ele><time>2026-04-10T13:18:38.828Z</time></trkpt><trkpt lat="44.4511456" lon="5.1578483"><ele>688.4000000000001</ele><time>2026-04-10T13:18:39.829Z</time></trkpt><trkpt lat="44.4512724" lon="5.1578585"><ele>684.0</ele><time>2026-04-10T13:18:40.825Z</time></trkpt><trkpt lat="44.4513924" lon="5.1578337"><ele>684.0</ele><time>2026-04-10T13:18:41.822Z</time></trkpt><trkpt lat="44.4515024" lon="5.1578105"><ele>684.0</ele><time>2026-04-10T13:18:42.824Z</time></trkpt><trkpt lat="44.4516073" lon="5.1578228"><ele>684.0</ele><time>2026-04-10T13:18:43.823Z</time></trkpt><trkpt lat="44.4517016" lon="5.1578126"><ele>684.0</ele><time>2026-04-10T13:18:44.829Z</time></trkpt><trkpt lat="44.451787" lon="5.1577946"><ele>684.0</ele><time>2026-04-10T13:18:45.831Z</time></trkpt><trkpt lat="44.4518951" lon="5.1577618"><ele>684.0</ele><time>2026-04-10T13:18:47.824Z</time></trkpt><trkpt lat="44.4519965" lon="5.1577435"><ele>684.0</ele><time>2026-04-10T13:18:49.827Z</time></trkpt><trkpt lat="44.4521049" lon="5.1576999"><ele>684.0</ele><time>2026-04-10T13:18:51.824Z</time></trkpt><trkpt lat="44.452185" lon="5.1576676"><ele>684.0</ele><time>2026-04-10T13:18:52.824Z</time></trkpt><trkpt lat="44.4522774" lon="5.1576245"><ele>684.0</ele><time>2026-04-10T13:18:53.824Z</time></trkpt><trkpt lat="44.4523673" lon="5.1575771"><ele>684.0</ele><time>2026-04-10T13:18:54.827Z</time></trkpt><trkpt lat="44.4524357" lon="5.1575421"><ele>684.0</ele><time>2026-04-10T13:18:55.823Z</time></trkpt><trkpt lat="44.4525081" lon="5.1574943"><ele>684.0</ele><time>2026-04-10T13:18:56.826Z</time></trkpt><trkpt lat="44.4525847" lon="5.1574437"><ele>684.0</ele><time>2026-04-10T13:18:57.827Z</time></trkpt><trkpt lat="44.452679" lon="5.1574124"><ele>684.0</ele><time>2026-04-10T13:18:58.825Z</time></trkpt><trkpt lat="44.4527438" lon="5.1573313"><ele>684.0</ele><time>2026-04-10T13:18:59.825Z</time></trkpt><trkpt lat="44.4528342" lon="5.1572781"><ele>678.8333333333334</ele><time>2026-04-10T13:19:00.826Z</time></trkpt><trkpt lat="44.4529099" lon="5.1572356"><ele>673.6666666666666</ele><time>2026-04-10T13:19:01.824Z</time></trkpt><trkpt lat="44.4529707" lon="5.1572031"><ele>668.5</ele><time>2026-04-10T13:19:02.827Z</time></trkpt><trkpt lat="44.453068" lon="5.157123"><ele>663.3333333333333</ele><time>2026-04-10T13:19:04.83Z</time></trkpt><trkpt lat="44.4531628" lon="5.1570533"><ele>658.1666666666666</ele><time>2026-04-10T13:19:06.827Z</time></trkpt><trkpt lat="44.4532249" lon="5.1570093"><ele>653.0</ele><time>2026-04-10T13:19:07.822Z</time></trkpt><trkpt lat="44.4533093" lon="5.1568898"><ele>653.0</ele><time>2026-04-10T13:19:09.825Z</time></trkpt><trkpt lat="44.4533588" lon="5.1567871"><ele>653.0</ele><time>2026-04-10T13:19:11.825Z</time></trkpt><trkpt lat="44.4534248" lon="5.1566754"><ele>653.0</ele><time>2026-04-10T13:19:13.823Z</time></trkpt><trkpt lat="44.4534736" lon="5.1565413"><ele>653.0</ele><time>2026-04-10T13:19:15.83Z</time></trkpt><trkpt lat="44.4534687" lon="5.1564242"><ele>653.0</ele><time>2026-04-10T13:19:17.827Z</time></trkpt><trkpt lat="44.4534346" lon="5.1563172"><ele>650.5</ele><time>2026-04-10T13:19:19.831Z</time></trkpt><trkpt lat="44.4534119" lon="5.1562135"><ele>648.0</ele><time>2026-04-10T13:19:21.83Z</time></trkpt><trkpt lat="44.4534401" lon="5.1561321"><ele>645.5</ele><time>2026-04-10T13:19:22.826Z</time></trkpt><trkpt lat="44.4534797" lon="5.1560601"><ele>643.0</ele><time>2026-04-10T13:19:23.829Z</time></trkpt><trkpt lat="44.4535944" lon="5.1559652"><ele>640.5</ele><time>2026-04-10T13:19:25.828Z</time></trkpt><trkpt lat="44.4536859" lon="5.1558927"><ele>638.0</ele><time>2026-04-10T13:19:27.827Z</time></trkpt><trkpt lat="44.4537389" lon="5.1558363"><ele>638.0</ele><time>2026-04-10T13:19:29.825Z</time></trkpt><trkpt lat="44.4536772" lon="5.1557436"><ele>638.0</ele><time>2026-04-10T13:19:32.769Z</time></trkpt><trkpt lat="44.4535834" lon="5.1557069"><ele>638.0</ele><time>2026-04-10T13:19:34.823Z</time></trkpt><trkpt lat="44.4535181" lon="5.155687"><ele>638.0</ele><time>2026-04-10T13:19:35.824Z</time></trkpt><trkpt lat="44.4534078" lon="5.1556364"><ele>638.0</ele><time>2026-04-10T13:19:37.823Z</time></trkpt><trkpt lat="44.4533245" lon="5.1555338"><ele>635.8333333333333</ele><time>2026-04-10T13:19:39.822Z</time></trkpt><trkpt lat="44.453268" lon="5.155412"><ele>633.6666666666666</ele><time>2026-04-10T13:19:41.822Z</time></trkpt><trkpt lat="44.453256" lon="5.155321"><ele>631.5</ele><time>2026-04-10T13:19:43.83Z</time></trkpt><trkpt lat="44.453329" lon="5.1552351"><ele>629.3333333333334</ele><time>2026-04-10T13:19:45.826Z</time></trkpt><trkpt lat="44.453336" lon="5.1551176"><ele>627.1666666666667</ele><time>2026-04-10T13:19:48.824Z</time></trkpt><trkpt lat="44.4532916" lon="5.1549974"><ele>625.0</ele><time>2026-04-10T13:19:50.825Z</time></trkpt><trkpt lat="44.453251" lon="5.1549258"><ele>623.5</ele><time>2026-04-10T13:19:51.828Z</time></trkpt><trkpt lat="44.4532072" lon="5.1548503"><ele>622.0</ele><time>2026-04-10T13:19:52.826Z</time></trkpt><trkpt lat="44.4532197" lon="5.1547478"><ele>620.5</ele><time>2026-04-10T13:19:53.829Z</time></trkpt><trkpt lat="44.4532108" lon="5.1545986"><ele>619.0</ele><time>2026-04-10T13:19:55.826Z</time></trkpt><trkpt lat="44.4531714" lon="5.1545057"><ele>617.5</ele><time>2026-04-10T13:19:58.827Z</time></trkpt><trkpt lat="44.4531393" lon="5.1543543"><ele>616.0</ele><time>2026-04-10T13:20:00.746Z</time></trkpt><trkpt lat="44.453093" lon="5.1542444"><ele>616.0</ele><time>2026-04-10T13:20:01.83Z</time></trkpt><trkpt lat="44.4530131" lon="5.1541361"><ele>616.0</ele><time>2026-04-10T13:20:02.828Z</time></trkpt><trkpt lat="44.4529159" lon="5.1540385"><ele>616.0</ele><time>2026-04-10T13:20:03.826Z</time></trkpt><trkpt lat="44.4528143" lon="5.1539505"><ele>616.0</ele><time>2026-04-10T13:20:04.823Z</time></trkpt><trkpt lat="44.4527127" lon="5.1538642"><ele>615.6</ele><time>2026-04-10T13:20:05.824Z</time></trkpt><trkpt lat="44.452624" lon="5.1537699"><ele>615.2</ele><time>2026-04-10T13:20:06.833Z</time></trkpt><trkpt lat="44.4525602" lon="5.1536525"><ele>614.8</ele><time>2026-04-10T13:20:07.824Z</time></trkpt><trkpt lat="44.4525199" lon="5.1535185"><ele>614.4</ele><time>2026-04-10T13:20:08.825Z</time></trkpt><trkpt lat="44.4525037" lon="5.1533835"><ele>614.0</ele><time>2026-04-10T13:20:09.824Z</time></trkpt><trkpt lat="44.4525004" lon="5.1532541"><ele>614.1666666666666</ele><time>2026-04-10T13:20:10.824Z</time></trkpt><trkpt lat="44.4525047" lon="5.1531338"><ele>614.3333333333333</ele><time>2026-04-10T13:20:11.826Z</time></trkpt><trkpt lat="44.4525075" lon="5.1530214"><ele>614.5</ele><time>2026-04-10T13:20:12.821Z</time></trkpt><trkpt lat="44.4525087" lon="5.1529126"><ele>614.6666666666666</ele><time>2026-04-10T13:20:13.828Z</time></trkpt><trkpt lat="44.4525116" lon="5.1528113"><ele>614.8333333333334</ele><time>2026-04-10T13:20:14.835Z</time></trkpt><trkpt lat="44.4525273" lon="5.1527137"><ele>615.0</ele><time>2026-04-10T13:20:15.835Z</time></trkpt><trkpt lat="44.4525686" lon="5.1526204"><ele>615.0</ele><time>2026-04-10T13:20:16.826Z</time></trkpt><trkpt lat="44.4526271" lon="5.1525453"><ele>615.0</ele><time>2026-04-10T13:20:17.828Z</time></trkpt><trkpt lat="44.4527571" lon="5.1525466"><ele>615.0</ele><time>2026-04-10T13:20:18.825Z</time></trkpt><trkpt lat="44.4528681" lon="5.1525539"><ele>615.0</ele><time>2026-04-10T13:20:19.825Z</time></trkpt><trkpt lat="44.4529885" lon="5.1525755"><ele>615.0</ele><time>2026-04-10T13:20:20.824Z</time></trkpt><trkpt lat="44.4531158" lon="5.1526025"><ele>614.25</ele><time>2026-04-10T13:20:21.825Z</time></trkpt><trkpt lat="44.4532457" lon="5.1526294"><ele>613.5</ele><time>2026-04-10T13:20:22.826Z</time></trkpt><trkpt lat="44.4533786" lon="5.1526532"><ele>612.75</ele><time>2026-04-10T13:20:23.824Z</time></trkpt><trkpt lat="44.4535285" lon="5.1526863"><ele>612.0</ele><time>2026-04-10T13:20:24.824Z</time></trkpt><trkpt lat="44.453691" lon="5.1527256"><ele>612.6666666666666</ele><time>2026-04-10T13:20:25.828Z</time></trkpt><trkpt lat="44.4538546" lon="5.1527678"><ele>613.3333333333333</ele><time>2026-04-10T13:20:26.825Z</time></trkpt><trkpt lat="44.45402" lon="5.1528149"><ele>614.0</ele><time>2026-04-10T13:20:27.822Z</time></trkpt><trkpt lat="44.4541824" lon="5.1528617"><ele>614.0</ele><time>2026-04-10T13:20:28.822Z</time></trkpt><trkpt lat="44.4543467" lon="5.1528992"><ele>614.0</ele><time>2026-04-10T13:20:29.825Z</time></trkpt><trkpt lat="44.45451" lon="5.1529324"><ele>614.0</ele><time>2026-04-10T13:20:30.823Z</time></trkpt><trkpt lat="44.4546817" lon="5.1529477"><ele>614.3333333333333</ele><time>2026-04-10T13:20:31.823Z</time></trkpt><trkpt lat="44.4548537" lon="5.1529632"><ele>614.6666666666666</ele><time>2026-04-10T13:20:32.83Z</time></trkpt><trkpt lat="44.4550221" lon="5.1529696"><ele>615.0</ele><time>2026-04-10T13:20:33.826Z</time></trkpt><trkpt lat="44.4551862" lon="5.1529926"><ele>615.0</ele><time>2026-04-10T13:20:34.827Z</time></trkpt><trkpt lat="44.4553542" lon="5.1530213"><ele>615.0</ele><time>2026-04-10T13:20:35.829Z</time></trkpt><trkpt lat="44.455535" lon="5.1530091"><ele>615.0</ele><time>2026-04-10T13:20:36.833Z</time></trkpt><trkpt lat="44.4557179" lon="5.1529906"><ele>615.0</ele><time>2026-04-10T13:20:37.826Z</time></trkpt><trkpt lat="44.4558963" lon="5.1529786"><ele>615.0</ele><time>2026-04-10T13:20:38.825Z</time></trkpt><trkpt lat="44.4560766" lon="5.1529726"><ele>615.0</ele><time>2026-04-10T13:20:39.827Z</time></trkpt><trkpt lat="44.4562531" lon="5.1529524"><ele>612.0</ele><time>2026-04-10T13:20:40.825Z</time></trkpt><trkpt lat="44.4564232" lon="5.1529478"><ele>609.0</ele><time>2026-04-10T13:20:41.825Z</time></trkpt><trkpt lat="44.4565873" lon="5.1529453"><ele>606.0</ele><time>2026-04-10T13:20:42.827Z</time></trkpt><trkpt lat="44.456737" lon="5.1529222"><ele>606.0</ele><time>2026-04-10T13:20:43.828Z</time></trkpt><trkpt lat="44.4568818" lon="5.1528556"><ele>606.0</ele><time>2026-04-10T13:20:44.822Z</time></trkpt><trkpt lat="44.4570208" lon="5.1527383"><ele>606.0</ele><time>2026-04-10T13:20:45.827Z</time></trkpt><trkpt lat="44.4571546" lon="5.1526017"><ele>605.6666666666666</ele><time>2026-04-10T13:20:46.824Z</time></trkpt><trkpt lat="44.4572737" lon="5.1524523"><ele>605.3333333333333</ele><time>2026-04-10T13:20:47.825Z</time></trkpt><trkpt lat="44.4573807" lon="5.1522783"><ele>605.0</ele><time>2026-04-10T13:20:48.827Z</time></trkpt><trkpt lat="44.4574841" lon="5.152104"><ele>605.0</ele><time>2026-04-10T13:20:49.825Z</time></trkpt><trkpt lat="44.4575889" lon="5.1519352"><ele>605.0</ele><time>2026-04-10T13:20:50.825Z</time></trkpt><trkpt lat="44.4576934" lon="5.1517686"><ele>605.0</ele><time>2026-04-10T13:20:51.824Z</time></trkpt><trkpt lat="44.4578029" lon="5.1515972"><ele>606.3333333333333</ele><time>2026-04-10T13:20:52.823Z</time></trkpt><trkpt lat="44.4579116" lon="5.1514295"><ele>607.6666666666666</ele><time>2026-04-10T13:20:53.824Z</time></trkpt><trkpt lat="44.4580365" lon="5.1512801"><ele>609.0</ele><time>2026-04-10T13:20:54.826Z</time></trkpt><trkpt lat="44.4581659" lon="5.1511482"><ele>609.0</ele><time>2026-04-10T13:20:55.825Z</time></trkpt><trkpt lat="44.4583037" lon="5.1510618"><ele>609.0</ele><time>2026-04-10T13:20:56.823Z</time></trkpt><trkpt lat="44.4584538" lon="5.151019"><ele>609.0</ele><time>2026-04-10T13:20:57.823Z</time></trkpt><trkpt lat="44.4586139" lon="5.1509699"><ele>609.0</ele><time>2026-04-10T13:20:58.824Z</time></trkpt><trkpt lat="44.4587684" lon="5.1508997"><ele>609.0</ele><time>2026-04-10T13:20:59.823Z</time></trkpt><trkpt lat="44.4589217" lon="5.1508255"><ele>609.0</ele><time>2026-04-10T13:21:00.823Z</time></trkpt><trkpt lat="44.4590677" lon="5.1507216"><ele>610.0</ele><time>2026-04-10T13:21:01.828Z</time></trkpt><trkpt lat="44.4592113" lon="5.1506139"><ele>611.0</ele><time>2026-04-10T13:21:02.824Z</time></trkpt><trkpt lat="44.4593516" lon="5.1505033"><ele>612.0</ele><time>2026-04-10T13:21:03.829Z</time></trkpt><trkpt lat="44.4594954" lon="5.1503857"><ele>605.6666666666666</ele><time>2026-04-10T13:21:04.821Z</time></trkpt><trkpt lat="44.4596395" lon="5.1502639"><ele>599.3333333333333</ele><time>2026-04-10T13:21:05.823Z</time></trkpt><trkpt lat="44.4597828" lon="5.1501439"><ele>593.0</ele><time>2026-04-10T13:21:06.823Z</time></trkpt><trkpt lat="44.4599236" lon="5.1500229"><ele>593.0</ele><time>2026-04-10T13:21:07.821Z</time></trkpt><trkpt lat="44.4600603" lon="5.1498851"><ele>593.0</ele><time>2026-04-10T13:21:08.822Z</time></trkpt><trkpt lat="44.4601926" lon="5.1497396"><ele>593.0</ele><time>2026-04-10T13:21:09.826Z</time></trkpt><trkpt lat="44.4603191" lon="5.1495849"><ele>591.3333333333333</ele><time>2026-04-10T13:21:10.819Z</time></trkpt><trkpt lat="44.4604318" lon="5.1494145"><ele>589.6666666666666</ele><time>2026-04-10T13:21:11.82Z</time></trkpt><trkpt lat="44.4605333" lon="5.1492211"><ele>588.0</ele><time>2026-04-10T13:21:12.825Z</time></trkpt><trkpt lat="44.4606302" lon="5.1490278"><ele>593.0</ele><time>2026-04-10T13:21:13.822Z</time></trkpt><trkpt lat="44.4607266" lon="5.148839"><ele>598.0</ele><time>2026-04-10T13:21:14.825Z</time></trkpt><trkpt lat="44.4608175" lon="5.1486581"><ele>603.0</ele><time>2026-04-10T13:21:15.822Z</time></trkpt><trkpt lat="44.4609203" lon="5.1485116"><ele>603.0</ele><time>2026-04-10T13:21:16.822Z</time></trkpt><trkpt lat="44.4610417" lon="5.1483906"><ele>603.0</ele><time>2026-04-10T13:21:17.825Z</time></trkpt><trkpt lat="44.4611469" lon="5.1482644"><ele>603.0</ele><time>2026-04-10T13:21:18.826Z</time></trkpt><trkpt lat="44.4612514" lon="5.1481586"><ele>603.0</ele><time>2026-04-10T13:21:19.829Z</time></trkpt><trkpt lat="44.4613524" lon="5.1480529"><ele>599.8</ele><time>2026-04-10T13:21:20.83Z</time></trkpt><trkpt lat="44.461444" lon="5.1479499"><ele>596.5999999999999</ele><time>2026-04-10T13:21:21.831Z</time></trkpt><trkpt lat="44.46153" lon="5.1478543"><ele>593.4000000000001</ele><time>2026-04-10T13:21:22.825Z</time></trkpt><trkpt lat="44.4616084" lon="5.1477619"><ele>590.2</ele><time>2026-04-10T13:21:23.826Z</time></trkpt><trkpt lat="44.46168" lon="5.1476758"><ele>587.0</ele><time>2026-04-10T13:21:24.82Z</time></trkpt><trkpt lat="44.4617443" lon="5.1475859"><ele>587.0</ele><time>2026-04-10T13:21:25.824Z</time></trkpt><trkpt lat="44.4617997" lon="5.1475131"><ele>587.0</ele><time>2026-04-10T13:21:26.832Z</time></trkpt><trkpt lat="44.4618553" lon="5.1474417"><ele>587.0</ele><time>2026-04-10T13:21:27.831Z</time></trkpt><trkpt lat="44.4619127" lon="5.1473639"><ele>587.0</ele><time>2026-04-10T13:21:28.826Z</time></trkpt><trkpt lat="44.4619774" lon="5.1472874"><ele>587.0</ele><time>2026-04-10T13:21:29.831Z</time></trkpt><trkpt lat="44.4620476" lon="5.1472137"><ele>587.0</ele><time>2026-04-10T13:21:30.824Z</time></trkpt><trkpt lat="44.4621292" lon="5.1471701"><ele>587.8000000000001</ele><time>2026-04-10T13:21:31.829Z</time></trkpt><trkpt lat="44.4622078" lon="5.147133"><ele>588.6</ele><time>2026-04-10T13:21:32.824Z</time></trkpt><trkpt lat="44.4622997" lon="5.1471314"><ele>589.4000000000001</ele><time>2026-04-10T13:21:33.826Z</time></trkpt><trkpt lat="44.4623913" lon="5.1471578"><ele>590.2</ele><time>2026-04-10T13:21:34.832Z</time></trkpt><trkpt lat="44.4624784" lon="5.1471975"><ele>591.0</ele><time>2026-04-10T13:21:35.826Z</time></trkpt><trkpt lat="44.4625619" lon="5.147251"><ele>591.0</ele><time>2026-04-10T13:21:36.825Z</time></trkpt><trkpt lat="44.462649" lon="5.1472943"><ele>591.0</ele><time>2026-04-10T13:21:37.823Z</time></trkpt><trkpt lat="44.4627396" lon="5.1473208"><ele>591.0</ele><time>2026-04-10T13:21:38.822Z</time></trkpt><trkpt lat="44.4628314" lon="5.1473154"><ele>591.0</ele><time>2026-04-10T13:21:39.829Z</time></trkpt><trkpt lat="44.4629139" lon="5.1472953"><ele>591.0</ele><time>2026-04-10T13:21:40.831Z</time></trkpt><trkpt lat="44.4629939" lon="5.1472541"><ele>591.0</ele><time>2026-04-10T13:21:41.823Z</time></trkpt><trkpt lat="44.4630676" lon="5.147176"><ele>589.8</ele><time>2026-04-10T13:21:42.828Z</time></trkpt><trkpt lat="44.4631318" lon="5.147091"><ele>588.6</ele><time>2026-04-10T13:21:43.826Z</time></trkpt><trkpt lat="44.4631929" lon="5.1469437"><ele>587.4</ele><time>2026-04-10T13:21:44.823Z</time></trkpt><trkpt lat="44.4632593" lon="5.1468165"><ele>586.2</ele><time>2026-04-10T13:21:45.825Z</time></trkpt><trkpt lat="44.4633202" lon="5.1466772"><ele>585.0</ele><time>2026-04-10T13:21:46.824Z</time></trkpt><trkpt lat="44.463391" lon="5.1465259"><ele>588.25</ele><time>2026-04-10T13:21:47.822Z</time></trkpt><trkpt lat="44.4634656" lon="5.1463708"><ele>591.5</ele><time>2026-04-10T13:21:48.822Z</time></trkpt><trkpt lat="44.4635479" lon="5.1462168"><ele>594.75</ele><time>2026-04-10T13:21:49.825Z</time></trkpt><trkpt lat="44.4636221" lon="5.1460456"><ele>598.0</ele><time>2026-04-10T13:21:50.82Z</time></trkpt><trkpt lat="44.4637084" lon="5.1458748"><ele>592.3333333333334</ele><time>2026-04-10T13:21:51.821Z</time></trkpt><trkpt lat="44.4638012" lon="5.1457028"><ele>586.6666666666666</ele><time>2026-04-10T13:21:52.828Z</time></trkpt><trkpt lat="44.4638904" lon="5.1455293"><ele>581.0</ele><time>2026-04-10T13:21:53.83Z</time></trkpt><trkpt lat="44.4639822" lon="5.1453534"><ele>581.0</ele><time>2026-04-10T13:21:54.824Z</time></trkpt><trkpt lat="44.4640642" lon="5.14516"><ele>581.0</ele><time>2026-04-10T13:21:55.823Z</time></trkpt><trkpt lat="44.4641446" lon="5.1449615"><ele>581.0</ele><time>2026-04-10T13:21:56.824Z</time></trkpt><trkpt lat="44.4642282" lon="5.1447524"><ele>583.0</ele><time>2026-04-10T13:21:57.825Z</time></trkpt><trkpt lat="44.4643052" lon="5.1445466"><ele>585.0</ele><time>2026-04-10T13:21:58.827Z</time></trkpt><trkpt lat="44.4643835" lon="5.144329"><ele>587.0</ele><time>2026-04-10T13:21:59.825Z</time></trkpt><trkpt lat="44.4644659" lon="5.1441103"><ele>590.6666666666666</ele><time>2026-04-10T13:22:00.822Z</time></trkpt><trkpt lat="44.464545" lon="5.1438862"><ele>594.3333333333334</ele><time>2026-04-10T13:22:01.826Z</time></trkpt><trkpt lat="44.4646246" lon="5.1436684"><ele>598.0</ele><time>2026-04-10T13:22:02.822Z</time></trkpt><trkpt lat="44.4647045" lon="5.1434441"><ele>591.6666666666667</ele><time>2026-04-10T13:22:03.823Z</time></trkpt><trkpt lat="44.4647814" lon="5.1432118"><ele>585.3333333333334</ele><time>2026-04-10T13:22:04.823Z</time></trkpt><trkpt lat="44.4648691" lon="5.1429953"><ele>579.0</ele><time>2026-04-10T13:22:05.823Z</time></trkpt><trkpt lat="44.4649526" lon="5.1427777"><ele>579.0</ele><time>2026-04-10T13:22:06.826Z</time></trkpt><trkpt lat="44.4650484" lon="5.1425671"><ele>579.0</ele><time>2026-04-10T13:22:07.825Z</time></trkpt><trkpt lat="44.4651636" lon="5.142366"><ele>579.0</ele><time>2026-04-10T13:22:08.821Z</time></trkpt><trkpt lat="44.4652965" lon="5.1421954"><ele>578.6666666666666</ele><time>2026-04-10T13:22:09.823Z</time></trkpt><trkpt lat="44.465448" lon="5.1420553"><ele>578.3333333333333</ele><time>2026-04-10T13:22:10.825Z</time></trkpt><trkpt lat="44.4656039" lon="5.1419248"><ele>578.0</ele><time>2026-04-10T13:22:11.826Z</time></trkpt><trkpt lat="44.4657614" lon="5.1418051"><ele>578.0</ele><time>2026-04-10T13:22:12.823Z</time></trkpt><trkpt lat="44.4659139" lon="5.1416809"><ele>578.0</ele><time>2026-04-10T13:22:13.823Z</time></trkpt><trkpt lat="44.4660686" lon="5.1415663"><ele>578.0</ele><time>2026-04-10T13:22:14.826Z</time></trkpt><trkpt lat="44.4662223" lon="5.1414379"><ele>579.0</ele><time>2026-04-10T13:22:15.833Z</time></trkpt><trkpt lat="44.4663755" lon="5.1413241"><ele>580.0</ele><time>2026-04-10T13:22:16.83Z</time></trkpt><trkpt lat="44.4665278" lon="5.141207"><ele>581.0</ele><time>2026-04-10T13:22:17.824Z</time></trkpt><trkpt lat="44.4666823" lon="5.1410944"><ele>581.0</ele><time>2026-04-10T13:22:18.82Z</time></trkpt><trkpt lat="44.4668356" lon="5.14098"><ele>581.0</ele><time>2026-04-10T13:22:19.823Z</time></trkpt><trkpt lat="44.4669935" lon="5.1408804"><ele>581.0</ele><time>2026-04-10T13:22:20.825Z</time></trkpt><trkpt lat="44.4671494" lon="5.140761"><ele>578.0</ele><time>2026-04-10T13:22:21.823Z</time></trkpt><trkpt lat="44.4672978" lon="5.1406528"><ele>575.0</ele><time>2026-04-10T13:22:22.821Z</time></trkpt><trkpt lat="44.4674505" lon="5.1405306"><ele>572.0</ele><time>2026-04-10T13:22:23.822Z</time></trkpt><trkpt lat="44.4675947" lon="5.1404238"><ele>572.0</ele><time>2026-04-10T13:22:24.831Z</time></trkpt><trkpt lat="44.467728" lon="5.1403156"><ele>572.0</ele><time>2026-04-10T13:22:25.825Z</time></trkpt><trkpt lat="44.4678521" lon="5.1401966"><ele>572.0</ele><time>2026-04-10T13:22:26.824Z</time></trkpt><trkpt lat="44.467969" lon="5.1400675"><ele>570.6666666666666</ele><time>2026-04-10T13:22:27.827Z</time></trkpt><trkpt lat="44.4680761" lon="5.1399223"><ele>569.3333333333334</ele><time>2026-04-10T13:22:28.826Z</time></trkpt><trkpt lat="44.4681808" lon="5.1397669"><ele>568.0</ele><time>2026-04-10T13:22:29.824Z</time></trkpt><trkpt lat="44.4682901" lon="5.1396223"><ele>568.0</ele><time>2026-04-10T13:22:30.824Z</time></trkpt><trkpt lat="44.4683945" lon="5.139477"><ele>568.0</ele><time>2026-04-10T13:22:31.824Z</time></trkpt><trkpt lat="44.4684875" lon="5.1393283"><ele>568.0</ele><time>2026-04-10T13:22:32.825Z</time></trkpt><trkpt lat="44.4685881" lon="5.1391979"><ele>568.0</ele><time>2026-04-10T13:22:33.823Z</time></trkpt><trkpt lat="44.4686884" lon="5.1390622"><ele>567.25</ele><time>2026-04-10T13:22:34.831Z</time></trkpt><trkpt lat="44.4687852" lon="5.1389391"><ele>566.5</ele><time>2026-04-10T13:22:35.829Z</time></trkpt><trkpt lat="44.4688841" lon="5.1387985"><ele>565.75</ele><time>2026-04-10T13:22:36.828Z</time></trkpt><trkpt lat="44.4689772" lon="5.1386525"><ele>565.0</ele><time>2026-04-10T13:22:37.823Z</time></trkpt><trkpt lat="44.4690535" lon="5.1384892"><ele>565.0</ele><time>2026-04-10T13:22:38.821Z</time></trkpt><trkpt lat="44.4691155" lon="5.1382993"><ele>565.0</ele><time>2026-04-10T13:22:39.825Z</time></trkpt><trkpt lat="44.4691766" lon="5.138105"><ele>565.0</ele><time>2026-04-10T13:22:40.823Z</time></trkpt><trkpt lat="44.4692427" lon="5.1379003"><ele>568.0</ele><time>2026-04-10T13:22:41.822Z</time></trkpt><trkpt lat="44.4693116" lon="5.1376893"><ele>571.0</ele><time>2026-04-10T13:22:42.822Z</time></trkpt><trkpt lat="44.4693885" lon="5.1374817"><ele>574.0</ele><time>2026-04-10T13:22:43.821Z</time></trkpt><trkpt lat="44.4694748" lon="5.1372846"><ele>578.6666666666667</ele><time>2026-04-10T13:22:44.825Z</time></trkpt><trkpt lat="44.4695653" lon="5.1370797"><ele>583.3333333333334</ele><time>2026-04-10T13:22:45.823Z</time></trkpt><trkpt lat="44.4696604" lon="5.1368883"><ele>588.0</ele><time>2026-04-10T13:22:46.828Z</time></trkpt><trkpt lat="44.4697523" lon="5.1367078"><ele>581.25</ele><time>2026-04-10T13:22:47.824Z</time></trkpt><trkpt lat="44.4698374" lon="5.1365376"><ele>574.5</ele><time>2026-04-10T13:22:48.83Z</time></trkpt><trkpt lat="44.469927" lon="5.1363939"><ele>567.75</ele><time>2026-04-10T13:22:49.828Z</time></trkpt><trkpt lat="44.4700249" lon="5.1362772"><ele>561.0</ele><time>2026-04-10T13:22:50.823Z</time></trkpt><trkpt lat="44.4701214" lon="5.1361851"><ele>561.0</ele><time>2026-04-10T13:22:51.823Z</time></trkpt><trkpt lat="44.470225" lon="5.1361392"><ele>561.0</ele><time>2026-04-10T13:22:52.824Z</time></trkpt><trkpt lat="44.4703284" lon="5.1361296"><ele>561.0</ele><time>2026-04-10T13:22:53.823Z</time></trkpt><trkpt lat="44.4704311" lon="5.1361547"><ele>561.0</ele><time>2026-04-10T13:22:54.826Z</time></trkpt><trkpt lat="44.4705346" lon="5.1361904"><ele>561.0</ele><time>2026-04-10T13:22:55.825Z</time></trkpt><trkpt lat="44.4706497" lon="5.1362159"><ele>558.25</ele><time>2026-04-10T13:22:56.824Z</time></trkpt><trkpt lat="44.4707609" lon="5.1362386"><ele>555.5</ele><time>2026-04-10T13:22:57.824Z</time></trkpt><trkpt lat="44.4708766" lon="5.1362398"><ele>552.75</ele><time>2026-04-10T13:22:58.823Z</time></trkpt><trkpt lat="44.4709943" lon="5.1362195"><ele>550.0</ele><time>2026-04-10T13:22:59.82Z</time></trkpt><trkpt lat="44.4711099" lon="5.1361849"><ele>550.0</ele><time>2026-04-10T13:23:00.821Z</time></trkpt><trkpt lat="44.471217" lon="5.136135"><ele>550.0</ele><time>2026-04-10T13:23:01.826Z</time></trkpt><trkpt lat="44.4713142" lon="5.1360915"><ele>550.0</ele><time>2026-04-10T13:23:02.823Z</time></trkpt><trkpt lat="44.4714098" lon="5.1359781"><ele>550.0</ele><time>2026-04-10T13:23:03.825Z</time></trkpt><trkpt lat="44.4715126" lon="5.1358788"><ele>549.25</ele><time>2026-04-10T13:23:04.824Z</time></trkpt><trkpt lat="44.4716035" lon="5.1357325"><ele>548.5</ele><time>2026-04-10T13:23:05.825Z</time></trkpt><trkpt lat="44.4716937" lon="5.135602"><ele>547.75</ele><time>2026-04-10T13:23:06.828Z</time></trkpt><trkpt lat="44.4717967" lon="5.1354631"><ele>547.0</ele><time>2026-04-10T13:23:07.824Z</time></trkpt><trkpt lat="44.4719064" lon="5.1353162"><ele>547.0</ele><time>2026-04-10T13:23:08.823Z</time></trkpt><trkpt lat="44.4720164" lon="5.1351826"><ele>547.0</ele><time>2026-04-10T13:23:09.826Z</time></trkpt><trkpt lat="44.4721293" lon="5.1350513"><ele>547.0</ele><time>2026-04-10T13:23:10.823Z</time></trkpt><trkpt lat="44.4722355" lon="5.1349103"><ele>547.0</ele><time>2026-04-10T13:23:11.825Z</time></trkpt><trkpt lat="44.4723688" lon="5.1347586"><ele>547.0</ele><time>2026-04-10T13:23:12.82Z</time></trkpt><trkpt lat="44.4724977" lon="5.1346039"><ele>547.0</ele><time>2026-04-10T13:23:13.822Z</time></trkpt><trkpt lat="44.4726183" lon="5.1344458"><ele>547.0</ele><time>2026-04-10T13:23:14.828Z</time></trkpt><trkpt lat="44.4727362" lon="5.1342885"><ele>547.0</ele><time>2026-04-10T13:23:15.825Z</time></trkpt><trkpt lat="44.4728634" lon="5.1341489"><ele>547.0</ele><time>2026-04-10T13:23:16.823Z</time></trkpt><trkpt lat="44.4729948" lon="5.1340026"><ele>547.0</ele><time>2026-04-10T13:23:17.825Z</time></trkpt><trkpt lat="44.4731243" lon="5.1338589"><ele>547.0</ele><time>2026-04-10T13:23:18.825Z</time></trkpt><trkpt lat="44.4732589" lon="5.1337436"><ele>547.0</ele><time>2026-04-10T13:23:19.823Z</time></trkpt><trkpt lat="44.473402" lon="5.1336417"><ele>547.0</ele><time>2026-04-10T13:23:20.823Z</time></trkpt><trkpt lat="44.4735518" lon="5.1335476"><ele>547.0</ele><time>2026-04-10T13:23:21.823Z</time></trkpt><trkpt lat="44.473696" lon="5.133451"><ele>547.0</ele><time>2026-04-10T13:23:22.824Z</time></trkpt><trkpt lat="44.4738375" lon="5.1333405"><ele>547.0</ele><time>2026-04-10T13:23:23.823Z</time></trkpt><trkpt lat="44.4739812" lon="5.1332227"><ele>545.6666666666667</ele><time>2026-04-10T13:23:24.822Z</time></trkpt><trkpt lat="44.4741251" lon="5.1331117"><ele>544.3333333333334</ele><time>2026-04-10T13:23:25.829Z</time></trkpt><trkpt lat="44.4742735" lon="5.1329963"><ele>543.0</ele><time>2026-04-10T13:23:26.828Z</time></trkpt><trkpt lat="44.474432" lon="5.1329039"><ele>543.0</ele><time>2026-04-10T13:23:27.822Z</time></trkpt><trkpt lat="44.4745726" lon="5.1327945"><ele>543.0</ele><time>2026-04-10T13:23:28.821Z</time></trkpt><trkpt lat="44.4747144" lon="5.1326662"><ele>543.0</ele><time>2026-04-10T13:23:29.826Z</time></trkpt><trkpt lat="44.4748522" lon="5.1325257"><ele>541.6666666666666</ele><time>2026-04-10T13:23:30.825Z</time></trkpt><trkpt lat="44.4749696" lon="5.1323383"><ele>540.3333333333333</ele><time>2026-04-10T13:23:31.821Z</time></trkpt><trkpt lat="44.4750821" lon="5.1321574"><ele>539.0</ele><time>2026-04-10T13:23:32.824Z</time></trkpt><trkpt lat="44.475179" lon="5.1319511"><ele>539.0</ele><time>2026-04-10T13:23:33.821Z</time></trkpt><trkpt lat="44.4752806" lon="5.1317422"><ele>539.0</ele><time>2026-04-10T13:23:34.826Z</time></trkpt><trkpt lat="44.4754022" lon="5.131562"><ele>539.0</ele><time>2026-04-10T13:23:35.824Z</time></trkpt><trkpt lat="44.4755243" lon="5.1313746"><ele>540.6666666666666</ele><time>2026-04-10T13:23:36.829Z</time></trkpt><trkpt lat="44.4756548" lon="5.1312082"><ele>542.3333333333334</ele><time>2026-04-10T13:23:37.826Z</time></trkpt><trkpt lat="44.4757766" lon="5.131043"><ele>544.0</ele><time>2026-04-10T13:23:38.822Z</time></trkpt><trkpt lat="44.4758951" lon="5.1308756"><ele>540.0</ele><time>2026-04-10T13:23:39.823Z</time></trkpt><trkpt lat="44.476003" lon="5.130723"><ele>536.0</ele><time>2026-04-10T13:23:40.825Z</time></trkpt><trkpt lat="44.4761333" lon="5.1305925"><ele>532.0</ele><time>2026-04-10T13:23:41.822Z</time></trkpt><trkpt lat="44.4762634" lon="5.1304771"><ele>534.6666666666667</ele><time>2026-04-10T13:23:42.826Z</time></trkpt><trkpt lat="44.4763994" lon="5.1303749"><ele>537.3333333333334</ele><time>2026-04-10T13:23:43.82Z</time></trkpt><trkpt lat="44.4765465" lon="5.1302746"><ele>540.0</ele><time>2026-04-10T13:23:44.826Z</time></trkpt><trkpt lat="44.4766803" lon="5.1301848"><ele>540.0</ele><time>2026-04-10T13:23:45.827Z</time></trkpt><trkpt lat="44.4768235" lon="5.130103"><ele>540.0</ele><time>2026-04-10T13:23:46.826Z</time></trkpt><trkpt lat="44.4769675" lon="5.1300093"><ele>540.0</ele><time>2026-04-10T13:23:47.824Z</time></trkpt><trkpt lat="44.4771107" lon="5.1299104"><ele>538.0</ele><time>2026-04-10T13:23:48.824Z</time></trkpt><trkpt lat="44.4772609" lon="5.1298071"><ele>536.0</ele><time>2026-04-10T13:23:49.822Z</time></trkpt><trkpt lat="44.477426" lon="5.1297085"><ele>534.0</ele><time>2026-04-10T13:23:50.821Z</time></trkpt><trkpt lat="44.4775757" lon="5.1296014"><ele>534.0</ele><time>2026-04-10T13:23:51.821Z</time></trkpt><trkpt lat="44.4777293" lon="5.1294814"><ele>534.0</ele><time>2026-04-10T13:23:52.825Z</time></trkpt><trkpt lat="44.4778819" lon="5.1293635"><ele>534.0</ele><time>2026-04-10T13:23:53.82Z</time></trkpt><trkpt lat="44.4780449" lon="5.129244"><ele>531.0</ele><time>2026-04-10T13:23:54.82Z</time></trkpt><trkpt lat="44.4782162" lon="5.129152"><ele>528.0</ele><time>2026-04-10T13:23:55.829Z</time></trkpt><trkpt lat="44.4783842" lon="5.1290361"><ele>525.0</ele><time>2026-04-10T13:23:56.82Z</time></trkpt><trkpt lat="44.4785468" lon="5.1289255"><ele>525.0</ele><time>2026-04-10T13:23:57.822Z</time></trkpt><trkpt lat="44.4787131" lon="5.1288236"><ele>525.0</ele><time>2026-04-10T13:23:58.833Z</time></trkpt><trkpt lat="44.4788936" lon="5.1288093"><ele>525.0</ele><time>2026-04-10T13:23:59.827Z</time></trkpt><trkpt lat="44.4790666" lon="5.1287743"><ele>525.6666666666666</ele><time>2026-04-10T13:24:00.832Z</time></trkpt><trkpt lat="44.4792408" lon="5.128745"><ele>526.3333333333333</ele><time>2026-04-10T13:24:01.834Z</time></trkpt><trkpt lat="44.4794117" lon="5.1287214"><ele>527.0</ele><time>2026-04-10T13:24:02.826Z</time></trkpt><trkpt lat="44.479601" lon="5.1287155"><ele>527.0</ele><time>2026-04-10T13:24:03.823Z</time></trkpt><trkpt lat="44.479776" lon="5.128704"><ele>527.0</ele><time>2026-04-10T13:24:04.824Z</time></trkpt><trkpt lat="44.4799578" lon="5.1286996"><ele>527.0</ele><time>2026-04-10T13:24:05.822Z</time></trkpt><trkpt lat="44.4801306" lon="5.1286802"><ele>527.0</ele><time>2026-04-10T13:24:06.823Z</time></trkpt><trkpt lat="44.4803035" lon="5.1286657"><ele>527.0</ele><time>2026-04-10T13:24:07.822Z</time></trkpt><trkpt lat="44.4804732" lon="5.1286459"><ele>527.0</ele><time>2026-04-10T13:24:08.829Z</time></trkpt><trkpt lat="44.4806464" lon="5.1286243"><ele>526.3333333333333</ele><time>2026-04-10T13:24:09.833Z</time></trkpt><trkpt lat="44.4808209" lon="5.128613"><ele>525.6666666666666</ele><time>2026-04-10T13:24:10.824Z</time></trkpt><trkpt lat="44.4809967" lon="5.12859"><ele>525.0</ele><time>2026-04-10T13:24:11.822Z</time></trkpt><trkpt lat="44.481177" lon="5.1285638"><ele>526.3333333333334</ele><time>2026-04-10T13:24:12.825Z</time></trkpt><trkpt lat="44.4813652" lon="5.1285407"><ele>527.6666666666667</ele><time>2026-04-10T13:24:13.821Z</time></trkpt><trkpt lat="44.481546" lon="5.1285176"><ele>529.0</ele><time>2026-04-10T13:24:14.824Z</time></trkpt><trkpt lat="44.481725" lon="5.1284864"><ele>529.0</ele><time>2026-04-10T13:24:15.822Z</time></trkpt><trkpt lat="44.4818992" lon="5.1284407"><ele>529.0</ele><time>2026-04-10T13:24:16.82Z</time></trkpt><trkpt lat="44.4820777" lon="5.1283863"><ele>529.0</ele><time>2026-04-10T13:24:17.825Z</time></trkpt><trkpt lat="44.4822368" lon="5.1283249"><ele>527.6666666666667</ele><time>2026-04-10T13:24:18.822Z</time></trkpt><trkpt lat="44.4823975" lon="5.128266"><ele>526.3333333333334</ele><time>2026-04-10T13:24:19.824Z</time></trkpt><trkpt lat="44.4825622" lon="5.1282124"><ele>525.0</ele><time>2026-04-10T13:24:20.822Z</time></trkpt><trkpt lat="44.482728" lon="5.1281514"><ele>523.0</ele><time>2026-04-10T13:24:21.826Z</time></trkpt><trkpt lat="44.4829002" lon="5.1280926"><ele>521.0</ele><time>2026-04-10T13:24:22.821Z</time></trkpt><trkpt lat="44.4830771" lon="5.1280376"><ele>519.0</ele><time>2026-04-10T13:24:23.822Z</time></trkpt><trkpt lat="44.4832524" lon="5.1279916"><ele>519.0</ele><time>2026-04-10T13:24:24.834Z</time></trkpt><trkpt lat="44.4834282" lon="5.127933"><ele>519.0</ele><time>2026-04-10T13:24:25.825Z</time></trkpt><trkpt lat="44.4836016" lon="5.1278741"><ele>519.0</ele><time>2026-04-10T13:24:26.825Z</time></trkpt><trkpt lat="44.4837672" lon="5.1277972"><ele>521.6666666666666</ele><time>2026-04-10T13:24:27.822Z</time></trkpt><trkpt lat="44.4839202" lon="5.1276944"><ele>524.3333333333333</ele><time>2026-04-10T13:24:28.821Z</time></trkpt><trkpt lat="44.4840789" lon="5.1275882"><ele>527.0</ele><time>2026-04-10T13:24:29.826Z</time></trkpt><trkpt lat="44.4842057" lon="5.127421"><ele>523.0</ele><time>2026-04-10T13:24:30.824Z</time></trkpt><trkpt lat="44.4843153" lon="5.1272424"><ele>519.0</ele><time>2026-04-10T13:24:31.825Z</time></trkpt><trkpt lat="44.484409" lon="5.1270477"><ele>515.0</ele><time>2026-04-10T13:24:32.819Z</time></trkpt><trkpt lat="44.4844869" lon="5.1268389"><ele>515.0</ele><time>2026-04-10T13:24:33.821Z</time></trkpt><trkpt lat="44.484567" lon="5.1266332"><ele>515.0</ele><time>2026-04-10T13:24:34.823Z</time></trkpt><trkpt lat="44.4846472" lon="5.1264282"><ele>515.0</ele><time>2026-04-10T13:24:35.821Z</time></trkpt><trkpt lat="44.4847319" lon="5.1262261"><ele>516.6666666666666</ele><time>2026-04-10T13:24:36.82Z</time></trkpt><trkpt lat="44.4848131" lon="5.1260179"><ele>518.3333333333334</ele><time>2026-04-10T13:24:37.823Z</time></trkpt><trkpt lat="44.484904" lon="5.1258253"><ele>520.0</ele><time>2026-04-10T13:24:38.823Z</time></trkpt><trkpt lat="44.4850065" lon="5.1256395"><ele>516.3333333333334</ele><time>2026-04-10T13:24:39.838Z</time></trkpt><trkpt lat="44.4851291" lon="5.1254756"><ele>512.6666666666666</ele><time>2026-04-10T13:24:40.835Z</time></trkpt><trkpt lat="44.4852441" lon="5.1253162"><ele>509.0</ele><time>2026-04-10T13:24:41.822Z</time></trkpt><trkpt lat="44.4853637" lon="5.1251481"><ele>509.66666666666663</ele><time>2026-04-10T13:24:42.83Z</time></trkpt><trkpt lat="44.4854751" lon="5.124979"><ele>510.33333333333337</ele><time>2026-04-10T13:24:43.821Z</time></trkpt><trkpt lat="44.4855893" lon="5.1248008"><ele>511.0</ele><time>2026-04-10T13:24:44.822Z</time></trkpt><trkpt lat="44.4856979" lon="5.1246278"><ele>511.0</ele><time>2026-04-10T13:24:45.822Z</time></trkpt><trkpt lat="44.4858087" lon="5.1244581"><ele>511.0</ele><time>2026-04-10T13:24:46.823Z</time></trkpt><trkpt lat="44.4859156" lon="5.1242871"><ele>511.0</ele><time>2026-04-10T13:24:47.826Z</time></trkpt><trkpt lat="44.4860341" lon="5.1241202"><ele>511.0</ele><time>2026-04-10T13:24:48.822Z</time></trkpt><trkpt lat="44.4861508" lon="5.1239436"><ele>511.0</ele><time>2026-04-10T13:24:49.824Z</time></trkpt><trkpt lat="44.4862687" lon="5.1237761"><ele>511.0</ele><time>2026-04-10T13:24:50.821Z</time></trkpt><trkpt lat="44.48638" lon="5.1236009"><ele>511.0</ele><time>2026-04-10T13:24:51.824Z</time></trkpt><trkpt lat="44.486492" lon="5.1234183"><ele>511.0</ele><time>2026-04-10T13:24:52.821Z</time></trkpt><trkpt lat="44.48661" lon="5.1232444"><ele>511.0</ele><time>2026-04-10T13:24:53.823Z</time></trkpt><trkpt lat="44.4867342" lon="5.1230691"><ele>509.33333333333337</ele><time>2026-04-10T13:24:54.828Z</time></trkpt><trkpt lat="44.4868431" lon="5.1229005"><ele>507.66666666666663</ele><time>2026-04-10T13:24:55.827Z</time></trkpt><trkpt lat="44.4869493" lon="5.1227315"><ele>506.0</ele><time>2026-04-10T13:24:56.826Z</time></trkpt><trkpt lat="44.4870421" lon="5.1225616"><ele>506.0</ele><time>2026-04-10T13:24:57.826Z</time></trkpt><trkpt lat="44.4871126" lon="5.1224132"><ele>506.0</ele><time>2026-04-10T13:24:58.825Z</time></trkpt><trkpt lat="44.4871754" lon="5.1222696"><ele>506.0</ele><time>2026-04-10T13:24:59.823Z</time></trkpt><trkpt lat="44.4872266" lon="5.1221395"><ele>506.0</ele><time>2026-04-10T13:25:00.824Z</time></trkpt><trkpt lat="44.4872697" lon="5.1220253"><ele>506.0</ele><time>2026-04-10T13:25:01.826Z</time></trkpt><trkpt lat="44.4873219" lon="5.1218971"><ele>505.99999999999994</ele><time>2026-04-10T13:25:02.824Z</time></trkpt><trkpt lat="44.4873536" lon="5.1218152"><ele>506.0</ele><time>2026-04-10T13:25:03.825Z</time></trkpt><trkpt lat="44.4873844" lon="5.1217322"><ele>506.0</ele><time>2026-04-10T13:25:04.824Z</time></trkpt><trkpt lat="44.4874124" lon="5.1216487"><ele>506.0</ele><time>2026-04-10T13:25:05.824Z</time></trkpt><trkpt lat="44.4874458" lon="5.12156"><ele>505.99999999999994</ele><time>2026-04-10T13:25:06.823Z</time></trkpt><trkpt lat="44.4874846" lon="5.1214486"><ele>506.0</ele><time>2026-04-10T13:25:07.824Z</time></trkpt><trkpt lat="44.4875346" lon="5.1213258"><ele>505.6</ele><time>2026-04-10T13:25:08.828Z</time></trkpt><trkpt lat="44.4875819" lon="5.1212044"><ele>505.20000000000005</ele><time>2026-04-10T13:25:09.827Z</time></trkpt><trkpt lat="44.487636" lon="5.1210738"><ele>504.79999999999995</ele><time>2026-04-10T13:25:10.827Z</time></trkpt><trkpt lat="44.4876791" lon="5.1209599"><ele>504.4</ele><time>2026-04-10T13:25:11.822Z</time></trkpt><trkpt lat="44.4877203" lon="5.1208493"><ele>504.0</ele><time>2026-04-10T13:25:12.826Z</time></trkpt><trkpt lat="44.4877684" lon="5.1207454"><ele>504.6666666666667</ele><time>2026-04-10T13:25:13.827Z</time></trkpt><trkpt lat="44.4878137" lon="5.1206481"><ele>505.33333333333337</ele><time>2026-04-10T13:25:14.824Z</time></trkpt><trkpt lat="44.4878532" lon="5.1205633"><ele>506.0</ele><time>2026-04-10T13:25:15.824Z</time></trkpt><trkpt lat="44.4878874" lon="5.1204703"><ele>506.6666666666667</ele><time>2026-04-10T13:25:16.826Z</time></trkpt><trkpt lat="44.4879227" lon="5.1203799"><ele>507.33333333333337</ele><time>2026-04-10T13:25:17.827Z</time></trkpt><trkpt lat="44.4879591" lon="5.120291"><ele>508.0</ele><time>2026-04-10T13:25:18.825Z</time></trkpt><trkpt lat="44.4880081" lon="5.1202134"><ele>508.0</ele><time>2026-04-10T13:25:19.822Z</time></trkpt><trkpt lat="44.4880542" lon="5.1201371"><ele>508.0</ele><time>2026-04-10T13:25:20.824Z</time></trkpt><trkpt lat="44.4880988" lon="5.1200664"><ele>508.0</ele><time>2026-04-10T13:25:21.822Z</time></trkpt><trkpt lat="44.4881515" lon="5.1200044"><ele>508.0</ele><time>2026-04-10T13:25:22.824Z</time></trkpt><trkpt lat="44.4882119" lon="5.119944"><ele>508.0</ele><time>2026-04-10T13:25:23.828Z</time></trkpt><trkpt lat="44.4882743" lon="5.1198957"><ele>508.0</ele><time>2026-04-10T13:25:24.824Z</time></trkpt><trkpt lat="44.488347" lon="5.1198483"><ele>508.0</ele><time>2026-04-10T13:25:25.829Z</time></trkpt><trkpt lat="44.4884447" lon="5.1197798"><ele>507.0</ele><time>2026-04-10T13:25:26.823Z</time></trkpt><trkpt lat="44.48856" lon="5.1197036"><ele>506.0</ele><time>2026-04-10T13:25:27.823Z</time></trkpt><trkpt lat="44.4886757" lon="5.1196452"><ele>505.0</ele><time>2026-04-10T13:25:28.826Z</time></trkpt><trkpt lat="44.4888046" lon="5.1195852"><ele>504.0</ele><time>2026-04-10T13:25:29.83Z</time></trkpt><trkpt lat="44.4889307" lon="5.1195245"><ele>504.0</ele><time>2026-04-10T13:25:30.826Z</time></trkpt><trkpt lat="44.4890677" lon="5.1194637"><ele>504.0</ele><time>2026-04-10T13:25:31.823Z</time></trkpt><trkpt lat="44.4892021" lon="5.1193988"><ele>504.0</ele><time>2026-04-10T13:25:32.822Z</time></trkpt><trkpt lat="44.4893319" lon="5.1193242"><ele>504.0</ele><time>2026-04-10T13:25:33.825Z</time></trkpt><trkpt lat="44.489467" lon="5.1192676"><ele>504.0</ele><time>2026-04-10T13:25:34.827Z</time></trkpt><trkpt lat="44.4895854" lon="5.1192025"><ele>504.0</ele><time>2026-04-10T13:25:35.822Z</time></trkpt><trkpt lat="44.4897117" lon="5.1191277"><ele>504.0</ele><time>2026-04-10T13:25:36.823Z</time></trkpt><trkpt lat="44.4898399" lon="5.1190585"><ele>504.0</ele><time>2026-04-10T13:25:37.822Z</time></trkpt><trkpt lat="44.4899809" lon="5.1189852"><ele>503.75</ele><time>2026-04-10T13:25:38.821Z</time></trkpt><trkpt lat="44.4901179" lon="5.1189087"><ele>503.5</ele><time>2026-04-10T13:25:39.828Z</time></trkpt><trkpt lat="44.4902558" lon="5.1188327"><ele>503.25</ele><time>2026-04-10T13:25:40.831Z</time></trkpt><trkpt lat="44.4903925" lon="5.1187508"><ele>503.0</ele><time>2026-04-10T13:25:41.819Z</time></trkpt><trkpt lat="44.4905393" lon="5.1186716"><ele>503.0</ele><time>2026-04-10T13:25:42.823Z</time></trkpt><trkpt lat="44.490684" lon="5.1185821"><ele>503.0</ele><time>2026-04-10T13:25:43.831Z</time></trkpt><trkpt lat="44.4908307" lon="5.118494"><ele>503.0</ele><time>2026-04-10T13:25:44.832Z</time></trkpt><trkpt lat="44.4909791" lon="5.1183981"><ele>503.0</ele><time>2026-04-10T13:25:45.823Z</time></trkpt><trkpt lat="44.4911257" lon="5.1183038"><ele>503.0</ele><time>2026-04-10T13:25:46.82Z</time></trkpt><trkpt lat="44.491296" lon="5.1182248"><ele>503.0</ele><time>2026-04-10T13:25:47.822Z</time></trkpt><trkpt lat="44.4914536" lon="5.1181396"><ele>498.3333333333333</ele><time>2026-04-10T13:25:48.823Z</time></trkpt><trkpt lat="44.4915997" lon="5.1180504"><ele>493.66666666666663</ele><time>2026-04-10T13:25:49.825Z</time></trkpt><trkpt lat="44.4917413" lon="5.1179719"><ele>489.0</ele><time>2026-04-10T13:25:50.821Z</time></trkpt><trkpt lat="44.4918986" lon="5.1179062"><ele>489.0</ele><time>2026-04-10T13:25:51.827Z</time></trkpt><trkpt lat="44.4920548" lon="5.1178405"><ele>489.0</ele><time>2026-04-10T13:25:52.823Z</time></trkpt><trkpt lat="44.4922079" lon="5.1177618"><ele>489.0</ele><time>2026-04-10T13:25:53.826Z</time></trkpt><trkpt lat="44.4923716" lon="5.117692"><ele>491.66666666666663</ele><time>2026-04-10T13:25:54.822Z</time></trkpt><trkpt lat="44.4925362" lon="5.117622"><ele>494.3333333333333</ele><time>2026-04-10T13:25:55.821Z</time></trkpt><trkpt lat="44.4927015" lon="5.1175538"><ele>497.0</ele><time>2026-04-10T13:25:56.823Z</time></trkpt><trkpt lat="44.4928746" lon="5.1174828"><ele>497.66666666666663</ele><time>2026-04-10T13:25:57.826Z</time></trkpt><trkpt lat="44.4930527" lon="5.1174118"><ele>498.33333333333337</ele><time>2026-04-10T13:25:58.82Z</time></trkpt><trkpt lat="44.493222" lon="5.1173494"><ele>499.0</ele><time>2026-04-10T13:25:59.822Z</time></trkpt><trkpt lat="44.4933883" lon="5.117284"><ele>495.0</ele><time>2026-04-10T13:26:00.824Z</time></trkpt><trkpt lat="44.4935567" lon="5.1172105"><ele>491.0</ele><time>2026-04-10T13:26:01.825Z</time></trkpt><trkpt lat="44.4937214" lon="5.1171425"><ele>487.0</ele><time>2026-04-10T13:26:02.829Z</time></trkpt><trkpt lat="44.4938833" lon="5.1170776"><ele>487.0</ele><time>2026-04-10T13:26:03.839Z</time></trkpt><trkpt lat="44.4940414" lon="5.1170088"><ele>487.0</ele><time>2026-04-10T13:26:04.831Z</time></trkpt><trkpt lat="44.4941857" lon="5.1169318"><ele>487.0</ele><time>2026-04-10T13:26:05.833Z</time></trkpt><trkpt lat="44.4943163" lon="5.1168293"><ele>487.0</ele><time>2026-04-10T13:26:06.825Z</time></trkpt><trkpt lat="44.4944385" lon="5.1167167"><ele>487.0</ele><time>2026-04-10T13:26:07.825Z</time></trkpt><trkpt lat="44.4945602" lon="5.1166095"><ele>487.0</ele><time>2026-04-10T13:26:08.824Z</time></trkpt><trkpt lat="44.4946625" lon="5.1164571"><ele>487.0</ele><time>2026-04-10T13:26:09.821Z</time></trkpt><trkpt lat="44.4947672" lon="5.1163274"><ele>486.75</ele><time>2026-04-10T13:26:10.826Z</time></trkpt><trkpt lat="44.4948674" lon="5.1162004"><ele>486.5</ele><time>2026-04-10T13:26:11.832Z</time></trkpt><trkpt lat="44.4949659" lon="5.1160735"><ele>486.25</ele><time>2026-04-10T13:26:12.826Z</time></trkpt><trkpt lat="44.4950587" lon="5.115961"><ele>486.0</ele><time>2026-04-10T13:26:13.822Z</time></trkpt><trkpt lat="44.4951429" lon="5.115845"><ele>485.25</ele><time>2026-04-10T13:26:14.824Z</time></trkpt><trkpt lat="44.4953182" lon="5.1156592"><ele>484.5</ele><time>2026-04-10T13:26:16.82Z</time></trkpt><trkpt lat="44.4954044" lon="5.1155664"><ele>483.75</ele><time>2026-04-10T13:26:17.823Z</time></trkpt><trkpt lat="44.4954992" lon="5.1154993"><ele>483.0</ele><time>2026-04-10T13:26:18.819Z</time></trkpt><trkpt lat="44.4955834" lon="5.1154301"><ele>483.0</ele><time>2026-04-10T13:26:19.821Z</time></trkpt><trkpt lat="44.4956883" lon="5.1153866"><ele>482.99999999999994</ele><time>2026-04-10T13:26:20.821Z</time></trkpt><trkpt lat="44.4957853" lon="5.115351"><ele>482.99999999999994</ele><time>2026-04-10T13:26:21.824Z</time></trkpt><trkpt lat="44.4958697" lon="5.1153162"><ele>483.0</ele><time>2026-04-10T13:26:22.819Z</time></trkpt><trkpt lat="44.4959585" lon="5.115291"><ele>483.0</ele><time>2026-04-10T13:26:23.832Z</time></trkpt><trkpt lat="44.4960527" lon="5.1152446"><ele>483.0</ele><time>2026-04-10T13:26:24.823Z</time></trkpt><trkpt lat="44.4961384" lon="5.1151968"><ele>483.0</ele><time>2026-04-10T13:26:25.824Z</time></trkpt><trkpt lat="44.4962163" lon="5.1151654"><ele>483.0</ele><time>2026-04-10T13:26:26.825Z</time></trkpt><trkpt lat="44.4962894" lon="5.1151392"><ele>483.0</ele><time>2026-04-10T13:26:27.824Z</time></trkpt><trkpt lat="44.4963513" lon="5.1151185"><ele>483.0</ele><time>2026-04-10T13:26:28.826Z</time></trkpt><trkpt lat="44.496438" lon="5.1150921"><ele>483.0</ele><time>2026-04-10T13:26:30.822Z</time></trkpt><trkpt lat="44.4965019" lon="5.1150539"><ele>483.0</ele><time>2026-04-10T13:26:32.827Z</time></trkpt><trkpt lat="44.496548" lon="5.1149253"><ele>482.99999999999994</ele><time>2026-04-10T13:26:34.827Z</time></trkpt><trkpt lat="44.4965373" lon="5.1148201"><ele>482.99999999999994</ele><time>2026-04-10T13:26:35.825Z</time></trkpt><trkpt lat="44.4965206" lon="5.114703"><ele>483.0</ele><time>2026-04-10T13:26:36.822Z</time></trkpt><trkpt lat="44.4964969" lon="5.1145813"><ele>483.0</ele><time>2026-04-10T13:26:37.82Z</time></trkpt><trkpt lat="44.4964762" lon="5.1144464"><ele>482.4</ele><time>2026-04-10T13:26:38.825Z</time></trkpt><trkpt lat="44.4964553" lon="5.1143038"><ele>481.79999999999995</ele><time>2026-04-10T13:26:39.821Z</time></trkpt><trkpt lat="44.4964395" lon="5.1141638"><ele>481.2</ele><time>2026-04-10T13:26:40.825Z</time></trkpt><trkpt lat="44.4964203" lon="5.1140405"><ele>480.6</ele><time>2026-04-10T13:26:41.831Z</time></trkpt><trkpt lat="44.4964008" lon="5.1139234"><ele>480.0</ele><time>2026-04-10T13:26:42.821Z</time></trkpt><trkpt lat="44.496382" lon="5.1137978"><ele>479.8</ele><time>2026-04-10T13:26:43.821Z</time></trkpt><trkpt lat="44.4963564" lon="5.1136668"><ele>479.6</ele><time>2026-04-10T13:26:44.823Z</time></trkpt><trkpt lat="44.4963304" lon="5.1135306"><ele>479.4</ele><time>2026-04-10T13:26:45.827Z</time></trkpt><trkpt lat="44.4963072" lon="5.1133815"><ele>479.2</ele><time>2026-04-10T13:26:46.823Z</time></trkpt><trkpt lat="44.4963061" lon="5.1132201"><ele>479.0</ele><time>2026-04-10T13:26:47.824Z</time></trkpt><trkpt lat="44.496334" lon="5.1130646"><ele>479.5</ele><time>2026-04-10T13:26:48.824Z</time></trkpt><trkpt lat="44.4963939" lon="5.1129168"><ele>480.0</ele><time>2026-04-10T13:26:49.821Z</time></trkpt><trkpt lat="44.4964757" lon="5.1127969"><ele>480.5</ele><time>2026-04-10T13:26:50.829Z</time></trkpt><trkpt lat="44.49658" lon="5.1126957"><ele>481.0</ele><time>2026-04-10T13:26:51.831Z</time></trkpt><trkpt lat="44.4966967" lon="5.1126158"><ele>481.0</ele><time>2026-04-10T13:26:52.825Z</time></trkpt><trkpt lat="44.4968262" lon="5.1125374"><ele>481.0</ele><time>2026-04-10T13:26:53.822Z</time></trkpt><trkpt lat="44.4969625" lon="5.1124602"><ele>481.0</ele><time>2026-04-10T13:26:54.823Z</time></trkpt><trkpt lat="44.497101" lon="5.1123719"><ele>481.0</ele><time>2026-04-10T13:26:55.829Z</time></trkpt><trkpt lat="44.497248" lon="5.1122784"><ele>480.0</ele><time>2026-04-10T13:26:56.824Z</time></trkpt><trkpt lat="44.4973947" lon="5.1121857"><ele>479.0</ele><time>2026-04-10T13:26:57.823Z</time></trkpt><trkpt lat="44.4975409" lon="5.1120775"><ele>478.0</ele><time>2026-04-10T13:26:58.826Z</time></trkpt><trkpt lat="44.4976863" lon="5.111964"><ele>478.0</ele><time>2026-04-10T13:26:59.823Z</time></trkpt><trkpt lat="44.4978311" lon="5.1118243"><ele>478.0</ele><time>2026-04-10T13:27:00.827Z</time></trkpt><trkpt lat="44.4979788" lon="5.1116896"><ele>478.0</ele><time>2026-04-10T13:27:01.823Z</time></trkpt><trkpt lat="44.4981193" lon="5.1115712"><ele>477.33333333333337</ele><time>2026-04-10T13:27:02.824Z</time></trkpt><trkpt lat="44.4982575" lon="5.1114552"><ele>476.66666666666663</ele><time>2026-04-10T13:27:03.82Z</time></trkpt><trkpt lat="44.4983954" lon="5.111337"><ele>476.0</ele><time>2026-04-10T13:27:04.821Z</time></trkpt><trkpt lat="44.4985333" lon="5.1112098"><ele>476.0</ele><time>2026-04-10T13:27:05.823Z</time></trkpt><trkpt lat="44.4986625" lon="5.1110653"><ele>476.0</ele><time>2026-04-10T13:27:06.827Z</time></trkpt><trkpt lat="44.4987887" lon="5.1109124"><ele>476.0</ele><time>2026-04-10T13:27:07.825Z</time></trkpt><trkpt lat="44.4989116" lon="5.1107446"><ele>476.66666666666663</ele><time>2026-04-10T13:27:08.825Z</time></trkpt><trkpt lat="44.4990301" lon="5.1105897"><ele>477.33333333333337</ele><time>2026-04-10T13:27:09.822Z</time></trkpt><trkpt lat="44.4991508" lon="5.1104282"><ele>478.0</ele><time>2026-04-10T13:27:10.82Z</time></trkpt><trkpt lat="44.4992631" lon="5.1102531"><ele>478.0</ele><time>2026-04-10T13:27:11.823Z</time></trkpt><trkpt lat="44.4993763" lon="5.1100785"><ele>478.0</ele><time>2026-04-10T13:27:12.821Z</time></trkpt><trkpt lat="44.4994788" lon="5.1099279"><ele>478.0</ele><time>2026-04-10T13:27:13.821Z</time></trkpt><trkpt lat="44.4995617" lon="5.1097595"><ele>477.0</ele><time>2026-04-10T13:27:14.821Z</time></trkpt><trkpt lat="44.4996149" lon="5.1095801"><ele>476.0</ele><time>2026-04-10T13:27:15.823Z</time></trkpt><trkpt lat="44.4996348" lon="5.1093677"><ele>475.0</ele><time>2026-04-10T13:27:16.825Z</time></trkpt><trkpt lat="44.4996343" lon="5.1091527"><ele>474.0</ele><time>2026-04-10T13:27:17.822Z</time></trkpt><trkpt lat="44.4996366" lon="5.1089209"><ele>474.0</ele><time>2026-04-10T13:27:18.829Z</time></trkpt><trkpt lat="44.4996341" lon="5.1086921"><ele>474.0</ele><time>2026-04-10T13:27:19.823Z</time></trkpt><trkpt lat="44.4996336" lon="5.1084591"><ele>474.0</ele><time>2026-04-10T13:27:20.822Z</time></trkpt><trkpt lat="44.4996455" lon="5.1082123"><ele>474.0</ele><time>2026-04-10T13:27:21.822Z</time></trkpt><trkpt lat="44.499669" lon="5.1079675"><ele>474.0</ele><time>2026-04-10T13:27:22.826Z</time></trkpt><trkpt lat="44.4997025" lon="5.1077186"><ele>474.0</ele><time>2026-04-10T13:27:23.821Z</time></trkpt><trkpt lat="44.4997364" lon="5.1074673"><ele>474.33333333333337</ele><time>2026-04-10T13:27:24.82Z</time></trkpt><trkpt lat="44.4997728" lon="5.1072192"><ele>474.6666666666667</ele><time>2026-04-10T13:27:25.823Z</time></trkpt><trkpt lat="44.4998055" lon="5.1069641"><ele>475.0</ele><time>2026-04-10T13:27:26.821Z</time></trkpt><trkpt lat="44.4998429" lon="5.1067067"><ele>476.33333333333337</ele><time>2026-04-10T13:27:27.824Z</time></trkpt><trkpt lat="44.4998834" lon="5.1064481"><ele>477.66666666666663</ele><time>2026-04-10T13:27:28.825Z</time></trkpt><trkpt lat="44.4999233" lon="5.1061929"><ele>479.0</ele><time>2026-04-10T13:27:29.824Z</time></trkpt><trkpt lat="44.4999623" lon="5.1059337"><ele>482.0</ele><time>2026-04-10T13:27:30.825Z</time></trkpt><trkpt lat="44.5000044" lon="5.1056778"><ele>485.0</ele><time>2026-04-10T13:27:31.822Z</time></trkpt><trkpt lat="44.5000494" lon="5.1054174"><ele>488.0</ele><time>2026-04-10T13:27:32.825Z</time></trkpt><trkpt lat="44.5000901" lon="5.1051679"><ele>488.0</ele><time>2026-04-10T13:27:33.825Z</time></trkpt><trkpt lat="44.5001357" lon="5.1049224"><ele>488.0</ele><time>2026-04-10T13:27:34.824Z</time></trkpt><trkpt lat="44.5001829" lon="5.10468"><ele>488.0</ele><time>2026-04-10T13:27:35.824Z</time></trkpt><trkpt lat="44.5002356" lon="5.1044438"><ele>491.66666666666663</ele><time>2026-04-10T13:27:36.82Z</time></trkpt><trkpt lat="44.5002797" lon="5.1042099"><ele>495.33333333333337</ele><time>2026-04-10T13:27:37.835Z</time></trkpt><trkpt lat="44.5003284" lon="5.1039699"><ele>499.0</ele><time>2026-04-10T13:27:38.823Z</time></trkpt><trkpt lat="44.5003738" lon="5.1037216"><ele>488.6666666666667</ele><time>2026-04-10T13:27:39.822Z</time></trkpt><trkpt lat="44.5004237" lon="5.1034718"><ele>478.33333333333337</ele><time>2026-04-10T13:27:40.82Z</time></trkpt><trkpt lat="44.5004577" lon="5.1032093"><ele>468.0</ele><time>2026-04-10T13:27:41.821Z</time></trkpt><trkpt lat="44.500492" lon="5.102964"><ele>468.0</ele><time>2026-04-10T13:27:42.823Z</time></trkpt><trkpt lat="44.5005123" lon="5.1026892"><ele>468.0</ele><time>2026-04-10T13:27:43.82Z</time></trkpt><trkpt lat="44.5005238" lon="5.102407"><ele>468.0</ele><time>2026-04-10T13:27:44.82Z</time></trkpt><trkpt lat="44.5005405" lon="5.1021241"><ele>468.0</ele><time>2026-04-10T13:27:45.826Z</time></trkpt><trkpt lat="44.5005595" lon="5.1018278"><ele>468.0</ele><time>2026-04-10T13:27:46.833Z</time></trkpt><trkpt lat="44.5005627" lon="5.1015458"><ele>468.0</ele><time>2026-04-10T13:27:47.826Z</time></trkpt><trkpt lat="44.5005857" lon="5.1012625"><ele>467.66666666666663</ele><time>2026-04-10T13:27:48.821Z</time></trkpt><trkpt lat="44.5006139" lon="5.1009771"><ele>467.3333333333333</ele><time>2026-04-10T13:27:49.824Z</time></trkpt><trkpt lat="44.5006411" lon="5.1006985"><ele>467.0</ele><time>2026-04-10T13:27:50.821Z</time></trkpt><trkpt lat="44.5006596" lon="5.1004299"><ele>466.3333333333333</ele><time>2026-04-10T13:27:51.821Z</time></trkpt><trkpt lat="44.5006797" lon="5.1001697"><ele>465.66666666666663</ele><time>2026-04-10T13:27:52.82Z</time></trkpt><trkpt lat="44.5006865" lon="5.0999274"><ele>465.0</ele><time>2026-04-10T13:27:53.826Z</time></trkpt><trkpt lat="44.5006841" lon="5.0996985"><ele>465.0</ele><time>2026-04-10T13:27:54.822Z</time></trkpt><trkpt lat="44.5006679" lon="5.099457"><ele>465.0</ele><time>2026-04-10T13:27:55.825Z</time></trkpt><trkpt lat="44.5006326" lon="5.0992284"><ele>465.0</ele><time>2026-04-10T13:27:56.822Z</time></trkpt><trkpt lat="44.500587" lon="5.0990197"><ele>464.5</ele><time>2026-04-10T13:27:57.825Z</time></trkpt><trkpt lat="44.5005461" lon="5.0988238"><ele>464.0</ele><time>2026-04-10T13:27:58.823Z</time></trkpt><trkpt lat="44.5005184" lon="5.0986428"><ele>463.5</ele><time>2026-04-10T13:27:59.827Z</time></trkpt><trkpt lat="44.5004912" lon="5.0984865"><ele>463.0</ele><time>2026-04-10T13:28:00.826Z</time></trkpt><trkpt lat="44.5004629" lon="5.0983375"><ele>462.33333333333337</ele><time>2026-04-10T13:28:01.836Z</time></trkpt><trkpt lat="44.5004465" lon="5.0982208"><ele>461.6666666666667</ele><time>2026-04-10T13:28:02.836Z</time></trkpt><trkpt lat="44.500421" lon="5.0980996"><ele>461.0</ele><time>2026-04-10T13:28:03.835Z</time></trkpt><trkpt lat="44.5003966" lon="5.0979864"><ele>460.33333333333337</ele><time>2026-04-10T13:28:04.835Z</time></trkpt><trkpt lat="44.5003519" lon="5.0978701"><ele>459.6666666666667</ele><time>2026-04-10T13:28:05.838Z</time></trkpt><trkpt lat="44.5003219" lon="5.097747"><ele>459.0</ele><time>2026-04-10T13:28:06.827Z</time></trkpt><trkpt lat="44.5003023" lon="5.0976232"><ele>460.6</ele><time>2026-04-10T13:28:07.83Z</time></trkpt><trkpt lat="44.5002717" lon="5.0974963"><ele>462.2</ele><time>2026-04-10T13:28:08.833Z</time></trkpt><trkpt lat="44.5002398" lon="5.0973754"><ele>463.80000000000007</ele><time>2026-04-10T13:28:09.826Z</time></trkpt><trkpt lat="44.5002009" lon="5.0972701"><ele>465.40000000000003</ele><time>2026-04-10T13:28:10.824Z</time></trkpt><trkpt lat="44.5001649" lon="5.0971661"><ele>467.0</ele><time>2026-04-10T13:28:11.825Z</time></trkpt><trkpt lat="44.5000536" lon="5.0970385"><ele>467.0</ele><time>2026-04-10T13:28:13.822Z</time></trkpt><trkpt lat="44.4999755" lon="5.0969764"><ele>467.00000000000006</ele><time>2026-04-10T13:28:14.827Z</time></trkpt><trkpt lat="44.4998903" lon="5.0969099"><ele>467.00000000000006</ele><time>2026-04-10T13:28:15.856Z</time></trkpt><trkpt lat="44.4998062" lon="5.0968488"><ele>467.0</ele><time>2026-04-10T13:28:16.853Z</time></trkpt><trkpt lat="44.4997208" lon="5.0967819"><ele>467.0</ele><time>2026-04-10T13:28:17.832Z</time></trkpt><trkpt lat="44.4996416" lon="5.0967128"><ele>467.40000000000003</ele><time>2026-04-10T13:28:18.825Z</time></trkpt><trkpt lat="44.4995699" lon="5.096623"><ele>467.80000000000007</ele><time>2026-04-10T13:28:19.824Z</time></trkpt><trkpt lat="44.4995069" lon="5.0965194"><ele>468.2</ele><time>2026-04-10T13:28:20.828Z</time></trkpt><trkpt lat="44.4994405" lon="5.0964265"><ele>468.6</ele><time>2026-04-10T13:28:21.829Z</time></trkpt><trkpt lat="44.4993823" lon="5.0963152"><ele>469.0</ele><time>2026-04-10T13:28:22.828Z</time></trkpt><trkpt lat="44.4993312" lon="5.0961942"><ele>469.6</ele><time>2026-04-10T13:28:23.832Z</time></trkpt><trkpt lat="44.4993274" lon="5.0960411"><ele>470.2</ele><time>2026-04-10T13:28:24.833Z</time></trkpt><trkpt lat="44.4993468" lon="5.0959041"><ele>470.80000000000007</ele><time>2026-04-10T13:28:25.828Z</time></trkpt><trkpt lat="44.499391" lon="5.095775"><ele>471.40000000000003</ele><time>2026-04-10T13:28:26.826Z</time></trkpt><trkpt lat="44.4994441" lon="5.0956307"><ele>472.0</ele><time>2026-04-10T13:28:27.824Z</time></trkpt><trkpt lat="44.4995151" lon="5.0954924"><ele>471.25</ele><time>2026-04-10T13:28:28.829Z</time></trkpt><trkpt lat="44.499586" lon="5.0953347"><ele>470.5</ele><time>2026-04-10T13:28:29.831Z</time></trkpt><trkpt lat="44.4996543" lon="5.0951733"><ele>469.75</ele><time>2026-04-10T13:28:30.831Z</time></trkpt><trkpt lat="44.4997276" lon="5.0950004"><ele>469.0</ele><time>2026-04-10T13:28:31.828Z</time></trkpt><trkpt lat="44.4997926" lon="5.0948168"><ele>469.0</ele><time>2026-04-10T13:28:32.828Z</time></trkpt><trkpt lat="44.4998616" lon="5.0946403"><ele>469.0</ele><time>2026-04-10T13:28:33.831Z</time></trkpt><trkpt lat="44.4999272" lon="5.0944765"><ele>469.0</ele><time>2026-04-10T13:28:34.832Z</time></trkpt><trkpt lat="44.4999855" lon="5.0943144"><ele>469.0</ele><time>2026-04-10T13:28:35.827Z</time></trkpt><trkpt lat="44.5000388" lon="5.0941491"><ele>469.75</ele><time>2026-04-10T13:28:36.826Z</time></trkpt><trkpt lat="44.5000904" lon="5.0939794"><ele>470.5</ele><time>2026-04-10T13:28:37.826Z</time></trkpt><trkpt lat="44.5001405" lon="5.0938253"><ele>471.25</ele><time>2026-04-10T13:28:38.82Z</time></trkpt><trkpt lat="44.5001924" lon="5.0936622"><ele>472.0</ele><time>2026-04-10T13:28:39.819Z</time></trkpt><trkpt lat="44.500239" lon="5.0934945"><ele>472.0</ele><time>2026-04-10T13:28:40.821Z</time></trkpt><trkpt lat="44.5002834" lon="5.0933237"><ele>472.0</ele><time>2026-04-10T13:28:41.82Z</time></trkpt><trkpt lat="44.5003199" lon="5.0931515"><ele>472.0</ele><time>2026-04-10T13:28:42.824Z</time></trkpt><trkpt lat="44.5003375" lon="5.0929647"><ele>472.0</ele><time>2026-04-10T13:28:43.834Z</time></trkpt><trkpt lat="44.500351" lon="5.0927718"><ele>472.0</ele><time>2026-04-10T13:28:44.825Z</time></trkpt><trkpt lat="44.5003496" lon="5.092583"><ele>472.0</ele><time>2026-04-10T13:28:45.821Z</time></trkpt><trkpt lat="44.5003419" lon="5.0923829"><ele>472.0</ele><time>2026-04-10T13:28:46.822Z</time></trkpt><trkpt lat="44.500336" lon="5.0921782"><ele>472.0</ele><time>2026-04-10T13:28:47.832Z</time></trkpt><trkpt lat="44.5003303" lon="5.0919762"><ele>472.0</ele><time>2026-04-10T13:28:48.83Z</time></trkpt><trkpt lat="44.5003502" lon="5.0917796"><ele>472.0</ele><time>2026-04-10T13:28:49.827Z</time></trkpt><trkpt lat="44.5003865" lon="5.091581"><ele>472.0</ele><time>2026-04-10T13:28:50.834Z</time></trkpt><trkpt lat="44.5004415" lon="5.0913852"><ele>472.0</ele><time>2026-04-10T13:28:51.83Z</time></trkpt><trkpt lat="44.5005038" lon="5.0911893"><ele>469.33333333333337</ele><time>2026-04-10T13:28:52.826Z</time></trkpt><trkpt lat="44.5005652" lon="5.0909934"><ele>466.66666666666663</ele><time>2026-04-10T13:28:53.826Z</time></trkpt><trkpt lat="44.50063" lon="5.0907811"><ele>464.0</ele><time>2026-04-10T13:28:54.829Z</time></trkpt><trkpt lat="44.5006968" lon="5.0905818"><ele>464.0</ele><time>2026-04-10T13:28:55.826Z</time></trkpt><trkpt lat="44.5007659" lon="5.0903762"><ele>464.0</ele><time>2026-04-10T13:28:56.834Z</time></trkpt><trkpt lat="44.5008541" lon="5.0901842"><ele>464.0</ele><time>2026-04-10T13:28:57.826Z</time></trkpt><trkpt lat="44.5009418" lon="5.0899916"><ele>470.66666666666663</ele><time>2026-04-10T13:28:58.823Z</time></trkpt><trkpt lat="44.501032" lon="5.0898002"><ele>477.33333333333337</ele><time>2026-04-10T13:28:59.824Z</time></trkpt><trkpt lat="44.5011237" lon="5.0896168"><ele>484.0</ele><time>2026-04-10T13:29:00.824Z</time></trkpt><trkpt lat="44.5012134" lon="5.0894224"><ele>480.0</ele><time>2026-04-10T13:29:01.824Z</time></trkpt><trkpt lat="44.5013224" lon="5.089269"><ele>476.0</ele><time>2026-04-10T13:29:02.825Z</time></trkpt><trkpt lat="44.5014137" lon="5.0891512"><ele>472.0</ele><time>2026-04-10T13:29:03.827Z</time></trkpt><trkpt lat="44.501518" lon="5.0890396"><ele>468.0</ele><time>2026-04-10T13:29:04.825Z</time></trkpt><trkpt lat="44.5016229" lon="5.0889549"><ele>468.0</ele><time>2026-04-10T13:29:05.825Z</time></trkpt><trkpt lat="44.5017111" lon="5.0888936"><ele>468.0</ele><time>2026-04-10T13:29:06.826Z</time></trkpt><trkpt lat="44.501793" lon="5.0888514"><ele>468.0</ele><time>2026-04-10T13:29:07.824Z</time></trkpt><trkpt lat="44.501873" lon="5.0888121"><ele>468.0</ele><time>2026-04-10T13:29:08.825Z</time></trkpt><trkpt lat="44.5019395" lon="5.0887757"><ele>468.0</ele><time>2026-04-10T13:29:09.826Z</time></trkpt><trkpt lat="44.502009" lon="5.0887104"><ele>468.0</ele><time>2026-04-10T13:29:10.822Z</time></trkpt><trkpt lat="44.5020734" lon="5.0886278"><ele>468.0</ele><time>2026-04-10T13:29:11.826Z</time></trkpt><trkpt lat="44.5021377" lon="5.0885284"><ele>468.0</ele><time>2026-04-10T13:29:12.827Z</time></trkpt><trkpt lat="44.5022082" lon="5.0884364"><ele>468.0</ele><time>2026-04-10T13:29:13.826Z</time></trkpt><trkpt lat="44.5023133" lon="5.0883408"><ele>468.0</ele><time>2026-04-10T13:29:14.825Z</time></trkpt><trkpt lat="44.5024293" lon="5.0882467"><ele>468.0</ele><time>2026-04-10T13:29:15.822Z</time></trkpt><trkpt lat="44.5025354" lon="5.0881591"><ele>468.0</ele><time>2026-04-10T13:29:16.824Z</time></trkpt><trkpt lat="44.5026433" lon="5.0880612"><ele>468.0</ele><time>2026-04-10T13:29:17.832Z</time></trkpt><trkpt lat="44.5027417" lon="5.0879481"><ele>468.0</ele><time>2026-04-10T13:29:18.832Z</time></trkpt><trkpt lat="44.5028404" lon="5.0878213"><ele>464.5</ele><time>2026-04-10T13:29:19.826Z</time></trkpt><trkpt lat="44.5029313" lon="5.0876609"><ele>461.0</ele><time>2026-04-10T13:29:20.825Z</time></trkpt><trkpt lat="44.5030166" lon="5.0875134"><ele>457.5</ele><time>2026-04-10T13:29:21.823Z</time></trkpt><trkpt lat="44.5031015" lon="5.0873582"><ele>454.0</ele><time>2026-04-10T13:29:22.826Z</time></trkpt><trkpt lat="44.5031827" lon="5.0872138"><ele>454.0</ele><time>2026-04-10T13:29:23.826Z</time></trkpt><trkpt lat="44.503254" lon="5.0870507"><ele>454.0</ele><time>2026-04-10T13:29:24.827Z</time></trkpt><trkpt lat="44.5032791" lon="5.0868499"><ele>454.0</ele><time>2026-04-10T13:29:25.826Z</time></trkpt><trkpt lat="44.5032754" lon="5.0866561"><ele>454.0</ele><time>2026-04-10T13:29:26.82Z</time></trkpt><trkpt lat="44.5032111" lon="5.086457"><ele>453.33333333333337</ele><time>2026-04-10T13:29:27.823Z</time></trkpt><trkpt lat="44.5031235" lon="5.0862649"><ele>452.66666666666663</ele><time>2026-04-10T13:29:28.823Z</time></trkpt><trkpt lat="44.5030275" lon="5.0860688"><ele>452.0</ele><time>2026-04-10T13:29:29.822Z</time></trkpt><trkpt lat="44.5029253" lon="5.0858645"><ele>452.3333333333333</ele><time>2026-04-10T13:29:30.823Z</time></trkpt><trkpt lat="44.5028227" lon="5.0856535"><ele>452.66666666666663</ele><time>2026-04-10T13:29:31.822Z</time></trkpt><trkpt lat="44.5027172" lon="5.0854385"><ele>453.0</ele><time>2026-04-10T13:29:32.818Z</time></trkpt><trkpt lat="44.5026062" lon="5.0852173"><ele>453.0</ele><time>2026-04-10T13:29:33.822Z</time></trkpt><trkpt lat="44.5024884" lon="5.0849981"><ele>453.0</ele><time>2026-04-10T13:29:34.823Z</time></trkpt><trkpt lat="44.502369" lon="5.0847782"><ele>453.0</ele><time>2026-04-10T13:29:35.821Z</time></trkpt><trkpt lat="44.5022453" lon="5.0845604"><ele>453.0</ele><time>2026-04-10T13:29:36.821Z</time></trkpt><trkpt lat="44.5021198" lon="5.0843474"><ele>453.0</ele><time>2026-04-10T13:29:37.823Z</time></trkpt><trkpt lat="44.5020007" lon="5.0841328"><ele>453.0</ele><time>2026-04-10T13:29:38.822Z</time></trkpt><trkpt lat="44.5018915" lon="5.0839102"><ele>453.0</ele><time>2026-04-10T13:29:39.833Z</time></trkpt><trkpt lat="44.5017959" lon="5.0836791"><ele>453.0</ele><time>2026-04-10T13:29:40.823Z</time></trkpt><trkpt lat="44.5017026" lon="5.0834457"><ele>453.0</ele><time>2026-04-10T13:29:41.823Z</time></trkpt><trkpt lat="44.5016211" lon="5.0832081"><ele>452.33333333333337</ele><time>2026-04-10T13:29:42.819Z</time></trkpt><trkpt lat="44.5015681" lon="5.082961"><ele>451.6666666666667</ele><time>2026-04-10T13:29:43.826Z</time></trkpt><trkpt lat="44.5015229" lon="5.0827124"><ele>451.0</ele><time>2026-04-10T13:29:44.825Z</time></trkpt><trkpt lat="44.5014824" lon="5.0824551"><ele>448.33333333333337</ele><time>2026-04-10T13:29:45.822Z</time></trkpt><trkpt lat="44.5014614" lon="5.0822099"><ele>445.66666666666663</ele><time>2026-04-10T13:29:46.822Z</time></trkpt><trkpt lat="44.5014449" lon="5.0819665"><ele>443.0</ele><time>2026-04-10T13:29:47.824Z</time></trkpt><trkpt lat="44.5014362" lon="5.0817323"><ele>442.3333333333333</ele><time>2026-04-10T13:29:48.827Z</time></trkpt><trkpt lat="44.501434" lon="5.0815113"><ele>441.66666666666663</ele><time>2026-04-10T13:29:49.824Z</time></trkpt><trkpt lat="44.5014107" lon="5.0812933"><ele>441.0</ele><time>2026-04-10T13:29:50.835Z</time></trkpt><trkpt lat="44.5013801" lon="5.0810784"><ele>441.0</ele><time>2026-04-10T13:29:51.833Z</time></trkpt><trkpt lat="44.5013271" lon="5.0808648"><ele>441.0</ele><time>2026-04-10T13:29:52.829Z</time></trkpt><trkpt lat="44.5012509" lon="5.0806599"><ele>441.0</ele><time>2026-04-10T13:29:53.825Z</time></trkpt><trkpt lat="44.5011433" lon="5.080462"><ele>440.0</ele><time>2026-04-10T13:29:54.832Z</time></trkpt><trkpt lat="44.5010505" lon="5.080252"><ele>439.0</ele><time>2026-04-10T13:29:55.825Z</time></trkpt><trkpt lat="44.5009537" lon="5.0800394"><ele>438.0</ele><time>2026-04-10T13:29:56.826Z</time></trkpt><trkpt lat="44.5008505" lon="5.079832"><ele>438.0</ele><time>2026-04-10T13:29:57.821Z</time></trkpt><trkpt lat="44.5007545" lon="5.0796071"><ele>438.0</ele><time>2026-04-10T13:29:58.827Z</time></trkpt><trkpt lat="44.500663" lon="5.0793812"><ele>438.0</ele><time>2026-04-10T13:29:59.82Z</time></trkpt><trkpt lat="44.50057" lon="5.0791515"><ele>438.33333333333337</ele><time>2026-04-10T13:30:00.824Z</time></trkpt><trkpt lat="44.5004879" lon="5.0789166"><ele>438.6666666666667</ele><time>2026-04-10T13:30:01.826Z</time></trkpt><trkpt lat="44.5004178" lon="5.0786709"><ele>439.0</ele><time>2026-04-10T13:30:02.825Z</time></trkpt><trkpt lat="44.5003653" lon="5.0784251"><ele>443.6666666666667</ele><time>2026-04-10T13:30:03.829Z</time></trkpt><trkpt lat="44.5003306" lon="5.0781731"><ele>448.33333333333337</ele><time>2026-04-10T13:30:04.832Z</time></trkpt><trkpt lat="44.500324" lon="5.0779159"><ele>453.0</ele><time>2026-04-10T13:30:05.826Z</time></trkpt><trkpt lat="44.5003378" lon="5.0776571"><ele>452.0</ele><time>2026-04-10T13:30:06.834Z</time></trkpt><trkpt lat="44.5003532" lon="5.0774062"><ele>451.0</ele><time>2026-04-10T13:30:07.825Z</time></trkpt><trkpt lat="44.5003917" lon="5.0771542"><ele>450.0</ele><time>2026-04-10T13:30:08.825Z</time></trkpt><trkpt lat="44.500423" lon="5.076903"><ele>450.0</ele><time>2026-04-10T13:30:09.823Z</time></trkpt><trkpt lat="44.5004723" lon="5.0766583"><ele>450.0</ele><time>2026-04-10T13:30:10.827Z</time></trkpt><trkpt lat="44.5004998" lon="5.0764116"><ele>450.0</ele><time>2026-04-10T13:30:11.825Z</time></trkpt><trkpt lat="44.5005248" lon="5.0761527"><ele>450.0</ele><time>2026-04-10T13:30:12.829Z</time></trkpt><trkpt lat="44.5005339" lon="5.075891"><ele>450.0</ele><time>2026-04-10T13:30:13.824Z</time></trkpt><trkpt lat="44.5005418" lon="5.075621"><ele>450.0</ele><time>2026-04-10T13:30:14.823Z</time></trkpt><trkpt lat="44.5005557" lon="5.0753518"><ele>450.0</ele><time>2026-04-10T13:30:15.824Z</time></trkpt><trkpt lat="44.5005781" lon="5.075089"><ele>450.0</ele><time>2026-04-10T13:30:16.824Z</time></trkpt><trkpt lat="44.5006064" lon="5.0748338"><ele>450.0</ele><time>2026-04-10T13:30:17.823Z</time></trkpt><trkpt lat="44.5006726" lon="5.0745685"><ele>449.66666666666663</ele><time>2026-04-10T13:30:18.825Z</time></trkpt><trkpt lat="44.500737" lon="5.0743215"><ele>449.3333333333333</ele><time>2026-04-10T13:30:19.825Z</time></trkpt><trkpt lat="44.5007959" lon="5.0740711"><ele>449.0</ele><time>2026-04-10T13:30:20.826Z</time></trkpt><trkpt lat="44.5008442" lon="5.0738078"><ele>448.3333333333333</ele><time>2026-04-10T13:30:21.826Z</time></trkpt><trkpt lat="44.500873" lon="5.0735396"><ele>447.66666666666663</ele><time>2026-04-10T13:30:22.825Z</time></trkpt><trkpt lat="44.5008848" lon="5.0732727"><ele>447.0</ele><time>2026-04-10T13:30:23.826Z</time></trkpt><trkpt lat="44.5008849" lon="5.0730002"><ele>446.33333333333337</ele><time>2026-04-10T13:30:24.823Z</time></trkpt><trkpt lat="44.5008771" lon="5.0727226"><ele>445.6666666666667</ele><time>2026-04-10T13:30:25.826Z</time></trkpt><trkpt lat="44.5008673" lon="5.0724473"><ele>445.0</ele><time>2026-04-10T13:30:26.82Z</time></trkpt><trkpt lat="44.5008679" lon="5.0721758"><ele>445.0</ele><time>2026-04-10T13:30:27.826Z</time></trkpt><trkpt lat="44.5008606" lon="5.0719136"><ele>445.0</ele><time>2026-04-10T13:30:28.82Z</time></trkpt><trkpt lat="44.5008597" lon="5.0716552"><ele>445.0</ele><time>2026-04-10T13:30:29.824Z</time></trkpt><trkpt lat="44.5008661" lon="5.0714047"><ele>444.33333333333337</ele><time>2026-04-10T13:30:30.828Z</time></trkpt><trkpt lat="44.5008956" lon="5.0711699"><ele>443.66666666666663</ele><time>2026-04-10T13:30:31.824Z</time></trkpt><trkpt lat="44.5009297" lon="5.0709372"><ele>443.0</ele><time>2026-04-10T13:30:32.821Z</time></trkpt><trkpt lat="44.5009647" lon="5.0707172"><ele>441.66666666666663</ele><time>2026-04-10T13:30:33.833Z</time></trkpt><trkpt lat="44.5009755" lon="5.0705028"><ele>440.33333333333337</ele><time>2026-04-10T13:30:34.828Z</time></trkpt><trkpt lat="44.5009584" lon="5.070296"><ele>439.0</ele><time>2026-04-10T13:30:35.823Z</time></trkpt><trkpt lat="44.5009092" lon="5.0700943"><ele>434.0</ele><time>2026-04-10T13:30:36.826Z</time></trkpt><trkpt lat="44.5008455" lon="5.0698959"><ele>429.0</ele><time>2026-04-10T13:30:37.83Z</time></trkpt><trkpt lat="44.5007444" lon="5.069731"><ele>424.0</ele><time>2026-04-10T13:30:38.831Z</time></trkpt><trkpt lat="44.500587" lon="5.0695719"><ele>424.0</ele><time>2026-04-10T13:30:39.835Z</time></trkpt><trkpt lat="44.50045" lon="5.0694034"><ele>424.0</ele><time>2026-04-10T13:30:40.821Z</time></trkpt><trkpt lat="44.5003052" lon="5.0692348"><ele>424.0</ele><time>2026-04-10T13:30:41.826Z</time></trkpt><trkpt lat="44.5001538" lon="5.0690627"><ele>423.33333333333337</ele><time>2026-04-10T13:30:42.826Z</time></trkpt><trkpt lat="44.4999957" lon="5.0688902"><ele>422.66666666666663</ele><time>2026-04-10T13:30:43.824Z</time></trkpt><trkpt lat="44.4998468" lon="5.0687133"><ele>422.0</ele><time>2026-04-10T13:30:44.821Z</time></trkpt><trkpt lat="44.4997024" lon="5.0685143"><ele>427.3333333333333</ele><time>2026-04-10T13:30:45.82Z</time></trkpt><trkpt lat="44.4995687" lon="5.0683063"><ele>432.66666666666663</ele><time>2026-04-10T13:30:46.822Z</time></trkpt><trkpt lat="44.4994464" lon="5.0680728"><ele>438.0</ele><time>2026-04-10T13:30:47.822Z</time></trkpt><trkpt lat="44.4993419" lon="5.0678282"><ele>438.0</ele><time>2026-04-10T13:30:48.821Z</time></trkpt><trkpt lat="44.4992428" lon="5.0675927"><ele>438.0</ele><time>2026-04-10T13:30:49.824Z</time></trkpt><trkpt lat="44.4991326" lon="5.0673532"><ele>438.0</ele><time>2026-04-10T13:30:50.821Z</time></trkpt><trkpt lat="44.4990625" lon="5.0670879"><ele>434.0</ele><time>2026-04-10T13:30:51.82Z</time></trkpt><trkpt lat="44.4989824" lon="5.0668303"><ele>430.0</ele><time>2026-04-10T13:30:52.82Z</time></trkpt><trkpt lat="44.498931" lon="5.0665652"><ele>426.0</ele><time>2026-04-10T13:30:53.824Z</time></trkpt><trkpt lat="44.4988732" lon="5.0663028"><ele>424.0</ele><time>2026-04-10T13:30:54.82Z</time></trkpt><trkpt lat="44.4988137" lon="5.0660351"><ele>422.0</ele><time>2026-04-10T13:30:55.821Z</time></trkpt><trkpt lat="44.4987765" lon="5.0657548"><ele>420.0</ele><time>2026-04-10T13:30:56.823Z</time></trkpt><trkpt lat="44.4987527" lon="5.0654702"><ele>425.33333333333337</ele><time>2026-04-10T13:30:57.823Z</time></trkpt><trkpt lat="44.4987081" lon="5.0651952"><ele>430.6666666666667</ele><time>2026-04-10T13:30:58.823Z</time></trkpt><trkpt lat="44.498659" lon="5.0649184"><ele>436.0</ele><time>2026-04-10T13:30:59.822Z</time></trkpt><trkpt lat="44.498611" lon="5.0646419"><ele>436.0</ele><time>2026-04-10T13:31:00.822Z</time></trkpt><trkpt lat="44.4985563" lon="5.0643596"><ele>436.0</ele><time>2026-04-10T13:31:01.822Z</time></trkpt><trkpt lat="44.4985064" lon="5.0640773"><ele>436.0</ele><time>2026-04-10T13:31:02.823Z</time></trkpt><trkpt lat="44.4984267" lon="5.0638145"><ele>431.6666666666667</ele><time>2026-04-10T13:31:03.822Z</time></trkpt><trkpt lat="44.4983411" lon="5.0635473"><ele>427.33333333333337</ele><time>2026-04-10T13:31:04.821Z</time></trkpt><trkpt lat="44.498251" lon="5.0632885"><ele>423.0</ele><time>2026-04-10T13:31:05.825Z</time></trkpt><trkpt lat="44.4981541" lon="5.0630323"><ele>421.33333333333337</ele><time>2026-04-10T13:31:06.823Z</time></trkpt><trkpt lat="44.4980503" lon="5.0627857"><ele>419.6666666666667</ele><time>2026-04-10T13:31:07.826Z</time></trkpt><trkpt lat="44.4979528" lon="5.0625408"><ele>418.0</ele><time>2026-04-10T13:31:08.827Z</time></trkpt><trkpt lat="44.4978486" lon="5.06231"><ele>418.0</ele><time>2026-04-10T13:31:09.825Z</time></trkpt><trkpt lat="44.4977452" lon="5.0620826"><ele>418.0</ele><time>2026-04-10T13:31:10.824Z</time></trkpt><trkpt lat="44.4976393" lon="5.0618559"><ele>418.0</ele><time>2026-04-10T13:31:11.83Z</time></trkpt><trkpt lat="44.4975073" lon="5.061672"><ele>418.6666666666667</ele><time>2026-04-10T13:31:12.834Z</time></trkpt><trkpt lat="44.4973633" lon="5.0614879"><ele>419.33333333333337</ele><time>2026-04-10T13:31:13.825Z</time></trkpt><trkpt lat="44.4972166" lon="5.0613077"><ele>420.0</ele><time>2026-04-10T13:31:14.819Z</time></trkpt><trkpt lat="44.49707" lon="5.0611248"><ele>420.0</ele><time>2026-04-10T13:31:15.826Z</time></trkpt><trkpt lat="44.4969355" lon="5.0609311"><ele>420.0</ele><time>2026-04-10T13:31:16.823Z</time></trkpt><trkpt lat="44.4968106" lon="5.0607278"><ele>420.0</ele><time>2026-04-10T13:31:17.824Z</time></trkpt><trkpt lat="44.4966987" lon="5.0605126"><ele>417.66666666666663</ele><time>2026-04-10T13:31:18.824Z</time></trkpt><trkpt lat="44.4965909" lon="5.0602996"><ele>415.3333333333333</ele><time>2026-04-10T13:31:19.822Z</time></trkpt><trkpt lat="44.4965011" lon="5.0600789"><ele>413.0</ele><time>2026-04-10T13:31:20.827Z</time></trkpt><trkpt lat="44.4964592" lon="5.0598326"><ele>412.0</ele><time>2026-04-10T13:31:21.822Z</time></trkpt><trkpt lat="44.496422" lon="5.05958"><ele>411.0</ele><time>2026-04-10T13:31:22.821Z</time></trkpt><trkpt lat="44.4963891" lon="5.0593221"><ele>410.0</ele><time>2026-04-10T13:31:23.822Z</time></trkpt><trkpt lat="44.4963545" lon="5.0590584"><ele>409.3333333333333</ele><time>2026-04-10T13:31:24.819Z</time></trkpt><trkpt lat="44.4963208" lon="5.0587886"><ele>408.66666666666663</ele><time>2026-04-10T13:31:25.824Z</time></trkpt><trkpt lat="44.4962871" lon="5.0585212"><ele>408.0</ele><time>2026-04-10T13:31:26.82Z</time></trkpt><trkpt lat="44.4962584" lon="5.058251"><ele>412.33333333333337</ele><time>2026-04-10T13:31:27.824Z</time></trkpt><trkpt lat="44.4962329" lon="5.0579811"><ele>416.6666666666667</ele><time>2026-04-10T13:31:28.822Z</time></trkpt><trkpt lat="44.4962108" lon="5.0577063"><ele>421.0</ele><time>2026-04-10T13:31:29.821Z</time></trkpt><trkpt lat="44.4961905" lon="5.0574367"><ele>421.0</ele><time>2026-04-10T13:31:30.822Z</time></trkpt><trkpt lat="44.4961679" lon="5.0571573"><ele>421.0</ele><time>2026-04-10T13:31:31.827Z</time></trkpt><trkpt lat="44.4961559" lon="5.0568841"><ele>421.0</ele><time>2026-04-10T13:31:32.82Z</time></trkpt><trkpt lat="44.4961436" lon="5.0566088"><ele>422.0</ele><time>2026-04-10T13:31:33.822Z</time></trkpt><trkpt lat="44.4961337" lon="5.0563283"><ele>423.0</ele><time>2026-04-10T13:31:34.826Z</time></trkpt><trkpt lat="44.4961204" lon="5.0560516"><ele>424.0</ele><time>2026-04-10T13:31:35.822Z</time></trkpt><trkpt lat="44.4961046" lon="5.0557793"><ele>424.0</ele><time>2026-04-10T13:31:36.825Z</time></trkpt><trkpt lat="44.4961" lon="5.0555143"><ele>424.0</ele><time>2026-04-10T13:31:37.826Z</time></trkpt><trkpt lat="44.4960845" lon="5.0552736"><ele>424.0</ele><time>2026-04-10T13:31:38.822Z</time></trkpt><trkpt lat="44.4960711" lon="5.055026"><ele>424.0</ele><time>2026-04-10T13:31:39.826Z</time></trkpt><trkpt lat="44.4960657" lon="5.0547762"><ele>424.0</ele><time>2026-04-10T13:31:40.822Z</time></trkpt><trkpt lat="44.4960828" lon="5.0545195"><ele>424.0</ele><time>2026-04-10T13:31:41.823Z</time></trkpt><trkpt lat="44.4961054" lon="5.0542675"><ele>425.0</ele><time>2026-04-10T13:31:42.822Z</time></trkpt><trkpt lat="44.496122" lon="5.0540133"><ele>426.0</ele><time>2026-04-10T13:31:43.827Z</time></trkpt><trkpt lat="44.4961537" lon="5.0537657"><ele>427.0</ele><time>2026-04-10T13:31:44.819Z</time></trkpt><trkpt lat="44.4961775" lon="5.0535099"><ele>428.0</ele><time>2026-04-10T13:31:45.82Z</time></trkpt><trkpt lat="44.4962124" lon="5.0532546"><ele>429.0</ele><time>2026-04-10T13:31:46.82Z</time></trkpt><trkpt lat="44.4962376" lon="5.0529953"><ele>430.0</ele><time>2026-04-10T13:31:47.822Z</time></trkpt><trkpt lat="44.4962683" lon="5.0527325"><ele>421.6666666666667</ele><time>2026-04-10T13:31:48.827Z</time></trkpt><trkpt lat="44.4963013" lon="5.0524725"><ele>413.33333333333337</ele><time>2026-04-10T13:31:49.823Z</time></trkpt><trkpt lat="44.496339" lon="5.0522101"><ele>405.0</ele><time>2026-04-10T13:31:50.819Z</time></trkpt><trkpt lat="44.4963766" lon="5.0519396"><ele>405.0</ele><time>2026-04-10T13:31:51.823Z</time></trkpt><trkpt lat="44.4964134" lon="5.0516784"><ele>405.0</ele><time>2026-04-10T13:31:52.823Z</time></trkpt><trkpt lat="44.4964547" lon="5.0514153"><ele>405.0</ele><time>2026-04-10T13:31:53.826Z</time></trkpt><trkpt lat="44.4964948" lon="5.0511406"><ele>406.66666666666663</ele><time>2026-04-10T13:31:54.82Z</time></trkpt><trkpt lat="44.4965451" lon="5.0508617"><ele>408.3333333333333</ele><time>2026-04-10T13:31:55.818Z</time></trkpt><trkpt lat="44.4966173" lon="5.0506372"><ele>410.0</ele><time>2026-04-10T13:31:56.82Z</time></trkpt><trkpt lat="44.4966925" lon="5.0504033"><ele>413.0</ele><time>2026-04-10T13:31:57.822Z</time></trkpt><trkpt lat="44.4967665" lon="5.0501772"><ele>416.0</ele><time>2026-04-10T13:31:58.818Z</time></trkpt><trkpt lat="44.4968388" lon="5.049938"><ele>419.0</ele><time>2026-04-10T13:31:59.819Z</time></trkpt><trkpt lat="44.496904" lon="5.0496948"><ele>422.0</ele><time>2026-04-10T13:32:00.826Z</time></trkpt><trkpt lat="44.4969576" lon="5.0494554"><ele>425.0</ele><time>2026-04-10T13:32:01.819Z</time></trkpt><trkpt lat="44.4970121" lon="5.0492154"><ele>428.0</ele><time>2026-04-10T13:32:02.824Z</time></trkpt><trkpt lat="44.4970751" lon="5.0489701"><ele>424.66666666666663</ele><time>2026-04-10T13:32:03.818Z</time></trkpt><trkpt lat="44.4971502" lon="5.0487283"><ele>421.33333333333337</ele><time>2026-04-10T13:32:04.82Z</time></trkpt><trkpt lat="44.4972384" lon="5.0484965"><ele>418.0</ele><time>2026-04-10T13:32:05.822Z</time></trkpt><trkpt lat="44.4973327" lon="5.0482749"><ele>418.0</ele><time>2026-04-10T13:32:06.823Z</time></trkpt><trkpt lat="44.4974371" lon="5.0480603"><ele>418.0</ele><time>2026-04-10T13:32:07.825Z</time></trkpt><trkpt lat="44.4975362" lon="5.0478535"><ele>418.0</ele><time>2026-04-10T13:32:08.824Z</time></trkpt><trkpt lat="44.4976357" lon="5.0476339"><ele>423.33333333333337</ele><time>2026-04-10T13:32:09.82Z</time></trkpt><trkpt lat="44.4977212" lon="5.0474098"><ele>428.66666666666663</ele><time>2026-04-10T13:32:10.828Z</time></trkpt><trkpt lat="44.4978085" lon="5.047183"><ele>434.0</ele><time>2026-04-10T13:32:11.824Z</time></trkpt><trkpt lat="44.4978915" lon="5.0469506"><ele>420.3333333333333</ele><time>2026-04-10T13:32:12.826Z</time></trkpt><trkpt lat="44.4979801" lon="5.0467311"><ele>406.66666666666663</ele><time>2026-04-10T13:32:13.824Z</time></trkpt><trkpt lat="44.4980379" lon="5.0464942"><ele>393.0</ele><time>2026-04-10T13:32:14.822Z</time></trkpt><trkpt lat="44.498076" lon="5.0462428"><ele>393.0</ele><time>2026-04-10T13:32:15.826Z</time></trkpt><trkpt lat="44.4980912" lon="5.0459782"><ele>393.0</ele><time>2026-04-10T13:32:16.823Z</time></trkpt><trkpt lat="44.4980868" lon="5.0457096"><ele>393.0</ele><time>2026-04-10T13:32:17.823Z</time></trkpt><trkpt lat="44.4980835" lon="5.0454451"><ele>392.66666666666663</ele><time>2026-04-10T13:32:18.822Z</time></trkpt><trkpt lat="44.4980748" lon="5.0451834"><ele>392.3333333333333</ele><time>2026-04-10T13:32:19.819Z</time></trkpt><trkpt lat="44.4980547" lon="5.0449141"><ele>392.0</ele><time>2026-04-10T13:32:20.82Z</time></trkpt><trkpt lat="44.4980153" lon="5.0446573"><ele>390.66666666666663</ele><time>2026-04-10T13:32:21.819Z</time></trkpt><trkpt lat="44.4979451" lon="5.0444029"><ele>389.33333333333337</ele><time>2026-04-10T13:32:22.821Z</time></trkpt><trkpt lat="44.4978592" lon="5.0441678"><ele>388.0</ele><time>2026-04-10T13:32:23.821Z</time></trkpt><trkpt lat="44.4977648" lon="5.0439435"><ele>391.6666666666667</ele><time>2026-04-10T13:32:24.818Z</time></trkpt><trkpt lat="44.4976713" lon="5.0437242"><ele>395.33333333333337</ele><time>2026-04-10T13:32:25.82Z</time></trkpt><trkpt lat="44.4975771" lon="5.0435191"><ele>399.0</ele><time>2026-04-10T13:32:26.819Z</time></trkpt><trkpt lat="44.4974827" lon="5.0433183"><ele>398.0</ele><time>2026-04-10T13:32:27.82Z</time></trkpt><trkpt lat="44.4973862" lon="5.0431318"><ele>397.0</ele><time>2026-04-10T13:32:28.822Z</time></trkpt><trkpt lat="44.4972842" lon="5.0429619"><ele>396.0</ele><time>2026-04-10T13:32:29.823Z</time></trkpt><trkpt lat="44.4971805" lon="5.0428043"><ele>395.5</ele><time>2026-04-10T13:32:30.822Z</time></trkpt><trkpt lat="44.4970708" lon="5.042659"><ele>395.0</ele><time>2026-04-10T13:32:31.822Z</time></trkpt><trkpt lat="44.4969605" lon="5.0425265"><ele>394.5</ele><time>2026-04-10T13:32:32.821Z</time></trkpt><trkpt lat="44.4968405" lon="5.0423984"><ele>394.0</ele><time>2026-04-10T13:32:33.822Z</time></trkpt><trkpt lat="44.4967195" lon="5.042276"><ele>394.0</ele><time>2026-04-10T13:32:34.818Z</time></trkpt><trkpt lat="44.4965869" lon="5.0421496"><ele>394.0</ele><time>2026-04-10T13:32:35.82Z</time></trkpt><trkpt lat="44.4964493" lon="5.0420253"><ele>394.0</ele><time>2026-04-10T13:32:36.821Z</time></trkpt><trkpt lat="44.4963025" lon="5.041895"><ele>394.6666666666667</ele><time>2026-04-10T13:32:37.823Z</time></trkpt><trkpt lat="44.4961451" lon="5.0417677"><ele>395.33333333333337</ele><time>2026-04-10T13:32:38.823Z</time></trkpt><trkpt lat="44.4959844" lon="5.0416337"><ele>396.0</ele><time>2026-04-10T13:32:39.826Z</time></trkpt><trkpt lat="44.4958226" lon="5.0415041"><ele>396.0</ele><time>2026-04-10T13:32:40.824Z</time></trkpt><trkpt lat="44.4956554" lon="5.0413711"><ele>396.0</ele><time>2026-04-10T13:32:41.823Z</time></trkpt><trkpt lat="44.4954899" lon="5.0412392"><ele>396.0</ele><time>2026-04-10T13:32:42.824Z</time></trkpt><trkpt lat="44.4953297" lon="5.0411079"><ele>395.66666666666663</ele><time>2026-04-10T13:32:43.824Z</time></trkpt><trkpt lat="44.4951687" lon="5.0409835"><ele>395.3333333333333</ele><time>2026-04-10T13:32:44.825Z</time></trkpt><trkpt lat="44.4950026" lon="5.0408456"><ele>395.0</ele><time>2026-04-10T13:32:45.825Z</time></trkpt><trkpt lat="44.4948371" lon="5.0407112"><ele>394.66666666666663</ele><time>2026-04-10T13:32:46.819Z</time></trkpt><trkpt lat="44.4946724" lon="5.0405738"><ele>394.33333333333337</ele><time>2026-04-10T13:32:47.821Z</time></trkpt><trkpt lat="44.4945081" lon="5.0404369"><ele>394.0</ele><time>2026-04-10T13:32:48.829Z</time></trkpt><trkpt lat="44.4943427" lon="5.0403073"><ele>393.6666666666667</ele><time>2026-04-10T13:32:49.825Z</time></trkpt><trkpt lat="44.4941731" lon="5.040173"><ele>393.33333333333337</ele><time>2026-04-10T13:32:50.825Z</time></trkpt><trkpt lat="44.4940116" lon="5.0400377"><ele>393.0</ele><time>2026-04-10T13:32:51.823Z</time></trkpt><trkpt lat="44.4938415" lon="5.0398972"><ele>392.33333333333337</ele><time>2026-04-10T13:32:52.823Z</time></trkpt><trkpt lat="44.4936698" lon="5.0397598"><ele>391.6666666666667</ele><time>2026-04-10T13:32:53.821Z</time></trkpt><trkpt lat="44.4935005" lon="5.0396182"><ele>391.0</ele><time>2026-04-10T13:32:54.828Z</time></trkpt><trkpt lat="44.4933286" lon="5.0394733"><ele>391.0</ele><time>2026-04-10T13:32:55.821Z</time></trkpt><trkpt lat="44.4931555" lon="5.0393343"><ele>391.0</ele><time>2026-04-10T13:32:56.823Z</time></trkpt><trkpt lat="44.4929841" lon="5.0391976"><ele>391.0</ele><time>2026-04-10T13:32:57.825Z</time></trkpt><trkpt lat="44.492806" lon="5.0390622"><ele>388.33333333333337</ele><time>2026-04-10T13:32:58.821Z</time></trkpt><trkpt lat="44.4926356" lon="5.038919"><ele>385.6666666666667</ele><time>2026-04-10T13:32:59.823Z</time></trkpt><trkpt lat="44.4924629" lon="5.03878"><ele>383.0</ele><time>2026-04-10T13:33:00.822Z</time></trkpt><trkpt lat="44.4922975" lon="5.0386404"><ele>383.0</ele><time>2026-04-10T13:33:01.825Z</time></trkpt><trkpt lat="44.492127" lon="5.0384992"><ele>383.0</ele><time>2026-04-10T13:33:02.823Z</time></trkpt><trkpt lat="44.491959" lon="5.0383556"><ele>383.0</ele><time>2026-04-10T13:33:03.825Z</time></trkpt><trkpt lat="44.491789" lon="5.0382184"><ele>380.6666666666667</ele><time>2026-04-10T13:33:04.825Z</time></trkpt><trkpt lat="44.4916223" lon="5.0380841"><ele>378.3333333333333</ele><time>2026-04-10T13:33:05.82Z</time></trkpt><trkpt lat="44.4914549" lon="5.037946"><ele>376.0</ele><time>2026-04-10T13:33:06.824Z</time></trkpt><trkpt lat="44.4912882" lon="5.0377996"><ele>377.66666666666663</ele><time>2026-04-10T13:33:07.822Z</time></trkpt><trkpt lat="44.4911137" lon="5.0376596"><ele>379.3333333333333</ele><time>2026-04-10T13:33:08.826Z</time></trkpt><trkpt lat="44.4909302" lon="5.0375151"><ele>381.0</ele><time>2026-04-10T13:33:09.823Z</time></trkpt><trkpt lat="44.4907449" lon="5.0373635"><ele>381.0</ele><time>2026-04-10T13:33:10.823Z</time></trkpt><trkpt lat="44.4905603" lon="5.0372118"><ele>381.0</ele><time>2026-04-10T13:33:11.82Z</time></trkpt><trkpt lat="44.4903759" lon="5.037066"><ele>381.0</ele><time>2026-04-10T13:33:12.823Z</time></trkpt><trkpt lat="44.4901914" lon="5.0369189"><ele>381.0</ele><time>2026-04-10T13:33:13.82Z</time></trkpt><trkpt lat="44.4900025" lon="5.0367553"><ele>381.0</ele><time>2026-04-10T13:33:14.824Z</time></trkpt><trkpt lat="44.4898075" lon="5.0365965"><ele>381.0</ele><time>2026-04-10T13:33:15.827Z</time></trkpt><trkpt lat="44.4896161" lon="5.0364431"><ele>378.0</ele><time>2026-04-10T13:33:16.826Z</time></trkpt><trkpt lat="44.4894201" lon="5.036288"><ele>375.0</ele><time>2026-04-10T13:33:17.823Z</time></trkpt><trkpt lat="44.4892239" lon="5.0361273"><ele>375.0</ele><time>2026-04-10T13:33:18.822Z</time></trkpt><trkpt lat="44.4890269" lon="5.0359684"><ele>375.0</ele><time>2026-04-10T13:33:19.82Z</time></trkpt><trkpt lat="44.4888297" lon="5.0358036"><ele>372.5</ele><time>2026-04-10T13:33:20.854Z</time></trkpt><trkpt lat="44.4886116" lon="5.0356309"><ele>370.0</ele><time>2026-04-10T13:33:21.852Z</time></trkpt><trkpt lat="44.488386" lon="5.0354465"><ele>370.0</ele><time>2026-04-10T13:33:22.833Z</time></trkpt><trkpt lat="44.48815" lon="5.0352496"><ele>370.0</ele><time>2026-04-10T13:33:23.838Z</time></trkpt><trkpt lat="44.4879013" lon="5.0350408"><ele>370.0</ele><time>2026-04-10T13:33:24.833Z</time></trkpt><trkpt lat="44.4876531" lon="5.0348315"><ele>370.0</ele><time>2026-04-10T13:33:25.837Z</time></trkpt><trkpt lat="44.4874075" lon="5.0346318"><ele>370.0</ele><time>2026-04-10T13:33:26.826Z</time></trkpt><trkpt lat="44.4871645" lon="5.0344333"><ele>370.0</ele><time>2026-04-10T13:33:27.825Z</time></trkpt><trkpt lat="44.4869217" lon="5.0342298"><ele>368.0</ele><time>2026-04-10T13:33:28.825Z</time></trkpt><trkpt lat="44.4866796" lon="5.0340333"><ele>366.0</ele><time>2026-04-10T13:33:29.825Z</time></trkpt><trkpt lat="44.4864384" lon="5.0338336"><ele>366.0</ele><time>2026-04-10T13:33:30.822Z</time></trkpt><trkpt lat="44.4861976" lon="5.0336371"><ele>366.0</ele><time>2026-04-10T13:33:31.824Z</time></trkpt><trkpt lat="44.4859569" lon="5.0334513"><ele>365.0</ele><time>2026-04-10T13:33:32.826Z</time></trkpt><trkpt lat="44.4857125" lon="5.0332781"><ele>364.0</ele><time>2026-04-10T13:33:33.826Z</time></trkpt><trkpt lat="44.4854676" lon="5.0331245"><ele>364.5</ele><time>2026-04-10T13:33:34.824Z</time></trkpt><trkpt lat="44.4852201" lon="5.0329831"><ele>365.0</ele><time>2026-04-10T13:33:35.822Z</time></trkpt><trkpt lat="44.4849737" lon="5.03285"><ele>365.0</ele><time>2026-04-10T13:33:36.824Z</time></trkpt><trkpt lat="44.4847179" lon="5.0327277"><ele>365.0</ele><time>2026-04-10T13:33:37.825Z</time></trkpt><trkpt lat="44.4844761" lon="5.0325965"><ele>364.0</ele><time>2026-04-10T13:33:38.824Z</time></trkpt><trkpt lat="44.4842301" lon="5.032468"><ele>363.0</ele><time>2026-04-10T13:33:39.829Z</time></trkpt><trkpt lat="44.4839843" lon="5.0323364"><ele>362.0</ele><time>2026-04-10T13:33:40.821Z</time></trkpt><trkpt lat="44.4837331" lon="5.0322145"><ele>361.0</ele><time>2026-04-10T13:33:41.827Z</time></trkpt><trkpt lat="44.4834963" lon="5.0320838"><ele>361.0</ele><time>2026-04-10T13:33:42.826Z</time></trkpt><trkpt lat="44.4832766" lon="5.0319642"><ele>361.0</ele><time>2026-04-10T13:33:43.828Z</time></trkpt><trkpt lat="44.4830622" lon="5.0318569"><ele>361.0</ele><time>2026-04-10T13:33:44.823Z</time></trkpt><trkpt lat="44.4828514" lon="5.0317532"><ele>361.0</ele><time>2026-04-10T13:33:45.826Z</time></trkpt><trkpt lat="44.4826484" lon="5.0316413"><ele>361.0</ele><time>2026-04-10T13:33:46.833Z</time></trkpt><trkpt lat="44.482436" lon="5.0315412"><ele>360.3333333333333</ele><time>2026-04-10T13:33:47.83Z</time></trkpt><trkpt lat="44.482232" lon="5.0314209"><ele>359.6666666666667</ele><time>2026-04-10T13:33:48.826Z</time></trkpt><trkpt lat="44.4820219" lon="5.0313"><ele>359.0</ele><time>2026-04-10T13:33:49.826Z</time></trkpt><trkpt lat="44.4818131" lon="5.0311867"><ele>359.0</ele><time>2026-04-10T13:33:50.824Z</time></trkpt><trkpt lat="44.4816044" lon="5.0310662"><ele>359.0</ele><time>2026-04-10T13:33:51.825Z</time></trkpt><trkpt lat="44.4814124" lon="5.0309475"><ele>359.0</ele><time>2026-04-10T13:33:52.82Z</time></trkpt><trkpt lat="44.4812277" lon="5.0308415"><ele>357.33333333333337</ele><time>2026-04-10T13:33:53.827Z</time></trkpt><trkpt lat="44.4810628" lon="5.0307293"><ele>355.6666666666667</ele><time>2026-04-10T13:33:54.828Z</time></trkpt><trkpt lat="44.4809049" lon="5.0306221"><ele>354.0</ele><time>2026-04-10T13:33:55.829Z</time></trkpt><trkpt lat="44.4807529" lon="5.0305193"><ele>354.0</ele><time>2026-04-10T13:33:56.828Z</time></trkpt><trkpt lat="44.4806122" lon="5.0304151"><ele>354.0</ele><time>2026-04-10T13:33:57.831Z</time></trkpt><trkpt lat="44.4804784" lon="5.0303236"><ele>354.0</ele><time>2026-04-10T13:33:58.83Z</time></trkpt><trkpt lat="44.4803449" lon="5.0302438"><ele>353.5</ele><time>2026-04-10T13:33:59.827Z</time></trkpt><trkpt lat="44.4802231" lon="5.0301646"><ele>353.0</ele><time>2026-04-10T13:34:00.825Z</time></trkpt><trkpt lat="44.4801041" lon="5.0300885"><ele>352.5</ele><time>2026-04-10T13:34:01.823Z</time></trkpt><trkpt lat="44.4799856" lon="5.0300137"><ele>352.0</ele><time>2026-04-10T13:34:02.826Z</time></trkpt><trkpt lat="44.4798694" lon="5.0299302"><ele>352.0</ele><time>2026-04-10T13:34:03.827Z</time></trkpt><trkpt lat="44.4797875" lon="5.0298538"><ele>352.0</ele><time>2026-04-10T13:34:04.83Z</time></trkpt><trkpt lat="44.479707" lon="5.0297859"><ele>352.0</ele><time>2026-04-10T13:34:05.824Z</time></trkpt><trkpt lat="44.4796208" lon="5.0297316"><ele>352.0</ele><time>2026-04-10T13:34:06.826Z</time></trkpt><trkpt lat="44.4795353" lon="5.0296738"><ele>352.0</ele><time>2026-04-10T13:34:07.825Z</time></trkpt><trkpt lat="44.479455" lon="5.0296242"><ele>352.5</ele><time>2026-04-10T13:34:08.829Z</time></trkpt><trkpt lat="44.4793758" lon="5.0295749"><ele>353.0</ele><time>2026-04-10T13:34:09.822Z</time></trkpt><trkpt lat="44.4793056" lon="5.0295184"><ele>353.5</ele><time>2026-04-10T13:34:10.827Z</time></trkpt><trkpt lat="44.4792352" lon="5.0294692"><ele>354.0</ele><time>2026-04-10T13:34:11.833Z</time></trkpt><trkpt lat="44.4791686" lon="5.0294249"><ele>354.5</ele><time>2026-04-10T13:34:12.825Z</time></trkpt><trkpt lat="44.4790949" lon="5.029384"><ele>355.0</ele><time>2026-04-10T13:34:13.823Z</time></trkpt><trkpt lat="44.479025" lon="5.0293246"><ele>355.0</ele><time>2026-04-10T13:34:14.821Z</time></trkpt><trkpt lat="44.4789585" lon="5.0292822"><ele>355.0</ele><time>2026-04-10T13:34:15.843Z</time></trkpt><trkpt lat="44.4788864" lon="5.0292392"><ele>355.0</ele><time>2026-04-10T13:34:16.837Z</time></trkpt><trkpt lat="44.4788163" lon="5.0291934"><ele>355.0</ele><time>2026-04-10T13:34:17.825Z</time></trkpt><trkpt lat="44.4786933" lon="5.0291521"><ele>355.0</ele><time>2026-04-10T13:34:19.826Z</time></trkpt><trkpt lat="44.4786193" lon="5.0291228"><ele>355.0</ele><time>2026-04-10T13:34:20.821Z</time></trkpt><trkpt lat="44.4785417" lon="5.0290951"><ele>354.4</ele><time>2026-04-10T13:34:21.825Z</time></trkpt><trkpt lat="44.4784539" lon="5.029045"><ele>353.8</ele><time>2026-04-10T13:34:22.824Z</time></trkpt><trkpt lat="44.4783675" lon="5.0289953"><ele>353.20000000000005</ele><time>2026-04-10T13:34:23.82Z</time></trkpt><trkpt lat="44.4782815" lon="5.0289512"><ele>352.6</ele><time>2026-04-10T13:34:24.825Z</time></trkpt><trkpt lat="44.4781895" lon="5.0289262"><ele>352.0</ele><time>2026-04-10T13:34:25.822Z</time></trkpt><trkpt lat="44.4781022" lon="5.0289004"><ele>352.0</ele><time>2026-04-10T13:34:26.826Z</time></trkpt><trkpt lat="44.4780169" lon="5.028881"><ele>352.0</ele><time>2026-04-10T13:34:27.827Z</time></trkpt><trkpt lat="44.4779301" lon="5.0288529"><ele>352.0</ele><time>2026-04-10T13:34:28.829Z</time></trkpt><trkpt lat="44.4778467" lon="5.0288551"><ele>352.0</ele><time>2026-04-10T13:34:29.822Z</time></trkpt><trkpt lat="44.477751" lon="5.0288676"><ele>352.0</ele><time>2026-04-10T13:34:30.825Z</time></trkpt><trkpt lat="44.4776677" lon="5.0288461"><ele>352.0</ele><time>2026-04-10T13:34:31.825Z</time></trkpt><trkpt lat="44.4775862" lon="5.0288218"><ele>352.16666666666663</ele><time>2026-04-10T13:34:32.825Z</time></trkpt><trkpt lat="44.4774935" lon="5.0287989"><ele>352.3333333333333</ele><time>2026-04-10T13:34:33.823Z</time></trkpt><trkpt lat="44.4774125" lon="5.0287698"><ele>352.5</ele><time>2026-04-10T13:34:34.823Z</time></trkpt><trkpt lat="44.4773268" lon="5.0287411"><ele>352.6666666666667</ele><time>2026-04-10T13:34:35.827Z</time></trkpt><trkpt lat="44.4772404" lon="5.0287117"><ele>352.83333333333337</ele><time>2026-04-10T13:34:36.822Z</time></trkpt><trkpt lat="44.4771526" lon="5.0286803"><ele>353.0</ele><time>2026-04-10T13:34:37.821Z</time></trkpt><trkpt lat="44.4770634" lon="5.0286462"><ele>353.2</ele><time>2026-04-10T13:34:38.822Z</time></trkpt><trkpt lat="44.4769707" lon="5.028622"><ele>353.4</ele><time>2026-04-10T13:34:39.828Z</time></trkpt><trkpt lat="44.4768784" lon="5.0286027"><ele>353.59999999999997</ele><time>2026-04-10T13:34:40.824Z</time></trkpt><trkpt lat="44.4767851" lon="5.0285738"><ele>353.79999999999995</ele><time>2026-04-10T13:34:41.829Z</time></trkpt><trkpt lat="44.476696" lon="5.0285429"><ele>354.0</ele><time>2026-04-10T13:34:42.823Z</time></trkpt><trkpt lat="44.4766088" lon="5.0285099"><ele>354.0</ele><time>2026-04-10T13:34:43.822Z</time></trkpt><trkpt lat="44.4765198" lon="5.0284847"><ele>354.0</ele><time>2026-04-10T13:34:44.82Z</time></trkpt><trkpt lat="44.4764357" lon="5.0284189"><ele>354.0</ele><time>2026-04-10T13:34:45.822Z</time></trkpt><trkpt lat="44.4763446" lon="5.0283779"><ele>354.0</ele><time>2026-04-10T13:34:46.823Z</time></trkpt><trkpt lat="44.4762517" lon="5.0283324"><ele>354.0</ele><time>2026-04-10T13:34:47.822Z</time></trkpt><trkpt lat="44.4761617" lon="5.028292"><ele>352.6</ele><time>2026-04-10T13:34:48.821Z</time></trkpt><trkpt lat="44.4760797" lon="5.028243"><ele>351.2</ele><time>2026-04-10T13:34:49.821Z</time></trkpt><trkpt lat="44.4759866" lon="5.0281955"><ele>349.8</ele><time>2026-04-10T13:34:50.822Z</time></trkpt><trkpt lat="44.4758964" lon="5.0281446"><ele>348.40000000000003</ele><time>2026-04-10T13:34:51.822Z</time></trkpt><trkpt lat="44.4757952" lon="5.0281025"><ele>347.0</ele><time>2026-04-10T13:34:52.821Z</time></trkpt><trkpt lat="44.4756923" lon="5.0280568"><ele>347.0</ele><time>2026-04-10T13:34:53.823Z</time></trkpt><trkpt lat="44.4755828" lon="5.0280117"><ele>347.0</ele><time>2026-04-10T13:34:54.823Z</time></trkpt><trkpt lat="44.4754696" lon="5.0279632"><ele>347.0</ele><time>2026-04-10T13:34:55.822Z</time></trkpt><trkpt lat="44.4753511" lon="5.0279057"><ele>347.0</ele><time>2026-04-10T13:34:56.818Z</time></trkpt><trkpt lat="44.4752358" lon="5.0278159"><ele>346.75</ele><time>2026-04-10T13:34:57.819Z</time></trkpt><trkpt lat="44.4751107" lon="5.0277435"><ele>346.5</ele><time>2026-04-10T13:34:58.822Z</time></trkpt><trkpt lat="44.4749758" lon="5.0276925"><ele>346.25</ele><time>2026-04-10T13:34:59.819Z</time></trkpt><trkpt lat="44.4748468" lon="5.0276202"><ele>346.0</ele><time>2026-04-10T13:35:00.823Z</time></trkpt><trkpt lat="44.4747118" lon="5.0275438"><ele>346.0</ele><time>2026-04-10T13:35:01.822Z</time></trkpt><trkpt lat="44.4745718" lon="5.0274793"><ele>346.0</ele><time>2026-04-10T13:35:02.822Z</time></trkpt><trkpt lat="44.4744291" lon="5.0274237"><ele>346.0</ele><time>2026-04-10T13:35:03.822Z</time></trkpt><trkpt lat="44.4742809" lon="5.0273596"><ele>343.66666666666663</ele><time>2026-04-10T13:35:04.82Z</time></trkpt><trkpt lat="44.4741337" lon="5.0272895"><ele>341.3333333333333</ele><time>2026-04-10T13:35:05.819Z</time></trkpt><trkpt lat="44.4739747" lon="5.027215"><ele>339.0</ele><time>2026-04-10T13:35:06.837Z</time></trkpt><trkpt lat="44.4738148" lon="5.0271295"><ele>339.0</ele><time>2026-04-10T13:35:07.845Z</time></trkpt><trkpt lat="44.4736492" lon="5.0270568"><ele>339.0</ele><time>2026-04-10T13:35:08.834Z</time></trkpt><trkpt lat="44.4734724" lon="5.0269672"><ele>339.0</ele><time>2026-04-10T13:35:09.828Z</time></trkpt><trkpt lat="44.4732931" lon="5.02688"><ele>339.0</ele><time>2026-04-10T13:35:10.826Z</time></trkpt><trkpt lat="44.4731213" lon="5.0267942"><ele>339.0</ele><time>2026-04-10T13:35:11.823Z</time></trkpt><trkpt lat="44.4729434" lon="5.0267132"><ele>339.0</ele><time>2026-04-10T13:35:12.825Z</time></trkpt><trkpt lat="44.4727707" lon="5.0266321"><ele>337.3333333333333</ele><time>2026-04-10T13:35:13.824Z</time></trkpt><trkpt lat="44.4725938" lon="5.0265379"><ele>335.66666666666663</ele><time>2026-04-10T13:35:14.825Z</time></trkpt><trkpt lat="44.4724182" lon="5.0264507"><ele>334.0</ele><time>2026-04-10T13:35:15.823Z</time></trkpt><trkpt lat="44.4722335" lon="5.0263598"><ele>334.66666666666663</ele><time>2026-04-10T13:35:16.828Z</time></trkpt><trkpt lat="44.4720505" lon="5.0262676"><ele>335.3333333333333</ele><time>2026-04-10T13:35:17.824Z</time></trkpt><trkpt lat="44.4718668" lon="5.0261762"><ele>336.0</ele><time>2026-04-10T13:35:18.825Z</time></trkpt><trkpt lat="44.4716833" lon="5.0260894"><ele>336.0</ele><time>2026-04-10T13:35:19.827Z</time></trkpt><trkpt lat="44.4714993" lon="5.0260022"><ele>336.0</ele><time>2026-04-10T13:35:20.823Z</time></trkpt><trkpt lat="44.4713106" lon="5.025915"><ele>336.0</ele><time>2026-04-10T13:35:21.823Z</time></trkpt><trkpt lat="44.4711289" lon="5.0258326"><ele>334.6666666666667</ele><time>2026-04-10T13:35:22.82Z</time></trkpt><trkpt lat="44.4709464" lon="5.0257457"><ele>333.33333333333337</ele><time>2026-04-10T13:35:23.824Z</time></trkpt><trkpt lat="44.4707658" lon="5.0256533"><ele>332.0</ele><time>2026-04-10T13:35:24.822Z</time></trkpt><trkpt lat="44.4705745" lon="5.0255677"><ele>332.6666666666667</ele><time>2026-04-10T13:35:25.821Z</time></trkpt><trkpt lat="44.4703973" lon="5.0254774"><ele>333.3333333333333</ele><time>2026-04-10T13:35:26.819Z</time></trkpt><trkpt lat="44.4702162" lon="5.0253887"><ele>334.0</ele><time>2026-04-10T13:35:27.822Z</time></trkpt><trkpt lat="44.4700371" lon="5.0252972"><ele>334.0</ele><time>2026-04-10T13:35:28.821Z</time></trkpt><trkpt lat="44.4698604" lon="5.0252063"><ele>334.0</ele><time>2026-04-10T13:35:29.821Z</time></trkpt><trkpt lat="44.4696852" lon="5.0251162"><ele>334.0</ele><time>2026-04-10T13:35:30.824Z</time></trkpt><trkpt lat="44.4695082" lon="5.0250292"><ele>332.66666666666663</ele><time>2026-04-10T13:35:31.824Z</time></trkpt><trkpt lat="44.4693308" lon="5.0249365"><ele>331.3333333333333</ele><time>2026-04-10T13:35:32.826Z</time></trkpt><trkpt lat="44.4691503" lon="5.0248489"><ele>330.0</ele><time>2026-04-10T13:35:33.825Z</time></trkpt><trkpt lat="44.4689714" lon="5.0247492"><ele>330.0</ele><time>2026-04-10T13:35:34.822Z</time></trkpt><trkpt lat="44.4687834" lon="5.0246594"><ele>330.0</ele><time>2026-04-10T13:35:35.826Z</time></trkpt><trkpt lat="44.4685969" lon="5.0245674"><ele>330.0</ele><time>2026-04-10T13:35:36.821Z</time></trkpt><trkpt lat="44.4684109" lon="5.0244734"><ele>329.6666666666667</ele><time>2026-04-10T13:35:37.823Z</time></trkpt><trkpt lat="44.4682197" lon="5.0243793"><ele>329.33333333333337</ele><time>2026-04-10T13:35:38.823Z</time></trkpt><trkpt lat="44.4680258" lon="5.024288"><ele>329.0</ele><time>2026-04-10T13:35:39.829Z</time></trkpt><trkpt lat="44.4678371" lon="5.0241925"><ele>330.33333333333337</ele><time>2026-04-10T13:35:40.822Z</time></trkpt><trkpt lat="44.4676448" lon="5.0241011"><ele>331.6666666666667</ele><time>2026-04-10T13:35:41.828Z</time></trkpt><trkpt lat="44.4674525" lon="5.0240129"><ele>333.0</ele><time>2026-04-10T13:35:42.832Z</time></trkpt><trkpt lat="44.4672588" lon="5.0239245"><ele>334.3333333333333</ele><time>2026-04-10T13:35:43.823Z</time></trkpt><trkpt lat="44.4670656" lon="5.0238391"><ele>335.66666666666663</ele><time>2026-04-10T13:35:44.825Z</time></trkpt><trkpt lat="44.4668774" lon="5.0237553"><ele>337.0</ele><time>2026-04-10T13:35:45.818Z</time></trkpt><trkpt lat="44.4666921" lon="5.0236589"><ele>337.0</ele><time>2026-04-10T13:35:46.822Z</time></trkpt><trkpt lat="44.466502" lon="5.0235716"><ele>337.0</ele><time>2026-04-10T13:35:47.82Z</time></trkpt><trkpt lat="44.4663198" lon="5.0234752"><ele>337.0</ele><time>2026-04-10T13:35:48.821Z</time></trkpt><trkpt lat="44.4661348" lon="5.0233822"><ele>335.0</ele><time>2026-04-10T13:35:49.821Z</time></trkpt><trkpt lat="44.4659526" lon="5.0232973"><ele>333.0</ele><time>2026-04-10T13:35:50.826Z</time></trkpt><trkpt lat="44.4657609" lon="5.0232068"><ele>331.0</ele><time>2026-04-10T13:35:51.824Z</time></trkpt><trkpt lat="44.4655676" lon="5.023121"><ele>331.3333333333333</ele><time>2026-04-10T13:35:52.825Z</time></trkpt><trkpt lat="44.4653841" lon="5.0230128"><ele>331.6666666666667</ele><time>2026-04-10T13:35:53.829Z</time></trkpt><trkpt lat="44.4651896" lon="5.0229261"><ele>332.0</ele><time>2026-04-10T13:35:54.824Z</time></trkpt><trkpt lat="44.4649992" lon="5.0228354"><ele>332.0</ele><time>2026-04-10T13:35:55.823Z</time></trkpt><trkpt lat="44.4648054" lon="5.0227462"><ele>332.0</ele><time>2026-04-10T13:35:56.824Z</time></trkpt><trkpt lat="44.464609" lon="5.0226631"><ele>332.0</ele><time>2026-04-10T13:35:57.82Z</time></trkpt><trkpt lat="44.4644166" lon="5.0225872"><ele>332.0</ele><time>2026-04-10T13:35:58.826Z</time></trkpt><trkpt lat="44.4642135" lon="5.022524"><ele>332.0</ele><time>2026-04-10T13:35:59.821Z</time></trkpt><trkpt lat="44.4640065" lon="5.0224626"><ele>332.0</ele><time>2026-04-10T13:36:00.825Z</time></trkpt><trkpt lat="44.4638038" lon="5.0224061"><ele>330.6666666666667</ele><time>2026-04-10T13:36:01.819Z</time></trkpt><trkpt lat="44.4635907" lon="5.0223535"><ele>329.3333333333333</ele><time>2026-04-10T13:36:02.821Z</time></trkpt><trkpt lat="44.463373" lon="5.0222824"><ele>328.0</ele><time>2026-04-10T13:36:03.82Z</time></trkpt><trkpt lat="44.4631497" lon="5.022225"><ele>327.0</ele><time>2026-04-10T13:36:04.82Z</time></trkpt><trkpt lat="44.4629309" lon="5.0221663"><ele>326.0</ele><time>2026-04-10T13:36:05.821Z</time></trkpt><trkpt lat="44.4627242" lon="5.0220938"><ele>325.0</ele><time>2026-04-10T13:36:06.818Z</time></trkpt><trkpt lat="44.4625144" lon="5.0220154"><ele>325.0</ele><time>2026-04-10T13:36:07.824Z</time></trkpt><trkpt lat="44.4623047" lon="5.0219289"><ele>325.0</ele><time>2026-04-10T13:36:08.821Z</time></trkpt><trkpt lat="44.4620861" lon="5.0218433"><ele>325.0</ele><time>2026-04-10T13:36:09.826Z</time></trkpt><trkpt lat="44.4618668" lon="5.0217529"><ele>323.5</ele><time>2026-04-10T13:36:10.821Z</time></trkpt><trkpt lat="44.461653" lon="5.0216494"><ele>322.0</ele><time>2026-04-10T13:36:11.831Z</time></trkpt><trkpt lat="44.4614291" lon="5.0215513"><ele>319.5</ele><time>2026-04-10T13:36:12.823Z</time></trkpt><trkpt lat="44.4612128" lon="5.0214499"><ele>317.0</ele><time>2026-04-10T13:36:13.825Z</time></trkpt><trkpt lat="44.4609919" lon="5.0213448"><ele>317.0</ele><time>2026-04-10T13:36:14.824Z</time></trkpt><trkpt lat="44.4607642" lon="5.0212465"><ele>317.0</ele><time>2026-04-10T13:36:15.822Z</time></trkpt><trkpt lat="44.4605361" lon="5.0211403"><ele>317.5</ele><time>2026-04-10T13:36:16.822Z</time></trkpt><trkpt lat="44.4603134" lon="5.0210373"><ele>318.0</ele><time>2026-04-10T13:36:17.825Z</time></trkpt><trkpt lat="44.460088" lon="5.0209391"><ele>318.0</ele><time>2026-04-10T13:36:18.827Z</time></trkpt><trkpt lat="44.4598644" lon="5.0208353"><ele>318.0</ele><time>2026-04-10T13:36:19.822Z</time></trkpt><trkpt lat="44.4596349" lon="5.0207363"><ele>314.5</ele><time>2026-04-10T13:36:20.821Z</time></trkpt><trkpt lat="44.4594117" lon="5.0206397"><ele>311.0</ele><time>2026-04-10T13:36:21.819Z</time></trkpt><trkpt lat="44.4591887" lon="5.0205359"><ele>311.0</ele><time>2026-04-10T13:36:22.82Z</time></trkpt><trkpt lat="44.4589685" lon="5.0204386"><ele>311.0</ele><time>2026-04-10T13:36:23.822Z</time></trkpt><trkpt lat="44.4587471" lon="5.020338"><ele>311.5</ele><time>2026-04-10T13:36:24.822Z</time></trkpt><trkpt lat="44.458523" lon="5.0202391"><ele>312.0</ele><time>2026-04-10T13:36:25.826Z</time></trkpt><trkpt lat="44.4582937" lon="5.02014"><ele>312.0</ele><time>2026-04-10T13:36:26.822Z</time></trkpt><trkpt lat="44.4580726" lon="5.020034"><ele>312.0</ele><time>2026-04-10T13:36:27.825Z</time></trkpt><trkpt lat="44.457842" lon="5.0199269"><ele>308.5</ele><time>2026-04-10T13:36:28.818Z</time></trkpt><trkpt lat="44.4576064" lon="5.0198249"><ele>305.0</ele><time>2026-04-10T13:36:29.82Z</time></trkpt><trkpt lat="44.4573728" lon="5.0197144"><ele>305.0</ele><time>2026-04-10T13:36:30.823Z</time></trkpt><trkpt lat="44.4571366" lon="5.0196099"><ele>305.0</ele><time>2026-04-10T13:36:31.821Z</time></trkpt><trkpt lat="44.4569049" lon="5.0195023"><ele>304.5</ele><time>2026-04-10T13:36:32.824Z</time></trkpt><trkpt lat="44.4566732" lon="5.0194014"><ele>304.0</ele><time>2026-04-10T13:36:33.82Z</time></trkpt><trkpt lat="44.4564407" lon="5.0193079"><ele>303.5</ele><time>2026-04-10T13:36:34.825Z</time></trkpt><trkpt lat="44.4562124" lon="5.0192078"><ele>303.0</ele><time>2026-04-10T13:36:35.829Z</time></trkpt><trkpt lat="44.4559881" lon="5.0191117"><ele>303.0</ele><time>2026-04-10T13:36:36.821Z</time></trkpt><trkpt lat="44.4557684" lon="5.0190143"><ele>303.0</ele><time>2026-04-10T13:36:37.822Z</time></trkpt><trkpt lat="44.4555426" lon="5.0189164"><ele>307.0</ele><time>2026-04-10T13:36:38.82Z</time></trkpt><trkpt lat="44.4553215" lon="5.0188117"><ele>311.0</ele><time>2026-04-10T13:36:39.819Z</time></trkpt><trkpt lat="44.4551045" lon="5.0187221"><ele>311.0</ele><time>2026-04-10T13:36:40.823Z</time></trkpt><trkpt lat="44.4548852" lon="5.0186316"><ele>311.0</ele><time>2026-04-10T13:36:41.82Z</time></trkpt><trkpt lat="44.454668" lon="5.0185499"><ele>312.5</ele><time>2026-04-10T13:36:42.821Z</time></trkpt><trkpt lat="44.4544528" lon="5.0184496"><ele>314.0</ele><time>2026-04-10T13:36:43.821Z</time></trkpt><trkpt lat="44.454236" lon="5.0183572"><ele>310.5</ele><time>2026-04-10T13:36:44.822Z</time></trkpt><trkpt lat="44.4540198" lon="5.0182594"><ele>307.0</ele><time>2026-04-10T13:36:45.819Z</time></trkpt><trkpt lat="44.4538063" lon="5.018165"><ele>308.0</ele><time>2026-04-10T13:36:46.821Z</time></trkpt><trkpt lat="44.4535891" lon="5.0180804"><ele>309.0</ele><time>2026-04-10T13:36:47.821Z</time></trkpt><trkpt lat="44.4533696" lon="5.0179911"><ele>309.0</ele><time>2026-04-10T13:36:48.823Z</time></trkpt><trkpt lat="44.453147" lon="5.017907"><ele>309.0</ele><time>2026-04-10T13:36:49.82Z</time></trkpt><trkpt lat="44.4529241" lon="5.01783"><ele>310.5</ele><time>2026-04-10T13:36:50.821Z</time></trkpt><trkpt lat="44.4527072" lon="5.0177538"><ele>312.0</ele><time>2026-04-10T13:36:51.82Z</time></trkpt><trkpt lat="44.4524837" lon="5.0176854"><ele>312.0</ele><time>2026-04-10T13:36:52.82Z</time></trkpt><trkpt lat="44.4522714" lon="5.0176087"><ele>312.0</ele><time>2026-04-10T13:36:53.819Z</time></trkpt><trkpt lat="44.4520528" lon="5.0175465"><ele>312.0</ele><time>2026-04-10T13:36:54.82Z</time></trkpt><trkpt lat="44.4518347" lon="5.0174816"><ele>309.5</ele><time>2026-04-10T13:36:55.822Z</time></trkpt><trkpt lat="44.4516047" lon="5.0174261"><ele>307.0</ele><time>2026-04-10T13:36:56.818Z</time></trkpt><trkpt lat="44.4513722" lon="5.0173702"><ele>306.0</ele><time>2026-04-10T13:36:57.823Z</time></trkpt><trkpt lat="44.4511502" lon="5.0173115"><ele>305.0</ele><time>2026-04-10T13:36:58.818Z</time></trkpt><trkpt lat="44.4509222" lon="5.0172463"><ele>305.0</ele><time>2026-04-10T13:36:59.821Z</time></trkpt><trkpt lat="44.4506787" lon="5.0171862"><ele>305.0</ele><time>2026-04-10T13:37:00.823Z</time></trkpt><trkpt lat="44.4504554" lon="5.0171191"><ele>302.5</ele><time>2026-04-10T13:37:01.821Z</time></trkpt><trkpt lat="44.4502344" lon="5.0170416"><ele>300.0</ele><time>2026-04-10T13:37:02.823Z</time></trkpt><trkpt lat="44.450011" lon="5.0169517"><ele>300.0</ele><time>2026-04-10T13:37:03.817Z</time></trkpt><trkpt lat="44.4497929" lon="5.0168586"><ele>300.0</ele><time>2026-04-10T13:37:04.822Z</time></trkpt><trkpt lat="44.4495733" lon="5.0167668"><ele>298.6666666666667</ele><time>2026-04-10T13:37:05.821Z</time></trkpt><trkpt lat="44.449359" lon="5.0166826"><ele>297.33333333333337</ele><time>2026-04-10T13:37:06.818Z</time></trkpt><trkpt lat="44.4491583" lon="5.0165866"><ele>296.0</ele><time>2026-04-10T13:37:07.82Z</time></trkpt><trkpt lat="44.4489624" lon="5.0164707"><ele>296.0</ele><time>2026-04-10T13:37:08.818Z</time></trkpt><trkpt lat="44.4487932" lon="5.0163197"><ele>296.0</ele><time>2026-04-10T13:37:09.819Z</time></trkpt><trkpt lat="44.4486742" lon="5.0160734"><ele>296.0</ele><time>2026-04-10T13:37:10.829Z</time></trkpt><trkpt lat="44.4485356" lon="5.0158275"><ele>296.6666666666667</ele><time>2026-04-10T13:37:11.821Z</time></trkpt><trkpt lat="44.4484052" lon="5.0155742"><ele>297.3333333333333</ele><time>2026-04-10T13:37:12.822Z</time></trkpt><trkpt lat="44.4482812" lon="5.01531"><ele>298.0</ele><time>2026-04-10T13:37:13.82Z</time></trkpt><trkpt lat="44.4481467" lon="5.0150613"><ele>298.0</ele><time>2026-04-10T13:37:14.825Z</time></trkpt><trkpt lat="44.4480148" lon="5.014828"><ele>298.0</ele><time>2026-04-10T13:37:15.822Z</time></trkpt><trkpt lat="44.4478904" lon="5.0146008"><ele>298.0</ele><time>2026-04-10T13:37:16.82Z</time></trkpt><trkpt lat="44.4477705" lon="5.0143824"><ele>298.0</ele><time>2026-04-10T13:37:17.823Z</time></trkpt><trkpt lat="44.4476423" lon="5.014174"><ele>298.0</ele><time>2026-04-10T13:37:18.821Z</time></trkpt><trkpt lat="44.4474976" lon="5.0139962"><ele>298.0</ele><time>2026-04-10T13:37:19.822Z</time></trkpt><trkpt lat="44.4473282" lon="5.0138582"><ele>296.0</ele><time>2026-04-10T13:37:20.826Z</time></trkpt><trkpt lat="44.4471427" lon="5.0137381"><ele>294.0</ele><time>2026-04-10T13:37:21.826Z</time></trkpt><trkpt lat="44.4469475" lon="5.0136214"><ele>292.0</ele><time>2026-04-10T13:37:22.84Z</time></trkpt><trkpt lat="44.4467679" lon="5.0134994"><ele>292.0</ele><time>2026-04-10T13:37:23.831Z</time></trkpt><trkpt lat="44.4465748" lon="5.0133777"><ele>292.0</ele><time>2026-04-10T13:37:24.824Z</time></trkpt><trkpt lat="44.4463823" lon="5.0132607"><ele>292.0</ele><time>2026-04-10T13:37:25.819Z</time></trkpt><trkpt lat="44.4461971" lon="5.0131463"><ele>291.0</ele><time>2026-04-10T13:37:26.83Z</time></trkpt><trkpt lat="44.4460202" lon="5.0130363"><ele>290.0</ele><time>2026-04-10T13:37:27.828Z</time></trkpt><trkpt lat="44.4458495" lon="5.0129321"><ele>289.0</ele><time>2026-04-10T13:37:28.825Z</time></trkpt><trkpt lat="44.4456817" lon="5.0128302"><ele>289.0</ele><time>2026-04-10T13:37:29.825Z</time></trkpt><trkpt lat="44.4455225" lon="5.0127201"><ele>289.0</ele><time>2026-04-10T13:37:30.827Z</time></trkpt><trkpt lat="44.4453678" lon="5.0126113"><ele>289.0</ele><time>2026-04-10T13:37:31.825Z</time></trkpt><trkpt lat="44.4452268" lon="5.0125263"><ele>288.25</ele><time>2026-04-10T13:37:32.824Z</time></trkpt><trkpt lat="44.445109" lon="5.0124448"><ele>287.5</ele><time>2026-04-10T13:37:33.819Z</time></trkpt><trkpt lat="44.4449983" lon="5.0123798"><ele>286.75</ele><time>2026-04-10T13:37:34.82Z</time></trkpt><trkpt lat="44.444903" lon="5.0123126"><ele>286.0</ele><time>2026-04-10T13:37:35.823Z</time></trkpt><trkpt lat="44.4448197" lon="5.0122445"><ele>286.0</ele><time>2026-04-10T13:37:36.819Z</time></trkpt><trkpt lat="44.4447579" lon="5.012155"><ele>286.0</ele><time>2026-04-10T13:37:37.824Z</time></trkpt><trkpt lat="44.4447167" lon="5.012039"><ele>286.0</ele><time>2026-04-10T13:37:38.825Z</time></trkpt><trkpt lat="44.444678" lon="5.0119309"><ele>286.0</ele><time>2026-04-10T13:37:39.825Z</time></trkpt><trkpt lat="44.4446569" lon="5.0117981"><ele>286.0</ele><time>2026-04-10T13:37:40.824Z</time></trkpt><trkpt lat="44.4446455" lon="5.0116768"><ele>287.2</ele><time>2026-04-10T13:37:41.822Z</time></trkpt><trkpt lat="44.4446379" lon="5.0115429"><ele>288.40000000000003</ele><time>2026-04-10T13:37:42.825Z</time></trkpt><trkpt lat="44.4446447" lon="5.0114163"><ele>289.6</ele><time>2026-04-10T13:37:43.828Z</time></trkpt><trkpt lat="44.4446526" lon="5.0112863"><ele>290.8</ele><time>2026-04-10T13:37:44.823Z</time></trkpt><trkpt lat="44.4446593" lon="5.0111544"><ele>292.0</ele><time>2026-04-10T13:37:45.823Z</time></trkpt><trkpt lat="44.4446665" lon="5.0110148"><ele>292.0</ele><time>2026-04-10T13:37:46.827Z</time></trkpt><trkpt lat="44.4446758" lon="5.0108728"><ele>292.0</ele><time>2026-04-10T13:37:47.823Z</time></trkpt><trkpt lat="44.4446793" lon="5.010726"><ele>292.0</ele><time>2026-04-10T13:37:48.826Z</time></trkpt><trkpt lat="44.444672" lon="5.010579"><ele>292.0</ele><time>2026-04-10T13:37:49.823Z</time></trkpt><trkpt lat="44.4446526" lon="5.0104207"><ele>292.0</ele><time>2026-04-10T13:37:50.821Z</time></trkpt><trkpt lat="44.4446146" lon="5.0102514"><ele>291.25</ele><time>2026-04-10T13:37:51.832Z</time></trkpt><trkpt lat="44.4445624" lon="5.0100755"><ele>290.5</ele><time>2026-04-10T13:37:52.832Z</time></trkpt><trkpt lat="44.4445068" lon="5.0098905"><ele>289.75</ele><time>2026-04-10T13:37:53.826Z</time></trkpt><trkpt lat="44.4444471" lon="5.0096951"><ele>289.0</ele><time>2026-04-10T13:37:54.821Z</time></trkpt><trkpt lat="44.444393" lon="5.0094947"><ele>289.0</ele><time>2026-04-10T13:37:55.822Z</time></trkpt><trkpt lat="44.444334" lon="5.0092927"><ele>289.0</ele><time>2026-04-10T13:37:56.818Z</time></trkpt><trkpt lat="44.4442731" lon="5.0090805"><ele>289.0</ele><time>2026-04-10T13:37:57.822Z</time></trkpt><trkpt lat="44.4442082" lon="5.0088675"><ele>289.66666666666663</ele><time>2026-04-10T13:37:58.825Z</time></trkpt><trkpt lat="44.4441413" lon="5.0086553"><ele>290.3333333333333</ele><time>2026-04-10T13:37:59.824Z</time></trkpt><trkpt lat="44.4440752" lon="5.0084364"><ele>291.0</ele><time>2026-04-10T13:38:00.819Z</time></trkpt><trkpt lat="44.4440074" lon="5.0082133"><ele>292.0</ele><time>2026-04-10T13:38:01.823Z</time></trkpt><trkpt lat="44.443946" lon="5.0079926"><ele>293.0</ele><time>2026-04-10T13:38:02.823Z</time></trkpt><trkpt lat="44.4438832" lon="5.0077716"><ele>294.0</ele><time>2026-04-10T13:38:03.822Z</time></trkpt><trkpt lat="44.4438142" lon="5.0075483"><ele>293.3333333333333</ele><time>2026-04-10T13:38:04.824Z</time></trkpt><trkpt lat="44.4437497" lon="5.0073202"><ele>292.66666666666663</ele><time>2026-04-10T13:38:05.827Z</time></trkpt><trkpt lat="44.443674" lon="5.0070872"><ele>292.0</ele><time>2026-04-10T13:38:06.825Z</time></trkpt><trkpt lat="44.4436079" lon="5.0068538"><ele>292.66666666666663</ele><time>2026-04-10T13:38:07.821Z</time></trkpt><trkpt lat="44.4435449" lon="5.0066123"><ele>293.3333333333333</ele><time>2026-04-10T13:38:08.823Z</time></trkpt><trkpt lat="44.4434793" lon="5.0063796"><ele>294.0</ele><time>2026-04-10T13:38:09.824Z</time></trkpt><trkpt lat="44.4434131" lon="5.0061498"><ele>294.0</ele><time>2026-04-10T13:38:10.825Z</time></trkpt><trkpt lat="44.4433409" lon="5.0059269"><ele>294.0</ele><time>2026-04-10T13:38:11.832Z</time></trkpt><trkpt lat="44.4432868" lon="5.0057023"><ele>294.0</ele><time>2026-04-10T13:38:12.827Z</time></trkpt><trkpt lat="44.443227" lon="5.0054884"><ele>294.25</ele><time>2026-04-10T13:38:13.822Z</time></trkpt><trkpt lat="44.4431616" lon="5.0052909"><ele>294.5</ele><time>2026-04-10T13:38:14.821Z</time></trkpt><trkpt lat="44.4431057" lon="5.0051034"><ele>294.75</ele><time>2026-04-10T13:38:15.823Z</time></trkpt><trkpt lat="44.4430496" lon="5.0049154"><ele>295.0</ele><time>2026-04-10T13:38:16.82Z</time></trkpt><trkpt lat="44.4429978" lon="5.0047536"><ele>294.6</ele><time>2026-04-10T13:38:17.82Z</time></trkpt><trkpt lat="44.4429581" lon="5.004604"><ele>294.2</ele><time>2026-04-10T13:38:18.819Z</time></trkpt><trkpt lat="44.4429159" lon="5.0044737"><ele>293.8</ele><time>2026-04-10T13:38:19.824Z</time></trkpt><trkpt lat="44.4428858" lon="5.0043645"><ele>293.4</ele><time>2026-04-10T13:38:20.82Z</time></trkpt><trkpt lat="44.4428749" lon="5.0042281"><ele>293.0</ele><time>2026-04-10T13:38:22.822Z</time></trkpt><trkpt lat="44.4429517" lon="5.0041382"><ele>296.0</ele><time>2026-04-10T13:38:25.824Z</time></trkpt><trkpt lat="44.4430814" lon="5.0041192"><ele>299.0</ele><time>2026-04-10T13:38:27.821Z</time></trkpt><trkpt lat="44.4431567" lon="5.0041119"><ele>302.0</ele><time>2026-04-10T13:38:28.823Z</time></trkpt><trkpt lat="44.4432321" lon="5.0040974"><ele>305.0</ele><time>2026-04-10T13:38:29.822Z</time></trkpt><trkpt lat="44.4433254" lon="5.0040836"><ele>308.0</ele><time>2026-04-10T13:38:30.821Z</time></trkpt><trkpt lat="44.4434227" lon="5.0040642"><ele>308.0</ele><time>2026-04-10T13:38:31.823Z</time></trkpt><trkpt lat="44.4435181" lon="5.0040548"><ele>308.0</ele><time>2026-04-10T13:38:32.821Z</time></trkpt><trkpt lat="44.4436228" lon="5.0040338"><ele>308.0</ele><time>2026-04-10T13:38:33.824Z</time></trkpt><trkpt lat="44.4437245" lon="5.004004"><ele>308.0</ele><time>2026-04-10T13:38:34.82Z</time></trkpt><trkpt lat="44.4438234" lon="5.0039691"><ele>308.0</ele><time>2026-04-10T13:38:35.82Z</time></trkpt><trkpt lat="44.4439257" lon="5.0039297"><ele>308.6</ele><time>2026-04-10T13:38:36.818Z</time></trkpt><trkpt lat="44.4440256" lon="5.0038908"><ele>309.20000000000005</ele><time>2026-04-10T13:38:37.82Z</time></trkpt><trkpt lat="44.444133" lon="5.0038536"><ele>309.8</ele><time>2026-04-10T13:38:38.826Z</time></trkpt><trkpt lat="44.4442377" lon="5.003813"><ele>310.40000000000003</ele><time>2026-04-10T13:38:39.829Z</time></trkpt><trkpt lat="44.4443302" lon="5.0037606"><ele>311.0</ele><time>2026-04-10T13:38:40.833Z</time></trkpt><trkpt lat="44.4444178" lon="5.0036967"><ele>311.0</ele><time>2026-04-10T13:38:41.825Z</time></trkpt><trkpt lat="44.4445051" lon="5.0036276"><ele>311.0</ele><time>2026-04-10T13:38:42.818Z</time></trkpt><trkpt lat="44.444575" lon="5.0035401"><ele>311.0</ele><time>2026-04-10T13:38:43.819Z</time></trkpt><trkpt lat="44.4446464" lon="5.0034435"><ele>311.0</ele><time>2026-04-10T13:38:44.821Z</time></trkpt><trkpt lat="44.4447118" lon="5.0033531"><ele>311.0</ele><time>2026-04-10T13:38:45.821Z</time></trkpt><trkpt lat="44.4447642" lon="5.0032773"><ele>311.0</ele><time>2026-04-10T13:38:46.822Z</time></trkpt><trkpt lat="44.4448159" lon="5.0032098"><ele>311.0</ele><time>2026-04-10T13:38:47.819Z</time></trkpt><trkpt lat="44.444873" lon="5.0031532"><ele>311.0</ele><time>2026-04-10T13:38:48.821Z</time></trkpt><trkpt lat="44.4448992" lon="5.0030582"><ele>311.0</ele><time>2026-04-10T13:38:50.82Z</time></trkpt><trkpt lat="44.4448802" lon="5.0029253"><ele>311.0</ele><time>2026-04-10T13:38:52.829Z</time></trkpt><trkpt lat="44.4448366" lon="5.002753"><ele>311.0</ele><time>2026-04-10T13:38:54.819Z</time></trkpt><trkpt lat="44.4448304" lon="5.0026595"><ele>311.0</ele><time>2026-04-10T13:38:55.819Z</time></trkpt><trkpt lat="44.4448507" lon="5.0025443"><ele>311.0</ele><time>2026-04-10T13:38:56.821Z</time></trkpt><trkpt lat="44.4448581" lon="5.0024264"><ele>311.0</ele><time>2026-04-10T13:38:57.822Z</time></trkpt><trkpt lat="44.44488" lon="5.0023153"><ele>311.0</ele><time>2026-04-10T13:38:58.82Z</time></trkpt><trkpt lat="44.4448861" lon="5.0022182"><ele>311.0</ele><time>2026-04-10T13:38:59.818Z</time></trkpt><trkpt lat="44.4449013" lon="5.0020934"><ele>311.0</ele><time>2026-04-10T13:39:00.822Z</time></trkpt><trkpt lat="44.4448882" lon="5.0019819"><ele>312.0</ele><time>2026-04-10T13:39:01.822Z</time></trkpt><trkpt lat="44.4448973" lon="5.0018754"><ele>313.0</ele><time>2026-04-10T13:39:02.82Z</time></trkpt><trkpt lat="44.4448982" lon="5.0017541"><ele>314.0</ele><time>2026-04-10T13:39:03.821Z</time></trkpt><trkpt lat="44.4449023" lon="5.0016491"><ele>315.0</ele><time>2026-04-10T13:39:04.818Z</time></trkpt><trkpt lat="44.4449192" lon="5.0015111"><ele>316.0</ele><time>2026-04-10T13:39:05.82Z</time></trkpt><trkpt lat="44.4449494" lon="5.0013478"><ele>316.0</ele><time>2026-04-10T13:39:06.823Z</time></trkpt><trkpt lat="44.4449865" lon="5.0011855"><ele>316.0</ele><time>2026-04-10T13:39:07.822Z</time></trkpt><trkpt lat="44.4450239" lon="5.0010357"><ele>316.0</ele><time>2026-04-10T13:39:08.824Z</time></trkpt><trkpt lat="44.445083" lon="5.0008782"><ele>316.0</ele><time>2026-04-10T13:39:09.819Z</time></trkpt><trkpt lat="44.4451406" lon="5.0007221"><ele>316.0</ele><time>2026-04-10T13:39:10.822Z</time></trkpt><trkpt lat="44.4451758" lon="5.0005607"><ele>316.0</ele><time>2026-04-10T13:39:11.821Z</time></trkpt><trkpt lat="44.4452129" lon="5.0003857"><ele>316.0</ele><time>2026-04-10T13:39:12.822Z</time></trkpt><trkpt lat="44.4452413" lon="5.0002064"><ele>316.0</ele><time>2026-04-10T13:39:13.82Z</time></trkpt><trkpt lat="44.4452751" lon="5.000038"><ele>316.0</ele><time>2026-04-10T13:39:14.824Z</time></trkpt><trkpt lat="44.4453206" lon="4.9998343"><ele>316.0</ele><time>2026-04-10T13:39:15.821Z</time></trkpt><trkpt lat="44.4453649" lon="4.9996351"><ele>316.0</ele><time>2026-04-10T13:39:16.82Z</time></trkpt><trkpt lat="44.4454017" lon="4.9994613"><ele>316.0</ele><time>2026-04-10T13:39:17.827Z</time></trkpt><trkpt lat="44.4454309" lon="4.999305"><ele>316.2</ele><time>2026-04-10T13:39:18.825Z</time></trkpt><trkpt lat="44.4454438" lon="4.9991582"><ele>316.40000000000003</ele><time>2026-04-10T13:39:19.822Z</time></trkpt><trkpt lat="44.4454233" lon="4.999002"><ele>316.6</ele><time>2026-04-10T13:39:20.821Z</time></trkpt><trkpt lat="44.4453994" lon="4.9988539"><ele>316.8</ele><time>2026-04-10T13:39:21.821Z</time></trkpt><trkpt lat="44.4453889" lon="4.9987092"><ele>317.0</ele><time>2026-04-10T13:39:22.821Z</time></trkpt><trkpt lat="44.4453794" lon="4.9985682"><ele>317.0</ele><time>2026-04-10T13:39:23.82Z</time></trkpt><trkpt lat="44.4453632" lon="4.9984281"><ele>317.0</ele><time>2026-04-10T13:39:24.833Z</time></trkpt><trkpt lat="44.4453488" lon="4.9982907"><ele>317.0</ele><time>2026-04-10T13:39:25.823Z</time></trkpt><trkpt lat="44.4453341" lon="4.9981553"><ele>317.0</ele><time>2026-04-10T13:39:26.823Z</time></trkpt><trkpt lat="44.4453208" lon="4.9980247"><ele>317.0</ele><time>2026-04-10T13:39:27.825Z</time></trkpt><trkpt lat="44.4453117" lon="4.9978745"><ele>317.0</ele><time>2026-04-10T13:39:28.821Z</time></trkpt><trkpt lat="44.4452962" lon="4.9977281"><ele>317.0</ele><time>2026-04-10T13:39:29.819Z</time></trkpt><trkpt lat="44.4452808" lon="4.9975661"><ele>317.0</ele><time>2026-04-10T13:39:30.821Z</time></trkpt><trkpt lat="44.4452637" lon="4.9973965"><ele>317.0</ele><time>2026-04-10T13:39:31.819Z</time></trkpt><trkpt lat="44.4452415" lon="4.9972291"><ele>317.0</ele><time>2026-04-10T13:39:32.832Z</time></trkpt><trkpt lat="44.4452325" lon="4.9970915"><ele>317.0</ele><time>2026-04-10T13:39:33.829Z</time></trkpt><trkpt lat="44.4452298" lon="4.9969513"><ele>317.0</ele><time>2026-04-10T13:39:34.82Z</time></trkpt><trkpt lat="44.4452077" lon="4.9968267"><ele>317.0</ele><time>2026-04-10T13:39:35.824Z</time></trkpt><trkpt lat="44.44518" lon="4.9967066"><ele>317.0</ele><time>2026-04-10T13:39:36.821Z</time></trkpt><trkpt lat="44.445133" lon="4.9966055"><ele>317.2</ele><time>2026-04-10T13:39:37.824Z</time></trkpt><trkpt lat="44.4450751" lon="4.9965317"><ele>317.4</ele><time>2026-04-10T13:39:38.828Z</time></trkpt><trkpt lat="44.4450236" lon="4.9964614"><ele>317.6</ele><time>2026-04-10T13:39:39.818Z</time></trkpt><trkpt lat="44.4449947" lon="4.9963064"><ele>317.8</ele><time>2026-04-10T13:39:41.825Z</time></trkpt><trkpt lat="44.4450021" lon="4.9962002"><ele>318.0</ele><time>2026-04-10T13:39:42.819Z</time></trkpt><trkpt lat="44.4450242" lon="4.9960429"><ele>318.0</ele><time>2026-04-10T13:39:43.826Z</time></trkpt><trkpt lat="44.4450496" lon="4.9958776"><ele>318.0</ele><time>2026-04-10T13:39:44.82Z</time></trkpt><trkpt lat="44.4450706" lon="4.9957358"><ele>318.0</ele><time>2026-04-10T13:39:45.823Z</time></trkpt><trkpt lat="44.4450866" lon="4.9956111"><ele>318.0</ele><time>2026-04-10T13:39:46.818Z</time></trkpt><trkpt lat="44.4451175" lon="4.9954838"><ele>318.0</ele><time>2026-04-10T13:39:47.822Z</time></trkpt><trkpt lat="44.4451326" lon="4.9953504"><ele>317.6</ele><time>2026-04-10T13:39:48.82Z</time></trkpt><trkpt lat="44.4451503" lon="4.9952143"><ele>317.20000000000005</ele><time>2026-04-10T13:39:49.822Z</time></trkpt><trkpt lat="44.445155" lon="4.9950926"><ele>316.8</ele><time>2026-04-10T13:39:50.82Z</time></trkpt><trkpt lat="44.4451565" lon="4.9949714"><ele>316.40000000000003</ele><time>2026-04-10T13:39:51.821Z</time></trkpt><trkpt lat="44.4451474" lon="4.994801"><ele>316.0</ele><time>2026-04-10T13:39:53.826Z</time></trkpt><trkpt lat="44.4451703" lon="4.9946385"><ele>315.6</ele><time>2026-04-10T13:39:55.821Z</time></trkpt><trkpt lat="44.4451815" lon="4.9945188"><ele>315.20000000000005</ele><time>2026-04-10T13:39:56.82Z</time></trkpt><trkpt lat="44.4452004" lon="4.9943816"><ele>314.79999999999995</ele><time>2026-04-10T13:39:57.822Z</time></trkpt><trkpt lat="44.4452237" lon="4.9942232"><ele>314.4</ele><time>2026-04-10T13:39:58.826Z</time></trkpt><trkpt lat="44.4452492" lon="4.9940555"><ele>314.0</ele><time>2026-04-10T13:39:59.822Z</time></trkpt><trkpt lat="44.4452754" lon="4.9938924"><ele>313.59999999999997</ele><time>2026-04-10T13:40:00.82Z</time></trkpt><trkpt lat="44.4452939" lon="4.9937371"><ele>313.2</ele><time>2026-04-10T13:40:01.821Z</time></trkpt><trkpt lat="44.4453102" lon="4.9935818"><ele>312.79999999999995</ele><time>2026-04-10T13:40:02.821Z</time></trkpt><trkpt lat="44.445324" lon="4.9934318"><ele>312.4</ele><time>2026-04-10T13:40:03.824Z</time></trkpt><trkpt lat="44.4453289" lon="4.9932749"><ele>312.0</ele><time>2026-04-10T13:40:04.824Z</time></trkpt><trkpt lat="44.4453298" lon="4.9931379"><ele>311.5</ele><time>2026-04-10T13:40:05.823Z</time></trkpt><trkpt lat="44.4453406" lon="4.9929962"><ele>311.0</ele><time>2026-04-10T13:40:06.819Z</time></trkpt><trkpt lat="44.4453444" lon="4.9928825"><ele>310.5</ele><time>2026-04-10T13:40:07.824Z</time></trkpt><trkpt lat="44.4453331" lon="4.9927899"><ele>310.0</ele><time>2026-04-10T13:40:08.825Z</time></trkpt><trkpt lat="44.4453487" lon="4.9926958"><ele>309.5</ele><time>2026-04-10T13:40:09.82Z</time></trkpt><trkpt lat="44.4453361" lon="4.9925303"><ele>309.0</ele><time>2026-04-10T13:40:11.819Z</time></trkpt><trkpt lat="44.4453326" lon="4.992441"><ele>308.59999999999997</ele><time>2026-04-10T13:40:12.822Z</time></trkpt><trkpt lat="44.4453425" lon="4.9922715"><ele>308.2</ele><time>2026-04-10T13:40:14.823Z</time></trkpt><trkpt lat="44.4453439" lon="4.9921117"><ele>307.79999999999995</ele><time>2026-04-10T13:40:16.82Z</time></trkpt><trkpt lat="44.4453528" lon="4.9920168"><ele>307.4</ele><time>2026-04-10T13:40:17.823Z</time></trkpt><trkpt lat="44.4453559" lon="4.9919088"><ele>307.0</ele><time>2026-04-10T13:40:18.823Z</time></trkpt><trkpt lat="44.4453592" lon="4.9917772"><ele>306.75</ele><time>2026-04-10T13:40:19.819Z</time></trkpt><trkpt lat="44.4453694" lon="4.9916293"><ele>306.5</ele><time>2026-04-10T13:40:20.821Z</time></trkpt><trkpt lat="44.44538" lon="4.9914731"><ele>306.25</ele><time>2026-04-10T13:40:21.821Z</time></trkpt><trkpt lat="44.4453871" lon="4.991318"><ele>306.0</ele><time>2026-04-10T13:40:22.817Z</time></trkpt><trkpt lat="44.4453941" lon="4.9911377"><ele>306.0</ele><time>2026-04-10T13:40:23.821Z</time></trkpt><trkpt lat="44.4453973" lon="4.990988"><ele>306.0</ele><time>2026-04-10T13:40:24.82Z</time></trkpt><trkpt lat="44.4453898" lon="4.9908527"><ele>306.0</ele><time>2026-04-10T13:40:25.818Z</time></trkpt><trkpt lat="44.4453953" lon="4.9907192"><ele>306.0</ele><time>2026-04-10T13:40:26.82Z</time></trkpt><trkpt lat="44.4453909" lon="4.9905974"><ele>306.0</ele><time>2026-04-10T13:40:27.818Z</time></trkpt><trkpt lat="44.4453806" lon="4.990498"><ele>305.6</ele><time>2026-04-10T13:40:28.824Z</time></trkpt><trkpt lat="44.4453754" lon="4.9904037"><ele>305.20000000000005</ele><time>2026-04-10T13:40:29.823Z</time></trkpt><trkpt lat="44.4453779" lon="4.9903119"><ele>304.79999999999995</ele><time>2026-04-10T13:40:30.822Z</time></trkpt><trkpt lat="44.4453841" lon="4.990146"><ele>304.4</ele><time>2026-04-10T13:40:32.82Z</time></trkpt><trkpt lat="44.445386" lon="4.9899942"><ele>304.0</ele><time>2026-04-10T13:40:34.819Z</time></trkpt><trkpt lat="44.4453882" lon="4.9898609"><ele>303.59999999999997</ele><time>2026-04-10T13:40:36.821Z</time></trkpt><trkpt lat="44.4453872" lon="4.9897203"><ele>303.2</ele><time>2026-04-10T13:40:38.823Z</time></trkpt><trkpt lat="44.4453837" lon="4.9895743"><ele>302.79999999999995</ele><time>2026-04-10T13:40:40.819Z</time></trkpt><trkpt lat="44.4453838" lon="4.9894327"><ele>302.4</ele><time>2026-04-10T13:40:42.822Z</time></trkpt><trkpt lat="44.4453844" lon="4.9893175"><ele>302.0</ele><time>2026-04-10T13:40:43.82Z</time></trkpt><trkpt lat="44.4453909" lon="4.9892107"><ele>302.0</ele><time>2026-04-10T13:40:44.824Z</time></trkpt><trkpt lat="44.445395" lon="4.9891143"><ele>302.0</ele><time>2026-04-10T13:40:45.823Z</time></trkpt><trkpt lat="44.4453983" lon="4.9889508"><ele>302.0</ele><time>2026-04-10T13:40:47.82Z</time></trkpt><trkpt lat="44.4454012" lon="4.9888568"><ele>302.0</ele><time>2026-04-10T13:40:48.821Z</time></trkpt><trkpt lat="44.4454055" lon="4.9887604"><ele>302.0</ele><time>2026-04-10T13:40:49.821Z</time></trkpt><trkpt lat="44.4454184" lon="4.9886646"><ele>302.0</ele><time>2026-04-10T13:40:50.818Z</time></trkpt><trkpt lat="44.44542" lon="4.9885434"><ele>302.0</ele><time>2026-04-10T13:40:51.817Z</time></trkpt><trkpt lat="44.4454274" lon="4.9884248"><ele>302.0</ele><time>2026-04-10T13:40:52.823Z</time></trkpt><trkpt lat="44.4454412" lon="4.988294"><ele>302.0</ele><time>2026-04-10T13:40:53.825Z</time></trkpt><trkpt lat="44.4454533" lon="4.9881769"><ele>302.0</ele><time>2026-04-10T13:40:54.82Z</time></trkpt><trkpt lat="44.4454687" lon="4.9880617"><ele>302.0</ele><time>2026-04-10T13:40:55.819Z</time></trkpt><trkpt lat="44.4454794" lon="4.9879442"><ele>302.0</ele><time>2026-04-10T13:40:56.822Z</time></trkpt><trkpt lat="44.4455037" lon="4.9878162"><ele>300.8</ele><time>2026-04-10T13:40:57.82Z</time></trkpt><trkpt lat="44.4455136" lon="4.9876864"><ele>299.6</ele><time>2026-04-10T13:40:58.823Z</time></trkpt><trkpt lat="44.4455428" lon="4.9875594"><ele>298.40000000000003</ele><time>2026-04-10T13:40:59.821Z</time></trkpt><trkpt lat="44.445555" lon="4.9874328"><ele>297.2</ele><time>2026-04-10T13:41:00.821Z</time></trkpt><trkpt lat="44.4455764" lon="4.9872955"><ele>296.0</ele><time>2026-04-10T13:41:01.823Z</time></trkpt><trkpt lat="44.4455979" lon="4.9871644"><ele>295.1666666666667</ele><time>2026-04-10T13:41:02.821Z</time></trkpt><trkpt lat="44.4456232" lon="4.9870367"><ele>294.33333333333337</ele><time>2026-04-10T13:41:03.821Z</time></trkpt><trkpt lat="44.4456255" lon="4.9869353"><ele>293.5</ele><time>2026-04-10T13:41:04.824Z</time></trkpt><trkpt lat="44.4456292" lon="4.9868337"><ele>292.6666666666667</ele><time>2026-04-10T13:41:05.82Z</time></trkpt><trkpt lat="44.4456258" lon="4.9867389"><ele>291.8333333333333</ele><time>2026-04-10T13:41:06.822Z</time></trkpt><trkpt lat="44.4456386" lon="4.9866377"><ele>291.0</ele><time>2026-04-10T13:41:07.822Z</time></trkpt><trkpt lat="44.4456417" lon="4.9865244"><ele>290.6666666666667</ele><time>2026-04-10T13:41:08.824Z</time></trkpt><trkpt lat="44.4456353" lon="4.9864105"><ele>290.3333333333333</ele><time>2026-04-10T13:41:09.821Z</time></trkpt><trkpt lat="44.4456258" lon="4.9863044"><ele>290.0</ele><time>2026-04-10T13:41:10.822Z</time></trkpt><trkpt lat="44.445613" lon="4.9862054"><ele>289.66666666666663</ele><time>2026-04-10T13:41:11.824Z</time></trkpt><trkpt lat="44.4455982" lon="4.9860863"><ele>289.3333333333333</ele><time>2026-04-10T13:41:12.821Z</time></trkpt><trkpt lat="44.445596" lon="4.9859744"><ele>289.0</ele><time>2026-04-10T13:41:13.823Z</time></trkpt><trkpt lat="44.4456185" lon="4.9858031"><ele>289.0</ele><time>2026-04-10T13:41:15.824Z</time></trkpt><trkpt lat="44.4456564" lon="4.9856516"><ele>289.0</ele><time>2026-04-10T13:41:17.82Z</time></trkpt><trkpt lat="44.4456758" lon="4.9855662"><ele>289.0</ele><time>2026-04-10T13:41:18.819Z</time></trkpt><trkpt lat="44.445687" lon="4.9854793"><ele>289.0</ele><time>2026-04-10T13:41:19.823Z</time></trkpt><trkpt lat="44.4456891" lon="4.9853215"><ele>289.0</ele><time>2026-04-10T13:41:21.824Z</time></trkpt><trkpt lat="44.4456825" lon="4.9851624"><ele>289.0</ele><time>2026-04-10T13:41:23.822Z</time></trkpt><trkpt lat="44.4456564" lon="4.9850285"><ele>289.0</ele><time>2026-04-10T13:41:25.822Z</time></trkpt><trkpt lat="44.4456231" lon="4.9849132"><ele>289.0</ele><time>2026-04-10T13:41:27.823Z</time></trkpt><trkpt lat="44.4455738" lon="4.9848522"><ele>289.0</ele><time>2026-04-10T13:41:29.821Z</time></trkpt><trkpt lat="44.4455443" lon="4.9846889"><ele>289.0</ele><time>2026-04-10T13:41:44.828Z</time></trkpt><trkpt lat="44.4455774" lon="4.9845219"><ele>288.5</ele><time>2026-04-10T13:41:46.822Z</time></trkpt><trkpt lat="44.4456024" lon="4.984352"><ele>288.0</ele><time>2026-04-10T13:41:48.823Z</time></trkpt><trkpt lat="44.4456133" lon="4.9842609"><ele>287.5</ele><time>2026-04-10T13:41:49.822Z</time></trkpt><trkpt lat="44.4456247" lon="4.984165"><ele>287.0</ele><time>2026-04-10T13:41:50.823Z</time></trkpt><trkpt lat="44.4456315" lon="4.9840701"><ele>286.5</ele><time>2026-04-10T13:41:51.827Z</time></trkpt><trkpt lat="44.4456344" lon="4.9839741"><ele>286.0</ele><time>2026-04-10T13:41:52.824Z</time></trkpt><trkpt lat="44.445606" lon="4.9838888"><ele>285.8333333333333</ele><time>2026-04-10T13:41:53.821Z</time></trkpt><trkpt lat="44.4455637" lon="4.9838019"><ele>285.66666666666663</ele><time>2026-04-10T13:41:54.827Z</time></trkpt><trkpt lat="44.4455259" lon="4.9837138"><ele>285.5</ele><time>2026-04-10T13:41:55.826Z</time></trkpt><trkpt lat="44.4454823" lon="4.9836311"><ele>285.3333333333333</ele><time>2026-04-10T13:41:56.821Z</time></trkpt><trkpt lat="44.4454324" lon="4.9835438"><ele>285.1666666666667</ele><time>2026-04-10T13:41:57.821Z</time></trkpt><trkpt lat="44.4453895" lon="4.9834461"><ele>285.0</ele><time>2026-04-10T13:41:58.819Z</time></trkpt><trkpt lat="44.4453286" lon="4.9833549"><ele>283.8333333333333</ele><time>2026-04-10T13:41:59.821Z</time></trkpt><trkpt lat="44.4452729" lon="4.9832658"><ele>282.6666666666667</ele><time>2026-04-10T13:42:00.818Z</time></trkpt><trkpt lat="44.4452165" lon="4.9831752"><ele>281.5</ele><time>2026-04-10T13:42:01.82Z</time></trkpt><trkpt lat="44.445154" lon="4.9830857"><ele>280.33333333333337</ele><time>2026-04-10T13:42:02.827Z</time></trkpt><trkpt lat="44.4450927" lon="4.9829941"><ele>279.1666666666667</ele><time>2026-04-10T13:42:03.825Z</time></trkpt><trkpt lat="44.4450372" lon="4.9828987"><ele>278.0</ele><time>2026-04-10T13:42:04.82Z</time></trkpt><trkpt lat="44.444974" lon="4.9827974"><ele>278.0</ele><time>2026-04-10T13:42:05.82Z</time></trkpt><trkpt lat="44.4449131" lon="4.9827022"><ele>278.0</ele><time>2026-04-10T13:42:06.822Z</time></trkpt><trkpt lat="44.4448557" lon="4.982595"><ele>278.0</ele><time>2026-04-10T13:42:07.821Z</time></trkpt><trkpt lat="44.4448025" lon="4.9824968"><ele>278.0</ele><time>2026-04-10T13:42:08.826Z</time></trkpt><trkpt lat="44.4447484" lon="4.9823883"><ele>278.0</ele><time>2026-04-10T13:42:09.821Z</time></trkpt><trkpt lat="44.4447171" lon="4.9822787"><ele>278.0</ele><time>2026-04-10T13:42:10.82Z</time></trkpt><trkpt lat="44.4446681" lon="4.9821785"><ele>278.0</ele><time>2026-04-10T13:42:11.819Z</time></trkpt><trkpt lat="44.4446356" lon="4.9820847"><ele>278.0</ele><time>2026-04-10T13:42:12.822Z</time></trkpt><trkpt lat="44.4445992" lon="4.9819993"><ele>278.0</ele><time>2026-04-10T13:42:13.818Z</time></trkpt><trkpt lat="44.4445678" lon="4.9819109"><ele>278.0</ele><time>2026-04-10T13:42:14.82Z</time></trkpt><trkpt lat="44.4445148" lon="4.9817563"><ele>278.0</ele><time>2026-04-10T13:42:16.825Z</time></trkpt><trkpt lat="44.4444683" lon="4.9816284"><ele>278.1666666666667</ele><time>2026-04-10T13:42:18.82Z</time></trkpt><trkpt lat="44.4444817" lon="4.981495"><ele>278.33333333333337</ele><time>2026-04-10T13:42:20.821Z</time></trkpt><trkpt lat="44.4445347" lon="4.9813495"><ele>278.5</ele><time>2026-04-10T13:42:22.819Z</time></trkpt><trkpt lat="44.4446223" lon="4.9813056"><ele>278.6666666666667</ele><time>2026-04-10T13:42:24.819Z</time></trkpt><trkpt lat="44.4446818" lon="4.9812722"><ele>278.8333333333333</ele><time>2026-04-10T13:42:25.82Z</time></trkpt><trkpt lat="44.4447168" lon="4.9811813"><ele>279.0</ele><time>2026-04-10T13:42:26.818Z</time></trkpt><trkpt lat="44.4447802" lon="4.9810338"><ele>279.0</ele><time>2026-04-10T13:42:28.818Z</time></trkpt><trkpt lat="44.4448244" lon="4.9809508"><ele>279.0</ele><time>2026-04-10T13:42:29.826Z</time></trkpt><trkpt lat="44.4448693" lon="4.9808671"><ele>279.0</ele><time>2026-04-10T13:42:30.821Z</time></trkpt><trkpt lat="44.4449194" lon="4.98079"><ele>279.0</ele><time>2026-04-10T13:42:31.821Z</time></trkpt><trkpt lat="44.4449696" lon="4.9806884"><ele>279.0</ele><time>2026-04-10T13:42:32.824Z</time></trkpt><trkpt lat="44.4450327" lon="4.9805891"><ele>279.0</ele><time>2026-04-10T13:42:33.822Z</time></trkpt><trkpt lat="44.4450974" lon="4.9804998"><ele>279.0</ele><time>2026-04-10T13:42:34.822Z</time></trkpt><trkpt lat="44.4451659" lon="4.9804082"><ele>279.0</ele><time>2026-04-10T13:42:35.818Z</time></trkpt><trkpt lat="44.4452332" lon="4.980318"><ele>279.0</ele><time>2026-04-10T13:42:36.82Z</time></trkpt><trkpt lat="44.4453065" lon="4.9802344"><ele>279.0</ele><time>2026-04-10T13:42:37.817Z</time></trkpt><trkpt lat="44.4453963" lon="4.9801772"><ele>279.0</ele><time>2026-04-10T13:42:38.819Z</time></trkpt><trkpt lat="44.4454831" lon="4.9801436"><ele>279.8</ele><time>2026-04-10T13:42:39.82Z</time></trkpt><trkpt lat="44.445581" lon="4.9801021"><ele>280.59999999999997</ele><time>2026-04-10T13:42:40.818Z</time></trkpt><trkpt lat="44.4456807" lon="4.9800651"><ele>281.4</ele><time>2026-04-10T13:42:41.822Z</time></trkpt><trkpt lat="44.4457814" lon="4.9800176"><ele>282.2</ele><time>2026-04-10T13:42:42.823Z</time></trkpt><trkpt lat="44.4458929" lon="4.9799782"><ele>283.0</ele><time>2026-04-10T13:42:43.822Z</time></trkpt><trkpt lat="44.4459983" lon="4.9799329"><ele>283.0</ele><time>2026-04-10T13:42:44.824Z</time></trkpt><trkpt lat="44.4461154" lon="4.9798842"><ele>283.0</ele><time>2026-04-10T13:42:45.82Z</time></trkpt><trkpt lat="44.4462253" lon="4.9798421"><ele>283.0</ele><time>2026-04-10T13:42:46.817Z</time></trkpt><trkpt lat="44.4463427" lon="4.9798003"><ele>283.0</ele><time>2026-04-10T13:42:47.822Z</time></trkpt><trkpt lat="44.4464529" lon="4.9797649"><ele>284.0</ele><time>2026-04-10T13:42:48.822Z</time></trkpt><trkpt lat="44.4465561" lon="4.9797361"><ele>285.0</ele><time>2026-04-10T13:42:49.821Z</time></trkpt><trkpt lat="44.4466496" lon="4.9796902"><ele>286.0</ele><time>2026-04-10T13:42:50.82Z</time></trkpt><trkpt lat="44.4467365" lon="4.9796457"><ele>287.0</ele><time>2026-04-10T13:42:51.818Z</time></trkpt><trkpt lat="44.4468125" lon="4.9795665"><ele>288.0</ele><time>2026-04-10T13:42:52.82Z</time></trkpt><trkpt lat="44.4468934" lon="4.9794877"><ele>288.0</ele><time>2026-04-10T13:42:53.82Z</time></trkpt><trkpt lat="44.4469633" lon="4.9793986"><ele>288.0</ele><time>2026-04-10T13:42:54.822Z</time></trkpt><trkpt lat="44.4470339" lon="4.9793117"><ele>288.0</ele><time>2026-04-10T13:42:55.819Z</time></trkpt><trkpt lat="44.4471024" lon="4.9792152"><ele>288.0</ele><time>2026-04-10T13:42:56.819Z</time></trkpt><trkpt lat="44.447176" lon="4.9791175"><ele>288.0</ele><time>2026-04-10T13:42:57.825Z</time></trkpt><trkpt lat="44.4472548" lon="4.979011"><ele>289.0</ele><time>2026-04-10T13:42:58.819Z</time></trkpt><trkpt lat="44.4473346" lon="4.9788944"><ele>290.0</ele><time>2026-04-10T13:42:59.82Z</time></trkpt><trkpt lat="44.4474283" lon="4.9787642"><ele>291.0</ele><time>2026-04-10T13:43:00.821Z</time></trkpt><trkpt lat="44.4475261" lon="4.9786323"><ele>292.0</ele><time>2026-04-10T13:43:01.818Z</time></trkpt><trkpt lat="44.4476286" lon="4.9784951"><ele>292.0</ele><time>2026-04-10T13:43:02.819Z</time></trkpt><trkpt lat="44.4477339" lon="4.9783575"><ele>292.0</ele><time>2026-04-10T13:43:03.818Z</time></trkpt><trkpt lat="44.4478388" lon="4.9782164"><ele>292.0</ele><time>2026-04-10T13:43:04.822Z</time></trkpt><trkpt lat="44.4479509" lon="4.978067"><ele>292.0</ele><time>2026-04-10T13:43:05.819Z</time></trkpt><trkpt lat="44.4480558" lon="4.9779189"><ele>293.5</ele><time>2026-04-10T13:43:06.823Z</time></trkpt><trkpt lat="44.4481592" lon="4.9777717"><ele>295.0</ele><time>2026-04-10T13:43:07.822Z</time></trkpt><trkpt lat="44.4482644" lon="4.9776157"><ele>296.5</ele><time>2026-04-10T13:43:08.818Z</time></trkpt><trkpt lat="44.4483723" lon="4.9774795"><ele>298.0</ele><time>2026-04-10T13:43:09.822Z</time></trkpt><trkpt lat="44.4484843" lon="4.9773385"><ele>298.3333333333333</ele><time>2026-04-10T13:43:10.819Z</time></trkpt><trkpt lat="44.4486052" lon="4.9772043"><ele>298.6666666666667</ele><time>2026-04-10T13:43:11.821Z</time></trkpt><trkpt lat="44.4487389" lon="4.9770963"><ele>299.0</ele><time>2026-04-10T13:43:12.819Z</time></trkpt><trkpt lat="44.4488741" lon="4.97699"><ele>299.6666666666667</ele><time>2026-04-10T13:43:13.82Z</time></trkpt><trkpt lat="44.4490111" lon="4.9768694"><ele>300.3333333333333</ele><time>2026-04-10T13:43:14.819Z</time></trkpt><trkpt lat="44.4491424" lon="4.9767491"><ele>301.0</ele><time>2026-04-10T13:43:15.823Z</time></trkpt><trkpt lat="44.4492873" lon="4.976632"><ele>301.0</ele><time>2026-04-10T13:43:16.822Z</time></trkpt><trkpt lat="44.4494293" lon="4.9765217"><ele>301.0</ele><time>2026-04-10T13:43:17.819Z</time></trkpt><trkpt lat="44.4495709" lon="4.9763887"><ele>301.0</ele><time>2026-04-10T13:43:18.82Z</time></trkpt><trkpt lat="44.4497101" lon="4.9762726"><ele>302.66666666666663</ele><time>2026-04-10T13:43:19.821Z</time></trkpt><trkpt lat="44.4498516" lon="4.976151"><ele>304.3333333333333</ele><time>2026-04-10T13:43:20.82Z</time></trkpt><trkpt lat="44.4499904" lon="4.9760236"><ele>306.0</ele><time>2026-04-10T13:43:21.821Z</time></trkpt><trkpt lat="44.4501345" lon="4.9759187"><ele>306.3333333333333</ele><time>2026-04-10T13:43:22.819Z</time></trkpt><trkpt lat="44.450286" lon="4.9758328"><ele>306.66666666666663</ele><time>2026-04-10T13:43:23.819Z</time></trkpt><trkpt lat="44.4504393" lon="4.9757387"><ele>307.0</ele><time>2026-04-10T13:43:24.822Z</time></trkpt><trkpt lat="44.4505892" lon="4.9756334"><ele>307.0</ele><time>2026-04-10T13:43:25.82Z</time></trkpt><trkpt lat="44.4507439" lon="4.9755401"><ele>307.0</ele><time>2026-04-10T13:43:26.82Z</time></trkpt><trkpt lat="44.4509022" lon="4.9754583"><ele>307.0</ele><time>2026-04-10T13:43:27.821Z</time></trkpt><trkpt lat="44.4510617" lon="4.9753659"><ele>307.0</ele><time>2026-04-10T13:43:28.82Z</time></trkpt><trkpt lat="44.4512112" lon="4.9752494"><ele>307.0</ele><time>2026-04-10T13:43:29.82Z</time></trkpt><trkpt lat="44.4513555" lon="4.9751403"><ele>307.0</ele><time>2026-04-10T13:43:30.823Z</time></trkpt><trkpt lat="44.4515489" lon="4.975058"><ele>309.0</ele><time>2026-04-10T13:43:31.821Z</time></trkpt><trkpt lat="44.4517168" lon="4.9749893"><ele>311.0</ele><time>2026-04-10T13:43:32.825Z</time></trkpt><trkpt lat="44.4518719" lon="4.9749053"><ele>313.0</ele><time>2026-04-10T13:43:33.824Z</time></trkpt><trkpt lat="44.4520236" lon="4.9747984"><ele>314.3333333333333</ele><time>2026-04-10T13:43:34.818Z</time></trkpt><trkpt lat="44.4521755" lon="4.974705"><ele>315.6666666666667</ele><time>2026-04-10T13:43:35.821Z</time></trkpt><trkpt lat="44.4523469" lon="4.9746168"><ele>317.0</ele><time>2026-04-10T13:43:36.819Z</time></trkpt><trkpt lat="44.452509" lon="4.9745189"><ele>317.0</ele><time>2026-04-10T13:43:37.822Z</time></trkpt><trkpt lat="44.4526736" lon="4.9744262"><ele>317.0</ele><time>2026-04-10T13:43:38.817Z</time></trkpt><trkpt lat="44.4528309" lon="4.9743279"><ele>317.0</ele><time>2026-04-10T13:43:39.82Z</time></trkpt><trkpt lat="44.4529973" lon="4.9742141"><ele>314.33333333333337</ele><time>2026-04-10T13:43:40.823Z</time></trkpt><trkpt lat="44.4531638" lon="4.9741043"><ele>311.6666666666667</ele><time>2026-04-10T13:43:41.821Z</time></trkpt><trkpt lat="44.4533374" lon="4.9739881"><ele>309.0</ele><time>2026-04-10T13:43:42.818Z</time></trkpt><trkpt lat="44.4535111" lon="4.9738742"><ele>309.0</ele><time>2026-04-10T13:43:43.822Z</time></trkpt><trkpt lat="44.4536883" lon="4.9737566"><ele>309.0</ele><time>2026-04-10T13:43:44.819Z</time></trkpt><trkpt lat="44.4538724" lon="4.9736373"><ele>309.0</ele><time>2026-04-10T13:43:45.819Z</time></trkpt><trkpt lat="44.454049" lon="4.9735139"><ele>307.0</ele><time>2026-04-10T13:43:46.838Z</time></trkpt><trkpt lat="44.4542283" lon="4.9733846"><ele>305.0</ele><time>2026-04-10T13:43:47.838Z</time></trkpt><trkpt lat="44.4544048" lon="4.973265"><ele>303.0</ele><time>2026-04-10T13:43:48.821Z</time></trkpt><trkpt lat="44.4545752" lon="4.9731502"><ele>302.6666666666667</ele><time>2026-04-10T13:43:49.82Z</time></trkpt><trkpt lat="44.4547493" lon="4.9730376"><ele>302.33333333333337</ele><time>2026-04-10T13:43:50.818Z</time></trkpt><trkpt lat="44.4549216" lon="4.9729162"><ele>302.0</ele><time>2026-04-10T13:43:51.818Z</time></trkpt><trkpt lat="44.4550872" lon="4.9727919"><ele>302.0</ele><time>2026-04-10T13:43:52.821Z</time></trkpt><trkpt lat="44.4552569" lon="4.9726499"><ele>302.0</ele><time>2026-04-10T13:43:53.82Z</time></trkpt><trkpt lat="44.4553967" lon="4.9724613"><ele>302.0</ele><time>2026-04-10T13:43:54.819Z</time></trkpt><trkpt lat="44.4555327" lon="4.9722699"><ele>303.6666666666667</ele><time>2026-04-10T13:43:55.82Z</time></trkpt><trkpt lat="44.4556711" lon="4.9720685"><ele>305.3333333333333</ele><time>2026-04-10T13:43:56.816Z</time></trkpt><trkpt lat="44.4558094" lon="4.9718859"><ele>307.0</ele><time>2026-04-10T13:43:57.825Z</time></trkpt><trkpt lat="44.4559444" lon="4.9717261"><ele>307.3333333333333</ele><time>2026-04-10T13:43:58.824Z</time></trkpt><trkpt lat="44.4560968" lon="4.9715814"><ele>307.6666666666667</ele><time>2026-04-10T13:43:59.83Z</time></trkpt><trkpt lat="44.4562599" lon="4.9714434"><ele>308.0</ele><time>2026-04-10T13:44:00.826Z</time></trkpt><trkpt lat="44.4564282" lon="4.9713211"><ele>309.0</ele><time>2026-04-10T13:44:01.819Z</time></trkpt><trkpt lat="44.4565858" lon="4.9711895"><ele>310.0</ele><time>2026-04-10T13:44:02.825Z</time></trkpt><trkpt lat="44.4567431" lon="4.9710603"><ele>311.0</ele><time>2026-04-10T13:44:03.818Z</time></trkpt><trkpt lat="44.456897" lon="4.9709363"><ele>310.6666666666667</ele><time>2026-04-10T13:44:04.819Z</time></trkpt><trkpt lat="44.4570413" lon="4.9708133"><ele>310.3333333333333</ele><time>2026-04-10T13:44:05.819Z</time></trkpt><trkpt lat="44.457196" lon="4.9707103"><ele>310.0</ele><time>2026-04-10T13:44:06.821Z</time></trkpt><trkpt lat="44.4573585" lon="4.9706212"><ele>310.0</ele><time>2026-04-10T13:44:07.82Z</time></trkpt><trkpt lat="44.4575318" lon="4.9705661"><ele>310.0</ele><time>2026-04-10T13:44:08.82Z</time></trkpt><trkpt lat="44.4577152" lon="4.9705157"><ele>310.0</ele><time>2026-04-10T13:44:09.825Z</time></trkpt><trkpt lat="44.4578976" lon="4.9704675"><ele>308.3333333333333</ele><time>2026-04-10T13:44:10.82Z</time></trkpt><trkpt lat="44.4580852" lon="4.9704217"><ele>306.6666666666667</ele><time>2026-04-10T13:44:11.82Z</time></trkpt><trkpt lat="44.4582751" lon="4.9703806"><ele>305.0</ele><time>2026-04-10T13:44:12.819Z</time></trkpt><trkpt lat="44.4584596" lon="4.9703293"><ele>305.0</ele><time>2026-04-10T13:44:13.823Z</time></trkpt><trkpt lat="44.458643" lon="4.9702835"><ele>305.0</ele><time>2026-04-10T13:44:14.824Z</time></trkpt><trkpt lat="44.4588105" lon="4.9702196"><ele>305.0</ele><time>2026-04-10T13:44:15.818Z</time></trkpt><trkpt lat="44.4589643" lon="4.9701113"><ele>304.6666666666667</ele><time>2026-04-10T13:44:16.819Z</time></trkpt><trkpt lat="44.4591005" lon="4.9699743"><ele>304.3333333333333</ele><time>2026-04-10T13:44:17.818Z</time></trkpt><trkpt lat="44.4592271" lon="4.9698349"><ele>304.0</ele><time>2026-04-10T13:44:18.822Z</time></trkpt><trkpt lat="44.4593683" lon="4.9696583"><ele>304.0</ele><time>2026-04-10T13:44:19.826Z</time></trkpt><trkpt lat="44.4595031" lon="4.969469"><ele>304.0</ele><time>2026-04-10T13:44:20.837Z</time></trkpt><trkpt lat="44.4596353" lon="4.9692761"><ele>304.0</ele><time>2026-04-10T13:44:21.827Z</time></trkpt><trkpt lat="44.4597752" lon="4.9690953"><ele>304.66666666666663</ele><time>2026-04-10T13:44:22.82Z</time></trkpt><trkpt lat="44.4599162" lon="4.9689124"><ele>305.3333333333333</ele><time>2026-04-10T13:44:23.821Z</time></trkpt><trkpt lat="44.4600552" lon="4.9687287"><ele>306.0</ele><time>2026-04-10T13:44:24.819Z</time></trkpt><trkpt lat="44.4601868" lon="4.9685498"><ele>306.0</ele><time>2026-04-10T13:44:25.82Z</time></trkpt><trkpt lat="44.4603148" lon="4.9683788"><ele>306.0</ele><time>2026-04-10T13:44:26.824Z</time></trkpt><trkpt lat="44.4604399" lon="4.9682079"><ele>306.0</ele><time>2026-04-10T13:44:27.818Z</time></trkpt><trkpt lat="44.4605704" lon="4.968041"><ele>307.3333333333333</ele><time>2026-04-10T13:44:28.817Z</time></trkpt><trkpt lat="44.4607008" lon="4.9678662"><ele>308.66666666666663</ele><time>2026-04-10T13:44:29.822Z</time></trkpt><trkpt lat="44.460837" lon="4.9676882"><ele>310.0</ele><time>2026-04-10T13:44:30.821Z</time></trkpt><trkpt lat="44.4609712" lon="4.9675098"><ele>310.0</ele><time>2026-04-10T13:44:31.822Z</time></trkpt><trkpt lat="44.4611042" lon="4.9673225"><ele>310.0</ele><time>2026-04-10T13:44:32.821Z</time></trkpt><trkpt lat="44.4612379" lon="4.96712"><ele>310.0</ele><time>2026-04-10T13:44:33.818Z</time></trkpt><trkpt lat="44.4613682" lon="4.9669231"><ele>311.0</ele><time>2026-04-10T13:44:34.82Z</time></trkpt><trkpt lat="44.4614956" lon="4.9667152"><ele>312.0</ele><time>2026-04-10T13:44:35.822Z</time></trkpt><trkpt lat="44.4616354" lon="4.9665127"><ele>313.0</ele><time>2026-04-10T13:44:36.82Z</time></trkpt><trkpt lat="44.4617694" lon="4.9663139"><ele>313.0</ele><time>2026-04-10T13:44:37.819Z</time></trkpt><trkpt lat="44.4619123" lon="4.9661262"><ele>313.0</ele><time>2026-04-10T13:44:38.827Z</time></trkpt><trkpt lat="44.4620623" lon="4.9659428"><ele>313.0</ele><time>2026-04-10T13:44:39.822Z</time></trkpt><trkpt lat="44.4622154" lon="4.9657636"><ele>313.3333333333333</ele><time>2026-04-10T13:44:40.817Z</time></trkpt><trkpt lat="44.4623784" lon="4.965605"><ele>313.6666666666667</ele><time>2026-04-10T13:44:41.821Z</time></trkpt><trkpt lat="44.4625606" lon="4.9654634"><ele>314.0</ele><time>2026-04-10T13:44:42.822Z</time></trkpt><trkpt lat="44.4627413" lon="4.9653253"><ele>314.0</ele><time>2026-04-10T13:44:43.819Z</time></trkpt><trkpt lat="44.4629052" lon="4.9651717"><ele>314.0</ele><time>2026-04-10T13:44:44.818Z</time></trkpt><trkpt lat="44.4630802" lon="4.9650194"><ele>314.0</ele><time>2026-04-10T13:44:45.817Z</time></trkpt><trkpt lat="44.4632533" lon="4.9648709"><ele>315.33333333333337</ele><time>2026-04-10T13:44:46.817Z</time></trkpt><trkpt lat="44.4634188" lon="4.9647181"><ele>316.6666666666667</ele><time>2026-04-10T13:44:47.819Z</time></trkpt><trkpt lat="44.4635841" lon="4.9645635"><ele>318.0</ele><time>2026-04-10T13:44:48.821Z</time></trkpt><trkpt lat="44.4637517" lon="4.9644517"><ele>320.0</ele><time>2026-04-10T13:44:49.817Z</time></trkpt><trkpt lat="44.4639195" lon="4.9643916"><ele>322.0</ele><time>2026-04-10T13:44:50.824Z</time></trkpt><trkpt lat="44.4641075" lon="4.9643317"><ele>324.0</ele><time>2026-04-10T13:44:51.82Z</time></trkpt><trkpt lat="44.464286" lon="4.9642931"><ele>324.0</ele><time>2026-04-10T13:44:52.821Z</time></trkpt><trkpt lat="44.464471" lon="4.9642422"><ele>324.0</ele><time>2026-04-10T13:44:53.825Z</time></trkpt><trkpt lat="44.4646621" lon="4.9642145"><ele>324.0</ele><time>2026-04-10T13:44:54.818Z</time></trkpt><trkpt lat="44.4648522" lon="4.9641902"><ele>321.6666666666667</ele><time>2026-04-10T13:44:55.823Z</time></trkpt><trkpt lat="44.4650404" lon="4.9641648"><ele>319.33333333333337</ele><time>2026-04-10T13:44:56.822Z</time></trkpt><trkpt lat="44.4652082" lon="4.9641355"><ele>317.0</ele><time>2026-04-10T13:44:57.819Z</time></trkpt><trkpt lat="44.4653644" lon="4.9640923"><ele>318.0</ele><time>2026-04-10T13:44:58.82Z</time></trkpt><trkpt lat="44.4655128" lon="4.964018"><ele>319.0</ele><time>2026-04-10T13:44:59.819Z</time></trkpt><trkpt lat="44.4656516" lon="4.9639188"><ele>320.0</ele><time>2026-04-10T13:45:00.817Z</time></trkpt><trkpt lat="44.4657454" lon="4.963712"><ele>320.0</ele><time>2026-04-10T13:45:01.831Z</time></trkpt><trkpt lat="44.4658268" lon="4.9635051"><ele>320.0</ele><time>2026-04-10T13:45:02.825Z</time></trkpt><trkpt lat="44.465897" lon="4.9632983"><ele>320.0</ele><time>2026-04-10T13:45:03.819Z</time></trkpt><trkpt lat="44.4659637" lon="4.9631004"><ele>320.0</ele><time>2026-04-10T13:45:04.821Z</time></trkpt><trkpt lat="44.46607" lon="4.9629495"><ele>320.0</ele><time>2026-04-10T13:45:05.818Z</time></trkpt><trkpt lat="44.4662054" lon="4.9628318"><ele>320.0</ele><time>2026-04-10T13:45:06.822Z</time></trkpt><trkpt lat="44.4663504" lon="4.962715"><ele>321.6666666666667</ele><time>2026-04-10T13:45:07.82Z</time></trkpt><trkpt lat="44.4664781" lon="4.9625668"><ele>323.3333333333333</ele><time>2026-04-10T13:45:08.819Z</time></trkpt><trkpt lat="44.4666003" lon="4.9624018"><ele>325.0</ele><time>2026-04-10T13:45:09.818Z</time></trkpt><trkpt lat="44.4667235" lon="4.962244"><ele>325.0</ele><time>2026-04-10T13:45:10.818Z</time></trkpt><trkpt lat="44.466861" lon="4.9621174"><ele>325.0</ele><time>2026-04-10T13:45:11.825Z</time></trkpt><trkpt lat="44.4670097" lon="4.9619914"><ele>325.0</ele><time>2026-04-10T13:45:12.821Z</time></trkpt><trkpt lat="44.4671608" lon="4.961877"><ele>326.66666666666663</ele><time>2026-04-10T13:45:13.822Z</time></trkpt><trkpt lat="44.4673115" lon="4.9617507"><ele>328.3333333333333</ele><time>2026-04-10T13:45:14.822Z</time></trkpt><trkpt lat="44.467454" lon="4.9616222"><ele>330.0</ele><time>2026-04-10T13:45:15.818Z</time></trkpt><trkpt lat="44.4675943" lon="4.96148"><ele>330.3333333333333</ele><time>2026-04-10T13:45:16.822Z</time></trkpt><trkpt lat="44.4677317" lon="4.9613336"><ele>330.66666666666663</ele><time>2026-04-10T13:45:17.824Z</time></trkpt><trkpt lat="44.4678628" lon="4.9611787"><ele>331.0</ele><time>2026-04-10T13:45:18.819Z</time></trkpt><trkpt lat="44.4679868" lon="4.9610239"><ele>331.66666666666663</ele><time>2026-04-10T13:45:19.821Z</time></trkpt><trkpt lat="44.4681091" lon="4.9608577"><ele>332.3333333333333</ele><time>2026-04-10T13:45:20.824Z</time></trkpt><trkpt lat="44.4682179" lon="4.9606741"><ele>333.0</ele><time>2026-04-10T13:45:21.825Z</time></trkpt><trkpt lat="44.4683206" lon="4.9605027"><ele>333.0</ele><time>2026-04-10T13:45:22.82Z</time></trkpt><trkpt lat="44.4684121" lon="4.9603435"><ele>333.0</ele><time>2026-04-10T13:45:23.82Z</time></trkpt><trkpt lat="44.4685059" lon="4.9602095"><ele>333.0</ele><time>2026-04-10T13:45:24.824Z</time></trkpt><trkpt lat="44.4686165" lon="4.960099"><ele>333.0</ele><time>2026-04-10T13:45:25.817Z</time></trkpt><trkpt lat="44.4687437" lon="4.9600152"><ele>334.25</ele><time>2026-04-10T13:45:26.82Z</time></trkpt><trkpt lat="44.4688771" lon="4.9599502"><ele>335.5</ele><time>2026-04-10T13:45:27.819Z</time></trkpt><trkpt lat="44.4690125" lon="4.9598884"><ele>336.75</ele><time>2026-04-10T13:45:28.818Z</time></trkpt><trkpt lat="44.4691527" lon="4.9598258"><ele>338.0</ele><time>2026-04-10T13:45:29.821Z</time></trkpt><trkpt lat="44.4692906" lon="4.959761"><ele>338.0</ele><time>2026-04-10T13:45:30.821Z</time></trkpt><trkpt lat="44.4694255" lon="4.9597094"><ele>338.0</ele><time>2026-04-10T13:45:31.82Z</time></trkpt><trkpt lat="44.4695537" lon="4.9596528"><ele>338.0</ele><time>2026-04-10T13:45:32.824Z</time></trkpt><trkpt lat="44.469675" lon="4.9595872"><ele>338.0</ele><time>2026-04-10T13:45:33.823Z</time></trkpt><trkpt lat="44.4697969" lon="4.9595341"><ele>338.79999999999995</ele><time>2026-04-10T13:45:34.82Z</time></trkpt><trkpt lat="44.4699107" lon="4.9594964"><ele>339.6</ele><time>2026-04-10T13:45:35.822Z</time></trkpt><trkpt lat="44.4700119" lon="4.9594487"><ele>340.4</ele><time>2026-04-10T13:45:36.819Z</time></trkpt><trkpt lat="44.4700897" lon="4.9594096"><ele>341.20000000000005</ele><time>2026-04-10T13:45:37.818Z</time></trkpt><trkpt lat="44.4702016" lon="4.9593699"><ele>342.0</ele><time>2026-04-10T13:45:39.819Z</time></trkpt><trkpt lat="44.4702736" lon="4.9594483"><ele>342.0</ele><time>2026-04-10T13:45:42.821Z</time></trkpt><trkpt lat="44.4702133" lon="4.9595708"><ele>342.0</ele><time>2026-04-10T13:45:44.82Z</time></trkpt><trkpt lat="44.4701771" lon="4.9597197"><ele>342.0</ele><time>2026-04-10T13:45:46.817Z</time></trkpt><trkpt lat="44.4701948" lon="4.9598558"><ele>342.0</ele><time>2026-04-10T13:45:48.826Z</time></trkpt><trkpt lat="44.47029" lon="4.9598839"><ele>342.0</ele><time>2026-04-10T13:45:51.826Z</time></trkpt><trkpt lat="44.4703728" lon="4.9598566"><ele>343.40000000000003</ele><time>2026-04-10T13:45:53.82Z</time></trkpt><trkpt lat="44.4704792" lon="4.9598675"><ele>344.8</ele><time>2026-04-10T13:45:55.82Z</time></trkpt><trkpt lat="44.4705495" lon="4.9598904"><ele>346.2</ele><time>2026-04-10T13:45:56.82Z</time></trkpt><trkpt lat="44.4706377" lon="4.9599899"><ele>347.6</ele><time>2026-04-10T13:45:58.82Z</time></trkpt><trkpt lat="44.4707122" lon="4.9600964"><ele>349.0</ele><time>2026-04-10T13:46:00.82Z</time></trkpt><trkpt lat="44.470789" lon="4.9601789"><ele>349.0</ele><time>2026-04-10T13:46:02.824Z</time></trkpt><trkpt lat="44.4708804" lon="4.9602387"><ele>349.0</ele><time>2026-04-10T13:46:04.818Z</time></trkpt><trkpt lat="44.4709779" lon="4.960292"><ele>349.0</ele><time>2026-04-10T13:46:06.818Z</time></trkpt><trkpt lat="44.4710397" lon="4.9603182"><ele>349.0</ele><time>2026-04-10T13:46:07.823Z</time></trkpt><trkpt lat="44.4710966" lon="4.9603703"><ele>349.0</ele><time>2026-04-10T13:46:08.826Z</time></trkpt><trkpt lat="44.471167" lon="4.9603871"><ele>349.0</ele><time>2026-04-10T13:46:09.82Z</time></trkpt><trkpt lat="44.4712855" lon="4.9603713"><ele>350.79999999999995</ele><time>2026-04-10T13:46:11.824Z</time></trkpt><trkpt lat="44.4714008" lon="4.9603417"><ele>352.59999999999997</ele><time>2026-04-10T13:46:13.819Z</time></trkpt><trkpt lat="44.4715309" lon="4.9603241"><ele>354.4</ele><time>2026-04-10T13:46:15.823Z</time></trkpt><trkpt lat="44.4715991" lon="4.9603231"><ele>356.2</ele><time>2026-04-10T13:46:16.819Z</time></trkpt><trkpt lat="44.4716646" lon="4.9603175"><ele>358.0</ele><time>2026-04-10T13:46:17.823Z</time></trkpt><trkpt lat="44.4717849" lon="4.9603081"><ele>358.0</ele><time>2026-04-10T13:46:19.835Z</time></trkpt><trkpt lat="44.4718924" lon="4.9602934"><ele>358.0</ele><time>2026-04-10T13:46:21.822Z</time></trkpt><trkpt lat="44.4719686" lon="4.9602436"><ele>358.0</ele><time>2026-04-10T13:46:23.818Z</time></trkpt><trkpt lat="44.4720642" lon="4.9602374"><ele>358.0</ele><time>2026-04-10T13:46:25.822Z</time></trkpt><trkpt lat="44.4721399" lon="4.9602876"><ele>358.0</ele><time>2026-04-10T13:46:27.82Z</time></trkpt><trkpt lat="44.4722209" lon="4.9603323"><ele>360.2</ele><time>2026-04-10T13:46:29.823Z</time></trkpt><trkpt lat="44.4723408" lon="4.9603751"><ele>362.4</ele><time>2026-04-10T13:46:31.818Z</time></trkpt><trkpt lat="44.472408" lon="4.9603831"><ele>364.59999999999997</ele><time>2026-04-10T13:46:32.818Z</time></trkpt><trkpt lat="44.4725026" lon="4.9603849"><ele>366.79999999999995</ele><time>2026-04-10T13:46:34.82Z</time></trkpt><trkpt lat="44.4726148" lon="4.9603924"><ele>369.0</ele><time>2026-04-10T13:46:36.819Z</time></trkpt><trkpt lat="44.4726999" lon="4.960418"><ele>369.0</ele><time>2026-04-10T13:46:38.82Z</time></trkpt><trkpt lat="44.4727673" lon="4.9603926"><ele>369.0</ele><time>2026-04-10T13:46:39.82Z</time></trkpt><trkpt lat="44.4728861" lon="4.9603665"><ele>369.0</ele><time>2026-04-10T13:46:41.825Z</time></trkpt><trkpt lat="44.4729833" lon="4.9603334"><ele>369.0</ele><time>2026-04-10T13:46:43.819Z</time></trkpt><trkpt lat="44.4730693" lon="4.960363"><ele>369.0</ele><time>2026-04-10T13:46:44.826Z</time></trkpt><trkpt lat="44.4731234" lon="4.9604141"><ele>369.0</ele><time>2026-04-10T13:46:45.823Z</time></trkpt><trkpt lat="44.4731948" lon="4.960417"><ele>370.8333333333333</ele><time>2026-04-10T13:46:46.821Z</time></trkpt><trkpt lat="44.4732599" lon="4.9604325"><ele>372.6666666666667</ele><time>2026-04-10T13:46:47.823Z</time></trkpt><trkpt lat="44.4733366" lon="4.9604355"><ele>374.5</ele><time>2026-04-10T13:46:48.82Z</time></trkpt><trkpt lat="44.4734012" lon="4.9604361"><ele>376.33333333333337</ele><time>2026-04-10T13:46:49.823Z</time></trkpt><trkpt lat="44.4735019" lon="4.9604376"><ele>378.1666666666667</ele><time>2026-04-10T13:46:51.821Z</time></trkpt><trkpt lat="44.4735828" lon="4.9604631"><ele>380.0</ele><time>2026-04-10T13:46:53.821Z</time></trkpt><trkpt lat="44.4736735" lon="4.9605184"><ele>382.2</ele><time>2026-04-10T13:46:55.822Z</time></trkpt><trkpt lat="44.473786" lon="4.9605434"><ele>384.4</ele><time>2026-04-10T13:46:57.82Z</time></trkpt><trkpt lat="44.4738916" lon="4.9605753"><ele>386.6</ele><time>2026-04-10T13:46:59.818Z</time></trkpt><trkpt lat="44.4740009" lon="4.9606058"><ele>388.8</ele><time>2026-04-10T13:47:01.821Z</time></trkpt><trkpt lat="44.4740802" lon="4.9606636"><ele>391.0</ele><time>2026-04-10T13:47:03.821Z</time></trkpt><trkpt lat="44.4741264" lon="4.9607607"><ele>389.0</ele><time>2026-04-10T13:47:05.824Z</time></trkpt><trkpt lat="44.4741989" lon="4.9608869"><ele>387.0</ele><time>2026-04-10T13:47:07.82Z</time></trkpt><trkpt lat="44.4742779" lon="4.9609421"><ele>385.0</ele><time>2026-04-10T13:47:08.823Z</time></trkpt><trkpt lat="44.4743697" lon="4.9610391"><ele>383.0</ele><time>2026-04-10T13:47:10.821Z</time></trkpt><trkpt lat="44.4744935" lon="4.9610952"><ele>381.0</ele><time>2026-04-10T13:47:12.82Z</time></trkpt><trkpt lat="44.4745952" lon="4.9611062"><ele>384.75</ele><time>2026-04-10T13:47:14.82Z</time></trkpt><trkpt lat="44.4747124" lon="4.9611511"><ele>388.5</ele><time>2026-04-10T13:47:16.825Z</time></trkpt><trkpt lat="44.4748371" lon="4.9611803"><ele>392.25</ele><time>2026-04-10T13:47:18.82Z</time></trkpt><trkpt lat="44.4749365" lon="4.9611961"><ele>396.0</ele><time>2026-04-10T13:47:20.821Z</time></trkpt><trkpt lat="44.4750513" lon="4.9611744"><ele>396.0</ele><time>2026-04-10T13:47:22.819Z</time></trkpt><trkpt lat="44.4751477" lon="4.9612008"><ele>396.0</ele><time>2026-04-10T13:47:24.818Z</time></trkpt><trkpt lat="44.475211" lon="4.9612055"><ele>396.0</ele><time>2026-04-10T13:47:25.818Z</time></trkpt><trkpt lat="44.4753323" lon="4.9612643"><ele>396.0</ele><time>2026-04-10T13:47:27.82Z</time></trkpt><trkpt lat="44.4754237" lon="4.9613468"><ele>396.0</ele><time>2026-04-10T13:47:29.817Z</time></trkpt><trkpt lat="44.4754787" lon="4.9613905"><ele>398.1666666666667</ele><time>2026-04-10T13:47:30.82Z</time></trkpt><trkpt lat="44.4755392" lon="4.9614221"><ele>400.33333333333337</ele><time>2026-04-10T13:47:31.822Z</time></trkpt><trkpt lat="44.4756012" lon="4.9614506"><ele>402.5</ele><time>2026-04-10T13:47:32.817Z</time></trkpt><trkpt lat="44.4756754" lon="4.961457"><ele>404.6666666666667</ele><time>2026-04-10T13:47:33.819Z</time></trkpt><trkpt lat="44.4757422" lon="4.9614746"><ele>406.83333333333337</ele><time>2026-04-10T13:47:34.82Z</time></trkpt><trkpt lat="44.4758616" lon="4.9614572"><ele>409.0</ele><time>2026-04-10T13:47:36.821Z</time></trkpt><trkpt lat="44.4759256" lon="4.9614511"><ele>409.00000000000006</ele><time>2026-04-10T13:47:37.827Z</time></trkpt><trkpt lat="44.4759885" lon="4.9614281"><ele>409.0</ele><time>2026-04-10T13:47:38.82Z</time></trkpt><trkpt lat="44.4760541" lon="4.9614274"><ele>409.0</ele><time>2026-04-10T13:47:39.824Z</time></trkpt><trkpt lat="44.4761711" lon="4.961458"><ele>409.0</ele><time>2026-04-10T13:47:41.819Z</time></trkpt><trkpt lat="44.4762359" lon="4.9614718"><ele>409.00000000000006</ele><time>2026-04-10T13:47:42.82Z</time></trkpt><trkpt lat="44.4762998" lon="4.9614763"><ele>409.0</ele><time>2026-04-10T13:47:43.82Z</time></trkpt><trkpt lat="44.4764238" lon="4.9614773"><ele>411.0</ele><time>2026-04-10T13:47:45.818Z</time></trkpt><trkpt lat="44.4765241" lon="4.9615101"><ele>413.0</ele><time>2026-04-10T13:47:47.819Z</time></trkpt><trkpt lat="44.4766277" lon="4.9615446"><ele>415.0</ele><time>2026-04-10T13:47:49.825Z</time></trkpt><trkpt lat="44.4767028" lon="4.9615406"><ele>417.0</ele><time>2026-04-10T13:47:50.822Z</time></trkpt><trkpt lat="44.4767735" lon="4.9615334"><ele>419.0</ele><time>2026-04-10T13:47:51.82Z</time></trkpt><trkpt lat="44.4768945" lon="4.9615575"><ele>419.0</ele><time>2026-04-10T13:47:53.818Z</time></trkpt><trkpt lat="44.4769876" lon="4.9615981"><ele>419.0</ele><time>2026-04-10T13:47:55.818Z</time></trkpt><trkpt lat="44.4770956" lon="4.9615706"><ele>419.0</ele><time>2026-04-10T13:47:57.818Z</time></trkpt><trkpt lat="44.4772091" lon="4.9615968"><ele>419.0</ele><time>2026-04-10T13:47:59.82Z</time></trkpt><trkpt lat="44.4773262" lon="4.9615782"><ele>419.0</ele><time>2026-04-10T13:48:01.822Z</time></trkpt><trkpt lat="44.4773963" lon="4.9615633"><ele>420.6</ele><time>2026-04-10T13:48:02.821Z</time></trkpt><trkpt lat="44.4774609" lon="4.9615621"><ele>422.2</ele><time>2026-04-10T13:48:03.822Z</time></trkpt><trkpt lat="44.4775794" lon="4.9615599"><ele>423.80000000000007</ele><time>2026-04-10T13:48:05.82Z</time></trkpt><trkpt lat="44.4776979" lon="4.9615241"><ele>425.40000000000003</ele><time>2026-04-10T13:48:07.819Z</time></trkpt><trkpt lat="44.4778014" lon="4.9615235"><ele>427.0</ele><time>2026-04-10T13:48:09.822Z</time></trkpt><trkpt lat="44.4779317" lon="4.9615477"><ele>428.42857142857144</ele><time>2026-04-10T13:48:11.819Z</time></trkpt><trkpt lat="44.4779959" lon="4.9615462"><ele>429.8571428571429</ele><time>2026-04-10T13:48:12.821Z</time></trkpt><trkpt lat="44.4780713" lon="4.9615398"><ele>431.2857142857143</ele><time>2026-04-10T13:48:13.822Z</time></trkpt><trkpt lat="44.4781398" lon="4.9615364"><ele>432.7142857142857</ele><time>2026-04-10T13:48:14.821Z</time></trkpt><trkpt lat="44.4782056" lon="4.9615328"><ele>434.14285714285717</ele><time>2026-04-10T13:48:15.817Z</time></trkpt><trkpt lat="44.4782836" lon="4.9615222"><ele>435.57142857142856</ele><time>2026-04-10T13:48:16.82Z</time></trkpt><trkpt lat="44.4783659" lon="4.9615349"><ele>437.0</ele><time>2026-04-10T13:48:17.818Z</time></trkpt><trkpt lat="44.4784463" lon="4.9615406"><ele>436.99999999999994</ele><time>2026-04-10T13:48:18.817Z</time></trkpt><trkpt lat="44.4785702" lon="4.9615672"><ele>437.0</ele><time>2026-04-10T13:48:20.82Z</time></trkpt><trkpt lat="44.4786831" lon="4.9616092"><ele>437.0</ele><time>2026-04-10T13:48:22.819Z</time></trkpt><trkpt lat="44.4787465" lon="4.9616183"><ele>437.0</ele><time>2026-04-10T13:48:23.819Z</time></trkpt><trkpt lat="44.478814" lon="4.9616268"><ele>436.99999999999994</ele><time>2026-04-10T13:48:24.819Z</time></trkpt><trkpt lat="44.4788831" lon="4.961647"><ele>437.0</ele><time>2026-04-10T13:48:25.818Z</time></trkpt><trkpt lat="44.4790151" lon="4.9616803"><ele>437.99999999999994</ele><time>2026-04-10T13:48:27.82Z</time></trkpt><trkpt lat="44.4790854" lon="4.9616967"><ele>439.0</ele><time>2026-04-10T13:48:28.818Z</time></trkpt><trkpt lat="44.4791523" lon="4.9617068"><ele>440.0</ele><time>2026-04-10T13:48:29.823Z</time></trkpt><trkpt lat="44.4792214" lon="4.9617194"><ele>441.0</ele><time>2026-04-10T13:48:30.819Z</time></trkpt><trkpt lat="44.4793435" lon="4.9617544"><ele>441.99999999999994</ele><time>2026-04-10T13:48:32.819Z</time></trkpt><trkpt lat="44.4794114" lon="4.961768"><ele>443.0</ele><time>2026-04-10T13:48:33.82Z</time></trkpt><trkpt lat="44.4795302" lon="4.9617584"><ele>442.79999999999995</ele><time>2026-04-10T13:48:35.826Z</time></trkpt><trkpt lat="44.4796401" lon="4.9618221"><ele>442.59999999999997</ele><time>2026-04-10T13:48:37.821Z</time></trkpt><trkpt lat="44.4797603" lon="4.961869"><ele>442.40000000000003</ele><time>2026-04-10T13:48:39.819Z</time></trkpt><trkpt lat="44.4798239" lon="4.9619066"><ele>442.20000000000005</ele><time>2026-04-10T13:48:40.819Z</time></trkpt><trkpt lat="44.4799007" lon="4.9619532"><ele>442.0</ele><time>2026-04-10T13:48:41.817Z</time></trkpt><trkpt lat="44.4799755" lon="4.9620012"><ele>442.00000000000006</ele><time>2026-04-10T13:48:42.819Z</time></trkpt><trkpt lat="44.4800501" lon="4.9620256"><ele>442.0</ele><time>2026-04-10T13:48:43.815Z</time></trkpt><trkpt lat="44.4801285" lon="4.9620492"><ele>442.0</ele><time>2026-04-10T13:48:44.82Z</time></trkpt><trkpt lat="44.4802008" lon="4.9620739"><ele>442.0</ele><time>2026-04-10T13:48:45.818Z</time></trkpt><trkpt lat="44.4802666" lon="4.9621055"><ele>442.00000000000006</ele><time>2026-04-10T13:48:46.821Z</time></trkpt><trkpt lat="44.4803408" lon="4.962117"><ele>442.0</ele><time>2026-04-10T13:48:47.822Z</time></trkpt><trkpt lat="44.4804144" lon="4.9620797"><ele>442.83333333333337</ele><time>2026-04-10T13:48:48.82Z</time></trkpt><trkpt lat="44.4804824" lon="4.9620532"><ele>443.6666666666667</ele><time>2026-04-10T13:48:49.821Z</time></trkpt><trkpt lat="44.4805728" lon="4.9620327"><ele>444.5</ele><time>2026-04-10T13:48:50.818Z</time></trkpt><trkpt lat="44.4806782" lon="4.9620223"><ele>445.33333333333337</ele><time>2026-04-10T13:48:51.819Z</time></trkpt><trkpt lat="44.4807633" lon="4.9620237"><ele>446.1666666666667</ele><time>2026-04-10T13:48:52.816Z</time></trkpt><trkpt lat="44.4808538" lon="4.9620335"><ele>447.0</ele><time>2026-04-10T13:48:53.82Z</time></trkpt><trkpt lat="44.4809306" lon="4.9620407"><ele>447.0</ele><time>2026-04-10T13:48:54.818Z</time></trkpt><trkpt lat="44.4810167" lon="4.9620438"><ele>447.0</ele><time>2026-04-10T13:48:55.821Z</time></trkpt><trkpt lat="44.4810934" lon="4.9620695"><ele>447.0</ele><time>2026-04-10T13:48:56.821Z</time></trkpt><trkpt lat="44.4811589" lon="4.9620955"><ele>447.0</ele><time>2026-04-10T13:48:57.821Z</time></trkpt><trkpt lat="44.4812407" lon="4.9621158"><ele>447.0</ele><time>2026-04-10T13:48:58.822Z</time></trkpt><trkpt lat="44.4813122" lon="4.9621508"><ele>447.0</ele><time>2026-04-10T13:48:59.819Z</time></trkpt><trkpt lat="44.4813869" lon="4.9621724"><ele>447.6666666666667</ele><time>2026-04-10T13:49:00.821Z</time></trkpt><trkpt lat="44.4814628" lon="4.9621772"><ele>448.33333333333337</ele><time>2026-04-10T13:49:01.819Z</time></trkpt><trkpt lat="44.4815353" lon="4.9621534"><ele>449.0</ele><time>2026-04-10T13:49:02.817Z</time></trkpt><trkpt lat="44.4816023" lon="4.9621434"><ele>449.6666666666667</ele><time>2026-04-10T13:49:03.819Z</time></trkpt><trkpt lat="44.4816742" lon="4.9621507"><ele>450.33333333333337</ele><time>2026-04-10T13:49:04.818Z</time></trkpt><trkpt lat="44.4817553" lon="4.9621393"><ele>451.0</ele><time>2026-04-10T13:49:05.818Z</time></trkpt><trkpt lat="44.4818445" lon="4.9621388"><ele>451.00000000000006</ele><time>2026-04-10T13:49:06.82Z</time></trkpt><trkpt lat="44.4819265" lon="4.9621194"><ele>451.0</ele><time>2026-04-10T13:49:07.824Z</time></trkpt><trkpt lat="44.4819986" lon="4.9621191"><ele>451.0</ele><time>2026-04-10T13:49:08.82Z</time></trkpt><trkpt lat="44.4820997" lon="4.9621254"><ele>451.0</ele><time>2026-04-10T13:49:09.821Z</time></trkpt><trkpt lat="44.4821917" lon="4.9621352"><ele>451.00000000000006</ele><time>2026-04-10T13:49:10.826Z</time></trkpt><trkpt lat="44.4822794" lon="4.9621577"><ele>451.0</ele><time>2026-04-10T13:49:11.818Z</time></trkpt><trkpt lat="44.4823693" lon="4.9621621"><ele>451.6</ele><time>2026-04-10T13:49:12.819Z</time></trkpt><trkpt lat="44.4824578" lon="4.9621697"><ele>452.20000000000005</ele><time>2026-04-10T13:49:13.821Z</time></trkpt><trkpt lat="44.4825474" lon="4.9621898"><ele>452.79999999999995</ele><time>2026-04-10T13:49:14.822Z</time></trkpt><trkpt lat="44.4826328" lon="4.9622159"><ele>453.4</ele><time>2026-04-10T13:49:15.819Z</time></trkpt><trkpt lat="44.4827379" lon="4.962248"><ele>454.0</ele><time>2026-04-10T13:49:16.822Z</time></trkpt><trkpt lat="44.4828421" lon="4.9622598"><ele>454.00000000000006</ele><time>2026-04-10T13:49:17.818Z</time></trkpt><trkpt lat="44.4829241" lon="4.9622594"><ele>454.0</ele><time>2026-04-10T13:49:18.82Z</time></trkpt><trkpt lat="44.4830207" lon="4.9622603"><ele>454.0</ele><time>2026-04-10T13:49:19.824Z</time></trkpt><trkpt lat="44.4831177" lon="4.9622681"><ele>454.0</ele><time>2026-04-10T13:49:20.831Z</time></trkpt><trkpt lat="44.4832021" lon="4.9623004"><ele>454.00000000000006</ele><time>2026-04-10T13:49:21.82Z</time></trkpt><trkpt lat="44.4832811" lon="4.9623418"><ele>454.0</ele><time>2026-04-10T13:49:22.829Z</time></trkpt><trkpt lat="44.4833453" lon="4.9623856"><ele>455.00000000000006</ele><time>2026-04-10T13:49:23.839Z</time></trkpt><trkpt lat="44.4834186" lon="4.9624091"><ele>456.0</ele><time>2026-04-10T13:49:24.839Z</time></trkpt><trkpt lat="44.4835043" lon="4.9624218"><ele>457.0</ele><time>2026-04-10T13:49:25.823Z</time></trkpt><trkpt lat="44.4836037" lon="4.9624328"><ele>458.0</ele><time>2026-04-10T13:49:26.822Z</time></trkpt><trkpt lat="44.4836927" lon="4.9624378"><ele>459.00000000000006</ele><time>2026-04-10T13:49:27.819Z</time></trkpt><trkpt lat="44.4837858" lon="4.9624687"><ele>460.0</ele><time>2026-04-10T13:49:28.831Z</time></trkpt><trkpt lat="44.4838742" lon="4.9624983"><ele>459.33333333333337</ele><time>2026-04-10T13:49:29.83Z</time></trkpt><trkpt lat="44.4839576" lon="4.9625177"><ele>458.6666666666667</ele><time>2026-04-10T13:49:30.824Z</time></trkpt><trkpt lat="44.4840211" lon="4.9625589"><ele>458.0</ele><time>2026-04-10T13:49:31.82Z</time></trkpt><trkpt lat="44.4840957" lon="4.9626031"><ele>457.33333333333337</ele><time>2026-04-10T13:49:32.821Z</time></trkpt><trkpt lat="44.4841684" lon="4.9626381"><ele>456.6666666666667</ele><time>2026-04-10T13:49:33.823Z</time></trkpt><trkpt lat="44.4842386" lon="4.9626684"><ele>456.0</ele><time>2026-04-10T13:49:34.822Z</time></trkpt><trkpt lat="44.4843059" lon="4.9626774"><ele>456.0</ele><time>2026-04-10T13:49:35.834Z</time></trkpt><trkpt lat="44.4843769" lon="4.9627044"><ele>456.0</ele><time>2026-04-10T13:49:36.858Z</time></trkpt><trkpt lat="44.4844601" lon="4.9627184"><ele>456.0</ele><time>2026-04-10T13:49:37.823Z</time></trkpt><trkpt lat="44.4845428" lon="4.9627413"><ele>456.0</ele><time>2026-04-10T13:49:38.822Z</time></trkpt><trkpt lat="44.4846133" lon="4.9627665"><ele>456.0</ele><time>2026-04-10T13:49:39.82Z</time></trkpt><trkpt lat="44.4846731" lon="4.9628174"><ele>456.0</ele><time>2026-04-10T13:49:40.82Z</time></trkpt><trkpt lat="44.4847964" lon="4.9628989"><ele>458.4285714285714</ele><time>2026-04-10T13:49:42.82Z</time></trkpt><trkpt lat="44.4848605" lon="4.9629386"><ele>460.8571428571428</ele><time>2026-04-10T13:49:43.823Z</time></trkpt><trkpt lat="44.4849176" lon="4.9629801"><ele>463.2857142857143</ele><time>2026-04-10T13:49:44.822Z</time></trkpt><trkpt lat="44.4849845" lon="4.9630018"><ele>465.71428571428567</ele><time>2026-04-10T13:49:45.824Z</time></trkpt><trkpt lat="44.4850484" lon="4.9630353"><ele>468.1428571428571</ele><time>2026-04-10T13:49:46.818Z</time></trkpt><trkpt lat="44.4851085" lon="4.9630668"><ele>470.57142857142856</ele><time>2026-04-10T13:49:47.817Z</time></trkpt><trkpt lat="44.4851721" lon="4.9631017"><ele>473.0</ele><time>2026-04-10T13:49:48.821Z</time></trkpt><trkpt lat="44.485283" lon="4.9631464"><ele>473.0</ele><time>2026-04-10T13:49:50.824Z</time></trkpt><trkpt lat="44.4853483" lon="4.9631477"><ele>472.99999999999994</ele><time>2026-04-10T13:49:51.831Z</time></trkpt><trkpt lat="44.4854078" lon="4.9631921"><ele>472.99999999999994</ele><time>2026-04-10T13:49:52.822Z</time></trkpt><trkpt lat="44.4855283" lon="4.9632669"><ele>473.0</ele><time>2026-04-10T13:49:54.821Z</time></trkpt><trkpt lat="44.4856246" lon="4.9633475"><ele>473.0</ele><time>2026-04-10T13:49:56.821Z</time></trkpt><trkpt lat="44.4857132" lon="4.9634495"><ele>473.8333333333333</ele><time>2026-04-10T13:49:58.819Z</time></trkpt><trkpt lat="44.4857799" lon="4.9634811"><ele>474.66666666666663</ele><time>2026-04-10T13:49:59.817Z</time></trkpt><trkpt lat="44.4858651" lon="4.9635556"><ele>475.5</ele><time>2026-04-10T13:50:01.82Z</time></trkpt><trkpt lat="44.4859341" lon="4.9635872"><ele>476.33333333333337</ele><time>2026-04-10T13:50:02.819Z</time></trkpt><trkpt lat="44.4859961" lon="4.963614"><ele>477.1666666666667</ele><time>2026-04-10T13:50:03.818Z</time></trkpt><trkpt lat="44.4860625" lon="4.9636281"><ele>478.0</ele><time>2026-04-10T13:50:04.82Z</time></trkpt><trkpt lat="44.4861648" lon="4.9635957"><ele>482.79999999999995</ele><time>2026-04-10T13:50:06.832Z</time></trkpt><trkpt lat="44.4862801" lon="4.9635841"><ele>487.59999999999997</ele><time>2026-04-10T13:50:08.82Z</time></trkpt><trkpt lat="44.4864174" lon="4.96359"><ele>492.40000000000003</ele><time>2026-04-10T13:50:10.819Z</time></trkpt><trkpt lat="44.4865038" lon="4.9636023"><ele>497.20000000000005</ele><time>2026-04-10T13:50:11.82Z</time></trkpt><trkpt lat="44.486578" lon="4.9636326"><ele>502.0</ele><time>2026-04-10T13:50:12.821Z</time></trkpt><trkpt lat="44.4866982" lon="4.9636608"><ele>502.0</ele><time>2026-04-10T13:50:14.822Z</time></trkpt><trkpt lat="44.4868151" lon="4.9637196"><ele>502.00000000000006</ele><time>2026-04-10T13:50:16.818Z</time></trkpt><trkpt lat="44.4868855" lon="4.9637583"><ele>502.00000000000006</ele><time>2026-04-10T13:50:18.817Z</time></trkpt><trkpt lat="44.4869602" lon="4.9638341"><ele>502.0</ele><time>2026-04-10T13:50:29.824Z</time></trkpt><trkpt lat="44.4870408" lon="4.9638861"><ele>502.0</ele><time>2026-04-10T13:50:31.82Z</time></trkpt><trkpt lat="44.487112" lon="4.9639085"><ele>504.33333333333337</ele><time>2026-04-10T13:50:33.819Z</time></trkpt><trkpt lat="44.4871754" lon="4.9639094"><ele>506.6666666666667</ele><time>2026-04-10T13:50:46.818Z</time></trkpt><trkpt lat="44.4872456" lon="4.9639389"><ele>509.0</ele><time>2026-04-10T13:50:50.819Z</time></trkpt><trkpt lat="44.4873211" lon="4.9639523"><ele>511.33333333333337</ele><time>2026-04-10T13:50:52.822Z</time></trkpt><trkpt lat="44.4873071" lon="4.9638299"><ele>513.6666666666666</ele><time>2026-04-10T13:50:53.817Z</time></trkpt><trkpt lat="44.4873866" lon="4.963878"><ele>516.0</ele><time>2026-04-10T13:50:54.819Z</time></trkpt><trkpt lat="44.487474" lon="4.9639436"><ele>516.0</ele><time>2026-04-10T13:50:55.827Z</time></trkpt><trkpt lat="44.4875391" lon="4.9639785"><ele>516.0</ele><time>2026-04-10T13:50:56.818Z</time></trkpt><trkpt lat="44.4876589" lon="4.9640198"><ele>516.0</ele><time>2026-04-10T13:50:58.818Z</time></trkpt><trkpt lat="44.4877487" lon="4.9640593"><ele>516.0</ele><time>2026-04-10T13:51:00.819Z</time></trkpt><trkpt lat="44.4878499" lon="4.9641297"><ele>516.0</ele><time>2026-04-10T13:51:02.818Z</time></trkpt><trkpt lat="44.4879488" lon="4.9641821"><ele>519.0</ele><time>2026-04-10T13:51:04.818Z</time></trkpt><trkpt lat="44.4880187" lon="4.9642087"><ele>522.0</ele><time>2026-04-10T13:51:05.821Z</time></trkpt><trkpt lat="44.4881385" lon="4.9642349"><ele>525.0</ele><time>2026-04-10T13:51:07.819Z</time></trkpt><trkpt lat="44.48823" lon="4.9642913"><ele>528.0</ele><time>2026-04-10T13:51:09.819Z</time></trkpt><trkpt lat="44.4883201" lon="4.9643432"><ele>531.0</ele><time>2026-04-10T13:51:11.821Z</time></trkpt><trkpt lat="44.4884067" lon="4.9644111"><ele>531.0</ele><time>2026-04-10T13:51:13.823Z</time></trkpt><trkpt lat="44.48851" lon="4.964485"><ele>531.0</ele><time>2026-04-10T13:51:15.817Z</time></trkpt><trkpt lat="44.4885958" lon="4.9645995"><ele>531.0</ele><time>2026-04-10T13:51:17.819Z</time></trkpt><trkpt lat="44.4886565" lon="4.9646801"><ele>531.0</ele><time>2026-04-10T13:51:19.82Z</time></trkpt><trkpt lat="44.4887337" lon="4.9647598"><ele>531.0</ele><time>2026-04-10T13:51:21.82Z</time></trkpt><trkpt lat="44.4888073" lon="4.9648516"><ele>531.6666666666666</ele><time>2026-04-10T13:51:23.82Z</time></trkpt><trkpt lat="44.4888487" lon="4.9649777"><ele>532.3333333333334</ele><time>2026-04-10T13:51:25.82Z</time></trkpt><trkpt lat="44.4888848" lon="4.9650827"><ele>533.0</ele><time>2026-04-10T13:51:27.82Z</time></trkpt><trkpt lat="44.4889232" lon="4.9651775"><ele>533.6666666666667</ele><time>2026-04-10T13:51:28.822Z</time></trkpt><trkpt lat="44.4889749" lon="4.965272"><ele>534.3333333333334</ele><time>2026-04-10T13:51:29.823Z</time></trkpt><trkpt lat="44.4890241" lon="4.9653604"><ele>535.0</ele><time>2026-04-10T13:51:30.826Z</time></trkpt><trkpt lat="44.489076" lon="4.965464"><ele>535.1666666666667</ele><time>2026-04-10T13:51:31.82Z</time></trkpt><trkpt lat="44.4891303" lon="4.9655686"><ele>535.3333333333334</ele><time>2026-04-10T13:51:32.82Z</time></trkpt><trkpt lat="44.4891669" lon="4.9656579"><ele>535.5</ele><time>2026-04-10T13:51:33.823Z</time></trkpt><trkpt lat="44.4892103" lon="4.9657551"><ele>535.6666666666666</ele><time>2026-04-10T13:51:34.821Z</time></trkpt><trkpt lat="44.489242" lon="4.9658494"><ele>535.8333333333333</ele><time>2026-04-10T13:51:35.82Z</time></trkpt><trkpt lat="44.4892743" lon="4.9659379"><ele>536.0</ele><time>2026-04-10T13:51:36.82Z</time></trkpt><trkpt lat="44.4893203" lon="4.9660181"><ele>537.4</ele><time>2026-04-10T13:51:37.823Z</time></trkpt><trkpt lat="44.4893588" lon="4.9661039"><ele>538.8</ele><time>2026-04-10T13:51:38.821Z</time></trkpt><trkpt lat="44.4894677" lon="4.9661937"><ele>540.1999999999999</ele><time>2026-04-10T13:51:40.818Z</time></trkpt><trkpt lat="44.4895228" lon="4.9662569"><ele>541.6</ele><time>2026-04-10T13:51:41.82Z</time></trkpt><trkpt lat="44.4895716" lon="4.9663261"><ele>543.0</ele><time>2026-04-10T13:51:42.82Z</time></trkpt><trkpt lat="44.4896751" lon="4.9664433"><ele>543.0</ele><time>2026-04-10T13:51:44.829Z</time></trkpt><trkpt lat="44.4897305" lon="4.966524"><ele>543.0</ele><time>2026-04-10T13:51:45.823Z</time></trkpt><trkpt lat="44.4897848" lon="4.9665981"><ele>543.0</ele><time>2026-04-10T13:51:46.822Z</time></trkpt><trkpt lat="44.4898325" lon="4.966673"><ele>543.0</ele><time>2026-04-10T13:51:47.82Z</time></trkpt><trkpt lat="44.4898867" lon="4.9667546"><ele>543.0</ele><time>2026-04-10T13:51:48.823Z</time></trkpt><trkpt lat="44.4899455" lon="4.9668457"><ele>543.0</ele><time>2026-04-10T13:51:49.82Z</time></trkpt><trkpt lat="44.4899956" lon="4.9669291"><ele>542.5</ele><time>2026-04-10T13:51:50.817Z</time></trkpt><trkpt lat="44.4900254" lon="4.9670101"><ele>542.0</ele><time>2026-04-10T13:51:51.819Z</time></trkpt><trkpt lat="44.4900663" lon="4.9671106"><ele>541.5</ele><time>2026-04-10T13:51:52.82Z</time></trkpt><trkpt lat="44.4900924" lon="4.9672107"><ele>541.0</ele><time>2026-04-10T13:51:53.824Z</time></trkpt><trkpt lat="44.490114" lon="4.9673084"><ele>540.5</ele><time>2026-04-10T13:51:54.82Z</time></trkpt><trkpt lat="44.4901693" lon="4.9673804"><ele>540.0</ele><time>2026-04-10T13:51:55.822Z</time></trkpt><trkpt lat="44.4902284" lon="4.9674573"><ele>540.0</ele><time>2026-04-10T13:51:56.818Z</time></trkpt><trkpt lat="44.4902963" lon="4.9675237"><ele>540.0</ele><time>2026-04-10T13:51:57.819Z</time></trkpt><trkpt lat="44.490353" lon="4.9675926"><ele>540.0</ele><time>2026-04-10T13:51:58.818Z</time></trkpt><trkpt lat="44.4904077" lon="4.9676651"><ele>540.0</ele><time>2026-04-10T13:51:59.817Z</time></trkpt><trkpt lat="44.4904692" lon="4.9677155"><ele>540.0</ele><time>2026-04-10T13:52:00.818Z</time></trkpt><trkpt lat="44.4905359" lon="4.9677642"><ele>540.0</ele><time>2026-04-10T13:52:01.818Z</time></trkpt><trkpt lat="44.4906149" lon="4.9678081"><ele>542.2</ele><time>2026-04-10T13:52:02.822Z</time></trkpt><trkpt lat="44.4906986" lon="4.9678551"><ele>544.4</ele><time>2026-04-10T13:52:03.818Z</time></trkpt><trkpt lat="44.4907682" lon="4.9678968"><ele>546.6</ele><time>2026-04-10T13:52:04.817Z</time></trkpt><trkpt lat="44.4908248" lon="4.9679529"><ele>548.8</ele><time>2026-04-10T13:52:05.822Z</time></trkpt><trkpt lat="44.4908933" lon="4.9681188"><ele>551.0</ele><time>2026-04-10T13:52:07.818Z</time></trkpt><trkpt lat="44.4909391" lon="4.9682128"><ele>551.0</ele><time>2026-04-10T13:52:08.818Z</time></trkpt><trkpt lat="44.4909847" lon="4.9683364"><ele>551.0</ele><time>2026-04-10T13:52:09.819Z</time></trkpt><trkpt lat="44.491042" lon="4.9684568"><ele>551.0</ele><time>2026-04-10T13:52:10.819Z</time></trkpt><trkpt lat="44.4910918" lon="4.9685627"><ele>551.0</ele><time>2026-04-10T13:52:11.817Z</time></trkpt><trkpt lat="44.4911348" lon="4.9686698"><ele>551.0</ele><time>2026-04-10T13:52:12.819Z</time></trkpt><trkpt lat="44.4911675" lon="4.9687643"><ele>551.5</ele><time>2026-04-10T13:52:13.82Z</time></trkpt><trkpt lat="44.4911865" lon="4.9688627"><ele>552.0</ele><time>2026-04-10T13:52:14.818Z</time></trkpt><trkpt lat="44.4912271" lon="4.9689519"><ele>552.5</ele><time>2026-04-10T13:52:15.821Z</time></trkpt><trkpt lat="44.4912779" lon="4.9690482"><ele>553.0</ele><time>2026-04-10T13:52:16.817Z</time></trkpt><trkpt lat="44.4913302" lon="4.969143"><ele>553.5</ele><time>2026-04-10T13:52:17.82Z</time></trkpt><trkpt lat="44.4913851" lon="4.9692531"><ele>554.0</ele><time>2026-04-10T13:52:18.817Z</time></trkpt><trkpt lat="44.4914428" lon="4.9693525"><ele>554.0</ele><time>2026-04-10T13:52:19.82Z</time></trkpt><trkpt lat="44.4915048" lon="4.9694671"><ele>554.0</ele><time>2026-04-10T13:52:20.82Z</time></trkpt><trkpt lat="44.4915705" lon="4.969574"><ele>554.0</ele><time>2026-04-10T13:52:21.819Z</time></trkpt><trkpt lat="44.4916241" lon="4.969659"><ele>554.0</ele><time>2026-04-10T13:52:22.818Z</time></trkpt><trkpt lat="44.491686" lon="4.9697525"><ele>554.0</ele><time>2026-04-10T13:52:23.824Z</time></trkpt><trkpt lat="44.4917179" lon="4.9698448"><ele>554.0</ele><time>2026-04-10T13:52:24.819Z</time></trkpt><trkpt lat="44.4917891" lon="4.9699237"><ele>554.0</ele><time>2026-04-10T13:52:25.819Z</time></trkpt><trkpt lat="44.4918709" lon="4.9700244"><ele>554.0</ele><time>2026-04-10T13:52:26.82Z</time></trkpt><trkpt lat="44.4919571" lon="4.9701485"><ele>554.0</ele><time>2026-04-10T13:52:27.82Z</time></trkpt><trkpt lat="44.4920541" lon="4.9702417"><ele>554.0</ele><time>2026-04-10T13:52:28.818Z</time></trkpt><trkpt lat="44.4921476" lon="4.9703105"><ele>554.1666666666666</ele><time>2026-04-10T13:52:29.828Z</time></trkpt><trkpt lat="44.4922064" lon="4.9703757"><ele>554.3333333333333</ele><time>2026-04-10T13:52:30.823Z</time></trkpt><trkpt lat="44.4922805" lon="4.9704608"><ele>554.5</ele><time>2026-04-10T13:52:31.821Z</time></trkpt><trkpt lat="44.4923644" lon="4.9705121"><ele>554.6666666666666</ele><time>2026-04-10T13:52:32.818Z</time></trkpt><trkpt lat="44.4924376" lon="4.9705553"><ele>554.8333333333334</ele><time>2026-04-10T13:52:33.819Z</time></trkpt><trkpt lat="44.4925441" lon="4.9705665"><ele>555.0</ele><time>2026-04-10T13:52:35.818Z</time></trkpt><trkpt lat="44.4926463" lon="4.9705523"><ele>555.0</ele><time>2026-04-10T13:52:36.82Z</time></trkpt><trkpt lat="44.492746" lon="4.9705464"><ele>555.0</ele><time>2026-04-10T13:52:37.82Z</time></trkpt><trkpt lat="44.4928242" lon="4.9705558"><ele>555.0</ele><time>2026-04-10T13:52:38.82Z</time></trkpt><trkpt lat="44.4929107" lon="4.970588"><ele>555.0</ele><time>2026-04-10T13:52:39.818Z</time></trkpt><trkpt lat="44.4929926" lon="4.9706481"><ele>555.0</ele><time>2026-04-10T13:52:40.821Z</time></trkpt><trkpt lat="44.4930829" lon="4.9706966"><ele>555.6</ele><time>2026-04-10T13:52:41.817Z</time></trkpt><trkpt lat="44.4931829" lon="4.9707396"><ele>556.2</ele><time>2026-04-10T13:52:42.819Z</time></trkpt><trkpt lat="44.4932838" lon="4.9707896"><ele>556.8</ele><time>2026-04-10T13:52:43.819Z</time></trkpt><trkpt lat="44.4933854" lon="4.97084"><ele>557.4</ele><time>2026-04-10T13:52:44.821Z</time></trkpt><trkpt lat="44.4934889" lon="4.9708867"><ele>558.0</ele><time>2026-04-10T13:52:45.817Z</time></trkpt><trkpt lat="44.493567" lon="4.9709385"><ele>558.0</ele><time>2026-04-10T13:52:46.817Z</time></trkpt><trkpt lat="44.4936281" lon="4.9710166"><ele>558.0</ele><time>2026-04-10T13:52:47.824Z</time></trkpt><trkpt lat="44.4936806" lon="4.9711083"><ele>558.0</ele><time>2026-04-10T13:52:48.821Z</time></trkpt><trkpt lat="44.4937463" lon="4.9711933"><ele>558.0</ele><time>2026-04-10T13:52:49.821Z</time></trkpt><trkpt lat="44.4937953" lon="4.9712577"><ele>558.0</ele><time>2026-04-10T13:52:50.819Z</time></trkpt><trkpt lat="44.4938504" lon="4.9713024"><ele>558.0</ele><time>2026-04-10T13:52:51.821Z</time></trkpt><trkpt lat="44.493912" lon="4.9713344"><ele>559.9999999999999</ele><time>2026-04-10T13:52:52.822Z</time></trkpt><trkpt lat="44.4939893" lon="4.9713536"><ele>562.0</ele><time>2026-04-10T13:52:53.821Z</time></trkpt><trkpt lat="44.4940551" lon="4.9713697"><ele>564.0</ele><time>2026-04-10T13:52:54.821Z</time></trkpt><trkpt lat="44.4941207" lon="4.9714201"><ele>566.0</ele><time>2026-04-10T13:52:55.817Z</time></trkpt><trkpt lat="44.4941749" lon="4.9714775"><ele>568.0</ele><time>2026-04-10T13:52:56.827Z</time></trkpt><trkpt lat="44.4942305" lon="4.9715337"><ele>569.9999999999999</ele><time>2026-04-10T13:52:57.818Z</time></trkpt><trkpt lat="44.4942854" lon="4.9715817"><ele>572.0</ele><time>2026-04-10T13:52:58.817Z</time></trkpt><trkpt lat="44.4943401" lon="4.9716259"><ele>572.0</ele><time>2026-04-10T13:52:59.82Z</time></trkpt><trkpt lat="44.494468" lon="4.9716679"><ele>572.0</ele><time>2026-04-10T13:53:01.82Z</time></trkpt><trkpt lat="44.4945627" lon="4.9716799"><ele>572.0</ele><time>2026-04-10T13:53:03.818Z</time></trkpt><trkpt lat="44.4946645" lon="4.971744"><ele>572.0</ele><time>2026-04-10T13:53:05.823Z</time></trkpt><trkpt lat="44.4947325" lon="4.9717947"><ele>572.0</ele><time>2026-04-10T13:53:06.82Z</time></trkpt><trkpt lat="44.4947846" lon="4.9718454"><ele>572.3333333333333</ele><time>2026-04-10T13:53:07.817Z</time></trkpt><trkpt lat="44.494851" lon="4.9718807"><ele>572.6666666666666</ele><time>2026-04-10T13:53:08.819Z</time></trkpt><trkpt lat="44.4949042" lon="4.9719357"><ele>573.0</ele><time>2026-04-10T13:53:09.817Z</time></trkpt><trkpt lat="44.495004" lon="4.9719952"><ele>573.3333333333334</ele><time>2026-04-10T13:53:11.823Z</time></trkpt><trkpt lat="44.4951139" lon="4.9720424"><ele>573.6666666666667</ele><time>2026-04-10T13:53:13.819Z</time></trkpt><trkpt lat="44.4951992" lon="4.972052"><ele>574.0</ele><time>2026-04-10T13:53:14.819Z</time></trkpt><trkpt lat="44.4953038" lon="4.9720606"><ele>574.0</ele><time>2026-04-10T13:53:15.818Z</time></trkpt><trkpt lat="44.4953995" lon="4.9720538"><ele>574.0</ele><time>2026-04-10T13:53:16.82Z</time></trkpt><trkpt lat="44.4954894" lon="4.9720537"><ele>574.0</ele><time>2026-04-10T13:53:17.818Z</time></trkpt><trkpt lat="44.4955826" lon="4.972038"><ele>574.0</ele><time>2026-04-10T13:53:18.82Z</time></trkpt><trkpt lat="44.4956559" lon="4.9720204"><ele>574.0</ele><time>2026-04-10T13:53:19.823Z</time></trkpt><trkpt lat="44.4957412" lon="4.9719291"><ele>575.6</ele><time>2026-04-10T13:53:21.82Z</time></trkpt><trkpt lat="44.4958001" lon="4.9717483"><ele>577.2</ele><time>2026-04-10T13:53:23.819Z</time></trkpt><trkpt lat="44.4958327" lon="4.9716446"><ele>578.8000000000001</ele><time>2026-04-10T13:53:24.82Z</time></trkpt><trkpt lat="44.49588" lon="4.9715381"><ele>580.4</ele><time>2026-04-10T13:53:25.821Z</time></trkpt><trkpt lat="44.4959353" lon="4.9714318"><ele>582.0</ele><time>2026-04-10T13:53:26.821Z</time></trkpt><trkpt lat="44.4960069" lon="4.9713422"><ele>582.6</ele><time>2026-04-10T13:53:27.819Z</time></trkpt><trkpt lat="44.4960641" lon="4.9712652"><ele>583.2</ele><time>2026-04-10T13:53:28.822Z</time></trkpt><trkpt lat="44.4961168" lon="4.9711823"><ele>583.8</ele><time>2026-04-10T13:53:29.82Z</time></trkpt><trkpt lat="44.4961974" lon="4.9710691"><ele>584.4</ele><time>2026-04-10T13:53:30.819Z</time></trkpt><trkpt lat="44.4962761" lon="4.9709577"><ele>585.0</ele><time>2026-04-10T13:53:31.82Z</time></trkpt><trkpt lat="44.4963541" lon="4.9708463"><ele>585.0</ele><time>2026-04-10T13:53:32.822Z</time></trkpt><trkpt lat="44.4964556" lon="4.9707364"><ele>585.0</ele><time>2026-04-10T13:53:33.82Z</time></trkpt><trkpt lat="44.4965608" lon="4.970642"><ele>585.0</ele><time>2026-04-10T13:53:34.818Z</time></trkpt><trkpt lat="44.4966389" lon="4.9705396"><ele>585.0</ele><time>2026-04-10T13:53:35.82Z</time></trkpt><trkpt lat="44.4967016" lon="4.9704552"><ele>585.0</ele><time>2026-04-10T13:53:36.819Z</time></trkpt><trkpt lat="44.4967532" lon="4.9703622"><ele>585.0</ele><time>2026-04-10T13:53:37.82Z</time></trkpt><trkpt lat="44.4967998" lon="4.9702593"><ele>585.0</ele><time>2026-04-10T13:53:38.816Z</time></trkpt><trkpt lat="44.4968488" lon="4.9701469"><ele>585.0</ele><time>2026-04-10T13:53:39.816Z</time></trkpt><trkpt lat="44.4969015" lon="4.970034"><ele>585.0</ele><time>2026-04-10T13:53:40.822Z</time></trkpt><trkpt lat="44.4969452" lon="4.9699154"><ele>585.0</ele><time>2026-04-10T13:53:41.82Z</time></trkpt><trkpt lat="44.4969735" lon="4.9698048"><ele>584.0</ele><time>2026-04-10T13:53:42.821Z</time></trkpt><trkpt lat="44.4969853" lon="4.9696989"><ele>583.0</ele><time>2026-04-10T13:53:43.821Z</time></trkpt><trkpt lat="44.4969876" lon="4.9695967"><ele>582.0</ele><time>2026-04-10T13:53:44.818Z</time></trkpt><trkpt lat="44.4969963" lon="4.969496"><ele>581.0</ele><time>2026-04-10T13:53:45.821Z</time></trkpt><trkpt lat="44.4970096" lon="4.9694036"><ele>580.0</ele><time>2026-04-10T13:53:46.818Z</time></trkpt><trkpt lat="44.4970262" lon="4.969257"><ele>579.0</ele><time>2026-04-10T13:53:48.819Z</time></trkpt><trkpt lat="44.4970442" lon="4.9691587"><ele>578.5</ele><time>2026-04-10T13:53:51.823Z</time></trkpt><trkpt lat="44.4971085" lon="4.9689758"><ele>578.0</ele><time>2026-04-10T13:56:12.821Z</time></trkpt><trkpt lat="44.4971339" lon="4.9688911"><ele>577.5</ele><time>2026-04-10T13:56:13.819Z</time></trkpt><trkpt lat="44.4971721" lon="4.9687973"><ele>577.0</ele><time>2026-04-10T13:56:14.817Z</time></trkpt><trkpt lat="44.4972097" lon="4.9687188"><ele>576.5</ele><time>2026-04-10T13:56:15.82Z</time></trkpt><trkpt lat="44.4972452" lon="4.9686334"><ele>576.0</ele><time>2026-04-10T13:56:16.82Z</time></trkpt><trkpt lat="44.4972863" lon="4.9685301"><ele>576.0</ele><time>2026-04-10T13:56:17.834Z</time></trkpt><trkpt lat="44.4973245" lon="4.9684233"><ele>576.0</ele><time>2026-04-10T13:56:18.828Z</time></trkpt><trkpt lat="44.4973698" lon="4.9683243"><ele>576.0</ele><time>2026-04-10T13:56:19.82Z</time></trkpt><trkpt lat="44.4974008" lon="4.9682189"><ele>576.0</ele><time>2026-04-10T13:56:20.824Z</time></trkpt><trkpt lat="44.4974202" lon="4.9681183"><ele>576.0</ele><time>2026-04-10T13:56:21.818Z</time></trkpt><trkpt lat="44.4974395" lon="4.9679997"><ele>576.0</ele><time>2026-04-10T13:56:22.816Z</time></trkpt><trkpt lat="44.4974608" lon="4.9678826"><ele>574.5</ele><time>2026-04-10T13:56:23.82Z</time></trkpt><trkpt lat="44.497476" lon="4.9677656"><ele>573.0</ele><time>2026-04-10T13:56:24.821Z</time></trkpt><trkpt lat="44.4974904" lon="4.9676618"><ele>571.5</ele><time>2026-04-10T13:56:25.821Z</time></trkpt><trkpt lat="44.4975239" lon="4.9675619"><ele>570.0</ele><time>2026-04-10T13:56:26.82Z</time></trkpt><trkpt lat="44.4975594" lon="4.9674664"><ele>568.5</ele><time>2026-04-10T13:56:27.818Z</time></trkpt><trkpt lat="44.4976033" lon="4.9673778"><ele>567.0</ele><time>2026-04-10T13:56:28.817Z</time></trkpt><trkpt lat="44.4976393" lon="4.9672708"><ele>566.5</ele><time>2026-04-10T13:56:29.82Z</time></trkpt><trkpt lat="44.4976625" lon="4.9671599"><ele>566.0</ele><time>2026-04-10T13:56:30.817Z</time></trkpt><trkpt lat="44.4976791" lon="4.9670358"><ele>565.5</ele><time>2026-04-10T13:56:31.821Z</time></trkpt><trkpt lat="44.4977104" lon="4.9669321"><ele>565.0</ele><time>2026-04-10T13:56:32.824Z</time></trkpt><trkpt lat="44.4977456" lon="4.9668298"><ele>564.5</ele><time>2026-04-10T13:56:33.82Z</time></trkpt><trkpt lat="44.4977974" lon="4.966724"><ele>564.0</ele><time>2026-04-10T13:56:34.819Z</time></trkpt><trkpt lat="44.4978513" lon="4.9666154"><ele>564.0</ele><time>2026-04-10T13:56:35.816Z</time></trkpt><trkpt lat="44.4979002" lon="4.966492"><ele>564.0</ele><time>2026-04-10T13:56:36.818Z</time></trkpt><trkpt lat="44.4979496" lon="4.966355"><ele>564.0</ele><time>2026-04-10T13:56:37.819Z</time></trkpt><trkpt lat="44.4980038" lon="4.9662192"><ele>564.0</ele><time>2026-04-10T13:56:38.816Z</time></trkpt><trkpt lat="44.4980574" lon="4.9660803"><ele>564.0</ele><time>2026-04-10T13:56:39.835Z</time></trkpt><trkpt lat="44.4981067" lon="4.9659345"><ele>564.6</ele><time>2026-04-10T13:56:40.827Z</time></trkpt><trkpt lat="44.4981486" lon="4.9657978"><ele>565.2</ele><time>2026-04-10T13:56:41.822Z</time></trkpt><trkpt lat="44.4981903" lon="4.9656718"><ele>565.8000000000001</ele><time>2026-04-10T13:56:42.821Z</time></trkpt><trkpt lat="44.4982336" lon="4.9655508"><ele>566.4</ele><time>2026-04-10T13:56:43.827Z</time></trkpt><trkpt lat="44.4982788" lon="4.9654382"><ele>567.0</ele><time>2026-04-10T13:56:44.825Z</time></trkpt><trkpt lat="44.4983032" lon="4.9653316"><ele>567.0</ele><time>2026-04-10T13:56:45.826Z</time></trkpt><trkpt lat="44.4983197" lon="4.9652238"><ele>567.0</ele><time>2026-04-10T13:56:46.823Z</time></trkpt><trkpt lat="44.4983021" lon="4.9650947"><ele>567.0</ele><time>2026-04-10T13:56:47.818Z</time></trkpt><trkpt lat="44.4982637" lon="4.9649508"><ele>567.0</ele><time>2026-04-10T13:56:48.818Z</time></trkpt><trkpt lat="44.4982162" lon="4.9648032"><ele>567.0</ele><time>2026-04-10T13:56:49.823Z</time></trkpt><trkpt lat="44.4981733" lon="4.9646457"><ele>565.5</ele><time>2026-04-10T13:56:50.819Z</time></trkpt><trkpt lat="44.4981409" lon="4.9644807"><ele>564.0</ele><time>2026-04-10T13:56:51.817Z</time></trkpt><trkpt lat="44.4981157" lon="4.9643145"><ele>562.5</ele><time>2026-04-10T13:56:52.82Z</time></trkpt><trkpt lat="44.4980865" lon="4.9641554"><ele>561.0</ele><time>2026-04-10T13:56:53.818Z</time></trkpt><trkpt lat="44.4980491" lon="4.9640042"><ele>561.0</ele><time>2026-04-10T13:56:54.82Z</time></trkpt><trkpt lat="44.4980097" lon="4.9638642"><ele>561.0</ele><time>2026-04-10T13:56:55.818Z</time></trkpt><trkpt lat="44.4979686" lon="4.963737"><ele>561.0</ele><time>2026-04-10T13:56:56.818Z</time></trkpt><trkpt lat="44.4979086" lon="4.9636096"><ele>561.0</ele><time>2026-04-10T13:56:57.826Z</time></trkpt><trkpt lat="44.4978531" lon="4.963484"><ele>561.0</ele><time>2026-04-10T13:56:58.847Z</time></trkpt><trkpt lat="44.4978063" lon="4.9633668"><ele>560.0</ele><time>2026-04-10T13:56:59.835Z</time></trkpt><trkpt lat="44.4977672" lon="4.9632514"><ele>559.0</ele><time>2026-04-10T13:57:00.821Z</time></trkpt><trkpt lat="44.4977262" lon="4.9631323"><ele>558.0</ele><time>2026-04-10T13:57:01.818Z</time></trkpt><trkpt lat="44.4976895" lon="4.9630139"><ele>557.0</ele><time>2026-04-10T13:57:02.823Z</time></trkpt><trkpt lat="44.4976553" lon="4.9629016"><ele>556.0</ele><time>2026-04-10T13:57:03.827Z</time></trkpt><trkpt lat="44.4976278" lon="4.9627785"><ele>556.0</ele><time>2026-04-10T13:57:04.818Z</time></trkpt><trkpt lat="44.4976092" lon="4.9626613"><ele>556.0</ele><time>2026-04-10T13:57:05.83Z</time></trkpt><trkpt lat="44.4975923" lon="4.9625505"><ele>556.0</ele><time>2026-04-10T13:57:06.823Z</time></trkpt><trkpt lat="44.4975705" lon="4.9624346"><ele>556.0</ele><time>2026-04-10T13:57:07.817Z</time></trkpt><trkpt lat="44.4975491" lon="4.9623339"><ele>556.0</ele><time>2026-04-10T13:57:08.824Z</time></trkpt><trkpt lat="44.4975419" lon="4.962222"><ele>556.0</ele><time>2026-04-10T13:57:09.819Z</time></trkpt><trkpt lat="44.4975432" lon="4.9621032"><ele>555.6666666666667</ele><time>2026-04-10T13:57:10.82Z</time></trkpt><trkpt lat="44.4975531" lon="4.961982"><ele>555.3333333333334</ele><time>2026-04-10T13:57:11.818Z</time></trkpt><trkpt lat="44.4975761" lon="4.9618801"><ele>555.0</ele><time>2026-04-10T13:57:12.829Z</time></trkpt><trkpt lat="44.4976132" lon="4.961779"><ele>554.6666666666666</ele><time>2026-04-10T13:57:13.839Z</time></trkpt><trkpt lat="44.4976455" lon="4.9616824"><ele>554.3333333333333</ele><time>2026-04-10T13:57:14.825Z</time></trkpt><trkpt lat="44.4976733" lon="4.9615996"><ele>554.0</ele><time>2026-04-10T13:57:15.821Z</time></trkpt><trkpt lat="44.4976347" lon="4.9614428"><ele>553.8</ele><time>2026-04-10T13:57:17.819Z</time></trkpt><trkpt lat="44.4975918" lon="4.9613528"><ele>553.5999999999999</ele><time>2026-04-10T13:57:18.82Z</time></trkpt><trkpt lat="44.4975465" lon="4.9612463"><ele>553.4</ele><time>2026-04-10T13:57:19.817Z</time></trkpt><trkpt lat="44.4975053" lon="4.9611303"><ele>553.1999999999999</ele><time>2026-04-10T13:57:20.828Z</time></trkpt><trkpt lat="44.4974543" lon="4.9610167"><ele>553.0</ele><time>2026-04-10T13:57:21.826Z</time></trkpt><trkpt lat="44.4973844" lon="4.960909"><ele>553.0</ele><time>2026-04-10T13:57:22.818Z</time></trkpt><trkpt lat="44.4973314" lon="4.9608007"><ele>553.0</ele><time>2026-04-10T13:57:23.823Z</time></trkpt><trkpt lat="44.4972909" lon="4.9607111"><ele>553.0</ele><time>2026-04-10T13:57:24.824Z</time></trkpt><trkpt lat="44.4972583" lon="4.9606059"><ele>553.0</ele><time>2026-04-10T13:57:25.819Z</time></trkpt><trkpt lat="44.4972174" lon="4.9604849"><ele>553.0</ele><time>2026-04-10T13:57:26.816Z</time></trkpt><trkpt lat="44.4971864" lon="4.9603494"><ele>553.0</ele><time>2026-04-10T13:57:27.818Z</time></trkpt><trkpt lat="44.4971572" lon="4.9602121"><ele>553.0</ele><time>2026-04-10T13:57:28.819Z</time></trkpt><trkpt lat="44.4971242" lon="4.9600686"><ele>553.0</ele><time>2026-04-10T13:57:29.821Z</time></trkpt><trkpt lat="44.4970857" lon="4.9599388"><ele>553.0</ele><time>2026-04-10T13:57:30.823Z</time></trkpt><trkpt lat="44.4970325" lon="4.9597836"><ele>553.0</ele><time>2026-04-10T13:57:31.819Z</time></trkpt><trkpt lat="44.4969786" lon="4.9596243"><ele>553.0</ele><time>2026-04-10T13:57:32.821Z</time></trkpt><trkpt lat="44.4969403" lon="4.9594723"><ele>553.0</ele><time>2026-04-10T13:57:33.82Z</time></trkpt><trkpt lat="44.4969179" lon="4.959323"><ele>553.0</ele><time>2026-04-10T13:57:34.817Z</time></trkpt><trkpt lat="44.4969014" lon="4.9591687"><ele>553.0</ele><time>2026-04-10T13:57:35.821Z</time></trkpt><trkpt lat="44.4969144" lon="4.9590429"><ele>553.0</ele><time>2026-04-10T13:57:36.82Z</time></trkpt><trkpt lat="44.4969124" lon="4.9588821"><ele>553.1999999999999</ele><time>2026-04-10T13:57:37.82Z</time></trkpt><trkpt lat="44.4969065" lon="4.9587529"><ele>553.4</ele><time>2026-04-10T13:57:38.818Z</time></trkpt><trkpt lat="44.4968733" lon="4.9586002"><ele>553.5999999999999</ele><time>2026-04-10T13:57:39.818Z</time></trkpt><trkpt lat="44.4968552" lon="4.9584494"><ele>553.8</ele><time>2026-04-10T13:57:40.821Z</time></trkpt><trkpt lat="44.4968414" lon="4.9583076"><ele>554.0</ele><time>2026-04-10T13:57:41.819Z</time></trkpt><trkpt lat="44.4968326" lon="4.9581864"><ele>554.0</ele><time>2026-04-10T13:57:42.819Z</time></trkpt><trkpt lat="44.496797" lon="4.9580435"><ele>554.0</ele><time>2026-04-10T13:57:43.821Z</time></trkpt><trkpt lat="44.49675" lon="4.95791"><ele>554.0</ele><time>2026-04-10T13:57:44.821Z</time></trkpt><trkpt lat="44.4967202" lon="4.9577928"><ele>554.0</ele><time>2026-04-10T13:57:45.818Z</time></trkpt><trkpt lat="44.4966856" lon="4.9576678"><ele>554.0</ele><time>2026-04-10T13:57:46.82Z</time></trkpt><trkpt lat="44.496647" lon="4.9575487"><ele>553.2</ele><time>2026-04-10T13:57:47.823Z</time></trkpt><trkpt lat="44.4966153" lon="4.9574498"><ele>552.4</ele><time>2026-04-10T13:57:48.823Z</time></trkpt><trkpt lat="44.4965514" lon="4.9573106"><ele>551.6</ele><time>2026-04-10T13:57:50.819Z</time></trkpt><trkpt lat="44.496479" lon="4.9571733"><ele>550.8</ele><time>2026-04-10T13:57:52.821Z</time></trkpt><trkpt lat="44.4964421" lon="4.9570703"><ele>550.0</ele><time>2026-04-10T13:57:53.819Z</time></trkpt><trkpt lat="44.4964027" lon="4.9569678"><ele>550.0</ele><time>2026-04-10T13:57:54.819Z</time></trkpt><trkpt lat="44.4963593" lon="4.9568729"><ele>550.0</ele><time>2026-04-10T13:57:55.819Z</time></trkpt><trkpt lat="44.49631" lon="4.956776"><ele>550.0</ele><time>2026-04-10T13:57:56.822Z</time></trkpt><trkpt lat="44.496254" lon="4.9567016"><ele>550.0</ele><time>2026-04-10T13:57:57.818Z</time></trkpt><trkpt lat="44.4961965" lon="4.9566429"><ele>550.0</ele><time>2026-04-10T13:57:58.819Z</time></trkpt><trkpt lat="44.4961379" lon="4.9565698"><ele>550.0</ele><time>2026-04-10T13:57:59.818Z</time></trkpt><trkpt lat="44.496061" lon="4.9564827"><ele>548.8333333333334</ele><time>2026-04-10T13:58:00.82Z</time></trkpt><trkpt lat="44.495988" lon="4.9563836"><ele>547.6666666666667</ele><time>2026-04-10T13:58:01.824Z</time></trkpt><trkpt lat="44.4959357" lon="4.9562876"><ele>546.5</ele><time>2026-04-10T13:58:02.818Z</time></trkpt><trkpt lat="44.4958867" lon="4.9561907"><ele>545.3333333333334</ele><time>2026-04-10T13:58:03.818Z</time></trkpt><trkpt lat="44.4958569" lon="4.9561028"><ele>544.1666666666666</ele><time>2026-04-10T13:58:04.818Z</time></trkpt><trkpt lat="44.4958134" lon="4.9560206"><ele>543.0</ele><time>2026-04-10T13:58:05.819Z</time></trkpt><trkpt lat="44.4957639" lon="4.9559368"><ele>542.0</ele><time>2026-04-10T13:58:06.819Z</time></trkpt><trkpt lat="44.4957222" lon="4.9558512"><ele>541.0</ele><time>2026-04-10T13:58:07.819Z</time></trkpt><trkpt lat="44.4956856" lon="4.9557719"><ele>540.0</ele><time>2026-04-10T13:58:08.821Z</time></trkpt><trkpt lat="44.4956153" lon="4.9556255"><ele>539.0</ele><time>2026-04-10T13:58:10.82Z</time></trkpt><trkpt lat="44.4955496" lon="4.9554932"><ele>538.0</ele><time>2026-04-10T13:58:12.821Z</time></trkpt><trkpt lat="44.4955098" lon="4.9554047"><ele>538.0</ele><time>2026-04-10T13:58:13.822Z</time></trkpt><trkpt lat="44.4954555" lon="4.9552536"><ele>538.0</ele><time>2026-04-10T13:58:15.819Z</time></trkpt><trkpt lat="44.495424" lon="4.9551747"><ele>538.0</ele><time>2026-04-10T13:58:16.818Z</time></trkpt><trkpt lat="44.4953365" lon="4.9550318"><ele>538.0</ele><time>2026-04-10T13:58:18.822Z</time></trkpt><trkpt lat="44.4953037" lon="4.9549414"><ele>538.0</ele><time>2026-04-10T13:58:19.816Z</time></trkpt><trkpt lat="44.4952727" lon="4.9548635"><ele>537.0</ele><time>2026-04-10T13:58:20.821Z</time></trkpt><trkpt lat="44.4952286" lon="4.9547847"><ele>536.0</ele><time>2026-04-10T13:58:21.822Z</time></trkpt><trkpt lat="44.4951724" lon="4.9547168"><ele>535.0</ele><time>2026-04-10T13:58:22.819Z</time></trkpt><trkpt lat="44.4951049" lon="4.9546614"><ele>534.0</ele><time>2026-04-10T13:58:23.816Z</time></trkpt><trkpt lat="44.4950436" lon="4.9545949"><ele>533.0</ele><time>2026-04-10T13:58:24.818Z</time></trkpt><trkpt lat="44.494979" lon="4.9545213"><ele>532.0</ele><time>2026-04-10T13:58:25.822Z</time></trkpt><trkpt lat="44.4949281" lon="4.9544607"><ele>532.0</ele><time>2026-04-10T13:58:26.821Z</time></trkpt><trkpt lat="44.494886" lon="4.9543636"><ele>532.0</ele><time>2026-04-10T13:58:27.82Z</time></trkpt><trkpt lat="44.4948466" lon="4.9542757"><ele>532.0</ele><time>2026-04-10T13:58:28.817Z</time></trkpt><trkpt lat="44.4948003" lon="4.9541304"><ele>532.0</ele><time>2026-04-10T13:58:30.819Z</time></trkpt><trkpt lat="44.4947608" lon="4.9540608"><ele>532.0</ele><time>2026-04-10T13:58:31.822Z</time></trkpt><trkpt lat="44.4946758" lon="4.9539297"><ele>530.6</ele><time>2026-04-10T13:58:33.816Z</time></trkpt><trkpt lat="44.4945999" lon="4.9538148"><ele>529.2</ele><time>2026-04-10T13:58:35.819Z</time></trkpt><trkpt lat="44.4945028" lon="4.9537124"><ele>527.8</ele><time>2026-04-10T13:58:37.817Z</time></trkpt><trkpt lat="44.494416" lon="4.9536274"><ele>526.4</ele><time>2026-04-10T13:58:39.82Z</time></trkpt><trkpt lat="44.4943794" lon="4.9535095"><ele>525.0</ele><time>2026-04-10T13:58:41.818Z</time></trkpt><trkpt lat="44.4943826" lon="4.9533859"><ele>524.0</ele><time>2026-04-10T13:58:43.819Z</time></trkpt><trkpt lat="44.4943589" lon="4.9532308"><ele>523.0</ele><time>2026-04-10T13:58:45.821Z</time></trkpt><trkpt lat="44.4943289" lon="4.9531121"><ele>522.0</ele><time>2026-04-10T13:58:47.819Z</time></trkpt><trkpt lat="44.4943302" lon="4.9529601"><ele>521.0</ele><time>2026-04-10T13:58:49.82Z</time></trkpt><trkpt lat="44.4943717" lon="4.9528293"><ele>520.0</ele><time>2026-04-10T13:58:51.82Z</time></trkpt><trkpt lat="44.4944516" lon="4.9527132"><ele>520.0</ele><time>2026-04-10T13:58:53.819Z</time></trkpt><trkpt lat="44.4945016" lon="4.9526057"><ele>520.0</ele><time>2026-04-10T13:58:54.819Z</time></trkpt><trkpt lat="44.4945594" lon="4.9525086"><ele>520.0</ele><time>2026-04-10T13:58:55.82Z</time></trkpt><trkpt lat="44.494613" lon="4.9524233"><ele>520.0</ele><time>2026-04-10T13:58:56.822Z</time></trkpt><trkpt lat="44.494657" lon="4.952336"><ele>520.0</ele><time>2026-04-10T13:58:57.821Z</time></trkpt><trkpt lat="44.4946889" lon="4.9522144"><ele>520.0</ele><time>2026-04-10T13:58:58.818Z</time></trkpt><trkpt lat="44.4947085" lon="4.9520521"><ele>520.0</ele><time>2026-04-10T13:58:59.824Z</time></trkpt><trkpt lat="44.4947268" lon="4.9519092"><ele>520.0</ele><time>2026-04-10T13:59:00.82Z</time></trkpt><trkpt lat="44.4947417" lon="4.9517642"><ele>520.0</ele><time>2026-04-10T13:59:01.823Z</time></trkpt><trkpt lat="44.4947499" lon="4.9516227"><ele>520.0</ele><time>2026-04-10T13:59:02.817Z</time></trkpt><trkpt lat="44.4947649" lon="4.9514708"><ele>520.0</ele><time>2026-04-10T13:59:03.817Z</time></trkpt><trkpt lat="44.4947798" lon="4.9513374"><ele>519.6</ele><time>2026-04-10T13:59:04.82Z</time></trkpt><trkpt lat="44.4947942" lon="4.9512206"><ele>519.2</ele><time>2026-04-10T13:59:05.819Z</time></trkpt><trkpt lat="44.4948246" lon="4.9510954"><ele>518.8</ele><time>2026-04-10T13:59:06.821Z</time></trkpt><trkpt lat="44.4948672" lon="4.9509581"><ele>518.4</ele><time>2026-04-10T13:59:07.821Z</time></trkpt><trkpt lat="44.4948944" lon="4.9508396"><ele>518.0</ele><time>2026-04-10T13:59:08.819Z</time></trkpt><trkpt lat="44.4949297" lon="4.9507195"><ele>517.5</ele><time>2026-04-10T13:59:09.823Z</time></trkpt><trkpt lat="44.494965" lon="4.9506011"><ele>517.0</ele><time>2026-04-10T13:59:10.819Z</time></trkpt><trkpt lat="44.4949915" lon="4.9505019"><ele>516.5</ele><time>2026-04-10T13:59:11.818Z</time></trkpt><trkpt lat="44.4950358" lon="4.9504285"><ele>516.0</ele><time>2026-04-10T13:59:12.821Z</time></trkpt><trkpt lat="44.4951299" lon="4.9503217"><ele>515.5</ele><time>2026-04-10T13:59:14.82Z</time></trkpt><trkpt lat="44.4951859" lon="4.9502631"><ele>515.0</ele><time>2026-04-10T13:59:15.818Z</time></trkpt><trkpt lat="44.4952557" lon="4.9501834"><ele>515.0</ele><time>2026-04-10T13:59:16.819Z</time></trkpt><trkpt lat="44.4953142" lon="4.9501016"><ele>515.0</ele><time>2026-04-10T13:59:17.821Z</time></trkpt><trkpt lat="44.4953777" lon="4.9500215"><ele>515.0</ele><time>2026-04-10T13:59:18.82Z</time></trkpt><trkpt lat="44.4954262" lon="4.9499411"><ele>515.0</ele><time>2026-04-10T13:59:19.82Z</time></trkpt><trkpt lat="44.4954722" lon="4.9498621"><ele>515.0</ele><time>2026-04-10T13:59:20.82Z</time></trkpt><trkpt lat="44.495556" lon="4.9497409"><ele>515.0</ele><time>2026-04-10T13:59:22.829Z</time></trkpt><trkpt lat="44.4956047" lon="4.9496594"><ele>513.5</ele><time>2026-04-10T13:59:23.821Z</time></trkpt><trkpt lat="44.4956487" lon="4.9495728"><ele>512.0</ele><time>2026-04-10T13:59:24.827Z</time></trkpt><trkpt lat="44.4956875" lon="4.9494896"><ele>510.5</ele><time>2026-04-10T13:59:25.821Z</time></trkpt><trkpt lat="44.4957295" lon="4.9494095"><ele>509.0</ele><time>2026-04-10T13:59:26.818Z</time></trkpt><trkpt lat="44.4957823" lon="4.9493427"><ele>507.49999999999994</ele><time>2026-04-10T13:59:27.819Z</time></trkpt><trkpt lat="44.4958601" lon="4.9492326"><ele>506.0</ele><time>2026-04-10T13:59:29.821Z</time></trkpt><trkpt lat="44.4959144" lon="4.9491279"><ele>505.66666666666663</ele><time>2026-04-10T13:59:31.83Z</time></trkpt><trkpt lat="44.4959466" lon="4.9489908"><ele>505.3333333333333</ele><time>2026-04-10T13:59:33.822Z</time></trkpt><trkpt lat="44.4959743" lon="4.9488617"><ele>505.0</ele><time>2026-04-10T13:59:35.819Z</time></trkpt><trkpt lat="44.4959973" lon="4.9487523"><ele>504.66666666666663</ele><time>2026-04-10T13:59:37.822Z</time></trkpt><trkpt lat="44.4960042" lon="4.948663"><ele>504.3333333333333</ele><time>2026-04-10T13:59:38.82Z</time></trkpt><trkpt lat="44.4960088" lon="4.9485656"><ele>504.0</ele><time>2026-04-10T13:59:39.817Z</time></trkpt><trkpt lat="44.4960183" lon="4.9484506"><ele>502.8333333333333</ele><time>2026-04-10T13:59:40.822Z</time></trkpt><trkpt lat="44.4960316" lon="4.9483432"><ele>501.66666666666663</ele><time>2026-04-10T13:59:41.821Z</time></trkpt><trkpt lat="44.4960472" lon="4.9482484"><ele>500.5</ele><time>2026-04-10T13:59:42.824Z</time></trkpt><trkpt lat="44.4960603" lon="4.948159"><ele>499.3333333333333</ele><time>2026-04-10T13:59:43.822Z</time></trkpt><trkpt lat="44.4960872" lon="4.9480735"><ele>498.16666666666663</ele><time>2026-04-10T13:59:44.819Z</time></trkpt><trkpt lat="44.496135" lon="4.9479677"><ele>497.0</ele><time>2026-04-10T13:59:45.819Z</time></trkpt><trkpt lat="44.4961965" lon="4.9478725"><ele>496.99999999999994</ele><time>2026-04-10T13:59:46.822Z</time></trkpt><trkpt lat="44.4962453" lon="4.9477945"><ele>497.0</ele><time>2026-04-10T13:59:47.82Z</time></trkpt><trkpt lat="44.4963043" lon="4.9477193"><ele>497.0</ele><time>2026-04-10T13:59:48.823Z</time></trkpt><trkpt lat="44.496354" lon="4.9476418"><ele>497.0</ele><time>2026-04-10T13:59:49.821Z</time></trkpt><trkpt lat="44.4963968" lon="4.9475748"><ele>496.99999999999994</ele><time>2026-04-10T13:59:50.819Z</time></trkpt><trkpt lat="44.4964395" lon="4.9474068"><ele>497.0</ele><time>2026-04-10T13:59:52.819Z</time></trkpt><trkpt lat="44.4964589" lon="4.9473006"><ele>496.3333333333333</ele><time>2026-04-10T13:59:53.825Z</time></trkpt><trkpt lat="44.4964794" lon="4.9472023"><ele>495.66666666666663</ele><time>2026-04-10T13:59:54.821Z</time></trkpt><trkpt lat="44.4964958" lon="4.9471112"><ele>495.0</ele><time>2026-04-10T13:59:55.824Z</time></trkpt><trkpt lat="44.4965245" lon="4.9469641"><ele>494.33333333333337</ele><time>2026-04-10T13:59:57.821Z</time></trkpt><trkpt lat="44.4965165" lon="4.9468572"><ele>493.6666666666667</ele><time>2026-04-10T13:59:59.819Z</time></trkpt><trkpt lat="44.4964932" lon="4.9467711"><ele>493.0</ele><time>2026-04-10T14:00:02.819Z</time></trkpt><trkpt lat="44.496515" lon="4.9465966"><ele>493.0</ele><time>2026-04-10T14:00:37.82Z</time></trkpt><trkpt lat="44.4965366" lon="4.9464992"><ele>492.99999999999994</ele><time>2026-04-10T14:00:38.817Z</time></trkpt><trkpt lat="44.496548" lon="4.9463699"><ele>492.99999999999994</ele><time>2026-04-10T14:00:39.817Z</time></trkpt><trkpt lat="44.4965558" lon="4.9462337"><ele>493.0</ele><time>2026-04-10T14:00:40.819Z</time></trkpt><trkpt lat="44.4965495" lon="4.9460936"><ele>493.0</ele><time>2026-04-10T14:00:41.819Z</time></trkpt><trkpt lat="44.4965407" lon="4.9459386"><ele>493.0</ele><time>2026-04-10T14:00:42.819Z</time></trkpt><trkpt lat="44.4965282" lon="4.9457874"><ele>493.0</ele><time>2026-04-10T14:00:43.817Z</time></trkpt><trkpt lat="44.496516" lon="4.9456235"><ele>493.0</ele><time>2026-04-10T14:00:44.823Z</time></trkpt><trkpt lat="44.4965055" lon="4.9454592"><ele>493.0</ele><time>2026-04-10T14:00:45.819Z</time></trkpt><trkpt lat="44.4964864" lon="4.9452946"><ele>493.0</ele><time>2026-04-10T14:00:46.82Z</time></trkpt><trkpt lat="44.4964596" lon="4.9451346"><ele>493.0</ele><time>2026-04-10T14:00:47.822Z</time></trkpt><trkpt lat="44.4964325" lon="4.9449671"><ele>493.0</ele><time>2026-04-10T14:00:48.819Z</time></trkpt><trkpt lat="44.4964024" lon="4.944794"><ele>493.0</ele><time>2026-04-10T14:00:49.816Z</time></trkpt><trkpt lat="44.4963758" lon="4.9446174"><ele>493.0</ele><time>2026-04-10T14:00:50.818Z</time></trkpt><trkpt lat="44.4963491" lon="4.9444463"><ele>493.0</ele><time>2026-04-10T14:00:51.82Z</time></trkpt><trkpt lat="44.4963162" lon="4.9442714"><ele>493.0</ele><time>2026-04-10T14:00:52.819Z</time></trkpt><trkpt lat="44.4962852" lon="4.9440963"><ele>493.0</ele><time>2026-04-10T14:00:53.817Z</time></trkpt><trkpt lat="44.4962526" lon="4.9439214"><ele>492.5</ele><time>2026-04-10T14:00:54.819Z</time></trkpt><trkpt lat="44.4962159" lon="4.9437418"><ele>492.0</ele><time>2026-04-10T14:00:55.816Z</time></trkpt><trkpt lat="44.496165" lon="4.9435632"><ele>491.5</ele><time>2026-04-10T14:00:56.818Z</time></trkpt><trkpt lat="44.4961147" lon="4.9433996"><ele>491.0</ele><time>2026-04-10T14:00:57.822Z</time></trkpt><trkpt lat="44.4960369" lon="4.9432342"><ele>491.0</ele><time>2026-04-10T14:00:58.82Z</time></trkpt><trkpt lat="44.4959584" lon="4.9430728"><ele>491.0</ele><time>2026-04-10T14:00:59.824Z</time></trkpt><trkpt lat="44.4958806" lon="4.9429065"><ele>491.0</ele><time>2026-04-10T14:01:00.82Z</time></trkpt><trkpt lat="44.4957976" lon="4.9427358"><ele>491.0</ele><time>2026-04-10T14:01:01.819Z</time></trkpt><trkpt lat="44.4957158" lon="4.9425608"><ele>491.3333333333333</ele><time>2026-04-10T14:01:02.82Z</time></trkpt><trkpt lat="44.4956297" lon="4.9423779"><ele>491.66666666666663</ele><time>2026-04-10T14:01:03.828Z</time></trkpt><trkpt lat="44.4955436" lon="4.9421971"><ele>492.0</ele><time>2026-04-10T14:01:04.818Z</time></trkpt><trkpt lat="44.4954635" lon="4.9419961"><ele>492.66666666666663</ele><time>2026-04-10T14:01:05.82Z</time></trkpt><trkpt lat="44.4953907" lon="4.9418013"><ele>493.3333333333333</ele><time>2026-04-10T14:01:06.821Z</time></trkpt><trkpt lat="44.4953648" lon="4.9415632"><ele>494.0</ele><time>2026-04-10T14:01:07.823Z</time></trkpt><trkpt lat="44.4953324" lon="4.9413486"><ele>494.0</ele><time>2026-04-10T14:01:08.818Z</time></trkpt><trkpt lat="44.4953108" lon="4.9411404"><ele>494.0</ele><time>2026-04-10T14:01:09.82Z</time></trkpt><trkpt lat="44.4952948" lon="4.9409616"><ele>494.0</ele><time>2026-04-10T14:01:10.82Z</time></trkpt><trkpt lat="44.4952764" lon="4.9408181"><ele>494.0</ele><time>2026-04-10T14:01:11.822Z</time></trkpt><trkpt lat="44.4952601" lon="4.940682"><ele>494.79999999999995</ele><time>2026-04-10T14:01:12.813Z</time></trkpt><trkpt lat="44.4952433" lon="4.9405623"><ele>495.59999999999997</ele><time>2026-04-10T14:01:13.82Z</time></trkpt><trkpt lat="44.4952288" lon="4.9404599"><ele>496.4</ele><time>2026-04-10T14:01:14.819Z</time></trkpt><trkpt lat="44.4952198" lon="4.9402937"><ele>497.2</ele><time>2026-04-10T14:01:16.818Z</time></trkpt><trkpt lat="44.4951874" lon="4.9401666"><ele>498.0</ele><time>2026-04-10T14:01:18.824Z</time></trkpt><trkpt lat="44.495132" lon="4.9400623"><ele>497.0</ele><time>2026-04-10T14:01:20.821Z</time></trkpt><trkpt lat="44.4950349" lon="4.9399828"><ele>495.99999999999994</ele><time>2026-04-10T14:01:22.821Z</time></trkpt><trkpt lat="44.494932" lon="4.9399178"><ele>494.99999999999994</ele><time>2026-04-10T14:01:24.818Z</time></trkpt><trkpt lat="44.4948686" lon="4.9398831"><ele>494.0</ele><time>2026-04-10T14:01:25.815Z</time></trkpt><trkpt lat="44.4947552" lon="4.9398174"><ele>493.0</ele><time>2026-04-10T14:01:27.822Z</time></trkpt><trkpt lat="44.4946558" lon="4.9397273"><ele>493.0</ele><time>2026-04-10T14:01:29.818Z</time></trkpt><trkpt lat="44.494601" lon="4.9396815"><ele>492.99999999999994</ele><time>2026-04-10T14:01:30.82Z</time></trkpt><trkpt lat="44.4945278" lon="4.939645"><ele>492.99999999999994</ele><time>2026-04-10T14:01:31.823Z</time></trkpt><trkpt lat="44.4944103" lon="4.9395895"><ele>493.0</ele><time>2026-04-10T14:01:33.82Z</time></trkpt><trkpt lat="44.4943272" lon="4.9395731"><ele>493.0</ele><time>2026-04-10T14:01:35.816Z</time></trkpt><trkpt lat="44.4942408" lon="4.9394966"><ele>492.59999999999997</ele><time>2026-04-10T14:01:38.823Z</time></trkpt><trkpt lat="44.4941574" lon="4.939515"><ele>492.19999999999993</ele><time>2026-04-10T14:01:41.82Z</time></trkpt><trkpt lat="44.4940562" lon="4.9395209"><ele>491.8</ele><time>2026-04-10T14:01:43.819Z</time></trkpt><trkpt lat="44.493939" lon="4.9395167"><ele>491.4</ele><time>2026-04-10T14:01:45.821Z</time></trkpt><trkpt lat="44.4938171" lon="4.9395149"><ele>491.0</ele><time>2026-04-10T14:01:47.82Z</time></trkpt><trkpt lat="44.4937474" lon="4.939515"><ele>489.99999999999994</ele><time>2026-04-10T14:01:48.82Z</time></trkpt><trkpt lat="44.493684" lon="4.9395279"><ele>489.0</ele><time>2026-04-10T14:01:49.816Z</time></trkpt><trkpt lat="44.4935995" lon="4.9395717"><ele>488.0</ele><time>2026-04-10T14:01:51.823Z</time></trkpt><trkpt lat="44.4935407" lon="4.9396218"><ele>487.0</ele><time>2026-04-10T14:01:53.814Z</time></trkpt><trkpt lat="44.4934811" lon="4.9396791"><ele>485.99999999999994</ele><time>2026-04-10T14:01:55.825Z</time></trkpt><trkpt lat="44.4934107" lon="4.9397441"><ele>485.0</ele><time>2026-04-10T14:01:58.821Z</time></trkpt><trkpt lat="44.4933218" lon="4.9398016"><ele>484.99999999999994</ele><time>2026-04-10T14:02:18.816Z</time></trkpt><trkpt lat="44.4932578" lon="4.9398427"><ele>485.0</ele><time>2026-04-10T14:02:20.82Z</time></trkpt><trkpt lat="44.4931743" lon="4.9398166"><ele>485.0</ele><time>2026-04-10T14:02:44.826Z</time></trkpt><trkpt lat="44.4930878" lon="4.9398136"><ele>485.0</ele><time>2026-04-10T14:02:45.826Z</time></trkpt><trkpt lat="44.4930181" lon="4.939813"><ele>484.99999999999994</ele><time>2026-04-10T14:02:46.819Z</time></trkpt><trkpt lat="44.4929206" lon="4.9398504"><ele>485.0</ele><time>2026-04-10T14:02:48.815Z</time></trkpt><trkpt lat="44.4928663" lon="4.939959"><ele>485.4</ele><time>2026-04-10T14:02:50.822Z</time></trkpt><trkpt lat="44.4928258" lon="4.940084"><ele>485.8</ele><time>2026-04-10T14:02:52.822Z</time></trkpt><trkpt lat="44.4927517" lon="4.9402054"><ele>486.20000000000005</ele><time>2026-04-10T14:02:54.818Z</time></trkpt><trkpt lat="44.4926886" lon="4.9402729"><ele>486.6</ele><time>2026-04-10T14:02:55.817Z</time></trkpt><trkpt lat="44.4926281" lon="4.94034"><ele>487.0</ele><time>2026-04-10T14:02:56.823Z</time></trkpt><trkpt lat="44.4925545" lon="4.9404046"><ele>487.00000000000006</ele><time>2026-04-10T14:02:57.823Z</time></trkpt><trkpt lat="44.4924863" lon="4.9404711"><ele>487.0</ele><time>2026-04-10T14:02:58.818Z</time></trkpt><trkpt lat="44.4924115" lon="4.9405181"><ele>487.0</ele><time>2026-04-10T14:02:59.82Z</time></trkpt><trkpt lat="44.4923373" lon="4.940576"><ele>487.0</ele><time>2026-04-10T14:03:00.82Z</time></trkpt><trkpt lat="44.4922584" lon="4.940632"><ele>487.00000000000006</ele><time>2026-04-10T14:03:01.824Z</time></trkpt><trkpt lat="44.4921792" lon="4.9406734"><ele>487.0</ele><time>2026-04-10T14:03:02.824Z</time></trkpt><trkpt lat="44.4920881" lon="4.9407264"><ele>488.40000000000003</ele><time>2026-04-10T14:03:03.819Z</time></trkpt><trkpt lat="44.4919992" lon="4.9407743"><ele>489.80000000000007</ele><time>2026-04-10T14:03:04.819Z</time></trkpt><trkpt lat="44.4919202" lon="4.9408084"><ele>491.2</ele><time>2026-04-10T14:03:05.819Z</time></trkpt><trkpt lat="44.4918241" lon="4.9408501"><ele>492.6</ele><time>2026-04-10T14:03:06.822Z</time></trkpt><trkpt lat="44.4917268" lon="4.9409"><ele>494.0</ele><time>2026-04-10T14:03:07.816Z</time></trkpt><trkpt lat="44.4916347" lon="4.9409216"><ele>494.0</ele><time>2026-04-10T14:03:08.817Z</time></trkpt><trkpt lat="44.4915332" lon="4.9409477"><ele>494.0</ele><time>2026-04-10T14:03:09.824Z</time></trkpt><trkpt lat="44.4914287" lon="4.9409745"><ele>494.0</ele><time>2026-04-10T14:03:10.817Z</time></trkpt><trkpt lat="44.4913314" lon="4.9409947"><ele>494.0</ele><time>2026-04-10T14:03:11.817Z</time></trkpt><trkpt lat="44.4912322" lon="4.9410076"><ele>494.0</ele><time>2026-04-10T14:03:12.819Z</time></trkpt><trkpt lat="44.4911338" lon="4.9410252"><ele>494.3333333333333</ele><time>2026-04-10T14:03:13.817Z</time></trkpt><trkpt lat="44.4910345" lon="4.9410201"><ele>494.66666666666663</ele><time>2026-04-10T14:03:14.817Z</time></trkpt><trkpt lat="44.4909423" lon="4.9410225"><ele>495.0</ele><time>2026-04-10T14:03:15.819Z</time></trkpt><trkpt lat="44.4908631" lon="4.9410097"><ele>495.33333333333337</ele><time>2026-04-10T14:03:16.823Z</time></trkpt><trkpt lat="44.4907776" lon="4.941001"><ele>495.6666666666667</ele><time>2026-04-10T14:03:17.822Z</time></trkpt><trkpt lat="44.490697" lon="4.940983"><ele>496.0</ele><time>2026-04-10T14:03:18.816Z</time></trkpt><trkpt lat="44.49062" lon="4.9409616"><ele>496.00000000000006</ele><time>2026-04-10T14:03:19.819Z</time></trkpt><trkpt lat="44.4905549" lon="4.940939"><ele>496.0</ele><time>2026-04-10T14:03:20.818Z</time></trkpt><trkpt lat="44.4904798" lon="4.9409278"><ele>496.0</ele><time>2026-04-10T14:03:21.818Z</time></trkpt><trkpt lat="44.490405" lon="4.9408903"><ele>496.0</ele><time>2026-04-10T14:03:22.823Z</time></trkpt><trkpt lat="44.4903297" lon="4.9408371"><ele>496.00000000000006</ele><time>2026-04-10T14:03:23.819Z</time></trkpt><trkpt lat="44.4902681" lon="4.9407592"><ele>496.0</ele><time>2026-04-10T14:03:24.823Z</time></trkpt><trkpt lat="44.4902238" lon="4.9406567"><ele>497.0</ele><time>2026-04-10T14:03:25.818Z</time></trkpt><trkpt lat="44.4902038" lon="4.9405486"><ele>498.0</ele><time>2026-04-10T14:03:26.822Z</time></trkpt><trkpt lat="44.4901983" lon="4.9404075"><ele>499.0</ele><time>2026-04-10T14:03:27.817Z</time></trkpt><trkpt lat="44.4901895" lon="4.9402511"><ele>500.0</ele><time>2026-04-10T14:03:28.817Z</time></trkpt><trkpt lat="44.4901873" lon="4.9401111"><ele>501.0</ele><time>2026-04-10T14:03:29.819Z</time></trkpt><trkpt lat="44.4901544" lon="4.939972"><ele>501.6</ele><time>2026-04-10T14:03:30.815Z</time></trkpt><trkpt lat="44.4901086" lon="4.9398285"><ele>502.20000000000005</ele><time>2026-04-10T14:03:31.816Z</time></trkpt><trkpt lat="44.4900658" lon="4.9396805"><ele>502.79999999999995</ele><time>2026-04-10T14:03:32.816Z</time></trkpt><trkpt lat="44.4900262" lon="4.9395348"><ele>503.4</ele><time>2026-04-10T14:03:33.819Z</time></trkpt><trkpt lat="44.4899737" lon="4.9393968"><ele>504.0</ele><time>2026-04-10T14:03:34.816Z</time></trkpt><trkpt lat="44.4899218" lon="4.9392556"><ele>503.5</ele><time>2026-04-10T14:03:35.82Z</time></trkpt><trkpt lat="44.4898311" lon="4.9391247"><ele>503.0</ele><time>2026-04-10T14:03:36.818Z</time></trkpt><trkpt lat="44.489762" lon="4.9390021"><ele>502.5</ele><time>2026-04-10T14:03:37.821Z</time></trkpt><trkpt lat="44.4896951" lon="4.9388938"><ele>502.0</ele><time>2026-04-10T14:03:38.818Z</time></trkpt><trkpt lat="44.4896043" lon="4.9387882"><ele>500.8</ele><time>2026-04-10T14:03:39.818Z</time></trkpt><trkpt lat="44.4895214" lon="4.9386865"><ele>499.6</ele><time>2026-04-10T14:03:40.823Z</time></trkpt><trkpt lat="44.4894151" lon="4.9386246"><ele>498.40000000000003</ele><time>2026-04-10T14:03:41.817Z</time></trkpt><trkpt lat="44.4893232" lon="4.9385738"><ele>497.20000000000005</ele><time>2026-04-10T14:03:42.821Z</time></trkpt><trkpt lat="44.4892483" lon="4.938493"><ele>496.0</ele><time>2026-04-10T14:03:43.822Z</time></trkpt><trkpt lat="44.4891713" lon="4.9384194"><ele>496.6</ele><time>2026-04-10T14:03:44.823Z</time></trkpt><trkpt lat="44.489129" lon="4.9383105"><ele>497.20000000000005</ele><time>2026-04-10T14:03:45.816Z</time></trkpt><trkpt lat="44.4890823" lon="4.938192"><ele>497.79999999999995</ele><time>2026-04-10T14:03:46.819Z</time></trkpt><trkpt lat="44.4890622" lon="4.9380443"><ele>498.4</ele><time>2026-04-10T14:03:47.819Z</time></trkpt><trkpt lat="44.4890055" lon="4.9379373"><ele>499.0</ele><time>2026-04-10T14:03:48.82Z</time></trkpt><trkpt lat="44.4889366" lon="4.9378471"><ele>499.0</ele><time>2026-04-10T14:03:49.82Z</time></trkpt><trkpt lat="44.4888653" lon="4.937735"><ele>499.0</ele><time>2026-04-10T14:03:50.817Z</time></trkpt><trkpt lat="44.4887855" lon="4.9376535"><ele>499.0</ele><time>2026-04-10T14:03:51.818Z</time></trkpt><trkpt lat="44.4887128" lon="4.9375508"><ele>499.0</ele><time>2026-04-10T14:03:52.823Z</time></trkpt><trkpt lat="44.4886198" lon="4.9374443"><ele>499.0</ele><time>2026-04-10T14:03:53.82Z</time></trkpt><trkpt lat="44.488523" lon="4.937347"><ele>497.6</ele><time>2026-04-10T14:03:54.823Z</time></trkpt><trkpt lat="44.4884486" lon="4.9372344"><ele>496.2</ele><time>2026-04-10T14:03:55.823Z</time></trkpt><trkpt lat="44.488384" lon="4.9371128"><ele>494.80000000000007</ele><time>2026-04-10T14:03:56.819Z</time></trkpt><trkpt lat="44.4883178" lon="4.9369834"><ele>493.40000000000003</ele><time>2026-04-10T14:03:57.822Z</time></trkpt><trkpt lat="44.4882653" lon="4.936858"><ele>492.0</ele><time>2026-04-10T14:03:58.818Z</time></trkpt><trkpt lat="44.4881823" lon="4.9367685"><ele>491.0</ele><time>2026-04-10T14:03:59.819Z</time></trkpt><trkpt lat="44.4880964" lon="4.9366608"><ele>490.0</ele><time>2026-04-10T14:04:00.821Z</time></trkpt><trkpt lat="44.4880089" lon="4.936556"><ele>489.0</ele><time>2026-04-10T14:04:01.827Z</time></trkpt><trkpt lat="44.487924" lon="4.9364251"><ele>488.0</ele><time>2026-04-10T14:04:02.825Z</time></trkpt><trkpt lat="44.4878493" lon="4.9362696"><ele>487.0</ele><time>2026-04-10T14:04:03.821Z</time></trkpt><trkpt lat="44.4877623" lon="4.9361295"><ele>486.0</ele><time>2026-04-10T14:04:04.819Z</time></trkpt><trkpt lat="44.4876812" lon="4.9359926"><ele>485.0</ele><time>2026-04-10T14:04:05.824Z</time></trkpt><trkpt lat="44.4876022" lon="4.9358621"><ele>484.0</ele><time>2026-04-10T14:04:06.826Z</time></trkpt><trkpt lat="44.4875287" lon="4.9357346"><ele>483.2</ele><time>2026-04-10T14:04:07.829Z</time></trkpt><trkpt lat="44.4874678" lon="4.9355897"><ele>482.4</ele><time>2026-04-10T14:04:08.82Z</time></trkpt><trkpt lat="44.4874032" lon="4.93544"><ele>481.6</ele><time>2026-04-10T14:04:09.824Z</time></trkpt><trkpt lat="44.4873593" lon="4.9352977"><ele>480.8</ele><time>2026-04-10T14:04:10.82Z</time></trkpt><trkpt lat="44.4873156" lon="4.9351829"><ele>480.0</ele><time>2026-04-10T14:04:11.819Z</time></trkpt><trkpt lat="44.4872501" lon="4.9350849"><ele>478.75</ele><time>2026-04-10T14:04:12.818Z</time></trkpt><trkpt lat="44.4871638" lon="4.9350041"><ele>477.5</ele><time>2026-04-10T14:04:13.825Z</time></trkpt><trkpt lat="44.4870879" lon="4.9348955"><ele>476.25</ele><time>2026-04-10T14:04:14.822Z</time></trkpt><trkpt lat="44.4870058" lon="4.9347688"><ele>475.0</ele><time>2026-04-10T14:04:15.824Z</time></trkpt><trkpt lat="44.4869224" lon="4.9346213"><ele>475.0</ele><time>2026-04-10T14:04:16.818Z</time></trkpt><trkpt lat="44.4868528" lon="4.9344259"><ele>475.0</ele><time>2026-04-10T14:04:17.822Z</time></trkpt><trkpt lat="44.4867845" lon="4.9342484"><ele>475.0</ele><time>2026-04-10T14:04:18.823Z</time></trkpt><trkpt lat="44.4867347" lon="4.93409"><ele>475.0</ele><time>2026-04-10T14:04:19.822Z</time></trkpt><trkpt lat="44.4866963" lon="4.9339185"><ele>474.5</ele><time>2026-04-10T14:04:20.815Z</time></trkpt><trkpt lat="44.4866568" lon="4.933738"><ele>474.0</ele><time>2026-04-10T14:04:21.819Z</time></trkpt><trkpt lat="44.4866236" lon="4.9335635"><ele>473.5</ele><time>2026-04-10T14:04:22.816Z</time></trkpt><trkpt lat="44.4865811" lon="4.9333799"><ele>473.0</ele><time>2026-04-10T14:04:23.819Z</time></trkpt><trkpt lat="44.4865446" lon="4.9332032"><ele>472.0</ele><time>2026-04-10T14:04:24.818Z</time></trkpt><trkpt lat="44.4864927" lon="4.9330271"><ele>471.0</ele><time>2026-04-10T14:04:25.818Z</time></trkpt><trkpt lat="44.4864402" lon="4.9328387"><ele>470.0</ele><time>2026-04-10T14:04:26.818Z</time></trkpt><trkpt lat="44.4863665" lon="4.9326825"><ele>469.0</ele><time>2026-04-10T14:04:27.825Z</time></trkpt><trkpt lat="44.4863064" lon="4.9325313"><ele>468.0</ele><time>2026-04-10T14:04:28.83Z</time></trkpt><trkpt lat="44.4862405" lon="4.9323608"><ele>467.0</ele><time>2026-04-10T14:04:29.825Z</time></trkpt><trkpt lat="44.4861836" lon="4.9321912"><ele>466.0</ele><time>2026-04-10T14:04:30.819Z</time></trkpt><trkpt lat="44.48613" lon="4.932027"><ele>465.0</ele><time>2026-04-10T14:04:31.824Z</time></trkpt><trkpt lat="44.4860926" lon="4.9318943"><ele>465.0</ele><time>2026-04-10T14:04:32.831Z</time></trkpt><trkpt lat="44.486059" lon="4.9317356"><ele>465.0</ele><time>2026-04-10T14:04:33.82Z</time></trkpt><trkpt lat="44.4860316" lon="4.9315576"><ele>465.0</ele><time>2026-04-10T14:04:34.814Z</time></trkpt><trkpt lat="44.4860164" lon="4.9313777"><ele>465.0</ele><time>2026-04-10T14:04:35.819Z</time></trkpt><trkpt lat="44.4859753" lon="4.9311772"><ele>465.33333333333337</ele><time>2026-04-10T14:04:36.817Z</time></trkpt><trkpt lat="44.485941" lon="4.9309655"><ele>465.6666666666667</ele><time>2026-04-10T14:04:37.825Z</time></trkpt><trkpt lat="44.4858731" lon="4.9307314"><ele>466.0</ele><time>2026-04-10T14:04:38.82Z</time></trkpt><trkpt lat="44.4858199" lon="4.9305128"><ele>466.20000000000005</ele><time>2026-04-10T14:04:39.821Z</time></trkpt><trkpt lat="44.4857785" lon="4.9303372"><ele>466.40000000000003</ele><time>2026-04-10T14:04:40.819Z</time></trkpt><trkpt lat="44.4857493" lon="4.9301867"><ele>466.6</ele><time>2026-04-10T14:04:41.821Z</time></trkpt><trkpt lat="44.4856996" lon="4.9300742"><ele>466.8</ele><time>2026-04-10T14:04:42.82Z</time></trkpt><trkpt lat="44.4856496" lon="4.9299633"><ele>467.0</ele><time>2026-04-10T14:04:43.82Z</time></trkpt><trkpt lat="44.4855928" lon="4.9299061"><ele>467.0</ele><time>2026-04-10T14:04:44.821Z</time></trkpt><trkpt lat="44.4855471" lon="4.9298367"><ele>467.00000000000006</ele><time>2026-04-10T14:04:45.819Z</time></trkpt><trkpt lat="44.4855164" lon="4.9297099"><ele>467.00000000000006</ele><time>2026-04-10T14:04:47.834Z</time></trkpt><trkpt lat="44.4854886" lon="4.9295155"><ele>467.0</ele><time>2026-04-10T14:04:49.818Z</time></trkpt><trkpt lat="44.4854747" lon="4.9294017"><ele>467.0</ele><time>2026-04-10T14:04:50.82Z</time></trkpt><trkpt lat="44.4854362" lon="4.9292102"><ele>466.25</ele><time>2026-04-10T14:04:51.82Z</time></trkpt><trkpt lat="44.485411" lon="4.9290189"><ele>465.5</ele><time>2026-04-10T14:04:52.819Z</time></trkpt><trkpt lat="44.4853902" lon="4.9288511"><ele>464.75</ele><time>2026-04-10T14:04:53.818Z</time></trkpt><trkpt lat="44.4853687" lon="4.9287369"><ele>464.0</ele><time>2026-04-10T14:04:54.821Z</time></trkpt><trkpt lat="44.4853194" lon="4.9286027"><ele>464.0</ele><time>2026-04-10T14:04:55.818Z</time></trkpt><trkpt lat="44.4852454" lon="4.9284966"><ele>464.0</ele><time>2026-04-10T14:04:56.822Z</time></trkpt><trkpt lat="44.4851393" lon="4.9284016"><ele>464.0</ele><time>2026-04-10T14:04:57.821Z</time></trkpt><trkpt lat="44.4850618" lon="4.9282846"><ele>464.0</ele><time>2026-04-10T14:04:58.822Z</time></trkpt><trkpt lat="44.4849851" lon="4.9281785"><ele>464.2</ele><time>2026-04-10T14:04:59.822Z</time></trkpt><trkpt lat="44.4849134" lon="4.9280545"><ele>464.4</ele><time>2026-04-10T14:05:00.814Z</time></trkpt><trkpt lat="44.4848648" lon="4.9279201"><ele>464.6</ele><time>2026-04-10T14:05:01.82Z</time></trkpt><trkpt lat="44.4848505" lon="4.9278078"><ele>464.8</ele><time>2026-04-10T14:05:02.822Z</time></trkpt><trkpt lat="44.4848215" lon="4.9277244"><ele>465.0</ele><time>2026-04-10T14:05:03.817Z</time></trkpt><trkpt lat="44.4847968" lon="4.9276151"><ele>465.4</ele><time>2026-04-10T14:05:05.822Z</time></trkpt><trkpt lat="44.4848036" lon="4.9274914"><ele>465.8</ele><time>2026-04-10T14:05:06.818Z</time></trkpt><trkpt lat="44.4848015" lon="4.9273744"><ele>466.20000000000005</ele><time>2026-04-10T14:05:07.821Z</time></trkpt><trkpt lat="44.484792" lon="4.9272343"><ele>466.6</ele><time>2026-04-10T14:05:08.819Z</time></trkpt><trkpt lat="44.484771" lon="4.9271066"><ele>467.0</ele><time>2026-04-10T14:05:09.82Z</time></trkpt><trkpt lat="44.4847501" lon="4.926985"><ele>467.0</ele><time>2026-04-10T14:05:10.821Z</time></trkpt><trkpt lat="44.4847147" lon="4.9268458"><ele>467.00000000000006</ele><time>2026-04-10T14:05:11.818Z</time></trkpt><trkpt lat="44.4846765" lon="4.9266922"><ele>467.00000000000006</ele><time>2026-04-10T14:05:12.82Z</time></trkpt><trkpt lat="44.4846411" lon="4.9265453"><ele>467.0</ele><time>2026-04-10T14:05:13.824Z</time></trkpt><trkpt lat="44.4846034" lon="4.9264062"><ele>467.0</ele><time>2026-04-10T14:05:14.817Z</time></trkpt><trkpt lat="44.484566" lon="4.9262827"><ele>467.25</ele><time>2026-04-10T14:05:15.82Z</time></trkpt><trkpt lat="44.4845469" lon="4.9261396"><ele>467.5</ele><time>2026-04-10T14:05:16.818Z</time></trkpt><trkpt lat="44.4844923" lon="4.9259844"><ele>467.75</ele><time>2026-04-10T14:05:17.818Z</time></trkpt><trkpt lat="44.4844579" lon="4.9258327"><ele>468.0</ele><time>2026-04-10T14:05:18.82Z</time></trkpt><trkpt lat="44.4844123" lon="4.9256867"><ele>468.0</ele><time>2026-04-10T14:05:19.821Z</time></trkpt><trkpt lat="44.4843635" lon="4.9255337"><ele>467.99999999999994</ele><time>2026-04-10T14:05:20.82Z</time></trkpt><trkpt lat="44.4843167" lon="4.9253956"><ele>467.99999999999994</ele><time>2026-04-10T14:05:21.819Z</time></trkpt><trkpt lat="44.4842718" lon="4.9252663"><ele>468.0</ele><time>2026-04-10T14:05:22.821Z</time></trkpt><trkpt lat="44.4842355" lon="4.9251543"><ele>468.0</ele><time>2026-04-10T14:05:23.821Z</time></trkpt><trkpt lat="44.4842137" lon="4.9250339"><ele>468.66666666666663</ele><time>2026-04-10T14:05:24.822Z</time></trkpt><trkpt lat="44.4842097" lon="4.9249138"><ele>469.3333333333333</ele><time>2026-04-10T14:05:25.816Z</time></trkpt><trkpt lat="44.4842097" lon="4.9249138"><ele>470.0</ele><time>2026-04-10T14:05:25.816Z</time></trkpt><trkpt lat="44.4833623" lon="4.9225073"><ele>470.5</ele><time>2026-04-10T14:05:48.816Z</time></trkpt><trkpt lat="44.4833119" lon="4.9223741"><ele>471.0</ele><time>2026-04-10T14:05:49.814Z</time></trkpt><trkpt lat="44.4832594" lon="4.922246"><ele>471.5</ele><time>2026-04-10T14:05:50.834Z</time></trkpt><trkpt lat="44.4832594" lon="4.922246"><ele>472.0</ele><time>2026-04-10T14:05:50.834Z</time></trkpt><trkpt lat="44.482866" lon="4.920627"><ele>472.5</ele><time>2026-04-10T14:06:02.819Z</time></trkpt><trkpt lat="44.4827531" lon="4.9202559"><ele>473.0</ele><time>2026-04-10T14:06:05.823Z</time></trkpt><trkpt lat="44.482364" lon="4.9190618"><ele>473.0</ele><time>2026-04-10T14:06:16.814Z</time></trkpt><trkpt lat="44.482364" lon="4.9190618"><ele>473.0</ele><time>2026-04-10T14:06:16.814Z</time></trkpt><trkpt lat="44.4822568" lon="4.9170657"><ele>467.0</ele><time>2026-04-10T14:06:36.816Z</time></trkpt><trkpt lat="44.4821519" lon="4.9163147"><ele>471.0</ele><time>2026-04-10T14:06:42.823Z</time></trkpt><trkpt lat="44.481664" lon="4.9150523"><ele>465.0</ele><time>2026-04-10T14:06:56.817Z</time></trkpt><trkpt lat="44.4792253" lon="4.9106687"><ele>465.0</ele><time>2026-04-10T14:07:46.817Z</time></trkpt><trkpt lat="44.4791311" lon="4.9104888"><ele>465.0</ele><time>2026-04-10T14:07:48.815Z</time></trkpt><trkpt lat="44.4790763" lon="4.9103643"><ele>465.0</ele><time>2026-04-10T14:07:49.819Z</time></trkpt><trkpt lat="44.4789047" lon="4.9100986"><ele>464.0</ele><time>2026-04-10T14:07:51.824Z</time></trkpt><trkpt lat="44.4788113" lon="4.9099961"><ele>463.0</ele><time>2026-04-10T14:07:52.838Z</time></trkpt><trkpt lat="44.4787026" lon="4.9098514"><ele>462.0</ele><time>2026-04-10T14:07:53.823Z</time></trkpt><trkpt lat="44.4786246" lon="4.9097236"><ele>461.0</ele><time>2026-04-10T14:07:54.828Z</time></trkpt><trkpt lat="44.4784368" lon="4.9094532"><ele>460.0</ele><time>2026-04-10T14:07:56.826Z</time></trkpt><trkpt lat="44.4782949" lon="4.9090946"><ele>459.0</ele><time>2026-04-10T14:07:59.823Z</time></trkpt><trkpt lat="44.477865" lon="4.9074174"><ele>458.0</ele><time>2026-04-10T14:09:41.817Z</time></trkpt><trkpt lat="44.4778166" lon="4.9073553"><ele>457.0</ele><time>2026-04-10T14:09:52.812Z</time></trkpt><trkpt lat="44.477835" lon="4.9074428"><ele>456.0</ele><time>2026-04-10T14:12:50.823Z</time></trkpt><trkpt lat="44.4778047" lon="4.9073449"><ele>455.0</ele><time>2026-04-10T14:15:01.82Z</time></trkpt><trkpt lat="44.4777489" lon="4.9073977"><ele>454.0</ele><time>2026-04-10T14:19:26.808Z</time></trkpt><trkpt lat="44.4778231" lon="4.9074214"><ele>453.0</ele><time>2026-04-10T14:19:37.809Z</time></trkpt><trkpt lat="44.4778995" lon="4.9074"><ele>452.0</ele><time>2026-04-10T14:19:41.823Z</time></trkpt><trkpt lat="44.4779519" lon="4.9072878"><ele>452.0</ele><time>2026-04-10T14:20:34.812Z</time></trkpt><trkpt lat="44.4780178" lon="4.9072063"><ele>452.00000000000006</ele><time>2026-04-10T14:20:35.817Z</time></trkpt><trkpt lat="44.4780988" lon="4.9070989"><ele>452.00000000000006</ele><time>2026-04-10T14:20:37.814Z</time></trkpt><trkpt lat="44.4781873" lon="4.9070186"><ele>452.0</ele><time>2026-04-10T14:20:39.81Z</time></trkpt><trkpt lat="44.4783106" lon="4.9070073"><ele>452.0</ele><time>2026-04-10T14:20:41.812Z</time></trkpt><trkpt lat="44.4783776" lon="4.9070019"><ele>452.0</ele><time>2026-04-10T14:20:42.821Z</time></trkpt><trkpt lat="44.4784969" lon="4.9069582"><ele>452.00000000000006</ele><time>2026-04-10T14:20:44.817Z</time></trkpt><trkpt lat="44.4786002" lon="4.9069337"><ele>452.00000000000006</ele><time>2026-04-10T14:20:46.813Z</time></trkpt><trkpt lat="44.4786883" lon="4.906922"><ele>452.0</ele><time>2026-04-10T14:20:48.811Z</time></trkpt><trkpt lat="44.478798" lon="4.9069415"><ele>452.0</ele><time>2026-04-10T14:20:50.822Z</time></trkpt><trkpt lat="44.4788668" lon="4.9069262"><ele>451.16666666666663</ele><time>2026-04-10T14:20:51.813Z</time></trkpt><trkpt lat="44.4789347" lon="4.9069151"><ele>450.3333333333333</ele><time>2026-04-10T14:20:52.808Z</time></trkpt><trkpt lat="44.4790105" lon="4.9068916"><ele>449.5</ele><time>2026-04-10T14:20:53.815Z</time></trkpt><trkpt lat="44.4790969" lon="4.9068782"><ele>448.66666666666663</ele><time>2026-04-10T14:20:54.815Z</time></trkpt><trkpt lat="44.4791848" lon="4.9068794"><ele>447.8333333333333</ele><time>2026-04-10T14:20:55.818Z</time></trkpt><trkpt lat="44.4792905" lon="4.9068678"><ele>447.0</ele><time>2026-04-10T14:20:56.817Z</time></trkpt><trkpt lat="44.4793902" lon="4.9068692"><ele>447.0</ele><time>2026-04-10T14:20:57.818Z</time></trkpt><trkpt lat="44.4794844" lon="4.9068645"><ele>447.00000000000006</ele><time>2026-04-10T14:20:58.816Z</time></trkpt><trkpt lat="44.4795828" lon="4.906855"><ele>447.00000000000006</ele><time>2026-04-10T14:20:59.819Z</time></trkpt><trkpt lat="44.4796758" lon="4.9068427"><ele>447.0</ele><time>2026-04-10T14:21:00.814Z</time></trkpt><trkpt lat="44.479776" lon="4.906825"><ele>447.0</ele><time>2026-04-10T14:21:01.813Z</time></trkpt><trkpt lat="44.4798751" lon="4.9068121"><ele>445.40000000000003</ele><time>2026-04-10T14:21:02.811Z</time></trkpt><trkpt lat="44.4799995" lon="4.9067727"><ele>443.80000000000007</ele><time>2026-04-10T14:21:03.817Z</time></trkpt><trkpt lat="44.4801044" lon="4.9067404"><ele>442.2</ele><time>2026-04-10T14:21:04.813Z</time></trkpt><trkpt lat="44.4801919" lon="4.9066994"><ele>440.6</ele><time>2026-04-10T14:21:06.816Z</time></trkpt><trkpt lat="44.4802429" lon="4.9066397"><ele>439.0</ele><time>2026-04-10T14:21:13.812Z</time></trkpt><trkpt lat="44.4803204" lon="4.906652"><ele>438.50000000000006</ele><time>2026-04-10T14:21:19.811Z</time></trkpt><trkpt lat="44.4803742" lon="4.9066009"><ele>438.0</ele><time>2026-04-10T14:21:21.821Z</time></trkpt><trkpt lat="44.4804044" lon="4.9064817"><ele>437.5</ele><time>2026-04-10T14:21:23.819Z</time></trkpt><trkpt lat="44.4804097" lon="4.9063497"><ele>437.0</ele><time>2026-04-10T14:21:25.814Z</time></trkpt><trkpt lat="44.4804094" lon="4.9062592"><ele>436.50000000000006</ele><time>2026-04-10T14:21:44.816Z</time></trkpt><trkpt lat="44.4804453" lon="4.9061281"><ele>436.0</ele><time>2026-04-10T14:21:46.822Z</time></trkpt><trkpt lat="44.4804823" lon="4.9060074"><ele>435.8</ele><time>2026-04-10T14:21:48.824Z</time></trkpt><trkpt lat="44.4804817" lon="4.9058773"><ele>435.6</ele><time>2026-04-10T14:21:50.812Z</time></trkpt><trkpt lat="44.4804638" lon="4.9057584"><ele>435.4</ele><time>2026-04-10T14:21:52.815Z</time></trkpt><trkpt lat="44.4804713" lon="4.9056383"><ele>435.2</ele><time>2026-04-10T14:21:54.822Z</time></trkpt><trkpt lat="44.48049" lon="4.9055105"><ele>435.0</ele><time>2026-04-10T14:21:56.818Z</time></trkpt><trkpt lat="44.4805137" lon="4.9053794"><ele>435.0</ele><time>2026-04-10T14:21:58.819Z</time></trkpt><trkpt lat="44.4805381" lon="4.9052888"><ele>435.0</ele><time>2026-04-10T14:21:59.817Z</time></trkpt><trkpt lat="44.4805621" lon="4.9051826"><ele>435.0</ele><time>2026-04-10T14:22:00.816Z</time></trkpt><trkpt lat="44.4805786" lon="4.9050638"><ele>435.0</ele><time>2026-04-10T14:22:01.822Z</time></trkpt><trkpt lat="44.4805953" lon="4.9049287"><ele>435.0</ele><time>2026-04-10T14:22:02.817Z</time></trkpt><trkpt lat="44.4806097" lon="4.9048001"><ele>435.0</ele><time>2026-04-10T14:22:03.818Z</time></trkpt><trkpt lat="44.4806379" lon="4.9046601"><ele>434.3333333333333</ele><time>2026-04-10T14:22:04.816Z</time></trkpt><trkpt lat="44.4806733" lon="4.9045211"><ele>433.66666666666663</ele><time>2026-04-10T14:22:05.817Z</time></trkpt><trkpt lat="44.480704" lon="4.9043941"><ele>433.0</ele><time>2026-04-10T14:22:06.821Z</time></trkpt><trkpt lat="44.4807237" lon="4.9042805"><ele>432.3333333333333</ele><time>2026-04-10T14:22:07.819Z</time></trkpt><trkpt lat="44.4807411" lon="4.9041717"><ele>431.66666666666663</ele><time>2026-04-10T14:22:08.82Z</time></trkpt><trkpt lat="44.48076" lon="4.9040764"><ele>431.0</ele><time>2026-04-10T14:22:09.819Z</time></trkpt><trkpt lat="44.480766" lon="4.9039854"><ele>431.0</ele><time>2026-04-10T14:22:10.819Z</time></trkpt><trkpt lat="44.4807515" lon="4.9038789"><ele>431.0</ele><time>2026-04-10T14:22:12.819Z</time></trkpt><trkpt lat="44.4807344" lon="4.9037855"><ele>431.0</ele><time>2026-04-10T14:22:14.818Z</time></trkpt><trkpt lat="44.4807142" lon="4.9036386"><ele>431.0</ele><time>2026-04-10T14:22:16.817Z</time></trkpt><trkpt lat="44.4806987" lon="4.9035119"><ele>431.0</ele><time>2026-04-10T14:22:18.823Z</time></trkpt><trkpt lat="44.4807055" lon="4.9033632"><ele>431.6</ele><time>2026-04-10T14:22:20.811Z</time></trkpt><trkpt lat="44.4807016" lon="4.9032197"><ele>432.20000000000005</ele><time>2026-04-10T14:22:22.812Z</time></trkpt><trkpt lat="44.4806509" lon="4.9031009"><ele>432.79999999999995</ele><time>2026-04-10T14:22:24.817Z</time></trkpt><trkpt lat="44.4806096" lon="4.9030203"><ele>433.4</ele><time>2026-04-10T14:22:25.812Z</time></trkpt><trkpt lat="44.4805736" lon="4.9029224"><ele>434.0</ele><time>2026-04-10T14:22:26.817Z</time></trkpt><trkpt lat="44.4805338" lon="4.9027933"><ele>434.0</ele><time>2026-04-10T14:22:27.819Z</time></trkpt><trkpt lat="44.4804945" lon="4.9026527"><ele>434.0</ele><time>2026-04-10T14:22:28.812Z</time></trkpt><trkpt lat="44.4804431" lon="4.9024999"><ele>434.0</ele><time>2026-04-10T14:22:29.817Z</time></trkpt><trkpt lat="44.4803974" lon="4.9023359"><ele>434.0</ele><time>2026-04-10T14:22:30.82Z</time></trkpt><trkpt lat="44.4803426" lon="4.9021817"><ele>433.0</ele><time>2026-04-10T14:22:31.813Z</time></trkpt><trkpt lat="44.4802814" lon="4.9020296"><ele>432.0</ele><time>2026-04-10T14:22:32.815Z</time></trkpt><trkpt lat="44.4802292" lon="4.9018899"><ele>431.0</ele><time>2026-04-10T14:22:33.817Z</time></trkpt><trkpt lat="44.4801972" lon="4.9017561"><ele>430.0</ele><time>2026-04-10T14:22:34.813Z</time></trkpt><trkpt lat="44.4801448" lon="4.9016275"><ele>429.0</ele><time>2026-04-10T14:22:35.816Z</time></trkpt><trkpt lat="44.4801024" lon="4.901489"><ele>428.5</ele><time>2026-04-10T14:22:36.809Z</time></trkpt><trkpt lat="44.4800729" lon="4.9013535"><ele>428.0</ele><time>2026-04-10T14:22:37.814Z</time></trkpt><trkpt lat="44.4800252" lon="4.9012396"><ele>427.5</ele><time>2026-04-10T14:22:38.82Z</time></trkpt><trkpt lat="44.4799674" lon="4.9011509"><ele>427.0</ele><time>2026-04-10T14:22:39.814Z</time></trkpt><trkpt lat="44.479902" lon="4.9010762"><ele>426.5</ele><time>2026-04-10T14:22:40.81Z</time></trkpt><trkpt lat="44.4798441" lon="4.9010061"><ele>426.0</ele><time>2026-04-10T14:22:41.813Z</time></trkpt><trkpt lat="44.4797682" lon="4.900896"><ele>426.0</ele><time>2026-04-10T14:22:43.818Z</time></trkpt><trkpt lat="44.4797762" lon="4.9007832"><ele>426.0</ele><time>2026-04-10T14:22:45.814Z</time></trkpt><trkpt lat="44.4798552" lon="4.900646"><ele>426.0</ele><time>2026-04-10T14:22:47.814Z</time></trkpt><trkpt lat="44.4799158" lon="4.9005681"><ele>426.0</ele><time>2026-04-10T14:22:48.822Z</time></trkpt><trkpt lat="44.4800019" lon="4.9004773"><ele>426.0</ele><time>2026-04-10T14:22:49.821Z</time></trkpt><trkpt lat="44.4800902" lon="4.9003732"><ele>426.0</ele><time>2026-04-10T14:22:50.819Z</time></trkpt><trkpt lat="44.4801758" lon="4.9002655"><ele>426.0</ele><time>2026-04-10T14:22:51.814Z</time></trkpt><trkpt lat="44.4802569" lon="4.900148"><ele>426.0</ele><time>2026-04-10T14:22:52.814Z</time></trkpt><trkpt lat="44.4803353" lon="4.9000266"><ele>426.0</ele><time>2026-04-10T14:22:53.816Z</time></trkpt><trkpt lat="44.4804139" lon="4.8998992"><ele>427.5</ele><time>2026-04-10T14:22:54.816Z</time></trkpt><trkpt lat="44.480493" lon="4.8997813"><ele>429.0</ele><time>2026-04-10T14:22:55.811Z</time></trkpt><trkpt lat="44.4805747" lon="4.8996657"><ele>430.5</ele><time>2026-04-10T14:22:56.815Z</time></trkpt><trkpt lat="44.4806609" lon="4.8995442"><ele>432.0</ele><time>2026-04-10T14:22:57.823Z</time></trkpt><trkpt lat="44.480741" lon="4.8994276"><ele>432.0</ele><time>2026-04-10T14:22:58.815Z</time></trkpt><trkpt lat="44.4808232" lon="4.8993082"><ele>432.0</ele><time>2026-04-10T14:22:59.815Z</time></trkpt><trkpt lat="44.4809172" lon="4.8991805"><ele>432.0</ele><time>2026-04-10T14:23:00.818Z</time></trkpt><trkpt lat="44.4810156" lon="4.8990488"><ele>432.0</ele><time>2026-04-10T14:23:01.819Z</time></trkpt><trkpt lat="44.4811145" lon="4.8989094"><ele>432.25</ele><time>2026-04-10T14:23:02.816Z</time></trkpt><trkpt lat="44.4812087" lon="4.8987635"><ele>432.5</ele><time>2026-04-10T14:23:03.817Z</time></trkpt><trkpt lat="44.4812905" lon="4.8986168"><ele>432.75</ele><time>2026-04-10T14:23:04.818Z</time></trkpt><trkpt lat="44.4813677" lon="4.8984622"><ele>433.0</ele><time>2026-04-10T14:23:05.814Z</time></trkpt><trkpt lat="44.4814268" lon="4.8982924"><ele>435.0</ele><time>2026-04-10T14:23:06.817Z</time></trkpt><trkpt lat="44.4814768" lon="4.8981182"><ele>437.0</ele><time>2026-04-10T14:23:07.814Z</time></trkpt><trkpt lat="44.4815233" lon="4.8979396"><ele>439.0</ele><time>2026-04-10T14:23:08.818Z</time></trkpt><trkpt lat="44.4815722" lon="4.897761"><ele>441.0</ele><time>2026-04-10T14:23:09.813Z</time></trkpt><trkpt lat="44.4816218" lon="4.8975756"><ele>441.25</ele><time>2026-04-10T14:23:10.812Z</time></trkpt><trkpt lat="44.4816714" lon="4.8973861"><ele>441.5</ele><time>2026-04-10T14:23:11.816Z</time></trkpt><trkpt lat="44.4817206" lon="4.8971968"><ele>441.75</ele><time>2026-04-10T14:23:12.816Z</time></trkpt><trkpt lat="44.481777" lon="4.8970057"><ele>442.0</ele><time>2026-04-10T14:23:13.811Z</time></trkpt><trkpt lat="44.4818327" lon="4.8968131"><ele>442.6666666666667</ele><time>2026-04-10T14:23:14.814Z</time></trkpt><trkpt lat="44.4818943" lon="4.8966178"><ele>443.33333333333337</ele><time>2026-04-10T14:23:15.813Z</time></trkpt><trkpt lat="44.4819557" lon="4.8964159"><ele>444.0</ele><time>2026-04-10T14:23:16.814Z</time></trkpt><trkpt lat="44.4820082" lon="4.8962107"><ele>444.0</ele><time>2026-04-10T14:23:17.838Z</time></trkpt><trkpt lat="44.4820494" lon="4.8960282"><ele>444.0</ele><time>2026-04-10T14:23:18.835Z</time></trkpt><trkpt lat="44.4821001" lon="4.8958402"><ele>444.0</ele><time>2026-04-10T14:23:19.824Z</time></trkpt><trkpt lat="44.482159" lon="4.8956521"><ele>444.0</ele><time>2026-04-10T14:23:20.827Z</time></trkpt><trkpt lat="44.482223" lon="4.8954608"><ele>444.75</ele><time>2026-04-10T14:23:21.814Z</time></trkpt><trkpt lat="44.4822865" lon="4.8952659"><ele>445.5</ele><time>2026-04-10T14:23:22.812Z</time></trkpt><trkpt lat="44.4823487" lon="4.8950783"><ele>446.25</ele><time>2026-04-10T14:23:23.812Z</time></trkpt><trkpt lat="44.4824062" lon="4.8948863"><ele>447.0</ele><time>2026-04-10T14:23:24.814Z</time></trkpt><trkpt lat="44.4824622" lon="4.894691"><ele>447.0</ele><time>2026-04-10T14:23:25.819Z</time></trkpt><trkpt lat="44.4825138" lon="4.894492"><ele>447.0</ele><time>2026-04-10T14:23:26.817Z</time></trkpt><trkpt lat="44.4825694" lon="4.8943019"><ele>447.0</ele><time>2026-04-10T14:23:27.816Z</time></trkpt><trkpt lat="44.4826246" lon="4.8941261"><ele>447.0</ele><time>2026-04-10T14:23:28.819Z</time></trkpt><trkpt lat="44.4826668" lon="4.8939207"><ele>446.33333333333337</ele><time>2026-04-10T14:23:29.822Z</time></trkpt><trkpt lat="44.4827198" lon="4.8937214"><ele>445.6666666666667</ele><time>2026-04-10T14:23:30.821Z</time></trkpt><trkpt lat="44.482771" lon="4.8935202"><ele>445.0</ele><time>2026-04-10T14:23:31.815Z</time></trkpt><trkpt lat="44.4828274" lon="4.8933162"><ele>445.33333333333337</ele><time>2026-04-10T14:23:32.816Z</time></trkpt><trkpt lat="44.4828862" lon="4.8931134"><ele>445.66666666666663</ele><time>2026-04-10T14:23:33.817Z</time></trkpt><trkpt lat="44.4829475" lon="4.8929078"><ele>446.0</ele><time>2026-04-10T14:23:34.818Z</time></trkpt><trkpt lat="44.4830045" lon="4.8927029"><ele>446.0</ele><time>2026-04-10T14:23:35.818Z</time></trkpt><trkpt lat="44.4830633" lon="4.8925033"><ele>446.0</ele><time>2026-04-10T14:23:36.817Z</time></trkpt><trkpt lat="44.4831253" lon="4.8922933"><ele>446.0</ele><time>2026-04-10T14:23:37.82Z</time></trkpt><trkpt lat="44.4831866" lon="4.8920828"><ele>446.0</ele><time>2026-04-10T14:23:38.822Z</time></trkpt><trkpt lat="44.4832464" lon="4.8918747"><ele>446.0</ele><time>2026-04-10T14:23:39.82Z</time></trkpt><trkpt lat="44.483305" lon="4.8916608"><ele>446.0</ele><time>2026-04-10T14:23:40.818Z</time></trkpt><trkpt lat="44.4833639" lon="4.8914482"><ele>445.66666666666663</ele><time>2026-04-10T14:23:41.822Z</time></trkpt><trkpt lat="44.4834239" lon="4.8912435"><ele>445.33333333333337</ele><time>2026-04-10T14:23:42.819Z</time></trkpt><trkpt lat="44.4834867" lon="4.8910323"><ele>445.0</ele><time>2026-04-10T14:23:43.819Z</time></trkpt><trkpt lat="44.4835448" lon="4.8908256"><ele>444.6666666666667</ele><time>2026-04-10T14:23:44.821Z</time></trkpt><trkpt lat="44.483603" lon="4.8906122"><ele>444.33333333333337</ele><time>2026-04-10T14:23:45.816Z</time></trkpt><trkpt lat="44.4836651" lon="4.8903988"><ele>444.0</ele><time>2026-04-10T14:23:46.818Z</time></trkpt><trkpt lat="44.4837265" lon="4.89018"><ele>444.33333333333337</ele><time>2026-04-10T14:23:47.815Z</time></trkpt><trkpt lat="44.4837809" lon="4.8899634"><ele>444.6666666666667</ele><time>2026-04-10T14:23:48.816Z</time></trkpt><trkpt lat="44.4838412" lon="4.8897436"><ele>445.0</ele><time>2026-04-10T14:23:49.822Z</time></trkpt><trkpt lat="44.4839049" lon="4.8895228"><ele>445.0</ele><time>2026-04-10T14:23:50.814Z</time></trkpt><trkpt lat="44.4839666" lon="4.8893035"><ele>445.0</ele><time>2026-04-10T14:23:51.818Z</time></trkpt><trkpt lat="44.4840282" lon="4.8890868"><ele>445.0</ele><time>2026-04-10T14:23:52.818Z</time></trkpt><trkpt lat="44.4840906" lon="4.8888679"><ele>445.33333333333337</ele><time>2026-04-10T14:23:53.811Z</time></trkpt><trkpt lat="44.4841536" lon="4.8886461"><ele>445.66666666666663</ele><time>2026-04-10T14:23:54.819Z</time></trkpt><trkpt lat="44.4842106" lon="4.8884238"><ele>446.0</ele><time>2026-04-10T14:23:55.814Z</time></trkpt><trkpt lat="44.4842699" lon="4.8882016"><ele>446.0</ele><time>2026-04-10T14:23:56.822Z</time></trkpt><trkpt lat="44.4843307" lon="4.8879809"><ele>446.0</ele><time>2026-04-10T14:23:57.812Z</time></trkpt><trkpt lat="44.4843923" lon="4.8877583"><ele>446.0</ele><time>2026-04-10T14:23:58.816Z</time></trkpt><trkpt lat="44.4844558" lon="4.8875417"><ele>445.66666666666663</ele><time>2026-04-10T14:23:59.818Z</time></trkpt><trkpt lat="44.4845147" lon="4.8873275"><ele>445.33333333333337</ele><time>2026-04-10T14:24:00.811Z</time></trkpt><trkpt lat="44.4845749" lon="4.8871192"><ele>445.0</ele><time>2026-04-10T14:24:01.814Z</time></trkpt><trkpt lat="44.4846342" lon="4.886905"><ele>446.33333333333337</ele><time>2026-04-10T14:24:02.819Z</time></trkpt><trkpt lat="44.4846946" lon="4.8866935"><ele>447.66666666666663</ele><time>2026-04-10T14:24:03.818Z</time></trkpt><trkpt lat="44.4847531" lon="4.8864837"><ele>449.0</ele><time>2026-04-10T14:24:04.815Z</time></trkpt><trkpt lat="44.4848141" lon="4.8862781"><ele>449.0</ele><time>2026-04-10T14:24:05.817Z</time></trkpt><trkpt lat="44.4848718" lon="4.8860641"><ele>449.0</ele><time>2026-04-10T14:24:06.815Z</time></trkpt><trkpt lat="44.4849339" lon="4.885852"><ele>449.0</ele><time>2026-04-10T14:24:07.816Z</time></trkpt><trkpt lat="44.4849964" lon="4.8856325"><ele>448.66666666666663</ele><time>2026-04-10T14:24:08.816Z</time></trkpt><trkpt lat="44.4850603" lon="4.885411"><ele>448.33333333333337</ele><time>2026-04-10T14:24:09.816Z</time></trkpt><trkpt lat="44.4851223" lon="4.8851941"><ele>448.0</ele><time>2026-04-10T14:24:10.818Z</time></trkpt><trkpt lat="44.4851899" lon="4.884986"><ele>447.6666666666667</ele><time>2026-04-10T14:24:11.816Z</time></trkpt><trkpt lat="44.4852625" lon="4.8847862"><ele>447.33333333333337</ele><time>2026-04-10T14:24:12.816Z</time></trkpt><trkpt lat="44.4853525" lon="4.8846048"><ele>447.0</ele><time>2026-04-10T14:24:13.82Z</time></trkpt><trkpt lat="44.485447" lon="4.8844189"><ele>447.33333333333337</ele><time>2026-04-10T14:24:14.817Z</time></trkpt><trkpt lat="44.4855584" lon="4.8842346"><ele>447.6666666666667</ele><time>2026-04-10T14:24:15.816Z</time></trkpt><trkpt lat="44.4856824" lon="4.8840956"><ele>448.0</ele><time>2026-04-10T14:24:16.817Z</time></trkpt><trkpt lat="44.4857985" lon="4.8839561"><ele>448.0</ele><time>2026-04-10T14:24:17.816Z</time></trkpt><trkpt lat="44.4859156" lon="4.8838229"><ele>448.0</ele><time>2026-04-10T14:24:18.819Z</time></trkpt><trkpt lat="44.4860195" lon="4.8837019"><ele>448.0</ele><time>2026-04-10T14:24:19.816Z</time></trkpt><trkpt lat="44.4861259" lon="4.8836322"><ele>448.0</ele><time>2026-04-10T14:24:20.813Z</time></trkpt><trkpt lat="44.486241" lon="4.8835794"><ele>449.0</ele><time>2026-04-10T14:24:21.815Z</time></trkpt><trkpt lat="44.4863592" lon="4.883535"><ele>450.0</ele><time>2026-04-10T14:24:22.817Z</time></trkpt><trkpt lat="44.4864991" lon="4.8835381"><ele>451.0</ele><time>2026-04-10T14:24:23.822Z</time></trkpt><trkpt lat="44.4866265" lon="4.883527"><ele>452.0</ele><time>2026-04-10T14:24:24.816Z</time></trkpt><trkpt lat="44.4867413" lon="4.8834806"><ele>451.75</ele><time>2026-04-10T14:24:25.817Z</time></trkpt><trkpt lat="44.486849" lon="4.8834057"><ele>451.5</ele><time>2026-04-10T14:24:26.813Z</time></trkpt><trkpt lat="44.4869447" lon="4.8832931"><ele>451.25</ele><time>2026-04-10T14:24:27.816Z</time></trkpt><trkpt lat="44.4870329" lon="4.8831453"><ele>451.0</ele><time>2026-04-10T14:24:28.813Z</time></trkpt><trkpt lat="44.4871106" lon="4.882982"><ele>451.0</ele><time>2026-04-10T14:24:29.821Z</time></trkpt><trkpt lat="44.4871721" lon="4.8827978"><ele>451.0</ele><time>2026-04-10T14:24:30.824Z</time></trkpt><trkpt lat="44.4872418" lon="4.8826066"><ele>451.0</ele><time>2026-04-10T14:24:31.823Z</time></trkpt><trkpt lat="44.4873212" lon="4.8824211"><ele>450.6666666666667</ele><time>2026-04-10T14:24:32.813Z</time></trkpt><trkpt lat="44.4874088" lon="4.8822575"><ele>450.33333333333337</ele><time>2026-04-10T14:24:33.813Z</time></trkpt><trkpt lat="44.487521" lon="4.8821142"><ele>450.0</ele><time>2026-04-10T14:24:34.819Z</time></trkpt><trkpt lat="44.4876416" lon="4.8819837"><ele>450.0</ele><time>2026-04-10T14:24:35.813Z</time></trkpt><trkpt lat="44.4877815" lon="4.8818847"><ele>450.0</ele><time>2026-04-10T14:24:36.809Z</time></trkpt><trkpt lat="44.4879278" lon="4.8817971"><ele>450.0</ele><time>2026-04-10T14:24:37.814Z</time></trkpt><trkpt lat="44.4880842" lon="4.8817108"><ele>450.33333333333337</ele><time>2026-04-10T14:24:38.813Z</time></trkpt><trkpt lat="44.4882425" lon="4.8816175"><ele>450.6666666666667</ele><time>2026-04-10T14:24:39.808Z</time></trkpt><trkpt lat="44.4883954" lon="4.8815276"><ele>451.0</ele><time>2026-04-10T14:24:40.817Z</time></trkpt><trkpt lat="44.4885408" lon="4.8814331"><ele>451.0</ele><time>2026-04-10T14:24:41.811Z</time></trkpt><trkpt lat="44.4886828" lon="4.881331"><ele>451.0</ele><time>2026-04-10T14:24:42.816Z</time></trkpt><trkpt lat="44.4888147" lon="4.8812257"><ele>451.0</ele><time>2026-04-10T14:24:43.822Z</time></trkpt><trkpt lat="44.4889401" lon="4.8811004"><ele>450.6666666666667</ele><time>2026-04-10T14:24:44.822Z</time></trkpt><trkpt lat="44.489059" lon="4.8809562"><ele>450.33333333333337</ele><time>2026-04-10T14:24:45.812Z</time></trkpt><trkpt lat="44.4891723" lon="4.8807923"><ele>450.0</ele><time>2026-04-10T14:24:46.817Z</time></trkpt><trkpt lat="44.4892805" lon="4.8806125"><ele>450.0</ele><time>2026-04-10T14:24:47.816Z</time></trkpt><trkpt lat="44.4893896" lon="4.8804344"><ele>450.0</ele><time>2026-04-10T14:24:48.813Z</time></trkpt><trkpt lat="44.4894987" lon="4.8802599"><ele>450.0</ele><time>2026-04-10T14:24:49.813Z</time></trkpt><trkpt lat="44.4896098" lon="4.8800815"><ele>449.66666666666663</ele><time>2026-04-10T14:24:50.826Z</time></trkpt><trkpt lat="44.4897212" lon="4.8799038"><ele>449.3333333333333</ele><time>2026-04-10T14:24:51.818Z</time></trkpt><trkpt lat="44.4898334" lon="4.8797196"><ele>449.0</ele><time>2026-04-10T14:24:52.817Z</time></trkpt><trkpt lat="44.4899418" lon="4.8795491"><ele>449.0</ele><time>2026-04-10T14:24:53.822Z</time></trkpt><trkpt lat="44.4900355" lon="4.8793965"><ele>449.0</ele><time>2026-04-10T14:24:54.814Z</time></trkpt><trkpt lat="44.4901211" lon="4.8792516"><ele>449.0</ele><time>2026-04-10T14:24:55.811Z</time></trkpt><trkpt lat="44.4901948" lon="4.8791139"><ele>449.0</ele><time>2026-04-10T14:24:56.814Z</time></trkpt><trkpt lat="44.4902507" lon="4.8789721"><ele>448.6</ele><time>2026-04-10T14:24:57.822Z</time></trkpt><trkpt lat="44.4902928" lon="4.8788455"><ele>448.2</ele><time>2026-04-10T14:24:58.823Z</time></trkpt><trkpt lat="44.4903326" lon="4.8787279"><ele>447.80000000000007</ele><time>2026-04-10T14:24:59.818Z</time></trkpt><trkpt lat="44.4903397" lon="4.8786071"><ele>447.40000000000003</ele><time>2026-04-10T14:25:00.82Z</time></trkpt><trkpt lat="44.4903503" lon="4.8784813"><ele>447.0</ele><time>2026-04-10T14:25:01.827Z</time></trkpt><trkpt lat="44.4903583" lon="4.8783472"><ele>446.20000000000005</ele><time>2026-04-10T14:25:02.818Z</time></trkpt><trkpt lat="44.4903595" lon="4.8782148"><ele>445.40000000000003</ele><time>2026-04-10T14:25:03.826Z</time></trkpt><trkpt lat="44.4903636" lon="4.8780666"><ele>444.59999999999997</ele><time>2026-04-10T14:25:04.816Z</time></trkpt><trkpt lat="44.4903731" lon="4.8779361"><ele>443.79999999999995</ele><time>2026-04-10T14:25:05.82Z</time></trkpt><trkpt lat="44.4903935" lon="4.8778062"><ele>443.0</ele><time>2026-04-10T14:25:06.819Z</time></trkpt><trkpt lat="44.4904108" lon="4.8777087"><ele>442.8571428571429</ele><time>2026-04-10T14:25:07.819Z</time></trkpt><trkpt lat="44.4904234" lon="4.8776019"><ele>442.7142857142857</ele><time>2026-04-10T14:25:08.817Z</time></trkpt><trkpt lat="44.4904558" lon="4.8775216"><ele>442.57142857142856</ele><time>2026-04-10T14:25:09.813Z</time></trkpt><trkpt lat="44.4904725" lon="4.877416"><ele>442.42857142857144</ele><time>2026-04-10T14:25:10.819Z</time></trkpt><trkpt lat="44.4904822" lon="4.8773267"><ele>442.2857142857143</ele><time>2026-04-10T14:25:11.823Z</time></trkpt><trkpt lat="44.4904846" lon="4.8772369"><ele>442.14285714285717</ele><time>2026-04-10T14:25:12.821Z</time></trkpt><trkpt lat="44.4904836" lon="4.8771064"><ele>442.0</ele><time>2026-04-10T14:25:13.825Z</time></trkpt><trkpt lat="44.4904842" lon="4.8769669"><ele>442.00000000000006</ele><time>2026-04-10T14:25:14.817Z</time></trkpt><trkpt lat="44.490499" lon="4.8768706"><ele>442.0</ele><time>2026-04-10T14:25:15.815Z</time></trkpt><trkpt lat="44.490468" lon="4.8767605"><ele>442.0</ele><time>2026-04-10T14:25:17.814Z</time></trkpt><trkpt lat="44.4904424" lon="4.876667"><ele>442.0</ele><time>2026-04-10T14:25:19.815Z</time></trkpt><trkpt lat="44.4904094" lon="4.8765001"><ele>442.00000000000006</ele><time>2026-04-10T14:25:21.811Z</time></trkpt><trkpt lat="44.4903782" lon="4.8763968"><ele>442.0</ele><time>2026-04-10T14:25:22.813Z</time></trkpt><trkpt lat="44.4903391" lon="4.8763089"><ele>441.6</ele><time>2026-04-10T14:25:23.819Z</time></trkpt><trkpt lat="44.4902923" lon="4.8761689"><ele>441.20000000000005</ele><time>2026-04-10T14:25:25.81Z</time></trkpt><trkpt lat="44.4902819" lon="4.8760379"><ele>440.8</ele><time>2026-04-10T14:25:27.818Z</time></trkpt><trkpt lat="44.4902171" lon="4.8759339"><ele>440.4</ele><time>2026-04-10T14:25:29.812Z</time></trkpt><trkpt lat="44.4901624" lon="4.8757767"><ele>440.0</ele><time>2026-04-10T14:25:31.83Z</time></trkpt><trkpt lat="44.490107" lon="4.8756303"><ele>439.8333333333333</ele><time>2026-04-10T14:25:33.821Z</time></trkpt><trkpt lat="44.4900787" lon="4.8755193"><ele>439.66666666666663</ele><time>2026-04-10T14:25:35.822Z</time></trkpt><trkpt lat="44.4900235" lon="4.8754653"><ele>439.5</ele><time>2026-04-10T14:26:04.816Z</time></trkpt><trkpt lat="44.4899841" lon="4.875382"><ele>439.33333333333337</ele><time>2026-04-10T14:26:05.812Z</time></trkpt><trkpt lat="44.4899187" lon="4.8753276"><ele>439.1666666666667</ele><time>2026-04-10T14:26:06.818Z</time></trkpt><trkpt lat="44.4898396" lon="4.8752655"><ele>439.0</ele><time>2026-04-10T14:26:07.823Z</time></trkpt><trkpt lat="44.4897462" lon="4.8752003"><ele>439.00000000000006</ele><time>2026-04-10T14:26:08.819Z</time></trkpt><trkpt lat="44.4896522" lon="4.8751311"><ele>439.0</ele><time>2026-04-10T14:26:09.808Z</time></trkpt><trkpt lat="44.4895644" lon="4.8750658"><ele>439.0</ele><time>2026-04-10T14:26:10.815Z</time></trkpt><trkpt lat="44.4894856" lon="4.8750092"><ele>439.0</ele><time>2026-04-10T14:26:11.815Z</time></trkpt><trkpt lat="44.4894146" lon="4.8749638"><ele>439.00000000000006</ele><time>2026-04-10T14:26:12.828Z</time></trkpt><trkpt lat="44.4893772" lon="4.8748897"><ele>439.0</ele><time>2026-04-10T14:26:13.833Z</time></trkpt><trkpt lat="44.4893602" lon="4.8747276"><ele>438.1666666666667</ele><time>2026-04-10T14:26:15.808Z</time></trkpt><trkpt lat="44.4893601" lon="4.874626"><ele>437.33333333333337</ele><time>2026-04-10T14:26:16.813Z</time></trkpt><trkpt lat="44.4893592" lon="4.8745311"><ele>436.5</ele><time>2026-04-10T14:26:17.812Z</time></trkpt><trkpt lat="44.4893634" lon="4.8744348"><ele>435.66666666666663</ele><time>2026-04-10T14:26:18.823Z</time></trkpt><trkpt lat="44.4893689" lon="4.8742615"><ele>434.8333333333333</ele><time>2026-04-10T14:26:20.815Z</time></trkpt><trkpt lat="44.4893438" lon="4.874177"><ele>434.0</ele><time>2026-04-10T14:26:21.811Z</time></trkpt><trkpt lat="44.4893098" lon="4.8740895"><ele>434.0</ele><time>2026-04-10T14:26:22.81Z</time></trkpt><trkpt lat="44.4892657" lon="4.8739974"><ele>434.0</ele><time>2026-04-10T14:26:23.813Z</time></trkpt><trkpt lat="44.4892106" lon="4.8739165"><ele>434.0</ele><time>2026-04-10T14:26:24.81Z</time></trkpt><trkpt lat="44.4891334" lon="4.873866"><ele>434.0</ele><time>2026-04-10T14:26:25.814Z</time></trkpt><trkpt lat="44.4890263" lon="4.8738004"><ele>434.0</ele><time>2026-04-10T14:26:26.811Z</time></trkpt><trkpt lat="44.4889391" lon="4.873698"><ele>434.0</ele><time>2026-04-10T14:26:27.814Z</time></trkpt><trkpt lat="44.488885" lon="4.8735764"><ele>434.0</ele><time>2026-04-10T14:26:28.822Z</time></trkpt><trkpt lat="44.4888453" lon="4.8734508"><ele>434.0</ele><time>2026-04-10T14:26:29.824Z</time></trkpt><trkpt lat="44.4888274" lon="4.873322"><ele>434.0</ele><time>2026-04-10T14:26:30.815Z</time></trkpt><trkpt lat="44.488823" lon="4.8731962"><ele>434.0</ele><time>2026-04-10T14:26:31.823Z</time></trkpt><trkpt lat="44.48883" lon="4.8730677"><ele>434.79999999999995</ele><time>2026-04-10T14:26:32.821Z</time></trkpt><trkpt lat="44.4888718" lon="4.8729542"><ele>435.59999999999997</ele><time>2026-04-10T14:26:33.814Z</time></trkpt><trkpt lat="44.4889208" lon="4.8728217"><ele>436.4</ele><time>2026-04-10T14:26:34.808Z</time></trkpt><trkpt lat="44.4889771" lon="4.8726965"><ele>437.2</ele><time>2026-04-10T14:26:35.808Z</time></trkpt><trkpt lat="44.4890308" lon="4.8725662"><ele>438.0</ele><time>2026-04-10T14:26:36.811Z</time></trkpt><trkpt lat="44.489069" lon="4.8724281"><ele>438.0</ele><time>2026-04-10T14:26:37.814Z</time></trkpt><trkpt lat="44.4891107" lon="4.8722889"><ele>437.99999999999994</ele><time>2026-04-10T14:26:38.814Z</time></trkpt><trkpt lat="44.4891619" lon="4.872154"><ele>437.99999999999994</ele><time>2026-04-10T14:26:39.814Z</time></trkpt><trkpt lat="44.4892079" lon="4.8720267"><ele>438.0</ele><time>2026-04-10T14:26:40.811Z</time></trkpt><trkpt lat="44.4892624" lon="4.8719066"><ele>438.0</ele><time>2026-04-10T14:26:41.815Z</time></trkpt><trkpt lat="44.489314" lon="4.8717831"><ele>436.6666666666667</ele><time>2026-04-10T14:26:42.821Z</time></trkpt><trkpt lat="44.4893651" lon="4.8716729"><ele>435.33333333333337</ele><time>2026-04-10T14:26:43.822Z</time></trkpt><trkpt lat="44.4894116" lon="4.8715682"><ele>434.0</ele><time>2026-04-10T14:26:44.818Z</time></trkpt><trkpt lat="44.4894447" lon="4.8714659"><ele>432.6666666666667</ele><time>2026-04-10T14:26:45.819Z</time></trkpt><trkpt lat="44.4894714" lon="4.8713743"><ele>431.33333333333337</ele><time>2026-04-10T14:26:46.814Z</time></trkpt><trkpt lat="44.4894936" lon="4.871289"><ele>430.0</ele><time>2026-04-10T14:26:47.816Z</time></trkpt><trkpt lat="44.4895129" lon="4.8712049"><ele>430.00000000000006</ele><time>2026-04-10T14:26:48.817Z</time></trkpt><trkpt lat="44.4895302" lon="4.8711167"><ele>430.0</ele><time>2026-04-10T14:26:49.815Z</time></trkpt><trkpt lat="44.4895395" lon="4.8710154"><ele>430.0</ele><time>2026-04-10T14:26:50.819Z</time></trkpt><trkpt lat="44.4895421" lon="4.8708963"><ele>430.0</ele><time>2026-04-10T14:26:51.813Z</time></trkpt><trkpt lat="44.4895336" lon="4.8707736"><ele>430.00000000000006</ele><time>2026-04-10T14:26:52.815Z</time></trkpt><trkpt lat="44.4895083" lon="4.8706509"><ele>430.0</ele><time>2026-04-10T14:26:53.82Z</time></trkpt><trkpt lat="44.4894778" lon="4.8705194"><ele>428.25</ele><time>2026-04-10T14:26:54.814Z</time></trkpt><trkpt lat="44.4894437" lon="4.870374"><ele>426.5</ele><time>2026-04-10T14:26:55.817Z</time></trkpt><trkpt lat="44.489408" lon="4.8702125"><ele>424.75</ele><time>2026-04-10T14:26:56.823Z</time></trkpt><trkpt lat="44.4893703" lon="4.8700542"><ele>423.0</ele><time>2026-04-10T14:26:57.815Z</time></trkpt><trkpt lat="44.4893466" lon="4.8699014"><ele>422.0</ele><time>2026-04-10T14:26:58.815Z</time></trkpt><trkpt lat="44.4893379" lon="4.8697314"><ele>421.0</ele><time>2026-04-10T14:26:59.816Z</time></trkpt><trkpt lat="44.4893415" lon="4.8695617"><ele>420.0</ele><time>2026-04-10T14:27:00.814Z</time></trkpt><trkpt lat="44.4893562" lon="4.8694"><ele>419.0</ele><time>2026-04-10T14:27:01.818Z</time></trkpt><trkpt lat="44.4893875" lon="4.8692449"><ele>417.75</ele><time>2026-04-10T14:27:02.814Z</time></trkpt><trkpt lat="44.4894317" lon="4.8690991"><ele>416.5</ele><time>2026-04-10T14:27:03.815Z</time></trkpt><trkpt lat="44.489485" lon="4.8689511"><ele>415.25</ele><time>2026-04-10T14:27:04.813Z</time></trkpt><trkpt lat="44.4895296" lon="4.868807"><ele>414.0</ele><time>2026-04-10T14:27:05.811Z</time></trkpt><trkpt lat="44.489574" lon="4.8686689"><ele>414.2</ele><time>2026-04-10T14:27:06.814Z</time></trkpt><trkpt lat="44.4896119" lon="4.8685244"><ele>414.4</ele><time>2026-04-10T14:27:07.811Z</time></trkpt><trkpt lat="44.4896451" lon="4.8683714"><ele>414.6</ele><time>2026-04-10T14:27:08.806Z</time></trkpt><trkpt lat="44.4896623" lon="4.8682187"><ele>414.8</ele><time>2026-04-10T14:27:09.81Z</time></trkpt><trkpt lat="44.4896724" lon="4.8680673"><ele>415.0</ele><time>2026-04-10T14:27:10.81Z</time></trkpt><trkpt lat="44.4896707" lon="4.8679081"><ele>414.5</ele><time>2026-04-10T14:27:11.813Z</time></trkpt><trkpt lat="44.4896573" lon="4.8677493"><ele>414.0</ele><time>2026-04-10T14:27:12.815Z</time></trkpt><trkpt lat="44.4896595" lon="4.8675787"><ele>413.5</ele><time>2026-04-10T14:27:13.81Z</time></trkpt><trkpt lat="44.4896874" lon="4.8674002"><ele>413.0</ele><time>2026-04-10T14:27:14.812Z</time></trkpt><trkpt lat="44.4897229" lon="4.8672145"><ele>411.75</ele><time>2026-04-10T14:27:15.815Z</time></trkpt><trkpt lat="44.4897581" lon="4.8670222"><ele>410.5</ele><time>2026-04-10T14:27:16.812Z</time></trkpt><trkpt lat="44.4897926" lon="4.8668428"><ele>409.25</ele><time>2026-04-10T14:27:17.807Z</time></trkpt><trkpt lat="44.4898334" lon="4.8666707"><ele>408.0</ele><time>2026-04-10T14:27:18.816Z</time></trkpt><trkpt lat="44.4898738" lon="4.8665198"><ele>407.5</ele><time>2026-04-10T14:27:19.812Z</time></trkpt><trkpt lat="44.4899122" lon="4.866385"><ele>407.0</ele><time>2026-04-10T14:27:20.81Z</time></trkpt><trkpt lat="44.4899486" lon="4.8662638"><ele>406.5</ele><time>2026-04-10T14:27:21.813Z</time></trkpt><trkpt lat="44.4899843" lon="4.8661595"><ele>406.0</ele><time>2026-04-10T14:27:22.815Z</time></trkpt><trkpt lat="44.4900155" lon="4.866073"><ele>405.5</ele><time>2026-04-10T14:27:23.809Z</time></trkpt><trkpt lat="44.4900752" lon="4.8659627"><ele>405.0</ele><time>2026-04-10T14:27:25.814Z</time></trkpt><trkpt lat="44.4900646" lon="4.865875"><ele>404.6</ele><time>2026-04-10T14:27:27.809Z</time></trkpt><trkpt lat="44.4900611" lon="4.865749"><ele>404.2</ele><time>2026-04-10T14:27:29.807Z</time></trkpt><trkpt lat="44.4900644" lon="4.8655821"><ele>403.79999999999995</ele><time>2026-04-10T14:27:31.813Z</time></trkpt><trkpt lat="44.4900937" lon="4.8654688"><ele>403.4</ele><time>2026-04-10T14:27:32.811Z</time></trkpt><trkpt lat="44.4901402" lon="4.8653494"><ele>403.0</ele><time>2026-04-10T14:27:33.809Z</time></trkpt><trkpt lat="44.4901901" lon="4.8652278"><ele>402.75</ele><time>2026-04-10T14:27:34.808Z</time></trkpt><trkpt lat="44.4902411" lon="4.8650818"><ele>402.5</ele><time>2026-04-10T14:27:35.815Z</time></trkpt><trkpt lat="44.4902745" lon="4.8649183"><ele>402.25</ele><time>2026-04-10T14:27:36.811Z</time></trkpt><trkpt lat="44.4903064" lon="4.8647585"><ele>402.0</ele><time>2026-04-10T14:27:37.807Z</time></trkpt><trkpt lat="44.4903283" lon="4.8646199"><ele>402.0</ele><time>2026-04-10T14:27:38.815Z</time></trkpt><trkpt lat="44.4903369" lon="4.8644781"><ele>402.0</ele><time>2026-04-10T14:27:39.834Z</time></trkpt><trkpt lat="44.4903506" lon="4.8643283"><ele>402.0</ele><time>2026-04-10T14:27:40.82Z</time></trkpt><trkpt lat="44.490371" lon="4.8641775"><ele>402.0</ele><time>2026-04-10T14:27:41.824Z</time></trkpt><trkpt lat="44.490403" lon="4.8640256"><ele>402.0</ele><time>2026-04-10T14:27:42.818Z</time></trkpt><trkpt lat="44.4904513" lon="4.8638768"><ele>402.25</ele><time>2026-04-10T14:27:43.815Z</time></trkpt><trkpt lat="44.4904954" lon="4.8637229"><ele>402.5</ele><time>2026-04-10T14:27:44.817Z</time></trkpt><trkpt lat="44.4905471" lon="4.8635789"><ele>402.75</ele><time>2026-04-10T14:27:45.82Z</time></trkpt><trkpt lat="44.4906023" lon="4.8634218"><ele>403.0</ele><time>2026-04-10T14:27:46.812Z</time></trkpt><trkpt lat="44.4906629" lon="4.8632689"><ele>402.5</ele><time>2026-04-10T14:27:47.81Z</time></trkpt><trkpt lat="44.4907429" lon="4.863114"><ele>402.0</ele><time>2026-04-10T14:27:48.817Z</time></trkpt><trkpt lat="44.4908272" lon="4.862961"><ele>401.5</ele><time>2026-04-10T14:27:49.818Z</time></trkpt><trkpt lat="44.490911" lon="4.862796"><ele>401.0</ele><time>2026-04-10T14:27:50.818Z</time></trkpt><trkpt lat="44.4909908" lon="4.8626302"><ele>400.25</ele><time>2026-04-10T14:27:51.812Z</time></trkpt><trkpt lat="44.4910567" lon="4.862469"><ele>399.5</ele><time>2026-04-10T14:27:52.807Z</time></trkpt><trkpt lat="44.4911226" lon="4.8623084"><ele>398.75</ele><time>2026-04-10T14:27:53.813Z</time></trkpt><trkpt lat="44.4911795" lon="4.8621424"><ele>398.0</ele><time>2026-04-10T14:27:54.813Z</time></trkpt><trkpt lat="44.4912223" lon="4.8619702"><ele>398.0</ele><time>2026-04-10T14:27:55.813Z</time></trkpt><trkpt lat="44.4912558" lon="4.8617971"><ele>398.0</ele><time>2026-04-10T14:27:56.811Z</time></trkpt><trkpt lat="44.49128" lon="4.861617"><ele>398.0</ele><time>2026-04-10T14:27:57.816Z</time></trkpt><trkpt lat="44.4912994" lon="4.861436"><ele>398.0</ele><time>2026-04-10T14:27:58.813Z</time></trkpt><trkpt lat="44.4913136" lon="4.8612456"><ele>396.5</ele><time>2026-04-10T14:27:59.809Z</time></trkpt><trkpt lat="44.4913337" lon="4.8610703"><ele>395.0</ele><time>2026-04-10T14:28:00.809Z</time></trkpt><trkpt lat="44.4913627" lon="4.8609113"><ele>393.5</ele><time>2026-04-10T14:28:01.811Z</time></trkpt><trkpt lat="44.4914081" lon="4.8607595"><ele>392.0</ele><time>2026-04-10T14:28:02.815Z</time></trkpt><trkpt lat="44.4914785" lon="4.8606188"><ele>392.0</ele><time>2026-04-10T14:28:03.811Z</time></trkpt><trkpt lat="44.4915614" lon="4.8604707"><ele>392.0</ele><time>2026-04-10T14:28:04.811Z</time></trkpt><trkpt lat="44.4916429" lon="4.8603168"><ele>392.0</ele><time>2026-04-10T14:28:05.813Z</time></trkpt><trkpt lat="44.4917162" lon="4.8601664"><ele>392.0</ele><time>2026-04-10T14:28:06.813Z</time></trkpt><trkpt lat="44.4917855" lon="4.8600259"><ele>392.0</ele><time>2026-04-10T14:28:07.821Z</time></trkpt><trkpt lat="44.4918662" lon="4.8599059"><ele>392.0</ele><time>2026-04-10T14:28:08.825Z</time></trkpt><trkpt lat="44.4919543" lon="4.8597957"><ele>392.0</ele><time>2026-04-10T14:28:09.824Z</time></trkpt><trkpt lat="44.4920635" lon="4.8597279"><ele>392.0</ele><time>2026-04-10T14:28:10.819Z</time></trkpt><trkpt lat="44.4921746" lon="4.8596671"><ele>392.0</ele><time>2026-04-10T14:28:11.815Z</time></trkpt><trkpt lat="44.4922903" lon="4.8596128"><ele>392.0</ele><time>2026-04-10T14:28:12.816Z</time></trkpt><trkpt lat="44.4923923" lon="4.8595614"><ele>392.0</ele><time>2026-04-10T14:28:13.815Z</time></trkpt><trkpt lat="44.4924811" lon="4.8595082"><ele>392.0</ele><time>2026-04-10T14:28:14.815Z</time></trkpt><trkpt lat="44.492548" lon="4.8594225"><ele>392.0</ele><time>2026-04-10T14:28:15.815Z</time></trkpt><trkpt lat="44.492596" lon="4.8592994"><ele>393.0</ele><time>2026-04-10T14:28:16.817Z</time></trkpt><trkpt lat="44.4926367" lon="4.8591433"><ele>394.0</ele><time>2026-04-10T14:28:17.816Z</time></trkpt><trkpt lat="44.4926726" lon="4.8589889"><ele>395.0</ele><time>2026-04-10T14:28:18.809Z</time></trkpt><trkpt lat="44.492715" lon="4.8588486"><ele>396.0</ele><time>2026-04-10T14:28:19.811Z</time></trkpt><trkpt lat="44.492762" lon="4.8587266"><ele>397.0</ele><time>2026-04-10T14:28:20.821Z</time></trkpt><trkpt lat="44.4928155" lon="4.8586158"><ele>397.0</ele><time>2026-04-10T14:28:21.809Z</time></trkpt><trkpt lat="44.4928848" lon="4.858507"><ele>397.0</ele><time>2026-04-10T14:28:22.813Z</time></trkpt><trkpt lat="44.4929441" lon="4.858401"><ele>397.0</ele><time>2026-04-10T14:28:23.811Z</time></trkpt><trkpt lat="44.4929897" lon="4.8582866"><ele>397.0</ele><time>2026-04-10T14:28:24.809Z</time></trkpt><trkpt lat="44.4930281" lon="4.8581638"><ele>397.0</ele><time>2026-04-10T14:28:25.807Z</time></trkpt><trkpt lat="44.4930491" lon="4.8580263"><ele>397.40000000000003</ele><time>2026-04-10T14:28:26.808Z</time></trkpt><trkpt lat="44.4930535" lon="4.8578801"><ele>397.8</ele><time>2026-04-10T14:28:27.811Z</time></trkpt><trkpt lat="44.4930455" lon="4.8577352"><ele>398.2</ele><time>2026-04-10T14:28:28.811Z</time></trkpt><trkpt lat="44.4930274" lon="4.857591"><ele>398.6</ele><time>2026-04-10T14:28:29.81Z</time></trkpt><trkpt lat="44.4930022" lon="4.8574512"><ele>399.0</ele><time>2026-04-10T14:28:30.812Z</time></trkpt><trkpt lat="44.4930101" lon="4.857302"><ele>399.75</ele><time>2026-04-10T14:28:31.81Z</time></trkpt><trkpt lat="44.4930298" lon="4.8571509"><ele>400.5</ele><time>2026-04-10T14:28:32.817Z</time></trkpt><trkpt lat="44.49307" lon="4.856977"><ele>401.25</ele><time>2026-04-10T14:28:33.822Z</time></trkpt><trkpt lat="44.4931253" lon="4.8568131"><ele>402.0</ele><time>2026-04-10T14:28:34.819Z</time></trkpt><trkpt lat="44.4931658" lon="4.8566384"><ele>403.0</ele><time>2026-04-10T14:28:35.818Z</time></trkpt><trkpt lat="44.4931962" lon="4.8564681"><ele>404.0</ele><time>2026-04-10T14:28:36.81Z</time></trkpt><trkpt lat="44.4932081" lon="4.8562962"><ele>405.0</ele><time>2026-04-10T14:28:37.812Z</time></trkpt><trkpt lat="44.4932248" lon="4.8561252"><ele>406.0</ele><time>2026-04-10T14:28:38.817Z</time></trkpt><trkpt lat="44.4932477" lon="4.8559631"><ele>406.4</ele><time>2026-04-10T14:28:39.807Z</time></trkpt><trkpt lat="44.493267" lon="4.8558058"><ele>406.8</ele><time>2026-04-10T14:28:40.809Z</time></trkpt><trkpt lat="44.4932714" lon="4.8556529"><ele>407.2</ele><time>2026-04-10T14:28:41.815Z</time></trkpt><trkpt lat="44.493255" lon="4.8555018"><ele>407.59999999999997</ele><time>2026-04-10T14:28:42.81Z</time></trkpt><trkpt lat="44.4932305" lon="4.855355"><ele>408.0</ele><time>2026-04-10T14:28:43.817Z</time></trkpt><trkpt lat="44.4932007" lon="4.8552122"><ele>407.5</ele><time>2026-04-10T14:28:44.815Z</time></trkpt><trkpt lat="44.4931704" lon="4.8550474"><ele>407.0</ele><time>2026-04-10T14:28:45.816Z</time></trkpt><trkpt lat="44.4931729" lon="4.8548699"><ele>406.5</ele><time>2026-04-10T14:28:46.819Z</time></trkpt><trkpt lat="44.493179" lon="4.8546867"><ele>406.0</ele><time>2026-04-10T14:28:47.818Z</time></trkpt><trkpt lat="44.4931848" lon="4.8545004"><ele>406.0</ele><time>2026-04-10T14:28:48.815Z</time></trkpt><trkpt lat="44.4931843" lon="4.8543131"><ele>406.0</ele><time>2026-04-10T14:28:49.813Z</time></trkpt><trkpt lat="44.493186" lon="4.8541309"><ele>406.0</ele><time>2026-04-10T14:28:50.811Z</time></trkpt><trkpt lat="44.4931883" lon="4.8539445"><ele>406.0</ele><time>2026-04-10T14:28:51.82Z</time></trkpt><trkpt lat="44.4931759" lon="4.8537686"><ele>404.8</ele><time>2026-04-10T14:28:52.811Z</time></trkpt><trkpt lat="44.4931573" lon="4.8536066"><ele>403.6</ele><time>2026-04-10T14:28:53.818Z</time></trkpt><trkpt lat="44.493149" lon="4.8534503"><ele>402.4</ele><time>2026-04-10T14:28:54.816Z</time></trkpt><trkpt lat="44.4931501" lon="4.8533026"><ele>401.2</ele><time>2026-04-10T14:28:55.814Z</time></trkpt><trkpt lat="44.4931605" lon="4.8531693"><ele>400.0</ele><time>2026-04-10T14:28:56.817Z</time></trkpt><trkpt lat="44.4931755" lon="4.8530295"><ele>399.75</ele><time>2026-04-10T14:28:57.811Z</time></trkpt><trkpt lat="44.4931991" lon="4.8528741"><ele>399.5</ele><time>2026-04-10T14:28:58.817Z</time></trkpt><trkpt lat="44.4932332" lon="4.852716"><ele>399.25</ele><time>2026-04-10T14:28:59.812Z</time></trkpt><trkpt lat="44.4933054" lon="4.852592"><ele>399.0</ele><time>2026-04-10T14:29:00.81Z</time></trkpt><trkpt lat="44.493381" lon="4.8524828"><ele>399.4</ele><time>2026-04-10T14:29:01.814Z</time></trkpt><trkpt lat="44.4934541" lon="4.8523681"><ele>399.79999999999995</ele><time>2026-04-10T14:29:02.822Z</time></trkpt><trkpt lat="44.4935264" lon="4.8522565"><ele>400.20000000000005</ele><time>2026-04-10T14:29:03.814Z</time></trkpt><trkpt lat="44.4935993" lon="4.8521355"><ele>400.6</ele><time>2026-04-10T14:29:04.813Z</time></trkpt><trkpt lat="44.493668" lon="4.8520121"><ele>401.0</ele><time>2026-04-10T14:29:05.81Z</time></trkpt><trkpt lat="44.4937334" lon="4.8518882"><ele>401.5</ele><time>2026-04-10T14:29:06.81Z</time></trkpt><trkpt lat="44.4937848" lon="4.8517385"><ele>402.0</ele><time>2026-04-10T14:29:07.814Z</time></trkpt><trkpt lat="44.4938236" lon="4.8515885"><ele>402.5</ele><time>2026-04-10T14:29:08.811Z</time></trkpt><trkpt lat="44.493853" lon="4.8514253"><ele>403.0</ele><time>2026-04-10T14:29:09.812Z</time></trkpt><trkpt lat="44.4938648" lon="4.8512513"><ele>403.0</ele><time>2026-04-10T14:29:10.822Z</time></trkpt><trkpt lat="44.4938646" lon="4.8510396"><ele>403.0</ele><time>2026-04-10T14:29:11.818Z</time></trkpt><trkpt lat="44.493873" lon="4.8508146"><ele>403.0</ele><time>2026-04-10T14:29:12.81Z</time></trkpt><trkpt lat="44.4938772" lon="4.8505768"><ele>404.33333333333337</ele><time>2026-04-10T14:29:13.809Z</time></trkpt><trkpt lat="44.4939034" lon="4.8503404"><ele>405.66666666666663</ele><time>2026-04-10T14:29:14.819Z</time></trkpt><trkpt lat="44.4939459" lon="4.8501277"><ele>407.0</ele><time>2026-04-10T14:29:15.814Z</time></trkpt><trkpt lat="44.493996" lon="4.849911"><ele>407.3333333333333</ele><time>2026-04-10T14:29:16.81Z</time></trkpt><trkpt lat="44.4940398" lon="4.8496883"><ele>407.66666666666663</ele><time>2026-04-10T14:29:17.808Z</time></trkpt><trkpt lat="44.4940807" lon="4.8494682"><ele>408.0</ele><time>2026-04-10T14:29:18.817Z</time></trkpt><trkpt lat="44.4941169" lon="4.8492561"><ele>408.66666666666663</ele><time>2026-04-10T14:29:19.809Z</time></trkpt><trkpt lat="44.4941597" lon="4.8490418"><ele>409.3333333333333</ele><time>2026-04-10T14:29:20.82Z</time></trkpt><trkpt lat="44.4942067" lon="4.8488411"><ele>410.0</ele><time>2026-04-10T14:29:21.812Z</time></trkpt><trkpt lat="44.4942482" lon="4.8486481"><ele>410.0</ele><time>2026-04-10T14:29:22.821Z</time></trkpt><trkpt lat="44.4942718" lon="4.8484616"><ele>410.0</ele><time>2026-04-10T14:29:23.816Z</time></trkpt><trkpt lat="44.4942785" lon="4.8482695"><ele>410.0</ele><time>2026-04-10T14:29:24.814Z</time></trkpt><trkpt lat="44.494255" lon="4.848078"><ele>410.0</ele><time>2026-04-10T14:29:25.812Z</time></trkpt><trkpt lat="44.4942146" lon="4.8478813"><ele>410.0</ele><time>2026-04-10T14:29:26.809Z</time></trkpt><trkpt lat="44.4941681" lon="4.847676"><ele>410.0</ele><time>2026-04-10T14:29:27.809Z</time></trkpt><trkpt lat="44.4941314" lon="4.8474591"><ele>410.0</ele><time>2026-04-10T14:29:28.81Z</time></trkpt><trkpt lat="44.4941129" lon="4.8472339"><ele>410.25</ele><time>2026-04-10T14:29:29.817Z</time></trkpt><trkpt lat="44.4941013" lon="4.8470348"><ele>410.5</ele><time>2026-04-10T14:29:30.808Z</time></trkpt><trkpt lat="44.4940931" lon="4.846859"><ele>410.75</ele><time>2026-04-10T14:29:31.808Z</time></trkpt><trkpt lat="44.4940641" lon="4.8467018"><ele>411.0</ele><time>2026-04-10T14:29:32.81Z</time></trkpt><trkpt lat="44.4940139" lon="4.8465764"><ele>410.5</ele><time>2026-04-10T14:29:33.815Z</time></trkpt><trkpt lat="44.4939349" lon="4.8464914"><ele>410.0</ele><time>2026-04-10T14:29:34.815Z</time></trkpt><trkpt lat="44.4938641" lon="4.8464292"><ele>409.5</ele><time>2026-04-10T14:29:35.815Z</time></trkpt><trkpt lat="44.4937803" lon="4.8463784"><ele>409.0</ele><time>2026-04-10T14:29:37.808Z</time></trkpt><trkpt lat="44.4937331" lon="4.846318"><ele>408.5</ele><time>2026-04-10T14:30:00.817Z</time></trkpt><trkpt lat="44.4937975" lon="4.8464129"><ele>408.0</ele><time>2026-04-10T14:30:07.809Z</time></trkpt><trkpt lat="44.4938808" lon="4.8465529"><ele>407.79999999999995</ele><time>2026-04-10T14:30:09.819Z</time></trkpt><trkpt lat="44.4939495" lon="4.8466261"><ele>407.6</ele><time>2026-04-10T14:30:10.808Z</time></trkpt><trkpt lat="44.494029" lon="4.8467603"><ele>407.4</ele><time>2026-04-10T14:30:12.814Z</time></trkpt><trkpt lat="44.4940724" lon="4.8468987"><ele>407.20000000000005</ele><time>2026-04-10T14:30:14.812Z</time></trkpt><trkpt lat="44.494054" lon="4.8469904"><ele>407.0</ele><time>2026-04-10T14:30:16.808Z</time></trkpt><trkpt lat="44.4940286" lon="4.8471276"><ele>407.6</ele><time>2026-04-10T14:30:21.807Z</time></trkpt><trkpt lat="44.4940576" lon="4.8472612"><ele>408.20000000000005</ele><time>2026-04-10T14:30:23.808Z</time></trkpt><trkpt lat="44.4940858" lon="4.8473745"><ele>408.8</ele><time>2026-04-10T14:30:25.81Z</time></trkpt><trkpt lat="44.4941043" lon="4.8475008"><ele>409.4</ele><time>2026-04-10T14:30:27.817Z</time></trkpt><trkpt lat="44.4941377" lon="4.8476307"><ele>410.0</ele><time>2026-04-10T14:30:29.808Z</time></trkpt><trkpt lat="44.494159" lon="4.8477682"><ele>409.99999999999994</ele><time>2026-04-10T14:30:31.809Z</time></trkpt><trkpt lat="44.4941736" lon="4.8478783"><ele>410.0</ele><time>2026-04-10T14:30:33.714Z</time></trkpt><trkpt lat="44.4941972" lon="4.847996"><ele>410.0</ele><time>2026-04-10T14:30:34.812Z</time></trkpt><trkpt lat="44.4942288" lon="4.8480987"><ele>410.0</ele><time>2026-04-10T14:30:35.823Z</time></trkpt><trkpt lat="44.4942448" lon="4.848193"><ele>409.99999999999994</ele><time>2026-04-10T14:30:36.811Z</time></trkpt><trkpt lat="44.4942606" lon="4.8483538"><ele>410.0</ele><time>2026-04-10T14:30:38.808Z</time></trkpt><trkpt lat="44.494279" lon="4.848479"><ele>409.99999999999994</ele><time>2026-04-10T14:30:40.813Z</time></trkpt><trkpt lat="44.4943755" lon="4.8485079"><ele>410.0</ele><time>2026-04-10T14:30:43.81Z</time></trkpt><trkpt lat="44.4944701" lon="4.8484449"><ele>410.0</ele><time>2026-04-10T14:30:45.807Z</time></trkpt><trkpt lat="44.4945555" lon="4.848401"><ele>410.0</ele><time>2026-04-10T14:30:47.813Z</time></trkpt><trkpt lat="44.4946188" lon="4.8483594"><ele>409.99999999999994</ele><time>2026-04-10T14:30:49.808Z</time></trkpt><trkpt lat="44.4946742" lon="4.8482752"><ele>410.0</ele><time>2026-04-10T14:30:52.816Z</time></trkpt><trkpt lat="44.4946631" lon="4.8481536"><ele>410.0</ele><time>2026-04-10T14:30:55.814Z</time></trkpt><trkpt lat="44.4945904" lon="4.8481258"><ele>410.0</ele><time>2026-04-10T14:30:58.811Z</time></trkpt><trkpt lat="44.4945335" lon="4.8481901"><ele>410.0</ele><time>2026-04-10T14:31:00.813Z</time></trkpt><trkpt lat="44.4944757" lon="4.84833"><ele>410.0</ele><time>2026-04-10T14:31:02.814Z</time></trkpt><trkpt lat="44.4944005" lon="4.8484416"><ele>410.0</ele><time>2026-04-10T14:31:04.837Z</time></trkpt><trkpt lat="44.4943328" lon="4.8484997"><ele>410.0</ele><time>2026-04-10T14:31:06.81Z</time></trkpt><trkpt lat="44.4942613" lon="4.8484821"><ele>410.0</ele><time>2026-04-10T14:31:43.808Z</time></trkpt><trkpt lat="44.4942383" lon="4.8483876"><ele>410.0</ele><time>2026-04-10T14:31:45.811Z</time></trkpt><trkpt lat="44.4942476" lon="4.8482157"><ele>410.0</ele><time>2026-04-10T14:31:47.819Z</time></trkpt><trkpt lat="44.49423" lon="4.8480688"><ele>410.0</ele><time>2026-04-10T14:31:48.808Z</time></trkpt><trkpt lat="44.494199" lon="4.8479171"><ele>410.0</ele><time>2026-04-10T14:31:49.807Z</time></trkpt><trkpt lat="44.4941601" lon="4.84776"><ele>410.0</ele><time>2026-04-10T14:31:50.808Z</time></trkpt><trkpt lat="44.4941368" lon="4.8475654"><ele>410.0</ele><time>2026-04-10T14:31:51.813Z</time></trkpt><trkpt lat="44.4941159" lon="4.8474036"><ele>410.0</ele><time>2026-04-10T14:31:52.812Z</time></trkpt><trkpt lat="44.4940951" lon="4.8472646"><ele>410.16666666666663</ele><time>2026-04-10T14:31:53.813Z</time></trkpt><trkpt lat="44.4940825" lon="4.8471526"><ele>410.3333333333333</ele><time>2026-04-10T14:31:54.812Z</time></trkpt><trkpt lat="44.4940754" lon="4.8470623"><ele>410.5</ele><time>2026-04-10T14:31:55.808Z</time></trkpt><trkpt lat="44.4940776" lon="4.846964"><ele>410.66666666666663</ele><time>2026-04-10T14:31:57.806Z</time></trkpt><trkpt lat="44.494051" lon="4.8468682"><ele>410.8333333333333</ele><time>2026-04-10T14:34:44.806Z</time></trkpt><trkpt lat="44.494031" lon="4.8467564"><ele>411.0</ele><time>2026-04-10T14:34:45.804Z</time></trkpt><trkpt lat="44.4939893" lon="4.8466517"><ele>410.5</ele><time>2026-04-10T14:34:46.812Z</time></trkpt><trkpt lat="44.4939349" lon="4.8465747"><ele>410.0</ele><time>2026-04-10T14:34:47.81Z</time></trkpt><trkpt lat="44.493881" lon="4.8465192"><ele>409.5</ele><time>2026-04-10T14:34:48.807Z</time></trkpt><trkpt lat="44.4937939" lon="4.8464272"><ele>409.0</ele><time>2026-04-10T14:34:50.806Z</time></trkpt><trkpt lat="44.4937285" lon="4.8463577"><ele>408.5</ele><time>2026-04-10T14:34:52.81Z</time></trkpt><trkpt lat="44.4937965" lon="4.8463683"><ele>408.0</ele><time>2026-04-10T14:35:11.808Z</time></trkpt><trkpt lat="44.4938385" lon="4.8464585"><ele>407.8333333333333</ele><time>2026-04-10T14:35:12.808Z</time></trkpt><trkpt lat="44.4938985" lon="4.846523"><ele>407.66666666666663</ele><time>2026-04-10T14:35:13.814Z</time></trkpt><trkpt lat="44.4939516" lon="4.8465901"><ele>407.5</ele><time>2026-04-10T14:35:14.806Z</time></trkpt><trkpt lat="44.4940232" lon="4.8467039"><ele>407.3333333333333</ele><time>2026-04-10T14:35:16.806Z</time></trkpt><trkpt lat="44.4940586" lon="4.8467916"><ele>407.16666666666663</ele><time>2026-04-10T14:35:18.809Z</time></trkpt><trkpt lat="44.4940401" lon="4.8468803"><ele>407.0</ele><time>2026-04-10T14:35:21.809Z</time></trkpt><trkpt lat="44.4940776" lon="4.846962"><ele>406.99999999999994</ele><time>2026-04-10T14:35:24.808Z</time></trkpt><trkpt lat="44.4941575" lon="4.847022"><ele>407.0</ele><time>2026-04-10T14:35:26.805Z</time></trkpt><trkpt lat="44.4942254" lon="4.847078"><ele>407.0</ele><time>2026-04-10T14:35:29.81Z</time></trkpt><trkpt lat="44.4942995" lon="4.8470542"><ele>407.0</ele><time>2026-04-10T14:35:34.809Z</time></trkpt><trkpt lat="44.4943153" lon="4.8469509"><ele>406.99999999999994</ele><time>2026-04-10T14:35:37.808Z</time></trkpt><trkpt lat="44.4943081" lon="4.8468554"><ele>407.0</ele><time>2026-04-10T14:35:42.807Z</time></trkpt><trkpt lat="44.4943401" lon="4.8467787"><ele>406.99999999999994</ele><time>2026-04-10T14:35:47.809Z</time></trkpt><trkpt lat="44.4944022" lon="4.846709"><ele>407.0</ele><time>2026-04-10T14:35:51.81Z</time></trkpt><trkpt lat="44.4944626" lon="4.846662"><ele>407.0</ele><time>2026-04-10T14:35:57.805Z</time></trkpt><trkpt lat="44.4945673" lon="4.8465839"><ele>407.0</ele><time>2026-04-10T14:36:02.81Z</time></trkpt><trkpt lat="44.4946138" lon="4.8465066"><ele>406.99999999999994</ele><time>2026-04-10T14:36:08.809Z</time></trkpt><trkpt lat="44.4946637" lon="4.84642"><ele>407.0</ele><time>2026-04-10T14:36:11.816Z</time></trkpt><trkpt lat="44.4946633" lon="4.8463186"><ele>405.8571428571429</ele><time>2026-04-10T14:36:14.807Z</time></trkpt><trkpt lat="44.4946658" lon="4.84621"><ele>404.7142857142857</ele><time>2026-04-10T14:36:18.809Z</time></trkpt><trkpt lat="44.4947018" lon="4.8461082"><ele>403.57142857142856</ele><time>2026-04-10T14:36:21.808Z</time></trkpt><trkpt lat="44.4947549" lon="4.8460553"><ele>402.42857142857144</ele><time>2026-04-10T14:36:26.807Z</time></trkpt><trkpt lat="44.4947959" lon="4.8459685"><ele>401.2857142857143</ele><time>2026-04-10T14:36:33.814Z</time></trkpt><trkpt lat="44.4948092" lon="4.8458817"><ele>400.14285714285717</ele><time>2026-04-10T14:36:39.808Z</time></trkpt><trkpt lat="44.494818" lon="4.8457819"><ele>399.0</ele><time>2026-04-10T14:36:47.809Z</time></trkpt><trkpt lat="44.4948719" lon="4.8457194"><ele>398.1666666666667</ele><time>2026-04-10T14:36:54.807Z</time></trkpt><trkpt lat="44.4949458" lon="4.8457214"><ele>397.33333333333337</ele><time>2026-04-10T14:37:02.81Z</time></trkpt><trkpt lat="44.4949218" lon="4.8456268"><ele>396.5</ele><time>2026-04-10T14:37:29.807Z</time></trkpt><trkpt lat="44.494943" lon="4.8455232"><ele>395.6666666666667</ele><time>2026-04-10T14:38:29.808Z</time></trkpt><trkpt lat="44.4949436" lon="4.8454279"><ele>394.83333333333337</ele><time>2026-04-10T14:38:32.805Z</time></trkpt><trkpt lat="44.4949869" lon="4.8453483"><ele>394.0</ele><time>2026-04-10T14:38:35.805Z</time></trkpt><trkpt lat="44.4950227" lon="4.845236"><ele>394.00000000000006</ele><time>2026-04-10T14:38:39.808Z</time></trkpt><trkpt lat="44.4950664" lon="4.8451417"><ele>394.0</ele><time>2026-04-10T14:38:41.808Z</time></trkpt><trkpt lat="44.495115" lon="4.8450319"><ele>394.0</ele><time>2026-04-10T14:38:43.815Z</time></trkpt><trkpt lat="44.4951305" lon="4.8449075"><ele>394.0</ele><time>2026-04-10T14:38:45.805Z</time></trkpt><trkpt lat="44.4951178" lon="4.8447859"><ele>394.00000000000006</ele><time>2026-04-10T14:38:47.801Z</time></trkpt><trkpt lat="44.4951095" lon="4.8446751"><ele>394.0</ele><time>2026-04-10T14:38:49.808Z</time></trkpt><trkpt lat="44.4951276" lon="4.844586"><ele>393.83333333333337</ele><time>2026-04-10T14:38:51.807Z</time></trkpt><trkpt lat="44.4951606" lon="4.8445059"><ele>393.6666666666667</ele><time>2026-04-10T14:38:53.806Z</time></trkpt><trkpt lat="44.4952341" lon="4.844422"><ele>393.5</ele><time>2026-04-10T14:38:56.811Z</time></trkpt><trkpt lat="44.4952814" lon="4.8443256"><ele>393.33333333333337</ele><time>2026-04-10T14:38:58.804Z</time></trkpt><trkpt lat="44.4953266" lon="4.8442361"><ele>393.1666666666667</ele><time>2026-04-10T14:39:00.808Z</time></trkpt><trkpt lat="44.4953839" lon="4.8441255"><ele>393.0</ele><time>2026-04-10T14:39:02.809Z</time></trkpt><trkpt lat="44.495418" lon="4.8440169"><ele>393.0</ele><time>2026-04-10T14:39:03.806Z</time></trkpt><trkpt lat="44.4954804" lon="4.8438859"><ele>393.0</ele><time>2026-04-10T14:39:05.805Z</time></trkpt><trkpt lat="44.4955" lon="4.8437969"><ele>393.0</ele><time>2026-04-10T14:39:06.805Z</time></trkpt><trkpt lat="44.4955548" lon="4.8436274"><ele>393.0</ele><time>2026-04-10T14:39:08.803Z</time></trkpt><trkpt lat="44.4955847" lon="4.843526"><ele>393.0</ele><time>2026-04-10T14:39:09.805Z</time></trkpt><trkpt lat="44.495637" lon="4.8434499"><ele>393.0</ele><time>2026-04-10T14:39:10.806Z</time></trkpt><trkpt lat="44.4956697" lon="4.8433735"><ele>393.0</ele><time>2026-04-10T14:39:11.806Z</time></trkpt><trkpt lat="44.4957043" lon="4.8432979"><ele>393.0</ele><time>2026-04-10T14:39:12.809Z</time></trkpt><trkpt lat="44.4957571" lon="4.8431484"><ele>393.0</ele><time>2026-04-10T14:39:14.807Z</time></trkpt><trkpt lat="44.4957751" lon="4.8430162"><ele>393.0</ele><time>2026-04-10T14:39:16.807Z</time></trkpt><trkpt lat="44.4958195" lon="4.8428755"><ele>393.0</ele><time>2026-04-10T14:39:18.806Z</time></trkpt><trkpt lat="44.4958611" lon="4.842714"><ele>393.0</ele><time>2026-04-10T14:39:20.811Z</time></trkpt><trkpt lat="44.4959133" lon="4.8426008"><ele>393.0</ele><time>2026-04-10T14:39:22.804Z</time></trkpt><trkpt lat="44.4959322" lon="4.8425091"><ele>393.0</ele><time>2026-04-10T14:40:53.808Z</time></trkpt><trkpt lat="44.4959624" lon="4.8424246"><ele>393.0</ele><time>2026-04-10T14:40:54.806Z</time></trkpt><trkpt lat="44.4959971" lon="4.842327"><ele>393.0</ele><time>2026-04-10T14:40:55.806Z</time></trkpt><trkpt lat="44.4960471" lon="4.8421963"><ele>393.25</ele><time>2026-04-10T14:40:56.804Z</time></trkpt><trkpt lat="44.4961272" lon="4.8420372"><ele>393.5</ele><time>2026-04-10T14:40:57.805Z</time></trkpt><trkpt lat="44.4962046" lon="4.8418835"><ele>393.75</ele><time>2026-04-10T14:40:58.806Z</time></trkpt><trkpt lat="44.4962697" lon="4.8417397"><ele>394.0</ele><time>2026-04-10T14:40:59.803Z</time></trkpt><trkpt lat="44.496345" lon="4.8415912"><ele>393.25</ele><time>2026-04-10T14:41:00.815Z</time></trkpt><trkpt lat="44.496417" lon="4.8414537"><ele>392.5</ele><time>2026-04-10T14:41:01.81Z</time></trkpt><trkpt lat="44.4964851" lon="4.8413202"><ele>391.75</ele><time>2026-04-10T14:41:02.806Z</time></trkpt><trkpt lat="44.4965461" lon="4.8411951"><ele>391.0</ele><time>2026-04-10T14:41:03.806Z</time></trkpt><trkpt lat="44.4965902" lon="4.8410649"><ele>390.8</ele><time>2026-04-10T14:41:04.805Z</time></trkpt><trkpt lat="44.4966244" lon="4.8409357"><ele>390.6</ele><time>2026-04-10T14:41:05.802Z</time></trkpt><trkpt lat="44.4966546" lon="4.8408134"><ele>390.4</ele><time>2026-04-10T14:41:06.808Z</time></trkpt><trkpt lat="44.4966855" lon="4.8406748"><ele>390.2</ele><time>2026-04-10T14:41:07.813Z</time></trkpt><trkpt lat="44.4967267" lon="4.840521"><ele>390.0</ele><time>2026-04-10T14:41:08.809Z</time></trkpt><trkpt lat="44.4967614" lon="4.8403843"><ele>390.0</ele><time>2026-04-10T14:41:09.807Z</time></trkpt><trkpt lat="44.4968023" lon="4.8402642"><ele>390.0</ele><time>2026-04-10T14:41:10.809Z</time></trkpt><trkpt lat="44.4968434" lon="4.8401581"><ele>390.0</ele><time>2026-04-10T14:41:11.806Z</time></trkpt><trkpt lat="44.4968734" lon="4.8400408"><ele>390.0</ele><time>2026-04-10T14:41:12.811Z</time></trkpt><trkpt lat="44.4968868" lon="4.839917"><ele>390.0</ele><time>2026-04-10T14:41:13.826Z</time></trkpt><trkpt lat="44.4968967" lon="4.839796"><ele>390.0</ele><time>2026-04-10T14:41:14.818Z</time></trkpt><trkpt lat="44.4969184" lon="4.839686"><ele>390.25</ele><time>2026-04-10T14:41:15.812Z</time></trkpt><trkpt lat="44.4969441" lon="4.8395534"><ele>390.5</ele><time>2026-04-10T14:41:17.806Z</time></trkpt><trkpt lat="44.4968938" lon="4.8393833"><ele>390.75</ele><time>2026-04-10T14:41:19.805Z</time></trkpt><trkpt lat="44.4968537" lon="4.8392558"><ele>391.0</ele><time>2026-04-10T14:41:20.808Z</time></trkpt><trkpt lat="44.4968112" lon="4.8390952"><ele>390.25</ele><time>2026-04-10T14:41:21.811Z</time></trkpt><trkpt lat="44.4967728" lon="4.8389204"><ele>389.5</ele><time>2026-04-10T14:41:22.808Z</time></trkpt><trkpt lat="44.4967635" lon="4.8387263"><ele>388.75</ele><time>2026-04-10T14:41:23.809Z</time></trkpt><trkpt lat="44.4967615" lon="4.8385347"><ele>388.0</ele><time>2026-04-10T14:41:24.808Z</time></trkpt><trkpt lat="44.4967732" lon="4.8383528"><ele>386.75</ele><time>2026-04-10T14:41:25.804Z</time></trkpt><trkpt lat="44.4967866" lon="4.8381837"><ele>385.5</ele><time>2026-04-10T14:41:26.8Z</time></trkpt><trkpt lat="44.4967964" lon="4.8380245"><ele>384.25</ele><time>2026-04-10T14:41:27.804Z</time></trkpt><trkpt lat="44.4968103" lon="4.8378715"><ele>383.0</ele><time>2026-04-10T14:41:28.803Z</time></trkpt><trkpt lat="44.4968102" lon="4.8377247"><ele>382.59999999999997</ele><time>2026-04-10T14:41:29.803Z</time></trkpt><trkpt lat="44.4968092" lon="4.8375754"><ele>382.2</ele><time>2026-04-10T14:41:30.802Z</time></trkpt><trkpt lat="44.496826" lon="4.8374372"><ele>381.8</ele><time>2026-04-10T14:41:31.806Z</time></trkpt><trkpt lat="44.4968416" lon="4.8373074"><ele>381.4</ele><time>2026-04-10T14:41:32.807Z</time></trkpt><trkpt lat="44.4968639" lon="4.8371729"><ele>381.0</ele><time>2026-04-10T14:41:33.805Z</time></trkpt><trkpt lat="44.4968994" lon="4.8370523"><ele>381.0</ele><time>2026-04-10T14:41:34.805Z</time></trkpt><trkpt lat="44.4969355" lon="4.8369105"><ele>381.0</ele><time>2026-04-10T14:41:35.805Z</time></trkpt><trkpt lat="44.4969689" lon="4.836769"><ele>381.0</ele><time>2026-04-10T14:41:36.804Z</time></trkpt><trkpt lat="44.4970116" lon="4.8366383"><ele>381.0</ele><time>2026-04-10T14:41:37.806Z</time></trkpt><trkpt lat="44.4970515" lon="4.8365068"><ele>381.0</ele><time>2026-04-10T14:41:38.803Z</time></trkpt><trkpt lat="44.4970887" lon="4.8363805"><ele>376.8</ele><time>2026-04-10T14:41:39.806Z</time></trkpt><trkpt lat="44.4971425" lon="4.8362707"><ele>372.6</ele><time>2026-04-10T14:41:40.804Z</time></trkpt><trkpt lat="44.4972117" lon="4.8361783"><ele>368.4</ele><time>2026-04-10T14:41:41.812Z</time></trkpt><trkpt lat="44.497289" lon="4.8361198"><ele>364.2</ele><time>2026-04-10T14:41:42.813Z</time></trkpt><trkpt lat="44.4973705" lon="4.8360787"><ele>360.0</ele><time>2026-04-10T14:41:43.807Z</time></trkpt><trkpt lat="44.4974536" lon="4.8360259"><ele>361.2</ele><time>2026-04-10T14:41:44.804Z</time></trkpt><trkpt lat="44.4975268" lon="4.835955"><ele>362.4</ele><time>2026-04-10T14:41:45.805Z</time></trkpt><trkpt lat="44.4975993" lon="4.8358836"><ele>363.6</ele><time>2026-04-10T14:41:46.806Z</time></trkpt><trkpt lat="44.4976714" lon="4.8358017"><ele>364.8</ele><time>2026-04-10T14:41:47.803Z</time></trkpt><trkpt lat="44.4977403" lon="4.8357205"><ele>366.0</ele><time>2026-04-10T14:41:48.808Z</time></trkpt><trkpt lat="44.4978234" lon="4.8356359"><ele>366.0</ele><time>2026-04-10T14:41:49.806Z</time></trkpt><trkpt lat="44.4979169" lon="4.8355704"><ele>366.0</ele><time>2026-04-10T14:41:50.804Z</time></trkpt><trkpt lat="44.4980182" lon="4.8354927"><ele>366.0</ele><time>2026-04-10T14:41:51.805Z</time></trkpt><trkpt lat="44.4981206" lon="4.8354077"><ele>366.0</ele><time>2026-04-10T14:41:52.806Z</time></trkpt><trkpt lat="44.4982072" lon="4.8353356"><ele>366.0</ele><time>2026-04-10T14:41:53.807Z</time></trkpt><trkpt lat="44.4982565" lon="4.835245"><ele>364.8571428571429</ele><time>2026-04-10T14:41:54.806Z</time></trkpt><trkpt lat="44.4982869" lon="4.8351543"><ele>363.7142857142857</ele><time>2026-04-10T14:41:55.816Z</time></trkpt><trkpt lat="44.4983316" lon="4.8350494"><ele>362.57142857142856</ele><time>2026-04-10T14:41:57.807Z</time></trkpt><trkpt lat="44.4983979" lon="4.834994"><ele>361.42857142857144</ele><time>2026-04-10T14:42:02.806Z</time></trkpt><trkpt lat="44.4984223" lon="4.8349043"><ele>360.2857142857143</ele><time>2026-04-10T14:42:06.807Z</time></trkpt><trkpt lat="44.498357" lon="4.834914"><ele>359.14285714285717</ele><time>2026-04-10T14:42:09.813Z</time></trkpt><trkpt lat="44.4983193" lon="4.835003"><ele>358.0</ele><time>2026-04-10T14:42:10.813Z</time></trkpt><trkpt lat="44.4982826" lon="4.8350934"><ele>355.66666666666663</ele><time>2026-04-10T14:42:11.818Z</time></trkpt><trkpt lat="44.4982419" lon="4.8351794"><ele>353.3333333333333</ele><time>2026-04-10T14:42:12.819Z</time></trkpt><trkpt lat="44.4982026" lon="4.8352595"><ele>351.0</ele><time>2026-04-10T14:42:13.812Z</time></trkpt><trkpt lat="44.4981596" lon="4.8353351"><ele>348.6666666666667</ele><time>2026-04-10T14:42:14.807Z</time></trkpt><trkpt lat="44.4980919" lon="4.8354118"><ele>346.33333333333337</ele><time>2026-04-10T14:42:15.806Z</time></trkpt><trkpt lat="44.4980157" lon="4.8354752"><ele>344.0</ele><time>2026-04-10T14:42:16.805Z</time></trkpt><trkpt lat="44.4979442" lon="4.8355354"><ele>347.6666666666667</ele><time>2026-04-10T14:42:17.807Z</time></trkpt><trkpt lat="44.4978699" lon="4.8355978"><ele>351.33333333333337</ele><time>2026-04-10T14:42:18.805Z</time></trkpt><trkpt lat="44.4977836" lon="4.835649"><ele>355.0</ele><time>2026-04-10T14:42:19.816Z</time></trkpt><trkpt lat="44.4977098" lon="4.8357077"><ele>358.6666666666667</ele><time>2026-04-10T14:42:20.809Z</time></trkpt><trkpt lat="44.4976486" lon="4.8357761"><ele>362.3333333333333</ele><time>2026-04-10T14:42:21.809Z</time></trkpt><trkpt lat="44.4975954" lon="4.8358526"><ele>366.0</ele><time>2026-04-10T14:42:22.806Z</time></trkpt><trkpt lat="44.497542" lon="4.8359352"><ele>366.0</ele><time>2026-04-10T14:42:24.806Z</time></trkpt><trkpt lat="44.4974773" lon="4.8359184"><ele>366.0</ele><time>2026-04-10T14:42:27.806Z</time></trkpt><trkpt lat="44.4974775" lon="4.8358272"><ele>366.0</ele><time>2026-04-10T14:42:29.81Z</time></trkpt><trkpt lat="44.4974798" lon="4.8357243"><ele>366.0</ele><time>2026-04-10T14:42:31.807Z</time></trkpt><trkpt lat="44.4974927" lon="4.8355736"><ele>366.0</ele><time>2026-04-10T14:42:33.809Z</time></trkpt><trkpt lat="44.4975169" lon="4.8354133"><ele>366.0</ele><time>2026-04-10T14:42:35.808Z</time></trkpt><trkpt lat="44.4975258" lon="4.8353154"><ele>366.0</ele><time>2026-04-10T14:42:36.806Z</time></trkpt><trkpt lat="44.4975464" lon="4.8352244"><ele>366.0</ele><time>2026-04-10T14:42:37.804Z</time></trkpt><trkpt lat="44.4976018" lon="4.8351467"><ele>366.0</ele><time>2026-04-10T14:42:38.812Z</time></trkpt><trkpt lat="44.4976546" lon="4.8350648"><ele>366.0</ele><time>2026-04-10T14:42:39.807Z</time></trkpt><trkpt lat="44.4976934" lon="4.8349827"><ele>366.0</ele><time>2026-04-10T14:42:40.806Z</time></trkpt><trkpt lat="44.497734" lon="4.8348955"><ele>366.0</ele><time>2026-04-10T14:42:41.805Z</time></trkpt><trkpt lat="44.4977657" lon="4.8348127"><ele>366.0</ele><time>2026-04-10T14:42:42.81Z</time></trkpt><trkpt lat="44.4977858" lon="4.8347246"><ele>368.1666666666667</ele><time>2026-04-10T14:42:43.805Z</time></trkpt><trkpt lat="44.4977884" lon="4.8346241"><ele>370.3333333333333</ele><time>2026-04-10T14:42:44.809Z</time></trkpt><trkpt lat="44.4977827" lon="4.8345214"><ele>372.5</ele><time>2026-04-10T14:42:45.805Z</time></trkpt><trkpt lat="44.4977757" lon="4.834409"><ele>374.66666666666663</ele><time>2026-04-10T14:42:46.803Z</time></trkpt><trkpt lat="44.4977747" lon="4.8342953"><ele>376.8333333333333</ele><time>2026-04-10T14:42:47.809Z</time></trkpt><trkpt lat="44.4977965" lon="4.8341926"><ele>379.0</ele><time>2026-04-10T14:42:48.807Z</time></trkpt><trkpt lat="44.4978289" lon="4.8340959"><ele>380.3333333333333</ele><time>2026-04-10T14:42:49.811Z</time></trkpt><trkpt lat="44.4978777" lon="4.8340105"><ele>381.66666666666663</ele><time>2026-04-10T14:42:50.807Z</time></trkpt><trkpt lat="44.4979264" lon="4.8339212"><ele>383.0</ele><time>2026-04-10T14:42:51.808Z</time></trkpt><trkpt lat="44.4979684" lon="4.8338169"><ele>384.3333333333333</ele><time>2026-04-10T14:42:52.813Z</time></trkpt><trkpt lat="44.498008" lon="4.8337115"><ele>385.6666666666667</ele><time>2026-04-10T14:42:53.807Z</time></trkpt><trkpt lat="44.4980421" lon="4.8336149"><ele>387.0</ele><time>2026-04-10T14:42:54.804Z</time></trkpt><trkpt lat="44.4980801" lon="4.8335185"><ele>384.6666666666667</ele><time>2026-04-10T14:42:55.819Z</time></trkpt><trkpt lat="44.4981159" lon="4.8334207"><ele>382.3333333333333</ele><time>2026-04-10T14:42:56.807Z</time></trkpt><trkpt lat="44.4981472" lon="4.8333071"><ele>380.0</ele><time>2026-04-10T14:42:57.813Z</time></trkpt><trkpt lat="44.4981831" lon="4.8332091"><ele>377.66666666666663</ele><time>2026-04-10T14:42:58.808Z</time></trkpt><trkpt lat="44.4982123" lon="4.8330994"><ele>375.3333333333333</ele><time>2026-04-10T14:42:59.81Z</time></trkpt><trkpt lat="44.4982477" lon="4.8329877"><ele>373.0</ele><time>2026-04-10T14:43:00.811Z</time></trkpt><trkpt lat="44.498282" lon="4.8328751"><ele>373.0</ele><time>2026-04-10T14:43:01.808Z</time></trkpt><trkpt lat="44.4983032" lon="4.8327766"><ele>373.0</ele><time>2026-04-10T14:43:02.804Z</time></trkpt><trkpt lat="44.4983138" lon="4.8326759"><ele>373.0</ele><time>2026-04-10T14:43:03.807Z</time></trkpt><trkpt lat="44.4983343" lon="4.8325914"><ele>373.0</ele><time>2026-04-10T14:43:04.807Z</time></trkpt><trkpt lat="44.498372" lon="4.8325122"><ele>373.0</ele><time>2026-04-10T14:43:05.803Z</time></trkpt><trkpt lat="44.4984247" lon="4.8324277"><ele>373.0</ele><time>2026-04-10T14:43:06.808Z</time></trkpt><trkpt lat="44.4984758" lon="4.8323411"><ele>373.0</ele><time>2026-04-10T14:43:07.807Z</time></trkpt><trkpt lat="44.4985192" lon="4.832241"><ele>374.66666666666663</ele><time>2026-04-10T14:43:08.81Z</time></trkpt><trkpt lat="44.4985654" lon="4.8321298"><ele>376.3333333333333</ele><time>2026-04-10T14:43:09.806Z</time></trkpt><trkpt lat="44.4986042" lon="4.8320086"><ele>378.0</ele><time>2026-04-10T14:43:10.806Z</time></trkpt><trkpt lat="44.4986227" lon="4.8319011"><ele>379.6666666666667</ele><time>2026-04-10T14:43:11.811Z</time></trkpt><trkpt lat="44.4986408" lon="4.8318007"><ele>381.33333333333337</ele><time>2026-04-10T14:43:12.809Z</time></trkpt><trkpt lat="44.4986717" lon="4.8316914"><ele>383.0</ele><time>2026-04-10T14:43:13.807Z</time></trkpt><trkpt lat="44.4986898" lon="4.8315956"><ele>384.6666666666667</ele><time>2026-04-10T14:43:14.81Z</time></trkpt><trkpt lat="44.4987114" lon="4.8314997"><ele>386.33333333333337</ele><time>2026-04-10T14:43:15.81Z</time></trkpt><trkpt lat="44.4987449" lon="4.8313891"><ele>388.0</ele><time>2026-04-10T14:43:16.809Z</time></trkpt><trkpt lat="44.4987803" lon="4.8312892"><ele>389.6666666666667</ele><time>2026-04-10T14:43:17.81Z</time></trkpt><trkpt lat="44.4988236" lon="4.8312025"><ele>391.3333333333333</ele><time>2026-04-10T14:43:18.803Z</time></trkpt><trkpt lat="44.4988802" lon="4.8311153"><ele>393.0</ele><time>2026-04-10T14:43:19.807Z</time></trkpt><trkpt lat="44.4989385" lon="4.8310387"><ele>391.3333333333333</ele><time>2026-04-10T14:43:20.807Z</time></trkpt><trkpt lat="44.4990062" lon="4.8309554"><ele>389.6666666666667</ele><time>2026-04-10T14:43:21.814Z</time></trkpt><trkpt lat="44.4990638" lon="4.830862"><ele>388.0</ele><time>2026-04-10T14:43:22.806Z</time></trkpt><trkpt lat="44.4991107" lon="4.8307817"><ele>386.33333333333337</ele><time>2026-04-10T14:43:23.809Z</time></trkpt><trkpt lat="44.4991544" lon="4.8307022"><ele>384.6666666666667</ele><time>2026-04-10T14:43:24.817Z</time></trkpt><trkpt lat="44.4991942" lon="4.8306119"><ele>383.0</ele><time>2026-04-10T14:43:25.806Z</time></trkpt><trkpt lat="44.4992367" lon="4.8305094"><ele>383.0</ele><time>2026-04-10T14:43:26.81Z</time></trkpt><trkpt lat="44.4992619" lon="4.8304231"><ele>383.0</ele><time>2026-04-10T14:43:27.806Z</time></trkpt><trkpt lat="44.4992843" lon="4.8303107"><ele>383.0</ele><time>2026-04-10T14:43:29.811Z</time></trkpt><trkpt lat="44.4993282" lon="4.8301731"><ele>383.0</ele><time>2026-04-10T14:43:31.823Z</time></trkpt><trkpt lat="44.4993413" lon="4.83007"><ele>383.0</ele><time>2026-04-10T14:43:32.812Z</time></trkpt><trkpt lat="44.4993543" lon="4.8299836"><ele>383.0</ele><time>2026-04-10T14:43:33.808Z</time></trkpt><trkpt lat="44.4993867" lon="4.8298355"><ele>384.83333333333337</ele><time>2026-04-10T14:43:35.813Z</time></trkpt><trkpt lat="44.4994202" lon="4.8297148"><ele>386.6666666666667</ele><time>2026-04-10T14:43:37.812Z</time></trkpt><trkpt lat="44.4994481" lon="4.8296332"><ele>388.5</ele><time>2026-04-10T14:43:38.811Z</time></trkpt><trkpt lat="44.4994444" lon="4.8295087"><ele>390.33333333333337</ele><time>2026-04-10T14:43:40.804Z</time></trkpt><trkpt lat="44.4994475" lon="4.8294173"><ele>392.1666666666667</ele><time>2026-04-10T14:43:43.804Z</time></trkpt><trkpt lat="44.4994963" lon="4.8292879"><ele>394.0</ele><time>2026-04-10T14:44:13.801Z</time></trkpt><trkpt lat="44.4995005" lon="4.8291226"><ele>395.4</ele><time>2026-04-10T14:44:15.808Z</time></trkpt><trkpt lat="44.4994826" lon="4.8289659"><ele>396.79999999999995</ele><time>2026-04-10T14:44:17.803Z</time></trkpt><trkpt lat="44.4994631" lon="4.8288765"><ele>398.20000000000005</ele><time>2026-04-10T14:44:18.804Z</time></trkpt><trkpt lat="44.4994256" lon="4.8287344"><ele>399.6</ele><time>2026-04-10T14:44:20.805Z</time></trkpt><trkpt lat="44.4993743" lon="4.8285844"><ele>401.0</ele><time>2026-04-10T14:44:22.806Z</time></trkpt><trkpt lat="44.4993337" lon="4.8284951"><ele>401.8</ele><time>2026-04-10T14:44:23.803Z</time></trkpt><trkpt lat="44.4993067" lon="4.8284027"><ele>402.6</ele><time>2026-04-10T14:44:24.807Z</time></trkpt><trkpt lat="44.4992813" lon="4.828245"><ele>403.4</ele><time>2026-04-10T14:44:26.806Z</time></trkpt><trkpt lat="44.4992955" lon="4.8280931"><ele>404.2</ele><time>2026-04-10T14:44:27.803Z</time></trkpt><trkpt lat="44.4992862" lon="4.8279739"><ele>405.0</ele><time>2026-04-10T14:44:28.802Z</time></trkpt><trkpt lat="44.4992772" lon="4.8278592"><ele>405.0</ele><time>2026-04-10T14:44:29.811Z</time></trkpt><trkpt lat="44.4993009" lon="4.8277318"><ele>405.0</ele><time>2026-04-10T14:44:30.806Z</time></trkpt><trkpt lat="44.4993541" lon="4.8276235"><ele>405.0</ele><time>2026-04-10T14:44:31.805Z</time></trkpt><trkpt lat="44.4993839" lon="4.8275117"><ele>405.0</ele><time>2026-04-10T14:44:32.804Z</time></trkpt><trkpt lat="44.4994102" lon="4.8273876"><ele>405.0</ele><time>2026-04-10T14:44:34.804Z</time></trkpt><trkpt lat="44.4994236" lon="4.8272896"><ele>405.0</ele><time>2026-04-10T14:44:35.827Z</time></trkpt><trkpt lat="44.4994338" lon="4.8271488"><ele>406.2</ele><time>2026-04-10T14:44:36.807Z</time></trkpt><trkpt lat="44.4994385" lon="4.8270402"><ele>407.4</ele><time>2026-04-10T14:44:37.804Z</time></trkpt><trkpt lat="44.4994658" lon="4.8269185"><ele>408.6</ele><time>2026-04-10T14:44:38.801Z</time></trkpt><trkpt lat="44.4995019" lon="4.8268208"><ele>409.8</ele><time>2026-04-10T14:44:39.801Z</time></trkpt><trkpt lat="44.4995738" lon="4.8266026"><ele>411.0</ele><time>2026-04-10T14:44:41.804Z</time></trkpt><trkpt lat="44.4995958" lon="4.8264994"><ele>411.6</ele><time>2026-04-10T14:44:42.803Z</time></trkpt><trkpt lat="44.4996052" lon="4.8263246"><ele>412.20000000000005</ele><time>2026-04-10T14:44:44.801Z</time></trkpt><trkpt lat="44.4995975" lon="4.8262233"><ele>412.79999999999995</ele><time>2026-04-10T14:44:45.803Z</time></trkpt><trkpt lat="44.4995797" lon="4.8261378"><ele>413.4</ele><time>2026-04-10T14:44:46.805Z</time></trkpt><trkpt lat="44.49957" lon="4.8260486"><ele>414.0</ele><time>2026-04-10T14:44:47.803Z</time></trkpt><trkpt lat="44.4995737" lon="4.8258678"><ele>410.0</ele><time>2026-04-10T14:44:49.805Z</time></trkpt><trkpt lat="44.4995925" lon="4.8257752"><ele>406.0</ele><time>2026-04-10T14:44:50.804Z</time></trkpt><trkpt lat="44.49963" lon="4.8256145"><ele>402.0</ele><time>2026-04-10T14:44:52.807Z</time></trkpt><trkpt lat="44.4996511" lon="4.8255242"><ele>398.0</ele><time>2026-04-10T14:44:53.804Z</time></trkpt><trkpt lat="44.4996832" lon="4.8254377"><ele>394.0</ele><time>2026-04-10T14:44:54.805Z</time></trkpt><trkpt lat="44.4997162" lon="4.8253616"><ele>390.0</ele><time>2026-04-10T14:44:55.806Z</time></trkpt><trkpt lat="44.4997791" lon="4.8252648"><ele>389.0</ele><time>2026-04-10T14:44:57.808Z</time></trkpt><trkpt lat="44.4997842" lon="4.8251426"><ele>388.0</ele><time>2026-04-10T14:44:59.802Z</time></trkpt><trkpt lat="44.4997444" lon="4.8250612"><ele>387.0</ele><time>2026-04-10T14:45:00.806Z</time></trkpt><trkpt lat="44.4997069" lon="4.8249812"><ele>386.0</ele><time>2026-04-10T14:45:01.804Z</time></trkpt><trkpt lat="44.499671" lon="4.8248227"><ele>385.0</ele><time>2026-04-10T14:45:03.806Z</time></trkpt><trkpt lat="44.4996397" lon="4.8246048"><ele>385.0</ele><time>2026-04-10T14:45:06.808Z</time></trkpt><trkpt lat="44.4995855" lon="4.8244531"><ele>385.0</ele><time>2026-04-10T14:45:08.808Z</time></trkpt><trkpt lat="44.4995111" lon="4.8243399"><ele>385.0</ele><time>2026-04-10T14:45:10.806Z</time></trkpt><trkpt lat="44.4994591" lon="4.8242058"><ele>385.0</ele><time>2026-04-10T14:45:12.814Z</time></trkpt><trkpt lat="44.4994017" lon="4.8240817"><ele>385.0</ele><time>2026-04-10T14:45:14.814Z</time></trkpt><trkpt lat="44.4993656" lon="4.824003"><ele>386.0</ele><time>2026-04-10T14:45:15.807Z</time></trkpt><trkpt lat="44.4993552" lon="4.8238675"><ele>387.0</ele><time>2026-04-10T14:45:17.816Z</time></trkpt><trkpt lat="44.4993005" lon="4.8237405"><ele>388.0</ele><time>2026-04-10T14:45:19.807Z</time></trkpt><trkpt lat="44.4992446" lon="4.8236279"><ele>389.0</ele><time>2026-04-10T14:45:21.804Z</time></trkpt><trkpt lat="44.4991943" lon="4.8235295"><ele>390.0</ele><time>2026-04-10T14:45:23.805Z</time></trkpt><trkpt lat="44.4991386" lon="4.8233987"><ele>386.2</ele><time>2026-04-10T14:45:26.806Z</time></trkpt><trkpt lat="44.4990624" lon="4.8233487"><ele>382.4</ele><time>2026-04-10T14:45:27.803Z</time></trkpt><trkpt lat="44.4989858" lon="4.8233018"><ele>378.6</ele><time>2026-04-10T14:45:29.803Z</time></trkpt><trkpt lat="44.4989233" lon="4.8232674"><ele>374.8</ele><time>2026-04-10T14:45:31.804Z</time></trkpt><trkpt lat="44.4990032" lon="4.8231842"><ele>371.0</ele><time>2026-04-10T14:45:35.802Z</time></trkpt><trkpt lat="44.4991388" lon="4.8231296"><ele>371.0</ele><time>2026-04-10T14:45:37.805Z</time></trkpt><trkpt lat="44.4992257" lon="4.8231208"><ele>371.0</ele><time>2026-04-10T14:45:38.802Z</time></trkpt><trkpt lat="44.499311" lon="4.8230839"><ele>371.0</ele><time>2026-04-10T14:45:39.803Z</time></trkpt><trkpt lat="44.4993866" lon="4.8230678"><ele>371.0</ele><time>2026-04-10T14:45:40.808Z</time></trkpt><trkpt lat="44.4994704" lon="4.8230516"><ele>371.0</ele><time>2026-04-10T14:45:41.813Z</time></trkpt><trkpt lat="44.4995712" lon="4.8230184"><ele>371.0</ele><time>2026-04-10T14:45:42.805Z</time></trkpt><trkpt lat="44.4996566" lon="4.8229846"><ele>369.4</ele><time>2026-04-10T14:45:43.803Z</time></trkpt><trkpt lat="44.4997355" lon="4.8229295"><ele>367.8</ele><time>2026-04-10T14:45:44.804Z</time></trkpt><trkpt lat="44.4998199" lon="4.8228381"><ele>366.2</ele><time>2026-04-10T14:45:45.806Z</time></trkpt><trkpt lat="44.4998954" lon="4.8227686"><ele>364.59999999999997</ele><time>2026-04-10T14:45:46.809Z</time></trkpt><trkpt lat="44.4999802" lon="4.8226962"><ele>363.0</ele><time>2026-04-10T14:45:47.805Z</time></trkpt><trkpt lat="44.5000567" lon="4.8226287"><ele>362.1666666666667</ele><time>2026-04-10T14:45:48.804Z</time></trkpt><trkpt lat="44.5001144" lon="4.8225719"><ele>361.3333333333333</ele><time>2026-04-10T14:45:49.807Z</time></trkpt><trkpt lat="44.5001737" lon="4.8225072"><ele>360.5</ele><time>2026-04-10T14:45:50.809Z</time></trkpt><trkpt lat="44.5002302" lon="4.8224302"><ele>359.66666666666663</ele><time>2026-04-10T14:45:52.809Z</time></trkpt><trkpt lat="44.500293" lon="4.8223726"><ele>358.8333333333333</ele><time>2026-04-10T14:45:55.808Z</time></trkpt><trkpt lat="44.5003421" lon="4.8222875"><ele>358.0</ele><time>2026-04-10T14:49:34.799Z</time></trkpt><trkpt lat="44.5004024" lon="4.8221972"><ele>357.25</ele><time>2026-04-10T14:51:06.805Z</time></trkpt><trkpt lat="44.5004702" lon="4.8220457"><ele>356.5</ele><time>2026-04-10T14:51:08.804Z</time></trkpt><trkpt lat="44.5005126" lon="4.8218744"><ele>355.75</ele><time>2026-04-10T14:51:10.8Z</time></trkpt><trkpt lat="44.5005182" lon="4.8217507"><ele>355.0</ele><time>2026-04-10T14:51:11.807Z</time></trkpt><trkpt lat="44.5005355" lon="4.8215692"><ele>355.0</ele><time>2026-04-10T14:51:13.804Z</time></trkpt><trkpt lat="44.5005297" lon="4.8214762"><ele>355.0</ele><time>2026-04-10T14:51:14.805Z</time></trkpt><trkpt lat="44.5005128" lon="4.8213302"><ele>355.0</ele><time>2026-04-10T14:51:16.824Z</time></trkpt><trkpt lat="44.5004834" lon="4.8211991"><ele>355.0</ele><time>2026-04-10T14:51:18.807Z</time></trkpt><trkpt lat="44.5004913" lon="4.8210792"><ele>355.0</ele><time>2026-04-10T14:51:20.805Z</time></trkpt><trkpt lat="44.5005715" lon="4.8209624"><ele>353.6</ele><time>2026-04-10T14:51:22.81Z</time></trkpt><trkpt lat="44.5006316" lon="4.8209025"><ele>352.2</ele><time>2026-04-10T14:51:23.807Z</time></trkpt><trkpt lat="44.5007049" lon="4.8208395"><ele>350.79999999999995</ele><time>2026-04-10T14:51:24.806Z</time></trkpt><trkpt lat="44.5007916" lon="4.8207684"><ele>349.4</ele><time>2026-04-10T14:51:25.804Z</time></trkpt><trkpt lat="44.5008805" lon="4.8206908"><ele>348.0</ele><time>2026-04-10T14:51:26.806Z</time></trkpt><trkpt lat="44.5009701" lon="4.8206249"><ele>348.0</ele><time>2026-04-10T14:51:27.805Z</time></trkpt><trkpt lat="44.5010623" lon="4.8205616"><ele>348.0</ele><time>2026-04-10T14:51:28.8Z</time></trkpt><trkpt lat="44.5011411" lon="4.8204848"><ele>348.0</ele><time>2026-04-10T14:51:29.805Z</time></trkpt><trkpt lat="44.5012196" lon="4.8204197"><ele>348.0</ele><time>2026-04-10T14:51:30.803Z</time></trkpt><trkpt lat="44.5013028" lon="4.8203521"><ele>348.0</ele><time>2026-04-10T14:51:31.806Z</time></trkpt><trkpt lat="44.5013883" lon="4.8202872"><ele>349.3333333333333</ele><time>2026-04-10T14:51:32.801Z</time></trkpt><trkpt lat="44.5014583" lon="4.8202027"><ele>350.6666666666667</ele><time>2026-04-10T14:51:33.801Z</time></trkpt><trkpt lat="44.5015196" lon="4.8201132"><ele>352.0</ele><time>2026-04-10T14:51:34.803Z</time></trkpt><trkpt lat="44.5015766" lon="4.8200199"><ele>353.33333333333337</ele><time>2026-04-10T14:51:35.802Z</time></trkpt><trkpt lat="44.5016245" lon="4.8199179"><ele>354.6666666666667</ele><time>2026-04-10T14:51:36.8Z</time></trkpt><trkpt lat="44.5016593" lon="4.8198026"><ele>356.0</ele><time>2026-04-10T14:51:37.802Z</time></trkpt><trkpt lat="44.501686" lon="4.8196733"><ele>352.4</ele><time>2026-04-10T14:51:38.81Z</time></trkpt><trkpt lat="44.5017033" lon="4.8195391"><ele>348.8</ele><time>2026-04-10T14:51:39.805Z</time></trkpt><trkpt lat="44.5017334" lon="4.8194055"><ele>345.2</ele><time>2026-04-10T14:51:40.805Z</time></trkpt><trkpt lat="44.5017566" lon="4.8192812"><ele>341.59999999999997</ele><time>2026-04-10T14:51:41.81Z</time></trkpt><trkpt lat="44.5017783" lon="4.8191523"><ele>338.0</ele><time>2026-04-10T14:51:42.816Z</time></trkpt><trkpt lat="44.5017926" lon="4.8190328"><ele>336.1666666666667</ele><time>2026-04-10T14:51:43.803Z</time></trkpt><trkpt lat="44.5018086" lon="4.8189153"><ele>334.33333333333337</ele><time>2026-04-10T14:51:44.804Z</time></trkpt><trkpt lat="44.5018163" lon="4.8188127"><ele>332.5</ele><time>2026-04-10T14:51:45.808Z</time></trkpt><trkpt lat="44.5018039" lon="4.8187002"><ele>330.6666666666667</ele><time>2026-04-10T14:51:47.806Z</time></trkpt><trkpt lat="44.5018293" lon="4.8186156"><ele>328.8333333333333</ele><time>2026-04-10T14:51:49.81Z</time></trkpt><trkpt lat="44.501878" lon="4.8185532"><ele>327.0</ele><time>2026-04-10T14:51:51.806Z</time></trkpt><trkpt lat="44.5019955" lon="4.8185188"><ele>327.0</ele><time>2026-04-10T14:51:53.835Z</time></trkpt><trkpt lat="44.502063" lon="4.8185"><ele>327.0</ele><time>2026-04-10T14:51:54.803Z</time></trkpt><trkpt lat="44.5021286" lon="4.8184729"><ele>327.0</ele><time>2026-04-10T14:51:55.805Z</time></trkpt><trkpt lat="44.5022371" lon="4.8184045"><ele>327.0</ele><time>2026-04-10T14:51:57.806Z</time></trkpt><trkpt lat="44.502275" lon="4.8182853"><ele>327.0</ele><time>2026-04-10T14:51:59.803Z</time></trkpt><trkpt lat="44.5022531" lon="4.8181509"><ele>327.0</ele><time>2026-04-10T14:52:01.806Z</time></trkpt><trkpt lat="44.5021817" lon="4.8180412"><ele>326.0</ele><time>2026-04-10T14:52:03.805Z</time></trkpt><trkpt lat="44.5021371" lon="4.8179658"><ele>325.0</ele><time>2026-04-10T14:52:04.804Z</time></trkpt><trkpt lat="44.5020756" lon="4.8178768"><ele>324.0</ele><time>2026-04-10T14:52:05.803Z</time></trkpt><trkpt lat="44.5020161" lon="4.8177958"><ele>323.0</ele><time>2026-04-10T14:52:06.804Z</time></trkpt><trkpt lat="44.5019432" lon="4.8177308"><ele>322.0</ele><time>2026-04-10T14:52:07.805Z</time></trkpt><trkpt lat="44.50187" lon="4.8176609"><ele>321.0</ele><time>2026-04-10T14:52:08.804Z</time></trkpt><trkpt lat="44.5017961" lon="4.8175963"><ele>319.1666666666667</ele><time>2026-04-10T14:52:09.805Z</time></trkpt><trkpt lat="44.5017317" lon="4.8175202"><ele>317.3333333333333</ele><time>2026-04-10T14:52:10.802Z</time></trkpt><trkpt lat="44.5016799" lon="4.8174455"><ele>315.5</ele><time>2026-04-10T14:52:11.802Z</time></trkpt><trkpt lat="44.5016385" lon="4.817372"><ele>313.66666666666663</ele><time>2026-04-10T14:52:12.804Z</time></trkpt><trkpt lat="44.5016099" lon="4.8172173"><ele>311.8333333333333</ele><time>2026-04-10T14:52:14.811Z</time></trkpt><trkpt lat="44.5016187" lon="4.8171255"><ele>310.0</ele><time>2026-04-10T14:52:15.803Z</time></trkpt><trkpt lat="44.5016362" lon="4.8170225"><ele>310.0</ele><time>2026-04-10T14:52:16.805Z</time></trkpt><trkpt lat="44.5016439" lon="4.8169216"><ele>310.0</ele><time>2026-04-10T14:52:17.811Z</time></trkpt><trkpt lat="44.5016454" lon="4.8168196"><ele>310.0</ele><time>2026-04-10T14:52:18.805Z</time></trkpt><trkpt lat="44.5016396" lon="4.8167254"><ele>310.0</ele><time>2026-04-10T14:52:19.803Z</time></trkpt><trkpt lat="44.5016297" lon="4.8165969"><ele>310.0</ele><time>2026-04-10T14:52:21.803Z</time></trkpt><trkpt lat="44.5016369" lon="4.8164703"><ele>310.0</ele><time>2026-04-10T14:52:23.801Z</time></trkpt><trkpt lat="44.5016251" lon="4.8163818"><ele>309.6</ele><time>2026-04-10T14:52:24.804Z</time></trkpt><trkpt lat="44.5016" lon="4.8162771"><ele>309.2</ele><time>2026-04-10T14:52:25.806Z</time></trkpt><trkpt lat="44.5015372" lon="4.8161454"><ele>308.8</ele><time>2026-04-10T14:52:26.809Z</time></trkpt><trkpt lat="44.5014617" lon="4.8160217"><ele>308.4</ele><time>2026-04-10T14:52:27.804Z</time></trkpt><trkpt lat="44.5013963" lon="4.8159081"><ele>308.0</ele><time>2026-04-10T14:52:28.807Z</time></trkpt><trkpt lat="44.5013553" lon="4.8157834"><ele>308.0</ele><time>2026-04-10T14:52:29.804Z</time></trkpt><trkpt lat="44.5013222" lon="4.8156734"><ele>308.0</ele><time>2026-04-10T14:52:30.8Z</time></trkpt><trkpt lat="44.5012905" lon="4.8155788"><ele>308.0</ele><time>2026-04-10T14:52:31.801Z</time></trkpt><trkpt lat="44.501265" lon="4.8154915"><ele>308.0</ele><time>2026-04-10T14:52:32.803Z</time></trkpt><trkpt lat="44.5012409" lon="4.8154022"><ele>308.0</ele><time>2026-04-10T14:52:33.805Z</time></trkpt><trkpt lat="44.5011882" lon="4.8152283"><ele>308.0</ele><time>2026-04-10T14:52:35.805Z</time></trkpt><trkpt lat="44.5011465" lon="4.8151382"><ele>307.4</ele><time>2026-04-10T14:52:36.807Z</time></trkpt><trkpt lat="44.5011037" lon="4.8149975"><ele>306.8</ele><time>2026-04-10T14:52:38.801Z</time></trkpt><trkpt lat="44.5011054" lon="4.8148376"><ele>306.2</ele><time>2026-04-10T14:52:40.801Z</time></trkpt><trkpt lat="44.5011163" lon="4.8146838"><ele>305.6</ele><time>2026-04-10T14:52:42.804Z</time></trkpt><trkpt lat="44.5011014" lon="4.8145915"><ele>305.0</ele><time>2026-04-10T14:52:43.805Z</time></trkpt><trkpt lat="44.50106" lon="4.8144237"><ele>304.6</ele><time>2026-04-10T14:52:45.802Z</time></trkpt><trkpt lat="44.5010644" lon="4.8143001"><ele>304.2</ele><time>2026-04-10T14:52:46.8Z</time></trkpt><trkpt lat="44.5010564" lon="4.814186"><ele>303.8</ele><time>2026-04-10T14:52:47.804Z</time></trkpt><trkpt lat="44.5010373" lon="4.8140468"><ele>303.4</ele><time>2026-04-10T14:52:48.801Z</time></trkpt><trkpt lat="44.5010514" lon="4.8139189"><ele>303.0</ele><time>2026-04-10T14:52:49.804Z</time></trkpt><trkpt lat="44.5010635" lon="4.8137954"><ele>303.0</ele><time>2026-04-10T14:52:50.802Z</time></trkpt><trkpt lat="44.5010762" lon="4.8136957"><ele>303.0</ele><time>2026-04-10T14:52:51.801Z</time></trkpt><trkpt lat="44.5010598" lon="4.8135534"><ele>303.0</ele><time>2026-04-10T14:52:52.8Z</time></trkpt><trkpt lat="44.5010549" lon="4.8134097"><ele>303.0</ele><time>2026-04-10T14:52:53.8Z</time></trkpt><trkpt lat="44.5010682" lon="4.8132802"><ele>303.0</ele><time>2026-04-10T14:52:54.8Z</time></trkpt><trkpt lat="44.5010901" lon="4.8131664"><ele>301.6</ele><time>2026-04-10T14:52:55.802Z</time></trkpt><trkpt lat="44.5010912" lon="4.8130113"><ele>300.20000000000005</ele><time>2026-04-10T14:52:57.802Z</time></trkpt><trkpt lat="44.5010716" lon="4.812841"><ele>298.8</ele><time>2026-04-10T14:52:59.802Z</time></trkpt><trkpt lat="44.5010468" lon="4.8127004"><ele>297.40000000000003</ele><time>2026-04-10T14:53:00.802Z</time></trkpt><trkpt lat="44.5010198" lon="4.812558"><ele>296.0</ele><time>2026-04-10T14:53:01.803Z</time></trkpt><trkpt lat="44.5009972" lon="4.8124242"><ele>295.75</ele><time>2026-04-10T14:53:02.802Z</time></trkpt><trkpt lat="44.5009594" lon="4.812293"><ele>295.5</ele><time>2026-04-10T14:53:03.799Z</time></trkpt><trkpt lat="44.5009015" lon="4.8121391"><ele>295.25</ele><time>2026-04-10T14:53:04.799Z</time></trkpt><trkpt lat="44.5008446" lon="4.8120081"><ele>295.0</ele><time>2026-04-10T14:53:05.806Z</time></trkpt><trkpt lat="44.5007905" lon="4.8118638"><ele>295.75</ele><time>2026-04-10T14:53:06.802Z</time></trkpt><trkpt lat="44.5007366" lon="4.8116983"><ele>296.5</ele><time>2026-04-10T14:53:07.804Z</time></trkpt><trkpt lat="44.5006812" lon="4.8115318"><ele>297.25</ele><time>2026-04-10T14:53:08.801Z</time></trkpt><trkpt lat="44.5006154" lon="4.8113629"><ele>298.0</ele><time>2026-04-10T14:53:09.804Z</time></trkpt><trkpt lat="44.5005589" lon="4.8112013"><ele>298.0</ele><time>2026-04-10T14:53:10.801Z</time></trkpt><trkpt lat="44.5005011" lon="4.8110504"><ele>298.0</ele><time>2026-04-10T14:53:11.797Z</time></trkpt><trkpt lat="44.5004498" lon="4.8108992"><ele>298.0</ele><time>2026-04-10T14:53:12.8Z</time></trkpt><trkpt lat="44.5003945" lon="4.8107456"><ele>298.0</ele><time>2026-04-10T14:53:13.798Z</time></trkpt><trkpt lat="44.5003437" lon="4.8106109"><ele>297.4</ele><time>2026-04-10T14:53:14.8Z</time></trkpt><trkpt lat="44.5002874" lon="4.8104836"><ele>296.8</ele><time>2026-04-10T14:53:15.8Z</time></trkpt><trkpt lat="44.500253" lon="4.8103671"><ele>296.2</ele><time>2026-04-10T14:53:16.799Z</time></trkpt><trkpt lat="44.500221" lon="4.8102422"><ele>295.6</ele><time>2026-04-10T14:53:17.8Z</time></trkpt><trkpt lat="44.5001952" lon="4.8101018"><ele>295.0</ele><time>2026-04-10T14:53:18.8Z</time></trkpt><trkpt lat="44.5001679" lon="4.8099666"><ele>294.6</ele><time>2026-04-10T14:53:19.8Z</time></trkpt><trkpt lat="44.5001356" lon="4.8098371"><ele>294.2</ele><time>2026-04-10T14:53:20.802Z</time></trkpt><trkpt lat="44.5000933" lon="4.8096982"><ele>293.8</ele><time>2026-04-10T14:53:21.799Z</time></trkpt><trkpt lat="44.5000359" lon="4.809548"><ele>293.4</ele><time>2026-04-10T14:53:22.804Z</time></trkpt><trkpt lat="44.499987" lon="4.809403"><ele>293.0</ele><time>2026-04-10T14:53:23.805Z</time></trkpt><trkpt lat="44.4999412" lon="4.8092731"><ele>292.5</ele><time>2026-04-10T14:53:24.801Z</time></trkpt><trkpt lat="44.4998946" lon="4.8091698"><ele>292.0</ele><time>2026-04-10T14:53:25.802Z</time></trkpt><trkpt lat="44.4998484" lon="4.8090835"><ele>291.5</ele><time>2026-04-10T14:53:26.802Z</time></trkpt><trkpt lat="44.4997934" lon="4.8090004"><ele>291.0</ele><time>2026-04-10T14:53:27.808Z</time></trkpt><trkpt lat="44.4997287" lon="4.808901"><ele>290.5</ele><time>2026-04-10T14:53:28.817Z</time></trkpt><trkpt lat="44.4996598" lon="4.8087991"><ele>290.0</ele><time>2026-04-10T14:53:29.806Z</time></trkpt><trkpt lat="44.4995884" lon="4.8086864"><ele>290.33333333333337</ele><time>2026-04-10T14:53:30.807Z</time></trkpt><trkpt lat="44.4995132" lon="4.8085919"><ele>290.6666666666667</ele><time>2026-04-10T14:53:31.808Z</time></trkpt><trkpt lat="44.4994367" lon="4.8085252"><ele>291.0</ele><time>2026-04-10T14:53:32.804Z</time></trkpt><trkpt lat="44.4993655" lon="4.8084646"><ele>291.3333333333333</ele><time>2026-04-10T14:53:33.804Z</time></trkpt><trkpt lat="44.4992899" lon="4.8084169"><ele>291.66666666666663</ele><time>2026-04-10T14:53:34.806Z</time></trkpt><trkpt lat="44.4992088" lon="4.8083662"><ele>292.0</ele><time>2026-04-10T14:53:35.803Z</time></trkpt><trkpt lat="44.4991194" lon="4.8083098"><ele>292.0</ele><time>2026-04-10T14:53:36.801Z</time></trkpt><trkpt lat="44.499031" lon="4.8082462"><ele>292.0</ele><time>2026-04-10T14:53:37.806Z</time></trkpt><trkpt lat="44.4989318" lon="4.808181"><ele>292.0</ele><time>2026-04-10T14:53:38.81Z</time></trkpt><trkpt lat="44.4988372" lon="4.8081218"><ele>292.0</ele><time>2026-04-10T14:53:39.808Z</time></trkpt><trkpt lat="44.498751" lon="4.8080363"><ele>292.0</ele><time>2026-04-10T14:53:40.803Z</time></trkpt><trkpt lat="44.4986773" lon="4.8079368"><ele>292.0</ele><time>2026-04-10T14:53:41.8Z</time></trkpt><trkpt lat="44.498595" lon="4.8078354"><ele>292.0</ele><time>2026-04-10T14:53:42.804Z</time></trkpt><trkpt lat="44.4985149" lon="4.8077272"><ele>292.0</ele><time>2026-04-10T14:53:43.804Z</time></trkpt><trkpt lat="44.4984449" lon="4.8076151"><ele>292.0</ele><time>2026-04-10T14:53:44.801Z</time></trkpt><trkpt lat="44.4983667" lon="4.8075046"><ele>292.0</ele><time>2026-04-10T14:53:45.799Z</time></trkpt><trkpt lat="44.4983014" lon="4.8073492"><ele>292.0</ele><time>2026-04-10T14:53:46.8Z</time></trkpt><trkpt lat="44.4982271" lon="4.8071873"><ele>292.0</ele><time>2026-04-10T14:53:47.799Z</time></trkpt><trkpt lat="44.4981382" lon="4.8070053"><ele>292.0</ele><time>2026-04-10T14:53:48.8Z</time></trkpt><trkpt lat="44.4980563" lon="4.8068242"><ele>292.0</ele><time>2026-04-10T14:53:49.801Z</time></trkpt><trkpt lat="44.4979761" lon="4.8066595"><ele>292.0</ele><time>2026-04-10T14:53:50.802Z</time></trkpt><trkpt lat="44.497898" lon="4.8065083"><ele>292.0</ele><time>2026-04-10T14:53:51.8Z</time></trkpt><trkpt lat="44.4978221" lon="4.8063713"><ele>292.0</ele><time>2026-04-10T14:53:52.801Z</time></trkpt><trkpt lat="44.4977564" lon="4.80625"><ele>292.0</ele><time>2026-04-10T14:53:53.802Z</time></trkpt><trkpt lat="44.4976997" lon="4.8061342"><ele>292.0</ele><time>2026-04-10T14:53:54.801Z</time></trkpt><trkpt lat="44.4976496" lon="4.8060338"><ele>292.0</ele><time>2026-04-10T14:53:55.801Z</time></trkpt><trkpt lat="44.4975942" lon="4.8059825"><ele>292.0</ele><time>2026-04-10T14:53:56.805Z</time></trkpt><trkpt lat="44.497524" lon="4.8059461"><ele>292.0</ele><time>2026-04-10T14:53:57.801Z</time></trkpt><trkpt lat="44.4974403" lon="4.8059223"><ele>292.0</ele><time>2026-04-10T14:53:58.801Z</time></trkpt><trkpt lat="44.4973304" lon="4.8059002"><ele>292.0</ele><time>2026-04-10T14:53:59.8Z</time></trkpt><trkpt lat="44.4972166" lon="4.8058643"><ele>292.2</ele><time>2026-04-10T14:54:00.803Z</time></trkpt><trkpt lat="44.4971186" lon="4.8058127"><ele>292.4</ele><time>2026-04-10T14:54:01.803Z</time></trkpt><trkpt lat="44.4970494" lon="4.8057831"><ele>292.6</ele><time>2026-04-10T14:54:02.801Z</time></trkpt><trkpt lat="44.4969433" lon="4.8058146"><ele>292.8</ele><time>2026-04-10T14:54:04.8Z</time></trkpt><trkpt lat="44.4968818" lon="4.8059582"><ele>293.0</ele><time>2026-04-10T14:54:06.8Z</time></trkpt><trkpt lat="44.496866" lon="4.8060564"><ele>291.8</ele><time>2026-04-10T14:54:07.801Z</time></trkpt><trkpt lat="44.4968528" lon="4.8061447"><ele>290.6</ele><time>2026-04-10T14:54:08.802Z</time></trkpt><trkpt lat="44.4968167" lon="4.8062748"><ele>289.4</ele><time>2026-04-10T14:54:09.801Z</time></trkpt><trkpt lat="44.4967797" lon="4.8064131"><ele>288.2</ele><time>2026-04-10T14:54:10.804Z</time></trkpt><trkpt lat="44.4967472" lon="4.8065608"><ele>287.0</ele><time>2026-04-10T14:54:11.799Z</time></trkpt><trkpt lat="44.4967256" lon="4.8067113"><ele>286.2</ele><time>2026-04-10T14:54:12.805Z</time></trkpt><trkpt lat="44.4966967" lon="4.8068698"><ele>285.4</ele><time>2026-04-10T14:54:13.8Z</time></trkpt><trkpt lat="44.4966695" lon="4.8070206"><ele>284.6</ele><time>2026-04-10T14:54:14.804Z</time></trkpt><trkpt lat="44.496646" lon="4.8071569"><ele>283.8</ele><time>2026-04-10T14:54:15.808Z</time></trkpt><trkpt lat="44.4966585" lon="4.8072685"><ele>283.0</ele><time>2026-04-10T14:54:16.806Z</time></trkpt><trkpt lat="44.4966736" lon="4.8073904"><ele>283.0</ele><time>2026-04-10T14:54:17.805Z</time></trkpt><trkpt lat="44.4967027" lon="4.8075214"><ele>283.0</ele><time>2026-04-10T14:54:18.811Z</time></trkpt><trkpt lat="44.4967384" lon="4.8076765"><ele>283.0</ele><time>2026-04-10T14:54:19.806Z</time></trkpt><trkpt lat="44.496777" lon="4.8078329"><ele>283.0</ele><time>2026-04-10T14:54:20.805Z</time></trkpt><trkpt lat="44.4968137" lon="4.8079824"><ele>283.0</ele><time>2026-04-10T14:54:21.813Z</time></trkpt><trkpt lat="44.4968386" lon="4.808129"><ele>281.5</ele><time>2026-04-10T14:54:22.806Z</time></trkpt><trkpt lat="44.4968594" lon="4.8082725"><ele>280.0</ele><time>2026-04-10T14:54:23.804Z</time></trkpt><trkpt lat="44.4968669" lon="4.8084023"><ele>278.5</ele><time>2026-04-10T14:54:24.804Z</time></trkpt><trkpt lat="44.4968711" lon="4.8085067"><ele>277.0</ele><time>2026-04-10T14:54:25.801Z</time></trkpt><trkpt lat="44.4968947" lon="4.8085957"><ele>275.5</ele><time>2026-04-10T14:54:26.805Z</time></trkpt><trkpt lat="44.4969266" lon="4.8086785"><ele>274.0</ele><time>2026-04-10T14:54:27.807Z</time></trkpt><trkpt lat="44.4969778" lon="4.8087447"><ele>274.5</ele><time>2026-04-10T14:54:28.805Z</time></trkpt><trkpt lat="44.4970414" lon="4.8088064"><ele>275.0</ele><time>2026-04-10T14:54:29.803Z</time></trkpt><trkpt lat="44.4970917" lon="4.8088889"><ele>275.5</ele><time>2026-04-10T14:54:30.808Z</time></trkpt><trkpt lat="44.4971211" lon="4.8089899"><ele>276.0</ele><time>2026-04-10T14:54:31.806Z</time></trkpt><trkpt lat="44.497125" lon="4.8091041"><ele>276.5</ele><time>2026-04-10T14:54:32.803Z</time></trkpt><trkpt lat="44.4970901" lon="4.8092509"><ele>277.0</ele><time>2026-04-10T14:54:33.81Z</time></trkpt><trkpt lat="44.4970507" lon="4.809414"><ele>275.0</ele><time>2026-04-10T14:54:34.807Z</time></trkpt><trkpt lat="44.4970279" lon="4.8095914"><ele>273.0</ele><time>2026-04-10T14:54:35.804Z</time></trkpt><trkpt lat="44.4970132" lon="4.8097836"><ele>271.0</ele><time>2026-04-10T14:54:36.805Z</time></trkpt><trkpt lat="44.4970075" lon="4.8099399"><ele>269.0</ele><time>2026-04-10T14:54:37.804Z</time></trkpt><trkpt lat="44.497003" lon="4.8100746"><ele>268.59999999999997</ele><time>2026-04-10T14:54:38.803Z</time></trkpt><trkpt lat="44.4970113" lon="4.8101852"><ele>268.2</ele><time>2026-04-10T14:54:39.806Z</time></trkpt><trkpt lat="44.4970241" lon="4.8102927"><ele>267.79999999999995</ele><time>2026-04-10T14:54:40.803Z</time></trkpt><trkpt lat="44.4970756" lon="4.8104168"><ele>267.4</ele><time>2026-04-10T14:54:41.806Z</time></trkpt><trkpt lat="44.497142" lon="4.8105431"><ele>267.0</ele><time>2026-04-10T14:54:42.802Z</time></trkpt><trkpt lat="44.4972138" lon="4.8106779"><ele>267.0</ele><time>2026-04-10T14:54:43.802Z</time></trkpt><trkpt lat="44.4973052" lon="4.81081"><ele>267.0</ele><time>2026-04-10T14:54:44.803Z</time></trkpt><trkpt lat="44.4973867" lon="4.8109411"><ele>267.0</ele><time>2026-04-10T14:54:45.805Z</time></trkpt><trkpt lat="44.4974651" lon="4.8110624"><ele>267.0</ele><time>2026-04-10T14:54:46.801Z</time></trkpt><trkpt lat="44.4975309" lon="4.8111639"><ele>266.3333333333333</ele><time>2026-04-10T14:54:47.802Z</time></trkpt><trkpt lat="44.4975987" lon="4.8112315"><ele>265.6666666666667</ele><time>2026-04-10T14:54:48.806Z</time></trkpt><trkpt lat="44.4976654" lon="4.8112979"><ele>265.0</ele><time>2026-04-10T14:54:49.804Z</time></trkpt><trkpt lat="44.4977212" lon="4.8113431"><ele>264.33333333333337</ele><time>2026-04-10T14:54:50.803Z</time></trkpt><trkpt lat="44.4977996" lon="4.8113788"><ele>263.6666666666667</ele><time>2026-04-10T14:54:52.806Z</time></trkpt><trkpt lat="44.4977428" lon="4.81143"><ele>263.0</ele><time>2026-04-10T14:54:54.803Z</time></trkpt><trkpt lat="44.4976716" lon="4.8114459"><ele>263.0</ele><time>2026-04-10T14:54:55.8Z</time></trkpt><trkpt lat="44.4974965" lon="4.8114882"><ele>263.0</ele><time>2026-04-10T14:54:57.801Z</time></trkpt><trkpt lat="44.4973908" lon="4.8115166"><ele>263.0</ele><time>2026-04-10T14:54:58.797Z</time></trkpt><trkpt lat="44.4972947" lon="4.811538"><ele>263.0</ele><time>2026-04-10T14:54:59.804Z</time></trkpt><trkpt lat="44.4971948" lon="4.811551"><ele>263.0</ele><time>2026-04-10T14:55:00.801Z</time></trkpt><trkpt lat="44.4971134" lon="4.8115308"><ele>263.0</ele><time>2026-04-10T14:55:01.801Z</time></trkpt><trkpt lat="44.4970492" lon="4.8114987"><ele>263.0</ele><time>2026-04-10T14:55:02.8Z</time></trkpt><trkpt lat="44.4969479" lon="4.8113743"><ele>263.0</ele><time>2026-04-10T14:55:04.798Z</time></trkpt><trkpt lat="44.4968624" lon="4.8112609"><ele>263.0</ele><time>2026-04-10T14:55:05.8Z</time></trkpt><trkpt lat="44.4967818" lon="4.8111537"><ele>262.25</ele><time>2026-04-10T14:55:06.8Z</time></trkpt><trkpt lat="44.4966971" lon="4.8110497"><ele>261.5</ele><time>2026-04-10T14:55:07.799Z</time></trkpt><trkpt lat="44.4965895" lon="4.8109464"><ele>260.75</ele><time>2026-04-10T14:55:08.798Z</time></trkpt><trkpt lat="44.496454" lon="4.8108666"><ele>260.0</ele><time>2026-04-10T14:55:09.804Z</time></trkpt><trkpt lat="44.4963148" lon="4.8107826"><ele>257.25</ele><time>2026-04-10T14:55:10.8Z</time></trkpt><trkpt lat="44.4961891" lon="4.8107248"><ele>254.5</ele><time>2026-04-10T14:55:11.803Z</time></trkpt><trkpt lat="44.496065" lon="4.8106795"><ele>251.75</ele><time>2026-04-10T14:55:12.796Z</time></trkpt><trkpt lat="44.4959412" lon="4.8106562"><ele>249.0</ele><time>2026-04-10T14:55:13.8Z</time></trkpt><trkpt lat="44.4958177" lon="4.8106512"><ele>249.0</ele><time>2026-04-10T14:55:14.803Z</time></trkpt><trkpt lat="44.4956905" lon="4.810637"><ele>249.0</ele><time>2026-04-10T14:55:15.799Z</time></trkpt><trkpt lat="44.4955684" lon="4.8106471"><ele>249.0</ele><time>2026-04-10T14:55:16.797Z</time></trkpt><trkpt lat="44.4954587" lon="4.8106467"><ele>249.0</ele><time>2026-04-10T14:55:17.799Z</time></trkpt><trkpt lat="44.4953546" lon="4.8106342"><ele>247.6</ele><time>2026-04-10T14:55:18.807Z</time></trkpt><trkpt lat="44.4952533" lon="4.8106238"><ele>246.2</ele><time>2026-04-10T14:55:19.802Z</time></trkpt><trkpt lat="44.4951559" lon="4.8106258"><ele>244.79999999999998</ele><time>2026-04-10T14:55:20.798Z</time></trkpt><trkpt lat="44.4950807" lon="4.8105897"><ele>243.39999999999998</ele><time>2026-04-10T14:55:21.8Z</time></trkpt><trkpt lat="44.4950222" lon="4.8105367"><ele>242.0</ele><time>2026-04-10T14:55:22.803Z</time></trkpt><trkpt lat="44.4949205" lon="4.8104415"><ele>242.0</ele><time>2026-04-10T14:55:24.802Z</time></trkpt><trkpt lat="44.4948037" lon="4.8102896"><ele>242.0</ele><time>2026-04-10T14:55:26.8Z</time></trkpt><trkpt lat="44.4947383" lon="4.8101655"><ele>242.0</ele><time>2026-04-10T14:55:27.801Z</time></trkpt><trkpt lat="44.4946741" lon="4.8100124"><ele>242.0</ele><time>2026-04-10T14:55:28.8Z</time></trkpt><trkpt lat="44.494627" lon="4.8098339"><ele>243.0</ele><time>2026-04-10T14:55:29.802Z</time></trkpt><trkpt lat="44.4945884" lon="4.8096511"><ele>244.0</ele><time>2026-04-10T14:55:30.803Z</time></trkpt><trkpt lat="44.4945575" lon="4.80948"><ele>245.0</ele><time>2026-04-10T14:55:31.803Z</time></trkpt><trkpt lat="44.4945185" lon="4.8093148"><ele>246.0</ele><time>2026-04-10T14:55:32.798Z</time></trkpt><trkpt lat="44.4944232" lon="4.8091895"><ele>243.5</ele><time>2026-04-10T14:55:33.796Z</time></trkpt><trkpt lat="44.4943252" lon="4.8090641"><ele>241.0</ele><time>2026-04-10T14:55:34.797Z</time></trkpt><trkpt lat="44.4942371" lon="4.8089353"><ele>238.5</ele><time>2026-04-10T14:55:35.799Z</time></trkpt><trkpt lat="44.4941515" lon="4.8088131"><ele>236.0</ele><time>2026-04-10T14:55:36.804Z</time></trkpt><trkpt lat="44.4940712" lon="4.8086931"><ele>236.0</ele><time>2026-04-10T14:55:37.802Z</time></trkpt><trkpt lat="44.4939833" lon="4.8085846"><ele>236.0</ele><time>2026-04-10T14:55:38.801Z</time></trkpt><trkpt lat="44.4938937" lon="4.808491"><ele>236.0</ele><time>2026-04-10T14:55:39.8Z</time></trkpt><trkpt lat="44.4938114" lon="4.8083832"><ele>236.0</ele><time>2026-04-10T14:55:40.799Z</time></trkpt><trkpt lat="44.4937268" lon="4.8082694"><ele>234.25</ele><time>2026-04-10T14:55:41.803Z</time></trkpt><trkpt lat="44.4936387" lon="4.8081711"><ele>232.5</ele><time>2026-04-10T14:55:42.803Z</time></trkpt><trkpt lat="44.4935468" lon="4.8080682"><ele>230.75</ele><time>2026-04-10T14:55:43.802Z</time></trkpt><trkpt lat="44.4934558" lon="4.8079545"><ele>229.0</ele><time>2026-04-10T14:55:44.8Z</time></trkpt><trkpt lat="44.4933694" lon="4.807837"><ele>229.0</ele><time>2026-04-10T14:55:45.8Z</time></trkpt><trkpt lat="44.4932879" lon="4.8077197"><ele>228.99999999999997</ele><time>2026-04-10T14:55:46.806Z</time></trkpt><trkpt lat="44.4932185" lon="4.807601"><ele>228.99999999999997</ele><time>2026-04-10T14:55:47.801Z</time></trkpt><trkpt lat="44.4931342" lon="4.8074962"><ele>229.0</ele><time>2026-04-10T14:55:48.806Z</time></trkpt><trkpt lat="44.4930521" lon="4.8074158"><ele>229.0</ele><time>2026-04-10T14:55:49.799Z</time></trkpt><trkpt lat="44.4930032" lon="4.8073266"><ele>229.33333333333331</ele><time>2026-04-10T14:55:50.798Z</time></trkpt><trkpt lat="44.4929879" lon="4.8072285"><ele>229.66666666666666</ele><time>2026-04-10T14:55:51.802Z</time></trkpt><trkpt lat="44.4929943" lon="4.8071203"><ele>230.0</ele><time>2026-04-10T14:55:52.8Z</time></trkpt><trkpt lat="44.4930101" lon="4.8070084"><ele>230.33333333333331</ele><time>2026-04-10T14:55:53.8Z</time></trkpt><trkpt lat="44.493023" lon="4.8069044"><ele>230.66666666666666</ele><time>2026-04-10T14:55:54.803Z</time></trkpt><trkpt lat="44.4930253" lon="4.8067988"><ele>231.0</ele><time>2026-04-10T14:55:55.802Z</time></trkpt><trkpt lat="44.4930063" lon="4.8066833"><ele>231.20000000000002</ele><time>2026-04-10T14:55:56.8Z</time></trkpt><trkpt lat="44.492978" lon="4.8065619"><ele>231.40000000000003</ele><time>2026-04-10T14:55:57.799Z</time></trkpt><trkpt lat="44.4929415" lon="4.8064363"><ele>231.6</ele><time>2026-04-10T14:55:58.802Z</time></trkpt><trkpt lat="44.4928988" lon="4.8063058"><ele>231.8</ele><time>2026-04-10T14:55:59.804Z</time></trkpt><trkpt lat="44.4928552" lon="4.8061759"><ele>232.0</ele><time>2026-04-10T14:56:00.798Z</time></trkpt><trkpt lat="44.4928078" lon="4.8060541"><ele>230.83333333333331</ele><time>2026-04-10T14:56:01.806Z</time></trkpt><trkpt lat="44.4927516" lon="4.8059493"><ele>229.66666666666666</ele><time>2026-04-10T14:56:02.801Z</time></trkpt><trkpt lat="44.4926908" lon="4.8058529"><ele>228.5</ele><time>2026-04-10T14:56:03.801Z</time></trkpt><trkpt lat="44.4926526" lon="4.8057815"><ele>227.33333333333331</ele><time>2026-04-10T14:56:04.801Z</time></trkpt><trkpt lat="44.4926241" lon="4.8056991"><ele>226.16666666666666</ele><time>2026-04-10T14:56:08.804Z</time></trkpt><trkpt lat="44.4925703" lon="4.805602"><ele>225.0</ele><time>2026-04-10T14:56:30.809Z</time></trkpt><trkpt lat="44.4925231" lon="4.8055152"><ele>225.0</ele><time>2026-04-10T14:56:31.803Z</time></trkpt><trkpt lat="44.4924778" lon="4.8054262"><ele>225.0</ele><time>2026-04-10T14:56:32.805Z</time></trkpt><trkpt lat="44.4924344" lon="4.8053052"><ele>225.0</ele><time>2026-04-10T14:56:33.81Z</time></trkpt><trkpt lat="44.4923893" lon="4.8051812"><ele>225.0</ele><time>2026-04-10T14:56:34.806Z</time></trkpt><trkpt lat="44.4923413" lon="4.8050472"><ele>225.0</ele><time>2026-04-10T14:56:35.808Z</time></trkpt><trkpt lat="44.4922978" lon="4.8049147"><ele>226.2</ele><time>2026-04-10T14:56:36.805Z</time></trkpt><trkpt lat="44.4922634" lon="4.8047671"><ele>227.4</ele><time>2026-04-10T14:56:37.805Z</time></trkpt><trkpt lat="44.4922226" lon="4.8046308"><ele>228.60000000000002</ele><time>2026-04-10T14:56:38.812Z</time></trkpt><trkpt lat="44.4921994" lon="4.8044794"><ele>229.8</ele><time>2026-04-10T14:56:39.81Z</time></trkpt><trkpt lat="44.4921821" lon="4.8043253"><ele>231.0</ele><time>2026-04-10T14:56:40.806Z</time></trkpt><trkpt lat="44.4921683" lon="4.8041774"><ele>231.0</ele><time>2026-04-10T14:56:41.806Z</time></trkpt><trkpt lat="44.4921538" lon="4.8040182"><ele>231.00000000000003</ele><time>2026-04-10T14:56:42.803Z</time></trkpt><trkpt lat="44.4921532" lon="4.8038792"><ele>231.00000000000003</ele><time>2026-04-10T14:56:43.805Z</time></trkpt><trkpt lat="44.4921497" lon="4.803715"><ele>231.0</ele><time>2026-04-10T14:56:44.801Z</time></trkpt><trkpt lat="44.4921369" lon="4.8035702"><ele>231.0</ele><time>2026-04-10T14:56:45.8Z</time></trkpt><trkpt lat="44.4921297" lon="4.8034331"><ele>231.0</ele><time>2026-04-10T14:56:46.803Z</time></trkpt><trkpt lat="44.4921062" lon="4.8033495"><ele>231.0</ele><time>2026-04-10T14:56:47.799Z</time></trkpt><trkpt lat="44.4920561" lon="4.8032889"><ele>231.0</ele><time>2026-04-10T14:56:48.804Z</time></trkpt><trkpt lat="44.4919453" lon="4.8032242"><ele>231.0</ele><time>2026-04-10T14:56:50.807Z</time></trkpt><trkpt lat="44.4918679" lon="4.8032216"><ele>231.0</ele><time>2026-04-10T14:56:51.814Z</time></trkpt><trkpt lat="44.4917819" lon="4.803222"><ele>231.0</ele><time>2026-04-10T14:56:52.815Z</time></trkpt><trkpt lat="44.4916938" lon="4.8032214"><ele>228.8</ele><time>2026-04-10T14:56:53.819Z</time></trkpt><trkpt lat="44.4916035" lon="4.803223"><ele>226.60000000000002</ele><time>2026-04-10T14:56:54.812Z</time></trkpt><trkpt lat="44.4915042" lon="4.8032235"><ele>224.4</ele><time>2026-04-10T14:56:55.804Z</time></trkpt><trkpt lat="44.4913973" lon="4.8032083"><ele>222.2</ele><time>2026-04-10T14:56:56.812Z</time></trkpt><trkpt lat="44.491303" lon="4.8031852"><ele>220.0</ele><time>2026-04-10T14:56:57.802Z</time></trkpt><trkpt lat="44.4912071" lon="4.8031369"><ele>217.75</ele><time>2026-04-10T14:56:58.804Z</time></trkpt><trkpt lat="44.4911003" lon="4.8030861"><ele>215.5</ele><time>2026-04-10T14:56:59.803Z</time></trkpt><trkpt lat="44.4909842" lon="4.8030319"><ele>213.25</ele><time>2026-04-10T14:57:00.799Z</time></trkpt><trkpt lat="44.4908795" lon="4.8029778"><ele>211.0</ele><time>2026-04-10T14:57:01.802Z</time></trkpt><trkpt lat="44.4907703" lon="4.802905"><ele>211.0</ele><time>2026-04-10T14:57:02.807Z</time></trkpt><trkpt lat="44.4906564" lon="4.8028064"><ele>211.0</ele><time>2026-04-10T14:57:03.802Z</time></trkpt><trkpt lat="44.4905521" lon="4.8027176"><ele>211.0</ele><time>2026-04-10T14:57:04.798Z</time></trkpt><trkpt lat="44.490462" lon="4.802638"><ele>211.0</ele><time>2026-04-10T14:57:05.801Z</time></trkpt><trkpt lat="44.4903938" lon="4.8025665"><ele>211.0</ele><time>2026-04-10T14:57:06.812Z</time></trkpt><trkpt lat="44.4903413" lon="4.8024765"><ele>210.0</ele><time>2026-04-10T14:57:07.803Z</time></trkpt><trkpt lat="44.4903179" lon="4.8023774"><ele>209.0</ele><time>2026-04-10T14:57:08.808Z</time></trkpt><trkpt lat="44.4903143" lon="4.8022701"><ele>208.0</ele><time>2026-04-10T14:57:09.806Z</time></trkpt><trkpt lat="44.490327" lon="4.8021394"><ele>207.0</ele><time>2026-04-10T14:57:10.802Z</time></trkpt><trkpt lat="44.4903402" lon="4.8020002"><ele>206.0</ele><time>2026-04-10T14:57:11.804Z</time></trkpt><trkpt lat="44.4903714" lon="4.8018354"><ele>206.25</ele><time>2026-04-10T14:57:12.801Z</time></trkpt><trkpt lat="44.4903903" lon="4.8016655"><ele>206.5</ele><time>2026-04-10T14:57:13.802Z</time></trkpt><trkpt lat="44.4904339" lon="4.8014915"><ele>206.75</ele><time>2026-04-10T14:57:14.804Z</time></trkpt><trkpt lat="44.4904725" lon="4.8013187"><ele>207.0</ele><time>2026-04-10T14:57:15.801Z</time></trkpt><trkpt lat="44.4905019" lon="4.801137"><ele>206.75</ele><time>2026-04-10T14:57:16.805Z</time></trkpt><trkpt lat="44.4905432" lon="4.8009652"><ele>206.5</ele><time>2026-04-10T14:57:17.802Z</time></trkpt><trkpt lat="44.4906016" lon="4.8008"><ele>206.25</ele><time>2026-04-10T14:57:18.805Z</time></trkpt><trkpt lat="44.490626" lon="4.8006341"><ele>206.0</ele><time>2026-04-10T14:57:19.801Z</time></trkpt><trkpt lat="44.4906424" lon="4.800452"><ele>206.0</ele><time>2026-04-10T14:57:20.804Z</time></trkpt><trkpt lat="44.4906658" lon="4.8002822"><ele>206.0</ele><time>2026-04-10T14:57:21.802Z</time></trkpt><trkpt lat="44.4906932" lon="4.8001176"><ele>206.0</ele><time>2026-04-10T14:57:22.8Z</time></trkpt><trkpt lat="44.4907822" lon="4.7999833"><ele>206.0</ele><time>2026-04-10T14:57:23.803Z</time></trkpt><trkpt lat="44.4908731" lon="4.799849"><ele>205.75</ele><time>2026-04-10T14:57:24.805Z</time></trkpt><trkpt lat="44.4909756" lon="4.7997209"><ele>205.5</ele><time>2026-04-10T14:57:25.802Z</time></trkpt><trkpt lat="44.4910627" lon="4.7995801"><ele>205.25</ele><time>2026-04-10T14:57:26.799Z</time></trkpt><trkpt lat="44.4911467" lon="4.7994285"><ele>205.0</ele><time>2026-04-10T14:57:27.802Z</time></trkpt><trkpt lat="44.491231" lon="4.7992669"><ele>204.0</ele><time>2026-04-10T14:57:28.802Z</time></trkpt><trkpt lat="44.4913129" lon="4.7990983"><ele>203.0</ele><time>2026-04-10T14:57:29.799Z</time></trkpt><trkpt lat="44.4913904" lon="4.7989283"><ele>202.0</ele><time>2026-04-10T14:57:30.798Z</time></trkpt><trkpt lat="44.4914574" lon="4.7987699"><ele>201.0</ele><time>2026-04-10T14:57:31.802Z</time></trkpt><trkpt lat="44.491525" lon="4.7986086"><ele>200.25</ele><time>2026-04-10T14:57:32.808Z</time></trkpt><trkpt lat="44.4915865" lon="4.7984327"><ele>199.5</ele><time>2026-04-10T14:57:33.803Z</time></trkpt><trkpt lat="44.4916499" lon="4.7982563"><ele>198.75</ele><time>2026-04-10T14:57:34.8Z</time></trkpt><trkpt lat="44.4917091" lon="4.7980836"><ele>198.0</ele><time>2026-04-10T14:57:35.802Z</time></trkpt><trkpt lat="44.4917753" lon="4.7979103"><ele>198.0</ele><time>2026-04-10T14:57:36.801Z</time></trkpt><trkpt lat="44.4918339" lon="4.7977319"><ele>198.0</ele><time>2026-04-10T14:57:37.8Z</time></trkpt><trkpt lat="44.4918905" lon="4.7975532"><ele>198.0</ele><time>2026-04-10T14:57:38.803Z</time></trkpt><trkpt lat="44.491946" lon="4.7973857"><ele>198.0</ele><time>2026-04-10T14:57:39.803Z</time></trkpt><trkpt lat="44.4920027" lon="4.7972101"><ele>196.75</ele><time>2026-04-10T14:57:40.805Z</time></trkpt><trkpt lat="44.4920516" lon="4.7970375"><ele>195.5</ele><time>2026-04-10T14:57:41.805Z</time></trkpt><trkpt lat="44.4920896" lon="4.7968595"><ele>194.25</ele><time>2026-04-10T14:57:42.801Z</time></trkpt><trkpt lat="44.4921361" lon="4.7966888"><ele>193.0</ele><time>2026-04-10T14:57:43.8Z</time></trkpt><trkpt lat="44.4921832" lon="4.7965141"><ele>191.75</ele><time>2026-04-10T14:57:44.806Z</time></trkpt><trkpt lat="44.4922319" lon="4.7963451"><ele>190.5</ele><time>2026-04-10T14:57:45.803Z</time></trkpt><trkpt lat="44.4922775" lon="4.7961787"><ele>189.25</ele><time>2026-04-10T14:57:46.804Z</time></trkpt><trkpt lat="44.492329" lon="4.7960051"><ele>188.0</ele><time>2026-04-10T14:57:47.801Z</time></trkpt><trkpt lat="44.4923788" lon="4.795834"><ele>187.75</ele><time>2026-04-10T14:57:48.798Z</time></trkpt><trkpt lat="44.4924311" lon="4.7956632"><ele>187.5</ele><time>2026-04-10T14:57:49.803Z</time></trkpt><trkpt lat="44.4924788" lon="4.7954992"><ele>187.25</ele><time>2026-04-10T14:57:50.804Z</time></trkpt><trkpt lat="44.4925173" lon="4.7953436"><ele>187.0</ele><time>2026-04-10T14:57:51.803Z</time></trkpt><trkpt lat="44.4925435" lon="4.7951926"><ele>186.5</ele><time>2026-04-10T14:57:52.8Z</time></trkpt><trkpt lat="44.4925403" lon="4.7950351"><ele>186.0</ele><time>2026-04-10T14:57:53.802Z</time></trkpt><trkpt lat="44.4924935" lon="4.7948772"><ele>185.5</ele><time>2026-04-10T14:57:54.801Z</time></trkpt><trkpt lat="44.492437" lon="4.7947102"><ele>185.0</ele><time>2026-04-10T14:57:55.806Z</time></trkpt><trkpt lat="44.4923789" lon="4.7945381"><ele>185.0</ele><time>2026-04-10T14:57:56.801Z</time></trkpt><trkpt lat="44.4923205" lon="4.7943494"><ele>185.0</ele><time>2026-04-10T14:57:57.803Z</time></trkpt><trkpt lat="44.4922641" lon="4.7941595"><ele>185.0</ele><time>2026-04-10T14:57:58.801Z</time></trkpt><trkpt lat="44.4922044" lon="4.7939695"><ele>185.0</ele><time>2026-04-10T14:57:59.8Z</time></trkpt><trkpt lat="44.4921484" lon="4.7937635"><ele>183.0</ele><time>2026-04-10T14:58:00.803Z</time></trkpt><trkpt lat="44.492084" lon="4.7935521"><ele>181.0</ele><time>2026-04-10T14:58:01.8Z</time></trkpt><trkpt lat="44.4920299" lon="4.7933539"><ele>179.0</ele><time>2026-04-10T14:58:02.803Z</time></trkpt><trkpt lat="44.491964" lon="4.7931335"><ele>178.33333333333331</ele><time>2026-04-10T14:58:03.808Z</time></trkpt><trkpt lat="44.4919241" lon="4.7929107"><ele>177.66666666666666</ele><time>2026-04-10T14:58:04.803Z</time></trkpt><trkpt lat="44.4918802" lon="4.7926904"><ele>177.0</ele><time>2026-04-10T14:58:05.8Z</time></trkpt><trkpt lat="44.4918401" lon="4.792476"><ele>175.66666666666666</ele><time>2026-04-10T14:58:06.805Z</time></trkpt><trkpt lat="44.491785" lon="4.7922669"><ele>174.33333333333331</ele><time>2026-04-10T14:58:07.806Z</time></trkpt><trkpt lat="44.491741" lon="4.7920627"><ele>173.0</ele><time>2026-04-10T14:58:08.804Z</time></trkpt><trkpt lat="44.4916963" lon="4.7918578"><ele>172.0</ele><time>2026-04-10T14:58:09.804Z</time></trkpt><trkpt lat="44.4916496" lon="4.7916534"><ele>171.0</ele><time>2026-04-10T14:58:10.803Z</time></trkpt><trkpt lat="44.4916074" lon="4.7914543"><ele>170.0</ele><time>2026-04-10T14:58:11.806Z</time></trkpt><trkpt lat="44.4915714" lon="4.7912823"><ele>169.0</ele><time>2026-04-10T14:58:12.805Z</time></trkpt><trkpt lat="44.4915341" lon="4.7911078"><ele>168.39999999999998</ele><time>2026-04-10T14:58:13.805Z</time></trkpt><trkpt lat="44.4914935" lon="4.790942"><ele>167.8</ele><time>2026-04-10T14:58:14.804Z</time></trkpt><trkpt lat="44.491449" lon="4.7907861"><ele>167.2</ele><time>2026-04-10T14:58:15.802Z</time></trkpt><trkpt lat="44.4914083" lon="4.7906634"><ele>166.60000000000002</ele><time>2026-04-10T14:58:16.806Z</time></trkpt><trkpt lat="44.4913745" lon="4.7905624"><ele>166.0</ele><time>2026-04-10T14:58:17.807Z</time></trkpt><trkpt lat="44.4913437" lon="4.7904678"><ele>166.0</ele><time>2026-04-10T14:58:18.811Z</time></trkpt><trkpt lat="44.4913111" lon="4.7903713"><ele>166.0</ele><time>2026-04-10T14:58:20.805Z</time></trkpt><trkpt lat="44.4912458" lon="4.7902083"><ele>166.0</ele><time>2026-04-10T14:58:23.819Z</time></trkpt><trkpt lat="44.4911999" lon="4.7901066"><ele>166.0</ele><time>2026-04-10T14:58:24.809Z</time></trkpt><trkpt lat="44.4911406" lon="4.7899854"><ele>166.0</ele><time>2026-04-10T14:58:25.81Z</time></trkpt><trkpt lat="44.4910846" lon="4.7898586"><ele>165.25</ele><time>2026-04-10T14:58:26.805Z</time></trkpt><trkpt lat="44.491017" lon="4.7897093"><ele>164.5</ele><time>2026-04-10T14:58:27.799Z</time></trkpt><trkpt lat="44.4909548" lon="4.789548"><ele>163.75</ele><time>2026-04-10T14:58:28.804Z</time></trkpt><trkpt lat="44.4909083" lon="4.7893803"><ele>163.0</ele><time>2026-04-10T14:58:29.805Z</time></trkpt><trkpt lat="44.4908794" lon="4.7891944"><ele>162.5</ele><time>2026-04-10T14:58:30.801Z</time></trkpt><trkpt lat="44.4908832" lon="4.7889977"><ele>162.0</ele><time>2026-04-10T14:58:31.805Z</time></trkpt><trkpt lat="44.4909084" lon="4.7888004"><ele>161.5</ele><time>2026-04-10T14:58:32.8Z</time></trkpt><trkpt lat="44.4909426" lon="4.7886016"><ele>161.0</ele><time>2026-04-10T14:58:33.8Z</time></trkpt><trkpt lat="44.4909787" lon="4.7883921"><ele>160.66666666666666</ele><time>2026-04-10T14:58:34.802Z</time></trkpt><trkpt lat="44.491015" lon="4.7881808"><ele>160.33333333333334</ele><time>2026-04-10T14:58:35.802Z</time></trkpt><trkpt lat="44.4910487" lon="4.7879635"><ele>160.0</ele><time>2026-04-10T14:58:36.801Z</time></trkpt><trkpt lat="44.4910883" lon="4.7877421"><ele>159.33333333333334</ele><time>2026-04-10T14:58:37.797Z</time></trkpt><trkpt lat="44.4911259" lon="4.7875211"><ele>158.66666666666666</ele><time>2026-04-10T14:58:38.805Z</time></trkpt><trkpt lat="44.4911627" lon="4.7873075"><ele>158.0</ele><time>2026-04-10T14:58:39.8Z</time></trkpt><trkpt lat="44.491186" lon="4.7871015"><ele>158.0</ele><time>2026-04-10T14:58:40.805Z</time></trkpt><trkpt lat="44.4911931" lon="4.7868923"><ele>158.0</ele><time>2026-04-10T14:58:41.803Z</time></trkpt><trkpt lat="44.4912047" lon="4.7866858"><ele>158.0</ele><time>2026-04-10T14:58:42.804Z</time></trkpt><trkpt lat="44.4912139" lon="4.7864752"><ele>158.0</ele><time>2026-04-10T14:58:43.802Z</time></trkpt><trkpt lat="44.491225" lon="4.7862732"><ele>156.66666666666666</ele><time>2026-04-10T14:58:44.817Z</time></trkpt><trkpt lat="44.4912344" lon="4.7860634"><ele>155.33333333333334</ele><time>2026-04-10T14:58:45.813Z</time></trkpt><trkpt lat="44.4912422" lon="4.7858536"><ele>154.0</ele><time>2026-04-10T14:58:46.802Z</time></trkpt><trkpt lat="44.4912568" lon="4.7856382"><ele>153.33333333333334</ele><time>2026-04-10T14:58:47.803Z</time></trkpt><trkpt lat="44.491268" lon="4.7854146"><ele>152.66666666666666</ele><time>2026-04-10T14:58:48.802Z</time></trkpt><trkpt lat="44.4912771" lon="4.7851985"><ele>152.0</ele><time>2026-04-10T14:58:49.803Z</time></trkpt><trkpt lat="44.4912847" lon="4.7849807"><ele>151.5</ele><time>2026-04-10T14:58:50.8Z</time></trkpt><trkpt lat="44.4912948" lon="4.7847634"><ele>151.0</ele><time>2026-04-10T14:58:51.801Z</time></trkpt><trkpt lat="44.4913074" lon="4.7845597"><ele>150.5</ele><time>2026-04-10T14:58:52.81Z</time></trkpt><trkpt lat="44.4913343" lon="4.7843589"><ele>150.0</ele><time>2026-04-10T14:58:53.808Z</time></trkpt><trkpt lat="44.4913334" lon="4.784157"><ele>149.25</ele><time>2026-04-10T14:58:54.801Z</time></trkpt><trkpt lat="44.4913455" lon="4.7839621"><ele>148.5</ele><time>2026-04-10T14:58:55.804Z</time></trkpt><trkpt lat="44.491341" lon="4.7837943"><ele>147.75</ele><time>2026-04-10T14:58:56.802Z</time></trkpt><trkpt lat="44.4913428" lon="4.7836465"><ele>147.0</ele><time>2026-04-10T14:58:57.798Z</time></trkpt><trkpt lat="44.4913584" lon="4.7835215"><ele>146.33333333333334</ele><time>2026-04-10T14:58:58.8Z</time></trkpt><trkpt lat="44.4913662" lon="4.7834157"><ele>145.66666666666666</ele><time>2026-04-10T14:58:59.802Z</time></trkpt><trkpt lat="44.4913769" lon="4.7833251"><ele>145.0</ele><time>2026-04-10T14:59:00.806Z</time></trkpt><trkpt lat="44.4913889" lon="4.7832309"><ele>144.33333333333331</ele><time>2026-04-10T14:59:01.803Z</time></trkpt><trkpt lat="44.4913837" lon="4.7831057"><ele>143.66666666666666</ele><time>2026-04-10T14:59:02.803Z</time></trkpt><trkpt lat="44.4913742" lon="4.7829753"><ele>143.0</ele><time>2026-04-10T14:59:03.81Z</time></trkpt><trkpt lat="44.491361" lon="4.7828284"><ele>143.0</ele><time>2026-04-10T14:59:04.807Z</time></trkpt><trkpt lat="44.4913451" lon="4.7826807"><ele>143.0</ele><time>2026-04-10T14:59:05.808Z</time></trkpt><trkpt lat="44.4913307" lon="4.7825426"><ele>143.0</ele><time>2026-04-10T14:59:06.802Z</time></trkpt><trkpt lat="44.4913271" lon="4.7824109"><ele>143.0</ele><time>2026-04-10T14:59:07.8Z</time></trkpt><trkpt lat="44.4913258" lon="4.7822891"><ele>143.0</ele><time>2026-04-10T14:59:08.801Z</time></trkpt><trkpt lat="44.4913213" lon="4.7821726"><ele>143.0</ele><time>2026-04-10T14:59:09.799Z</time></trkpt><trkpt lat="44.4913191" lon="4.7820749"><ele>143.0</ele><time>2026-04-10T14:59:10.802Z</time></trkpt><trkpt lat="44.4913202" lon="4.7819478"><ele>143.0</ele><time>2026-04-10T14:59:12.796Z</time></trkpt><trkpt lat="44.4913171" lon="4.7818423"><ele>143.0</ele><time>2026-04-10T14:59:15.803Z</time></trkpt><trkpt lat="44.491254" lon="4.7817587"><ele>143.0</ele><time>2026-04-10T14:59:38.799Z</time></trkpt><trkpt lat="44.4911726" lon="4.7817472"><ele>143.0</ele><time>2026-04-10T14:59:39.8Z</time></trkpt><trkpt lat="44.4910833" lon="4.7817745"><ele>142.75</ele><time>2026-04-10T14:59:40.801Z</time></trkpt><trkpt lat="44.4909823" lon="4.7818185"><ele>142.5</ele><time>2026-04-10T14:59:41.799Z</time></trkpt><trkpt lat="44.4908656" lon="4.7818545"><ele>142.25</ele><time>2026-04-10T14:59:42.8Z</time></trkpt><trkpt lat="44.4907281" lon="4.7818901"><ele>142.0</ele><time>2026-04-10T14:59:43.801Z</time></trkpt><trkpt lat="44.4905761" lon="4.7819164"><ele>142.66666666666669</ele><time>2026-04-10T14:59:44.801Z</time></trkpt><trkpt lat="44.4904127" lon="4.7819364"><ele>143.33333333333334</ele><time>2026-04-10T14:59:45.799Z</time></trkpt><trkpt lat="44.490249" lon="4.7819444"><ele>144.0</ele><time>2026-04-10T14:59:46.805Z</time></trkpt><trkpt lat="44.4900743" lon="4.781931"><ele>144.0</ele><time>2026-04-10T14:59:47.802Z</time></trkpt><trkpt lat="44.4898994" lon="4.7819159"><ele>144.0</ele><time>2026-04-10T14:59:48.8Z</time></trkpt><trkpt lat="44.4897211" lon="4.7818886"><ele>144.0</ele><time>2026-04-10T14:59:49.8Z</time></trkpt><trkpt lat="44.4895431" lon="4.7818494"><ele>144.0</ele><time>2026-04-10T14:59:50.799Z</time></trkpt><trkpt lat="44.4893569" lon="4.7817798"><ele>144.0</ele><time>2026-04-10T14:59:51.801Z</time></trkpt><trkpt lat="44.4891703" lon="4.7817126"><ele>144.0</ele><time>2026-04-10T14:59:52.802Z</time></trkpt><trkpt lat="44.4889856" lon="4.7816221"><ele>144.0</ele><time>2026-04-10T14:59:53.802Z</time></trkpt><trkpt lat="44.4888001" lon="4.7815325"><ele>144.0</ele><time>2026-04-10T14:59:54.801Z</time></trkpt><trkpt lat="44.4886192" lon="4.7813995"><ele>144.0</ele><time>2026-04-10T14:59:55.8Z</time></trkpt><trkpt lat="44.4884425" lon="4.7812663"><ele>144.0</ele><time>2026-04-10T14:59:56.801Z</time></trkpt><trkpt lat="44.4882716" lon="4.78112"><ele>144.0</ele><time>2026-04-10T14:59:57.805Z</time></trkpt><trkpt lat="44.4881173" lon="4.7809614"><ele>144.0</ele><time>2026-04-10T14:59:58.804Z</time></trkpt><trkpt lat="44.4879648" lon="4.7808095"><ele>144.66666666666666</ele><time>2026-04-10T14:59:59.807Z</time></trkpt><trkpt lat="44.4878201" lon="4.780624"><ele>145.33333333333331</ele><time>2026-04-10T15:00:00.805Z</time></trkpt><trkpt lat="44.4876771" lon="4.780448"><ele>146.0</ele><time>2026-04-10T15:00:01.803Z</time></trkpt><trkpt lat="44.4875492" lon="4.7802735"><ele>146.0</ele><time>2026-04-10T15:00:02.799Z</time></trkpt><trkpt lat="44.4874258" lon="4.7800989"><ele>146.0</ele><time>2026-04-10T15:00:03.802Z</time></trkpt><trkpt lat="44.4872998" lon="4.7799237"><ele>146.0</ele><time>2026-04-10T15:00:04.799Z</time></trkpt><trkpt lat="44.4871616" lon="4.7797668"><ele>145.0</ele><time>2026-04-10T15:00:05.803Z</time></trkpt><trkpt lat="44.4870166" lon="4.7796222"><ele>144.0</ele><time>2026-04-10T15:00:06.803Z</time></trkpt><trkpt lat="44.4868645" lon="4.7794892"><ele>143.0</ele><time>2026-04-10T15:00:07.798Z</time></trkpt><trkpt lat="44.4867073" lon="4.7793558"><ele>142.66666666666666</ele><time>2026-04-10T15:00:08.804Z</time></trkpt><trkpt lat="44.4865506" lon="4.7792188"><ele>142.33333333333334</ele><time>2026-04-10T15:00:09.801Z</time></trkpt><trkpt lat="44.4863943" lon="4.7790812"><ele>142.0</ele><time>2026-04-10T15:00:10.808Z</time></trkpt><trkpt lat="44.4862388" lon="4.7789574"><ele>141.0</ele><time>2026-04-10T15:00:11.8Z</time></trkpt><trkpt lat="44.4860869" lon="4.7788321"><ele>140.0</ele><time>2026-04-10T15:00:12.799Z</time></trkpt><trkpt lat="44.4859419" lon="4.7787217"><ele>139.0</ele><time>2026-04-10T15:00:13.804Z</time></trkpt><trkpt lat="44.4858055" lon="4.7786102"><ele>139.0</ele><time>2026-04-10T15:00:14.802Z</time></trkpt><trkpt lat="44.485671" lon="4.7784911"><ele>139.0</ele><time>2026-04-10T15:00:15.799Z</time></trkpt><trkpt lat="44.4855324" lon="4.7783798"><ele>139.0</ele><time>2026-04-10T15:00:16.809Z</time></trkpt><trkpt lat="44.485391" lon="4.7782704"><ele>138.5</ele><time>2026-04-10T15:00:17.799Z</time></trkpt><trkpt lat="44.4852614" lon="4.7781639"><ele>138.0</ele><time>2026-04-10T15:00:18.8Z</time></trkpt><trkpt lat="44.4851317" lon="4.7780508"><ele>137.5</ele><time>2026-04-10T15:00:19.802Z</time></trkpt><trkpt lat="44.4850086" lon="4.7779407"><ele>137.0</ele><time>2026-04-10T15:00:20.799Z</time></trkpt><trkpt lat="44.4848802" lon="4.7778391"><ele>137.0</ele><time>2026-04-10T15:00:21.8Z</time></trkpt><trkpt lat="44.4847694" lon="4.777738"><ele>137.0</ele><time>2026-04-10T15:00:22.803Z</time></trkpt><trkpt lat="44.4846821" lon="4.7776105"><ele>137.0</ele><time>2026-04-10T15:00:23.812Z</time></trkpt><trkpt lat="44.4846135" lon="4.7774606"><ele>137.0</ele><time>2026-04-10T15:00:24.803Z</time></trkpt><trkpt lat="44.4845818" lon="4.7772847"><ele>137.25</ele><time>2026-04-10T15:00:25.8Z</time></trkpt><trkpt lat="44.4845789" lon="4.7770941"><ele>137.5</ele><time>2026-04-10T15:00:26.8Z</time></trkpt><trkpt lat="44.4845851" lon="4.7769007"><ele>137.75</ele><time>2026-04-10T15:00:27.799Z</time></trkpt><trkpt lat="44.4846088" lon="4.7766928"><ele>138.0</ele><time>2026-04-10T15:00:28.798Z</time></trkpt><trkpt lat="44.4846273" lon="4.7764723"><ele>137.33333333333334</ele><time>2026-04-10T15:00:29.8Z</time></trkpt><trkpt lat="44.4846466" lon="4.7762515"><ele>136.66666666666669</ele><time>2026-04-10T15:00:30.802Z</time></trkpt><trkpt lat="44.4846596" lon="4.7760103"><ele>136.0</ele><time>2026-04-10T15:00:31.801Z</time></trkpt><trkpt lat="44.4846802" lon="4.7757736"><ele>136.0</ele><time>2026-04-10T15:00:32.801Z</time></trkpt><trkpt lat="44.4847061" lon="4.7755342"><ele>136.0</ele><time>2026-04-10T15:00:33.803Z</time></trkpt><trkpt lat="44.4847249" lon="4.7752993"><ele>136.0</ele><time>2026-04-10T15:00:34.804Z</time></trkpt><trkpt lat="44.4847494" lon="4.775064"><ele>136.0</ele><time>2026-04-10T15:00:35.8Z</time></trkpt><trkpt lat="44.4847753" lon="4.7748236"><ele>136.0</ele><time>2026-04-10T15:00:36.802Z</time></trkpt><trkpt lat="44.4848045" lon="4.7745797"><ele>136.0</ele><time>2026-04-10T15:00:37.8Z</time></trkpt><trkpt lat="44.4848243" lon="4.7743422"><ele>136.0</ele><time>2026-04-10T15:00:38.8Z</time></trkpt><trkpt lat="44.4848531" lon="4.7740952"><ele>136.0</ele><time>2026-04-10T15:00:39.798Z</time></trkpt><trkpt lat="44.4848807" lon="4.7738531"><ele>136.0</ele><time>2026-04-10T15:00:40.802Z</time></trkpt><trkpt lat="44.4849087" lon="4.7736079"><ele>135.66666666666669</ele><time>2026-04-10T15:00:41.804Z</time></trkpt><trkpt lat="44.4849365" lon="4.7733661"><ele>135.33333333333334</ele><time>2026-04-10T15:00:42.8Z</time></trkpt><trkpt lat="44.4849575" lon="4.7731218"><ele>135.0</ele><time>2026-04-10T15:00:43.804Z</time></trkpt><trkpt lat="44.4849793" lon="4.772879"><ele>136.0</ele><time>2026-04-10T15:00:44.801Z</time></trkpt><trkpt lat="44.4850023" lon="4.7726292"><ele>137.0</ele><time>2026-04-10T15:00:45.798Z</time></trkpt><trkpt lat="44.4850236" lon="4.7723846"><ele>138.0</ele><time>2026-04-10T15:00:46.799Z</time></trkpt><trkpt lat="44.4850492" lon="4.7721457"><ele>138.0</ele><time>2026-04-10T15:00:47.798Z</time></trkpt><trkpt lat="44.4850681" lon="4.7718982"><ele>138.0</ele><time>2026-04-10T15:00:48.797Z</time></trkpt><trkpt lat="44.4850879" lon="4.7716509"><ele>138.0</ele><time>2026-04-10T15:00:49.803Z</time></trkpt><trkpt lat="44.4851093" lon="4.7713995"><ele>138.0</ele><time>2026-04-10T15:00:50.803Z</time></trkpt><trkpt lat="44.4851261" lon="4.7711527"><ele>138.0</ele><time>2026-04-10T15:00:51.802Z</time></trkpt><trkpt lat="44.4851399" lon="4.7708983"><ele>138.0</ele><time>2026-04-10T15:00:52.801Z</time></trkpt><trkpt lat="44.4851639" lon="4.7706443"><ele>138.0</ele><time>2026-04-10T15:00:53.801Z</time></trkpt><trkpt lat="44.4851763" lon="4.7703865"><ele>138.0</ele><time>2026-04-10T15:00:54.802Z</time></trkpt><trkpt lat="44.485194" lon="4.770129"><ele>138.0</ele><time>2026-04-10T15:00:55.799Z</time></trkpt><trkpt lat="44.4852103" lon="4.7698741"><ele>138.0</ele><time>2026-04-10T15:00:56.803Z</time></trkpt><trkpt lat="44.4852237" lon="4.7696139"><ele>138.0</ele><time>2026-04-10T15:00:57.802Z</time></trkpt><trkpt lat="44.4852327" lon="4.7693494"><ele>138.0</ele><time>2026-04-10T15:00:58.802Z</time></trkpt><trkpt lat="44.4852494" lon="4.7690824"><ele>137.33333333333334</ele><time>2026-04-10T15:00:59.8Z</time></trkpt><trkpt lat="44.4852675" lon="4.7688193"><ele>136.66666666666669</ele><time>2026-04-10T15:01:00.8Z</time></trkpt><trkpt lat="44.4852889" lon="4.7685556"><ele>136.0</ele><time>2026-04-10T15:01:01.8Z</time></trkpt><trkpt lat="44.4853027" lon="4.7682885"><ele>135.66666666666669</ele><time>2026-04-10T15:01:02.802Z</time></trkpt><trkpt lat="44.4853201" lon="4.7680162"><ele>135.33333333333334</ele><time>2026-04-10T15:01:03.805Z</time></trkpt><trkpt lat="44.4853414" lon="4.7677438"><ele>135.0</ele><time>2026-04-10T15:01:04.81Z</time></trkpt><trkpt lat="44.4853608" lon="4.7674746"><ele>134.66666666666666</ele><time>2026-04-10T15:01:05.807Z</time></trkpt><trkpt lat="44.4853793" lon="4.7672019"><ele>134.33333333333331</ele><time>2026-04-10T15:01:06.801Z</time></trkpt><trkpt lat="44.4854018" lon="4.76693"><ele>134.0</ele><time>2026-04-10T15:01:07.8Z</time></trkpt><trkpt lat="44.4854216" lon="4.7666609"><ele>133.33333333333331</ele><time>2026-04-10T15:01:08.8Z</time></trkpt><trkpt lat="44.4854391" lon="4.7663891"><ele>132.66666666666666</ele><time>2026-04-10T15:01:09.798Z</time></trkpt><trkpt lat="44.4854564" lon="4.7661215"><ele>132.0</ele><time>2026-04-10T15:01:10.799Z</time></trkpt><trkpt lat="44.4854774" lon="4.7658544"><ele>132.0</ele><time>2026-04-10T15:01:11.801Z</time></trkpt><trkpt lat="44.4854976" lon="4.7655901"><ele>132.0</ele><time>2026-04-10T15:01:12.803Z</time></trkpt><trkpt lat="44.4855149" lon="4.7653255"><ele>132.0</ele><time>2026-04-10T15:01:13.799Z</time></trkpt><trkpt lat="44.4855284" lon="4.7650608"><ele>131.66666666666666</ele><time>2026-04-10T15:01:14.799Z</time></trkpt><trkpt lat="44.4855442" lon="4.7647941"><ele>131.33333333333331</ele><time>2026-04-10T15:01:15.797Z</time></trkpt><trkpt lat="44.4855682" lon="4.764526"><ele>131.0</ele><time>2026-04-10T15:01:16.801Z</time></trkpt><trkpt lat="44.4855881" lon="4.7642559"><ele>130.66666666666666</ele><time>2026-04-10T15:01:17.81Z</time></trkpt><trkpt lat="44.4856079" lon="4.7639996"><ele>130.33333333333334</ele><time>2026-04-10T15:01:18.804Z</time></trkpt><trkpt lat="44.4856258" lon="4.7637621"><ele>130.0</ele><time>2026-04-10T15:01:19.801Z</time></trkpt><trkpt lat="44.4856404" lon="4.7635282"><ele>130.66666666666669</ele><time>2026-04-10T15:01:20.809Z</time></trkpt><trkpt lat="44.4856466" lon="4.7632917"><ele>131.33333333333334</ele><time>2026-04-10T15:01:21.808Z</time></trkpt><trkpt lat="44.4856286" lon="4.763065"><ele>132.0</ele><time>2026-04-10T15:01:22.805Z</time></trkpt><trkpt lat="44.4855713" lon="4.7628335"><ele>132.33333333333334</ele><time>2026-04-10T15:01:23.805Z</time></trkpt><trkpt lat="44.4854943" lon="4.7626079"><ele>132.66666666666669</ele><time>2026-04-10T15:01:24.806Z</time></trkpt><trkpt lat="44.4854071" lon="4.7623858"><ele>133.0</ele><time>2026-04-10T15:01:25.806Z</time></trkpt><trkpt lat="44.485319" lon="4.7621562"><ele>132.33333333333334</ele><time>2026-04-10T15:01:26.809Z</time></trkpt><trkpt lat="44.4852199" lon="4.7619157"><ele>131.66666666666666</ele><time>2026-04-10T15:01:27.803Z</time></trkpt><trkpt lat="44.4851206" lon="4.7616751"><ele>131.0</ele><time>2026-04-10T15:01:28.801Z</time></trkpt><trkpt lat="44.4850236" lon="4.7614265"><ele>131.0</ele><time>2026-04-10T15:01:29.803Z</time></trkpt><trkpt lat="44.4849256" lon="4.7611776"><ele>131.0</ele><time>2026-04-10T15:01:30.8Z</time></trkpt><trkpt lat="44.4848233" lon="4.7609325"><ele>131.0</ele><time>2026-04-10T15:01:31.802Z</time></trkpt><trkpt lat="44.4847328" lon="4.7607008"><ele>130.66666666666666</ele><time>2026-04-10T15:01:32.804Z</time></trkpt><trkpt lat="44.4846418" lon="4.7604702"><ele>130.33333333333334</ele><time>2026-04-10T15:01:33.804Z</time></trkpt><trkpt lat="44.4845469" lon="4.7602316"><ele>130.0</ele><time>2026-04-10T15:01:34.816Z</time></trkpt><trkpt lat="44.4844618" lon="4.7600168"><ele>129.0</ele><time>2026-04-10T15:01:35.806Z</time></trkpt><trkpt lat="44.4843845" lon="4.7598102"><ele>128.0</ele><time>2026-04-10T15:01:36.811Z</time></trkpt><trkpt lat="44.4843153" lon="4.7595993"><ele>127.0</ele><time>2026-04-10T15:01:37.804Z</time></trkpt><trkpt lat="44.4842598" lon="4.7593711"><ele>126.66666666666667</ele><time>2026-04-10T15:01:38.804Z</time></trkpt><trkpt lat="44.4842384" lon="4.759149"><ele>126.33333333333334</ele><time>2026-04-10T15:01:39.8Z</time></trkpt><trkpt lat="44.4842549" lon="4.7589268"><ele>126.0</ele><time>2026-04-10T15:01:40.801Z</time></trkpt><trkpt lat="44.4843062" lon="4.7586998"><ele>125.66666666666666</ele><time>2026-04-10T15:01:41.801Z</time></trkpt><trkpt lat="44.4843611" lon="4.7584661"><ele>125.33333333333333</ele><time>2026-04-10T15:01:42.801Z</time></trkpt><trkpt lat="44.4844128" lon="4.7582349"><ele>125.0</ele><time>2026-04-10T15:01:43.809Z</time></trkpt><trkpt lat="44.4844694" lon="4.7580076"><ele>125.0</ele><time>2026-04-10T15:01:44.805Z</time></trkpt><trkpt lat="44.4845263" lon="4.7577932"><ele>125.0</ele><time>2026-04-10T15:01:45.799Z</time></trkpt><trkpt lat="44.484575" lon="4.7575716"><ele>125.0</ele><time>2026-04-10T15:01:46.8Z</time></trkpt><trkpt lat="44.4846273" lon="4.7573686"><ele>124.75</ele><time>2026-04-10T15:01:47.8Z</time></trkpt><trkpt lat="44.4846751" lon="4.7571738"><ele>124.5</ele><time>2026-04-10T15:01:48.798Z</time></trkpt><trkpt lat="44.4847252" lon="4.7569741"><ele>124.25</ele><time>2026-04-10T15:01:49.796Z</time></trkpt><trkpt lat="44.4847742" lon="4.7567848"><ele>124.0</ele><time>2026-04-10T15:01:50.801Z</time></trkpt><trkpt lat="44.4848135" lon="4.7566042"><ele>124.0</ele><time>2026-04-10T15:01:51.803Z</time></trkpt><trkpt lat="44.4848533" lon="4.7564344"><ele>124.0</ele><time>2026-04-10T15:01:52.806Z</time></trkpt><trkpt lat="44.4848875" lon="4.7562868"><ele>124.0</ele><time>2026-04-10T15:01:53.809Z</time></trkpt><trkpt lat="44.4849234" lon="4.7561482"><ele>124.0</ele><time>2026-04-10T15:01:54.799Z</time></trkpt><trkpt lat="44.4849646" lon="4.7560143"><ele>124.0</ele><time>2026-04-10T15:01:55.797Z</time></trkpt><trkpt lat="44.4850092" lon="4.7558887"><ele>123.50000000000001</ele><time>2026-04-10T15:01:56.796Z</time></trkpt><trkpt lat="44.485052" lon="4.7557796"><ele>123.0</ele><time>2026-04-10T15:01:57.798Z</time></trkpt><trkpt lat="44.485088" lon="4.7556916"><ele>122.5</ele><time>2026-04-10T15:01:58.801Z</time></trkpt><trkpt lat="44.4850997" lon="4.7555666"><ele>122.0</ele><time>2026-04-10T15:02:00.802Z</time></trkpt><trkpt lat="44.4850908" lon="4.7554358"><ele>121.50000000000001</ele><time>2026-04-10T15:02:08.803Z</time></trkpt><trkpt lat="44.4850822" lon="4.7553339"><ele>121.0</ele><time>2026-04-10T15:02:09.804Z</time></trkpt><trkpt lat="44.4850767" lon="4.7552253"><ele>120.33333333333334</ele><time>2026-04-10T15:02:10.803Z</time></trkpt><trkpt lat="44.4851119" lon="4.7551176"><ele>119.66666666666667</ele><time>2026-04-10T15:02:11.805Z</time></trkpt><trkpt lat="44.4851448" lon="4.7550139"><ele>119.0</ele><time>2026-04-10T15:02:12.804Z</time></trkpt><trkpt lat="44.485218" lon="4.7549485"><ele>118.33333333333334</ele><time>2026-04-10T15:02:13.807Z</time></trkpt><trkpt lat="44.4852919" lon="4.7548706"><ele>117.66666666666667</ele><time>2026-04-10T15:02:14.808Z</time></trkpt><trkpt lat="44.4853697" lon="4.7547881"><ele>117.0</ele><time>2026-04-10T15:02:15.802Z</time></trkpt><trkpt lat="44.4854521" lon="4.7546962"><ele>117.0</ele><time>2026-04-10T15:02:16.806Z</time></trkpt><trkpt lat="44.4855356" lon="4.7545964"><ele>116.99999999999999</ele><time>2026-04-10T15:02:17.798Z</time></trkpt><trkpt lat="44.4856131" lon="4.7545002"><ele>116.99999999999999</ele><time>2026-04-10T15:02:18.8Z</time></trkpt><trkpt lat="44.48569" lon="4.7544049"><ele>117.0</ele><time>2026-04-10T15:02:19.814Z</time></trkpt><trkpt lat="44.4857606" lon="4.7543118"><ele>117.0</ele><time>2026-04-10T15:02:20.799Z</time></trkpt><trkpt lat="44.4858316" lon="4.754231"><ele>116.5</ele><time>2026-04-10T15:02:21.805Z</time></trkpt><trkpt lat="44.4858955" lon="4.7541518"><ele>116.0</ele><time>2026-04-10T15:02:22.801Z</time></trkpt><trkpt lat="44.4859557" lon="4.7540687"><ele>115.5</ele><time>2026-04-10T15:02:23.799Z</time></trkpt><trkpt lat="44.4860068" lon="4.7539718"><ele>115.0</ele><time>2026-04-10T15:02:24.8Z</time></trkpt><trkpt lat="44.4860473" lon="4.7538672"><ele>114.5</ele><time>2026-04-10T15:02:25.804Z</time></trkpt><trkpt lat="44.4860718" lon="4.7537615"><ele>114.0</ele><time>2026-04-10T15:02:26.8Z</time></trkpt><trkpt lat="44.4860894" lon="4.7536616"><ele>114.0</ele><time>2026-04-10T15:02:27.799Z</time></trkpt><trkpt lat="44.4861017" lon="4.7535466"><ele>114.0</ele><time>2026-04-10T15:02:28.801Z</time></trkpt><trkpt lat="44.486108" lon="4.7534266"><ele>114.0</ele><time>2026-04-10T15:02:29.804Z</time></trkpt><trkpt lat="44.4861175" lon="4.7533097"><ele>114.0</ele><time>2026-04-10T15:02:30.801Z</time></trkpt><trkpt lat="44.4861306" lon="4.7531959"><ele>114.0</ele><time>2026-04-10T15:02:31.799Z</time></trkpt><trkpt lat="44.4861351" lon="4.7530908"><ele>114.0</ele><time>2026-04-10T15:02:32.798Z</time></trkpt><trkpt lat="44.4861458" lon="4.7529251"><ele>113.80000000000001</ele><time>2026-04-10T15:02:34.802Z</time></trkpt><trkpt lat="44.4861586" lon="4.7527644"><ele>113.60000000000001</ele><time>2026-04-10T15:02:36.799Z</time></trkpt><trkpt lat="44.4861912" lon="4.75263"><ele>113.4</ele><time>2026-04-10T15:02:38.801Z</time></trkpt><trkpt lat="44.4862153" lon="4.7525069"><ele>113.2</ele><time>2026-04-10T15:02:40.798Z</time></trkpt><trkpt lat="44.4861849" lon="4.7523576"><ele>113.0</ele><time>2026-04-10T15:02:42.799Z</time></trkpt><trkpt lat="44.4861615" lon="4.7522744"><ele>112.99999999999999</ele><time>2026-04-10T15:02:43.8Z</time></trkpt><trkpt lat="44.4861563" lon="4.7521745"><ele>113.0</ele><time>2026-04-10T15:02:44.798Z</time></trkpt><trkpt lat="44.4861445" lon="4.7520632"><ele>113.0</ele><time>2026-04-10T15:02:45.8Z</time></trkpt><trkpt lat="44.4861304" lon="4.7519584"><ele>113.0</ele><time>2026-04-10T15:02:46.802Z</time></trkpt><trkpt lat="44.4861193" lon="4.7518563"><ele>112.99999999999999</ele><time>2026-04-10T15:02:47.796Z</time></trkpt><trkpt lat="44.486114" lon="4.751745"><ele>113.0</ele><time>2026-04-10T15:02:48.804Z</time></trkpt><trkpt lat="44.4861089" lon="4.7516406"><ele>112.83333333333333</ele><time>2026-04-10T15:02:49.801Z</time></trkpt><trkpt lat="44.4861042" lon="4.7515367"><ele>112.66666666666666</ele><time>2026-04-10T15:02:50.797Z</time></trkpt><trkpt lat="44.4860851" lon="4.751437"><ele>112.5</ele><time>2026-04-10T15:02:51.8Z</time></trkpt><trkpt lat="44.4860642" lon="4.751333"><ele>112.33333333333334</ele><time>2026-04-10T15:02:52.8Z</time></trkpt><trkpt lat="44.4860526" lon="4.7512296"><ele>112.16666666666667</ele><time>2026-04-10T15:02:53.8Z</time></trkpt><trkpt lat="44.4860338" lon="4.7511237"><ele>112.0</ele><time>2026-04-10T15:02:54.8Z</time></trkpt><trkpt lat="44.486022" lon="4.7510208"><ele>111.83333333333334</ele><time>2026-04-10T15:02:55.802Z</time></trkpt><trkpt lat="44.4860015" lon="4.7509165"><ele>111.66666666666667</ele><time>2026-04-10T15:02:56.799Z</time></trkpt><trkpt lat="44.4859873" lon="4.7508117"><ele>111.5</ele><time>2026-04-10T15:02:57.802Z</time></trkpt><trkpt lat="44.4859713" lon="4.7507113"><ele>111.33333333333334</ele><time>2026-04-10T15:02:58.804Z</time></trkpt><trkpt lat="44.4859561" lon="4.750611"><ele>111.16666666666667</ele><time>2026-04-10T15:02:59.8Z</time></trkpt><trkpt lat="44.4859369" lon="4.7504992"><ele>111.0</ele><time>2026-04-10T15:03:00.799Z</time></trkpt><trkpt lat="44.4859175" lon="4.7503925"><ele>111.0</ele><time>2026-04-10T15:03:01.798Z</time></trkpt><trkpt lat="44.4859179" lon="4.750283"><ele>111.0</ele><time>2026-04-10T15:03:02.798Z</time></trkpt><trkpt lat="44.4859132" lon="4.7501695"><ele>111.0</ele><time>2026-04-10T15:03:03.802Z</time></trkpt><trkpt lat="44.4859141" lon="4.750048"><ele>111.0</ele><time>2026-04-10T15:03:04.798Z</time></trkpt><trkpt lat="44.4859185" lon="4.7499391"><ele>111.0</ele><time>2026-04-10T15:03:05.801Z</time></trkpt><trkpt lat="44.4859288" lon="4.749823"><ele>111.0</ele><time>2026-04-10T15:03:06.8Z</time></trkpt><trkpt lat="44.4859373" lon="4.7497108"><ele>110.66666666666667</ele><time>2026-04-10T15:03:07.802Z</time></trkpt><trkpt lat="44.4859505" lon="4.7495922"><ele>110.33333333333334</ele><time>2026-04-10T15:03:08.799Z</time></trkpt><trkpt lat="44.4859554" lon="4.7494761"><ele>110.0</ele><time>2026-04-10T15:03:09.8Z</time></trkpt><trkpt lat="44.4859646" lon="4.7493529"><ele>109.66666666666667</ele><time>2026-04-10T15:03:10.802Z</time></trkpt><trkpt lat="44.4859802" lon="4.7492277"><ele>109.33333333333334</ele><time>2026-04-10T15:03:11.796Z</time></trkpt><trkpt lat="44.4860001" lon="4.7491018"><ele>109.0</ele><time>2026-04-10T15:03:12.8Z</time></trkpt><trkpt lat="44.4860121" lon="4.748973"><ele>109.0</ele><time>2026-04-10T15:03:13.802Z</time></trkpt><trkpt lat="44.486018" lon="4.7488338"><ele>109.0</ele><time>2026-04-10T15:03:14.802Z</time></trkpt><trkpt lat="44.4860268" lon="4.7487014"><ele>109.0</ele><time>2026-04-10T15:03:15.802Z</time></trkpt><trkpt lat="44.4860342" lon="4.7485503"><ele>109.0</ele><time>2026-04-10T15:03:16.801Z</time></trkpt><trkpt lat="44.4860473" lon="4.7483982"><ele>109.0</ele><time>2026-04-10T15:03:17.802Z</time></trkpt><trkpt lat="44.4860588" lon="4.7482438"><ele>109.80000000000001</ele><time>2026-04-10T15:03:18.8Z</time></trkpt><trkpt lat="44.4860709" lon="4.7480899"><ele>110.60000000000001</ele><time>2026-04-10T15:03:19.801Z</time></trkpt><trkpt lat="44.4860699" lon="4.7479479"><ele>111.4</ele><time>2026-04-10T15:03:20.801Z</time></trkpt><trkpt lat="44.4860703" lon="4.7477951"><ele>112.2</ele><time>2026-04-10T15:03:21.803Z</time></trkpt><trkpt lat="44.486059" lon="4.7476486"><ele>113.0</ele><time>2026-04-10T15:03:22.81Z</time></trkpt><trkpt lat="44.4860357" lon="4.7475037"><ele>114.75</ele><time>2026-04-10T15:03:23.805Z</time></trkpt><trkpt lat="44.4860118" lon="4.7473655"><ele>116.5</ele><time>2026-04-10T15:03:24.801Z</time></trkpt><trkpt lat="44.485986" lon="4.7472046"><ele>118.25</ele><time>2026-04-10T15:03:25.801Z</time></trkpt><trkpt lat="44.4859543" lon="4.7470474"><ele>120.0</ele><time>2026-04-10T15:03:26.8Z</time></trkpt><trkpt lat="44.4858742" lon="4.7469088"><ele>120.5</ele><time>2026-04-10T15:03:27.801Z</time></trkpt><trkpt lat="44.4858235" lon="4.7467747"><ele>121.0</ele><time>2026-04-10T15:03:28.8Z</time></trkpt><trkpt lat="44.4857522" lon="4.7466472"><ele>121.5</ele><time>2026-04-10T15:03:29.804Z</time></trkpt><trkpt lat="44.4856672" lon="4.7465335"><ele>122.0</ele><time>2026-04-10T15:03:30.801Z</time></trkpt><trkpt lat="44.4855824" lon="4.7464185"><ele>122.0</ele><time>2026-04-10T15:03:31.799Z</time></trkpt><trkpt lat="44.4854595" lon="4.7463099"><ele>122.0</ele><time>2026-04-10T15:03:32.804Z</time></trkpt><trkpt lat="44.485355" lon="4.7462103"><ele>122.0</ele><time>2026-04-10T15:03:33.801Z</time></trkpt><trkpt lat="44.4852923" lon="4.7460684"><ele>122.0</ele><time>2026-04-10T15:03:34.8Z</time></trkpt><trkpt lat="44.4852168" lon="4.7459284"><ele>123.0</ele><time>2026-04-10T15:03:35.8Z</time></trkpt><trkpt lat="44.4851621" lon="4.7457722"><ele>124.0</ele><time>2026-04-10T15:03:36.805Z</time></trkpt><trkpt lat="44.4851521" lon="4.745604"><ele>125.0</ele><time>2026-04-10T15:03:37.805Z</time></trkpt><trkpt lat="44.4851467" lon="4.7454355"><ele>126.0</ele><time>2026-04-10T15:03:38.8Z</time></trkpt><trkpt lat="44.4852062" lon="4.7452744"><ele>126.25</ele><time>2026-04-10T15:03:39.802Z</time></trkpt><trkpt lat="44.4852809" lon="4.7451353"><ele>126.5</ele><time>2026-04-10T15:03:40.804Z</time></trkpt><trkpt lat="44.4853875" lon="4.7450255"><ele>126.75</ele><time>2026-04-10T15:03:41.798Z</time></trkpt><trkpt lat="44.4854953" lon="4.7449406"><ele>127.0</ele><time>2026-04-10T15:03:42.808Z</time></trkpt><trkpt lat="44.485593" lon="4.744853"><ele>127.0</ele><time>2026-04-10T15:03:43.802Z</time></trkpt><trkpt lat="44.4856847" lon="4.7447377"><ele>127.0</ele><time>2026-04-10T15:03:44.801Z</time></trkpt><trkpt lat="44.4857535" lon="4.7445882"><ele>127.0</ele><time>2026-04-10T15:03:45.797Z</time></trkpt><trkpt lat="44.4857995" lon="4.7444209"><ele>127.0</ele><time>2026-04-10T15:03:46.796Z</time></trkpt><trkpt lat="44.4858291" lon="4.7442396"><ele>127.25</ele><time>2026-04-10T15:03:47.8Z</time></trkpt><trkpt lat="44.4858548" lon="4.7440704"><ele>127.5</ele><time>2026-04-10T15:03:48.819Z</time></trkpt><trkpt lat="44.4858812" lon="4.7439071"><ele>127.75</ele><time>2026-04-10T15:03:49.812Z</time></trkpt><trkpt lat="44.4858999" lon="4.7437424"><ele>128.0</ele><time>2026-04-10T15:03:50.8Z</time></trkpt><trkpt lat="44.4859239" lon="4.7435926"><ele>127.75</ele><time>2026-04-10T15:03:51.796Z</time></trkpt><trkpt lat="44.4859367" lon="4.7434441"><ele>127.5</ele><time>2026-04-10T15:03:52.802Z</time></trkpt><trkpt lat="44.4859077" lon="4.743288"><ele>127.25</ele><time>2026-04-10T15:03:53.802Z</time></trkpt><trkpt lat="44.4858454" lon="4.7431325"><ele>127.0</ele><time>2026-04-10T15:03:54.801Z</time></trkpt><trkpt lat="44.4857785" lon="4.7429901"><ele>127.0</ele><time>2026-04-10T15:03:55.799Z</time></trkpt><trkpt lat="44.4857045" lon="4.742846"><ele>127.0</ele><time>2026-04-10T15:03:56.798Z</time></trkpt><trkpt lat="44.4856411" lon="4.7427065"><ele>127.0</ele><time>2026-04-10T15:03:57.799Z</time></trkpt><trkpt lat="44.4855929" lon="4.7425719"><ele>127.0</ele><time>2026-04-10T15:03:58.797Z</time></trkpt><trkpt lat="44.4856099" lon="4.7424297"><ele>126.39999999999999</ele><time>2026-04-10T15:03:59.798Z</time></trkpt><trkpt lat="44.4856642" lon="4.7423147"><ele>125.79999999999998</ele><time>2026-04-10T15:04:00.801Z</time></trkpt><trkpt lat="44.4857394" lon="4.7422189"><ele>125.2</ele><time>2026-04-10T15:04:01.799Z</time></trkpt><trkpt lat="44.4858202" lon="4.7421412"><ele>124.6</ele><time>2026-04-10T15:04:02.798Z</time></trkpt><trkpt lat="44.4859268" lon="4.7421276"><ele>124.0</ele><time>2026-04-10T15:04:03.804Z</time></trkpt><trkpt lat="44.4860038" lon="4.7420894"><ele>124.00000000000001</ele><time>2026-04-10T15:04:04.8Z</time></trkpt><trkpt lat="44.486072" lon="4.7420757"><ele>124.0</ele><time>2026-04-10T15:04:05.802Z</time></trkpt><trkpt lat="44.4861536" lon="4.7420373"><ele>124.0</ele><time>2026-04-10T15:04:07.812Z</time></trkpt><trkpt lat="44.4862259" lon="4.7420194"><ele>124.0</ele><time>2026-04-10T15:04:16.802Z</time></trkpt><trkpt lat="44.4863104" lon="4.7420211"><ele>124.00000000000001</ele><time>2026-04-10T15:04:18.804Z</time></trkpt><trkpt lat="44.486375" lon="4.7420167"><ele>124.0</ele><time>2026-04-10T15:04:21.799Z</time></trkpt><trkpt lat="44.4864753" lon="4.7420432"><ele>123.57142857142858</ele><time>2026-04-10T15:04:24.804Z</time></trkpt><trkpt lat="44.4865718" lon="4.7420137"><ele>123.14285714285715</ele><time>2026-04-10T15:04:26.8Z</time></trkpt><trkpt lat="44.4866206" lon="4.741952"><ele>122.71428571428572</ele><time>2026-04-10T15:04:27.8Z</time></trkpt><trkpt lat="44.4866577" lon="4.7418716"><ele>122.28571428571428</ele><time>2026-04-10T15:04:28.8Z</time></trkpt><trkpt lat="44.4866917" lon="4.7417969"><ele>121.85714285714285</ele><time>2026-04-10T15:04:29.8Z</time></trkpt><trkpt lat="44.4867278" lon="4.7417079"><ele>121.42857142857142</ele><time>2026-04-10T15:04:30.8Z</time></trkpt><trkpt lat="44.4867681" lon="4.7416224"><ele>121.0</ele><time>2026-04-10T15:04:31.798Z</time></trkpt><trkpt lat="44.4868177" lon="4.7415378"><ele>120.83333333333334</ele><time>2026-04-10T15:04:32.802Z</time></trkpt><trkpt lat="44.486863" lon="4.7414495"><ele>120.66666666666667</ele><time>2026-04-10T15:04:33.798Z</time></trkpt><trkpt lat="44.4869084" lon="4.7413608"><ele>120.5</ele><time>2026-04-10T15:04:34.799Z</time></trkpt><trkpt lat="44.4869565" lon="4.7412697"><ele>120.33333333333334</ele><time>2026-04-10T15:04:35.804Z</time></trkpt><trkpt lat="44.487008" lon="4.7411647"><ele>120.16666666666667</ele><time>2026-04-10T15:04:36.804Z</time></trkpt><trkpt lat="44.4870556" lon="4.7410616"><ele>120.0</ele><time>2026-04-10T15:04:37.798Z</time></trkpt><trkpt lat="44.4871141" lon="4.7409561"><ele>121.6</ele><time>2026-04-10T15:04:38.802Z</time></trkpt><trkpt lat="44.4871749" lon="4.7408634"><ele>123.2</ele><time>2026-04-10T15:04:39.801Z</time></trkpt><trkpt lat="44.4872243" lon="4.7407444"><ele>124.80000000000001</ele><time>2026-04-10T15:04:40.8Z</time></trkpt><trkpt lat="44.4872782" lon="4.7406348"><ele>126.4</ele><time>2026-04-10T15:04:41.801Z</time></trkpt><trkpt lat="44.4873194" lon="4.7405132"><ele>128.0</ele><time>2026-04-10T15:04:42.817Z</time></trkpt><trkpt lat="44.4873615" lon="4.7403828"><ele>128.0</ele><time>2026-04-10T15:04:43.805Z</time></trkpt><trkpt lat="44.4874054" lon="4.7402462"><ele>128.0</ele><time>2026-04-10T15:04:44.802Z</time></trkpt><trkpt lat="44.4874457" lon="4.7401137"><ele>128.0</ele><time>2026-04-10T15:04:45.803Z</time></trkpt><trkpt lat="44.4874772" lon="4.7399747"><ele>128.0</ele><time>2026-04-10T15:04:46.805Z</time></trkpt><trkpt lat="44.4874941" lon="4.7398242"><ele>128.0</ele><time>2026-04-10T15:04:47.806Z</time></trkpt><trkpt lat="44.4875016" lon="4.7396676"><ele>128.75</ele><time>2026-04-10T15:04:48.801Z</time></trkpt><trkpt lat="44.4874953" lon="4.7395038"><ele>129.5</ele><time>2026-04-10T15:04:49.799Z</time></trkpt><trkpt lat="44.4874743" lon="4.7393364"><ele>130.25</ele><time>2026-04-10T15:04:50.803Z</time></trkpt><trkpt lat="44.4874378" lon="4.7391693"><ele>131.0</ele><time>2026-04-10T15:04:51.801Z</time></trkpt><trkpt lat="44.4873844" lon="4.7389986"><ele>131.0</ele><time>2026-04-10T15:04:52.8Z</time></trkpt><trkpt lat="44.4873318" lon="4.7388357"><ele>131.0</ele><time>2026-04-10T15:04:53.799Z</time></trkpt><trkpt lat="44.4872689" lon="4.738675"><ele>131.0</ele><time>2026-04-10T15:04:54.803Z</time></trkpt><trkpt lat="44.4872059" lon="4.738516"><ele>131.0</ele><time>2026-04-10T15:04:55.802Z</time></trkpt><trkpt lat="44.4871442" lon="4.7383622"><ele>130.75</ele><time>2026-04-10T15:04:56.812Z</time></trkpt><trkpt lat="44.4870896" lon="4.7382027"><ele>130.5</ele><time>2026-04-10T15:04:57.809Z</time></trkpt><trkpt lat="44.4870403" lon="4.7380451"><ele>130.25</ele><time>2026-04-10T15:04:58.801Z</time></trkpt><trkpt lat="44.4869965" lon="4.7378723"><ele>130.0</ele><time>2026-04-10T15:04:59.799Z</time></trkpt><trkpt lat="44.4869632" lon="4.7376919"><ele>130.0</ele><time>2026-04-10T15:05:00.802Z</time></trkpt><trkpt lat="44.4869308" lon="4.7375056"><ele>130.0</ele><time>2026-04-10T15:05:01.801Z</time></trkpt><trkpt lat="44.4869034" lon="4.7373085"><ele>130.0</ele><time>2026-04-10T15:05:02.803Z</time></trkpt><trkpt lat="44.4868747" lon="4.7371243"><ele>130.0</ele><time>2026-04-10T15:05:03.8Z</time></trkpt><trkpt lat="44.486852" lon="4.7369431"><ele>128.5</ele><time>2026-04-10T15:05:04.801Z</time></trkpt><trkpt lat="44.4868289" lon="4.7367671"><ele>127.0</ele><time>2026-04-10T15:05:05.803Z</time></trkpt><trkpt lat="44.486803" lon="4.7365778"><ele>125.5</ele><time>2026-04-10T15:05:06.804Z</time></trkpt><trkpt lat="44.4867855" lon="4.7363894"><ele>124.0</ele><time>2026-04-10T15:05:07.803Z</time></trkpt><trkpt lat="44.4867593" lon="4.7362171"><ele>123.25</ele><time>2026-04-10T15:05:08.807Z</time></trkpt><trkpt lat="44.4867376" lon="4.7360445"><ele>122.5</ele><time>2026-04-10T15:05:09.802Z</time></trkpt><trkpt lat="44.4867086" lon="4.7358736"><ele>121.75</ele><time>2026-04-10T15:05:10.798Z</time></trkpt><trkpt lat="44.486686" lon="4.7356982"><ele>121.0</ele><time>2026-04-10T15:05:11.802Z</time></trkpt><trkpt lat="44.4866719" lon="4.7355159"><ele>121.0</ele><time>2026-04-10T15:05:12.799Z</time></trkpt><trkpt lat="44.4866711" lon="4.7353232"><ele>121.0</ele><time>2026-04-10T15:05:13.8Z</time></trkpt><trkpt lat="44.4866798" lon="4.7351377"><ele>121.0</ele><time>2026-04-10T15:05:14.798Z</time></trkpt><trkpt lat="44.4866978" lon="4.7349543"><ele>121.0</ele><time>2026-04-10T15:05:15.8Z</time></trkpt><trkpt lat="44.4867164" lon="4.7347717"><ele>120.75</ele><time>2026-04-10T15:05:16.799Z</time></trkpt><trkpt lat="44.4867346" lon="4.7345884"><ele>120.5</ele><time>2026-04-10T15:05:17.801Z</time></trkpt><trkpt lat="44.4867504" lon="4.7343995"><ele>120.25</ele><time>2026-04-10T15:05:18.801Z</time></trkpt><trkpt lat="44.4867666" lon="4.7342104"><ele>120.0</ele><time>2026-04-10T15:05:19.799Z</time></trkpt><trkpt lat="44.4867881" lon="4.734021"><ele>120.0</ele><time>2026-04-10T15:05:20.8Z</time></trkpt><trkpt lat="44.4868011" lon="4.7338443"><ele>120.0</ele><time>2026-04-10T15:05:21.801Z</time></trkpt><trkpt lat="44.4868186" lon="4.7336672"><ele>120.0</ele><time>2026-04-10T15:05:22.802Z</time></trkpt><trkpt lat="44.4868362" lon="4.7334947"><ele>120.0</ele><time>2026-04-10T15:05:23.801Z</time></trkpt><trkpt lat="44.486843" lon="4.7333364"><ele>120.2</ele><time>2026-04-10T15:05:24.805Z</time></trkpt><trkpt lat="44.4868456" lon="4.7332034"><ele>120.4</ele><time>2026-04-10T15:05:25.798Z</time></trkpt><trkpt lat="44.4868485" lon="4.7330665"><ele>120.6</ele><time>2026-04-10T15:05:26.799Z</time></trkpt><trkpt lat="44.4868542" lon="4.7329063"><ele>120.8</ele><time>2026-04-10T15:05:27.803Z</time></trkpt><trkpt lat="44.4868546" lon="4.7327367"><ele>121.0</ele><time>2026-04-10T15:05:28.802Z</time></trkpt><trkpt lat="44.4868349" lon="4.7325471"><ele>121.5</ele><time>2026-04-10T15:05:29.803Z</time></trkpt><trkpt lat="44.4868063" lon="4.7323534"><ele>122.0</ele><time>2026-04-10T15:05:30.8Z</time></trkpt><trkpt lat="44.4867695" lon="4.73215"><ele>122.5</ele><time>2026-04-10T15:05:31.8Z</time></trkpt><trkpt lat="44.4867314" lon="4.731944"><ele>123.0</ele><time>2026-04-10T15:05:32.8Z</time></trkpt><trkpt lat="44.486687" lon="4.7317377"><ele>123.0</ele><time>2026-04-10T15:05:33.8Z</time></trkpt><trkpt lat="44.4866416" lon="4.7315153"><ele>123.0</ele><time>2026-04-10T15:05:34.804Z</time></trkpt><trkpt lat="44.486609" lon="4.7313052"><ele>123.0</ele><time>2026-04-10T15:05:35.8Z</time></trkpt><trkpt lat="44.4865724" lon="4.7310921"><ele>120.66666666666666</ele><time>2026-04-10T15:05:36.807Z</time></trkpt><trkpt lat="44.4865385" lon="4.7308697"><ele>118.33333333333333</ele><time>2026-04-10T15:05:37.803Z</time></trkpt><trkpt lat="44.4865023" lon="4.7306565"><ele>116.0</ele><time>2026-04-10T15:05:38.799Z</time></trkpt><trkpt lat="44.486461" lon="4.7304498"><ele>116.0</ele><time>2026-04-10T15:05:39.801Z</time></trkpt><trkpt lat="44.4864205" lon="4.7302414"><ele>116.0</ele><time>2026-04-10T15:05:40.803Z</time></trkpt><trkpt lat="44.4863775" lon="4.730029"><ele>116.0</ele><time>2026-04-10T15:05:41.807Z</time></trkpt><trkpt lat="44.4863651" lon="4.729825"><ele>116.33333333333333</ele><time>2026-04-10T15:05:42.802Z</time></trkpt><trkpt lat="44.4863633" lon="4.7296073"><ele>116.66666666666666</ele><time>2026-04-10T15:05:43.805Z</time></trkpt><trkpt lat="44.4863663" lon="4.7293917"><ele>117.0</ele><time>2026-04-10T15:05:44.8Z</time></trkpt><trkpt lat="44.4863752" lon="4.7291685"><ele>117.0</ele><time>2026-04-10T15:05:45.802Z</time></trkpt><trkpt lat="44.4863803" lon="4.7289474"><ele>117.0</ele><time>2026-04-10T15:05:46.803Z</time></trkpt><trkpt lat="44.486384" lon="4.728729"><ele>117.0</ele><time>2026-04-10T15:05:47.799Z</time></trkpt><trkpt lat="44.4863888" lon="4.7284966"><ele>116.33333333333334</ele><time>2026-04-10T15:05:48.8Z</time></trkpt><trkpt lat="44.4863895" lon="4.728274"><ele>115.66666666666667</ele><time>2026-04-10T15:05:49.801Z</time></trkpt><trkpt lat="44.4863912" lon="4.7280524"><ele>115.0</ele><time>2026-04-10T15:05:50.804Z</time></trkpt><trkpt lat="44.4863969" lon="4.7278267"><ele>114.33333333333334</ele><time>2026-04-10T15:05:51.801Z</time></trkpt><trkpt lat="44.4863894" lon="4.727606"><ele>113.66666666666666</ele><time>2026-04-10T15:05:52.8Z</time></trkpt><trkpt lat="44.4863926" lon="4.7273794"><ele>113.0</ele><time>2026-04-10T15:05:53.808Z</time></trkpt><trkpt lat="44.4863949" lon="4.7271453"><ele>113.0</ele><time>2026-04-10T15:05:54.808Z</time></trkpt><trkpt lat="44.4863937" lon="4.7269102"><ele>113.0</ele><time>2026-04-10T15:05:55.8Z</time></trkpt><trkpt lat="44.4863969" lon="4.7266755"><ele>113.0</ele><time>2026-04-10T15:05:56.801Z</time></trkpt><trkpt lat="44.4864027" lon="4.7264405"><ele>113.33333333333333</ele><time>2026-04-10T15:05:57.799Z</time></trkpt><trkpt lat="44.4864034" lon="4.726201"><ele>113.66666666666666</ele><time>2026-04-10T15:05:58.805Z</time></trkpt><trkpt lat="44.4864061" lon="4.725959"><ele>114.0</ele><time>2026-04-10T15:05:59.806Z</time></trkpt><trkpt lat="44.4864132" lon="4.7257173"><ele>113.33333333333334</ele><time>2026-04-10T15:06:00.802Z</time></trkpt><trkpt lat="44.4864202" lon="4.7254672"><ele>112.66666666666667</ele><time>2026-04-10T15:06:01.801Z</time></trkpt><trkpt lat="44.486432" lon="4.7252311"><ele>112.0</ele><time>2026-04-10T15:06:02.806Z</time></trkpt><trkpt lat="44.4864278" lon="4.724989"><ele>111.66666666666667</ele><time>2026-04-10T15:06:03.802Z</time></trkpt><trkpt lat="44.4864252" lon="4.7247525"><ele>111.33333333333334</ele><time>2026-04-10T15:06:04.8Z</time></trkpt><trkpt lat="44.4864265" lon="4.7245171"><ele>111.0</ele><time>2026-04-10T15:06:05.8Z</time></trkpt><trkpt lat="44.4864273" lon="4.7242814"><ele>111.0</ele><time>2026-04-10T15:06:06.799Z</time></trkpt><trkpt lat="44.4864266" lon="4.7240415"><ele>111.0</ele><time>2026-04-10T15:06:07.802Z</time></trkpt><trkpt lat="44.4864359" lon="4.7238049"><ele>111.0</ele><time>2026-04-10T15:06:08.802Z</time></trkpt><trkpt lat="44.4864385" lon="4.7235736"><ele>111.33333333333334</ele><time>2026-04-10T15:06:09.801Z</time></trkpt><trkpt lat="44.4864427" lon="4.7233526"><ele>111.66666666666667</ele><time>2026-04-10T15:06:10.802Z</time></trkpt><trkpt lat="44.4864448" lon="4.7231356"><ele>112.0</ele><time>2026-04-10T15:06:11.811Z</time></trkpt><trkpt lat="44.4864271" lon="4.7229387"><ele>112.0</ele><time>2026-04-10T15:06:12.813Z</time></trkpt><trkpt lat="44.4864107" lon="4.7227511"><ele>112.0</ele><time>2026-04-10T15:06:13.799Z</time></trkpt><trkpt lat="44.4864111" lon="4.7225683"><ele>112.0</ele><time>2026-04-10T15:06:14.803Z</time></trkpt><trkpt lat="44.4864077" lon="4.7223962"><ele>112.0</ele><time>2026-04-10T15:06:15.801Z</time></trkpt><trkpt lat="44.4864095" lon="4.7222003"><ele>112.19999999999999</ele><time>2026-04-10T15:06:16.805Z</time></trkpt><trkpt lat="44.4864202" lon="4.722051"><ele>112.39999999999999</ele><time>2026-04-10T15:06:17.801Z</time></trkpt><trkpt lat="44.4864176" lon="4.7219"><ele>112.60000000000001</ele><time>2026-04-10T15:06:18.803Z</time></trkpt><trkpt lat="44.4863991" lon="4.721742"><ele>112.80000000000001</ele><time>2026-04-10T15:06:19.8Z</time></trkpt><trkpt lat="44.486395" lon="4.7215836"><ele>113.0</ele><time>2026-04-10T15:06:20.805Z</time></trkpt><trkpt lat="44.4863793" lon="4.7214263"><ele>112.0</ele><time>2026-04-10T15:06:21.798Z</time></trkpt><trkpt lat="44.4863772" lon="4.7212798"><ele>111.00000000000001</ele><time>2026-04-10T15:06:22.799Z</time></trkpt><trkpt lat="44.4863675" lon="4.7211312"><ele>110.00000000000001</ele><time>2026-04-10T15:06:23.798Z</time></trkpt><trkpt lat="44.4863597" lon="4.720975"><ele>109.0</ele><time>2026-04-10T15:06:24.807Z</time></trkpt><trkpt lat="44.4863467" lon="4.7208291"><ele>108.0</ele><time>2026-04-10T15:06:25.799Z</time></trkpt><trkpt lat="44.486348" lon="4.7206846"><ele>106.4</ele><time>2026-04-10T15:06:26.804Z</time></trkpt><trkpt lat="44.486346" lon="4.7205346"><ele>104.80000000000001</ele><time>2026-04-10T15:06:27.803Z</time></trkpt><trkpt lat="44.4863465" lon="4.7203926"><ele>103.2</ele><time>2026-04-10T15:06:28.804Z</time></trkpt><trkpt lat="44.4863464" lon="4.7202459"><ele>101.6</ele><time>2026-04-10T15:06:29.799Z</time></trkpt><trkpt lat="44.4863428" lon="4.720094"><ele>100.0</ele><time>2026-04-10T15:06:30.797Z</time></trkpt><trkpt lat="44.4863392" lon="4.7199449"><ele>98.6</ele><time>2026-04-10T15:06:31.802Z</time></trkpt><trkpt lat="44.4863306" lon="4.7197933"><ele>97.2</ele><time>2026-04-10T15:06:32.802Z</time></trkpt><trkpt lat="44.4863193" lon="4.7196442"><ele>95.80000000000001</ele><time>2026-04-10T15:06:33.803Z</time></trkpt><trkpt lat="44.4863126" lon="4.7195069"><ele>94.4</ele><time>2026-04-10T15:06:34.802Z</time></trkpt><trkpt lat="44.4863058" lon="4.7193817"><ele>93.0</ele><time>2026-04-10T15:06:35.802Z</time></trkpt><trkpt lat="44.4863104" lon="4.7192846"><ele>92.85714285714286</ele><time>2026-04-10T15:06:36.808Z</time></trkpt><trkpt lat="44.486308" lon="4.7191854"><ele>92.71428571428572</ele><time>2026-04-10T15:06:37.805Z</time></trkpt><trkpt lat="44.4863044" lon="4.7190875"><ele>92.57142857142858</ele><time>2026-04-10T15:06:38.802Z</time></trkpt><trkpt lat="44.4862966" lon="4.7189888"><ele>92.42857142857143</ele><time>2026-04-10T15:06:39.799Z</time></trkpt><trkpt lat="44.486296" lon="4.7188916"><ele>92.28571428571428</ele><time>2026-04-10T15:06:40.807Z</time></trkpt><trkpt lat="44.4862978" lon="4.7187971"><ele>92.14285714285715</ele><time>2026-04-10T15:06:41.819Z</time></trkpt><trkpt lat="44.4862884" lon="4.7186992"><ele>92.0</ele><time>2026-04-10T15:06:42.812Z</time></trkpt><trkpt lat="44.4862801" lon="4.7185937"><ele>91.66666666666667</ele><time>2026-04-10T15:06:43.799Z</time></trkpt><trkpt lat="44.4862715" lon="4.7184946"><ele>91.33333333333334</ele><time>2026-04-10T15:06:44.801Z</time></trkpt><trkpt lat="44.4862643" lon="4.7183938"><ele>91.0</ele><time>2026-04-10T15:06:45.803Z</time></trkpt><trkpt lat="44.4862613" lon="4.7182907"><ele>90.66666666666667</ele><time>2026-04-10T15:06:46.8Z</time></trkpt><trkpt lat="44.4862578" lon="4.7181917"><ele>90.33333333333333</ele><time>2026-04-10T15:06:47.8Z</time></trkpt><trkpt lat="44.4862534" lon="4.7180692"><ele>90.0</ele><time>2026-04-10T15:06:48.804Z</time></trkpt><trkpt lat="44.4862474" lon="4.7179617"><ele>89.71428571428571</ele><time>2026-04-10T15:06:49.808Z</time></trkpt><trkpt lat="44.486249" lon="4.7178513"><ele>89.42857142857143</ele><time>2026-04-10T15:06:50.808Z</time></trkpt><trkpt lat="44.4862586" lon="4.7177446"><ele>89.14285714285714</ele><time>2026-04-10T15:06:51.799Z</time></trkpt><trkpt lat="44.4862627" lon="4.7176479"><ele>88.85714285714286</ele><time>2026-04-10T15:06:52.802Z</time></trkpt><trkpt lat="44.4862585" lon="4.7175559"><ele>88.57142857142857</ele><time>2026-04-10T15:06:53.801Z</time></trkpt><trkpt lat="44.4862511" lon="4.7174672"><ele>88.28571428571429</ele><time>2026-04-10T15:06:54.805Z</time></trkpt><trkpt lat="44.4862499" lon="4.7173735"><ele>88.0</ele><time>2026-04-10T15:06:55.801Z</time></trkpt><trkpt lat="44.4862598" lon="4.7172113"><ele>88.0</ele><time>2026-04-10T15:06:57.798Z</time></trkpt><trkpt lat="44.4862852" lon="4.7170799"><ele>88.0</ele><time>2026-04-10T15:06:59.801Z</time></trkpt><trkpt lat="44.4863325" lon="4.716992"><ele>88.0</ele><time>2026-04-10T15:07:01.807Z</time></trkpt><trkpt lat="44.4864025" lon="4.7169147"><ele>88.0</ele><time>2026-04-10T15:07:03.803Z</time></trkpt><trkpt lat="44.4865023" lon="4.7168433"><ele>88.0</ele><time>2026-04-10T15:07:05.8Z</time></trkpt><trkpt lat="44.4865017" lon="4.7166953"><ele>88.0</ele><time>2026-04-10T15:07:07.797Z</time></trkpt><trkpt lat="44.4864703" lon="4.7166149"><ele>88.0</ele><time>2026-04-10T15:07:08.802Z</time></trkpt><trkpt lat="44.4864366" lon="4.7165259"><ele>88.0</ele><time>2026-04-10T15:07:09.799Z</time></trkpt><trkpt lat="44.4863865" lon="4.7164287"><ele>88.0</ele><time>2026-04-10T15:07:10.8Z</time></trkpt><trkpt lat="44.4863448" lon="4.7163312"><ele>88.0</ele><time>2026-04-10T15:07:11.806Z</time></trkpt><trkpt lat="44.4863016" lon="4.7162295"><ele>88.0</ele><time>2026-04-10T15:07:12.801Z</time></trkpt><trkpt lat="44.4862385" lon="4.7161432"><ele>88.16666666666666</ele><time>2026-04-10T15:07:13.798Z</time></trkpt><trkpt lat="44.4861863" lon="4.7160413"><ele>88.33333333333333</ele><time>2026-04-10T15:07:14.797Z</time></trkpt><trkpt lat="44.4861254" lon="4.7159552"><ele>88.5</ele><time>2026-04-10T15:07:15.805Z</time></trkpt><trkpt lat="44.4860714" lon="4.7158631"><ele>88.66666666666667</ele><time>2026-04-10T15:07:16.8Z</time></trkpt><trkpt lat="44.4860156" lon="4.7157782"><ele>88.83333333333334</ele><time>2026-04-10T15:07:17.803Z</time></trkpt><trkpt lat="44.4859654" lon="4.7156942"><ele>89.0</ele><time>2026-04-10T15:07:18.807Z</time></trkpt><trkpt lat="44.4858957" lon="4.7156164"><ele>89.0</ele><time>2026-04-10T15:07:19.802Z</time></trkpt><trkpt lat="44.4858497" lon="4.7154997"><ele>89.0</ele><time>2026-04-10T15:07:20.798Z</time></trkpt><trkpt lat="44.4857893" lon="4.7154124"><ele>89.0</ele><time>2026-04-10T15:07:21.799Z</time></trkpt><trkpt lat="44.4857306" lon="4.7153168"><ele>89.0</ele><time>2026-04-10T15:07:22.796Z</time></trkpt><trkpt lat="44.4856655" lon="4.7152081"><ele>89.0</ele><time>2026-04-10T15:07:23.801Z</time></trkpt><trkpt lat="44.4856033" lon="4.7151113"><ele>88.6</ele><time>2026-04-10T15:07:24.8Z</time></trkpt><trkpt lat="44.4855522" lon="4.7150023"><ele>88.2</ele><time>2026-04-10T15:07:25.802Z</time></trkpt><trkpt lat="44.4855208" lon="4.7148741"><ele>87.8</ele><time>2026-04-10T15:07:26.799Z</time></trkpt><trkpt lat="44.4855055" lon="4.7146955"><ele>87.39999999999999</ele><time>2026-04-10T15:07:27.8Z</time></trkpt><trkpt lat="44.4855017" lon="4.7145494"><ele>87.0</ele><time>2026-04-10T15:07:28.798Z</time></trkpt><trkpt lat="44.48554" lon="4.71441"><ele>86.39999999999999</ele><time>2026-04-10T15:07:29.803Z</time></trkpt><trkpt lat="44.4856001" lon="4.7142835"><ele>85.8</ele><time>2026-04-10T15:07:30.8Z</time></trkpt><trkpt lat="44.4856284" lon="4.7141518"><ele>85.2</ele><time>2026-04-10T15:07:31.796Z</time></trkpt><trkpt lat="44.4856524" lon="4.7140357"><ele>84.6</ele><time>2026-04-10T15:07:32.803Z</time></trkpt><trkpt lat="44.4856677" lon="4.7139149"><ele>84.0</ele><time>2026-04-10T15:07:33.799Z</time></trkpt><trkpt lat="44.4856787" lon="4.7137992"><ele>84.0</ele><time>2026-04-10T15:07:34.801Z</time></trkpt><trkpt lat="44.4856773" lon="4.7136937"><ele>84.0</ele><time>2026-04-10T15:07:35.798Z</time></trkpt><trkpt lat="44.4856763" lon="4.7135894"><ele>84.0</ele><time>2026-04-10T15:07:36.796Z</time></trkpt><trkpt lat="44.4856609" lon="4.7134693"><ele>84.0</ele><time>2026-04-10T15:07:37.799Z</time></trkpt><trkpt lat="44.4856516" lon="4.7133421"><ele>84.0</ele><time>2026-04-10T15:07:38.803Z</time></trkpt><trkpt lat="44.4856159" lon="4.7132114"><ele>84.0</ele><time>2026-04-10T15:07:39.799Z</time></trkpt><trkpt lat="44.4855812" lon="4.7130804"><ele>83.6</ele><time>2026-04-10T15:07:40.799Z</time></trkpt><trkpt lat="44.485527" lon="4.7129451"><ele>83.2</ele><time>2026-04-10T15:07:41.801Z</time></trkpt><trkpt lat="44.4854755" lon="4.7128186"><ele>82.8</ele><time>2026-04-10T15:07:42.803Z</time></trkpt><trkpt lat="44.4854188" lon="4.7126966"><ele>82.39999999999999</ele><time>2026-04-10T15:07:43.799Z</time></trkpt><trkpt lat="44.4853588" lon="4.7125686"><ele>82.0</ele><time>2026-04-10T15:07:44.797Z</time></trkpt><trkpt lat="44.4853052" lon="4.7124322"><ele>82.25</ele><time>2026-04-10T15:07:45.803Z</time></trkpt><trkpt lat="44.4852494" lon="4.7123032"><ele>82.5</ele><time>2026-04-10T15:07:46.798Z</time></trkpt><trkpt lat="44.4851882" lon="4.7121739"><ele>82.75</ele><time>2026-04-10T15:07:47.801Z</time></trkpt><trkpt lat="44.4851163" lon="4.7120426"><ele>83.0</ele><time>2026-04-10T15:07:48.795Z</time></trkpt><trkpt lat="44.4850499" lon="4.7119006"><ele>83.0</ele><time>2026-04-10T15:07:49.801Z</time></trkpt><trkpt lat="44.4849837" lon="4.7117576"><ele>83.0</ele><time>2026-04-10T15:07:50.799Z</time></trkpt><trkpt lat="44.4849128" lon="4.7116127"><ele>83.0</ele><time>2026-04-10T15:07:51.802Z</time></trkpt><trkpt lat="44.4848477" lon="4.7114579"><ele>83.0</ele><time>2026-04-10T15:07:52.799Z</time></trkpt><trkpt lat="44.4847793" lon="4.7113043"><ele>83.0</ele><time>2026-04-10T15:07:53.795Z</time></trkpt><trkpt lat="44.4847143" lon="4.7111529"><ele>83.0</ele><time>2026-04-10T15:07:54.799Z</time></trkpt><trkpt lat="44.4846482" lon="4.7110186"><ele>83.0</ele><time>2026-04-10T15:07:55.802Z</time></trkpt><trkpt lat="44.4845861" lon="4.7108811"><ele>83.0</ele><time>2026-04-10T15:07:56.804Z</time></trkpt><trkpt lat="44.4845248" lon="4.7107495"><ele>83.80000000000001</ele><time>2026-04-10T15:07:57.8Z</time></trkpt><trkpt lat="44.4844672" lon="4.7106297"><ele>84.6</ele><time>2026-04-10T15:07:58.8Z</time></trkpt><trkpt lat="44.4844098" lon="4.7105135"><ele>85.4</ele><time>2026-04-10T15:07:59.796Z</time></trkpt><trkpt lat="44.4843562" lon="4.7103968"><ele>86.19999999999999</ele><time>2026-04-10T15:08:00.8Z</time></trkpt><trkpt lat="44.4843137" lon="4.7102752"><ele>87.0</ele><time>2026-04-10T15:08:01.802Z</time></trkpt><trkpt lat="44.4843133" lon="4.7101209"><ele>84.75</ele><time>2026-04-10T15:08:02.803Z</time></trkpt><trkpt lat="44.4843241" lon="4.7099571"><ele>82.5</ele><time>2026-04-10T15:08:03.8Z</time></trkpt><trkpt lat="44.4843589" lon="4.7098028"><ele>80.25</ele><time>2026-04-10T15:08:04.799Z</time></trkpt><trkpt lat="44.4844082" lon="4.7096529"><ele>78.0</ele><time>2026-04-10T15:08:05.798Z</time></trkpt><trkpt lat="44.4844591" lon="4.7094961"><ele>77.0</ele><time>2026-04-10T15:08:06.803Z</time></trkpt><trkpt lat="44.4845133" lon="4.709337"><ele>76.0</ele><time>2026-04-10T15:08:07.798Z</time></trkpt><trkpt lat="44.4845482" lon="4.7091741"><ele>75.0</ele><time>2026-04-10T15:08:08.799Z</time></trkpt><trkpt lat="44.4845699" lon="4.7090173"><ele>74.0</ele><time>2026-04-10T15:08:09.802Z</time></trkpt><trkpt lat="44.4845523" lon="4.7088341"><ele>74.0</ele><time>2026-04-10T15:08:10.8Z</time></trkpt><trkpt lat="44.4845165" lon="4.7086526"><ele>74.0</ele><time>2026-04-10T15:08:11.797Z</time></trkpt><trkpt lat="44.4844671" lon="4.7084905"><ele>74.0</ele><time>2026-04-10T15:08:12.795Z</time></trkpt><trkpt lat="44.484391" lon="4.7083349"><ele>74.0</ele><time>2026-04-10T15:08:13.799Z</time></trkpt><trkpt lat="44.4842979" lon="4.7081939"><ele>73.0</ele><time>2026-04-10T15:08:14.797Z</time></trkpt><trkpt lat="44.4841983" lon="4.7080614"><ele>72.0</ele><time>2026-04-10T15:08:15.799Z</time></trkpt><trkpt lat="44.4840976" lon="4.7079221"><ele>71.0</ele><time>2026-04-10T15:08:16.798Z</time></trkpt><trkpt lat="44.4839945" lon="4.7077762"><ele>70.0</ele><time>2026-04-10T15:08:17.799Z</time></trkpt><trkpt lat="44.4838847" lon="4.7076389"><ele>70.25</ele><time>2026-04-10T15:08:18.799Z</time></trkpt><trkpt lat="44.4837856" lon="4.7074792"><ele>70.5</ele><time>2026-04-10T15:08:19.799Z</time></trkpt><trkpt lat="44.4836756" lon="4.7073477"><ele>70.75</ele><time>2026-04-10T15:08:20.805Z</time></trkpt><trkpt lat="44.4835719" lon="4.7072176"><ele>71.0</ele><time>2026-04-10T15:08:21.798Z</time></trkpt><trkpt lat="44.483465" lon="4.7070726"><ele>71.0</ele><time>2026-04-10T15:08:22.796Z</time></trkpt><trkpt lat="44.4833524" lon="4.7069251"><ele>71.0</ele><time>2026-04-10T15:08:23.798Z</time></trkpt><trkpt lat="44.4832494" lon="4.7067896"><ele>71.0</ele><time>2026-04-10T15:08:24.797Z</time></trkpt><trkpt lat="44.4831394" lon="4.7066469"><ele>71.0</ele><time>2026-04-10T15:08:25.798Z</time></trkpt><trkpt lat="44.4830327" lon="4.7065031"><ele>70.33333333333334</ele><time>2026-04-10T15:08:26.805Z</time></trkpt><trkpt lat="44.4829368" lon="4.7063505"><ele>69.66666666666667</ele><time>2026-04-10T15:08:27.799Z</time></trkpt><trkpt lat="44.4828186" lon="4.7062063"><ele>69.0</ele><time>2026-04-10T15:08:28.803Z</time></trkpt><trkpt lat="44.4827061" lon="4.706054"><ele>68.5</ele><time>2026-04-10T15:08:29.802Z</time></trkpt><trkpt lat="44.4825953" lon="4.7059168"><ele>68.0</ele><time>2026-04-10T15:08:30.8Z</time></trkpt><trkpt lat="44.4824852" lon="4.705779"><ele>67.5</ele><time>2026-04-10T15:08:31.799Z</time></trkpt><trkpt lat="44.4823822" lon="4.705643"><ele>67.0</ele><time>2026-04-10T15:08:32.805Z</time></trkpt><trkpt lat="44.4822857" lon="4.7055062"><ele>67.0</ele><time>2026-04-10T15:08:33.799Z</time></trkpt><trkpt lat="44.4822074" lon="4.7053598"><ele>67.0</ele><time>2026-04-10T15:08:34.801Z</time></trkpt><trkpt lat="44.4821521" lon="4.7051952"><ele>67.0</ele><time>2026-04-10T15:08:35.802Z</time></trkpt><trkpt lat="44.4821048" lon="4.7050059"><ele>67.0</ele><time>2026-04-10T15:08:36.801Z</time></trkpt><trkpt lat="44.482057" lon="4.7048036"><ele>66.75</ele><time>2026-04-10T15:08:37.804Z</time></trkpt><trkpt lat="44.4820369" lon="4.7046049"><ele>66.5</ele><time>2026-04-10T15:08:38.799Z</time></trkpt><trkpt lat="44.4820226" lon="4.7044008"><ele>66.25</ele><time>2026-04-10T15:08:39.8Z</time></trkpt><trkpt lat="44.4820134" lon="4.704195"><ele>66.0</ele><time>2026-04-10T15:08:40.799Z</time></trkpt><trkpt lat="44.4819974" lon="4.7039809"><ele>65.66666666666667</ele><time>2026-04-10T15:08:41.797Z</time></trkpt><trkpt lat="44.4819735" lon="4.7037556"><ele>65.33333333333334</ele><time>2026-04-10T15:08:42.8Z</time></trkpt><trkpt lat="44.4819541" lon="4.7035377"><ele>65.0</ele><time>2026-04-10T15:08:43.799Z</time></trkpt><trkpt lat="44.4819316" lon="4.7033139"><ele>64.33333333333334</ele><time>2026-04-10T15:08:44.802Z</time></trkpt><trkpt lat="44.4819122" lon="4.7030781"><ele>63.66666666666667</ele><time>2026-04-10T15:08:45.802Z</time></trkpt><trkpt lat="44.4818906" lon="4.7028542"><ele>63.0</ele><time>2026-04-10T15:08:46.798Z</time></trkpt><trkpt lat="44.4818742" lon="4.7026147"><ele>63.0</ele><time>2026-04-10T15:08:47.8Z</time></trkpt><trkpt lat="44.4818589" lon="4.7023866"><ele>63.0</ele><time>2026-04-10T15:08:48.802Z</time></trkpt><trkpt lat="44.481855" lon="4.7021597"><ele>63.0</ele><time>2026-04-10T15:08:49.801Z</time></trkpt><trkpt lat="44.4818395" lon="4.701937"><ele>63.33333333333333</ele><time>2026-04-10T15:08:50.799Z</time></trkpt><trkpt lat="44.4818152" lon="4.7017187"><ele>63.666666666666664</ele><time>2026-04-10T15:08:51.797Z</time></trkpt><trkpt lat="44.4817974" lon="4.7015134"><ele>64.0</ele><time>2026-04-10T15:08:52.799Z</time></trkpt><trkpt lat="44.4817797" lon="4.7013088"><ele>64.0</ele><time>2026-04-10T15:08:53.797Z</time></trkpt><trkpt lat="44.4817611" lon="4.7011062"><ele>64.0</ele><time>2026-04-10T15:08:54.801Z</time></trkpt><trkpt lat="44.4817409" lon="4.7009119"><ele>64.0</ele><time>2026-04-10T15:08:55.801Z</time></trkpt><trkpt lat="44.4817195" lon="4.7007224"><ele>64.0</ele><time>2026-04-10T15:08:56.802Z</time></trkpt><trkpt lat="44.4817049" lon="4.7005345"><ele>64.0</ele><time>2026-04-10T15:08:57.801Z</time></trkpt><trkpt lat="44.4816881" lon="4.7003421"><ele>64.0</ele><time>2026-04-10T15:08:58.801Z</time></trkpt><trkpt lat="44.4816731" lon="4.7001466"><ele>64.0</ele><time>2026-04-10T15:08:59.8Z</time></trkpt><trkpt lat="44.4816611" lon="4.6999564"><ele>64.0</ele><time>2026-04-10T15:09:00.798Z</time></trkpt><trkpt lat="44.4816485" lon="4.6997552"><ele>64.0</ele><time>2026-04-10T15:09:01.8Z</time></trkpt><trkpt lat="44.481629" lon="4.6995536"><ele>64.0</ele><time>2026-04-10T15:09:02.8Z</time></trkpt><trkpt lat="44.4816125" lon="4.6993591"><ele>64.0</ele><time>2026-04-10T15:09:03.8Z</time></trkpt><trkpt lat="44.4815994" lon="4.6991477"><ele>64.0</ele><time>2026-04-10T15:09:04.8Z</time></trkpt><trkpt lat="44.4815709" lon="4.6989378"><ele>64.0</ele><time>2026-04-10T15:09:05.803Z</time></trkpt><trkpt lat="44.4815561" lon="4.6987366"><ele>64.0</ele><time>2026-04-10T15:09:06.799Z</time></trkpt><trkpt lat="44.4815423" lon="4.6985318"><ele>64.0</ele><time>2026-04-10T15:09:07.799Z</time></trkpt><trkpt lat="44.4815298" lon="4.6983214"><ele>64.0</ele><time>2026-04-10T15:09:08.803Z</time></trkpt><trkpt lat="44.4815171" lon="4.6981167"><ele>64.0</ele><time>2026-04-10T15:09:09.802Z</time></trkpt><trkpt lat="44.4815006" lon="4.697909"><ele>64.0</ele><time>2026-04-10T15:09:10.796Z</time></trkpt><trkpt lat="44.4814836" lon="4.6976948"><ele>64.0</ele><time>2026-04-10T15:09:11.797Z</time></trkpt><trkpt lat="44.4814687" lon="4.6974857"><ele>64.0</ele><time>2026-04-10T15:09:12.8Z</time></trkpt><trkpt lat="44.4814524" lon="4.697286"><ele>64.0</ele><time>2026-04-10T15:09:13.8Z</time></trkpt><trkpt lat="44.4814303" lon="4.6970973"><ele>64.0</ele><time>2026-04-10T15:09:14.798Z</time></trkpt><trkpt lat="44.4814182" lon="4.6968811"><ele>64.0</ele><time>2026-04-10T15:09:15.799Z</time></trkpt><trkpt lat="44.4814001" lon="4.6966708"><ele>64.0</ele><time>2026-04-10T15:09:16.798Z</time></trkpt><trkpt lat="44.4813709" lon="4.6964743"><ele>64.0</ele><time>2026-04-10T15:09:17.801Z</time></trkpt><trkpt lat="44.4813535" lon="4.6962712"><ele>64.0</ele><time>2026-04-10T15:09:18.8Z</time></trkpt><trkpt lat="44.4813418" lon="4.6960668"><ele>64.0</ele><time>2026-04-10T15:09:19.8Z</time></trkpt><trkpt lat="44.4813263" lon="4.6958529"><ele>64.0</ele><time>2026-04-10T15:09:20.799Z</time></trkpt><trkpt lat="44.4813067" lon="4.695652"><ele>64.0</ele><time>2026-04-10T15:09:21.8Z</time></trkpt><trkpt lat="44.481285" lon="4.6954494"><ele>64.0</ele><time>2026-04-10T15:09:22.797Z</time></trkpt><trkpt lat="44.4812712" lon="4.6952493"><ele>64.0</ele><time>2026-04-10T15:09:23.799Z</time></trkpt><trkpt lat="44.4812576" lon="4.6950415"><ele>63.666666666666664</ele><time>2026-04-10T15:09:24.798Z</time></trkpt><trkpt lat="44.4812482" lon="4.6948363"><ele>63.33333333333333</ele><time>2026-04-10T15:09:25.804Z</time></trkpt><trkpt lat="44.481239" lon="4.6946104"><ele>63.0</ele><time>2026-04-10T15:09:26.803Z</time></trkpt><trkpt lat="44.4812185" lon="4.6944089"><ele>62.75</ele><time>2026-04-10T15:09:27.801Z</time></trkpt><trkpt lat="44.4812014" lon="4.6942052"><ele>62.5</ele><time>2026-04-10T15:09:28.801Z</time></trkpt><trkpt lat="44.481179" lon="4.6940061"><ele>62.25</ele><time>2026-04-10T15:09:29.801Z</time></trkpt><trkpt lat="44.481165" lon="4.6938"><ele>62.0</ele><time>2026-04-10T15:09:30.798Z</time></trkpt><trkpt lat="44.4811466" lon="4.6935974"><ele>62.5</ele><time>2026-04-10T15:09:31.802Z</time></trkpt><trkpt lat="44.4811268" lon="4.6933827"><ele>63.0</ele><time>2026-04-10T15:09:32.801Z</time></trkpt><trkpt lat="44.4811216" lon="4.6931723"><ele>63.5</ele><time>2026-04-10T15:09:33.8Z</time></trkpt><trkpt lat="44.4811036" lon="4.6930243"><ele>64.0</ele><time>2026-04-10T15:09:34.801Z</time></trkpt><trkpt lat="44.4810804" lon="4.6928571"><ele>64.5</ele><time>2026-04-10T15:09:35.799Z</time></trkpt><trkpt lat="44.4810385" lon="4.6926769"><ele>65.0</ele><time>2026-04-10T15:09:36.8Z</time></trkpt><trkpt lat="44.4809901" lon="4.6925095"><ele>65.5</ele><time>2026-04-10T15:09:37.804Z</time></trkpt><trkpt lat="44.4809432" lon="4.6923576"><ele>66.0</ele><time>2026-04-10T15:09:38.802Z</time></trkpt><trkpt lat="44.4809024" lon="4.6922109"><ele>66.0</ele><time>2026-04-10T15:09:39.798Z</time></trkpt><trkpt lat="44.4808598" lon="4.692069"><ele>66.0</ele><time>2026-04-10T15:09:40.807Z</time></trkpt><trkpt lat="44.4808232" lon="4.6919264"><ele>66.0</ele><time>2026-04-10T15:09:41.801Z</time></trkpt><trkpt lat="44.4807832" lon="4.6917903"><ele>66.0</ele><time>2026-04-10T15:09:42.802Z</time></trkpt><trkpt lat="44.4807455" lon="4.6916469"><ele>66.0</ele><time>2026-04-10T15:09:43.8Z</time></trkpt><trkpt lat="44.4807125" lon="4.6915102"><ele>68.2</ele><time>2026-04-10T15:09:44.807Z</time></trkpt><trkpt lat="44.4806719" lon="4.6913688"><ele>70.39999999999999</ele><time>2026-04-10T15:09:45.802Z</time></trkpt><trkpt lat="44.4806447" lon="4.6912311"><ele>72.6</ele><time>2026-04-10T15:09:46.802Z</time></trkpt><trkpt lat="44.4806249" lon="4.6910718"><ele>74.8</ele><time>2026-04-10T15:09:47.797Z</time></trkpt><trkpt lat="44.480584" lon="4.6909484"><ele>77.0</ele><time>2026-04-10T15:09:48.801Z</time></trkpt><trkpt lat="44.4805422" lon="4.6908131"><ele>76.4</ele><time>2026-04-10T15:09:49.797Z</time></trkpt><trkpt lat="44.4805044" lon="4.6906859"><ele>75.80000000000001</ele><time>2026-04-10T15:09:50.798Z</time></trkpt><trkpt lat="44.4804754" lon="4.6905797"><ele>75.2</ele><time>2026-04-10T15:09:51.799Z</time></trkpt><trkpt lat="44.4804435" lon="4.6904825"><ele>74.60000000000001</ele><time>2026-04-10T15:09:52.802Z</time></trkpt><trkpt lat="44.4804214" lon="4.6903102"><ele>74.0</ele><time>2026-04-10T15:09:54.794Z</time></trkpt><trkpt lat="44.4804903" lon="4.6902071"><ele>75.6</ele><time>2026-04-10T15:09:55.799Z</time></trkpt><trkpt lat="44.4805434" lon="4.6901235"><ele>77.2</ele><time>2026-04-10T15:09:56.8Z</time></trkpt><trkpt lat="44.480613" lon="4.6900346"><ele>78.8</ele><time>2026-04-10T15:09:57.8Z</time></trkpt><trkpt lat="44.4806874" lon="4.689954"><ele>80.39999999999999</ele><time>2026-04-10T15:09:58.797Z</time></trkpt><trkpt lat="44.4807654" lon="4.6898705"><ele>82.0</ele><time>2026-04-10T15:09:59.804Z</time></trkpt><trkpt lat="44.4808328" lon="4.6897974"><ele>82.0</ele><time>2026-04-10T15:10:00.8Z</time></trkpt><trkpt lat="44.4808973" lon="4.6897292"><ele>82.0</ele><time>2026-04-10T15:10:01.802Z</time></trkpt><trkpt lat="44.4809728" lon="4.6896603"><ele>82.0</ele><time>2026-04-10T15:10:02.796Z</time></trkpt><trkpt lat="44.481055" lon="4.6895907"><ele>82.0</ele><time>2026-04-10T15:10:03.799Z</time></trkpt><trkpt lat="44.4811415" lon="4.6895357"><ele>82.0</ele><time>2026-04-10T15:10:04.799Z</time></trkpt><trkpt lat="44.4812226" lon="4.6894754"><ele>81.8</ele><time>2026-04-10T15:10:05.794Z</time></trkpt><trkpt lat="44.481291" lon="4.6893907"><ele>81.6</ele><time>2026-04-10T15:10:06.804Z</time></trkpt><trkpt lat="44.4813536" lon="4.6893004"><ele>81.39999999999999</ele><time>2026-04-10T15:10:07.802Z</time></trkpt><trkpt lat="44.4814283" lon="4.6892215"><ele>81.19999999999999</ele><time>2026-04-10T15:10:08.801Z</time></trkpt><trkpt lat="44.48151" lon="4.6891521"><ele>81.0</ele><time>2026-04-10T15:10:09.798Z</time></trkpt><trkpt lat="44.4815957" lon="4.6890836"><ele>81.0</ele><time>2026-04-10T15:10:10.805Z</time></trkpt><trkpt lat="44.4816963" lon="4.6890425"><ele>81.0</ele><time>2026-04-10T15:10:11.797Z</time></trkpt><trkpt lat="44.4817972" lon="4.6889979"><ele>81.0</ele><time>2026-04-10T15:10:12.796Z</time></trkpt><trkpt lat="44.4819009" lon="4.6889444"><ele>81.0</ele><time>2026-04-10T15:10:13.805Z</time></trkpt><trkpt lat="44.4820064" lon="4.6888928"><ele>81.0</ele><time>2026-04-10T15:10:14.801Z</time></trkpt><trkpt lat="44.4821085" lon="4.6888289"><ele>81.6</ele><time>2026-04-10T15:10:15.8Z</time></trkpt><trkpt lat="44.4821921" lon="4.6887537"><ele>82.19999999999999</ele><time>2026-04-10T15:10:16.798Z</time></trkpt><trkpt lat="44.482294" lon="4.6886797"><ele>82.80000000000001</ele><time>2026-04-10T15:10:17.794Z</time></trkpt><trkpt lat="44.4824154" lon="4.6886513"><ele>83.4</ele><time>2026-04-10T15:10:18.799Z</time></trkpt><trkpt lat="44.4825055" lon="4.6885938"><ele>84.0</ele><time>2026-04-10T15:10:19.798Z</time></trkpt><trkpt lat="44.4826115" lon="4.6885402"><ele>83.80000000000001</ele><time>2026-04-10T15:10:20.801Z</time></trkpt><trkpt lat="44.4827204" lon="4.6884927"><ele>83.60000000000001</ele><time>2026-04-10T15:10:21.793Z</time></trkpt><trkpt lat="44.482809" lon="4.6884693"><ele>83.4</ele><time>2026-04-10T15:10:22.799Z</time></trkpt><trkpt lat="44.4829033" lon="4.6884179"><ele>83.2</ele><time>2026-04-10T15:10:23.801Z</time></trkpt><trkpt lat="44.4829934" lon="4.6883384"><ele>83.0</ele><time>2026-04-10T15:10:24.801Z</time></trkpt><trkpt lat="44.4830733" lon="4.6882404"><ele>83.0</ele><time>2026-04-10T15:10:25.797Z</time></trkpt><trkpt lat="44.4831514" lon="4.6881451"><ele>83.0</ele><time>2026-04-10T15:10:26.799Z</time></trkpt><trkpt lat="44.4831557" lon="4.6879463"><ele>83.0</ele><time>2026-04-10T15:10:27.799Z</time></trkpt><trkpt lat="44.4831982" lon="4.6878138"><ele>83.0</ele><time>2026-04-10T15:10:28.803Z</time></trkpt><trkpt lat="44.4832517" lon="4.6876914"><ele>83.0</ele><time>2026-04-10T15:10:29.794Z</time></trkpt><trkpt lat="44.4832975" lon="4.687576"><ele>83.0</ele><time>2026-04-10T15:10:30.797Z</time></trkpt><trkpt lat="44.483336" lon="4.6874705"><ele>83.0</ele><time>2026-04-10T15:10:31.795Z</time></trkpt><trkpt lat="44.4833681" lon="4.6873641"><ele>83.0</ele><time>2026-04-10T15:10:32.796Z</time></trkpt><trkpt lat="44.4834001" lon="4.6872713"><ele>83.0</ele><time>2026-04-10T15:10:33.801Z</time></trkpt><trkpt lat="44.4834305" lon="4.6871639"><ele>83.0</ele><time>2026-04-10T15:10:34.798Z</time></trkpt><trkpt lat="44.4834671" lon="4.6870748"><ele>83.0</ele><time>2026-04-10T15:10:35.801Z</time></trkpt><trkpt lat="44.4835148" lon="4.6869867"><ele>83.0</ele><time>2026-04-10T15:10:36.799Z</time></trkpt><trkpt lat="44.4835619" lon="4.6868765"><ele>83.0</ele><time>2026-04-10T15:10:37.797Z</time></trkpt><trkpt lat="44.4836227" lon="4.6867805"><ele>83.0</ele><time>2026-04-10T15:10:38.804Z</time></trkpt><trkpt lat="44.4836861" lon="4.6866716"><ele>83.0</ele><time>2026-04-10T15:10:39.802Z</time></trkpt><trkpt lat="44.4837434" lon="4.6865682"><ele>81.80000000000001</ele><time>2026-04-10T15:10:40.801Z</time></trkpt><trkpt lat="44.4837975" lon="4.6864666"><ele>80.60000000000001</ele><time>2026-04-10T15:10:41.794Z</time></trkpt><trkpt lat="44.4838456" lon="4.6863717"><ele>79.4</ele><time>2026-04-10T15:10:42.802Z</time></trkpt><trkpt lat="44.4839056" lon="4.6862753"><ele>78.2</ele><time>2026-04-10T15:10:43.801Z</time></trkpt><trkpt lat="44.4839686" lon="4.6861784"><ele>77.0</ele><time>2026-04-10T15:10:44.795Z</time></trkpt><trkpt lat="44.4840313" lon="4.6860821"><ele>77.0</ele><time>2026-04-10T15:10:45.8Z</time></trkpt><trkpt lat="44.4840917" lon="4.6859663"><ele>77.0</ele><time>2026-04-10T15:10:46.798Z</time></trkpt><trkpt lat="44.4841498" lon="4.6858498"><ele>77.0</ele><time>2026-04-10T15:10:47.803Z</time></trkpt><trkpt lat="44.484215" lon="4.6857435"><ele>77.0</ele><time>2026-04-10T15:10:48.801Z</time></trkpt><trkpt lat="44.48428" lon="4.6856413"><ele>77.0</ele><time>2026-04-10T15:10:49.804Z</time></trkpt><trkpt lat="44.4843453" lon="4.6855357"><ele>77.0</ele><time>2026-04-10T15:10:50.8Z</time></trkpt><trkpt lat="44.4844057" lon="4.6854218"><ele>77.0</ele><time>2026-04-10T15:10:51.801Z</time></trkpt><trkpt lat="44.4844643" lon="4.6853189"><ele>77.0</ele><time>2026-04-10T15:10:52.803Z</time></trkpt><trkpt lat="44.4845154" lon="4.6852163"><ele>77.0</ele><time>2026-04-10T15:10:53.803Z</time></trkpt><trkpt lat="44.4845649" lon="4.6851278"><ele>77.0</ele><time>2026-04-10T15:10:54.8Z</time></trkpt><trkpt lat="44.484612" lon="4.6850674"><ele>77.0</ele><time>2026-04-10T15:10:55.798Z</time></trkpt><trkpt lat="44.4846964" lon="4.6850559"><ele>76.0</ele><time>2026-04-10T15:10:57.797Z</time></trkpt><trkpt lat="44.4847451" lon="4.6851189"><ele>75.0</ele><time>2026-04-10T15:10:58.799Z</time></trkpt><trkpt lat="44.4847754" lon="4.6852327"><ele>74.0</ele><time>2026-04-10T15:10:59.798Z</time></trkpt><trkpt lat="44.4847926" lon="4.6853579"><ele>73.0</ele><time>2026-04-10T15:11:00.801Z</time></trkpt><trkpt lat="44.4848079" lon="4.6854868"><ele>72.0</ele><time>2026-04-10T15:11:01.799Z</time></trkpt><trkpt lat="44.4848252" lon="4.6856206"><ele>71.0</ele><time>2026-04-10T15:11:02.798Z</time></trkpt><trkpt lat="44.4848344" lon="4.6857739"><ele>70.6</ele><time>2026-04-10T15:11:03.798Z</time></trkpt><trkpt lat="44.4848102" lon="4.6859257"><ele>70.19999999999999</ele><time>2026-04-10T15:11:04.797Z</time></trkpt><trkpt lat="44.4848357" lon="4.6860854"><ele>69.80000000000001</ele><time>2026-04-10T15:11:05.799Z</time></trkpt><trkpt lat="44.4848128" lon="4.6862289"><ele>69.4</ele><time>2026-04-10T15:11:06.801Z</time></trkpt><trkpt lat="44.484827" lon="4.6863785"><ele>69.0</ele><time>2026-04-10T15:11:07.8Z</time></trkpt><trkpt lat="44.4848324" lon="4.6865279"><ele>69.0</ele><time>2026-04-10T15:11:08.799Z</time></trkpt><trkpt lat="44.484849" lon="4.686674"><ele>69.0</ele><time>2026-04-10T15:11:09.799Z</time></trkpt><trkpt lat="44.4848703" lon="4.6868304"><ele>69.0</ele><time>2026-04-10T15:11:10.8Z</time></trkpt><trkpt lat="44.4848847" lon="4.6869864"><ele>69.0</ele><time>2026-04-10T15:11:11.792Z</time></trkpt><trkpt lat="44.4849003" lon="4.6871269"><ele>69.0</ele><time>2026-04-10T15:11:12.797Z</time></trkpt><trkpt lat="44.4849116" lon="4.6872782"><ele>68.66666666666667</ele><time>2026-04-10T15:11:13.798Z</time></trkpt><trkpt lat="44.4849145" lon="4.6874068"><ele>68.33333333333333</ele><time>2026-04-10T15:11:14.799Z</time></trkpt><trkpt lat="44.4849299" lon="4.6875297"><ele>68.0</ele><time>2026-04-10T15:11:15.801Z</time></trkpt><trkpt lat="44.4849537" lon="4.687648"><ele>67.66666666666666</ele><time>2026-04-10T15:11:16.801Z</time></trkpt><trkpt lat="44.4849383" lon="4.6877681"><ele>67.33333333333333</ele><time>2026-04-10T15:11:17.793Z</time></trkpt><trkpt lat="44.4849274" lon="4.6878773"><ele>67.0</ele><time>2026-04-10T15:11:18.795Z</time></trkpt><trkpt lat="44.4849372" lon="4.6879813"><ele>67.0</ele><time>2026-04-10T15:11:19.799Z</time></trkpt><trkpt lat="44.4849564" lon="4.6880856"><ele>67.0</ele><time>2026-04-10T15:11:20.798Z</time></trkpt><trkpt lat="44.4849874" lon="4.6881759"><ele>67.0</ele><time>2026-04-10T15:11:21.797Z</time></trkpt><trkpt lat="44.4849972" lon="4.688272"><ele>67.0</ele><time>2026-04-10T15:11:22.802Z</time></trkpt><trkpt lat="44.4849428" lon="4.688351"><ele>67.0</ele><time>2026-04-10T15:11:23.801Z</time></trkpt><trkpt lat="44.4848973" lon="4.6884257"><ele>67.0</ele><time>2026-04-10T15:11:24.804Z</time></trkpt><trkpt lat="44.4848531" lon="4.6884907"><ele>67.0</ele><time>2026-04-10T15:11:25.796Z</time></trkpt><trkpt lat="44.4847368" lon="4.6885532"><ele>66.6</ele><time>2026-04-10T15:11:27.801Z</time></trkpt><trkpt lat="44.4846184" lon="4.6886042"><ele>66.2</ele><time>2026-04-10T15:11:29.793Z</time></trkpt><trkpt lat="44.4845169" lon="4.6886889"><ele>65.8</ele><time>2026-04-10T15:11:31.798Z</time></trkpt><trkpt lat="44.484413" lon="4.6887286"><ele>65.4</ele><time>2026-04-10T15:11:33.806Z</time></trkpt><trkpt lat="44.4843536" lon="4.6888155"><ele>65.0</ele><time>2026-04-10T15:11:35.798Z</time></trkpt><trkpt lat="44.4843647" lon="4.6889899"><ele>65.16666666666667</ele><time>2026-04-10T15:11:37.799Z</time></trkpt><trkpt lat="44.4843833" lon="4.689099"><ele>65.33333333333334</ele><time>2026-04-10T15:11:38.798Z</time></trkpt><trkpt lat="44.4844005" lon="4.6892029"><ele>65.5</ele><time>2026-04-10T15:11:39.799Z</time></trkpt><trkpt lat="44.4844058" lon="4.6893249"><ele>65.66666666666667</ele><time>2026-04-10T15:11:40.802Z</time></trkpt><trkpt lat="44.4844154" lon="4.6894375"><ele>65.83333333333333</ele><time>2026-04-10T15:11:41.807Z</time></trkpt><trkpt lat="44.4843999" lon="4.6895352"><ele>66.0</ele><time>2026-04-10T15:11:42.8Z</time></trkpt><trkpt lat="44.4844113" lon="4.6896371"><ele>66.0</ele><time>2026-04-10T15:11:43.799Z</time></trkpt><trkpt lat="44.4844117" lon="4.6897774"><ele>66.0</ele><time>2026-04-10T15:11:45.799Z</time></trkpt><trkpt lat="44.4843212" lon="4.6898922"><ele>66.0</ele><time>2026-04-10T15:11:47.798Z</time></trkpt><trkpt lat="44.4842483" lon="4.6899059"><ele>66.0</ele><time>2026-04-10T15:11:48.803Z</time></trkpt><trkpt lat="44.4841738" lon="4.6899308"><ele>66.0</ele><time>2026-04-10T15:11:49.8Z</time></trkpt><trkpt lat="44.4840877" lon="4.6899201"><ele>66.0</ele><time>2026-04-10T15:11:50.8Z</time></trkpt><trkpt lat="44.4840003" lon="4.6899175"><ele>66.0</ele><time>2026-04-10T15:11:51.801Z</time></trkpt><trkpt lat="44.4839351" lon="4.6899434"><ele>66.0</ele><time>2026-04-10T15:11:52.798Z</time></trkpt><trkpt lat="44.4838408" lon="4.6900062"><ele>66.0</ele><time>2026-04-10T15:11:54.802Z</time></trkpt><trkpt lat="44.4837709" lon="4.6901669"><ele>66.0</ele><time>2026-04-10T15:11:56.801Z</time></trkpt><trkpt lat="44.4837486" lon="4.6902956"><ele>66.16666666666667</ele><time>2026-04-10T15:11:57.799Z</time></trkpt><trkpt lat="44.4837268" lon="4.6904058"><ele>66.33333333333333</ele><time>2026-04-10T15:11:58.8Z</time></trkpt><trkpt lat="44.4837076" lon="4.6905275"><ele>66.5</ele><time>2026-04-10T15:11:59.8Z</time></trkpt><trkpt lat="44.4836902" lon="4.6906504"><ele>66.66666666666666</ele><time>2026-04-10T15:12:00.796Z</time></trkpt><trkpt lat="44.483674" lon="4.6907526"><ele>66.83333333333333</ele><time>2026-04-10T15:12:01.798Z</time></trkpt><trkpt lat="44.4836656" lon="4.690864"><ele>67.0</ele><time>2026-04-10T15:12:02.801Z</time></trkpt><trkpt lat="44.4836913" lon="4.690983"><ele>66.0</ele><time>2026-04-10T15:12:03.802Z</time></trkpt><trkpt lat="44.4837178" lon="4.6910994"><ele>65.0</ele><time>2026-04-10T15:12:04.796Z</time></trkpt><trkpt lat="44.4837694" lon="4.6912185"><ele>64.0</ele><time>2026-04-10T15:12:05.803Z</time></trkpt><trkpt lat="44.4838213" lon="4.6913501"><ele>63.0</ele><time>2026-04-10T15:12:06.803Z</time></trkpt><trkpt lat="44.4838699" lon="4.6914826"><ele>62.0</ele><time>2026-04-10T15:12:07.799Z</time></trkpt><trkpt lat="44.4839169" lon="4.6916157"><ele>62.0</ele><time>2026-04-10T15:12:08.798Z</time></trkpt><trkpt lat="44.4839645" lon="4.6917422"><ele>62.0</ele><time>2026-04-10T15:12:09.799Z</time></trkpt><trkpt lat="44.48401" lon="4.6918735"><ele>62.0</ele><time>2026-04-10T15:12:10.8Z</time></trkpt><trkpt lat="44.4840554" lon="4.6920015"><ele>62.0</ele><time>2026-04-10T15:12:11.799Z</time></trkpt><trkpt lat="44.4841108" lon="4.692138"><ele>62.0</ele><time>2026-04-10T15:12:12.8Z</time></trkpt><trkpt lat="44.4841634" lon="4.6922726"><ele>62.0</ele><time>2026-04-10T15:12:13.8Z</time></trkpt><trkpt lat="44.4842221" lon="4.6924055"><ele>62.0</ele><time>2026-04-10T15:12:14.801Z</time></trkpt><trkpt lat="44.4842712" lon="4.6925498"><ele>62.0</ele><time>2026-04-10T15:12:15.8Z</time></trkpt><trkpt lat="44.4843146" lon="4.6927018"><ele>62.0</ele><time>2026-04-10T15:12:16.799Z</time></trkpt><trkpt lat="44.4843657" lon="4.6928516"><ele>62.0</ele><time>2026-04-10T15:12:17.799Z</time></trkpt><trkpt lat="44.4844205" lon="4.6930034"><ele>62.0</ele><time>2026-04-10T15:12:18.799Z</time></trkpt><trkpt lat="44.4844677" lon="4.6931378"><ele>62.0</ele><time>2026-04-10T15:12:19.819Z</time></trkpt><trkpt lat="44.4845167" lon="4.6932667"><ele>62.0</ele><time>2026-04-10T15:12:20.813Z</time></trkpt><trkpt lat="44.4845772" lon="4.6934029"><ele>62.0</ele><time>2026-04-10T15:12:21.801Z</time></trkpt><trkpt lat="44.4846185" lon="4.6935172"><ele>63.0</ele><time>2026-04-10T15:12:22.802Z</time></trkpt><trkpt lat="44.4846569" lon="4.6936394"><ele>64.0</ele><time>2026-04-10T15:12:23.797Z</time></trkpt><trkpt lat="44.484703" lon="4.6937625"><ele>65.0</ele><time>2026-04-10T15:12:24.799Z</time></trkpt><trkpt lat="44.4847449" lon="4.6938736"><ele>66.0</ele><time>2026-04-10T15:12:25.802Z</time></trkpt><trkpt lat="44.4847812" lon="4.6939952"><ele>67.0</ele><time>2026-04-10T15:12:26.798Z</time></trkpt><trkpt lat="44.4848172" lon="4.6940958"><ele>67.0</ele><time>2026-04-10T15:12:27.803Z</time></trkpt><trkpt lat="44.4848382" lon="4.6942395"><ele>67.0</ele><time>2026-04-10T15:12:29.8Z</time></trkpt><trkpt lat="44.4847866" lon="4.6943588"><ele>67.0</ele><time>2026-04-10T15:12:31.804Z</time></trkpt><trkpt lat="44.4847223" lon="4.6944376"><ele>67.0</ele><time>2026-04-10T15:12:32.805Z</time></trkpt><trkpt lat="44.4846523" lon="4.6944976"><ele>67.0</ele><time>2026-04-10T15:12:33.804Z</time></trkpt><trkpt lat="44.4845677" lon="4.6945705"><ele>66.8</ele><time>2026-04-10T15:12:34.796Z</time></trkpt><trkpt lat="44.4844874" lon="4.6946555"><ele>66.6</ele><time>2026-04-10T15:12:35.799Z</time></trkpt><trkpt lat="44.4844015" lon="4.6947409"><ele>66.39999999999999</ele><time>2026-04-10T15:12:36.803Z</time></trkpt><trkpt lat="44.4843103" lon="4.6948218"><ele>66.2</ele><time>2026-04-10T15:12:37.798Z</time></trkpt><trkpt lat="44.4842122" lon="4.6949078"><ele>66.0</ele><time>2026-04-10T15:12:38.799Z</time></trkpt><trkpt lat="44.4840997" lon="4.6949705"><ele>66.0</ele><time>2026-04-10T15:12:39.798Z</time></trkpt><trkpt lat="44.4839822" lon="4.6950428"><ele>66.0</ele><time>2026-04-10T15:12:40.796Z</time></trkpt><trkpt lat="44.4838654" lon="4.6951279"><ele>66.0</ele><time>2026-04-10T15:12:41.801Z</time></trkpt><trkpt lat="44.4837439" lon="4.6952087"><ele>66.0</ele><time>2026-04-10T15:12:42.795Z</time></trkpt><trkpt lat="44.4836254" lon="4.6952992"><ele>65.75</ele><time>2026-04-10T15:12:43.798Z</time></trkpt><trkpt lat="44.483504" lon="4.6953821"><ele>65.5</ele><time>2026-04-10T15:12:44.799Z</time></trkpt><trkpt lat="44.4833872" lon="4.6954661"><ele>65.25</ele><time>2026-04-10T15:12:45.799Z</time></trkpt><trkpt lat="44.4832769" lon="4.6955475"><ele>65.0</ele><time>2026-04-10T15:12:46.801Z</time></trkpt><trkpt lat="44.4831721" lon="4.69563"><ele>65.0</ele><time>2026-04-10T15:12:47.805Z</time></trkpt><trkpt lat="44.4830577" lon="4.6957206"><ele>65.0</ele><time>2026-04-10T15:12:48.797Z</time></trkpt><trkpt lat="44.4829444" lon="4.6958102"><ele>65.0</ele><time>2026-04-10T15:12:49.794Z</time></trkpt><trkpt lat="44.4828278" lon="4.6958919"><ele>65.0</ele><time>2026-04-10T15:12:50.8Z</time></trkpt><trkpt lat="44.4827169" lon="4.6959687"><ele>65.0</ele><time>2026-04-10T15:12:51.803Z</time></trkpt><trkpt lat="44.4826114" lon="4.6960581"><ele>65.0</ele><time>2026-04-10T15:12:52.8Z</time></trkpt><trkpt lat="44.482502" lon="4.6961528"><ele>65.0</ele><time>2026-04-10T15:12:53.801Z</time></trkpt><trkpt lat="44.4823806" lon="4.6962227"><ele>65.0</ele><time>2026-04-10T15:12:54.801Z</time></trkpt><trkpt lat="44.4822851" lon="4.6962999"><ele>65.0</ele><time>2026-04-10T15:12:55.798Z</time></trkpt><trkpt lat="44.4821892" lon="4.6963734"><ele>65.0</ele><time>2026-04-10T15:12:56.804Z</time></trkpt><trkpt lat="44.4820963" lon="4.6964359"><ele>65.0</ele><time>2026-04-10T15:12:57.797Z</time></trkpt><trkpt lat="44.4820126" lon="4.6964964"><ele>65.0</ele><time>2026-04-10T15:12:58.795Z</time></trkpt><trkpt lat="44.4819244" lon="4.696548"><ele>65.0</ele><time>2026-04-10T15:12:59.798Z</time></trkpt><trkpt lat="44.4818325" lon="4.6965919"><ele>65.33333333333334</ele><time>2026-04-10T15:13:00.8Z</time></trkpt><trkpt lat="44.4817403" lon="4.6966145"><ele>65.66666666666667</ele><time>2026-04-10T15:13:01.801Z</time></trkpt><trkpt lat="44.4816533" lon="4.6966212"><ele>66.0</ele><time>2026-04-10T15:13:02.807Z</time></trkpt><trkpt lat="44.4815812" lon="4.6966317"><ele>66.33333333333333</ele><time>2026-04-10T15:13:03.804Z</time></trkpt><trkpt lat="44.481517" lon="4.6966325"><ele>66.66666666666666</ele><time>2026-04-10T15:13:04.799Z</time></trkpt><trkpt lat="44.4814284" lon="4.6966294"><ele>67.0</ele><time>2026-04-10T15:13:06.799Z</time></trkpt><trkpt lat="44.4813728" lon="4.6966874"><ele>67.0</ele><time>2026-04-10T15:13:24.798Z</time></trkpt><trkpt lat="44.4813544" lon="4.6968798"><ele>67.0</ele><time>2026-04-10T15:13:26.8Z</time></trkpt><trkpt lat="44.4813691" lon="4.6970195"><ele>67.0</ele><time>2026-04-10T15:13:27.799Z</time></trkpt><trkpt lat="44.4813884" lon="4.6972037"><ele>67.0</ele><time>2026-04-10T15:13:28.802Z</time></trkpt><trkpt lat="44.48141" lon="4.6974098"><ele>66.0</ele><time>2026-04-10T15:13:29.8Z</time></trkpt><trkpt lat="44.4814327" lon="4.6976228"><ele>65.0</ele><time>2026-04-10T15:13:30.8Z</time></trkpt><trkpt lat="44.4814523" lon="4.69787"><ele>64.0</ele><time>2026-04-10T15:13:31.798Z</time></trkpt><trkpt lat="44.4814754" lon="4.6981192"><ele>64.0</ele><time>2026-04-10T15:13:32.801Z</time></trkpt><trkpt lat="44.4814958" lon="4.6983724"><ele>64.0</ele><time>2026-04-10T15:13:33.794Z</time></trkpt><trkpt lat="44.481555" lon="4.6988707"><ele>64.0</ele><time>2026-04-10T15:13:35.8Z</time></trkpt><trkpt lat="44.4815745" lon="4.6991036"><ele>64.0</ele><time>2026-04-10T15:13:36.794Z</time></trkpt><trkpt lat="44.4815935" lon="4.6993222"><ele>64.0</ele><time>2026-04-10T15:13:37.799Z</time></trkpt><trkpt lat="44.481608" lon="4.6995299"><ele>64.0</ele><time>2026-04-10T15:13:38.798Z</time></trkpt><trkpt lat="44.4816218" lon="4.6997285"><ele>64.0</ele><time>2026-04-10T15:13:39.803Z</time></trkpt><trkpt lat="44.481639" lon="4.6999368"><ele>64.0</ele><time>2026-04-10T15:13:40.8Z</time></trkpt><trkpt lat="44.4816599" lon="4.7001528"><ele>64.0</ele><time>2026-04-10T15:13:41.799Z</time></trkpt><trkpt lat="44.4816768" lon="4.7003833"><ele>64.0</ele><time>2026-04-10T15:13:42.801Z</time></trkpt><trkpt lat="44.4816972" lon="4.7006199"><ele>64.0</ele><time>2026-04-10T15:13:43.8Z</time></trkpt><trkpt lat="44.4817173" lon="4.7008602"><ele>64.0</ele><time>2026-04-10T15:13:44.8Z</time></trkpt><trkpt lat="44.4817369" lon="4.701108"><ele>64.0</ele><time>2026-04-10T15:13:45.798Z</time></trkpt><trkpt lat="44.4817595" lon="4.7013518"><ele>64.0</ele><time>2026-04-10T15:13:46.798Z</time></trkpt><trkpt lat="44.4817778" lon="4.7015875"><ele>64.0</ele><time>2026-04-10T15:13:47.798Z</time></trkpt><trkpt lat="44.4818035" lon="4.701825"><ele>63.666666666666664</ele><time>2026-04-10T15:13:48.8Z</time></trkpt><trkpt lat="44.4818342" lon="4.7020648"><ele>63.33333333333333</ele><time>2026-04-10T15:13:49.799Z</time></trkpt><trkpt lat="44.4818579" lon="4.7023106"><ele>63.0</ele><time>2026-04-10T15:13:50.799Z</time></trkpt><trkpt lat="44.4818764" lon="4.70255"><ele>62.66666666666667</ele><time>2026-04-10T15:13:51.798Z</time></trkpt><trkpt lat="44.481899" lon="4.702779"><ele>62.333333333333336</ele><time>2026-04-10T15:13:52.796Z</time></trkpt><trkpt lat="44.4819226" lon="4.7029934"><ele>62.0</ele><time>2026-04-10T15:13:53.802Z</time></trkpt><trkpt lat="44.4819377" lon="4.7032036"><ele>62.0</ele><time>2026-04-10T15:13:54.8Z</time></trkpt><trkpt lat="44.4819523" lon="4.7034188"><ele>62.0</ele><time>2026-04-10T15:13:55.802Z</time></trkpt><trkpt lat="44.4819679" lon="4.7036283"><ele>62.0</ele><time>2026-04-10T15:13:56.803Z</time></trkpt><trkpt lat="44.4819839" lon="4.7038359"><ele>63.5</ele><time>2026-04-10T15:13:57.8Z</time></trkpt><trkpt lat="44.4820303" lon="4.7042269"><ele>65.0</ele><time>2026-04-10T15:13:59.798Z</time></trkpt><trkpt lat="44.4820571" lon="4.7046252"><ele>65.5</ele><time>2026-04-10T15:14:01.812Z</time></trkpt><trkpt lat="44.4820785" lon="4.7050286"><ele>66.0</ele><time>2026-04-10T15:14:03.802Z</time></trkpt><trkpt lat="44.4822273" lon="4.7053997"><ele>66.5</ele><time>2026-04-10T15:14:05.802Z</time></trkpt><trkpt lat="44.4824298" lon="4.7057242"><ele>67.0</ele><time>2026-04-10T15:14:07.798Z</time></trkpt><trkpt lat="44.4826546" lon="4.706029"><ele>68.0</ele><time>2026-04-10T15:14:09.804Z</time></trkpt><trkpt lat="44.4828804" lon="4.7063537"><ele>69.0</ele><time>2026-04-10T15:14:11.8Z</time></trkpt><trkpt lat="44.4829993" lon="4.7065158"><ele>69.0</ele><time>2026-04-10T15:14:12.8Z</time></trkpt><trkpt lat="44.4831216" lon="4.7066762"><ele>69.0</ele><time>2026-04-10T15:14:13.803Z</time></trkpt><trkpt lat="44.4832403" lon="4.7068391"><ele>69.0</ele><time>2026-04-10T15:14:14.799Z</time></trkpt><trkpt lat="44.4833442" lon="4.7069903"><ele>68.75</ele><time>2026-04-10T15:14:15.794Z</time></trkpt><trkpt lat="44.4834495" lon="4.7071355"><ele>68.5</ele><time>2026-04-10T15:14:16.798Z</time></trkpt><trkpt lat="44.4835642" lon="4.7072786"><ele>68.25</ele><time>2026-04-10T15:14:17.796Z</time></trkpt><trkpt lat="44.4836577" lon="4.7074305"><ele>68.0</ele><time>2026-04-10T15:14:18.801Z</time></trkpt><trkpt lat="44.4837687" lon="4.7075762"><ele>68.0</ele><time>2026-04-10T15:14:19.8Z</time></trkpt><trkpt lat="44.4838736" lon="4.7077249"><ele>68.0</ele><time>2026-04-10T15:14:20.797Z</time></trkpt><trkpt lat="44.484092" lon="4.7080097"><ele>68.0</ele><time>2026-04-10T15:14:22.802Z</time></trkpt><trkpt lat="44.4842056" lon="4.7081498"><ele>68.5</ele><time>2026-04-10T15:14:23.799Z</time></trkpt><trkpt lat="44.4843091" lon="4.7082998"><ele>69.0</ele><time>2026-04-10T15:14:24.801Z</time></trkpt><trkpt lat="44.4844046" lon="4.7084628"><ele>69.5</ele><time>2026-04-10T15:14:25.8Z</time></trkpt><trkpt lat="44.4844723" lon="4.7086414"><ele>70.0</ele><time>2026-04-10T15:14:26.799Z</time></trkpt><trkpt lat="44.4845186" lon="4.7088281"><ele>71.0</ele><time>2026-04-10T15:14:27.794Z</time></trkpt><trkpt lat="44.4845325" lon="4.7090072"><ele>72.0</ele><time>2026-04-10T15:14:28.799Z</time></trkpt><trkpt lat="44.4845401" lon="4.7091837"><ele>73.0</ele><time>2026-04-10T15:14:29.8Z</time></trkpt><trkpt lat="44.4844893" lon="4.7093348"><ele>74.0</ele><time>2026-04-10T15:14:30.801Z</time></trkpt><trkpt lat="44.4844438" lon="4.7094915"><ele>75.0</ele><time>2026-04-10T15:14:31.798Z</time></trkpt><trkpt lat="44.4843955" lon="4.7096468"><ele>76.0</ele><time>2026-04-10T15:14:32.805Z</time></trkpt><trkpt lat="44.4843523" lon="4.7098153"><ele>77.0</ele><time>2026-04-10T15:14:33.808Z</time></trkpt><trkpt lat="44.4843081" lon="4.7099692"><ele>78.0</ele><time>2026-04-10T15:14:34.799Z</time></trkpt><trkpt lat="44.4842912" lon="4.7101165"><ele>79.8</ele><time>2026-04-10T15:14:35.798Z</time></trkpt><trkpt lat="44.4843113" lon="4.7102639"><ele>81.6</ele><time>2026-04-10T15:14:36.799Z</time></trkpt><trkpt lat="44.4843618" lon="4.7104084"><ele>83.39999999999999</ele><time>2026-04-10T15:14:37.799Z</time></trkpt><trkpt lat="44.484406" lon="4.7105491"><ele>85.19999999999999</ele><time>2026-04-10T15:14:38.792Z</time></trkpt><trkpt lat="44.4844576" lon="4.7106754"><ele>87.0</ele><time>2026-04-10T15:14:39.795Z</time></trkpt><trkpt lat="44.4845117" lon="4.7108047"><ele>85.66666666666667</ele><time>2026-04-10T15:14:40.797Z</time></trkpt><trkpt lat="44.484621" lon="4.7110719"><ele>84.33333333333334</ele><time>2026-04-10T15:14:42.815Z</time></trkpt><trkpt lat="44.4846832" lon="4.711211"><ele>83.0</ele><time>2026-04-10T15:14:43.804Z</time></trkpt><trkpt lat="44.4847607" lon="4.7113403"><ele>83.0</ele><time>2026-04-10T15:14:44.801Z</time></trkpt><trkpt lat="44.4848363" lon="4.7115115"><ele>83.0</ele><time>2026-04-10T15:14:45.797Z</time></trkpt><trkpt lat="44.484908" lon="4.7116743"><ele>83.0</ele><time>2026-04-10T15:14:46.795Z</time></trkpt><trkpt lat="44.4849826" lon="4.7118437"><ele>83.0</ele><time>2026-04-10T15:14:47.796Z</time></trkpt><trkpt lat="44.4850603" lon="4.7120128"><ele>85.0</ele><time>2026-04-10T15:14:48.8Z</time></trkpt><trkpt lat="44.4851304" lon="4.7121784"><ele>87.0</ele><time>2026-04-10T15:14:49.8Z</time></trkpt><trkpt lat="44.4852032" lon="4.7123309"><ele>89.0</ele><time>2026-04-10T15:14:50.801Z</time></trkpt><trkpt lat="44.4852662" lon="4.7124847"><ele>91.0</ele><time>2026-04-10T15:14:51.796Z</time></trkpt><trkpt lat="44.4853404" lon="4.7126275"><ele>88.75</ele><time>2026-04-10T15:14:52.798Z</time></trkpt><trkpt lat="44.4854103" lon="4.7127794"><ele>86.5</ele><time>2026-04-10T15:14:53.799Z</time></trkpt><trkpt lat="44.4854735" lon="4.7129207"><ele>84.25</ele><time>2026-04-10T15:14:54.8Z</time></trkpt><trkpt lat="44.4855287" lon="4.7130558"><ele>82.0</ele><time>2026-04-10T15:14:55.804Z</time></trkpt><trkpt lat="44.4856397" lon="4.7135241"><ele>82.5</ele><time>2026-04-10T15:14:58.803Z</time></trkpt><trkpt lat="44.4856514" lon="4.7137075"><ele>83.0</ele><time>2026-04-10T15:14:59.797Z</time></trkpt><trkpt lat="44.4856668" lon="4.7138697"><ele>83.5</ele><time>2026-04-10T15:15:00.801Z</time></trkpt><trkpt lat="44.4856725" lon="4.7140315"><ele>84.0</ele><time>2026-04-10T15:15:01.799Z</time></trkpt><trkpt lat="44.4856326" lon="4.7141529"><ele>84.0</ele><time>2026-04-10T15:15:02.798Z</time></trkpt><trkpt lat="44.4856062" lon="4.714264"><ele>84.0</ele><time>2026-04-10T15:15:03.801Z</time></trkpt><trkpt lat="44.4855886" lon="4.7143742"><ele>84.0</ele><time>2026-04-10T15:15:04.795Z</time></trkpt><trkpt lat="44.4855678" lon="4.7144705"><ele>84.0</ele><time>2026-04-10T15:15:05.797Z</time></trkpt><trkpt lat="44.4855629" lon="4.714577"><ele>84.0</ele><time>2026-04-10T15:15:06.803Z</time></trkpt><trkpt lat="44.4855398" lon="4.7146713"><ele>84.0</ele><time>2026-04-10T15:15:07.797Z</time></trkpt><trkpt lat="44.4855191" lon="4.7147676"><ele>84.6</ele><time>2026-04-10T15:15:08.799Z</time></trkpt><trkpt lat="44.4855126" lon="4.7149279"><ele>85.2</ele><time>2026-04-10T15:15:10.799Z</time></trkpt><trkpt lat="44.4855195" lon="4.7150547"><ele>85.8</ele><time>2026-04-10T15:15:12.794Z</time></trkpt><trkpt lat="44.4855717" lon="4.7151958"><ele>86.39999999999999</ele><time>2026-04-10T15:15:14.798Z</time></trkpt><trkpt lat="44.4856216" lon="4.7152607"><ele>87.0</ele><time>2026-04-10T15:15:15.797Z</time></trkpt><trkpt lat="44.4856694" lon="4.7153378"><ele>87.33333333333333</ele><time>2026-04-10T15:15:16.801Z</time></trkpt><trkpt lat="44.4857284" lon="4.7154227"><ele>87.66666666666667</ele><time>2026-04-10T15:15:17.806Z</time></trkpt><trkpt lat="44.4857781" lon="4.7155161"><ele>88.0</ele><time>2026-04-10T15:15:18.8Z</time></trkpt><trkpt lat="44.4858236" lon="4.7156133"><ele>88.33333333333334</ele><time>2026-04-10T15:15:19.798Z</time></trkpt><trkpt lat="44.4858762" lon="4.7156998"><ele>88.66666666666667</ele><time>2026-04-10T15:15:20.793Z</time></trkpt><trkpt lat="44.4859346" lon="4.7157617"><ele>89.0</ele><time>2026-04-10T15:15:21.799Z</time></trkpt><trkpt lat="44.4859862" lon="4.7158254"><ele>89.0</ele><time>2026-04-10T15:15:22.801Z</time></trkpt><trkpt lat="44.4860323" lon="4.7158893"><ele>89.0</ele><time>2026-04-10T15:15:23.799Z</time></trkpt><trkpt lat="44.4860757" lon="4.7159538"><ele>89.0</ele><time>2026-04-10T15:15:24.8Z</time></trkpt><trkpt lat="44.486153" lon="4.7160775"><ele>89.0</ele><time>2026-04-10T15:15:26.798Z</time></trkpt><trkpt lat="44.4862648" lon="4.7162878"><ele>89.0</ele><time>2026-04-10T15:15:29.799Z</time></trkpt><trkpt lat="44.4863259" lon="4.7163961"><ele>88.80000000000001</ele><time>2026-04-10T15:15:31.794Z</time></trkpt><trkpt lat="44.4863458" lon="4.7164866"><ele>88.60000000000001</ele><time>2026-04-10T15:15:39.807Z</time></trkpt><trkpt lat="44.4863846" lon="4.7166413"><ele>88.4</ele><time>2026-04-10T15:15:43.802Z</time></trkpt><trkpt lat="44.4863707" lon="4.7167685"><ele>88.2</ele><time>2026-04-10T15:15:45.797Z</time></trkpt><trkpt lat="44.4864113" lon="4.7168725"><ele>88.0</ele><time>2026-04-10T15:15:47.802Z</time></trkpt><trkpt lat="44.4865163" lon="4.7169649"><ele>88.0</ele><time>2026-04-10T15:15:49.8Z</time></trkpt><trkpt lat="44.4866" lon="4.7170557"><ele>88.0</ele><time>2026-04-10T15:15:51.801Z</time></trkpt><trkpt lat="44.4866721" lon="4.7171552"><ele>88.0</ele><time>2026-04-10T15:15:53.8Z</time></trkpt><trkpt lat="44.4867702" lon="4.7173205"><ele>88.0</ele><time>2026-04-10T15:15:56.802Z</time></trkpt><trkpt lat="44.486873" lon="4.7174706"><ele>88.0</ele><time>2026-04-10T15:15:58.809Z</time></trkpt><trkpt lat="44.4869406" lon="4.7175646"><ele>88.0</ele><time>2026-04-10T15:15:59.808Z</time></trkpt><trkpt lat="44.4870209" lon="4.7176723"><ele>88.0</ele><time>2026-04-10T15:16:00.798Z</time></trkpt><trkpt lat="44.4871088" lon="4.7177537"><ele>88.0</ele><time>2026-04-10T15:16:01.795Z</time></trkpt><trkpt lat="44.4871916" lon="4.7178513"><ele>88.0</ele><time>2026-04-10T15:16:02.8Z</time></trkpt><trkpt lat="44.4872733" lon="4.7179634"><ele>87.5</ele><time>2026-04-10T15:16:03.798Z</time></trkpt><trkpt lat="44.4873744" lon="4.7180586"><ele>87.0</ele><time>2026-04-10T15:16:04.8Z</time></trkpt><trkpt lat="44.4874706" lon="4.718154"><ele>86.5</ele><time>2026-04-10T15:16:05.816Z</time></trkpt><trkpt lat="44.4875684" lon="4.7182495"><ele>86.0</ele><time>2026-04-10T15:16:06.801Z</time></trkpt><trkpt lat="44.4876725" lon="4.7183554"><ele>86.0</ele><time>2026-04-10T15:16:07.805Z</time></trkpt><trkpt lat="44.4877664" lon="4.7184517"><ele>86.0</ele><time>2026-04-10T15:16:08.8Z</time></trkpt><trkpt lat="44.4878648" lon="4.7185705"><ele>86.0</ele><time>2026-04-10T15:16:09.797Z</time></trkpt><trkpt lat="44.4879613" lon="4.7186778"><ele>86.0</ele><time>2026-04-10T15:16:10.795Z</time></trkpt><trkpt lat="44.4880713" lon="4.7187687"><ele>85.66666666666667</ele><time>2026-04-10T15:16:11.8Z</time></trkpt><trkpt lat="44.4882848" lon="4.7189656"><ele>85.33333333333333</ele><time>2026-04-10T15:16:13.805Z</time></trkpt><trkpt lat="44.4883806" lon="4.7190549"><ele>85.0</ele><time>2026-04-10T15:16:14.801Z</time></trkpt><trkpt lat="44.4884902" lon="4.7191287"><ele>85.0</ele><time>2026-04-10T15:16:15.796Z</time></trkpt><trkpt lat="44.4885876" lon="4.7191919"><ele>85.0</ele><time>2026-04-10T15:16:16.803Z</time></trkpt><trkpt lat="44.4886835" lon="4.7192447"><ele>85.0</ele><time>2026-04-10T15:16:17.801Z</time></trkpt><trkpt lat="44.488776" lon="4.7192948"><ele>85.0</ele><time>2026-04-10T15:16:18.812Z</time></trkpt><trkpt lat="44.488842" lon="4.7193331"><ele>85.0</ele><time>2026-04-10T15:16:19.797Z</time></trkpt><trkpt lat="44.488914" lon="4.7193654"><ele>84.4</ele><time>2026-04-10T15:16:20.797Z</time></trkpt><trkpt lat="44.4890086" lon="4.7194718"><ele>83.8</ele><time>2026-04-10T15:16:22.801Z</time></trkpt><trkpt lat="44.4890383" lon="4.7195565"><ele>83.19999999999999</ele><time>2026-04-10T15:16:23.798Z</time></trkpt><trkpt lat="44.4890632" lon="4.7197441"><ele>82.6</ele><time>2026-04-10T15:16:25.796Z</time></trkpt><trkpt lat="44.489011" lon="4.719836"><ele>82.0</ele><time>2026-04-10T15:16:26.803Z</time></trkpt><trkpt lat="44.4890409" lon="4.7199807"><ele>82.0</ele><time>2026-04-10T15:16:28.8Z</time></trkpt><trkpt lat="44.4891247" lon="4.7200171"><ele>82.0</ele><time>2026-04-10T15:16:30.803Z</time></trkpt><trkpt lat="44.4892123" lon="4.7199953"><ele>82.0</ele><time>2026-04-10T15:16:32.798Z</time></trkpt><trkpt lat="44.4892815" lon="4.7198949"><ele>82.0</ele><time>2026-04-10T15:16:34.798Z</time></trkpt><trkpt lat="44.4893111" lon="4.7197679"><ele>82.0</ele><time>2026-04-10T15:16:36.802Z</time></trkpt><trkpt lat="44.4892621" lon="4.7196933"><ele>82.0</ele><time>2026-04-10T15:16:38.799Z</time></trkpt><trkpt lat="44.4892016" lon="4.7197325"><ele>82.0</ele><time>2026-04-10T15:16:40.796Z</time></trkpt><trkpt lat="44.4891772" lon="4.7198255"><ele>82.0</ele><time>2026-04-10T15:19:19.813Z</time></trkpt><trkpt lat="44.4891399" lon="4.7199367"><ele>82.0</ele><time>2026-04-10T15:24:02.816Z</time></trkpt><trkpt lat="44.4890728" lon="4.719965"><ele>82.0</ele><time>2026-04-10T15:24:06.804Z</time></trkpt><trkpt lat="44.4890643" lon="4.7197716"><ele>82.0</ele><time>2026-04-10T15:24:09.796Z</time></trkpt><trkpt lat="44.489076" lon="4.7196445"><ele>82.0</ele><time>2026-04-10T15:24:11.807Z</time></trkpt><trkpt lat="44.4890819" lon="4.7195354"><ele>82.0</ele><time>2026-04-10T15:24:13.797Z</time></trkpt><trkpt lat="44.4890832" lon="4.7194253"><ele>82.0</ele><time>2026-04-10T15:24:21.799Z</time></trkpt><trkpt lat="44.4890329" lon="4.7193578"><ele>82.0</ele><time>2026-04-10T15:24:23.809Z</time></trkpt><trkpt lat="44.488889" lon="4.7192921"><ele>82.0</ele><time>2026-04-10T15:24:25.806Z</time></trkpt><trkpt lat="44.4888289" lon="4.7192584"><ele>82.0</ele><time>2026-04-10T15:24:26.801Z</time></trkpt><trkpt lat="44.4887704" lon="4.7192203"><ele>82.5</ele><time>2026-04-10T15:24:27.8Z</time></trkpt><trkpt lat="44.488707" lon="4.7191825"><ele>83.0</ele><time>2026-04-10T15:24:28.8Z</time></trkpt><trkpt lat="44.4886307" lon="4.7191358"><ele>83.5</ele><time>2026-04-10T15:24:29.799Z</time></trkpt><trkpt lat="44.4885528" lon="4.7190839"><ele>84.0</ele><time>2026-04-10T15:24:30.804Z</time></trkpt><trkpt lat="44.4884795" lon="4.7190439"><ele>84.5</ele><time>2026-04-10T15:24:31.795Z</time></trkpt><trkpt lat="44.4883882" lon="4.7189979"><ele>85.0</ele><time>2026-04-10T15:24:32.805Z</time></trkpt><trkpt lat="44.4883019" lon="4.7189486"><ele>85.0</ele><time>2026-04-10T15:24:33.801Z</time></trkpt><trkpt lat="44.4881901" lon="4.7188404"><ele>85.0</ele><time>2026-04-10T15:24:35.797Z</time></trkpt><trkpt lat="44.4881168" lon="4.7187726"><ele>85.0</ele><time>2026-04-10T15:24:36.807Z</time></trkpt><trkpt lat="44.4880388" lon="4.7187164"><ele>85.0</ele><time>2026-04-10T15:24:37.8Z</time></trkpt><trkpt lat="44.4879707" lon="4.7186507"><ele>85.0</ele><time>2026-04-10T15:24:38.796Z</time></trkpt><trkpt lat="44.487901" lon="4.718579"><ele>85.2</ele><time>2026-04-10T15:24:39.799Z</time></trkpt><trkpt lat="44.4878238" lon="4.7185048"><ele>85.4</ele><time>2026-04-10T15:24:40.792Z</time></trkpt><trkpt lat="44.4877447" lon="4.71843"><ele>85.6</ele><time>2026-04-10T15:24:41.798Z</time></trkpt><trkpt lat="44.487669" lon="4.7183521"><ele>85.8</ele><time>2026-04-10T15:24:42.8Z</time></trkpt><trkpt lat="44.4875796" lon="4.7182758"><ele>86.0</ele><time>2026-04-10T15:24:43.793Z</time></trkpt><trkpt lat="44.4875059" lon="4.7181911"><ele>86.0</ele><time>2026-04-10T15:24:44.798Z</time></trkpt><trkpt lat="44.4874356" lon="4.7181089"><ele>86.0</ele><time>2026-04-10T15:24:45.799Z</time></trkpt><trkpt lat="44.4873658" lon="4.7180393"><ele>86.0</ele><time>2026-04-10T15:24:46.803Z</time></trkpt><trkpt lat="44.4872906" lon="4.7179709"><ele>86.0</ele><time>2026-04-10T15:24:47.797Z</time></trkpt><trkpt lat="44.4872201" lon="4.7178978"><ele>86.0</ele><time>2026-04-10T15:24:48.806Z</time></trkpt><trkpt lat="44.4871421" lon="4.717821"><ele>86.4</ele><time>2026-04-10T15:24:49.799Z</time></trkpt><trkpt lat="44.4870681" lon="4.7177439"><ele>86.8</ele><time>2026-04-10T15:24:50.8Z</time></trkpt><trkpt lat="44.4869955" lon="4.7176692"><ele>87.2</ele><time>2026-04-10T15:24:51.803Z</time></trkpt><trkpt lat="44.4869073" lon="4.7176204"><ele>87.60000000000001</ele><time>2026-04-10T15:24:52.801Z</time></trkpt><trkpt lat="44.4867904" lon="4.7174888"><ele>88.0</ele><time>2026-04-10T15:24:54.799Z</time></trkpt><trkpt lat="44.4867639" lon="4.7173806"><ele>88.0</ele><time>2026-04-10T15:24:55.797Z</time></trkpt><trkpt lat="44.4867385" lon="4.717281"><ele>88.0</ele><time>2026-04-10T15:24:56.799Z</time></trkpt><trkpt lat="44.4866964" lon="4.7172064"><ele>88.0</ele><time>2026-04-10T15:24:57.802Z</time></trkpt><trkpt lat="44.4866464" lon="4.7170627"><ele>88.0</ele><time>2026-04-10T15:24:59.805Z</time></trkpt><trkpt lat="44.4866115" lon="4.7169728"><ele>88.0</ele><time>2026-04-10T15:25:01.801Z</time></trkpt><trkpt lat="44.4865818" lon="4.7168913"><ele>88.0</ele><time>2026-04-10T15:25:03.807Z</time></trkpt><trkpt lat="44.4865512" lon="4.7167561"><ele>88.0</ele><time>2026-04-10T15:25:05.803Z</time></trkpt><trkpt lat="44.4865052" lon="4.7166853"><ele>88.0</ele><time>2026-04-10T15:25:06.798Z</time></trkpt><trkpt lat="44.4864619" lon="4.7166022"><ele>88.0</ele><time>2026-04-10T15:25:07.8Z</time></trkpt><trkpt lat="44.4864267" lon="4.7165067"><ele>88.0</ele><time>2026-04-10T15:25:08.794Z</time></trkpt><trkpt lat="44.4863811" lon="4.7164236"><ele>88.0</ele><time>2026-04-10T15:25:09.793Z</time></trkpt><trkpt lat="44.4863422" lon="4.7163301"><ele>88.0</ele><time>2026-04-10T15:25:10.798Z</time></trkpt><trkpt lat="44.4863028" lon="4.7162491"><ele>88.0</ele><time>2026-04-10T15:25:11.804Z</time></trkpt><trkpt lat="44.4862179" lon="4.7161008"><ele>88.16666666666666</ele><time>2026-04-10T15:25:13.797Z</time></trkpt><trkpt lat="44.4861754" lon="4.7160282"><ele>88.33333333333333</ele><time>2026-04-10T15:25:14.798Z</time></trkpt><trkpt lat="44.486121" lon="4.7159718"><ele>88.5</ele><time>2026-04-10T15:25:15.799Z</time></trkpt><trkpt lat="44.4860793" lon="4.7158998"><ele>88.66666666666667</ele><time>2026-04-10T15:25:16.796Z</time></trkpt><trkpt lat="44.4860388" lon="4.7158052"><ele>88.83333333333334</ele><time>2026-04-10T15:25:17.797Z</time></trkpt><trkpt lat="44.4859896" lon="4.7157426"><ele>89.0</ele><time>2026-04-10T15:25:18.797Z</time></trkpt><trkpt lat="44.485914" lon="4.7156136"><ele>89.0</ele><time>2026-04-10T15:25:20.793Z</time></trkpt><trkpt lat="44.4858272" lon="4.71548"><ele>89.0</ele><time>2026-04-10T15:25:22.802Z</time></trkpt><trkpt lat="44.4857506" lon="4.7153933"><ele>89.0</ele><time>2026-04-10T15:25:23.799Z</time></trkpt><trkpt lat="44.4856806" lon="4.7152868"><ele>89.0</ele><time>2026-04-10T15:25:24.794Z</time></trkpt><trkpt lat="44.4856029" lon="4.7151713"><ele>89.0</ele><time>2026-04-10T15:25:25.795Z</time></trkpt><trkpt lat="44.4855491" lon="4.7150662"><ele>88.5</ele><time>2026-04-10T15:25:26.799Z</time></trkpt><trkpt lat="44.4855027" lon="4.7149615"><ele>88.0</ele><time>2026-04-10T15:25:27.793Z</time></trkpt><trkpt lat="44.4854808" lon="4.7147738"><ele>87.5</ele><time>2026-04-10T15:25:28.794Z</time></trkpt><trkpt lat="44.4854781" lon="4.7146173"><ele>87.0</ele><time>2026-04-10T15:25:29.792Z</time></trkpt><trkpt lat="44.4855444" lon="4.7144584"><ele>86.25</ele><time>2026-04-10T15:25:30.801Z</time></trkpt><trkpt lat="44.4855857" lon="4.7142958"><ele>85.5</ele><time>2026-04-10T15:25:31.801Z</time></trkpt><trkpt lat="44.485632" lon="4.7141343"><ele>84.75</ele><time>2026-04-10T15:25:32.794Z</time></trkpt><trkpt lat="44.4856607" lon="4.7139916"><ele>84.0</ele><time>2026-04-10T15:25:33.795Z</time></trkpt><trkpt lat="44.4856908" lon="4.713853"><ele>83.5</ele><time>2026-04-10T15:25:34.801Z</time></trkpt><trkpt lat="44.4856986" lon="4.7135663"><ele>83.0</ele><time>2026-04-10T15:25:36.793Z</time></trkpt><trkpt lat="44.4856772" lon="4.7134166"><ele>82.5</ele><time>2026-04-10T15:25:37.792Z</time></trkpt><trkpt lat="44.4856526" lon="4.7132581"><ele>82.0</ele><time>2026-04-10T15:25:38.796Z</time></trkpt><trkpt lat="44.4856168" lon="4.713105"><ele>82.0</ele><time>2026-04-10T15:25:39.795Z</time></trkpt><trkpt lat="44.485561" lon="4.7129567"><ele>82.0</ele><time>2026-04-10T15:25:40.801Z</time></trkpt><trkpt lat="44.4854869" lon="4.7128015"><ele>82.0</ele><time>2026-04-10T15:25:41.796Z</time></trkpt><trkpt lat="44.4854209" lon="4.7126514"><ele>82.0</ele><time>2026-04-10T15:25:42.799Z</time></trkpt><trkpt lat="44.4853377" lon="4.7125155"><ele>82.25</ele><time>2026-04-10T15:25:43.799Z</time></trkpt><trkpt lat="44.4852713" lon="4.7123621"><ele>82.5</ele><time>2026-04-10T15:25:44.796Z</time></trkpt><trkpt lat="44.4852016" lon="4.7122153"><ele>82.75</ele><time>2026-04-10T15:25:45.803Z</time></trkpt><trkpt lat="44.4851326" lon="4.7120612"><ele>83.0</ele><time>2026-04-10T15:25:46.791Z</time></trkpt><trkpt lat="44.4850506" lon="4.7118898"><ele>83.0</ele><time>2026-04-10T15:25:47.792Z</time></trkpt><trkpt lat="44.4849672" lon="4.7117169"><ele>83.0</ele><time>2026-04-10T15:25:48.805Z</time></trkpt><trkpt lat="44.4849" lon="4.7115437"><ele>83.0</ele><time>2026-04-10T15:25:49.8Z</time></trkpt><trkpt lat="44.4848179" lon="4.7113648"><ele>83.0</ele><time>2026-04-10T15:25:50.794Z</time></trkpt><trkpt lat="44.4847359" lon="4.7111934"><ele>84.0</ele><time>2026-04-10T15:25:51.797Z</time></trkpt><trkpt lat="44.4846577" lon="4.7110334"><ele>85.0</ele><time>2026-04-10T15:25:52.795Z</time></trkpt><trkpt lat="44.4845838" lon="4.7108765"><ele>86.0</ele><time>2026-04-10T15:25:53.799Z</time></trkpt><trkpt lat="44.4845039" lon="4.7107202"><ele>87.0</ele><time>2026-04-10T15:25:54.799Z</time></trkpt><trkpt lat="44.4844291" lon="4.7105547"><ele>87.0</ele><time>2026-04-10T15:25:55.795Z</time></trkpt><trkpt lat="44.4843765" lon="4.7103975"><ele>87.0</ele><time>2026-04-10T15:25:56.793Z</time></trkpt><trkpt lat="44.4843374" lon="4.7102218"><ele>87.0</ele><time>2026-04-10T15:25:57.802Z</time></trkpt><trkpt lat="44.4843154" lon="4.7100439"><ele>87.0</ele><time>2026-04-10T15:25:58.793Z</time></trkpt><trkpt lat="44.4843226" lon="4.7098582"><ele>84.75</ele><time>2026-04-10T15:25:59.798Z</time></trkpt><trkpt lat="44.4843946" lon="4.7096891"><ele>82.5</ele><time>2026-04-10T15:26:00.802Z</time></trkpt><trkpt lat="44.4844556" lon="4.7095061"><ele>80.25</ele><time>2026-04-10T15:26:01.795Z</time></trkpt><trkpt lat="44.4845065" lon="4.7093205"><ele>78.0</ele><time>2026-04-10T15:26:02.802Z</time></trkpt><trkpt lat="44.484547" lon="4.7091347"><ele>77.0</ele><time>2026-04-10T15:26:03.805Z</time></trkpt><trkpt lat="44.484558" lon="4.7089589"><ele>76.0</ele><time>2026-04-10T15:26:04.798Z</time></trkpt><trkpt lat="44.4845452" lon="4.7087732"><ele>75.0</ele><time>2026-04-10T15:26:05.795Z</time></trkpt><trkpt lat="44.4845079" lon="4.7085858"><ele>74.0</ele><time>2026-04-10T15:26:06.792Z</time></trkpt><trkpt lat="44.4844384" lon="4.7084142"><ele>73.0</ele><time>2026-04-10T15:26:07.793Z</time></trkpt><trkpt lat="44.4843485" lon="4.7082618"><ele>72.0</ele><time>2026-04-10T15:26:08.795Z</time></trkpt><trkpt lat="44.4842401" lon="4.7081151"><ele>71.0</ele><time>2026-04-10T15:26:09.793Z</time></trkpt><trkpt lat="44.4841297" lon="4.707966"><ele>70.0</ele><time>2026-04-10T15:26:10.794Z</time></trkpt><trkpt lat="44.4840197" lon="4.707811"><ele>70.33333333333333</ele><time>2026-04-10T15:26:11.794Z</time></trkpt><trkpt lat="44.4839117" lon="4.70766"><ele>70.66666666666667</ele><time>2026-04-10T15:26:12.795Z</time></trkpt><trkpt lat="44.4838001" lon="4.7075103"><ele>71.0</ele><time>2026-04-10T15:26:13.794Z</time></trkpt><trkpt lat="44.4836872" lon="4.7073615"><ele>71.0</ele><time>2026-04-10T15:26:14.798Z</time></trkpt><trkpt lat="44.4835751" lon="4.7072119"><ele>71.0</ele><time>2026-04-10T15:26:15.795Z</time></trkpt><trkpt lat="44.4834625" lon="4.707055"><ele>71.0</ele><time>2026-04-10T15:26:16.794Z</time></trkpt><trkpt lat="44.4833174" lon="4.706916"><ele>70.33333333333334</ele><time>2026-04-10T15:26:17.79Z</time></trkpt><trkpt lat="44.483197" lon="4.7067591"><ele>69.66666666666667</ele><time>2026-04-10T15:26:18.791Z</time></trkpt><trkpt lat="44.483087" lon="4.7066117"><ele>69.0</ele><time>2026-04-10T15:26:19.804Z</time></trkpt><trkpt lat="44.4829822" lon="4.7064658"><ele>68.33333333333333</ele><time>2026-04-10T15:26:20.805Z</time></trkpt><trkpt lat="44.4828795" lon="4.7063061"><ele>67.66666666666666</ele><time>2026-04-10T15:26:21.796Z</time></trkpt><trkpt lat="44.4827489" lon="4.7061466"><ele>67.0</ele><time>2026-04-10T15:26:22.8Z</time></trkpt><trkpt lat="44.482627" lon="4.7059823"><ele>67.0</ele><time>2026-04-10T15:26:23.795Z</time></trkpt><trkpt lat="44.4825051" lon="4.7058254"><ele>67.0</ele><time>2026-04-10T15:26:24.793Z</time></trkpt><trkpt lat="44.4823948" lon="4.7056757"><ele>67.0</ele><time>2026-04-10T15:26:25.795Z</time></trkpt><trkpt lat="44.4822894" lon="4.7055232"><ele>67.0</ele><time>2026-04-10T15:26:26.794Z</time></trkpt><trkpt lat="44.4821933" lon="4.705362"><ele>67.0</ele><time>2026-04-10T15:26:27.798Z</time></trkpt><trkpt lat="44.4821093" lon="4.7051693"><ele>67.0</ele><time>2026-04-10T15:26:28.795Z</time></trkpt><trkpt lat="44.4820928" lon="4.7049445"><ele>66.66666666666666</ele><time>2026-04-10T15:26:29.794Z</time></trkpt><trkpt lat="44.4820458" lon="4.7047304"><ele>66.33333333333333</ele><time>2026-04-10T15:26:30.796Z</time></trkpt><trkpt lat="44.4820307" lon="4.7045125"><ele>66.0</ele><time>2026-04-10T15:26:31.793Z</time></trkpt><trkpt lat="44.4820094" lon="4.7042879"><ele>65.66666666666667</ele><time>2026-04-10T15:26:32.796Z</time></trkpt><trkpt lat="44.4819973" lon="4.7040727"><ele>65.33333333333334</ele><time>2026-04-10T15:26:33.797Z</time></trkpt><trkpt lat="44.4819865" lon="4.7038478"><ele>65.0</ele><time>2026-04-10T15:26:34.793Z</time></trkpt><trkpt lat="44.4819636" lon="4.7036152"><ele>64.0</ele><time>2026-04-10T15:26:35.797Z</time></trkpt><trkpt lat="44.4819464" lon="4.703391"><ele>63.0</ele><time>2026-04-10T15:26:36.794Z</time></trkpt><trkpt lat="44.4819393" lon="4.7031656"><ele>62.0</ele><time>2026-04-10T15:26:37.798Z</time></trkpt><trkpt lat="44.4819431" lon="4.7029606"><ele>62.0</ele><time>2026-04-10T15:26:38.796Z</time></trkpt><trkpt lat="44.4819144" lon="4.7027526"><ele>62.0</ele><time>2026-04-10T15:26:39.793Z</time></trkpt><trkpt lat="44.4819005" lon="4.7025459"><ele>62.0</ele><time>2026-04-10T15:26:40.8Z</time></trkpt><trkpt lat="44.4818812" lon="4.7023386"><ele>62.0</ele><time>2026-04-10T15:26:41.793Z</time></trkpt><trkpt lat="44.481858" lon="4.7021237"><ele>62.66666666666667</ele><time>2026-04-10T15:26:42.791Z</time></trkpt><trkpt lat="44.4818372" lon="4.7019068"><ele>63.33333333333333</ele><time>2026-04-10T15:26:43.8Z</time></trkpt><trkpt lat="44.481823" lon="4.701681"><ele>64.0</ele><time>2026-04-10T15:26:44.794Z</time></trkpt><trkpt lat="44.4817979" lon="4.7014628"><ele>64.0</ele><time>2026-04-10T15:26:45.796Z</time></trkpt><trkpt lat="44.4817778" lon="4.701256"><ele>64.0</ele><time>2026-04-10T15:26:46.793Z</time></trkpt><trkpt lat="44.481762" lon="4.701061"><ele>64.0</ele><time>2026-04-10T15:26:47.798Z</time></trkpt><trkpt lat="44.4817542" lon="4.7008691"><ele>64.0</ele><time>2026-04-10T15:26:48.795Z</time></trkpt><trkpt lat="44.4817298" lon="4.7006693"><ele>64.0</ele><time>2026-04-10T15:26:49.795Z</time></trkpt><trkpt lat="44.4817023" lon="4.7004682"><ele>64.0</ele><time>2026-04-10T15:26:50.802Z</time></trkpt><trkpt lat="44.4816776" lon="4.7002678"><ele>64.0</ele><time>2026-04-10T15:26:51.797Z</time></trkpt><trkpt lat="44.4816551" lon="4.7000645"><ele>64.0</ele><time>2026-04-10T15:26:52.792Z</time></trkpt><trkpt lat="44.4816404" lon="4.6998647"><ele>64.0</ele><time>2026-04-10T15:26:53.797Z</time></trkpt><trkpt lat="44.4816217" lon="4.6996574"><ele>64.0</ele><time>2026-04-10T15:26:54.8Z</time></trkpt><trkpt lat="44.4816072" lon="4.6994517"><ele>64.0</ele><time>2026-04-10T15:26:55.806Z</time></trkpt><trkpt lat="44.4815934" lon="4.6992476"><ele>64.0</ele><time>2026-04-10T15:26:56.798Z</time></trkpt><trkpt lat="44.481581" lon="4.6990353"><ele>64.0</ele><time>2026-04-10T15:26:57.791Z</time></trkpt><trkpt lat="44.4815585" lon="4.6988314"><ele>64.0</ele><time>2026-04-10T15:26:58.8Z</time></trkpt><trkpt lat="44.4815396" lon="4.69862"><ele>64.0</ele><time>2026-04-10T15:26:59.8Z</time></trkpt><trkpt lat="44.481525" lon="4.6984032"><ele>64.0</ele><time>2026-04-10T15:27:00.792Z</time></trkpt><trkpt lat="44.4815067" lon="4.6981747"><ele>64.0</ele><time>2026-04-10T15:27:01.793Z</time></trkpt><trkpt lat="44.4814875" lon="4.69795"><ele>64.0</ele><time>2026-04-10T15:27:02.794Z</time></trkpt><trkpt lat="44.4814697" lon="4.6977285"><ele>64.0</ele><time>2026-04-10T15:27:03.801Z</time></trkpt><trkpt lat="44.4814478" lon="4.6975172"><ele>64.0</ele><time>2026-04-10T15:27:04.798Z</time></trkpt><trkpt lat="44.4814333" lon="4.6973072"><ele>64.0</ele><time>2026-04-10T15:27:05.799Z</time></trkpt><trkpt lat="44.4814159" lon="4.6970895"><ele>65.0</ele><time>2026-04-10T15:27:06.801Z</time></trkpt><trkpt lat="44.4814037" lon="4.6968814"><ele>66.0</ele><time>2026-04-10T15:27:07.796Z</time></trkpt><trkpt lat="44.4813867" lon="4.6966719"><ele>67.0</ele><time>2026-04-10T15:27:08.796Z</time></trkpt><trkpt lat="44.4813699" lon="4.696458"><ele>67.0</ele><time>2026-04-10T15:27:09.791Z</time></trkpt><trkpt lat="44.4813448" lon="4.6962525"><ele>67.0</ele><time>2026-04-10T15:27:10.803Z</time></trkpt><trkpt lat="44.4813164" lon="4.6960534"><ele>67.0</ele><time>2026-04-10T15:27:11.794Z</time></trkpt><trkpt lat="44.4813013" lon="4.6958633"><ele>67.0</ele><time>2026-04-10T15:27:12.792Z</time></trkpt><trkpt lat="44.4812837" lon="4.6956813"><ele>66.25</ele><time>2026-04-10T15:27:13.795Z</time></trkpt><trkpt lat="44.4812705" lon="4.6955135"><ele>65.5</ele><time>2026-04-10T15:27:14.802Z</time></trkpt><trkpt lat="44.4812519" lon="4.6953301"><ele>64.75</ele><time>2026-04-10T15:27:15.804Z</time></trkpt><trkpt lat="44.4812455" lon="4.6951439"><ele>64.0</ele><time>2026-04-10T15:27:16.799Z</time></trkpt><trkpt lat="44.4812389" lon="4.6949698"><ele>63.75</ele><time>2026-04-10T15:27:17.799Z</time></trkpt><trkpt lat="44.4812201" lon="4.6947902"><ele>63.5</ele><time>2026-04-10T15:27:18.797Z</time></trkpt><trkpt lat="44.4812079" lon="4.6946218"><ele>63.25</ele><time>2026-04-10T15:27:19.802Z</time></trkpt><trkpt lat="44.4811827" lon="4.6944378"><ele>63.0</ele><time>2026-04-10T15:27:20.797Z</time></trkpt><trkpt lat="44.4811744" lon="4.6942637"><ele>62.75</ele><time>2026-04-10T15:27:21.798Z</time></trkpt><trkpt lat="44.4811604" lon="4.6940746"><ele>62.5</ele><time>2026-04-10T15:27:22.795Z</time></trkpt><trkpt lat="44.4811529" lon="4.6938866"><ele>62.25</ele><time>2026-04-10T15:27:23.799Z</time></trkpt><trkpt lat="44.4811355" lon="4.6937141"><ele>62.0</ele><time>2026-04-10T15:27:24.795Z</time></trkpt><trkpt lat="44.4811201" lon="4.6935327"><ele>62.400000000000006</ele><time>2026-04-10T15:27:25.796Z</time></trkpt><trkpt lat="44.4811115" lon="4.6933554"><ele>62.800000000000004</ele><time>2026-04-10T15:27:26.796Z</time></trkpt><trkpt lat="44.4810964" lon="4.6932125"><ele>63.2</ele><time>2026-04-10T15:27:27.799Z</time></trkpt><trkpt lat="44.4810843" lon="4.6930606"><ele>63.6</ele><time>2026-04-10T15:27:28.798Z</time></trkpt><trkpt lat="44.4810651" lon="4.6929214"><ele>64.0</ele><time>2026-04-10T15:27:29.795Z</time></trkpt><trkpt lat="44.481043" lon="4.6927795"><ele>64.33333333333333</ele><time>2026-04-10T15:27:30.799Z</time></trkpt><trkpt lat="44.4810061" lon="4.69263"><ele>64.66666666666666</ele><time>2026-04-10T15:27:31.792Z</time></trkpt><trkpt lat="44.4809758" lon="4.6925326"><ele>65.0</ele><time>2026-04-10T15:27:32.793Z</time></trkpt><trkpt lat="44.4809484" lon="4.6924299"><ele>65.33333333333333</ele><time>2026-04-10T15:27:33.793Z</time></trkpt><trkpt lat="44.4809253" lon="4.6923333"><ele>65.66666666666667</ele><time>2026-04-10T15:27:34.79Z</time></trkpt><trkpt lat="44.4808849" lon="4.6922017"><ele>66.0</ele><time>2026-04-10T15:27:36.797Z</time></trkpt><trkpt lat="44.4808534" lon="4.692086"><ele>66.0</ele><time>2026-04-10T15:27:38.789Z</time></trkpt><trkpt lat="44.4808318" lon="4.691971"><ele>66.0</ele><time>2026-04-10T15:27:40.792Z</time></trkpt><trkpt lat="44.4808057" lon="4.6918735"><ele>66.0</ele><time>2026-04-10T15:27:42.795Z</time></trkpt><trkpt lat="44.4807816" lon="4.691769"><ele>66.0</ele><time>2026-04-10T15:27:44.793Z</time></trkpt><trkpt lat="44.4807584" lon="4.6916626"><ele>66.0</ele><time>2026-04-10T15:27:46.797Z</time></trkpt><trkpt lat="44.4807228" lon="4.6915593"><ele>66.0</ele><time>2026-04-10T15:27:48.8Z</time></trkpt><trkpt lat="44.4806912" lon="4.6914782"><ele>67.83333333333333</ele><time>2026-04-10T15:27:51.79Z</time></trkpt><trkpt lat="44.480645" lon="4.6913498"><ele>69.66666666666667</ele><time>2026-04-10T15:27:54.79Z</time></trkpt><trkpt lat="44.4806227" lon="4.6912582"><ele>71.5</ele><time>2026-04-10T15:27:55.791Z</time></trkpt><trkpt lat="44.4806035" lon="4.6911578"><ele>73.33333333333334</ele><time>2026-04-10T15:27:56.789Z</time></trkpt><trkpt lat="44.4805928" lon="4.69107"><ele>75.16666666666667</ele><time>2026-04-10T15:27:57.787Z</time></trkpt><trkpt lat="44.4805447" lon="4.6909201"><ele>77.0</ele><time>2026-04-10T15:27:59.803Z</time></trkpt><trkpt lat="44.4805158" lon="4.6907589"><ele>76.4</ele><time>2026-04-10T15:28:01.791Z</time></trkpt><trkpt lat="44.48049" lon="4.6906514"><ele>75.80000000000001</ele><time>2026-04-10T15:28:04.794Z</time></trkpt><trkpt lat="44.4804538" lon="4.6905582"><ele>75.2</ele><time>2026-04-10T15:28:08.799Z</time></trkpt><trkpt lat="44.4804262" lon="4.6904491"><ele>74.60000000000001</ele><time>2026-04-10T15:28:23.793Z</time></trkpt><trkpt lat="44.4804811" lon="4.6902608"><ele>74.0</ele><time>2026-04-10T15:28:25.793Z</time></trkpt><trkpt lat="44.4805229" lon="4.6901729"><ele>75.6</ele><time>2026-04-10T15:28:26.795Z</time></trkpt><trkpt lat="44.4806159" lon="4.6900512"><ele>77.2</ele><time>2026-04-10T15:28:28.793Z</time></trkpt><trkpt lat="44.480669" lon="4.689993"><ele>78.8</ele><time>2026-04-10T15:28:29.795Z</time></trkpt><trkpt lat="44.4807161" lon="4.6899334"><ele>80.39999999999999</ele><time>2026-04-10T15:28:30.799Z</time></trkpt><trkpt lat="44.4808104" lon="4.6898231"><ele>82.0</ele><time>2026-04-10T15:28:32.794Z</time></trkpt><trkpt lat="44.4809113" lon="4.6897178"><ele>81.99999999999999</ele><time>2026-04-10T15:28:34.796Z</time></trkpt><trkpt lat="44.4809602" lon="4.6896612"><ele>82.0</ele><time>2026-04-10T15:28:35.79Z</time></trkpt><trkpt lat="44.4810155" lon="4.6895988"><ele>82.0</ele><time>2026-04-10T15:28:36.792Z</time></trkpt><trkpt lat="44.4810736" lon="4.6895361"><ele>82.0</ele><time>2026-04-10T15:28:37.792Z</time></trkpt><trkpt lat="44.4811336" lon="4.6894585"><ele>82.0</ele><time>2026-04-10T15:28:38.795Z</time></trkpt><trkpt lat="44.4811919" lon="4.6893863"><ele>81.99999999999999</ele><time>2026-04-10T15:28:39.792Z</time></trkpt><trkpt lat="44.481254" lon="4.6893175"><ele>82.0</ele><time>2026-04-10T15:28:40.791Z</time></trkpt><trkpt lat="44.4813138" lon="4.6892588"><ele>81.85714285714285</ele><time>2026-04-10T15:28:41.791Z</time></trkpt><trkpt lat="44.4813691" lon="4.6892087"><ele>81.71428571428571</ele><time>2026-04-10T15:28:42.793Z</time></trkpt><trkpt lat="44.4814225" lon="4.6891616"><ele>81.57142857142857</ele><time>2026-04-10T15:28:43.794Z</time></trkpt><trkpt lat="44.481478" lon="4.6891181"><ele>81.42857142857142</ele><time>2026-04-10T15:28:44.79Z</time></trkpt><trkpt lat="44.4815328" lon="4.6890712"><ele>81.28571428571428</ele><time>2026-04-10T15:28:45.789Z</time></trkpt><trkpt lat="44.4815905" lon="4.6890244"><ele>81.14285714285714</ele><time>2026-04-10T15:28:46.791Z</time></trkpt><trkpt lat="44.4816637" lon="4.6889848"><ele>81.0</ele><time>2026-04-10T15:28:47.792Z</time></trkpt><trkpt lat="44.481775" lon="4.6888769"><ele>81.0</ele><time>2026-04-10T15:28:49.79Z</time></trkpt><trkpt lat="44.4818418" lon="4.6888417"><ele>81.0</ele><time>2026-04-10T15:28:50.789Z</time></trkpt><trkpt lat="44.4819452" lon="4.688818"><ele>81.0</ele><time>2026-04-10T15:28:51.791Z</time></trkpt><trkpt lat="44.4820393" lon="4.6888098"><ele>81.0</ele><time>2026-04-10T15:28:52.791Z</time></trkpt><trkpt lat="44.4821091" lon="4.6887724"><ele>81.0</ele><time>2026-04-10T15:28:53.792Z</time></trkpt><trkpt lat="44.4821846" lon="4.6887525"><ele>81.0</ele><time>2026-04-10T15:28:54.789Z</time></trkpt><trkpt lat="44.4822585" lon="4.6887241"><ele>81.5</ele><time>2026-04-10T15:28:55.789Z</time></trkpt><trkpt lat="44.4823424" lon="4.6887157"><ele>82.0</ele><time>2026-04-10T15:28:56.79Z</time></trkpt><trkpt lat="44.4824159" lon="4.6886676"><ele>82.5</ele><time>2026-04-10T15:28:57.791Z</time></trkpt><trkpt lat="44.4824964" lon="4.688625"><ele>83.0</ele><time>2026-04-10T15:28:58.788Z</time></trkpt><trkpt lat="44.4825876" lon="4.6885548"><ele>83.5</ele><time>2026-04-10T15:28:59.789Z</time></trkpt><trkpt lat="44.4826761" lon="4.6885119"><ele>84.0</ele><time>2026-04-10T15:29:00.79Z</time></trkpt><trkpt lat="44.4827675" lon="4.6884311"><ele>83.83333333333333</ele><time>2026-04-10T15:29:01.8Z</time></trkpt><trkpt lat="44.4828478" lon="4.6883963"><ele>83.66666666666667</ele><time>2026-04-10T15:29:02.793Z</time></trkpt><trkpt lat="44.4829034" lon="4.6882978"><ele>83.5</ele><time>2026-04-10T15:29:03.788Z</time></trkpt><trkpt lat="44.4829626" lon="4.6882065"><ele>83.33333333333334</ele><time>2026-04-10T15:29:04.79Z</time></trkpt><trkpt lat="44.4830238" lon="4.6881428"><ele>83.16666666666667</ele><time>2026-04-10T15:29:05.79Z</time></trkpt><trkpt lat="44.4830672" lon="4.6880661"><ele>83.0</ele><time>2026-04-10T15:29:06.795Z</time></trkpt><trkpt lat="44.4830956" lon="4.6879733"><ele>83.0</ele><time>2026-04-10T15:29:07.792Z</time></trkpt><trkpt lat="44.4831308" lon="4.6878888"><ele>83.0</ele><time>2026-04-10T15:29:08.788Z</time></trkpt><trkpt lat="44.4831586" lon="4.6878027"><ele>83.0</ele><time>2026-04-10T15:29:09.79Z</time></trkpt><trkpt lat="44.4832093" lon="4.687706"><ele>83.0</ele><time>2026-04-10T15:29:11.787Z</time></trkpt><trkpt lat="44.4832537" lon="4.68763"><ele>83.0</ele><time>2026-04-10T15:29:13.791Z</time></trkpt><trkpt lat="44.4832729" lon="4.6875439"><ele>83.0</ele><time>2026-04-10T15:29:14.792Z</time></trkpt><trkpt lat="44.4833068" lon="4.6874677"><ele>83.0</ele><time>2026-04-10T15:29:15.79Z</time></trkpt><trkpt lat="44.483372" lon="4.6873258"><ele>83.0</ele><time>2026-04-10T15:29:17.795Z</time></trkpt><trkpt lat="44.4834348" lon="4.6871801"><ele>83.0</ele><time>2026-04-10T15:29:19.793Z</time></trkpt><trkpt lat="44.483496" lon="4.6870307"><ele>83.0</ele><time>2026-04-10T15:29:21.797Z</time></trkpt><trkpt lat="44.483484" lon="4.6869012"><ele>83.0</ele><time>2026-04-10T15:29:23.793Z</time></trkpt><trkpt lat="44.4834531" lon="4.6867247"><ele>83.16666666666667</ele><time>2026-04-10T15:29:25.796Z</time></trkpt><trkpt lat="44.4834416" lon="4.6866309"><ele>83.33333333333334</ele><time>2026-04-10T15:29:26.788Z</time></trkpt><trkpt lat="44.4834379" lon="4.6865289"><ele>83.5</ele><time>2026-04-10T15:29:27.789Z</time></trkpt><trkpt lat="44.4834161" lon="4.686437"><ele>83.66666666666667</ele><time>2026-04-10T15:29:28.79Z</time></trkpt><trkpt lat="44.4834032" lon="4.6863458"><ele>83.83333333333333</ele><time>2026-04-10T15:29:29.791Z</time></trkpt><trkpt lat="44.4833897" lon="4.6862549"><ele>84.0</ele><time>2026-04-10T15:29:30.793Z</time></trkpt><trkpt lat="44.483371" lon="4.6860973"><ele>84.4</ele><time>2026-04-10T15:29:32.79Z</time></trkpt><trkpt lat="44.4833061" lon="4.6859568"><ele>84.80000000000001</ele><time>2026-04-10T15:29:34.791Z</time></trkpt><trkpt lat="44.4832602" lon="4.6858315"><ele>85.19999999999999</ele><time>2026-04-10T15:29:36.788Z</time></trkpt><trkpt lat="44.4832392" lon="4.6856774"><ele>85.6</ele><time>2026-04-10T15:29:38.795Z</time></trkpt><trkpt lat="44.4832328" lon="4.6855845"><ele>86.0</ele><time>2026-04-10T15:29:39.791Z</time></trkpt><trkpt lat="44.483229" lon="4.6854145"><ele>87.0</ele><time>2026-04-10T15:29:41.794Z</time></trkpt><trkpt lat="44.4832378" lon="4.6852328"><ele>88.0</ele><time>2026-04-10T15:29:43.795Z</time></trkpt><trkpt lat="44.4832364" lon="4.6851425"><ele>89.0</ele><time>2026-04-10T15:29:44.794Z</time></trkpt><trkpt lat="44.4832419" lon="4.684989"><ele>90.0</ele><time>2026-04-10T15:29:46.792Z</time></trkpt><trkpt lat="44.4832505" lon="4.6848346"><ele>91.0</ele><time>2026-04-10T15:29:48.791Z</time></trkpt><trkpt lat="44.4832511" lon="4.6847016"><ele>91.0</ele><time>2026-04-10T15:29:50.792Z</time></trkpt><trkpt lat="44.4832263" lon="4.6846009"><ele>91.0</ele><time>2026-04-10T15:29:52.803Z</time></trkpt><trkpt lat="44.4832221" lon="4.6845008"><ele>91.0</ele><time>2026-04-10T15:29:53.802Z</time></trkpt><trkpt lat="44.4832065" lon="4.6843291"><ele>91.0</ele><time>2026-04-10T15:29:55.792Z</time></trkpt><trkpt lat="44.4831902" lon="4.6841904"><ele>91.0</ele><time>2026-04-10T15:29:56.792Z</time></trkpt><trkpt lat="44.4831818" lon="4.6840805"><ele>91.0</ele><time>2026-04-10T15:29:57.792Z</time></trkpt><trkpt lat="44.4831842" lon="4.6839482"><ele>91.0</ele><time>2026-04-10T15:29:58.793Z</time></trkpt><trkpt lat="44.4832043" lon="4.6838352"><ele>91.0</ele><time>2026-04-10T15:29:59.793Z</time></trkpt><trkpt lat="44.4832197" lon="4.6837173"><ele>91.0</ele><time>2026-04-10T15:30:00.79Z</time></trkpt><trkpt lat="44.4832445" lon="4.6836191"><ele>91.0</ele><time>2026-04-10T15:30:01.793Z</time></trkpt><trkpt lat="44.4832917" lon="4.6835128"><ele>91.0</ele><time>2026-04-10T15:30:02.791Z</time></trkpt><trkpt lat="44.4833415" lon="4.683407"><ele>90.8</ele><time>2026-04-10T15:30:03.8Z</time></trkpt><trkpt lat="44.4833916" lon="4.6832978"><ele>90.6</ele><time>2026-04-10T15:30:04.791Z</time></trkpt><trkpt lat="44.4834373" lon="4.6831802"><ele>90.4</ele><time>2026-04-10T15:30:05.794Z</time></trkpt><trkpt lat="44.4834932" lon="4.6830874"><ele>90.2</ele><time>2026-04-10T15:30:06.806Z</time></trkpt><trkpt lat="44.4835382" lon="4.6829698"><ele>90.0</ele><time>2026-04-10T15:30:07.801Z</time></trkpt><trkpt lat="44.4835818" lon="4.6828663"><ele>90.2</ele><time>2026-04-10T15:30:08.791Z</time></trkpt><trkpt lat="44.4836258" lon="4.6827537"><ele>90.4</ele><time>2026-04-10T15:30:09.791Z</time></trkpt><trkpt lat="44.483662" lon="4.6826357"><ele>90.6</ele><time>2026-04-10T15:30:10.79Z</time></trkpt><trkpt lat="44.4836831" lon="4.6825021"><ele>90.8</ele><time>2026-04-10T15:30:11.795Z</time></trkpt><trkpt lat="44.4836989" lon="4.6823602"><ele>91.0</ele><time>2026-04-10T15:30:12.791Z</time></trkpt><trkpt lat="44.4837116" lon="4.6822119"><ele>91.0</ele><time>2026-04-10T15:30:13.799Z</time></trkpt><trkpt lat="44.4837123" lon="4.6820516"><ele>91.0</ele><time>2026-04-10T15:30:14.79Z</time></trkpt><trkpt lat="44.4837173" lon="4.6819047"><ele>91.0</ele><time>2026-04-10T15:30:15.799Z</time></trkpt><trkpt lat="44.4837188" lon="4.6817681"><ele>91.0</ele><time>2026-04-10T15:30:16.8Z</time></trkpt><trkpt lat="44.4837291" lon="4.681622"><ele>91.0</ele><time>2026-04-10T15:30:17.796Z</time></trkpt><trkpt lat="44.4837226" lon="4.6815014"><ele>90.8</ele><time>2026-04-10T15:30:18.789Z</time></trkpt><trkpt lat="44.4837166" lon="4.6813686"><ele>90.6</ele><time>2026-04-10T15:30:19.797Z</time></trkpt><trkpt lat="44.4837124" lon="4.6812403"><ele>90.4</ele><time>2026-04-10T15:30:20.794Z</time></trkpt><trkpt lat="44.4837088" lon="4.6811084"><ele>90.2</ele><time>2026-04-10T15:30:21.793Z</time></trkpt><trkpt lat="44.4837021" lon="4.680981"><ele>90.0</ele><time>2026-04-10T15:30:22.791Z</time></trkpt><trkpt lat="44.4836984" lon="4.6808591"><ele>89.6</ele><time>2026-04-10T15:30:23.788Z</time></trkpt><trkpt lat="44.4836844" lon="4.6807326"><ele>89.2</ele><time>2026-04-10T15:30:24.792Z</time></trkpt><trkpt lat="44.4836716" lon="4.6806109"><ele>88.80000000000001</ele><time>2026-04-10T15:30:25.791Z</time></trkpt><trkpt lat="44.4836644" lon="4.6804875"><ele>88.4</ele><time>2026-04-10T15:30:26.793Z</time></trkpt><trkpt lat="44.483653" lon="4.6803508"><ele>88.0</ele><time>2026-04-10T15:30:27.793Z</time></trkpt><trkpt lat="44.4836363" lon="4.6802229"><ele>87.0</ele><time>2026-04-10T15:30:28.794Z</time></trkpt><trkpt lat="44.4836143" lon="4.6800973"><ele>86.0</ele><time>2026-04-10T15:30:29.792Z</time></trkpt><trkpt lat="44.4835861" lon="4.6799689"><ele>85.0</ele><time>2026-04-10T15:30:30.789Z</time></trkpt><trkpt lat="44.4835505" lon="4.6798381"><ele>84.0</ele><time>2026-04-10T15:30:31.797Z</time></trkpt><trkpt lat="44.4835132" lon="4.6797148"><ele>83.0</ele><time>2026-04-10T15:30:32.792Z</time></trkpt><trkpt lat="44.483485" lon="4.6795951"><ele>83.0</ele><time>2026-04-10T15:30:33.791Z</time></trkpt><trkpt lat="44.4834719" lon="4.6794826"><ele>83.0</ele><time>2026-04-10T15:30:34.791Z</time></trkpt><trkpt lat="44.4835065" lon="4.6793808"><ele>83.0</ele><time>2026-04-10T15:30:35.79Z</time></trkpt><trkpt lat="44.4836043" lon="4.6792924"><ele>83.0</ele><time>2026-04-10T15:30:36.801Z</time></trkpt><trkpt lat="44.4836556" lon="4.6792125"><ele>83.0</ele><time>2026-04-10T15:30:37.792Z</time></trkpt><trkpt lat="44.4837736" lon="4.6791545"><ele>82.2</ele><time>2026-04-10T15:30:38.79Z</time></trkpt><trkpt lat="44.4838922" lon="4.67913"><ele>81.4</ele><time>2026-04-10T15:30:39.789Z</time></trkpt><trkpt lat="44.4840024" lon="4.6791107"><ele>80.60000000000001</ele><time>2026-04-10T15:30:40.789Z</time></trkpt><trkpt lat="44.4841068" lon="4.6790933"><ele>79.80000000000001</ele><time>2026-04-10T15:30:41.787Z</time></trkpt><trkpt lat="44.4842193" lon="4.6790806"><ele>79.0</ele><time>2026-04-10T15:30:42.791Z</time></trkpt><trkpt lat="44.4843306" lon="4.679072"><ele>79.0</ele><time>2026-04-10T15:30:43.799Z</time></trkpt><trkpt lat="44.4844466" lon="4.6790767"><ele>79.0</ele><time>2026-04-10T15:30:44.792Z</time></trkpt><trkpt lat="44.4845606" lon="4.6790797"><ele>79.0</ele><time>2026-04-10T15:30:45.797Z</time></trkpt><trkpt lat="44.4846717" lon="4.6790859"><ele>79.0</ele><time>2026-04-10T15:30:46.789Z</time></trkpt><trkpt lat="44.4847787" lon="4.6790822"><ele>79.0</ele><time>2026-04-10T15:30:47.789Z</time></trkpt><trkpt lat="44.4848797" lon="4.679081"><ele>78.66666666666666</ele><time>2026-04-10T15:30:48.793Z</time></trkpt><trkpt lat="44.4849865" lon="4.6790755"><ele>78.33333333333333</ele><time>2026-04-10T15:30:49.788Z</time></trkpt><trkpt lat="44.485074" lon="4.6790746"><ele>78.0</ele><time>2026-04-10T15:30:50.788Z</time></trkpt><trkpt lat="44.4851608" lon="4.6790785"><ele>77.66666666666667</ele><time>2026-04-10T15:30:51.794Z</time></trkpt><trkpt lat="44.4852405" lon="4.6790811"><ele>77.33333333333334</ele><time>2026-04-10T15:30:52.791Z</time></trkpt><trkpt lat="44.4853224" lon="4.6790579"><ele>77.0</ele><time>2026-04-10T15:30:54.792Z</time></trkpt><trkpt lat="44.4853956" lon="4.6789471"><ele>77.0</ele><time>2026-04-10T15:31:03.79Z</time></trkpt><trkpt lat="44.4853994" lon="4.6788407"><ele>77.0</ele><time>2026-04-10T15:31:04.803Z</time></trkpt><trkpt lat="44.4854113" lon="4.6787219"><ele>77.0</ele><time>2026-04-10T15:31:05.801Z</time></trkpt><trkpt lat="44.4854249" lon="4.6785865"><ele>77.0</ele><time>2026-04-10T15:31:06.79Z</time></trkpt><trkpt lat="44.4854519" lon="4.6784482"><ele>77.0</ele><time>2026-04-10T15:31:07.793Z</time></trkpt><trkpt lat="44.4854749" lon="4.6783112"><ele>76.2</ele><time>2026-04-10T15:31:08.792Z</time></trkpt><trkpt lat="44.4855305" lon="4.67817"><ele>75.4</ele><time>2026-04-10T15:31:09.796Z</time></trkpt><trkpt lat="44.4855868" lon="4.6780437"><ele>74.6</ele><time>2026-04-10T15:31:10.789Z</time></trkpt><trkpt lat="44.4856492" lon="4.6779215"><ele>73.8</ele><time>2026-04-10T15:31:11.793Z</time></trkpt><trkpt lat="44.4857072" lon="4.6777889"><ele>73.0</ele><time>2026-04-10T15:31:12.794Z</time></trkpt><trkpt lat="44.4857727" lon="4.6776594"><ele>73.0</ele><time>2026-04-10T15:31:13.791Z</time></trkpt><trkpt lat="44.4858429" lon="4.6775427"><ele>73.0</ele><time>2026-04-10T15:31:14.789Z</time></trkpt><trkpt lat="44.4859154" lon="4.6774024"><ele>73.0</ele><time>2026-04-10T15:31:15.787Z</time></trkpt><trkpt lat="44.4859843" lon="4.6772664"><ele>73.0</ele><time>2026-04-10T15:31:16.791Z</time></trkpt><trkpt lat="44.4860492" lon="4.6771367"><ele>73.0</ele><time>2026-04-10T15:31:17.788Z</time></trkpt><trkpt lat="44.4861286" lon="4.6769869"><ele>73.0</ele><time>2026-04-10T15:31:18.797Z</time></trkpt><trkpt lat="44.4861942" lon="4.6768474"><ele>73.0</ele><time>2026-04-10T15:31:19.795Z</time></trkpt><trkpt lat="44.4862653" lon="4.6767205"><ele>73.0</ele><time>2026-04-10T15:31:20.791Z</time></trkpt><trkpt lat="44.4863416" lon="4.6765742"><ele>72.75</ele><time>2026-04-10T15:31:21.794Z</time></trkpt><trkpt lat="44.4864216" lon="4.6764268"><ele>72.5</ele><time>2026-04-10T15:31:22.79Z</time></trkpt><trkpt lat="44.486497" lon="4.6762645"><ele>72.25</ele><time>2026-04-10T15:31:23.789Z</time></trkpt><trkpt lat="44.4865844" lon="4.6760984"><ele>72.0</ele><time>2026-04-10T15:31:24.79Z</time></trkpt><trkpt lat="44.486653" lon="4.6759498"><ele>72.0</ele><time>2026-04-10T15:31:25.79Z</time></trkpt><trkpt lat="44.4867394" lon="4.675793"><ele>72.0</ele><time>2026-04-10T15:31:26.793Z</time></trkpt><trkpt lat="44.4868158" lon="4.6756473"><ele>72.0</ele><time>2026-04-10T15:31:27.791Z</time></trkpt><trkpt lat="44.4868884" lon="4.6755031"><ele>72.0</ele><time>2026-04-10T15:31:28.792Z</time></trkpt><trkpt lat="44.486966" lon="4.6753474"><ele>71.75</ele><time>2026-04-10T15:31:29.789Z</time></trkpt><trkpt lat="44.4870451" lon="4.6751937"><ele>71.5</ele><time>2026-04-10T15:31:30.79Z</time></trkpt><trkpt lat="44.4871251" lon="4.6750505"><ele>71.25</ele><time>2026-04-10T15:31:31.79Z</time></trkpt><trkpt lat="44.4871915" lon="4.6749119"><ele>71.0</ele><time>2026-04-10T15:31:32.789Z</time></trkpt><trkpt lat="44.4872557" lon="4.6747799"><ele>71.0</ele><time>2026-04-10T15:31:33.789Z</time></trkpt><trkpt lat="44.4873297" lon="4.6746618"><ele>71.0</ele><time>2026-04-10T15:31:34.794Z</time></trkpt><trkpt lat="44.4873954" lon="4.674544"><ele>71.0</ele><time>2026-04-10T15:31:35.795Z</time></trkpt><trkpt lat="44.4874883" lon="4.6744693"><ele>71.0</ele><time>2026-04-10T15:31:36.793Z</time></trkpt><trkpt lat="44.487584" lon="4.6743994"><ele>71.0</ele><time>2026-04-10T15:31:37.793Z</time></trkpt><trkpt lat="44.4876947" lon="4.6743989"><ele>71.0</ele><time>2026-04-10T15:31:38.795Z</time></trkpt><trkpt lat="44.4878114" lon="4.6744514"><ele>71.0</ele><time>2026-04-10T15:31:39.797Z</time></trkpt><trkpt lat="44.4879257" lon="4.6745043"><ele>71.0</ele><time>2026-04-10T15:31:40.8Z</time></trkpt><trkpt lat="44.4880548" lon="4.6745731"><ele>71.0</ele><time>2026-04-10T15:31:41.792Z</time></trkpt><trkpt lat="44.4881723" lon="4.6746279"><ele>70.0</ele><time>2026-04-10T15:31:42.789Z</time></trkpt><trkpt lat="44.4882922" lon="4.674685"><ele>69.0</ele><time>2026-04-10T15:31:43.791Z</time></trkpt><trkpt lat="44.4883965" lon="4.6747362"><ele>68.0</ele><time>2026-04-10T15:31:44.789Z</time></trkpt><trkpt lat="44.4885016" lon="4.6747954"><ele>67.0</ele><time>2026-04-10T15:31:45.797Z</time></trkpt><trkpt lat="44.4886008" lon="4.6748561"><ele>67.0</ele><time>2026-04-10T15:31:46.792Z</time></trkpt><trkpt lat="44.4886776" lon="4.6749459"><ele>67.0</ele><time>2026-04-10T15:31:47.792Z</time></trkpt><trkpt lat="44.4887371" lon="4.6750332"><ele>67.0</ele><time>2026-04-10T15:31:48.792Z</time></trkpt><trkpt lat="44.4888076" lon="4.6750857"><ele>67.0</ele><time>2026-04-10T15:31:49.796Z</time></trkpt><trkpt lat="44.4888807" lon="4.6750848"><ele>67.0</ele><time>2026-04-10T15:31:50.793Z</time></trkpt><trkpt lat="44.4889489" lon="4.6750259"><ele>67.0</ele><time>2026-04-10T15:31:51.792Z</time></trkpt><trkpt lat="44.4889989" lon="4.6749287"><ele>68.0</ele><time>2026-04-10T15:31:52.797Z</time></trkpt><trkpt lat="44.4890543" lon="4.6748145"><ele>69.0</ele><time>2026-04-10T15:31:53.79Z</time></trkpt><trkpt lat="44.4891213" lon="4.6746941"><ele>70.0</ele><time>2026-04-10T15:31:54.79Z</time></trkpt><trkpt lat="44.4891985" lon="4.6745768"><ele>71.0</ele><time>2026-04-10T15:31:55.788Z</time></trkpt><trkpt lat="44.4892851" lon="4.6744609"><ele>72.0</ele><time>2026-04-10T15:31:56.79Z</time></trkpt><trkpt lat="44.4893814" lon="4.6743513"><ele>72.0</ele><time>2026-04-10T15:31:57.789Z</time></trkpt><trkpt lat="44.4894822" lon="4.6742494"><ele>72.0</ele><time>2026-04-10T15:31:58.79Z</time></trkpt><trkpt lat="44.4896002" lon="4.6741321"><ele>72.0</ele><time>2026-04-10T15:31:59.791Z</time></trkpt><trkpt lat="44.4897176" lon="4.6740206"><ele>72.0</ele><time>2026-04-10T15:32:00.789Z</time></trkpt><trkpt lat="44.4898283" lon="4.6738797"><ele>73.5</ele><time>2026-04-10T15:32:01.795Z</time></trkpt><trkpt lat="44.4899434" lon="4.6737525"><ele>75.0</ele><time>2026-04-10T15:32:02.789Z</time></trkpt><trkpt lat="44.4900131" lon="4.6735742"><ele>76.5</ele><time>2026-04-10T15:32:03.789Z</time></trkpt><trkpt lat="44.49007" lon="4.67338"><ele>78.0</ele><time>2026-04-10T15:32:04.794Z</time></trkpt><trkpt lat="44.4901482" lon="4.672965"><ele>78.0</ele><time>2026-04-10T15:32:06.79Z</time></trkpt><trkpt lat="44.4901275" lon="4.6727687"><ele>78.0</ele><time>2026-04-10T15:32:07.792Z</time></trkpt><trkpt lat="44.4901131" lon="4.6725685"><ele>78.0</ele><time>2026-04-10T15:32:08.793Z</time></trkpt><trkpt lat="44.4901044" lon="4.6723594"><ele>78.0</ele><time>2026-04-10T15:32:09.792Z</time></trkpt><trkpt lat="44.4900999" lon="4.6721511"><ele>78.0</ele><time>2026-04-10T15:32:10.788Z</time></trkpt><trkpt lat="44.4900966" lon="4.6719414"><ele>78.0</ele><time>2026-04-10T15:32:11.792Z</time></trkpt><trkpt lat="44.4900894" lon="4.6717395"><ele>78.0</ele><time>2026-04-10T15:32:12.79Z</time></trkpt><trkpt lat="44.4900935" lon="4.6715236"><ele>78.0</ele><time>2026-04-10T15:32:13.791Z</time></trkpt><trkpt lat="44.490086" lon="4.6713243"><ele>78.75</ele><time>2026-04-10T15:32:14.789Z</time></trkpt><trkpt lat="44.4900805" lon="4.6711283"><ele>79.5</ele><time>2026-04-10T15:32:15.79Z</time></trkpt><trkpt lat="44.4900669" lon="4.6709227"><ele>80.25</ele><time>2026-04-10T15:32:16.792Z</time></trkpt><trkpt lat="44.4900563" lon="4.6707082"><ele>81.0</ele><time>2026-04-10T15:32:17.791Z</time></trkpt><trkpt lat="44.4900409" lon="4.6704959"><ele>81.33333333333333</ele><time>2026-04-10T15:32:18.789Z</time></trkpt><trkpt lat="44.4900292" lon="4.6702818"><ele>81.66666666666666</ele><time>2026-04-10T15:32:19.791Z</time></trkpt><trkpt lat="44.4900166" lon="4.6700543"><ele>82.0</ele><time>2026-04-10T15:32:20.798Z</time></trkpt><trkpt lat="44.4900074" lon="4.6698377"><ele>82.0</ele><time>2026-04-10T15:32:21.789Z</time></trkpt><trkpt lat="44.490003" lon="4.6696098"><ele>82.0</ele><time>2026-04-10T15:32:22.787Z</time></trkpt><trkpt lat="44.4900021" lon="4.669384"><ele>82.0</ele><time>2026-04-10T15:32:23.788Z</time></trkpt><trkpt lat="44.4900064" lon="4.6691766"><ele>81.0</ele><time>2026-04-10T15:32:24.791Z</time></trkpt><trkpt lat="44.4900171" lon="4.668972"><ele>80.0</ele><time>2026-04-10T15:32:25.793Z</time></trkpt><trkpt lat="44.4900852" lon="4.6687523"><ele>79.0</ele><time>2026-04-10T15:32:26.795Z</time></trkpt><trkpt lat="44.4901396" lon="4.6685599"><ele>78.33333333333333</ele><time>2026-04-10T15:32:27.791Z</time></trkpt><trkpt lat="44.490213" lon="4.6683665"><ele>77.66666666666667</ele><time>2026-04-10T15:32:28.791Z</time></trkpt><trkpt lat="44.4902995" lon="4.6681777"><ele>77.0</ele><time>2026-04-10T15:32:29.793Z</time></trkpt><trkpt lat="44.4903954" lon="4.6679948"><ele>77.33333333333334</ele><time>2026-04-10T15:32:30.792Z</time></trkpt><trkpt lat="44.4904824" lon="4.6678014"><ele>77.66666666666667</ele><time>2026-04-10T15:32:31.794Z</time></trkpt><trkpt lat="44.4905732" lon="4.6676087"><ele>78.0</ele><time>2026-04-10T15:32:32.791Z</time></trkpt><trkpt lat="44.4906669" lon="4.6674085"><ele>78.0</ele><time>2026-04-10T15:32:33.803Z</time></trkpt><trkpt lat="44.4907627" lon="4.6671996"><ele>78.0</ele><time>2026-04-10T15:32:34.816Z</time></trkpt><trkpt lat="44.490872" lon="4.6669952"><ele>78.0</ele><time>2026-04-10T15:32:35.788Z</time></trkpt><trkpt lat="44.4909708" lon="4.6667711"><ele>77.33333333333333</ele><time>2026-04-10T15:32:36.793Z</time></trkpt><trkpt lat="44.4910781" lon="4.6665569"><ele>76.66666666666666</ele><time>2026-04-10T15:32:37.793Z</time></trkpt><trkpt lat="44.4911825" lon="4.6663322"><ele>76.0</ele><time>2026-04-10T15:32:38.795Z</time></trkpt><trkpt lat="44.4912934" lon="4.666103"><ele>79.66666666666666</ele><time>2026-04-10T15:32:39.792Z</time></trkpt><trkpt lat="44.4913922" lon="4.665862"><ele>83.33333333333333</ele><time>2026-04-10T15:32:40.791Z</time></trkpt><trkpt lat="44.491504" lon="4.6656265"><ele>87.0</ele><time>2026-04-10T15:32:41.791Z</time></trkpt><trkpt lat="44.4916163" lon="4.6653857"><ele>86.0</ele><time>2026-04-10T15:32:42.788Z</time></trkpt><trkpt lat="44.4917376" lon="4.6651518"><ele>85.0</ele><time>2026-04-10T15:32:43.789Z</time></trkpt><trkpt lat="44.4918516" lon="4.6649076"><ele>84.0</ele><time>2026-04-10T15:32:44.791Z</time></trkpt><trkpt lat="44.4919608" lon="4.6646661"><ele>83.66666666666667</ele><time>2026-04-10T15:32:45.79Z</time></trkpt><trkpt lat="44.492073" lon="4.6644208"><ele>83.33333333333334</ele><time>2026-04-10T15:32:46.788Z</time></trkpt><trkpt lat="44.4921794" lon="4.6641836"><ele>83.0</ele><time>2026-04-10T15:32:47.787Z</time></trkpt><trkpt lat="44.4922919" lon="4.6639524"><ele>86.66666666666667</ele><time>2026-04-10T15:32:48.789Z</time></trkpt><trkpt lat="44.4923956" lon="4.663723"><ele>90.33333333333333</ele><time>2026-04-10T15:32:49.792Z</time></trkpt><trkpt lat="44.4925011" lon="4.6635038"><ele>94.0</ele><time>2026-04-10T15:32:50.789Z</time></trkpt><trkpt lat="44.4926039" lon="4.6632817"><ele>94.0</ele><time>2026-04-10T15:32:51.79Z</time></trkpt><trkpt lat="44.4927075" lon="4.6630506"><ele>94.0</ele><time>2026-04-10T15:32:52.798Z</time></trkpt><trkpt lat="44.4927977" lon="4.6628669"><ele>94.0</ele><time>2026-04-10T15:32:53.792Z</time></trkpt><trkpt lat="44.4928821" lon="4.6627044"><ele>92.75</ele><time>2026-04-10T15:32:54.79Z</time></trkpt><trkpt lat="44.4930013" lon="4.6626041"><ele>91.5</ele><time>2026-04-10T15:32:55.789Z</time></trkpt><trkpt lat="44.4931166" lon="4.6625887"><ele>90.25</ele><time>2026-04-10T15:32:56.792Z</time></trkpt><trkpt lat="44.4932193" lon="4.6625615"><ele>89.0</ele><time>2026-04-10T15:32:57.789Z</time></trkpt><trkpt lat="44.493342" lon="4.6626591"><ele>89.0</ele><time>2026-04-10T15:32:58.789Z</time></trkpt><trkpt lat="44.4934966" lon="4.6627751"><ele>89.0</ele><time>2026-04-10T15:32:59.791Z</time></trkpt><trkpt lat="44.493639" lon="4.6628306"><ele>89.0</ele><time>2026-04-10T15:33:00.789Z</time></trkpt><trkpt lat="44.4937986" lon="4.6628687"><ele>88.33333333333334</ele><time>2026-04-10T15:33:01.79Z</time></trkpt><trkpt lat="44.4939543" lon="4.6628218"><ele>87.66666666666667</ele><time>2026-04-10T15:33:02.79Z</time></trkpt><trkpt lat="44.4941092" lon="4.6628204"><ele>87.0</ele><time>2026-04-10T15:33:03.788Z</time></trkpt><trkpt lat="44.494259" lon="4.6627761"><ele>87.0</ele><time>2026-04-10T15:33:04.787Z</time></trkpt><trkpt lat="44.4944098" lon="4.6627389"><ele>87.0</ele><time>2026-04-10T15:33:05.79Z</time></trkpt><trkpt lat="44.4945575" lon="4.662693"><ele>87.0</ele><time>2026-04-10T15:33:06.792Z</time></trkpt><trkpt lat="44.49472" lon="4.662632"><ele>90.33333333333334</ele><time>2026-04-10T15:33:07.795Z</time></trkpt><trkpt lat="44.4948857" lon="4.6625663"><ele>93.66666666666667</ele><time>2026-04-10T15:33:08.791Z</time></trkpt><trkpt lat="44.4950445" lon="4.6624818"><ele>97.0</ele><time>2026-04-10T15:33:09.797Z</time></trkpt><trkpt lat="44.4952039" lon="4.6623779"><ele>97.0</ele><time>2026-04-10T15:33:10.791Z</time></trkpt><trkpt lat="44.4953726" lon="4.6622747"><ele>97.0</ele><time>2026-04-10T15:33:11.791Z</time></trkpt><trkpt lat="44.4955188" lon="4.6621418"><ele>97.0</ele><time>2026-04-10T15:33:12.794Z</time></trkpt><trkpt lat="44.4956541" lon="4.6620075"><ele>96.33333333333334</ele><time>2026-04-10T15:33:13.789Z</time></trkpt><trkpt lat="44.4958095" lon="4.6619001"><ele>95.66666666666667</ele><time>2026-04-10T15:33:14.787Z</time></trkpt><trkpt lat="44.4959437" lon="4.6617627"><ele>95.0</ele><time>2026-04-10T15:33:15.788Z</time></trkpt><trkpt lat="44.4960915" lon="4.6616413"><ele>95.0</ele><time>2026-04-10T15:33:16.789Z</time></trkpt><trkpt lat="44.4962305" lon="4.6615179"><ele>95.0</ele><time>2026-04-10T15:33:17.786Z</time></trkpt><trkpt lat="44.4963626" lon="4.6613919"><ele>95.0</ele><time>2026-04-10T15:33:18.789Z</time></trkpt><trkpt lat="44.4964891" lon="4.6612535"><ele>93.66666666666667</ele><time>2026-04-10T15:33:19.793Z</time></trkpt><trkpt lat="44.4966052" lon="4.661097"><ele>92.33333333333333</ele><time>2026-04-10T15:33:20.797Z</time></trkpt><trkpt lat="44.4967257" lon="4.6609364"><ele>91.0</ele><time>2026-04-10T15:33:21.793Z</time></trkpt><trkpt lat="44.4967589" lon="4.6606681"><ele>91.0</ele><time>2026-04-10T15:33:22.797Z</time></trkpt><trkpt lat="44.4968138" lon="4.6604357"><ele>91.0</ele><time>2026-04-10T15:33:23.786Z</time></trkpt><trkpt lat="44.4968494" lon="4.660198"><ele>91.0</ele><time>2026-04-10T15:33:24.791Z</time></trkpt><trkpt lat="44.4968763" lon="4.6599585"><ele>89.33333333333333</ele><time>2026-04-10T15:33:25.792Z</time></trkpt><trkpt lat="44.4969109" lon="4.6597331"><ele>87.66666666666667</ele><time>2026-04-10T15:33:26.793Z</time></trkpt><trkpt lat="44.496947" lon="4.659545"><ele>86.0</ele><time>2026-04-10T15:33:27.791Z</time></trkpt><trkpt lat="44.4969759" lon="4.6593391"><ele>85.75</ele><time>2026-04-10T15:33:28.796Z</time></trkpt><trkpt lat="44.4969954" lon="4.6591413"><ele>85.5</ele><time>2026-04-10T15:33:29.793Z</time></trkpt><trkpt lat="44.4970267" lon="4.6589582"><ele>85.25</ele><time>2026-04-10T15:33:30.793Z</time></trkpt><trkpt lat="44.4970565" lon="4.65878"><ele>85.0</ele><time>2026-04-10T15:33:31.792Z</time></trkpt><trkpt lat="44.4970877" lon="4.6586091"><ele>86.75</ele><time>2026-04-10T15:33:32.79Z</time></trkpt><trkpt lat="44.4971115" lon="4.6584507"><ele>88.5</ele><time>2026-04-10T15:33:33.791Z</time></trkpt><trkpt lat="44.4971356" lon="4.6582884"><ele>90.25</ele><time>2026-04-10T15:33:34.79Z</time></trkpt><trkpt lat="44.4971636" lon="4.6581302"><ele>92.0</ele><time>2026-04-10T15:33:35.792Z</time></trkpt><trkpt lat="44.497186" lon="4.6579554"><ele>93.25</ele><time>2026-04-10T15:33:36.791Z</time></trkpt><trkpt lat="44.4972061" lon="4.6577822"><ele>94.5</ele><time>2026-04-10T15:33:37.789Z</time></trkpt><trkpt lat="44.4972193" lon="4.6576161"><ele>95.75</ele><time>2026-04-10T15:33:38.788Z</time></trkpt><trkpt lat="44.497216" lon="4.6574492"><ele>97.0</ele><time>2026-04-10T15:33:39.786Z</time></trkpt><trkpt lat="44.4972015" lon="4.6572823"><ele>97.0</ele><time>2026-04-10T15:33:40.788Z</time></trkpt><trkpt lat="44.4971882" lon="4.6571047"><ele>97.0</ele><time>2026-04-10T15:33:41.787Z</time></trkpt><trkpt lat="44.4971628" lon="4.6569374"><ele>97.0</ele><time>2026-04-10T15:33:42.788Z</time></trkpt><trkpt lat="44.4971311" lon="4.6567629"><ele>97.0</ele><time>2026-04-10T15:33:43.797Z</time></trkpt><trkpt lat="44.4970926" lon="4.6565955"><ele>94.5</ele><time>2026-04-10T15:33:44.792Z</time></trkpt><trkpt lat="44.4970459" lon="4.6564173"><ele>92.0</ele><time>2026-04-10T15:33:45.788Z</time></trkpt><trkpt lat="44.4969907" lon="4.6562501"><ele>89.5</ele><time>2026-04-10T15:33:46.787Z</time></trkpt><trkpt lat="44.4969306" lon="4.6560603"><ele>87.0</ele><time>2026-04-10T15:33:47.788Z</time></trkpt><trkpt lat="44.4968719" lon="4.655869"><ele>87.0</ele><time>2026-04-10T15:33:48.79Z</time></trkpt><trkpt lat="44.4968096" lon="4.6556662"><ele>87.0</ele><time>2026-04-10T15:33:49.794Z</time></trkpt><trkpt lat="44.4967351" lon="4.655453"><ele>87.0</ele><time>2026-04-10T15:33:50.789Z</time></trkpt><trkpt lat="44.4966702" lon="4.6552446"><ele>87.33333333333333</ele><time>2026-04-10T15:33:51.796Z</time></trkpt><trkpt lat="44.4966004" lon="4.6550221"><ele>87.66666666666666</ele><time>2026-04-10T15:33:52.791Z</time></trkpt><trkpt lat="44.4965123" lon="4.6548011"><ele>88.0</ele><time>2026-04-10T15:33:53.791Z</time></trkpt><trkpt lat="44.4964008" lon="4.6545773"><ele>87.33333333333333</ele><time>2026-04-10T15:33:54.791Z</time></trkpt><trkpt lat="44.4962726" lon="4.6543692"><ele>86.66666666666667</ele><time>2026-04-10T15:33:55.806Z</time></trkpt><trkpt lat="44.496141" lon="4.6541833"><ele>86.0</ele><time>2026-04-10T15:33:56.791Z</time></trkpt><trkpt lat="44.4960095" lon="4.6540228"><ele>86.0</ele><time>2026-04-10T15:33:57.789Z</time></trkpt><trkpt lat="44.4958838" lon="4.6538619"><ele>86.0</ele><time>2026-04-10T15:33:58.79Z</time></trkpt><trkpt lat="44.4957608" lon="4.6537075"><ele>86.0</ele><time>2026-04-10T15:33:59.789Z</time></trkpt><trkpt lat="44.4956438" lon="4.6535642"><ele>86.66666666666667</ele><time>2026-04-10T15:34:00.789Z</time></trkpt><trkpt lat="44.4955297" lon="4.6534058"><ele>87.33333333333333</ele><time>2026-04-10T15:34:01.788Z</time></trkpt><trkpt lat="44.4954235" lon="4.6532241"><ele>88.0</ele><time>2026-04-10T15:34:02.79Z</time></trkpt><trkpt lat="44.4953408" lon="4.6530099"><ele>87.33333333333333</ele><time>2026-04-10T15:34:03.79Z</time></trkpt><trkpt lat="44.4952533" lon="4.6527902"><ele>86.66666666666667</ele><time>2026-04-10T15:34:04.787Z</time></trkpt><trkpt lat="44.4951844" lon="4.6525328"><ele>86.0</ele><time>2026-04-10T15:34:05.788Z</time></trkpt><trkpt lat="44.495126" lon="4.6522465"><ele>87.5</ele><time>2026-04-10T15:34:06.791Z</time></trkpt><trkpt lat="44.4950572" lon="4.6519506"><ele>89.0</ele><time>2026-04-10T15:34:07.787Z</time></trkpt><trkpt lat="44.4949896" lon="4.651604"><ele>89.0</ele><time>2026-04-10T15:34:08.788Z</time></trkpt><trkpt lat="44.4949468" lon="4.6512855"><ele>89.0</ele><time>2026-04-10T15:34:09.789Z</time></trkpt><trkpt lat="44.4948865" lon="4.6509838"><ele>90.0</ele><time>2026-04-10T15:34:10.789Z</time></trkpt><trkpt lat="44.494841" lon="4.6507073"><ele>91.0</ele><time>2026-04-10T15:34:11.788Z</time></trkpt><trkpt lat="44.4947943" lon="4.6504453"><ele>92.0</ele><time>2026-04-10T15:34:12.788Z</time></trkpt><trkpt lat="44.4947747" lon="4.6502111"><ele>93.0</ele><time>2026-04-10T15:34:13.793Z</time></trkpt><trkpt lat="44.4947695" lon="4.6499739"><ele>94.0</ele><time>2026-04-10T15:34:14.79Z</time></trkpt><trkpt lat="44.4947748" lon="4.6497373"><ele>95.0</ele><time>2026-04-10T15:34:15.793Z</time></trkpt><trkpt lat="44.4947821" lon="4.6495056"><ele>94.66666666666667</ele><time>2026-04-10T15:34:16.79Z</time></trkpt><trkpt lat="44.4948005" lon="4.6492556"><ele>94.33333333333333</ele><time>2026-04-10T15:34:17.788Z</time></trkpt><trkpt lat="44.4948468" lon="4.6489981"><ele>94.0</ele><time>2026-04-10T15:34:18.788Z</time></trkpt><trkpt lat="44.4949469" lon="4.6486658"><ele>94.0</ele><time>2026-04-10T15:34:19.802Z</time></trkpt><trkpt lat="44.49501" lon="4.6483782"><ele>94.0</ele><time>2026-04-10T15:34:20.801Z</time></trkpt><trkpt lat="44.4950618" lon="4.648058"><ele>94.0</ele><time>2026-04-10T15:34:21.79Z</time></trkpt><trkpt lat="44.4950991" lon="4.6477553"><ele>94.0</ele><time>2026-04-10T15:34:22.793Z</time></trkpt><trkpt lat="44.4951365" lon="4.6474576"><ele>94.0</ele><time>2026-04-10T15:34:23.789Z</time></trkpt><trkpt lat="44.4951672" lon="4.6471521"><ele>94.0</ele><time>2026-04-10T15:34:24.791Z</time></trkpt><trkpt lat="44.4952016" lon="4.6468775"><ele>93.33333333333333</ele><time>2026-04-10T15:34:25.793Z</time></trkpt><trkpt lat="44.4952609" lon="4.6466036"><ele>92.66666666666667</ele><time>2026-04-10T15:34:26.791Z</time></trkpt><trkpt lat="44.4953327" lon="4.6463521"><ele>92.0</ele><time>2026-04-10T15:34:27.789Z</time></trkpt><trkpt lat="44.4954322" lon="4.6461124"><ele>94.0</ele><time>2026-04-10T15:34:28.793Z</time></trkpt><trkpt lat="44.4955582" lon="4.6459236"><ele>96.0</ele><time>2026-04-10T15:34:29.794Z</time></trkpt><trkpt lat="44.4956983" lon="4.6457449"><ele>98.0</ele><time>2026-04-10T15:34:30.788Z</time></trkpt><trkpt lat="44.4959098" lon="4.645711"><ele>98.0</ele><time>2026-04-10T15:34:31.793Z</time></trkpt><trkpt lat="44.4961574" lon="4.6457249"><ele>98.0</ele><time>2026-04-10T15:34:32.793Z</time></trkpt><trkpt lat="44.4963695" lon="4.6456692"><ele>100.66666666666666</ele><time>2026-04-10T15:34:33.788Z</time></trkpt><trkpt lat="44.4965801" lon="4.6456143"><ele>103.33333333333334</ele><time>2026-04-10T15:34:34.79Z</time></trkpt><trkpt lat="44.4967898" lon="4.6455559"><ele>106.0</ele><time>2026-04-10T15:34:35.792Z</time></trkpt><trkpt lat="44.4969969" lon="4.6454917"><ele>105.0</ele><time>2026-04-10T15:34:36.795Z</time></trkpt><trkpt lat="44.4971873" lon="4.645389"><ele>104.0</ele><time>2026-04-10T15:34:37.795Z</time></trkpt><trkpt lat="44.4973634" lon="4.645252"><ele>103.0</ele><time>2026-04-10T15:34:38.788Z</time></trkpt><trkpt lat="44.4975426" lon="4.6451036"><ele>103.0</ele><time>2026-04-10T15:34:39.786Z</time></trkpt><trkpt lat="44.4977006" lon="4.6449123"><ele>103.0</ele><time>2026-04-10T15:34:40.788Z</time></trkpt><trkpt lat="44.4978699" lon="4.6447426"><ele>103.0</ele><time>2026-04-10T15:34:41.794Z</time></trkpt><trkpt lat="44.49804" lon="4.6445682"><ele>102.0</ele><time>2026-04-10T15:34:42.793Z</time></trkpt><trkpt lat="44.4982073" lon="4.644389"><ele>101.0</ele><time>2026-04-10T15:34:43.788Z</time></trkpt><trkpt lat="44.4983787" lon="4.6442153"><ele>100.0</ele><time>2026-04-10T15:34:44.791Z</time></trkpt><trkpt lat="44.4985489" lon="4.6440373"><ele>100.0</ele><time>2026-04-10T15:34:45.788Z</time></trkpt><trkpt lat="44.4987186" lon="4.643868"><ele>100.0</ele><time>2026-04-10T15:34:46.792Z</time></trkpt><trkpt lat="44.4988802" lon="4.6436984"><ele>100.0</ele><time>2026-04-10T15:34:47.793Z</time></trkpt><trkpt lat="44.4990095" lon="4.6435182"><ele>100.0</ele><time>2026-04-10T15:34:48.79Z</time></trkpt><trkpt lat="44.4991169" lon="4.6433217"><ele>100.0</ele><time>2026-04-10T15:34:49.788Z</time></trkpt><trkpt lat="44.499176" lon="4.6430741"><ele>100.0</ele><time>2026-04-10T15:34:50.79Z</time></trkpt><trkpt lat="44.4992294" lon="4.6428174"><ele>103.5</ele><time>2026-04-10T15:34:51.791Z</time></trkpt><trkpt lat="44.4992438" lon="4.6425288"><ele>107.0</ele><time>2026-04-10T15:34:52.791Z</time></trkpt><trkpt lat="44.4992781" lon="4.6421875"><ele>107.0</ele><time>2026-04-10T15:34:53.79Z</time></trkpt><trkpt lat="44.4992882" lon="4.6418897"><ele>107.0</ele><time>2026-04-10T15:34:54.798Z</time></trkpt><trkpt lat="44.4992616" lon="4.6416432"><ele>107.0</ele><time>2026-04-10T15:34:55.787Z</time></trkpt><trkpt lat="44.4992273" lon="4.6413666"><ele>105.33333333333333</ele><time>2026-04-10T15:34:56.789Z</time></trkpt><trkpt lat="44.4992033" lon="4.641077"><ele>103.66666666666666</ele><time>2026-04-10T15:34:57.789Z</time></trkpt><trkpt lat="44.4991614" lon="4.6408122"><ele>102.0</ele><time>2026-04-10T15:34:58.787Z</time></trkpt><trkpt lat="44.4991384" lon="4.640539"><ele>102.0</ele><time>2026-04-10T15:34:59.789Z</time></trkpt><trkpt lat="44.4991188" lon="4.6402647"><ele>102.0</ele><time>2026-04-10T15:35:00.788Z</time></trkpt><trkpt lat="44.4991267" lon="4.6399813"><ele>102.0</ele><time>2026-04-10T15:35:01.789Z</time></trkpt><trkpt lat="44.4991698" lon="4.6396913"><ele>102.0</ele><time>2026-04-10T15:35:02.793Z</time></trkpt><trkpt lat="44.4992215" lon="4.6393892"><ele>102.0</ele><time>2026-04-10T15:35:03.792Z</time></trkpt><trkpt lat="44.499272" lon="4.6390915"><ele>102.0</ele><time>2026-04-10T15:35:04.796Z</time></trkpt><trkpt lat="44.4993275" lon="4.6387944"><ele>102.0</ele><time>2026-04-10T15:35:05.789Z</time></trkpt><trkpt lat="44.499399" lon="4.638515"><ele>102.0</ele><time>2026-04-10T15:35:06.789Z</time></trkpt><trkpt lat="44.4994784" lon="4.6382393"><ele>102.0</ele><time>2026-04-10T15:35:07.793Z</time></trkpt><trkpt lat="44.4995544" lon="4.6379559"><ele>104.66666666666666</ele><time>2026-04-10T15:35:08.79Z</time></trkpt><trkpt lat="44.499617" lon="4.6376588"><ele>107.33333333333333</ele><time>2026-04-10T15:35:09.791Z</time></trkpt><trkpt lat="44.4996936" lon="4.6373667"><ele>110.0</ele><time>2026-04-10T15:35:10.789Z</time></trkpt><trkpt lat="44.4997898" lon="4.6370774"><ele>108.0</ele><time>2026-04-10T15:35:11.791Z</time></trkpt><trkpt lat="44.4998647" lon="4.6367822"><ele>106.0</ele><time>2026-04-10T15:35:12.789Z</time></trkpt><trkpt lat="44.4999404" lon="4.6364901"><ele>104.0</ele><time>2026-04-10T15:35:13.786Z</time></trkpt><trkpt lat="44.4999604" lon="4.6362125"><ele>103.66666666666666</ele><time>2026-04-10T15:35:14.788Z</time></trkpt><trkpt lat="44.500005" lon="4.6359451"><ele>103.33333333333334</ele><time>2026-04-10T15:35:15.79Z</time></trkpt><trkpt lat="44.4999991" lon="4.635665"><ele>103.0</ele><time>2026-04-10T15:35:16.795Z</time></trkpt><trkpt lat="44.500028" lon="4.635391"><ele>103.0</ele><time>2026-04-10T15:35:17.792Z</time></trkpt><trkpt lat="44.5000759" lon="4.6351039"><ele>103.0</ele><time>2026-04-10T15:35:18.792Z</time></trkpt><trkpt lat="44.5001631" lon="4.6348428"><ele>103.0</ele><time>2026-04-10T15:35:19.787Z</time></trkpt><trkpt lat="44.5002759" lon="4.6345801"><ele>104.0</ele><time>2026-04-10T15:35:20.793Z</time></trkpt><trkpt lat="44.5003714" lon="4.6343576"><ele>105.0</ele><time>2026-04-10T15:35:21.788Z</time></trkpt><trkpt lat="44.5004626" lon="4.6341226"><ele>106.0</ele><time>2026-04-10T15:35:22.794Z</time></trkpt><trkpt lat="44.5005361" lon="4.6339059"><ele>106.0</ele><time>2026-04-10T15:35:23.789Z</time></trkpt><trkpt lat="44.5006071" lon="4.6336772"><ele>106.0</ele><time>2026-04-10T15:35:24.797Z</time></trkpt><trkpt lat="44.5006755" lon="4.6334349"><ele>106.0</ele><time>2026-04-10T15:35:25.789Z</time></trkpt><trkpt lat="44.500745" lon="4.6331994"><ele>105.66666666666667</ele><time>2026-04-10T15:35:26.791Z</time></trkpt><trkpt lat="44.5008168" lon="4.6329763"><ele>105.33333333333334</ele><time>2026-04-10T15:35:27.792Z</time></trkpt><trkpt lat="44.5008798" lon="4.632756"><ele>105.0</ele><time>2026-04-10T15:35:28.793Z</time></trkpt><trkpt lat="44.5009407" lon="4.632539"><ele>104.5</ele><time>2026-04-10T15:35:29.79Z</time></trkpt><trkpt lat="44.5010077" lon="4.6323493"><ele>104.0</ele><time>2026-04-10T15:35:30.792Z</time></trkpt><trkpt lat="44.5010874" lon="4.6321842"><ele>103.5</ele><time>2026-04-10T15:35:31.791Z</time></trkpt><trkpt lat="44.5011586" lon="4.6320114"><ele>103.0</ele><time>2026-04-10T15:35:32.79Z</time></trkpt><trkpt lat="44.5012346" lon="4.6318666"><ele>104.5</ele><time>2026-04-10T15:35:33.794Z</time></trkpt><trkpt lat="44.5013088" lon="4.6317179"><ele>106.0</ele><time>2026-04-10T15:35:34.789Z</time></trkpt><trkpt lat="44.5013906" lon="4.6315848"><ele>107.5</ele><time>2026-04-10T15:35:35.793Z</time></trkpt><trkpt lat="44.5014712" lon="4.6314653"><ele>109.0</ele><time>2026-04-10T15:35:36.796Z</time></trkpt><trkpt lat="44.5015514" lon="4.6313466"><ele>109.0</ele><time>2026-04-10T15:35:37.791Z</time></trkpt><trkpt lat="44.5016549" lon="4.6312733"><ele>109.0</ele><time>2026-04-10T15:35:38.793Z</time></trkpt><trkpt lat="44.5017409" lon="4.6311811"><ele>109.0</ele><time>2026-04-10T15:35:39.793Z</time></trkpt><trkpt lat="44.5018309" lon="4.6310889"><ele>109.0</ele><time>2026-04-10T15:35:40.791Z</time></trkpt><trkpt lat="44.5019381" lon="4.6310395"><ele>109.0</ele><time>2026-04-10T15:35:41.793Z</time></trkpt><trkpt lat="44.5020347" lon="4.6309781"><ele>109.5</ele><time>2026-04-10T15:35:42.797Z</time></trkpt><trkpt lat="44.5021382" lon="4.6309199"><ele>110.0</ele><time>2026-04-10T15:35:43.789Z</time></trkpt><trkpt lat="44.5022493" lon="4.6308613"><ele>110.5</ele><time>2026-04-10T15:35:44.792Z</time></trkpt><trkpt lat="44.502355" lon="4.6307942"><ele>111.0</ele><time>2026-04-10T15:35:45.797Z</time></trkpt><trkpt lat="44.502444" lon="4.6306741"><ele>111.0</ele><time>2026-04-10T15:35:46.793Z</time></trkpt><trkpt lat="44.5025412" lon="4.6305718"><ele>111.0</ele><time>2026-04-10T15:35:47.79Z</time></trkpt><trkpt lat="44.5026376" lon="4.6304592"><ele>111.0</ele><time>2026-04-10T15:35:48.793Z</time></trkpt><trkpt lat="44.5027219" lon="4.6303619"><ele>111.0</ele><time>2026-04-10T15:35:49.796Z</time></trkpt><trkpt lat="44.5027913" lon="4.6302486"><ele>110.8</ele><time>2026-04-10T15:35:50.788Z</time></trkpt><trkpt lat="44.5028641" lon="4.6301446"><ele>110.6</ele><time>2026-04-10T15:35:51.791Z</time></trkpt><trkpt lat="44.502926" lon="4.6300328"><ele>110.4</ele><time>2026-04-10T15:35:52.797Z</time></trkpt><trkpt lat="44.5029923" lon="4.629926"><ele>110.2</ele><time>2026-04-10T15:35:53.788Z</time></trkpt><trkpt lat="44.5030649" lon="4.629798"><ele>110.0</ele><time>2026-04-10T15:35:54.787Z</time></trkpt><trkpt lat="44.5031328" lon="4.6296599"><ele>110.0</ele><time>2026-04-10T15:35:55.786Z</time></trkpt><trkpt lat="44.5031999" lon="4.6295288"><ele>110.0</ele><time>2026-04-10T15:35:56.788Z</time></trkpt><trkpt lat="44.5032778" lon="4.6293901"><ele>110.0</ele><time>2026-04-10T15:35:57.79Z</time></trkpt><trkpt lat="44.5033474" lon="4.6292571"><ele>110.0</ele><time>2026-04-10T15:35:58.796Z</time></trkpt><trkpt lat="44.5034221" lon="4.6291124"><ele>109.5</ele><time>2026-04-10T15:35:59.79Z</time></trkpt><trkpt lat="44.5035018" lon="4.6289559"><ele>109.0</ele><time>2026-04-10T15:36:00.79Z</time></trkpt><trkpt lat="44.5035739" lon="4.628812"><ele>108.5</ele><time>2026-04-10T15:36:01.797Z</time></trkpt><trkpt lat="44.5036379" lon="4.628669"><ele>108.0</ele><time>2026-04-10T15:36:02.795Z</time></trkpt><trkpt lat="44.5037139" lon="4.6285298"><ele>107.75</ele><time>2026-04-10T15:36:03.79Z</time></trkpt><trkpt lat="44.5037892" lon="4.6283998"><ele>107.5</ele><time>2026-04-10T15:36:04.795Z</time></trkpt><trkpt lat="44.5038595" lon="4.6282563"><ele>107.25</ele><time>2026-04-10T15:36:05.79Z</time></trkpt><trkpt lat="44.5039354" lon="4.6281216"><ele>107.0</ele><time>2026-04-10T15:36:06.787Z</time></trkpt><trkpt lat="44.5039931" lon="4.6280001"><ele>106.99999999999999</ele><time>2026-04-10T15:36:07.791Z</time></trkpt><trkpt lat="44.504052" lon="4.6279157"><ele>107.0</ele><time>2026-04-10T15:36:08.788Z</time></trkpt><trkpt lat="44.5041004" lon="4.6278202"><ele>107.0</ele><time>2026-04-10T15:36:09.79Z</time></trkpt><trkpt lat="44.5041609" lon="4.6277717"><ele>107.0</ele><time>2026-04-10T15:36:10.789Z</time></trkpt><trkpt lat="44.5042133" lon="4.6277026"><ele>106.99999999999999</ele><time>2026-04-10T15:36:11.79Z</time></trkpt><trkpt lat="44.5042618" lon="4.6275693"><ele>107.0</ele><time>2026-04-10T15:36:13.794Z</time></trkpt><trkpt lat="44.5041899" lon="4.6275007"><ele>107.0</ele><time>2026-04-10T15:36:14.789Z</time></trkpt><trkpt lat="44.5040554" lon="4.6274813"><ele>106.99999999999999</ele><time>2026-04-10T15:36:16.792Z</time></trkpt><trkpt lat="44.5039834" lon="4.6274777"><ele>106.99999999999999</ele><time>2026-04-10T15:36:17.793Z</time></trkpt><trkpt lat="44.503888" lon="4.6274296"><ele>107.0</ele><time>2026-04-10T15:36:18.792Z</time></trkpt><trkpt lat="44.5037885" lon="4.6273657"><ele>107.0</ele><time>2026-04-10T15:36:19.797Z</time></trkpt><trkpt lat="44.5036841" lon="4.6272954"><ele>107.0</ele><time>2026-04-10T15:36:20.793Z</time></trkpt><trkpt lat="44.5035807" lon="4.6272269"><ele>107.0</ele><time>2026-04-10T15:36:21.794Z</time></trkpt><trkpt lat="44.5034887" lon="4.6271386"><ele>107.0</ele><time>2026-04-10T15:36:22.789Z</time></trkpt><trkpt lat="44.503389" lon="4.6270396"><ele>107.0</ele><time>2026-04-10T15:36:23.79Z</time></trkpt><trkpt lat="44.5032831" lon="4.6269419"><ele>107.0</ele><time>2026-04-10T15:36:24.796Z</time></trkpt><trkpt lat="44.5031818" lon="4.6268416"><ele>107.0</ele><time>2026-04-10T15:36:25.792Z</time></trkpt><trkpt lat="44.5030632" lon="4.6267452"><ele>107.0</ele><time>2026-04-10T15:36:26.79Z</time></trkpt><trkpt lat="44.5029392" lon="4.6266479"><ele>107.0</ele><time>2026-04-10T15:36:27.789Z</time></trkpt><trkpt lat="44.5028174" lon="4.6265804"><ele>108.25</ele><time>2026-04-10T15:36:28.792Z</time></trkpt><trkpt lat="44.5026859" lon="4.6265389"><ele>109.5</ele><time>2026-04-10T15:36:29.792Z</time></trkpt><trkpt lat="44.5025444" lon="4.6265294"><ele>110.75</ele><time>2026-04-10T15:36:30.791Z</time></trkpt><trkpt lat="44.5024094" lon="4.6265368"><ele>112.0</ele><time>2026-04-10T15:36:31.79Z</time></trkpt><trkpt lat="44.5022684" lon="4.6265746"><ele>112.0</ele><time>2026-04-10T15:36:32.788Z</time></trkpt><trkpt lat="44.5021265" lon="4.6266184"><ele>112.0</ele><time>2026-04-10T15:36:33.791Z</time></trkpt><trkpt lat="44.501988" lon="4.6266632"><ele>112.0</ele><time>2026-04-10T15:36:34.796Z</time></trkpt><trkpt lat="44.5018522" lon="4.6267081"><ele>112.0</ele><time>2026-04-10T15:36:35.79Z</time></trkpt><trkpt lat="44.5017245" lon="4.6267677"><ele>112.75</ele><time>2026-04-10T15:36:36.79Z</time></trkpt><trkpt lat="44.5016021" lon="4.6268369"><ele>113.5</ele><time>2026-04-10T15:36:37.792Z</time></trkpt><trkpt lat="44.5015149" lon="4.6269597"><ele>114.25</ele><time>2026-04-10T15:36:38.792Z</time></trkpt><trkpt lat="44.5014371" lon="4.6270904"><ele>115.0</ele><time>2026-04-10T15:36:39.79Z</time></trkpt><trkpt lat="44.5013572" lon="4.6272175"><ele>115.0</ele><time>2026-04-10T15:36:40.789Z</time></trkpt><trkpt lat="44.5013054" lon="4.6273374"><ele>115.0</ele><time>2026-04-10T15:36:41.793Z</time></trkpt><trkpt lat="44.5013057" lon="4.6274688"><ele>115.0</ele><time>2026-04-10T15:36:42.792Z</time></trkpt><trkpt lat="44.5012389" lon="4.6275777"><ele>115.0</ele><time>2026-04-10T15:36:44.793Z</time></trkpt><trkpt lat="44.5011645" lon="4.6276245"><ele>115.0</ele><time>2026-04-10T15:36:46.793Z</time></trkpt><trkpt lat="44.5011191" lon="4.6277197"><ele>117.6</ele><time>2026-04-10T15:36:49.792Z</time></trkpt><trkpt lat="44.5010541" lon="4.627878"><ele>120.2</ele><time>2026-04-10T15:36:51.789Z</time></trkpt><trkpt lat="44.5010014" lon="4.6279921"><ele>122.80000000000001</ele><time>2026-04-10T15:36:52.794Z</time></trkpt><trkpt lat="44.5009613" lon="4.6281192"><ele>125.4</ele><time>2026-04-10T15:36:53.79Z</time></trkpt><trkpt lat="44.5008926" lon="4.6282394"><ele>128.0</ele><time>2026-04-10T15:36:54.788Z</time></trkpt><trkpt lat="44.5008092" lon="4.6283389"><ele>128.0</ele><time>2026-04-10T15:36:55.789Z</time></trkpt><trkpt lat="44.5007125" lon="4.6284278"><ele>128.0</ele><time>2026-04-10T15:36:56.787Z</time></trkpt><trkpt lat="44.5006213" lon="4.6285222"><ele>128.0</ele><time>2026-04-10T15:36:57.789Z</time></trkpt><trkpt lat="44.5005238" lon="4.6286224"><ele>128.0</ele><time>2026-04-10T15:36:58.79Z</time></trkpt><trkpt lat="44.5004384" lon="4.6287135"><ele>124.0</ele><time>2026-04-10T15:36:59.792Z</time></trkpt><trkpt lat="44.5003628" lon="4.6287997"><ele>120.00000000000001</ele><time>2026-04-10T15:37:00.788Z</time></trkpt><trkpt lat="44.5002839" lon="4.6288465"><ele>116.00000000000001</ele><time>2026-04-10T15:37:01.786Z</time></trkpt><trkpt lat="44.5002" lon="4.6288417"><ele>112.0</ele><time>2026-04-10T15:37:02.789Z</time></trkpt><trkpt lat="44.5001094" lon="4.6288293"><ele>108.0</ele><time>2026-04-10T15:37:03.788Z</time></trkpt><trkpt lat="44.5000115" lon="4.6287771"><ele>108.0</ele><time>2026-04-10T15:37:04.793Z</time></trkpt><trkpt lat="44.4999252" lon="4.6287226"><ele>108.0</ele><time>2026-04-10T15:37:05.79Z</time></trkpt><trkpt lat="44.4998375" lon="4.6285838"><ele>108.0</ele><time>2026-04-10T15:37:06.797Z</time></trkpt><trkpt lat="44.4997205" lon="4.6284622"><ele>108.0</ele><time>2026-04-10T15:37:07.789Z</time></trkpt><trkpt lat="44.4996353" lon="4.628348"><ele>108.5</ele><time>2026-04-10T15:37:08.792Z</time></trkpt><trkpt lat="44.499559" lon="4.6282184"><ele>109.0</ele><time>2026-04-10T15:37:09.79Z</time></trkpt><trkpt lat="44.4994798" lon="4.6280954"><ele>109.5</ele><time>2026-04-10T15:37:10.79Z</time></trkpt><trkpt lat="44.4994306" lon="4.6279113"><ele>110.0</ele><time>2026-04-10T15:37:11.788Z</time></trkpt><trkpt lat="44.4993551" lon="4.6277822"><ele>112.75</ele><time>2026-04-10T15:37:12.786Z</time></trkpt><trkpt lat="44.4993066" lon="4.6276182"><ele>115.5</ele><time>2026-04-10T15:37:13.785Z</time></trkpt><trkpt lat="44.4992609" lon="4.6274535"><ele>118.25</ele><time>2026-04-10T15:37:14.789Z</time></trkpt><trkpt lat="44.4992097" lon="4.6273053"><ele>121.0</ele><time>2026-04-10T15:37:15.788Z</time></trkpt><trkpt lat="44.4991875" lon="4.6271352"><ele>121.0</ele><time>2026-04-10T15:37:16.793Z</time></trkpt><trkpt lat="44.4991888" lon="4.6269599"><ele>121.0</ele><time>2026-04-10T15:37:17.785Z</time></trkpt><trkpt lat="44.4991874" lon="4.6268229"><ele>121.0</ele><time>2026-04-10T15:37:18.792Z</time></trkpt><trkpt lat="44.4991559" lon="4.6266818"><ele>121.0</ele><time>2026-04-10T15:37:19.789Z</time></trkpt><trkpt lat="44.4990984" lon="4.6266306"><ele>121.0</ele><time>2026-04-10T15:37:20.799Z</time></trkpt><trkpt lat="44.4990265" lon="4.6265738"><ele>121.00000000000001</ele><time>2026-04-10T15:37:21.79Z</time></trkpt><trkpt lat="44.4989519" lon="4.6265405"><ele>121.0</ele><time>2026-04-10T15:37:22.785Z</time></trkpt><trkpt lat="44.4988854" lon="4.6264999"><ele>121.0</ele><time>2026-04-10T15:37:23.786Z</time></trkpt><trkpt lat="44.4988216" lon="4.6264682"><ele>121.0</ele><time>2026-04-10T15:37:24.788Z</time></trkpt><trkpt lat="44.4987354" lon="4.626427"><ele>121.00000000000001</ele><time>2026-04-10T15:37:25.786Z</time></trkpt><trkpt lat="44.4986698" lon="4.6263825"><ele>121.0</ele><time>2026-04-10T15:37:26.79Z</time></trkpt><trkpt lat="44.4985763" lon="4.6262881"><ele>119.66666666666667</ele><time>2026-04-10T15:37:28.786Z</time></trkpt><trkpt lat="44.4985294" lon="4.6262173"><ele>118.33333333333334</ele><time>2026-04-10T15:37:29.786Z</time></trkpt><trkpt lat="44.4984873" lon="4.6261482"><ele>117.0</ele><time>2026-04-10T15:37:30.785Z</time></trkpt><trkpt lat="44.498466" lon="4.6260519"><ele>115.66666666666666</ele><time>2026-04-10T15:37:31.788Z</time></trkpt><trkpt lat="44.4984741" lon="4.6259417"><ele>114.33333333333333</ele><time>2026-04-10T15:37:32.786Z</time></trkpt><trkpt lat="44.4984561" lon="4.6258262"><ele>113.0</ele><time>2026-04-10T15:37:33.788Z</time></trkpt><trkpt lat="44.4984655" lon="4.6256947"><ele>113.0</ele><time>2026-04-10T15:37:34.789Z</time></trkpt><trkpt lat="44.498486" lon="4.6255568"><ele>113.00000000000001</ele><time>2026-04-10T15:37:35.798Z</time></trkpt><trkpt lat="44.4984971" lon="4.6254098"><ele>113.00000000000001</ele><time>2026-04-10T15:37:36.79Z</time></trkpt><trkpt lat="44.4985102" lon="4.6252549"><ele>113.0</ele><time>2026-04-10T15:37:37.789Z</time></trkpt><trkpt lat="44.4985475" lon="4.6251056"><ele>113.0</ele><time>2026-04-10T15:37:38.789Z</time></trkpt><trkpt lat="44.4985695" lon="4.6249696"><ele>114.66666666666666</ele><time>2026-04-10T15:37:39.788Z</time></trkpt><trkpt lat="44.4986064" lon="4.6248488"><ele>116.33333333333333</ele><time>2026-04-10T15:37:40.787Z</time></trkpt><trkpt lat="44.4986453" lon="4.624752"><ele>118.0</ele><time>2026-04-10T15:37:41.786Z</time></trkpt><trkpt lat="44.4986757" lon="4.6246746"><ele>119.66666666666666</ele><time>2026-04-10T15:37:42.787Z</time></trkpt><trkpt lat="44.4986367" lon="4.6245473"><ele>121.33333333333333</ele><time>2026-04-10T15:37:44.789Z</time></trkpt><trkpt lat="44.4985699" lon="4.6245419"><ele>123.0</ele><time>2026-04-10T15:37:46.791Z</time></trkpt><trkpt lat="44.498514" lon="4.6246612"><ele>123.0</ele><time>2026-04-10T15:37:47.798Z</time></trkpt><trkpt lat="44.4984802" lon="4.6247887"><ele>123.00000000000001</ele><time>2026-04-10T15:37:48.793Z</time></trkpt><trkpt lat="44.4984244" lon="4.6249397"><ele>123.00000000000001</ele><time>2026-04-10T15:37:49.792Z</time></trkpt><trkpt lat="44.4983749" lon="4.6250804"><ele>123.0</ele><time>2026-04-10T15:37:50.788Z</time></trkpt><trkpt lat="44.4983231" lon="4.625224"><ele>123.0</ele><time>2026-04-10T15:37:51.789Z</time></trkpt><trkpt lat="44.4982618" lon="4.6253561"><ele>121.0</ele><time>2026-04-10T15:37:52.796Z</time></trkpt><trkpt lat="44.4982019" lon="4.6254854"><ele>119.00000000000001</ele><time>2026-04-10T15:37:53.787Z</time></trkpt><trkpt lat="44.4981461" lon="4.6256153"><ele>117.00000000000001</ele><time>2026-04-10T15:37:54.786Z</time></trkpt><trkpt lat="44.4980798" lon="4.6257532"><ele>115.0</ele><time>2026-04-10T15:37:55.788Z</time></trkpt><trkpt lat="44.4980132" lon="4.6258717"><ele>113.0</ele><time>2026-04-10T15:37:56.787Z</time></trkpt><trkpt lat="44.497939" lon="4.6260051"><ele>112.80000000000001</ele><time>2026-04-10T15:37:57.786Z</time></trkpt><trkpt lat="44.4978549" lon="4.6261264"><ele>112.60000000000001</ele><time>2026-04-10T15:37:58.788Z</time></trkpt><trkpt lat="44.4977638" lon="4.626199"><ele>112.39999999999999</ele><time>2026-04-10T15:37:59.788Z</time></trkpt><trkpt lat="44.4976672" lon="4.6262259"><ele>112.19999999999999</ele><time>2026-04-10T15:38:00.793Z</time></trkpt><trkpt lat="44.4975715" lon="4.6262053"><ele>112.0</ele><time>2026-04-10T15:38:01.786Z</time></trkpt><trkpt lat="44.4974824" lon="4.6261502"><ele>114.25</ele><time>2026-04-10T15:38:02.786Z</time></trkpt><trkpt lat="44.4973788" lon="4.6260788"><ele>116.5</ele><time>2026-04-10T15:38:03.786Z</time></trkpt><trkpt lat="44.4972686" lon="4.6260198"><ele>118.75</ele><time>2026-04-10T15:38:04.788Z</time></trkpt><trkpt lat="44.4971627" lon="4.6259577"><ele>121.0</ele><time>2026-04-10T15:38:05.79Z</time></trkpt><trkpt lat="44.4970393" lon="4.6258893"><ele>121.0</ele><time>2026-04-10T15:38:06.789Z</time></trkpt><trkpt lat="44.4969147" lon="4.6258065"><ele>121.0</ele><time>2026-04-10T15:38:07.79Z</time></trkpt><trkpt lat="44.4967877" lon="4.6257273"><ele>121.0</ele><time>2026-04-10T15:38:08.788Z</time></trkpt><trkpt lat="44.4966517" lon="4.6256462"><ele>121.0</ele><time>2026-04-10T15:38:09.788Z</time></trkpt><trkpt lat="44.4965074" lon="4.6255999"><ele>121.0</ele><time>2026-04-10T15:38:10.791Z</time></trkpt><trkpt lat="44.496384" lon="4.625542"><ele>121.0</ele><time>2026-04-10T15:38:11.792Z</time></trkpt><trkpt lat="44.4962741" lon="4.6254357"><ele>121.0</ele><time>2026-04-10T15:38:12.786Z</time></trkpt><trkpt lat="44.4961672" lon="4.6253737"><ele>121.0</ele><time>2026-04-10T15:38:13.787Z</time></trkpt><trkpt lat="44.4960649" lon="4.6253125"><ele>126.75</ele><time>2026-04-10T15:38:14.787Z</time></trkpt><trkpt lat="44.4959499" lon="4.6252687"><ele>132.5</ele><time>2026-04-10T15:38:15.786Z</time></trkpt><trkpt lat="44.4957903" lon="4.6253048"><ele>138.25</ele><time>2026-04-10T15:38:16.787Z</time></trkpt><trkpt lat="44.4956293" lon="4.6253025"><ele>144.0</ele><time>2026-04-10T15:38:17.788Z</time></trkpt><trkpt lat="44.4954678" lon="4.6252859"><ele>140.75</ele><time>2026-04-10T15:38:18.785Z</time></trkpt><trkpt lat="44.4953146" lon="4.6252668"><ele>137.5</ele><time>2026-04-10T15:38:19.79Z</time></trkpt><trkpt lat="44.4951645" lon="4.6252204"><ele>134.25</ele><time>2026-04-10T15:38:20.79Z</time></trkpt><trkpt lat="44.4950282" lon="4.6251833"><ele>131.0</ele><time>2026-04-10T15:38:21.79Z</time></trkpt><trkpt lat="44.4949004" lon="4.62514"><ele>131.0</ele><time>2026-04-10T15:38:22.788Z</time></trkpt><trkpt lat="44.4948028" lon="4.6251"><ele>131.0</ele><time>2026-04-10T15:38:23.789Z</time></trkpt><trkpt lat="44.4947079" lon="4.6250816"><ele>131.0</ele><time>2026-04-10T15:38:24.792Z</time></trkpt><trkpt lat="44.4946173" lon="4.6251066"><ele>131.0</ele><time>2026-04-10T15:38:25.785Z</time></trkpt><trkpt lat="44.4945468" lon="4.6251817"><ele>131.0</ele><time>2026-04-10T15:38:26.785Z</time></trkpt><trkpt lat="44.4944819" lon="4.6253076"><ele>127.75</ele><time>2026-04-10T15:38:27.786Z</time></trkpt><trkpt lat="44.4943985" lon="4.6254102"><ele>124.5</ele><time>2026-04-10T15:38:28.789Z</time></trkpt><trkpt lat="44.4942913" lon="4.6255074"><ele>121.25</ele><time>2026-04-10T15:38:29.786Z</time></trkpt><trkpt lat="44.4941671" lon="4.6255907"><ele>118.0</ele><time>2026-04-10T15:38:30.788Z</time></trkpt><trkpt lat="44.4940319" lon="4.6256789"><ele>118.0</ele><time>2026-04-10T15:38:31.788Z</time></trkpt><trkpt lat="44.4938906" lon="4.6257643"><ele>118.0</ele><time>2026-04-10T15:38:32.785Z</time></trkpt><trkpt lat="44.4937458" lon="4.6258561"><ele>118.0</ele><time>2026-04-10T15:38:33.792Z</time></trkpt><trkpt lat="44.4936102" lon="4.62595"><ele>122.0</ele><time>2026-04-10T15:38:34.788Z</time></trkpt><trkpt lat="44.4934851" lon="4.6260084"><ele>126.0</ele><time>2026-04-10T15:38:35.79Z</time></trkpt><trkpt lat="44.4933545" lon="4.6260486"><ele>130.0</ele><time>2026-04-10T15:38:36.787Z</time></trkpt><trkpt lat="44.4932334" lon="4.6260377"><ele>134.0</ele><time>2026-04-10T15:38:37.789Z</time></trkpt><trkpt lat="44.4930957" lon="4.6260142"><ele>134.0</ele><time>2026-04-10T15:38:38.788Z</time></trkpt><trkpt lat="44.4929539" lon="4.6259801"><ele>134.0</ele><time>2026-04-10T15:38:39.787Z</time></trkpt><trkpt lat="44.4928208" lon="4.6259388"><ele>134.0</ele><time>2026-04-10T15:38:40.785Z</time></trkpt><trkpt lat="44.4926804" lon="4.6259018"><ele>134.0</ele><time>2026-04-10T15:38:41.786Z</time></trkpt><trkpt lat="44.4925621" lon="4.6258508"><ele>132.5</ele><time>2026-04-10T15:38:42.785Z</time></trkpt><trkpt lat="44.492462" lon="4.6257456"><ele>131.0</ele><time>2026-04-10T15:38:43.788Z</time></trkpt><trkpt lat="44.4923588" lon="4.6256222"><ele>129.5</ele><time>2026-04-10T15:38:44.791Z</time></trkpt><trkpt lat="44.4922614" lon="4.6254857"><ele>128.0</ele><time>2026-04-10T15:38:45.787Z</time></trkpt><trkpt lat="44.4921465" lon="4.6253375"><ele>130.33333333333331</ele><time>2026-04-10T15:38:46.792Z</time></trkpt><trkpt lat="44.4920367" lon="4.6251905"><ele>132.66666666666666</ele><time>2026-04-10T15:38:47.787Z</time></trkpt><trkpt lat="44.4918876" lon="4.6250741"><ele>135.0</ele><time>2026-04-10T15:38:48.789Z</time></trkpt><trkpt lat="44.491753" lon="4.6249747"><ele>135.0</ele><time>2026-04-10T15:38:49.79Z</time></trkpt><trkpt lat="44.491608" lon="4.6248875"><ele>135.0</ele><time>2026-04-10T15:38:50.788Z</time></trkpt><trkpt lat="44.4914711" lon="4.6248019"><ele>135.0</ele><time>2026-04-10T15:38:51.787Z</time></trkpt><trkpt lat="44.4913372" lon="4.6246979"><ele>134.0</ele><time>2026-04-10T15:38:52.787Z</time></trkpt><trkpt lat="44.4912028" lon="4.6245927"><ele>133.0</ele><time>2026-04-10T15:38:53.786Z</time></trkpt><trkpt lat="44.4910533" lon="4.6244745"><ele>132.0</ele><time>2026-04-10T15:38:54.788Z</time></trkpt><trkpt lat="44.4909422" lon="4.6243286"><ele>132.0</ele><time>2026-04-10T15:38:55.788Z</time></trkpt><trkpt lat="44.4908254" lon="4.6241629"><ele>132.0</ele><time>2026-04-10T15:38:56.789Z</time></trkpt><trkpt lat="44.490729" lon="4.6239815"><ele>132.0</ele><time>2026-04-10T15:38:57.791Z</time></trkpt><trkpt lat="44.4906337" lon="4.6238038"><ele>128.33333333333334</ele><time>2026-04-10T15:38:58.788Z</time></trkpt><trkpt lat="44.490525" lon="4.6236336"><ele>124.66666666666667</ele><time>2026-04-10T15:38:59.787Z</time></trkpt><trkpt lat="44.4904698" lon="4.6234037"><ele>121.0</ele><time>2026-04-10T15:39:00.786Z</time></trkpt><trkpt lat="44.4903928" lon="4.6231936"><ele>121.0</ele><time>2026-04-10T15:39:01.788Z</time></trkpt><trkpt lat="44.4903281" lon="4.6229736"><ele>121.0</ele><time>2026-04-10T15:39:02.785Z</time></trkpt><trkpt lat="44.4902591" lon="4.6227514"><ele>121.0</ele><time>2026-04-10T15:39:03.79Z</time></trkpt><trkpt lat="44.4901826" lon="4.6225564"><ele>125.33333333333334</ele><time>2026-04-10T15:39:04.786Z</time></trkpt><trkpt lat="44.4901117" lon="4.6223628"><ele>129.66666666666666</ele><time>2026-04-10T15:39:05.79Z</time></trkpt><trkpt lat="44.4900112" lon="4.62219"><ele>134.0</ele><time>2026-04-10T15:39:06.786Z</time></trkpt><trkpt lat="44.4899188" lon="4.6220307"><ele>137.5</ele><time>2026-04-10T15:39:07.787Z</time></trkpt><trkpt lat="44.4898508" lon="4.6218638"><ele>141.0</ele><time>2026-04-10T15:39:08.79Z</time></trkpt><trkpt lat="44.4897923" lon="4.6216921"><ele>144.5</ele><time>2026-04-10T15:39:09.785Z</time></trkpt><trkpt lat="44.4897312" lon="4.6215214"><ele>148.0</ele><time>2026-04-10T15:39:10.786Z</time></trkpt><trkpt lat="44.4896803" lon="4.6213536"><ele>148.0</ele><time>2026-04-10T15:39:11.786Z</time></trkpt><trkpt lat="44.4896377" lon="4.621173"><ele>148.0</ele><time>2026-04-10T15:39:12.787Z</time></trkpt><trkpt lat="44.4895748" lon="4.6209704"><ele>148.0</ele><time>2026-04-10T15:39:13.791Z</time></trkpt><trkpt lat="44.4895061" lon="4.6207886"><ele>148.0</ele><time>2026-04-10T15:39:14.785Z</time></trkpt><trkpt lat="44.4894273" lon="4.6206057"><ele>146.0</ele><time>2026-04-10T15:39:15.784Z</time></trkpt><trkpt lat="44.4893288" lon="4.6204506"><ele>144.0</ele><time>2026-04-10T15:39:16.787Z</time></trkpt><trkpt lat="44.4892322" lon="4.62027"><ele>142.0</ele><time>2026-04-10T15:39:17.785Z</time></trkpt><trkpt lat="44.489151" lon="4.6200758"><ele>142.0</ele><time>2026-04-10T15:39:18.786Z</time></trkpt><trkpt lat="44.4890636" lon="4.6198873"><ele>142.0</ele><time>2026-04-10T15:39:19.79Z</time></trkpt><trkpt lat="44.4889872" lon="4.6196912"><ele>142.0</ele><time>2026-04-10T15:39:20.787Z</time></trkpt><trkpt lat="44.4889018" lon="4.6195106"><ele>137.33333333333334</ele><time>2026-04-10T15:39:21.788Z</time></trkpt><trkpt lat="44.4888118" lon="4.6193416"><ele>132.66666666666666</ele><time>2026-04-10T15:39:22.789Z</time></trkpt><trkpt lat="44.488711" lon="4.6191797"><ele>128.0</ele><time>2026-04-10T15:39:23.791Z</time></trkpt><trkpt lat="44.4886119" lon="4.6190064"><ele>128.0</ele><time>2026-04-10T15:39:24.79Z</time></trkpt><trkpt lat="44.4885082" lon="4.6188342"><ele>128.0</ele><time>2026-04-10T15:39:25.793Z</time></trkpt><trkpt lat="44.4884057" lon="4.6186509"><ele>128.0</ele><time>2026-04-10T15:39:26.787Z</time></trkpt><trkpt lat="44.4883066" lon="4.6184695"><ele>131.25</ele><time>2026-04-10T15:39:27.79Z</time></trkpt><trkpt lat="44.4882121" lon="4.6182961"><ele>134.5</ele><time>2026-04-10T15:39:28.791Z</time></trkpt><trkpt lat="44.4881389" lon="4.618121"><ele>137.75</ele><time>2026-04-10T15:39:29.787Z</time></trkpt><trkpt lat="44.4880851" lon="4.6179639"><ele>141.0</ele><time>2026-04-10T15:39:30.787Z</time></trkpt><trkpt lat="44.4880345" lon="4.6178325"><ele>141.25</ele><time>2026-04-10T15:39:31.789Z</time></trkpt><trkpt lat="44.4880682" lon="4.6176636"><ele>141.5</ele><time>2026-04-10T15:39:32.787Z</time></trkpt><trkpt lat="44.4880917" lon="4.6174967"><ele>141.75</ele><time>2026-04-10T15:39:33.796Z</time></trkpt><trkpt lat="44.4881242" lon="4.6173039"><ele>142.0</ele><time>2026-04-10T15:39:34.807Z</time></trkpt><trkpt lat="44.4881526" lon="4.617121"><ele>141.0</ele><time>2026-04-10T15:39:35.79Z</time></trkpt><trkpt lat="44.4881316" lon="4.6169403"><ele>140.0</ele><time>2026-04-10T15:39:36.79Z</time></trkpt><trkpt lat="44.4880904" lon="4.6167744"><ele>139.0</ele><time>2026-04-10T15:39:37.792Z</time></trkpt><trkpt lat="44.4880463" lon="4.6166012"><ele>138.0</ele><time>2026-04-10T15:39:38.797Z</time></trkpt><trkpt lat="44.4879795" lon="4.6164276"><ele>136.0</ele><time>2026-04-10T15:39:39.785Z</time></trkpt><trkpt lat="44.4879124" lon="4.6162546"><ele>134.0</ele><time>2026-04-10T15:39:40.792Z</time></trkpt><trkpt lat="44.4878222" lon="4.6160954"><ele>132.0</ele><time>2026-04-10T15:39:41.802Z</time></trkpt><trkpt lat="44.4877248" lon="4.6159046"><ele>132.0</ele><time>2026-04-10T15:39:42.793Z</time></trkpt><trkpt lat="44.4876351" lon="4.6157154"><ele>132.0</ele><time>2026-04-10T15:39:43.792Z</time></trkpt><trkpt lat="44.4875373" lon="4.6155193"><ele>132.0</ele><time>2026-04-10T15:39:44.789Z</time></trkpt><trkpt lat="44.4874467" lon="4.6153306"><ele>137.0</ele><time>2026-04-10T15:39:45.784Z</time></trkpt><trkpt lat="44.4873753" lon="4.6151357"><ele>142.0</ele><time>2026-04-10T15:39:46.786Z</time></trkpt><trkpt lat="44.4872971" lon="4.614948"><ele>147.0</ele><time>2026-04-10T15:39:47.785Z</time></trkpt><trkpt lat="44.4872061" lon="4.6147685"><ele>147.0</ele><time>2026-04-10T15:39:48.788Z</time></trkpt><trkpt lat="44.487099" lon="4.6146237"><ele>147.0</ele><time>2026-04-10T15:39:49.784Z</time></trkpt><trkpt lat="44.4870052" lon="4.6144812"><ele>147.0</ele><time>2026-04-10T15:39:50.788Z</time></trkpt><trkpt lat="44.4868942" lon="4.614344"><ele>147.0</ele><time>2026-04-10T15:39:51.784Z</time></trkpt><trkpt lat="44.4868055" lon="4.6141908"><ele>145.5</ele><time>2026-04-10T15:39:52.788Z</time></trkpt><trkpt lat="44.4867373" lon="4.6140398"><ele>144.0</ele><time>2026-04-10T15:39:53.787Z</time></trkpt><trkpt lat="44.4867157" lon="4.6138687"><ele>142.5</ele><time>2026-04-10T15:39:54.788Z</time></trkpt><trkpt lat="44.486711" lon="4.6136821"><ele>141.0</ele><time>2026-04-10T15:39:55.784Z</time></trkpt><trkpt lat="44.4866937" lon="4.6134935"><ele>141.0</ele><time>2026-04-10T15:39:56.787Z</time></trkpt><trkpt lat="44.4866485" lon="4.6132983"><ele>141.0</ele><time>2026-04-10T15:39:57.788Z</time></trkpt><trkpt lat="44.4865836" lon="4.6131212"><ele>141.0</ele><time>2026-04-10T15:39:58.787Z</time></trkpt><trkpt lat="44.4865136" lon="4.6129414"><ele>141.0</ele><time>2026-04-10T15:39:59.785Z</time></trkpt><trkpt lat="44.4864466" lon="4.6127638"><ele>143.0</ele><time>2026-04-10T15:40:00.796Z</time></trkpt><trkpt lat="44.4863704" lon="4.6125792"><ele>145.0</ele><time>2026-04-10T15:40:01.788Z</time></trkpt><trkpt lat="44.4862817" lon="4.6124108"><ele>147.0</ele><time>2026-04-10T15:40:02.79Z</time></trkpt><trkpt lat="44.4861866" lon="4.6122428"><ele>145.0</ele><time>2026-04-10T15:40:03.788Z</time></trkpt><trkpt lat="44.4860914" lon="4.6120759"><ele>143.0</ele><time>2026-04-10T15:40:04.785Z</time></trkpt><trkpt lat="44.4859943" lon="4.6119096"><ele>141.0</ele><time>2026-04-10T15:40:05.787Z</time></trkpt><trkpt lat="44.4858705" lon="4.6117576"><ele>141.0</ele><time>2026-04-10T15:40:06.787Z</time></trkpt><trkpt lat="44.4857532" lon="4.6116102"><ele>141.0</ele><time>2026-04-10T15:40:07.786Z</time></trkpt><trkpt lat="44.4856347" lon="4.6114628"><ele>141.0</ele><time>2026-04-10T15:40:08.786Z</time></trkpt><trkpt lat="44.4855163" lon="4.6113079"><ele>141.33333333333334</ele><time>2026-04-10T15:40:09.786Z</time></trkpt><trkpt lat="44.4853984" lon="4.6111494"><ele>141.66666666666669</ele><time>2026-04-10T15:40:10.782Z</time></trkpt><trkpt lat="44.4852842" lon="4.6109879"><ele>142.0</ele><time>2026-04-10T15:40:11.786Z</time></trkpt><trkpt lat="44.4851671" lon="4.610831"><ele>142.0</ele><time>2026-04-10T15:40:12.788Z</time></trkpt><trkpt lat="44.4850394" lon="4.6106875"><ele>142.0</ele><time>2026-04-10T15:40:13.788Z</time></trkpt><trkpt lat="44.4849202" lon="4.6105254"><ele>142.0</ele><time>2026-04-10T15:40:14.788Z</time></trkpt><trkpt lat="44.4847949" lon="4.6103783"><ele>143.33333333333334</ele><time>2026-04-10T15:40:15.786Z</time></trkpt><trkpt lat="44.4846628" lon="4.6102547"><ele>144.66666666666666</ele><time>2026-04-10T15:40:16.786Z</time></trkpt><trkpt lat="44.4845127" lon="4.6101753"><ele>146.0</ele><time>2026-04-10T15:40:17.788Z</time></trkpt><trkpt lat="44.4843713" lon="4.6100559"><ele>146.0</ele><time>2026-04-10T15:40:18.787Z</time></trkpt><trkpt lat="44.4842452" lon="4.609903"><ele>146.0</ele><time>2026-04-10T15:40:19.782Z</time></trkpt><trkpt lat="44.4841254" lon="4.6097503"><ele>146.0</ele><time>2026-04-10T15:40:20.786Z</time></trkpt><trkpt lat="44.4840172" lon="4.6096004"><ele>148.75</ele><time>2026-04-10T15:40:21.784Z</time></trkpt><trkpt lat="44.4839158" lon="4.6094531"><ele>151.5</ele><time>2026-04-10T15:40:22.788Z</time></trkpt><trkpt lat="44.4838397" lon="4.609317"><ele>154.25</ele><time>2026-04-10T15:40:23.783Z</time></trkpt><trkpt lat="44.4838134" lon="4.6091756"><ele>157.0</ele><time>2026-04-10T15:40:24.787Z</time></trkpt><trkpt lat="44.4837939" lon="4.6090444"><ele>157.0</ele><time>2026-04-10T15:40:25.786Z</time></trkpt><trkpt lat="44.4837771" lon="4.6089162"><ele>157.0</ele><time>2026-04-10T15:40:26.789Z</time></trkpt><trkpt lat="44.4837333" lon="4.6087857"><ele>157.0</ele><time>2026-04-10T15:40:27.789Z</time></trkpt><trkpt lat="44.4836778" lon="4.6086958"><ele>157.0</ele><time>2026-04-10T15:40:28.791Z</time></trkpt><trkpt lat="44.4836042" lon="4.6086282"><ele>157.0</ele><time>2026-04-10T15:40:29.795Z</time></trkpt><trkpt lat="44.4835045" lon="4.6086144"><ele>157.0</ele><time>2026-04-10T15:40:30.797Z</time></trkpt><trkpt lat="44.4833554" lon="4.6086174"><ele>157.0</ele><time>2026-04-10T15:40:31.79Z</time></trkpt><trkpt lat="44.4832525" lon="4.6085345"><ele>157.0</ele><time>2026-04-10T15:40:32.789Z</time></trkpt><trkpt lat="44.4831395" lon="4.6084335"><ele>157.0</ele><time>2026-04-10T15:40:33.789Z</time></trkpt><trkpt lat="44.4830287" lon="4.6083141"><ele>152.66666666666669</ele><time>2026-04-10T15:40:34.787Z</time></trkpt><trkpt lat="44.4829157" lon="4.6081788"><ele>148.33333333333334</ele><time>2026-04-10T15:40:35.789Z</time></trkpt><trkpt lat="44.482798" lon="4.608028"><ele>144.0</ele><time>2026-04-10T15:40:36.788Z</time></trkpt><trkpt lat="44.4826786" lon="4.6078812"><ele>149.33333333333334</ele><time>2026-04-10T15:40:37.786Z</time></trkpt><trkpt lat="44.4825757" lon="4.6077109"><ele>154.66666666666669</ele><time>2026-04-10T15:40:38.792Z</time></trkpt><trkpt lat="44.4824751" lon="4.6075346"><ele>160.0</ele><time>2026-04-10T15:40:39.788Z</time></trkpt><trkpt lat="44.4823664" lon="4.6073676"><ele>160.0</ele><time>2026-04-10T15:40:40.79Z</time></trkpt><trkpt lat="44.4822693" lon="4.6071934"><ele>160.0</ele><time>2026-04-10T15:40:41.789Z</time></trkpt><trkpt lat="44.4821631" lon="4.6070111"><ele>160.0</ele><time>2026-04-10T15:40:42.79Z</time></trkpt><trkpt lat="44.4820729" lon="4.6068285"><ele>156.33333333333334</ele><time>2026-04-10T15:40:43.79Z</time></trkpt><trkpt lat="44.4819947" lon="4.6066218"><ele>152.66666666666666</ele><time>2026-04-10T15:40:44.79Z</time></trkpt><trkpt lat="44.481918" lon="4.6064274"><ele>149.0</ele><time>2026-04-10T15:40:45.79Z</time></trkpt><trkpt lat="44.4818385" lon="4.6062547"><ele>151.5</ele><time>2026-04-10T15:40:46.789Z</time></trkpt><trkpt lat="44.4817603" lon="4.6060913"><ele>154.0</ele><time>2026-04-10T15:40:47.789Z</time></trkpt><trkpt lat="44.4816757" lon="4.6059433"><ele>156.5</ele><time>2026-04-10T15:40:48.787Z</time></trkpt><trkpt lat="44.4816124" lon="4.6057936"><ele>159.0</ele><time>2026-04-10T15:40:49.788Z</time></trkpt><trkpt lat="44.4815568" lon="4.605651"><ele>159.0</ele><time>2026-04-10T15:40:50.788Z</time></trkpt><trkpt lat="44.4815123" lon="4.6055082"><ele>159.0</ele><time>2026-04-10T15:40:51.79Z</time></trkpt><trkpt lat="44.4814896" lon="4.6053303"><ele>159.0</ele><time>2026-04-10T15:40:52.786Z</time></trkpt><trkpt lat="44.4814587" lon="4.6051639"><ele>159.0</ele><time>2026-04-10T15:40:53.794Z</time></trkpt><trkpt lat="44.4814242" lon="4.6049993"><ele>157.25</ele><time>2026-04-10T15:40:54.789Z</time></trkpt><trkpt lat="44.4813749" lon="4.6048426"><ele>155.5</ele><time>2026-04-10T15:40:55.791Z</time></trkpt><trkpt lat="44.4813325" lon="4.6046826"><ele>153.75</ele><time>2026-04-10T15:40:56.787Z</time></trkpt><trkpt lat="44.481279" lon="4.6045092"><ele>152.0</ele><time>2026-04-10T15:40:57.787Z</time></trkpt><trkpt lat="44.4812244" lon="4.6043527"><ele>152.0</ele><time>2026-04-10T15:40:58.792Z</time></trkpt><trkpt lat="44.4811667" lon="4.6041931"><ele>152.0</ele><time>2026-04-10T15:40:59.793Z</time></trkpt><trkpt lat="44.4811033" lon="4.6040316"><ele>152.0</ele><time>2026-04-10T15:41:00.79Z</time></trkpt><trkpt lat="44.4810337" lon="4.6038868"><ele>152.0</ele><time>2026-04-10T15:41:01.785Z</time></trkpt><trkpt lat="44.4809667" lon="4.6037446"><ele>155.5</ele><time>2026-04-10T15:41:02.786Z</time></trkpt><trkpt lat="44.480897" lon="4.6036008"><ele>159.0</ele><time>2026-04-10T15:41:03.791Z</time></trkpt><trkpt lat="44.4808321" lon="4.6034636"><ele>162.5</ele><time>2026-04-10T15:41:04.794Z</time></trkpt><trkpt lat="44.4807737" lon="4.6033317"><ele>166.0</ele><time>2026-04-10T15:41:05.789Z</time></trkpt><trkpt lat="44.48072" lon="4.6032051"><ele>166.0</ele><time>2026-04-10T15:41:06.789Z</time></trkpt><trkpt lat="44.4806711" lon="4.6030715"><ele>166.0</ele><time>2026-04-10T15:41:07.791Z</time></trkpt><trkpt lat="44.4806268" lon="4.6029352"><ele>166.0</ele><time>2026-04-10T15:41:08.789Z</time></trkpt><trkpt lat="44.4805932" lon="4.6027895"><ele>166.0</ele><time>2026-04-10T15:41:09.791Z</time></trkpt><trkpt lat="44.4805512" lon="4.6026586"><ele>166.0</ele><time>2026-04-10T15:41:10.787Z</time></trkpt><trkpt lat="44.48053" lon="4.6024878"><ele>163.0</ele><time>2026-04-10T15:41:11.789Z</time></trkpt><trkpt lat="44.4805132" lon="4.6023265"><ele>160.0</ele><time>2026-04-10T15:41:12.787Z</time></trkpt><trkpt lat="44.4805107" lon="4.6021455"><ele>157.0</ele><time>2026-04-10T15:41:13.793Z</time></trkpt><trkpt lat="44.4804775" lon="4.6019341"><ele>154.0</ele><time>2026-04-10T15:41:14.788Z</time></trkpt><trkpt lat="44.4804192" lon="4.6016803"><ele>154.0</ele><time>2026-04-10T15:41:15.785Z</time></trkpt><trkpt lat="44.4803853" lon="4.6013958"><ele>154.0</ele><time>2026-04-10T15:41:16.789Z</time></trkpt><trkpt lat="44.4803428" lon="4.6011365"><ele>154.0</ele><time>2026-04-10T15:41:17.79Z</time></trkpt><trkpt lat="44.4803006" lon="4.6008862"><ele>156.0</ele><time>2026-04-10T15:41:18.785Z</time></trkpt><trkpt lat="44.4802474" lon="4.6006542"><ele>158.0</ele><time>2026-04-10T15:41:19.789Z</time></trkpt><trkpt lat="44.4801879" lon="4.6004432"><ele>160.0</ele><time>2026-04-10T15:41:20.787Z</time></trkpt><trkpt lat="44.4801196" lon="4.6002553"><ele>162.0</ele><time>2026-04-10T15:41:21.786Z</time></trkpt><trkpt lat="44.4800551" lon="4.6000769"><ele>164.0</ele><time>2026-04-10T15:41:22.786Z</time></trkpt><trkpt lat="44.4799985" lon="4.599904"><ele>166.0</ele><time>2026-04-10T15:41:23.786Z</time></trkpt><trkpt lat="44.4799666" lon="4.5997449"><ele>168.0</ele><time>2026-04-10T15:41:24.785Z</time></trkpt><trkpt lat="44.4799258" lon="4.5995577"><ele>170.0</ele><time>2026-04-10T15:41:25.788Z</time></trkpt><trkpt lat="44.4798714" lon="4.5994028"><ele>172.0</ele><time>2026-04-10T15:41:26.787Z</time></trkpt><trkpt lat="44.4798141" lon="4.5992618"><ele>174.0</ele><time>2026-04-10T15:41:27.786Z</time></trkpt><trkpt lat="44.4797477" lon="4.5991231"><ele>176.0</ele><time>2026-04-10T15:41:28.792Z</time></trkpt><trkpt lat="44.4796656" lon="4.5989734"><ele>176.25</ele><time>2026-04-10T15:41:29.786Z</time></trkpt><trkpt lat="44.4795683" lon="4.5988487"><ele>176.5</ele><time>2026-04-10T15:41:30.791Z</time></trkpt><trkpt lat="44.479478" lon="4.5987118"><ele>176.75</ele><time>2026-04-10T15:41:31.793Z</time></trkpt><trkpt lat="44.4793785" lon="4.5985876"><ele>177.0</ele><time>2026-04-10T15:41:32.787Z</time></trkpt><trkpt lat="44.4792799" lon="4.5984515"><ele>177.0</ele><time>2026-04-10T15:41:33.787Z</time></trkpt><trkpt lat="44.4791738" lon="4.5983219"><ele>177.0</ele><time>2026-04-10T15:41:34.789Z</time></trkpt><trkpt lat="44.4790614" lon="4.598217"><ele>177.0</ele><time>2026-04-10T15:41:35.787Z</time></trkpt><trkpt lat="44.4789762" lon="4.598098"><ele>177.0</ele><time>2026-04-10T15:41:36.787Z</time></trkpt><trkpt lat="44.4788667" lon="4.5980018"><ele>171.0</ele><time>2026-04-10T15:41:37.79Z</time></trkpt><trkpt lat="44.4787469" lon="4.5979266"><ele>165.0</ele><time>2026-04-10T15:41:38.786Z</time></trkpt><trkpt lat="44.478577" lon="4.597916"><ele>159.0</ele><time>2026-04-10T15:41:39.789Z</time></trkpt><trkpt lat="44.4784275" lon="4.5978974"><ele>159.0</ele><time>2026-04-10T15:41:40.789Z</time></trkpt><trkpt lat="44.4782794" lon="4.597881"><ele>159.0</ele><time>2026-04-10T15:41:41.786Z</time></trkpt><trkpt lat="44.4781343" lon="4.5978643"><ele>159.0</ele><time>2026-04-10T15:41:42.784Z</time></trkpt><trkpt lat="44.4779793" lon="4.5978704"><ele>159.0</ele><time>2026-04-10T15:41:43.791Z</time></trkpt><trkpt lat="44.4778188" lon="4.5978783"><ele>157.66666666666666</ele><time>2026-04-10T15:41:44.792Z</time></trkpt><trkpt lat="44.4776591" lon="4.5978849"><ele>156.33333333333331</ele><time>2026-04-10T15:41:45.788Z</time></trkpt><trkpt lat="44.4774847" lon="4.5979196"><ele>155.0</ele><time>2026-04-10T15:41:46.791Z</time></trkpt><trkpt lat="44.4773182" lon="4.5979477"><ele>155.0</ele><time>2026-04-10T15:41:47.789Z</time></trkpt><trkpt lat="44.4771576" lon="4.5979752"><ele>155.0</ele><time>2026-04-10T15:41:48.789Z</time></trkpt><trkpt lat="44.4769998" lon="4.5980102"><ele>155.0</ele><time>2026-04-10T15:41:49.791Z</time></trkpt><trkpt lat="44.4768452" lon="4.5980377"><ele>156.75</ele><time>2026-04-10T15:41:50.788Z</time></trkpt><trkpt lat="44.4766977" lon="4.5980677"><ele>158.5</ele><time>2026-04-10T15:41:51.785Z</time></trkpt><trkpt lat="44.476571" lon="4.5980992"><ele>160.25</ele><time>2026-04-10T15:41:52.792Z</time></trkpt><trkpt lat="44.4764183" lon="4.5981562"><ele>162.0</ele><time>2026-04-10T15:41:53.788Z</time></trkpt><trkpt lat="44.4762766" lon="4.5982028"><ele>163.66666666666666</ele><time>2026-04-10T15:41:54.791Z</time></trkpt><trkpt lat="44.4761204" lon="4.5982475"><ele>165.33333333333331</ele><time>2026-04-10T15:41:55.788Z</time></trkpt><trkpt lat="44.475972" lon="4.598294"><ele>167.0</ele><time>2026-04-10T15:41:56.794Z</time></trkpt><trkpt lat="44.4758241" lon="4.5983344"><ele>167.0</ele><time>2026-04-10T15:41:57.788Z</time></trkpt><trkpt lat="44.4756735" lon="4.5983668"><ele>167.0</ele><time>2026-04-10T15:41:58.787Z</time></trkpt><trkpt lat="44.4755173" lon="4.5983906"><ele>167.0</ele><time>2026-04-10T15:41:59.787Z</time></trkpt><trkpt lat="44.4753717" lon="4.5984023"><ele>166.5</ele><time>2026-04-10T15:42:00.786Z</time></trkpt><trkpt lat="44.4752317" lon="4.5983484"><ele>166.0</ele><time>2026-04-10T15:42:01.785Z</time></trkpt><trkpt lat="44.4750913" lon="4.5982899"><ele>165.5</ele><time>2026-04-10T15:42:02.788Z</time></trkpt><trkpt lat="44.4749526" lon="4.5982024"><ele>165.0</ele><time>2026-04-10T15:42:03.79Z</time></trkpt><trkpt lat="44.4748275" lon="4.5981114"><ele>165.0</ele><time>2026-04-10T15:42:04.792Z</time></trkpt><trkpt lat="44.4747002" lon="4.5980152"><ele>165.0</ele><time>2026-04-10T15:42:05.791Z</time></trkpt><trkpt lat="44.4745866" lon="4.5978852"><ele>165.0</ele><time>2026-04-10T15:42:06.79Z</time></trkpt><trkpt lat="44.4745039" lon="4.5977698"><ele>165.0</ele><time>2026-04-10T15:42:07.791Z</time></trkpt><trkpt lat="44.4744262" lon="4.5976645"><ele>164.2</ele><time>2026-04-10T15:42:08.786Z</time></trkpt><trkpt lat="44.4743855" lon="4.5975466"><ele>163.4</ele><time>2026-04-10T15:42:09.785Z</time></trkpt><trkpt lat="44.4743603" lon="4.59743"><ele>162.60000000000002</ele><time>2026-04-10T15:42:10.786Z</time></trkpt><trkpt lat="44.4743676" lon="4.597304"><ele>161.8</ele><time>2026-04-10T15:42:11.788Z</time></trkpt><trkpt lat="44.4744026" lon="4.5971644"><ele>161.0</ele><time>2026-04-10T15:42:12.787Z</time></trkpt><trkpt lat="44.474426" lon="4.597015"><ele>162.16666666666666</ele><time>2026-04-10T15:42:13.787Z</time></trkpt><trkpt lat="44.4744501" lon="4.5968765"><ele>163.33333333333331</ele><time>2026-04-10T15:42:14.785Z</time></trkpt><trkpt lat="44.4744472" lon="4.5967793"><ele>164.5</ele><time>2026-04-10T15:42:15.784Z</time></trkpt><trkpt lat="44.4744391" lon="4.5966667"><ele>165.66666666666666</ele><time>2026-04-10T15:42:16.794Z</time></trkpt><trkpt lat="44.4743633" lon="4.5966547"><ele>166.83333333333334</ele><time>2026-04-10T15:42:17.791Z</time></trkpt><trkpt lat="44.4742969" lon="4.5966205"><ele>168.0</ele><time>2026-04-10T15:42:18.786Z</time></trkpt><trkpt lat="44.4742185" lon="4.5965645"><ele>168.0</ele><time>2026-04-10T15:42:19.788Z</time></trkpt><trkpt lat="44.4741184" lon="4.596489"><ele>168.0</ele><time>2026-04-10T15:42:20.79Z</time></trkpt><trkpt lat="44.4740241" lon="4.5963892"><ele>168.0</ele><time>2026-04-10T15:42:21.785Z</time></trkpt><trkpt lat="44.4739266" lon="4.5962836"><ele>168.0</ele><time>2026-04-10T15:42:22.786Z</time></trkpt><trkpt lat="44.4738346" lon="4.5961695"><ele>169.5</ele><time>2026-04-10T15:42:23.786Z</time></trkpt><trkpt lat="44.4737496" lon="4.5960369"><ele>171.0</ele><time>2026-04-10T15:42:24.785Z</time></trkpt><trkpt lat="44.4736255" lon="4.5959733"><ele>172.5</ele><time>2026-04-10T15:42:25.784Z</time></trkpt><trkpt lat="44.4735156" lon="4.5958919"><ele>174.0</ele><time>2026-04-10T15:42:26.788Z</time></trkpt><trkpt lat="44.4733524" lon="4.5958529"><ele>174.0</ele><time>2026-04-10T15:42:27.79Z</time></trkpt><trkpt lat="44.4732058" lon="4.5957799"><ele>174.0</ele><time>2026-04-10T15:42:28.789Z</time></trkpt><trkpt lat="44.4730638" lon="4.5957141"><ele>174.0</ele><time>2026-04-10T15:42:29.788Z</time></trkpt><trkpt lat="44.4729345" lon="4.5956313"><ele>174.0</ele><time>2026-04-10T15:42:30.787Z</time></trkpt><trkpt lat="44.4727903" lon="4.5955311"><ele>176.66666666666666</ele><time>2026-04-10T15:42:31.789Z</time></trkpt><trkpt lat="44.4726528" lon="4.5954338"><ele>179.33333333333331</ele><time>2026-04-10T15:42:32.784Z</time></trkpt><trkpt lat="44.472519" lon="4.5953494"><ele>182.0</ele><time>2026-04-10T15:42:33.784Z</time></trkpt><trkpt lat="44.4723712" lon="4.5952505"><ele>182.0</ele><time>2026-04-10T15:42:34.785Z</time></trkpt><trkpt lat="44.4722289" lon="4.5951836"><ele>182.0</ele><time>2026-04-10T15:42:35.789Z</time></trkpt><trkpt lat="44.4720867" lon="4.5950992"><ele>182.0</ele><time>2026-04-10T15:42:36.788Z</time></trkpt><trkpt lat="44.4719501" lon="4.5950204"><ele>178.75</ele><time>2026-04-10T15:42:37.789Z</time></trkpt><trkpt lat="44.4718257" lon="4.5949399"><ele>175.5</ele><time>2026-04-10T15:42:38.788Z</time></trkpt><trkpt lat="44.4716914" lon="4.5948495"><ele>172.25</ele><time>2026-04-10T15:42:39.789Z</time></trkpt><trkpt lat="44.4715574" lon="4.5947543"><ele>169.0</ele><time>2026-04-10T15:42:40.795Z</time></trkpt><trkpt lat="44.4714299" lon="4.5946649"><ele>169.0</ele><time>2026-04-10T15:42:41.789Z</time></trkpt><trkpt lat="44.4713041" lon="4.5945876"><ele>169.0</ele><time>2026-04-10T15:42:42.786Z</time></trkpt><trkpt lat="44.4711775" lon="4.5945147"><ele>169.0</ele><time>2026-04-10T15:42:43.792Z</time></trkpt><trkpt lat="44.4710516" lon="4.5944405"><ele>169.0</ele><time>2026-04-10T15:42:44.789Z</time></trkpt><trkpt lat="44.4709256" lon="4.5943772"><ele>169.5</ele><time>2026-04-10T15:42:45.792Z</time></trkpt><trkpt lat="44.4707791" lon="4.59437"><ele>170.0</ele><time>2026-04-10T15:42:46.791Z</time></trkpt><trkpt lat="44.4706396" lon="4.5943462"><ele>170.5</ele><time>2026-04-10T15:42:47.79Z</time></trkpt><trkpt lat="44.4704913" lon="4.5943188"><ele>171.0</ele><time>2026-04-10T15:42:48.783Z</time></trkpt><trkpt lat="44.4703465" lon="4.5942866"><ele>171.0</ele><time>2026-04-10T15:42:49.792Z</time></trkpt><trkpt lat="44.4702027" lon="4.5942591"><ele>171.0</ele><time>2026-04-10T15:42:50.788Z</time></trkpt><trkpt lat="44.4700561" lon="4.5942374"><ele>171.0</ele><time>2026-04-10T15:42:51.784Z</time></trkpt><trkpt lat="44.4699101" lon="4.5942134"><ele>171.0</ele><time>2026-04-10T15:42:52.788Z</time></trkpt><trkpt lat="44.4697622" lon="4.5941909"><ele>171.0</ele><time>2026-04-10T15:42:53.788Z</time></trkpt><trkpt lat="44.4696097" lon="4.5941784"><ele>171.0</ele><time>2026-04-10T15:42:54.789Z</time></trkpt><trkpt lat="44.469468" lon="4.5941614"><ele>171.0</ele><time>2026-04-10T15:42:55.789Z</time></trkpt><trkpt lat="44.4693157" lon="4.5941579"><ele>171.0</ele><time>2026-04-10T15:42:56.787Z</time></trkpt><trkpt lat="44.4691582" lon="4.5941562"><ele>171.0</ele><time>2026-04-10T15:42:57.79Z</time></trkpt><trkpt lat="44.4690064" lon="4.5941394"><ele>171.0</ele><time>2026-04-10T15:42:58.788Z</time></trkpt><trkpt lat="44.4688592" lon="4.5941134"><ele>171.0</ele><time>2026-04-10T15:42:59.79Z</time></trkpt><trkpt lat="44.4687163" lon="4.5940938"><ele>171.0</ele><time>2026-04-10T15:43:00.788Z</time></trkpt><trkpt lat="44.4685791" lon="4.5940673"><ele>170.25</ele><time>2026-04-10T15:43:01.786Z</time></trkpt><trkpt lat="44.4684461" lon="4.5940391"><ele>169.5</ele><time>2026-04-10T15:43:02.787Z</time></trkpt><trkpt lat="44.4683141" lon="4.5940004"><ele>168.75</ele><time>2026-04-10T15:43:03.787Z</time></trkpt><trkpt lat="44.4681825" lon="4.5939532"><ele>168.0</ele><time>2026-04-10T15:43:04.792Z</time></trkpt><trkpt lat="44.4680502" lon="4.5939075"><ele>168.5</ele><time>2026-04-10T15:43:05.786Z</time></trkpt><trkpt lat="44.4679217" lon="4.5938601"><ele>169.0</ele><time>2026-04-10T15:43:06.788Z</time></trkpt><trkpt lat="44.4677895" lon="4.5938061"><ele>169.5</ele><time>2026-04-10T15:43:07.788Z</time></trkpt><trkpt lat="44.4676555" lon="4.5937411"><ele>170.0</ele><time>2026-04-10T15:43:08.793Z</time></trkpt><trkpt lat="44.4675255" lon="4.5936916"><ele>171.25</ele><time>2026-04-10T15:43:09.79Z</time></trkpt><trkpt lat="44.4673847" lon="4.5936369"><ele>172.5</ele><time>2026-04-10T15:43:10.794Z</time></trkpt><trkpt lat="44.4672431" lon="4.593587"><ele>173.75</ele><time>2026-04-10T15:43:11.792Z</time></trkpt><trkpt lat="44.4671073" lon="4.5935261"><ele>175.0</ele><time>2026-04-10T15:43:12.788Z</time></trkpt><trkpt lat="44.4669734" lon="4.5934442"><ele>175.0</ele><time>2026-04-10T15:43:13.787Z</time></trkpt><trkpt lat="44.4668405" lon="4.5933623"><ele>175.0</ele><time>2026-04-10T15:43:14.786Z</time></trkpt><trkpt lat="44.466713" lon="4.59328"><ele>175.0</ele><time>2026-04-10T15:43:15.796Z</time></trkpt><trkpt lat="44.4665758" lon="4.5932113"><ele>175.0</ele><time>2026-04-10T15:43:16.789Z</time></trkpt><trkpt lat="44.4664203" lon="4.5931261"><ele>173.66666666666669</ele><time>2026-04-10T15:43:17.788Z</time></trkpt><trkpt lat="44.4662778" lon="4.5930302"><ele>172.33333333333334</ele><time>2026-04-10T15:43:18.79Z</time></trkpt><trkpt lat="44.4661301" lon="4.5929416"><ele>171.0</ele><time>2026-04-10T15:43:19.789Z</time></trkpt><trkpt lat="44.4659908" lon="4.5928442"><ele>173.66666666666666</ele><time>2026-04-10T15:43:20.791Z</time></trkpt><trkpt lat="44.4658527" lon="4.5927446"><ele>176.33333333333331</ele><time>2026-04-10T15:43:21.787Z</time></trkpt><trkpt lat="44.4657056" lon="4.5926378"><ele>179.0</ele><time>2026-04-10T15:43:22.789Z</time></trkpt><trkpt lat="44.465585" lon="4.5925102"><ele>179.0</ele><time>2026-04-10T15:43:23.785Z</time></trkpt><trkpt lat="44.4654592" lon="4.5923785"><ele>179.0</ele><time>2026-04-10T15:43:24.786Z</time></trkpt><trkpt lat="44.4653318" lon="4.592275"><ele>179.0</ele><time>2026-04-10T15:43:25.792Z</time></trkpt><trkpt lat="44.4652219" lon="4.5921234"><ele>180.66666666666666</ele><time>2026-04-10T15:43:26.786Z</time></trkpt><trkpt lat="44.4651043" lon="4.5919721"><ele>182.33333333333334</ele><time>2026-04-10T15:43:27.787Z</time></trkpt><trkpt lat="44.4649808" lon="4.5918158"><ele>184.0</ele><time>2026-04-10T15:43:28.788Z</time></trkpt><trkpt lat="44.4648652" lon="4.591648"><ele>184.0</ele><time>2026-04-10T15:43:29.789Z</time></trkpt><trkpt lat="44.4647441" lon="4.5914809"><ele>184.0</ele><time>2026-04-10T15:43:30.792Z</time></trkpt><trkpt lat="44.464627" lon="4.59132"><ele>184.0</ele><time>2026-04-10T15:43:31.787Z</time></trkpt><trkpt lat="44.4645146" lon="4.5911556"><ele>182.33333333333334</ele><time>2026-04-10T15:43:32.787Z</time></trkpt><trkpt lat="44.4644057" lon="4.5909583"><ele>180.66666666666666</ele><time>2026-04-10T15:43:33.791Z</time></trkpt><trkpt lat="44.4642956" lon="4.5908007"><ele>179.0</ele><time>2026-04-10T15:43:34.787Z</time></trkpt><trkpt lat="44.4641991" lon="4.5906355"><ele>179.0</ele><time>2026-04-10T15:43:35.784Z</time></trkpt><trkpt lat="44.4641025" lon="4.590475"><ele>179.0</ele><time>2026-04-10T15:43:36.795Z</time></trkpt><trkpt lat="44.4640083" lon="4.5903172"><ele>179.0</ele><time>2026-04-10T15:43:37.788Z</time></trkpt><trkpt lat="44.4639218" lon="4.5901408"><ele>179.0</ele><time>2026-04-10T15:43:38.785Z</time></trkpt><trkpt lat="44.4638385" lon="4.5899572"><ele>178.66666666666666</ele><time>2026-04-10T15:43:39.787Z</time></trkpt><trkpt lat="44.4637559" lon="4.5897667"><ele>178.33333333333334</ele><time>2026-04-10T15:43:40.788Z</time></trkpt><trkpt lat="44.4636664" lon="4.5895617"><ele>178.0</ele><time>2026-04-10T15:43:41.784Z</time></trkpt><trkpt lat="44.4635807" lon="4.5893724"><ele>178.0</ele><time>2026-04-10T15:43:42.791Z</time></trkpt><trkpt lat="44.4635064" lon="4.5891848"><ele>178.0</ele><time>2026-04-10T15:43:43.792Z</time></trkpt><trkpt lat="44.4634414" lon="4.5890119"><ele>178.0</ele><time>2026-04-10T15:43:44.787Z</time></trkpt><trkpt lat="44.4633887" lon="4.5888159"><ele>178.0</ele><time>2026-04-10T15:43:45.791Z</time></trkpt><trkpt lat="44.4633577" lon="4.5886301"><ele>178.33333333333334</ele><time>2026-04-10T15:43:46.79Z</time></trkpt><trkpt lat="44.463322" lon="4.5884397"><ele>178.66666666666666</ele><time>2026-04-10T15:43:47.787Z</time></trkpt><trkpt lat="44.4633336" lon="4.5882236"><ele>179.0</ele><time>2026-04-10T15:43:48.798Z</time></trkpt><trkpt lat="44.4633286" lon="4.5880031"><ele>179.33333333333331</ele><time>2026-04-10T15:43:49.793Z</time></trkpt><trkpt lat="44.4633262" lon="4.5877696"><ele>179.66666666666666</ele><time>2026-04-10T15:43:50.793Z</time></trkpt><trkpt lat="44.4633183" lon="4.587528"><ele>180.0</ele><time>2026-04-10T15:43:51.788Z</time></trkpt><trkpt lat="44.4633153" lon="4.5872777"><ele>180.0</ele><time>2026-04-10T15:43:52.788Z</time></trkpt><trkpt lat="44.4633086" lon="4.587024"><ele>180.0</ele><time>2026-04-10T15:43:53.788Z</time></trkpt><trkpt lat="44.4633077" lon="4.5867654"><ele>180.0</ele><time>2026-04-10T15:43:54.787Z</time></trkpt><trkpt lat="44.4633019" lon="4.5865064"><ele>180.0</ele><time>2026-04-10T15:43:55.791Z</time></trkpt><trkpt lat="44.463293" lon="4.5862477"><ele>180.0</ele><time>2026-04-10T15:43:56.786Z</time></trkpt><trkpt lat="44.4632902" lon="4.5860104"><ele>180.0</ele><time>2026-04-10T15:43:57.788Z</time></trkpt><trkpt lat="44.463287" lon="4.5857788"><ele>180.0</ele><time>2026-04-10T15:43:58.791Z</time></trkpt><trkpt lat="44.4632847" lon="4.5855457"><ele>180.0</ele><time>2026-04-10T15:43:59.79Z</time></trkpt><trkpt lat="44.4632933" lon="4.585317"><ele>180.0</ele><time>2026-04-10T15:44:00.792Z</time></trkpt><trkpt lat="44.4633164" lon="4.5850958"><ele>180.66666666666666</ele><time>2026-04-10T15:44:01.788Z</time></trkpt><trkpt lat="44.4633502" lon="4.584875"><ele>181.33333333333331</ele><time>2026-04-10T15:44:02.786Z</time></trkpt><trkpt lat="44.4633885" lon="4.58466"><ele>182.0</ele><time>2026-04-10T15:44:03.79Z</time></trkpt><trkpt lat="44.4634309" lon="4.5844352"><ele>182.0</ele><time>2026-04-10T15:44:04.787Z</time></trkpt><trkpt lat="44.4635156" lon="4.5842339"><ele>182.0</ele><time>2026-04-10T15:44:05.785Z</time></trkpt><trkpt lat="44.463611" lon="4.584035"><ele>182.0</ele><time>2026-04-10T15:44:06.79Z</time></trkpt><trkpt lat="44.4637013" lon="4.5838402"><ele>185.0</ele><time>2026-04-10T15:44:07.79Z</time></trkpt><trkpt lat="44.4637919" lon="4.5836466"><ele>188.0</ele><time>2026-04-10T15:44:08.787Z</time></trkpt><trkpt lat="44.4638856" lon="4.5834543"><ele>191.0</ele><time>2026-04-10T15:44:09.788Z</time></trkpt><trkpt lat="44.4639859" lon="4.5832607"><ele>191.0</ele><time>2026-04-10T15:44:10.789Z</time></trkpt><trkpt lat="44.4640805" lon="4.58307"><ele>191.0</ele><time>2026-04-10T15:44:11.786Z</time></trkpt><trkpt lat="44.4641714" lon="4.5828836"><ele>191.0</ele><time>2026-04-10T15:44:12.787Z</time></trkpt><trkpt lat="44.4642555" lon="4.5827146"><ele>190.75</ele><time>2026-04-10T15:44:13.787Z</time></trkpt><trkpt lat="44.464328" lon="4.5825547"><ele>190.5</ele><time>2026-04-10T15:44:14.786Z</time></trkpt><trkpt lat="44.4643908" lon="4.5823931"><ele>190.25</ele><time>2026-04-10T15:44:15.792Z</time></trkpt><trkpt lat="44.4644392" lon="4.5822329"><ele>190.0</ele><time>2026-04-10T15:44:16.789Z</time></trkpt><trkpt lat="44.4644914" lon="4.5820757"><ele>189.25</ele><time>2026-04-10T15:44:17.787Z</time></trkpt><trkpt lat="44.4644793" lon="4.5819158"><ele>188.5</ele><time>2026-04-10T15:44:18.784Z</time></trkpt><trkpt lat="44.4644685" lon="4.5817557"><ele>187.75</ele><time>2026-04-10T15:44:19.786Z</time></trkpt><trkpt lat="44.4644526" lon="4.5815858"><ele>187.0</ele><time>2026-04-10T15:44:20.786Z</time></trkpt><trkpt lat="44.4643671" lon="4.5814095"><ele>187.0</ele><time>2026-04-10T15:44:21.788Z</time></trkpt><trkpt lat="44.4642912" lon="4.5812359"><ele>187.0</ele><time>2026-04-10T15:44:22.791Z</time></trkpt><trkpt lat="44.4642161" lon="4.581056"><ele>187.0</ele><time>2026-04-10T15:44:23.786Z</time></trkpt><trkpt lat="44.4641224" lon="4.5808922"><ele>187.0</ele><time>2026-04-10T15:44:24.784Z</time></trkpt><trkpt lat="44.4640269" lon="4.5807183"><ele>189.0</ele><time>2026-04-10T15:44:25.785Z</time></trkpt><trkpt lat="44.4639244" lon="4.5805575"><ele>191.0</ele><time>2026-04-10T15:44:26.787Z</time></trkpt><trkpt lat="44.463808" lon="4.5804081"><ele>193.0</ele><time>2026-04-10T15:44:27.785Z</time></trkpt><trkpt lat="44.4636836" lon="4.5802552"><ele>193.0</ele><time>2026-04-10T15:44:28.787Z</time></trkpt><trkpt lat="44.4635682" lon="4.5801111"><ele>193.0</ele><time>2026-04-10T15:44:29.785Z</time></trkpt><trkpt lat="44.4634479" lon="4.5799711"><ele>193.0</ele><time>2026-04-10T15:44:30.788Z</time></trkpt><trkpt lat="44.4633262" lon="4.5798351"><ele>193.0</ele><time>2026-04-10T15:44:31.788Z</time></trkpt><trkpt lat="44.4632169" lon="4.5797041"><ele>193.0</ele><time>2026-04-10T15:44:32.787Z</time></trkpt><trkpt lat="44.4630919" lon="4.5795945"><ele>193.0</ele><time>2026-04-10T15:44:33.782Z</time></trkpt><trkpt lat="44.4629826" lon="4.5794734"><ele>193.0</ele><time>2026-04-10T15:44:34.787Z</time></trkpt><trkpt lat="44.4628457" lon="4.5793682"><ele>192.0</ele><time>2026-04-10T15:44:35.787Z</time></trkpt><trkpt lat="44.4627545" lon="4.5792229"><ele>191.0</ele><time>2026-04-10T15:44:36.79Z</time></trkpt><trkpt lat="44.4626603" lon="4.5790545"><ele>190.0</ele><time>2026-04-10T15:44:37.789Z</time></trkpt><trkpt lat="44.4625646" lon="4.578874"><ele>190.0</ele><time>2026-04-10T15:44:38.784Z</time></trkpt><trkpt lat="44.4624716" lon="4.5786861"><ele>190.0</ele><time>2026-04-10T15:44:39.785Z</time></trkpt><trkpt lat="44.462381" lon="4.5784981"><ele>190.0</ele><time>2026-04-10T15:44:40.787Z</time></trkpt><trkpt lat="44.4622863" lon="4.5783022"><ele>190.33333333333334</ele><time>2026-04-10T15:44:41.785Z</time></trkpt><trkpt lat="44.4621887" lon="4.5781013"><ele>190.66666666666666</ele><time>2026-04-10T15:44:42.786Z</time></trkpt><trkpt lat="44.4620961" lon="4.5779033"><ele>191.0</ele><time>2026-04-10T15:44:43.787Z</time></trkpt><trkpt lat="44.461997" lon="4.5777176"><ele>192.0</ele><time>2026-04-10T15:44:44.787Z</time></trkpt><trkpt lat="44.4618951" lon="4.5775518"><ele>193.0</ele><time>2026-04-10T15:44:45.787Z</time></trkpt><trkpt lat="44.4617945" lon="4.5773829"><ele>194.0</ele><time>2026-04-10T15:44:46.789Z</time></trkpt><trkpt lat="44.461702" lon="4.5772222"><ele>194.0</ele><time>2026-04-10T15:44:47.785Z</time></trkpt><trkpt lat="44.4616154" lon="4.5770618"><ele>194.0</ele><time>2026-04-10T15:44:48.786Z</time></trkpt><trkpt lat="44.4615872" lon="4.5768746"><ele>194.0</ele><time>2026-04-10T15:44:49.785Z</time></trkpt><trkpt lat="44.4615474" lon="4.5766908"><ele>194.0</ele><time>2026-04-10T15:44:50.786Z</time></trkpt><trkpt lat="44.4615004" lon="4.576522"><ele>194.5</ele><time>2026-04-10T15:44:51.788Z</time></trkpt><trkpt lat="44.4614543" lon="4.5763673"><ele>195.0</ele><time>2026-04-10T15:44:52.786Z</time></trkpt><trkpt lat="44.4614063" lon="4.5762144"><ele>195.5</ele><time>2026-04-10T15:44:53.799Z</time></trkpt><trkpt lat="44.4613542" lon="4.576043"><ele>196.0</ele><time>2026-04-10T15:44:54.803Z</time></trkpt><trkpt lat="44.4612786" lon="4.5758861"><ele>196.0</ele><time>2026-04-10T15:44:55.793Z</time></trkpt><trkpt lat="44.461159" lon="4.5757648"><ele>196.0</ele><time>2026-04-10T15:44:56.795Z</time></trkpt><trkpt lat="44.4610682" lon="4.5756212"><ele>196.0</ele><time>2026-04-10T15:44:57.794Z</time></trkpt><trkpt lat="44.4609791" lon="4.5754715"><ele>196.0</ele><time>2026-04-10T15:44:58.789Z</time></trkpt><trkpt lat="44.4608839" lon="4.5753088"><ele>199.66666666666666</ele><time>2026-04-10T15:44:59.789Z</time></trkpt><trkpt lat="44.4607918" lon="4.5751565"><ele>203.33333333333331</ele><time>2026-04-10T15:45:00.786Z</time></trkpt><trkpt lat="44.4606997" lon="4.5749881"><ele>207.0</ele><time>2026-04-10T15:45:01.79Z</time></trkpt><trkpt lat="44.4606025" lon="4.5748145"><ele>207.0</ele><time>2026-04-10T15:45:02.786Z</time></trkpt><trkpt lat="44.4605185" lon="4.5746228"><ele>207.0</ele><time>2026-04-10T15:45:03.785Z</time></trkpt><trkpt lat="44.4604355" lon="4.5744319"><ele>207.0</ele><time>2026-04-10T15:45:04.789Z</time></trkpt><trkpt lat="44.460345" lon="4.5742396"><ele>207.5</ele><time>2026-04-10T15:45:05.788Z</time></trkpt><trkpt lat="44.4602631" lon="4.5740573"><ele>208.0</ele><time>2026-04-10T15:45:06.789Z</time></trkpt><trkpt lat="44.460184" lon="4.5738834"><ele>208.5</ele><time>2026-04-10T15:45:07.785Z</time></trkpt><trkpt lat="44.4601057" lon="4.5737116"><ele>209.0</ele><time>2026-04-10T15:45:08.793Z</time></trkpt><trkpt lat="44.4600608" lon="4.5735617"><ele>209.0</ele><time>2026-04-10T15:45:09.787Z</time></trkpt><trkpt lat="44.4600252" lon="4.5733955"><ele>209.0</ele><time>2026-04-10T15:45:10.788Z</time></trkpt><trkpt lat="44.4599865" lon="4.5732291"><ele>209.0</ele><time>2026-04-10T15:45:11.788Z</time></trkpt><trkpt lat="44.4599641" lon="4.5730516"><ele>209.0</ele><time>2026-04-10T15:45:12.791Z</time></trkpt><trkpt lat="44.4599415" lon="4.5728735"><ele>210.5</ele><time>2026-04-10T15:45:13.787Z</time></trkpt><trkpt lat="44.4599487" lon="4.5726695"><ele>212.0</ele><time>2026-04-10T15:45:14.788Z</time></trkpt><trkpt lat="44.459948" lon="4.5724706"><ele>213.5</ele><time>2026-04-10T15:45:15.785Z</time></trkpt><trkpt lat="44.4599511" lon="4.5722524"><ele>215.0</ele><time>2026-04-10T15:45:16.788Z</time></trkpt><trkpt lat="44.4599654" lon="4.5720285"><ele>213.33333333333334</ele><time>2026-04-10T15:45:17.783Z</time></trkpt><trkpt lat="44.4600041" lon="4.5718116"><ele>211.66666666666669</ele><time>2026-04-10T15:45:18.787Z</time></trkpt><trkpt lat="44.4600311" lon="4.5715885"><ele>210.0</ele><time>2026-04-10T15:45:19.783Z</time></trkpt><trkpt lat="44.4600629" lon="4.5713622"><ele>210.0</ele><time>2026-04-10T15:45:20.786Z</time></trkpt><trkpt lat="44.4600873" lon="4.5711294"><ele>210.0</ele><time>2026-04-10T15:45:21.79Z</time></trkpt><trkpt lat="44.4601189" lon="4.5709013"><ele>210.0</ele><time>2026-04-10T15:45:22.785Z</time></trkpt><trkpt lat="44.4601564" lon="4.5706738"><ele>210.0</ele><time>2026-04-10T15:45:23.791Z</time></trkpt><trkpt lat="44.4601875" lon="4.5704446"><ele>210.0</ele><time>2026-04-10T15:45:24.785Z</time></trkpt><trkpt lat="44.4602202" lon="4.5702224"><ele>210.0</ele><time>2026-04-10T15:45:25.789Z</time></trkpt><trkpt lat="44.4602397" lon="4.5699996"><ele>210.0</ele><time>2026-04-10T15:45:26.784Z</time></trkpt><trkpt lat="44.4602652" lon="4.5697791"><ele>210.0</ele><time>2026-04-10T15:45:27.788Z</time></trkpt><trkpt lat="44.4602972" lon="4.5695679"><ele>210.0</ele><time>2026-04-10T15:45:28.788Z</time></trkpt><trkpt lat="44.4603211" lon="4.5693629"><ele>209.2</ele><time>2026-04-10T15:45:29.786Z</time></trkpt><trkpt lat="44.4603478" lon="4.5691748"><ele>208.4</ele><time>2026-04-10T15:45:30.792Z</time></trkpt><trkpt lat="44.4603708" lon="4.5690024"><ele>207.60000000000002</ele><time>2026-04-10T15:45:31.797Z</time></trkpt><trkpt lat="44.4603906" lon="4.5688686"><ele>206.8</ele><time>2026-04-10T15:45:32.788Z</time></trkpt><trkpt lat="44.4604126" lon="4.5687506"><ele>206.0</ele><time>2026-04-10T15:45:33.786Z</time></trkpt><trkpt lat="44.4604404" lon="4.5686408"><ele>208.16666666666669</ele><time>2026-04-10T15:45:34.786Z</time></trkpt><trkpt lat="44.4604726" lon="4.5685535"><ele>210.33333333333334</ele><time>2026-04-10T15:45:35.786Z</time></trkpt><trkpt lat="44.4605183" lon="4.5684051"><ele>212.5</ele><time>2026-04-10T15:45:37.785Z</time></trkpt><trkpt lat="44.4605511" lon="4.5682693"><ele>214.66666666666669</ele><time>2026-04-10T15:45:39.784Z</time></trkpt><trkpt lat="44.4605468" lon="4.5681652"><ele>216.83333333333334</ele><time>2026-04-10T15:45:40.788Z</time></trkpt><trkpt lat="44.4605593" lon="4.5680542"><ele>219.0</ele><time>2026-04-10T15:45:41.788Z</time></trkpt><trkpt lat="44.4605856" lon="4.5679379"><ele>220.2</ele><time>2026-04-10T15:45:42.79Z</time></trkpt><trkpt lat="44.4606094" lon="4.567804"><ele>221.39999999999998</ele><time>2026-04-10T15:45:43.792Z</time></trkpt><trkpt lat="44.4606335" lon="4.5676546"><ele>222.6</ele><time>2026-04-10T15:45:44.786Z</time></trkpt><trkpt lat="44.4606754" lon="4.5675061"><ele>223.8</ele><time>2026-04-10T15:45:45.787Z</time></trkpt><trkpt lat="44.4607264" lon="4.5673589"><ele>225.0</ele><time>2026-04-10T15:45:46.785Z</time></trkpt><trkpt lat="44.4607688" lon="4.5672262"><ele>225.0</ele><time>2026-04-10T15:45:47.785Z</time></trkpt><trkpt lat="44.4607938" lon="4.5670953"><ele>225.0</ele><time>2026-04-10T15:45:48.785Z</time></trkpt><trkpt lat="44.4608159" lon="4.5669502"><ele>225.0</ele><time>2026-04-10T15:45:49.789Z</time></trkpt><trkpt lat="44.460853" lon="4.5667572"><ele>225.0</ele><time>2026-04-10T15:45:50.787Z</time></trkpt><trkpt lat="44.4608946" lon="4.5665753"><ele>224.6</ele><time>2026-04-10T15:45:51.786Z</time></trkpt><trkpt lat="44.4609181" lon="4.5664251"><ele>224.2</ele><time>2026-04-10T15:45:52.788Z</time></trkpt><trkpt lat="44.4609292" lon="4.5662925"><ele>223.8</ele><time>2026-04-10T15:45:53.787Z</time></trkpt><trkpt lat="44.4609233" lon="4.5661436"><ele>223.4</ele><time>2026-04-10T15:45:54.789Z</time></trkpt><trkpt lat="44.4609143" lon="4.5659747"><ele>223.0</ele><time>2026-04-10T15:45:55.786Z</time></trkpt><trkpt lat="44.4609031" lon="4.5658097"><ele>222.99999999999997</ele><time>2026-04-10T15:45:56.787Z</time></trkpt><trkpt lat="44.4609044" lon="4.5656697"><ele>223.0</ele><time>2026-04-10T15:45:57.785Z</time></trkpt><trkpt lat="44.4609099" lon="4.5655582"><ele>223.0</ele><time>2026-04-10T15:45:58.786Z</time></trkpt><trkpt lat="44.4609182" lon="4.5654429"><ele>223.0</ele><time>2026-04-10T15:45:59.785Z</time></trkpt><trkpt lat="44.4609721" lon="4.565345"><ele>222.99999999999997</ele><time>2026-04-10T15:46:00.789Z</time></trkpt><trkpt lat="44.4610174" lon="4.5652317"><ele>223.0</ele><time>2026-04-10T15:46:01.79Z</time></trkpt><trkpt lat="44.4610785" lon="4.565155"><ele>222.4</ele><time>2026-04-10T15:46:02.792Z</time></trkpt><trkpt lat="44.4611429" lon="4.5650885"><ele>221.8</ele><time>2026-04-10T15:46:03.79Z</time></trkpt><trkpt lat="44.4612081" lon="4.565043"><ele>221.2</ele><time>2026-04-10T15:46:04.79Z</time></trkpt><trkpt lat="44.4612767" lon="4.5649188"><ele>220.6</ele><time>2026-04-10T15:46:06.786Z</time></trkpt><trkpt lat="44.4611846" lon="4.5648331"><ele>220.0</ele><time>2026-04-10T15:46:08.788Z</time></trkpt><trkpt lat="44.4610648" lon="4.564821"><ele>219.99999999999997</ele><time>2026-04-10T15:46:10.79Z</time></trkpt><trkpt lat="44.4609866" lon="4.5648086"><ele>220.0</ele><time>2026-04-10T15:46:11.786Z</time></trkpt><trkpt lat="44.4608997" lon="4.564805"><ele>220.0</ele><time>2026-04-10T15:46:12.786Z</time></trkpt><trkpt lat="44.4608158" lon="4.5647826"><ele>220.0</ele><time>2026-04-10T15:46:13.787Z</time></trkpt><trkpt lat="44.4607435" lon="4.5647413"><ele>219.99999999999997</ele><time>2026-04-10T15:46:14.786Z</time></trkpt><trkpt lat="44.4606765" lon="4.5646815"><ele>220.0</ele><time>2026-04-10T15:46:15.784Z</time></trkpt><trkpt lat="44.460621" lon="4.5646246"><ele>218.99999999999997</ele><time>2026-04-10T15:46:16.787Z</time></trkpt><trkpt lat="44.4605867" lon="4.5645275"><ele>218.0</ele><time>2026-04-10T15:46:17.789Z</time></trkpt><trkpt lat="44.4605291" lon="4.5644446"><ele>217.0</ele><time>2026-04-10T15:46:18.786Z</time></trkpt><trkpt lat="44.4604907" lon="4.5643395"><ele>216.0</ele><time>2026-04-10T15:46:19.786Z</time></trkpt><trkpt lat="44.4604696" lon="4.5642088"><ele>214.99999999999997</ele><time>2026-04-10T15:46:20.787Z</time></trkpt><trkpt lat="44.4604611" lon="4.5640627"><ele>214.0</ele><time>2026-04-10T15:46:21.79Z</time></trkpt><trkpt lat="44.4604488" lon="4.5639094"><ele>214.0</ele><time>2026-04-10T15:46:22.792Z</time></trkpt><trkpt lat="44.4604225" lon="4.5637674"><ele>213.99999999999997</ele><time>2026-04-10T15:46:23.792Z</time></trkpt><trkpt lat="44.4603775" lon="4.5636281"><ele>213.99999999999997</ele><time>2026-04-10T15:46:24.789Z</time></trkpt><trkpt lat="44.4603273" lon="4.5635042"><ele>214.0</ele><time>2026-04-10T15:46:25.786Z</time></trkpt><trkpt lat="44.4602867" lon="4.5633813"><ele>214.0</ele><time>2026-04-10T15:46:26.785Z</time></trkpt><trkpt lat="44.4602662" lon="4.5632427"><ele>214.79999999999998</ele><time>2026-04-10T15:46:27.793Z</time></trkpt><trkpt lat="44.4602562" lon="4.5631051"><ele>215.59999999999997</ele><time>2026-04-10T15:46:28.792Z</time></trkpt><trkpt lat="44.4602578" lon="4.5629799"><ele>216.4</ele><time>2026-04-10T15:46:29.79Z</time></trkpt><trkpt lat="44.4602694" lon="4.562862"><ele>217.2</ele><time>2026-04-10T15:46:30.792Z</time></trkpt><trkpt lat="44.460297" lon="4.5627397"><ele>218.0</ele><time>2026-04-10T15:46:31.79Z</time></trkpt><trkpt lat="44.4603167" lon="4.5625988"><ele>218.50000000000003</ele><time>2026-04-10T15:46:32.787Z</time></trkpt><trkpt lat="44.4603355" lon="4.5624728"><ele>219.0</ele><time>2026-04-10T15:46:33.787Z</time></trkpt><trkpt lat="44.4603421" lon="4.5623536"><ele>219.5</ele><time>2026-04-10T15:46:34.789Z</time></trkpt><trkpt lat="44.4603344" lon="4.5622351"><ele>220.0</ele><time>2026-04-10T15:46:35.788Z</time></trkpt><trkpt lat="44.4603275" lon="4.5621093"><ele>220.50000000000003</ele><time>2026-04-10T15:46:36.788Z</time></trkpt><trkpt lat="44.460309" lon="4.5619838"><ele>221.0</ele><time>2026-04-10T15:46:37.79Z</time></trkpt><trkpt lat="44.4602793" lon="4.5618735"><ele>221.33333333333334</ele><time>2026-04-10T15:46:38.792Z</time></trkpt><trkpt lat="44.4602645" lon="4.5617615"><ele>221.66666666666669</ele><time>2026-04-10T15:46:39.79Z</time></trkpt><trkpt lat="44.4602468" lon="4.5616748"><ele>222.0</ele><time>2026-04-10T15:46:40.793Z</time></trkpt><trkpt lat="44.4602297" lon="4.5615386"><ele>222.33333333333331</ele><time>2026-04-10T15:46:42.789Z</time></trkpt><trkpt lat="44.4602" lon="4.5614492"><ele>222.66666666666666</ele><time>2026-04-10T15:46:45.788Z</time></trkpt><trkpt lat="44.4602369" lon="4.5613453"><ele>223.0</ele><time>2026-04-10T15:46:58.784Z</time></trkpt><trkpt lat="44.4602585" lon="4.5612295"><ele>223.0</ele><time>2026-04-10T15:47:00.791Z</time></trkpt><trkpt lat="44.4602668" lon="4.5611246"><ele>223.0</ele><time>2026-04-10T15:47:02.785Z</time></trkpt><trkpt lat="44.4602786" lon="4.561017"><ele>223.0</ele><time>2026-04-10T15:47:05.785Z</time></trkpt><trkpt lat="44.4602234" lon="4.5609516"><ele>223.0</ele><time>2026-04-10T15:47:12.79Z</time></trkpt><trkpt lat="44.4601564" lon="4.560958"><ele>223.0</ele><time>2026-04-10T15:47:15.783Z</time></trkpt><trkpt lat="44.46013" lon="4.5608558"><ele>223.0</ele><time>2026-04-10T15:47:19.8Z</time></trkpt><trkpt lat="44.4601723" lon="4.5607772"><ele>223.0</ele><time>2026-04-10T15:47:21.791Z</time></trkpt><trkpt lat="44.4602171" lon="4.5607074"><ele>222.99999999999997</ele><time>2026-04-10T15:47:23.786Z</time></trkpt><trkpt lat="44.460217" lon="4.5606052"><ele>223.0</ele><time>2026-04-10T15:47:26.789Z</time></trkpt><trkpt lat="44.4601651" lon="4.5605045"><ele>223.0</ele><time>2026-04-10T15:47:28.788Z</time></trkpt><trkpt lat="44.4601152" lon="4.5604214"><ele>223.0</ele><time>2026-04-10T15:47:29.785Z</time></trkpt><trkpt lat="44.4601029" lon="4.560331"><ele>222.99999999999997</ele><time>2026-04-10T15:47:30.789Z</time></trkpt><trkpt lat="44.4600984" lon="4.5602279"><ele>223.0</ele><time>2026-04-10T15:47:31.786Z</time></trkpt><trkpt lat="44.4600824" lon="4.5600932"><ele>223.2</ele><time>2026-04-10T15:47:32.792Z</time></trkpt><trkpt lat="44.4600872" lon="4.5599632"><ele>223.4</ele><time>2026-04-10T15:47:33.793Z</time></trkpt><trkpt lat="44.460089" lon="4.559829"><ele>223.59999999999997</ele><time>2026-04-10T15:47:34.788Z</time></trkpt><trkpt lat="44.4600876" lon="4.5596914"><ele>223.79999999999998</ele><time>2026-04-10T15:47:35.787Z</time></trkpt><trkpt lat="44.4600906" lon="4.5595581"><ele>224.0</ele><time>2026-04-10T15:47:36.786Z</time></trkpt><trkpt lat="44.4601151" lon="4.5594459"><ele>224.00000000000003</ele><time>2026-04-10T15:47:37.787Z</time></trkpt><trkpt lat="44.4601511" lon="4.5593585"><ele>224.0</ele><time>2026-04-10T15:47:38.786Z</time></trkpt><trkpt lat="44.4601767" lon="4.5592771"><ele>224.0</ele><time>2026-04-10T15:47:39.788Z</time></trkpt><trkpt lat="44.4602003" lon="4.5591948"><ele>224.0</ele><time>2026-04-10T15:47:40.783Z</time></trkpt><trkpt lat="44.4601966" lon="4.5590158"><ele>224.00000000000003</ele><time>2026-04-10T15:47:42.793Z</time></trkpt><trkpt lat="44.4601819" lon="4.5589205"><ele>224.0</ele><time>2026-04-10T15:47:43.788Z</time></trkpt><trkpt lat="44.4601698" lon="4.5588151"><ele>224.0</ele><time>2026-04-10T15:47:44.792Z</time></trkpt><trkpt lat="44.4601649" lon="4.5587031"><ele>223.99999999999997</ele><time>2026-04-10T15:47:45.789Z</time></trkpt><trkpt lat="44.460168" lon="4.5585744"><ele>223.99999999999997</ele><time>2026-04-10T15:47:46.792Z</time></trkpt><trkpt lat="44.4601638" lon="4.5584168"><ele>224.0</ele><time>2026-04-10T15:47:47.786Z</time></trkpt><trkpt lat="44.4601704" lon="4.5582543"><ele>224.0</ele><time>2026-04-10T15:47:48.786Z</time></trkpt><trkpt lat="44.4601567" lon="4.5581324"><ele>224.79999999999998</ele><time>2026-04-10T15:47:49.783Z</time></trkpt><trkpt lat="44.4601444" lon="4.5580068"><ele>225.59999999999997</ele><time>2026-04-10T15:47:50.788Z</time></trkpt><trkpt lat="44.4601565" lon="4.5578562"><ele>226.4</ele><time>2026-04-10T15:47:51.789Z</time></trkpt><trkpt lat="44.4601544" lon="4.5577027"><ele>227.2</ele><time>2026-04-10T15:47:52.789Z</time></trkpt><trkpt lat="44.4601563" lon="4.5575443"><ele>228.0</ele><time>2026-04-10T15:47:53.785Z</time></trkpt><trkpt lat="44.4601642" lon="4.5573917"><ele>229.2</ele><time>2026-04-10T15:47:54.79Z</time></trkpt><trkpt lat="44.4601482" lon="4.55724"><ele>230.4</ele><time>2026-04-10T15:47:55.787Z</time></trkpt><trkpt lat="44.46012" lon="4.5570903"><ele>231.59999999999997</ele><time>2026-04-10T15:47:56.785Z</time></trkpt><trkpt lat="44.4601067" lon="4.5569448"><ele>232.79999999999998</ele><time>2026-04-10T15:47:57.788Z</time></trkpt><trkpt lat="44.4600961" lon="4.5568071"><ele>234.0</ele><time>2026-04-10T15:47:58.784Z</time></trkpt><trkpt lat="44.4600979" lon="4.5566633"><ele>234.0</ele><time>2026-04-10T15:47:59.785Z</time></trkpt><trkpt lat="44.4600956" lon="4.5565032"><ele>233.99999999999997</ele><time>2026-04-10T15:48:00.792Z</time></trkpt><trkpt lat="44.4600953" lon="4.5563457"><ele>233.99999999999997</ele><time>2026-04-10T15:48:01.785Z</time></trkpt><trkpt lat="44.4600952" lon="4.5562075"><ele>234.0</ele><time>2026-04-10T15:48:02.788Z</time></trkpt><trkpt lat="44.4601271" lon="4.5560457"><ele>234.0</ele><time>2026-04-10T15:48:03.787Z</time></trkpt><trkpt lat="44.4601583" lon="4.5559019"><ele>234.0</ele><time>2026-04-10T15:48:04.787Z</time></trkpt><trkpt lat="44.4601968" lon="4.5557834"><ele>234.0</ele><time>2026-04-10T15:48:05.788Z</time></trkpt><trkpt lat="44.4602183" lon="4.5556843"><ele>234.0</ele><time>2026-04-10T15:48:06.791Z</time></trkpt><trkpt lat="44.4602573" lon="4.5555689"><ele>234.0</ele><time>2026-04-10T15:48:08.787Z</time></trkpt><trkpt lat="44.4602859" lon="4.5554765"><ele>234.0</ele><time>2026-04-10T15:48:11.788Z</time></trkpt><trkpt lat="44.4602747" lon="4.5553743"><ele>234.0</ele><time>2026-04-10T15:48:33.784Z</time></trkpt><trkpt lat="44.4602084" lon="4.555317"><ele>233.85714285714286</ele><time>2026-04-10T15:49:06.784Z</time></trkpt><trkpt lat="44.4601921" lon="4.5552303"><ele>233.71428571428572</ele><time>2026-04-10T15:49:08.791Z</time></trkpt><trkpt lat="44.4601696" lon="4.5551299"><ele>233.57142857142858</ele><time>2026-04-10T15:49:10.782Z</time></trkpt><trkpt lat="44.4601357" lon="4.5550331"><ele>233.42857142857144</ele><time>2026-04-10T15:49:12.783Z</time></trkpt><trkpt lat="44.4600773" lon="4.5549616"><ele>233.28571428571428</ele><time>2026-04-10T15:49:15.783Z</time></trkpt><trkpt lat="44.46001" lon="4.5549518"><ele>233.14285714285717</ele><time>2026-04-10T15:50:10.793Z</time></trkpt><trkpt lat="44.4599597" lon="4.5548627"><ele>233.0</ele><time>2026-04-10T15:50:12.79Z</time></trkpt><trkpt lat="44.4598461" lon="4.554788"><ele>233.00000000000003</ele><time>2026-04-10T15:50:14.786Z</time></trkpt><trkpt lat="44.4597709" lon="4.5547992"><ele>233.0</ele><time>2026-04-10T15:50:15.799Z</time></trkpt><trkpt lat="44.4597054" lon="4.554822"><ele>233.0</ele><time>2026-04-10T15:50:16.792Z</time></trkpt><trkpt lat="44.4596139" lon="4.5547479"><ele>233.0</ele><time>2026-04-10T15:50:18.786Z</time></trkpt><trkpt lat="44.4595623" lon="4.5546964"><ele>233.00000000000003</ele><time>2026-04-10T15:50:19.786Z</time></trkpt><trkpt lat="44.4595332" lon="4.5545686"><ele>233.0</ele><time>2026-04-10T15:50:20.786Z</time></trkpt><trkpt lat="44.4594762" lon="4.5544655"><ele>236.0</ele><time>2026-04-10T15:50:21.784Z</time></trkpt><trkpt lat="44.4594038" lon="4.5543394"><ele>239.0</ele><time>2026-04-10T15:50:22.784Z</time></trkpt><trkpt lat="44.4593417" lon="4.5542086"><ele>242.0</ele><time>2026-04-10T15:50:23.785Z</time></trkpt><trkpt lat="44.4592908" lon="4.5541052"><ele>245.0</ele><time>2026-04-10T15:50:24.788Z</time></trkpt><trkpt lat="44.4592272" lon="4.5540293"><ele>248.0</ele><time>2026-04-10T15:50:25.782Z</time></trkpt><trkpt lat="44.4591587" lon="4.5539514"><ele>248.0</ele><time>2026-04-10T15:50:26.787Z</time></trkpt><trkpt lat="44.4590818" lon="4.5538744"><ele>248.0</ele><time>2026-04-10T15:50:27.791Z</time></trkpt><trkpt lat="44.4590012" lon="4.5538098"><ele>248.0</ele><time>2026-04-10T15:50:28.785Z</time></trkpt><trkpt lat="44.4589131" lon="4.5537384"><ele>248.0</ele><time>2026-04-10T15:50:29.797Z</time></trkpt><trkpt lat="44.4588051" lon="4.5536743"><ele>248.0</ele><time>2026-04-10T15:50:30.786Z</time></trkpt><trkpt lat="44.4586827" lon="4.5536012"><ele>248.0</ele><time>2026-04-10T15:50:31.782Z</time></trkpt><trkpt lat="44.4585506" lon="4.5534975"><ele>248.0</ele><time>2026-04-10T15:50:32.785Z</time></trkpt><trkpt lat="44.4584281" lon="4.5533852"><ele>248.0</ele><time>2026-04-10T15:50:33.785Z</time></trkpt><trkpt lat="44.4583049" lon="4.5532733"><ele>248.0</ele><time>2026-04-10T15:50:34.784Z</time></trkpt><trkpt lat="44.4581908" lon="4.5531711"><ele>248.0</ele><time>2026-04-10T15:50:35.793Z</time></trkpt><trkpt lat="44.4580652" lon="4.5530629"><ele>248.0</ele><time>2026-04-10T15:50:36.798Z</time></trkpt><trkpt lat="44.4579521" lon="4.552957"><ele>248.0</ele><time>2026-04-10T15:50:37.795Z</time></trkpt><trkpt lat="44.4578627" lon="4.5528552"><ele>248.0</ele><time>2026-04-10T15:50:38.785Z</time></trkpt><trkpt lat="44.4577507" lon="4.5527295"><ele>250.25</ele><time>2026-04-10T15:50:39.788Z</time></trkpt><trkpt lat="44.4576304" lon="4.5525919"><ele>252.5</ele><time>2026-04-10T15:50:40.785Z</time></trkpt><trkpt lat="44.4575267" lon="4.5524562"><ele>254.75</ele><time>2026-04-10T15:50:41.794Z</time></trkpt><trkpt lat="44.4574209" lon="4.5523102"><ele>257.0</ele><time>2026-04-10T15:50:42.797Z</time></trkpt><trkpt lat="44.4573031" lon="4.5521722"><ele>257.0</ele><time>2026-04-10T15:50:43.796Z</time></trkpt><trkpt lat="44.4571768" lon="4.5520434"><ele>257.0</ele><time>2026-04-10T15:50:44.792Z</time></trkpt><trkpt lat="44.457054" lon="4.5519018"><ele>257.0</ele><time>2026-04-10T15:50:45.789Z</time></trkpt><trkpt lat="44.4569321" lon="4.5517543"><ele>257.75</ele><time>2026-04-10T15:50:46.792Z</time></trkpt><trkpt lat="44.4568176" lon="4.5516239"><ele>258.5</ele><time>2026-04-10T15:50:47.794Z</time></trkpt><trkpt lat="44.4567068" lon="4.5514909"><ele>259.25</ele><time>2026-04-10T15:50:48.787Z</time></trkpt><trkpt lat="44.4566069" lon="4.5513681"><ele>260.0</ele><time>2026-04-10T15:50:49.788Z</time></trkpt><trkpt lat="44.456521" lon="4.5512701"><ele>260.4</ele><time>2026-04-10T15:50:50.786Z</time></trkpt><trkpt lat="44.4564429" lon="4.5511832"><ele>260.8</ele><time>2026-04-10T15:50:51.786Z</time></trkpt><trkpt lat="44.4563518" lon="4.5511337"><ele>261.2</ele><time>2026-04-10T15:50:52.787Z</time></trkpt><trkpt lat="44.4562435" lon="4.5510992"><ele>261.6</ele><time>2026-04-10T15:50:53.788Z</time></trkpt><trkpt lat="44.4561303" lon="4.5510665"><ele>262.0</ele><time>2026-04-10T15:50:54.789Z</time></trkpt><trkpt lat="44.4560292" lon="4.5510758"><ele>262.0</ele><time>2026-04-10T15:50:55.785Z</time></trkpt><trkpt lat="44.4559471" lon="4.5510785"><ele>262.0</ele><time>2026-04-10T15:50:56.786Z</time></trkpt><trkpt lat="44.4558749" lon="4.5510531"><ele>262.0</ele><time>2026-04-10T15:50:57.787Z</time></trkpt><trkpt lat="44.4558048" lon="4.5509936"><ele>262.0</ele><time>2026-04-10T15:50:58.786Z</time></trkpt><trkpt lat="44.4557336" lon="4.5508974"><ele>262.0</ele><time>2026-04-10T15:50:59.789Z</time></trkpt><trkpt lat="44.4556202" lon="4.550758"><ele>262.0</ele><time>2026-04-10T15:51:00.786Z</time></trkpt><trkpt lat="44.4555352" lon="4.5506304"><ele>262.0</ele><time>2026-04-10T15:51:01.787Z</time></trkpt><trkpt lat="44.4554838" lon="4.5505578"><ele>262.0</ele><time>2026-04-10T15:51:02.79Z</time></trkpt><trkpt lat="44.4554549" lon="4.5504079"><ele>262.0</ele><time>2026-04-10T15:51:04.789Z</time></trkpt><trkpt lat="44.4554128" lon="4.5502994"><ele>262.0</ele><time>2026-04-10T15:51:07.787Z</time></trkpt><trkpt lat="44.4553368" lon="4.5502197"><ele>263.5</ele><time>2026-04-10T15:51:09.784Z</time></trkpt><trkpt lat="44.4552964" lon="4.5501011"><ele>265.0</ele><time>2026-04-10T15:51:11.788Z</time></trkpt><trkpt lat="44.4552643" lon="4.5499864"><ele>266.5</ele><time>2026-04-10T15:51:13.789Z</time></trkpt><trkpt lat="44.4552245" lon="4.5499147"><ele>268.0</ele><time>2026-04-10T15:51:15.789Z</time></trkpt><trkpt lat="44.4551852" lon="4.5498272"><ele>269.5</ele><time>2026-04-10T15:51:17.783Z</time></trkpt><trkpt lat="44.4551263" lon="4.5497351"><ele>271.0</ele><time>2026-04-10T15:51:19.783Z</time></trkpt><trkpt lat="44.4550476" lon="4.5496568"><ele>271.0</ele><time>2026-04-10T15:51:21.787Z</time></trkpt><trkpt lat="44.4549887" lon="4.5496059"><ele>271.0</ele><time>2026-04-10T15:51:22.783Z</time></trkpt><trkpt lat="44.4549288" lon="4.5495548"><ele>271.0</ele><time>2026-04-10T15:51:23.787Z</time></trkpt><trkpt lat="44.4548434" lon="4.5494825"><ele>271.0</ele><time>2026-04-10T15:51:24.788Z</time></trkpt><trkpt lat="44.4547555" lon="4.5494005"><ele>271.0</ele><time>2026-04-10T15:51:25.787Z</time></trkpt><trkpt lat="44.4546474" lon="4.549332"><ele>269.8</ele><time>2026-04-10T15:51:26.789Z</time></trkpt><trkpt lat="44.4545414" lon="4.5492742"><ele>268.6</ele><time>2026-04-10T15:51:27.785Z</time></trkpt><trkpt lat="44.454441" lon="4.5492316"><ele>267.4</ele><time>2026-04-10T15:51:28.788Z</time></trkpt><trkpt lat="44.4543592" lon="4.5492115"><ele>266.2</ele><time>2026-04-10T15:51:29.786Z</time></trkpt><trkpt lat="44.4542619" lon="4.5491282"><ele>265.0</ele><time>2026-04-10T15:51:31.785Z</time></trkpt><trkpt lat="44.4543423" lon="4.5490622"><ele>265.0</ele><time>2026-04-10T15:51:33.786Z</time></trkpt><trkpt lat="44.454418" lon="4.5490995"><ele>265.0</ele><time>2026-04-10T15:51:34.783Z</time></trkpt><trkpt lat="44.4545069" lon="4.5491384"><ele>265.0</ele><time>2026-04-10T15:51:35.788Z</time></trkpt><trkpt lat="44.4546102" lon="4.5491909"><ele>265.0</ele><time>2026-04-10T15:51:36.791Z</time></trkpt><trkpt lat="44.4547097" lon="4.549243"><ele>265.0</ele><time>2026-04-10T15:51:37.788Z</time></trkpt><trkpt lat="44.454805" lon="4.549286"><ele>263.8333333333333</ele><time>2026-04-10T15:51:38.788Z</time></trkpt><trkpt lat="44.4548923" lon="4.5493213"><ele>262.66666666666663</ele><time>2026-04-10T15:51:39.785Z</time></trkpt><trkpt lat="44.45496" lon="4.5493407"><ele>261.5</ele><time>2026-04-10T15:51:40.782Z</time></trkpt><trkpt lat="44.4550371" lon="4.5493183"><ele>260.3333333333333</ele><time>2026-04-10T15:51:42.785Z</time></trkpt><trkpt lat="44.4551086" lon="4.5493028"><ele>259.1666666666667</ele><time>2026-04-10T15:52:12.785Z</time></trkpt><trkpt lat="44.4551475" lon="4.5492165"><ele>258.0</ele><time>2026-04-10T15:52:16.786Z</time></trkpt><trkpt lat="44.455182" lon="4.5491354"><ele>258.0</ele><time>2026-04-10T15:53:14.785Z</time></trkpt><trkpt lat="44.4552796" lon="4.5490346"><ele>258.0</ele><time>2026-04-10T15:53:16.793Z</time></trkpt><trkpt lat="44.4553448" lon="4.5489438"><ele>258.0</ele><time>2026-04-10T15:53:17.785Z</time></trkpt><trkpt lat="44.455404" lon="4.5488238"><ele>258.0</ele><time>2026-04-10T15:53:18.783Z</time></trkpt><trkpt lat="44.4554666" lon="4.548687"><ele>258.0</ele><time>2026-04-10T15:53:19.787Z</time></trkpt><trkpt lat="44.455531" lon="4.5485415"><ele>258.0</ele><time>2026-04-10T15:53:20.785Z</time></trkpt><trkpt lat="44.4555835" lon="4.5483677"><ele>258.0</ele><time>2026-04-10T15:53:21.786Z</time></trkpt><trkpt lat="44.4556357" lon="4.548188"><ele>258.0</ele><time>2026-04-10T15:53:22.79Z</time></trkpt><trkpt lat="44.455677" lon="4.5479902"><ele>258.0</ele><time>2026-04-10T15:53:23.786Z</time></trkpt><trkpt lat="44.4557396" lon="4.5477521"><ele>258.0</ele><time>2026-04-10T15:53:24.785Z</time></trkpt><trkpt lat="44.4558013" lon="4.5475493"><ele>258.0</ele><time>2026-04-10T15:53:25.785Z</time></trkpt><trkpt lat="44.4558609" lon="4.5473519"><ele>258.0</ele><time>2026-04-10T15:53:26.783Z</time></trkpt><trkpt lat="44.4559061" lon="4.5471584"><ele>259.75</ele><time>2026-04-10T15:53:27.784Z</time></trkpt><trkpt lat="44.4559581" lon="4.5469796"><ele>261.5</ele><time>2026-04-10T15:53:28.786Z</time></trkpt><trkpt lat="44.4560021" lon="4.5467844"><ele>263.25</ele><time>2026-04-10T15:53:29.784Z</time></trkpt><trkpt lat="44.4560587" lon="4.5465779"><ele>265.0</ele><time>2026-04-10T15:53:30.785Z</time></trkpt><trkpt lat="44.4561272" lon="4.5463569"><ele>265.0</ele><time>2026-04-10T15:53:31.781Z</time></trkpt><trkpt lat="44.4561924" lon="4.5461305"><ele>265.0</ele><time>2026-04-10T15:53:32.785Z</time></trkpt><trkpt lat="44.4562483" lon="4.5459009"><ele>265.0</ele><time>2026-04-10T15:53:33.785Z</time></trkpt><trkpt lat="44.4562856" lon="4.5457156"><ele>265.5</ele><time>2026-04-10T15:53:34.79Z</time></trkpt><trkpt lat="44.4563341" lon="4.5455174"><ele>266.0</ele><time>2026-04-10T15:53:35.789Z</time></trkpt><trkpt lat="44.4563855" lon="4.5453553"><ele>266.5</ele><time>2026-04-10T15:53:36.782Z</time></trkpt><trkpt lat="44.4564571" lon="4.5452138"><ele>267.0</ele><time>2026-04-10T15:53:37.787Z</time></trkpt><trkpt lat="44.4565543" lon="4.5450803"><ele>267.0</ele><time>2026-04-10T15:53:38.785Z</time></trkpt><trkpt lat="44.4566429" lon="4.5449241"><ele>267.0</ele><time>2026-04-10T15:53:39.784Z</time></trkpt><trkpt lat="44.4567333" lon="4.5447677"><ele>267.0</ele><time>2026-04-10T15:53:40.791Z</time></trkpt><trkpt lat="44.4568279" lon="4.5446053"><ele>267.0</ele><time>2026-04-10T15:53:41.783Z</time></trkpt><trkpt lat="44.4569403" lon="4.5444283"><ele>267.0</ele><time>2026-04-10T15:53:42.786Z</time></trkpt><trkpt lat="44.4570455" lon="4.5442598"><ele>267.0</ele><time>2026-04-10T15:53:43.784Z</time></trkpt><trkpt lat="44.4571533" lon="4.5440983"><ele>267.0</ele><time>2026-04-10T15:53:44.786Z</time></trkpt><trkpt lat="44.4572587" lon="4.5439331"><ele>267.6666666666667</ele><time>2026-04-10T15:53:45.791Z</time></trkpt><trkpt lat="44.4573547" lon="4.5437651"><ele>268.33333333333337</ele><time>2026-04-10T15:53:46.788Z</time></trkpt><trkpt lat="44.4574535" lon="4.543592"><ele>269.0</ele><time>2026-04-10T15:53:47.785Z</time></trkpt><trkpt lat="44.4575528" lon="4.5434244"><ele>269.0</ele><time>2026-04-10T15:53:48.788Z</time></trkpt><trkpt lat="44.4576561" lon="4.5432596"><ele>269.0</ele><time>2026-04-10T15:53:49.785Z</time></trkpt><trkpt lat="44.4577557" lon="4.5430943"><ele>269.0</ele><time>2026-04-10T15:53:50.785Z</time></trkpt><trkpt lat="44.4578418" lon="4.5429411"><ele>269.25</ele><time>2026-04-10T15:53:51.782Z</time></trkpt><trkpt lat="44.4579212" lon="4.54278"><ele>269.5</ele><time>2026-04-10T15:53:52.784Z</time></trkpt><trkpt lat="44.4580058" lon="4.5426323"><ele>269.75</ele><time>2026-04-10T15:53:53.782Z</time></trkpt><trkpt lat="44.4580863" lon="4.542491"><ele>270.0</ele><time>2026-04-10T15:53:54.782Z</time></trkpt><trkpt lat="44.4581777" lon="4.5423585"><ele>271.3333333333333</ele><time>2026-04-10T15:53:55.785Z</time></trkpt><trkpt lat="44.4583371" lon="4.5423233"><ele>272.66666666666663</ele><time>2026-04-10T15:53:56.787Z</time></trkpt><trkpt lat="44.4584859" lon="4.542257"><ele>274.0</ele><time>2026-04-10T15:53:57.786Z</time></trkpt><trkpt lat="44.4586164" lon="4.5421914"><ele>274.0</ele><time>2026-04-10T15:53:58.829Z</time></trkpt><trkpt lat="44.4587163" lon="4.542126"><ele>274.0</ele><time>2026-04-10T15:53:59.788Z</time></trkpt><trkpt lat="44.4588159" lon="4.5420588"><ele>274.0</ele><time>2026-04-10T15:54:00.781Z</time></trkpt><trkpt lat="44.4589145" lon="4.5419454"><ele>274.0</ele><time>2026-04-10T15:54:01.784Z</time></trkpt><trkpt lat="44.4590191" lon="4.5418182"><ele>275.25</ele><time>2026-04-10T15:54:02.782Z</time></trkpt><trkpt lat="44.4591157" lon="4.5416906"><ele>276.5</ele><time>2026-04-10T15:54:03.787Z</time></trkpt><trkpt lat="44.4592019" lon="4.5415631"><ele>277.75</ele><time>2026-04-10T15:54:04.786Z</time></trkpt><trkpt lat="44.4592861" lon="4.5414329"><ele>279.0</ele><time>2026-04-10T15:54:05.784Z</time></trkpt><trkpt lat="44.4593766" lon="4.5413017"><ele>278.0</ele><time>2026-04-10T15:54:06.787Z</time></trkpt><trkpt lat="44.4594841" lon="4.5412023"><ele>277.0</ele><time>2026-04-10T15:54:07.784Z</time></trkpt><trkpt lat="44.4595981" lon="4.541086"><ele>276.0</ele><time>2026-04-10T15:54:08.786Z</time></trkpt><trkpt lat="44.4597192" lon="4.5409802"><ele>275.0</ele><time>2026-04-10T15:54:09.783Z</time></trkpt><trkpt lat="44.4598482" lon="4.5408528"><ele>275.0</ele><time>2026-04-10T15:54:10.782Z</time></trkpt><trkpt lat="44.4599903" lon="4.5407079"><ele>275.0</ele><time>2026-04-10T15:54:11.794Z</time></trkpt><trkpt lat="44.4601282" lon="4.5405655"><ele>275.0</ele><time>2026-04-10T15:54:12.786Z</time></trkpt><trkpt lat="44.4602259" lon="4.5404872"><ele>275.0</ele><time>2026-04-10T15:54:13.786Z</time></trkpt><trkpt lat="44.4603143" lon="4.5403996"><ele>275.0</ele><time>2026-04-10T15:54:14.783Z</time></trkpt><trkpt lat="44.4603886" lon="4.5403288"><ele>275.0</ele><time>2026-04-10T15:54:15.786Z</time></trkpt><trkpt lat="44.4604633" lon="4.5403267"><ele>275.0</ele><time>2026-04-10T15:54:16.785Z</time></trkpt><trkpt lat="44.4605454" lon="4.5403059"><ele>275.0</ele><time>2026-04-10T15:54:17.79Z</time></trkpt><trkpt lat="44.4606259" lon="4.5402702"><ele>275.0</ele><time>2026-04-10T15:54:18.788Z</time></trkpt><trkpt lat="44.4607026" lon="4.5402423"><ele>276.4</ele><time>2026-04-10T15:54:19.782Z</time></trkpt><trkpt lat="44.4607818" lon="4.5402161"><ele>277.8</ele><time>2026-04-10T15:54:20.788Z</time></trkpt><trkpt lat="44.460861" lon="4.5401732"><ele>279.2</ele><time>2026-04-10T15:54:21.785Z</time></trkpt><trkpt lat="44.4609518" lon="4.5401274"><ele>280.6</ele><time>2026-04-10T15:54:22.785Z</time></trkpt><trkpt lat="44.4610434" lon="4.5400863"><ele>282.0</ele><time>2026-04-10T15:54:23.786Z</time></trkpt><trkpt lat="44.4611381" lon="4.5400154"><ele>282.0</ele><time>2026-04-10T15:54:24.786Z</time></trkpt><trkpt lat="44.4612401" lon="4.5399626"><ele>282.0</ele><time>2026-04-10T15:54:25.786Z</time></trkpt><trkpt lat="44.4613331" lon="4.5398995"><ele>282.0</ele><time>2026-04-10T15:54:26.789Z</time></trkpt><trkpt lat="44.4614537" lon="4.5398197"><ele>282.0</ele><time>2026-04-10T15:54:27.786Z</time></trkpt><trkpt lat="44.4615708" lon="4.5397562"><ele>281.2</ele><time>2026-04-10T15:54:28.786Z</time></trkpt><trkpt lat="44.4616675" lon="4.5397046"><ele>280.4</ele><time>2026-04-10T15:54:29.784Z</time></trkpt><trkpt lat="44.4617607" lon="4.53969"><ele>279.6</ele><time>2026-04-10T15:54:30.782Z</time></trkpt><trkpt lat="44.4618546" lon="4.5396755"><ele>278.8</ele><time>2026-04-10T15:54:31.788Z</time></trkpt><trkpt lat="44.4619384" lon="4.539644"><ele>278.0</ele><time>2026-04-10T15:54:32.794Z</time></trkpt><trkpt lat="44.4620373" lon="4.5396257"><ele>277.8</ele><time>2026-04-10T15:54:33.784Z</time></trkpt><trkpt lat="44.4621386" lon="4.5396316"><ele>277.6</ele><time>2026-04-10T15:54:34.79Z</time></trkpt><trkpt lat="44.4622414" lon="4.5396509"><ele>277.4</ele><time>2026-04-10T15:54:35.786Z</time></trkpt><trkpt lat="44.4623461" lon="4.5396638"><ele>277.2</ele><time>2026-04-10T15:54:36.784Z</time></trkpt><trkpt lat="44.4624618" lon="4.5396795"><ele>277.0</ele><time>2026-04-10T15:54:37.789Z</time></trkpt><trkpt lat="44.4625651" lon="4.5396561"><ele>277.0</ele><time>2026-04-10T15:54:38.784Z</time></trkpt><trkpt lat="44.4626564" lon="4.539626"><ele>277.0</ele><time>2026-04-10T15:54:39.785Z</time></trkpt><trkpt lat="44.4627617" lon="4.5395577"><ele>277.0</ele><time>2026-04-10T15:54:40.79Z</time></trkpt><trkpt lat="44.4628737" lon="4.5394868"><ele>277.0</ele><time>2026-04-10T15:54:41.785Z</time></trkpt><trkpt lat="44.4629847" lon="4.5394067"><ele>278.5</ele><time>2026-04-10T15:54:42.785Z</time></trkpt><trkpt lat="44.4630947" lon="4.5393433"><ele>280.0</ele><time>2026-04-10T15:54:43.786Z</time></trkpt><trkpt lat="44.4632058" lon="4.5392789"><ele>281.5</ele><time>2026-04-10T15:54:44.785Z</time></trkpt><trkpt lat="44.4633183" lon="4.5392199"><ele>283.0</ele><time>2026-04-10T15:54:45.79Z</time></trkpt><trkpt lat="44.4634437" lon="4.5391464"><ele>283.0</ele><time>2026-04-10T15:54:46.787Z</time></trkpt><trkpt lat="44.4635873" lon="4.5390671"><ele>283.0</ele><time>2026-04-10T15:54:47.784Z</time></trkpt><trkpt lat="44.4637168" lon="4.5389908"><ele>283.0</ele><time>2026-04-10T15:54:48.792Z</time></trkpt><trkpt lat="44.4638348" lon="4.5389224"><ele>283.0</ele><time>2026-04-10T15:54:49.788Z</time></trkpt><trkpt lat="44.4639442" lon="4.5388512"><ele>283.0</ele><time>2026-04-10T15:54:50.787Z</time></trkpt><trkpt lat="44.464042" lon="4.538793"><ele>283.0</ele><time>2026-04-10T15:54:51.786Z</time></trkpt><trkpt lat="44.4641396" lon="4.5387237"><ele>283.0</ele><time>2026-04-10T15:54:52.787Z</time></trkpt><trkpt lat="44.4642095" lon="4.5386205"><ele>283.0</ele><time>2026-04-10T15:54:53.786Z</time></trkpt><trkpt lat="44.4642696" lon="4.5385217"><ele>283.0</ele><time>2026-04-10T15:54:54.789Z</time></trkpt><trkpt lat="44.4643032" lon="4.5384271"><ele>283.66666666666663</ele><time>2026-04-10T15:54:55.79Z</time></trkpt><trkpt lat="44.4643562" lon="4.5382862"><ele>284.3333333333333</ele><time>2026-04-10T15:54:57.788Z</time></trkpt><trkpt lat="44.464449" lon="4.5382561"><ele>285.0</ele><time>2026-04-10T15:54:59.785Z</time></trkpt><trkpt lat="44.4645186" lon="4.538262"><ele>285.6666666666667</ele><time>2026-04-10T15:55:01.785Z</time></trkpt><trkpt lat="44.4645802" lon="4.5382838"><ele>286.33333333333337</ele><time>2026-04-10T15:55:03.784Z</time></trkpt><trkpt lat="44.4646412" lon="4.5383795"><ele>287.0</ele><time>2026-04-10T15:55:05.788Z</time></trkpt><trkpt lat="44.4646455" lon="4.5384795"><ele>286.33333333333337</ele><time>2026-04-10T15:55:07.789Z</time></trkpt><trkpt lat="44.4646425" lon="4.5385943"><ele>285.6666666666667</ele><time>2026-04-10T15:55:08.789Z</time></trkpt><trkpt lat="44.464616" lon="4.538697"><ele>285.0</ele><time>2026-04-10T15:55:09.784Z</time></trkpt><trkpt lat="44.4645955" lon="4.5388257"><ele>284.3333333333333</ele><time>2026-04-10T15:55:10.786Z</time></trkpt><trkpt lat="44.4645541" lon="4.5389613"><ele>283.66666666666663</ele><time>2026-04-10T15:55:11.79Z</time></trkpt><trkpt lat="44.4645221" lon="4.539063"><ele>283.0</ele><time>2026-04-10T15:55:12.785Z</time></trkpt><trkpt lat="44.4645059" lon="4.5391668"><ele>283.0</ele><time>2026-04-10T15:55:13.783Z</time></trkpt><trkpt lat="44.4645441" lon="4.5393114"><ele>283.0</ele><time>2026-04-10T15:55:15.784Z</time></trkpt><trkpt lat="44.4646539" lon="4.5393035"><ele>283.0</ele><time>2026-04-10T15:55:16.79Z</time></trkpt><trkpt lat="44.4647541" lon="4.5392766"><ele>283.0</ele><time>2026-04-10T15:55:17.784Z</time></trkpt><trkpt lat="44.4648404" lon="4.5392454"><ele>283.0</ele><time>2026-04-10T15:55:18.786Z</time></trkpt><trkpt lat="44.464926" lon="4.5391761"><ele>284.3333333333333</ele><time>2026-04-10T15:55:20.788Z</time></trkpt><trkpt lat="44.4649418" lon="4.5390662"><ele>285.66666666666663</ele><time>2026-04-10T15:55:22.787Z</time></trkpt><trkpt lat="44.4649328" lon="4.5389463"><ele>287.0</ele><time>2026-04-10T15:55:24.784Z</time></trkpt><trkpt lat="44.4649045" lon="4.538839"><ele>288.3333333333333</ele><time>2026-04-10T15:55:27.782Z</time></trkpt><trkpt lat="44.4648509" lon="4.5387461"><ele>289.6666666666667</ele><time>2026-04-10T15:55:30.788Z</time></trkpt><trkpt lat="44.4648518" lon="4.5386106"><ele>291.0</ele><time>2026-04-10T15:55:32.788Z</time></trkpt><trkpt lat="44.4648728" lon="4.5385266"><ele>291.8</ele><time>2026-04-10T15:55:33.789Z</time></trkpt><trkpt lat="44.4649084" lon="4.5384138"><ele>292.6</ele><time>2026-04-10T15:55:34.785Z</time></trkpt><trkpt lat="44.4649476" lon="4.5382867"><ele>293.4</ele><time>2026-04-10T15:55:35.785Z</time></trkpt><trkpt lat="44.4649894" lon="4.5381418"><ele>294.2</ele><time>2026-04-10T15:55:36.788Z</time></trkpt><trkpt lat="44.4650263" lon="4.5379788"><ele>295.0</ele><time>2026-04-10T15:55:37.785Z</time></trkpt><trkpt lat="44.4650694" lon="4.5378072"><ele>295.75</ele><time>2026-04-10T15:55:38.785Z</time></trkpt><trkpt lat="44.4651142" lon="4.5376421"><ele>296.5</ele><time>2026-04-10T15:55:39.785Z</time></trkpt><trkpt lat="44.4651663" lon="4.5374712"><ele>297.25</ele><time>2026-04-10T15:55:40.785Z</time></trkpt><trkpt lat="44.4652029" lon="4.5373078"><ele>298.0</ele><time>2026-04-10T15:55:41.788Z</time></trkpt><trkpt lat="44.4652437" lon="4.5371317"><ele>298.2</ele><time>2026-04-10T15:55:42.788Z</time></trkpt><trkpt lat="44.4652661" lon="4.5369903"><ele>298.4</ele><time>2026-04-10T15:55:43.792Z</time></trkpt><trkpt lat="44.465275" lon="4.536878"><ele>298.59999999999997</ele><time>2026-04-10T15:55:44.79Z</time></trkpt><trkpt lat="44.465314" lon="4.5367219"><ele>298.8</ele><time>2026-04-10T15:55:46.783Z</time></trkpt><trkpt lat="44.4653514" lon="4.5366404"><ele>299.0</ele><time>2026-04-10T15:55:47.786Z</time></trkpt><trkpt lat="44.4654317" lon="4.5365644"><ele>301.0</ele><time>2026-04-10T15:55:48.788Z</time></trkpt><trkpt lat="44.4655171" lon="4.536463"><ele>303.0</ele><time>2026-04-10T15:55:49.79Z</time></trkpt><trkpt lat="44.4656003" lon="4.5363263"><ele>305.0</ele><time>2026-04-10T15:55:50.786Z</time></trkpt><trkpt lat="44.465677" lon="4.5362192"><ele>307.0</ele><time>2026-04-10T15:55:51.788Z</time></trkpt><trkpt lat="44.4657359" lon="4.53612"><ele>309.0</ele><time>2026-04-10T15:55:52.787Z</time></trkpt><trkpt lat="44.4657991" lon="4.536066"><ele>309.0</ele><time>2026-04-10T15:55:53.784Z</time></trkpt><trkpt lat="44.4658779" lon="4.5359963"><ele>309.0</ele><time>2026-04-10T15:55:54.787Z</time></trkpt><trkpt lat="44.4659627" lon="4.5359241"><ele>309.0</ele><time>2026-04-10T15:55:55.789Z</time></trkpt><trkpt lat="44.4660592" lon="4.5358303"><ele>309.0</ele><time>2026-04-10T15:55:56.788Z</time></trkpt><trkpt lat="44.4661475" lon="4.5357552"><ele>309.0</ele><time>2026-04-10T15:55:57.789Z</time></trkpt><trkpt lat="44.4662098" lon="4.5357034"><ele>309.0</ele><time>2026-04-10T15:55:58.785Z</time></trkpt><trkpt lat="44.4662931" lon="4.535672"><ele>309.0</ele><time>2026-04-10T15:56:00.785Z</time></trkpt><trkpt lat="44.4663182" lon="4.5357557"><ele>309.0</ele><time>2026-04-10T15:56:02.787Z</time></trkpt><trkpt lat="44.4662642" lon="4.5358543"><ele>309.0</ele><time>2026-04-10T15:56:04.786Z</time></trkpt><trkpt lat="44.4661944" lon="4.5359209"><ele>309.0</ele><time>2026-04-10T15:56:05.787Z</time></trkpt><trkpt lat="44.4661338" lon="4.5360108"><ele>309.0</ele><time>2026-04-10T15:56:06.786Z</time></trkpt><trkpt lat="44.4660681" lon="4.5361168"><ele>311.25</ele><time>2026-04-10T15:56:07.788Z</time></trkpt><trkpt lat="44.4659938" lon="4.5362283"><ele>313.5</ele><time>2026-04-10T15:56:08.785Z</time></trkpt><trkpt lat="44.4659188" lon="4.5363421"><ele>315.75</ele><time>2026-04-10T15:56:09.79Z</time></trkpt><trkpt lat="44.4658301" lon="4.5364745"><ele>318.0</ele><time>2026-04-10T15:56:10.788Z</time></trkpt><trkpt lat="44.4657502" lon="4.5365982"><ele>318.0</ele><time>2026-04-10T15:56:11.783Z</time></trkpt><trkpt lat="44.4656764" lon="4.536711"><ele>318.0</ele><time>2026-04-10T15:56:12.787Z</time></trkpt><trkpt lat="44.4656197" lon="4.5368126"><ele>318.0</ele><time>2026-04-10T15:56:13.787Z</time></trkpt><trkpt lat="44.4655812" lon="4.5369089"><ele>318.0</ele><time>2026-04-10T15:56:14.788Z</time></trkpt><trkpt lat="44.465564" lon="4.5370192"><ele>318.0</ele><time>2026-04-10T15:56:15.786Z</time></trkpt><trkpt lat="44.4655617" lon="4.5371165"><ele>318.0</ele><time>2026-04-10T15:56:16.785Z</time></trkpt><trkpt lat="44.4656317" lon="4.5372255"><ele>318.0</ele><time>2026-04-10T15:56:18.786Z</time></trkpt><trkpt lat="44.4657114" lon="4.5372081"><ele>318.0</ele><time>2026-04-10T15:56:20.789Z</time></trkpt><trkpt lat="44.4657483" lon="4.5370885"><ele>318.0</ele><time>2026-04-10T15:56:23.789Z</time></trkpt><trkpt lat="44.4657874" lon="4.5369725"><ele>318.0</ele><time>2026-04-10T15:56:25.791Z</time></trkpt><trkpt lat="44.4658704" lon="4.5368687"><ele>318.0</ele><time>2026-04-10T15:56:28.787Z</time></trkpt><trkpt lat="44.4659699" lon="4.5367793"><ele>318.0</ele><time>2026-04-10T15:56:30.788Z</time></trkpt><trkpt lat="44.4660226" lon="4.5367214"><ele>318.0</ele><time>2026-04-10T15:56:31.794Z</time></trkpt><trkpt lat="44.4660759" lon="4.5366583"><ele>318.0</ele><time>2026-04-10T15:56:32.787Z</time></trkpt><trkpt lat="44.4661286" lon="4.5365981"><ele>318.0</ele><time>2026-04-10T15:56:33.786Z</time></trkpt><trkpt lat="44.4661874" lon="4.5365496"><ele>318.0</ele><time>2026-04-10T15:56:34.789Z</time></trkpt><trkpt lat="44.4662616" lon="4.5365065"><ele>318.0</ele><time>2026-04-10T15:56:35.797Z</time></trkpt><trkpt lat="44.4663419" lon="4.5364548"><ele>318.0</ele><time>2026-04-10T15:56:36.788Z</time></trkpt><trkpt lat="44.4664323" lon="4.5363946"><ele>319.75</ele><time>2026-04-10T15:56:37.787Z</time></trkpt><trkpt lat="44.4665372" lon="4.5363258"><ele>321.5</ele><time>2026-04-10T15:56:38.79Z</time></trkpt><trkpt lat="44.4666457" lon="4.5362337"><ele>323.25</ele><time>2026-04-10T15:56:39.792Z</time></trkpt><trkpt lat="44.4667432" lon="4.5361342"><ele>325.0</ele><time>2026-04-10T15:56:40.787Z</time></trkpt><trkpt lat="44.4668296" lon="4.5360336"><ele>325.0</ele><time>2026-04-10T15:56:41.79Z</time></trkpt><trkpt lat="44.4669032" lon="4.535921"><ele>325.0</ele><time>2026-04-10T15:56:42.795Z</time></trkpt><trkpt lat="44.4669731" lon="4.535807"><ele>325.0</ele><time>2026-04-10T15:56:43.785Z</time></trkpt><trkpt lat="44.4670389" lon="4.5356888"><ele>325.0</ele><time>2026-04-10T15:56:44.788Z</time></trkpt><trkpt lat="44.4670942" lon="4.5355727"><ele>325.0</ele><time>2026-04-10T15:56:45.789Z</time></trkpt><trkpt lat="44.4671631" lon="4.5354582"><ele>326.5</ele><time>2026-04-10T15:56:46.786Z</time></trkpt><trkpt lat="44.4672466" lon="4.5353418"><ele>328.0</ele><time>2026-04-10T15:56:47.792Z</time></trkpt><trkpt lat="44.4673402" lon="4.5352152"><ele>329.5</ele><time>2026-04-10T15:56:48.792Z</time></trkpt><trkpt lat="44.467445" lon="4.5350861"><ele>331.0</ele><time>2026-04-10T15:56:49.782Z</time></trkpt><trkpt lat="44.4675448" lon="4.5349686"><ele>331.0</ele><time>2026-04-10T15:56:50.786Z</time></trkpt><trkpt lat="44.4676402" lon="4.5348525"><ele>331.0</ele><time>2026-04-10T15:56:51.791Z</time></trkpt><trkpt lat="44.4677297" lon="4.5347364"><ele>331.0</ele><time>2026-04-10T15:56:52.784Z</time></trkpt><trkpt lat="44.4678274" lon="4.5346045"><ele>331.0</ele><time>2026-04-10T15:56:53.785Z</time></trkpt><trkpt lat="44.4679218" lon="4.534469"><ele>333.0</ele><time>2026-04-10T15:56:54.782Z</time></trkpt><trkpt lat="44.4680156" lon="4.5343381"><ele>335.0</ele><time>2026-04-10T15:56:55.783Z</time></trkpt><trkpt lat="44.4681043" lon="4.5342084"><ele>337.0</ele><time>2026-04-10T15:56:56.785Z</time></trkpt><trkpt lat="44.4681914" lon="4.5340716"><ele>339.0</ele><time>2026-04-10T15:56:57.782Z</time></trkpt><trkpt lat="44.4682883" lon="4.5339502"><ele>339.0</ele><time>2026-04-10T15:56:58.788Z</time></trkpt><trkpt lat="44.468387" lon="4.5338414"><ele>339.0</ele><time>2026-04-10T15:56:59.786Z</time></trkpt><trkpt lat="44.468513" lon="4.5337407"><ele>339.0</ele><time>2026-04-10T15:57:00.785Z</time></trkpt><trkpt lat="44.468659" lon="4.5336355"><ele>339.0</ele><time>2026-04-10T15:57:01.787Z</time></trkpt><trkpt lat="44.4687932" lon="4.5335395"><ele>341.4</ele><time>2026-04-10T15:57:02.788Z</time></trkpt><trkpt lat="44.4689199" lon="4.5334539"><ele>343.79999999999995</ele><time>2026-04-10T15:57:03.787Z</time></trkpt><trkpt lat="44.4690272" lon="4.5333814"><ele>346.20000000000005</ele><time>2026-04-10T15:57:04.792Z</time></trkpt><trkpt lat="44.4691069" lon="4.5333206"><ele>348.6</ele><time>2026-04-10T15:57:05.789Z</time></trkpt><trkpt lat="44.469166" lon="4.5332683"><ele>351.0</ele><time>2026-04-10T15:57:06.783Z</time></trkpt><trkpt lat="44.4692488" lon="4.5331538"><ele>351.0</ele><time>2026-04-10T15:57:08.785Z</time></trkpt><trkpt lat="44.4692907" lon="4.5330847"><ele>351.0</ele><time>2026-04-10T15:57:09.783Z</time></trkpt><trkpt lat="44.4693736" lon="4.5329624"><ele>351.0</ele><time>2026-04-10T15:57:11.785Z</time></trkpt><trkpt lat="44.4694409" lon="4.5328409"><ele>351.0</ele><time>2026-04-10T15:57:13.792Z</time></trkpt><trkpt lat="44.4694509" lon="4.5326999"><ele>351.0</ele><time>2026-04-10T15:57:15.786Z</time></trkpt><trkpt lat="44.4694429" lon="4.5325562"><ele>352.8</ele><time>2026-04-10T15:57:17.783Z</time></trkpt><trkpt lat="44.469485" lon="4.5324202"><ele>354.6</ele><time>2026-04-10T15:57:19.788Z</time></trkpt><trkpt lat="44.4695088" lon="4.5322598"><ele>356.4</ele><time>2026-04-10T15:57:21.794Z</time></trkpt><trkpt lat="44.4695094" lon="4.5321231"><ele>358.2</ele><time>2026-04-10T15:57:23.788Z</time></trkpt><trkpt lat="44.4695666" lon="4.5319803"><ele>360.0</ele><time>2026-04-10T15:57:25.787Z</time></trkpt><trkpt lat="44.4696153" lon="4.5319201"><ele>365.0</ele><time>2026-04-10T15:57:26.785Z</time></trkpt><trkpt lat="44.4696815" lon="4.5317842"><ele>370.0</ele><time>2026-04-10T15:57:28.785Z</time></trkpt><trkpt lat="44.4697179" lon="4.531711"><ele>375.0</ele><time>2026-04-10T15:57:29.79Z</time></trkpt><trkpt lat="44.469789" lon="4.5316135"><ele>380.0</ele><time>2026-04-10T15:57:31.784Z</time></trkpt><trkpt lat="44.4698406" lon="4.5315129"><ele>385.0</ele><time>2026-04-10T15:57:33.786Z</time></trkpt><trkpt lat="44.4698715" lon="4.531374"><ele>385.0</ele><time>2026-04-10T15:57:35.783Z</time></trkpt><trkpt lat="44.469928" lon="4.5312423"><ele>385.0</ele><time>2026-04-10T15:57:37.787Z</time></trkpt><trkpt lat="44.4699579" lon="4.531129"><ele>385.0</ele><time>2026-04-10T15:57:39.788Z</time></trkpt><trkpt lat="44.4700143" lon="4.5310321"><ele>385.0</ele><time>2026-04-10T15:57:41.784Z</time></trkpt><trkpt lat="44.4700886" lon="4.5310899"><ele>385.0</ele><time>2026-04-10T15:57:43.784Z</time></trkpt><trkpt lat="44.470165" lon="4.5311772"><ele>386.0</ele><time>2026-04-10T15:57:45.786Z</time></trkpt><trkpt lat="44.4702503" lon="4.5312131"><ele>387.0</ele><time>2026-04-10T15:57:47.787Z</time></trkpt><trkpt lat="44.4703499" lon="4.5311838"><ele>388.0</ele><time>2026-04-10T15:57:49.788Z</time></trkpt><trkpt lat="44.4704641" lon="4.5311854"><ele>389.0</ele><time>2026-04-10T15:57:51.783Z</time></trkpt><trkpt lat="44.4705489" lon="4.5311528"><ele>390.0</ele><time>2026-04-10T15:57:53.79Z</time></trkpt><trkpt lat="44.4705891" lon="4.5310444"><ele>392.8</ele><time>2026-04-10T15:57:55.786Z</time></trkpt><trkpt lat="44.4705571" lon="4.5309101"><ele>395.6</ele><time>2026-04-10T15:57:57.79Z</time></trkpt><trkpt lat="44.4705313" lon="4.5307925"><ele>398.4</ele><time>2026-04-10T15:57:59.787Z</time></trkpt><trkpt lat="44.4705063" lon="4.5306614"><ele>401.2</ele><time>2026-04-10T15:58:01.79Z</time></trkpt><trkpt lat="44.4705083" lon="4.5305077"><ele>404.0</ele><time>2026-04-10T15:58:03.783Z</time></trkpt><trkpt lat="44.4705014" lon="4.5303906"><ele>403.16666666666663</ele><time>2026-04-10T15:58:05.784Z</time></trkpt><trkpt lat="44.47048" lon="4.5302237"><ele>402.3333333333333</ele><time>2026-04-10T15:58:07.785Z</time></trkpt><trkpt lat="44.4704658" lon="4.5301354"><ele>401.5</ele><time>2026-04-10T15:58:08.789Z</time></trkpt><trkpt lat="44.470433" lon="4.5299904"><ele>400.66666666666663</ele><time>2026-04-10T15:58:10.789Z</time></trkpt><trkpt lat="44.47041" lon="4.5298778"><ele>399.8333333333333</ele><time>2026-04-10T15:58:12.784Z</time></trkpt><trkpt lat="44.470397" lon="4.5297887"><ele>399.0</ele><time>2026-04-10T15:58:14.787Z</time></trkpt><trkpt lat="44.4704008" lon="4.5296913"><ele>399.0</ele><time>2026-04-10T15:58:17.787Z</time></trkpt><trkpt lat="44.4703847" lon="4.5295995"><ele>399.0</ele><time>2026-04-10T15:59:07.787Z</time></trkpt><trkpt lat="44.4703791" lon="4.5295066"><ele>399.0</ele><time>2026-04-10T15:59:11.782Z</time></trkpt><trkpt lat="44.4703966" lon="4.5294038"><ele>399.0</ele><time>2026-04-10T15:59:14.785Z</time></trkpt><trkpt lat="44.4704281" lon="4.5292955"><ele>399.0</ele><time>2026-04-10T15:59:19.795Z</time></trkpt><trkpt lat="44.4704551" lon="4.5291679"><ele>399.0</ele><time>2026-04-10T15:59:22.758Z</time></trkpt><trkpt lat="44.4704548" lon="4.5290787"><ele>400.5</ele><time>2026-04-10T15:59:25.789Z</time></trkpt><trkpt lat="44.470424" lon="4.5291557"><ele>402.0</ele><time>2026-04-10T16:00:41.785Z</time></trkpt><trkpt lat="44.4704622" lon="4.5290483"><ele>403.5</ele><time>2026-04-10T16:01:07.783Z</time></trkpt><trkpt lat="44.4704769" lon="4.5289486"><ele>405.0</ele><time>2026-04-10T16:01:09.785Z</time></trkpt><trkpt lat="44.4704804" lon="4.528849"><ele>406.5</ele><time>2026-04-10T16:01:11.782Z</time></trkpt><trkpt lat="44.4704857" lon="4.5287173"><ele>408.0</ele><time>2026-04-10T16:01:14.781Z</time></trkpt><trkpt lat="44.4704964" lon="4.5286089"><ele>415.5</ele><time>2026-04-10T16:01:16.784Z</time></trkpt><trkpt lat="44.4705042" lon="4.5284967"><ele>423.0</ele><time>2026-04-10T16:01:19.783Z</time></trkpt><trkpt lat="44.4705065" lon="4.5284035"><ele>430.5</ele><time>2026-04-10T16:01:21.787Z</time></trkpt><trkpt lat="44.4705188" lon="4.5283033"><ele>438.0</ele><time>2026-04-10T16:01:23.781Z</time></trkpt><trkpt lat="44.4705325" lon="4.5281746"><ele>445.5</ele><time>2026-04-10T16:01:46.782Z</time></trkpt><trkpt lat="44.4705347" lon="4.5280515"><ele>453.0</ele><time>2026-04-10T16:01:49.783Z</time></trkpt><trkpt lat="44.4705299" lon="4.5279563"><ele>454.5</ele><time>2026-04-10T16:01:52.783Z</time></trkpt><trkpt lat="44.4705455" lon="4.5278442"><ele>456.0</ele><time>2026-04-10T16:02:04.787Z</time></trkpt><trkpt lat="44.4705529" lon="4.527709"><ele>457.5</ele><time>2026-04-10T16:02:07.789Z</time></trkpt><trkpt lat="44.4705423" lon="4.5276002"><ele>459.0</ele><time>2026-04-10T16:02:09.784Z</time></trkpt><trkpt lat="44.4705282" lon="4.5274938"><ele>460.5</ele><time>2026-04-10T16:02:11.737Z</time></trkpt><trkpt lat="44.4705417" lon="4.5273472"><ele>462.0</ele><time>2026-04-10T16:02:13.785Z</time></trkpt><trkpt lat="44.4705942" lon="4.5272436"><ele>462.0</ele><time>2026-04-10T16:07:02.783Z</time></trkpt><trkpt lat="44.4705823" lon="4.5271225"><ele>462.00000000000006</ele><time>2026-04-10T16:07:03.786Z</time></trkpt><trkpt lat="44.4706084" lon="4.5269949"><ele>462.00000000000006</ele><time>2026-04-10T16:07:05.786Z</time></trkpt><trkpt lat="44.4706378" lon="4.5268604"><ele>462.0</ele><time>2026-04-10T16:07:07.788Z</time></trkpt><trkpt lat="44.4706464" lon="4.5267584"><ele>462.0</ele><time>2026-04-10T16:07:08.783Z</time></trkpt><trkpt lat="44.4706716" lon="4.5266085"><ele>462.8333333333333</ele><time>2026-04-10T16:07:10.786Z</time></trkpt><trkpt lat="44.4706965" lon="4.5264607"><ele>463.66666666666663</ele><time>2026-04-10T16:07:12.782Z</time></trkpt><trkpt lat="44.4707051" lon="4.526367"><ele>464.5</ele><time>2026-04-10T16:07:13.784Z</time></trkpt><trkpt lat="44.4707085" lon="4.5262761"><ele>465.3333333333333</ele><time>2026-04-10T16:07:14.782Z</time></trkpt><trkpt lat="44.4707186" lon="4.5261112"><ele>466.16666666666663</ele><time>2026-04-10T16:07:16.782Z</time></trkpt><trkpt lat="44.4707252" lon="4.5260183"><ele>467.0</ele><time>2026-04-10T16:07:17.784Z</time></trkpt><trkpt lat="44.4707212" lon="4.5259222"><ele>468.16666666666663</ele><time>2026-04-10T16:07:18.783Z</time></trkpt><trkpt lat="44.4707182" lon="4.5258283"><ele>469.3333333333333</ele><time>2026-04-10T16:07:19.781Z</time></trkpt><trkpt lat="44.4707132" lon="4.5256588"><ele>470.5</ele><time>2026-04-10T16:07:21.783Z</time></trkpt><trkpt lat="44.4707031" lon="4.5255655"><ele>471.66666666666663</ele><time>2026-04-10T16:07:22.781Z</time></trkpt><trkpt lat="44.4706555" lon="4.5254819"><ele>472.8333333333333</ele><time>2026-04-10T16:07:23.781Z</time></trkpt><trkpt lat="44.4705892" lon="4.5254132"><ele>474.0</ele><time>2026-04-10T16:07:24.78Z</time></trkpt><trkpt lat="44.4705147" lon="4.5253436"><ele>475.0</ele><time>2026-04-10T16:07:25.78Z</time></trkpt><trkpt lat="44.4704295" lon="4.5252766"><ele>476.0</ele><time>2026-04-10T16:07:26.783Z</time></trkpt><trkpt lat="44.4703475" lon="4.5252473"><ele>477.0</ele><time>2026-04-10T16:07:27.783Z</time></trkpt><trkpt lat="44.4702791" lon="4.5251812"><ele>478.0</ele><time>2026-04-10T16:07:28.78Z</time></trkpt><trkpt lat="44.4702072" lon="4.5251257"><ele>479.0</ele><time>2026-04-10T16:07:29.784Z</time></trkpt><trkpt lat="44.4701324" lon="4.5250799"><ele>480.0</ele><time>2026-04-10T16:07:30.78Z</time></trkpt><trkpt lat="44.470065" lon="4.5250219"><ele>480.0</ele><time>2026-04-10T16:07:31.782Z</time></trkpt><trkpt lat="44.4699436" lon="4.5249356"><ele>480.0</ele><time>2026-04-10T16:07:33.783Z</time></trkpt><trkpt lat="44.4698674" lon="4.5248979"><ele>480.0</ele><time>2026-04-10T16:07:34.782Z</time></trkpt><trkpt lat="44.4697816" lon="4.5248562"><ele>480.0</ele><time>2026-04-10T16:07:35.777Z</time></trkpt><trkpt lat="44.4696932" lon="4.5248333"><ele>480.0</ele><time>2026-04-10T16:07:36.781Z</time></trkpt><trkpt lat="44.4696176" lon="4.524803"><ele>478.6666666666667</ele><time>2026-04-10T16:07:37.783Z</time></trkpt><trkpt lat="44.4695391" lon="4.5247706"><ele>477.33333333333337</ele><time>2026-04-10T16:07:38.781Z</time></trkpt><trkpt lat="44.4694778" lon="4.5247319"><ele>476.0</ele><time>2026-04-10T16:07:39.785Z</time></trkpt><trkpt lat="44.4694204" lon="4.5246932"><ele>474.6666666666667</ele><time>2026-04-10T16:07:40.784Z</time></trkpt><trkpt lat="44.4693382" lon="4.5246144"><ele>473.33333333333337</ele><time>2026-04-10T16:07:42.783Z</time></trkpt><trkpt lat="44.4692878" lon="4.5245435"><ele>472.0</ele><time>2026-04-10T16:07:45.783Z</time></trkpt><trkpt lat="44.4693456" lon="4.5244699"><ele>472.00000000000006</ele><time>2026-04-10T16:07:47.783Z</time></trkpt><trkpt lat="44.4694201" lon="4.5244487"><ele>472.0</ele><time>2026-04-10T16:07:49.785Z</time></trkpt><trkpt lat="44.4694899" lon="4.5244476"><ele>472.0</ele><time>2026-04-10T16:07:51.778Z</time></trkpt><trkpt lat="44.4695803" lon="4.5243763"><ele>472.0</ele><time>2026-04-10T16:07:52.785Z</time></trkpt><trkpt lat="44.4696862" lon="4.5243454"><ele>472.00000000000006</ele><time>2026-04-10T16:07:54.781Z</time></trkpt><trkpt lat="44.4697498" lon="4.524329"><ele>472.0</ele><time>2026-04-10T16:07:55.78Z</time></trkpt><trkpt lat="44.4698138" lon="4.5243204"><ele>476.0</ele><time>2026-04-10T16:07:56.787Z</time></trkpt><trkpt lat="44.4699381" lon="4.5243506"><ele>480.00000000000006</ele><time>2026-04-10T16:07:58.782Z</time></trkpt><trkpt lat="44.4700564" lon="4.5243951"><ele>484.00000000000006</ele><time>2026-04-10T16:08:00.786Z</time></trkpt><trkpt lat="44.4701196" lon="4.5244191"><ele>488.0</ele><time>2026-04-10T16:08:01.789Z</time></trkpt><trkpt lat="44.4702007" lon="4.524412"><ele>492.0</ele><time>2026-04-10T16:08:02.782Z</time></trkpt><trkpt lat="44.4702876" lon="4.5244192"><ele>492.0</ele><time>2026-04-10T16:08:03.789Z</time></trkpt><trkpt lat="44.4703749" lon="4.5244527"><ele>492.00000000000006</ele><time>2026-04-10T16:08:04.786Z</time></trkpt><trkpt lat="44.470478" lon="4.5244913"><ele>492.00000000000006</ele><time>2026-04-10T16:08:05.778Z</time></trkpt><trkpt lat="44.4705828" lon="4.5245328"><ele>492.0</ele><time>2026-04-10T16:08:06.782Z</time></trkpt><trkpt lat="44.4706732" lon="4.5245807"><ele>492.0</ele><time>2026-04-10T16:08:07.782Z</time></trkpt><trkpt lat="44.4707602" lon="4.5246306"><ele>491.3333333333333</ele><time>2026-04-10T16:08:08.778Z</time></trkpt><trkpt lat="44.4708426" lon="4.5246834"><ele>490.66666666666663</ele><time>2026-04-10T16:08:09.78Z</time></trkpt><trkpt lat="44.4709158" lon="4.5247376"><ele>490.0</ele><time>2026-04-10T16:08:10.782Z</time></trkpt><trkpt lat="44.4709729" lon="4.5247903"><ele>489.3333333333333</ele><time>2026-04-10T16:08:11.78Z</time></trkpt><trkpt lat="44.4710437" lon="4.5248622"><ele>488.66666666666663</ele><time>2026-04-10T16:08:13.783Z</time></trkpt><trkpt lat="44.4710472" lon="4.5247698"><ele>488.0</ele><time>2026-04-10T16:08:26.784Z</time></trkpt><trkpt lat="44.4709764" lon="4.5246305"><ele>489.79999999999995</ele><time>2026-04-10T16:08:28.781Z</time></trkpt><trkpt lat="44.4709166" lon="4.5244687"><ele>491.59999999999997</ele><time>2026-04-10T16:08:30.782Z</time></trkpt><trkpt lat="44.470893" lon="4.5243775"><ele>493.40000000000003</ele><time>2026-04-10T16:08:31.778Z</time></trkpt><trkpt lat="44.4708631" lon="4.5242765"><ele>495.20000000000005</ele><time>2026-04-10T16:08:32.781Z</time></trkpt><trkpt lat="44.4708344" lon="4.5241891"><ele>497.0</ele><time>2026-04-10T16:08:33.783Z</time></trkpt><trkpt lat="44.4707872" lon="4.5240055"><ele>496.99999999999994</ele><time>2026-04-10T16:08:35.779Z</time></trkpt><trkpt lat="44.4707713" lon="4.5239106"><ele>497.0</ele><time>2026-04-10T16:08:36.786Z</time></trkpt><trkpt lat="44.4707451" lon="4.5237409"><ele>497.0</ele><time>2026-04-10T16:08:38.787Z</time></trkpt><trkpt lat="44.4707335" lon="4.5235783"><ele>497.0</ele><time>2026-04-10T16:08:40.78Z</time></trkpt><trkpt lat="44.4707252" lon="4.5234845"><ele>496.99999999999994</ele><time>2026-04-10T16:08:41.781Z</time></trkpt><trkpt lat="44.4707155" lon="4.5233925"><ele>497.0</ele><time>2026-04-10T16:08:42.782Z</time></trkpt><trkpt lat="44.4707092" lon="4.52329"><ele>497.2857142857143</ele><time>2026-04-10T16:08:43.783Z</time></trkpt><trkpt lat="44.4707174" lon="4.5231907"><ele>497.57142857142856</ele><time>2026-04-10T16:08:44.784Z</time></trkpt><trkpt lat="44.4707203" lon="4.5230877"><ele>497.8571428571429</ele><time>2026-04-10T16:08:45.782Z</time></trkpt><trkpt lat="44.4707258" lon="4.522981"><ele>498.14285714285717</ele><time>2026-04-10T16:08:46.785Z</time></trkpt><trkpt lat="44.4707318" lon="4.5228752"><ele>498.42857142857144</ele><time>2026-04-10T16:08:47.783Z</time></trkpt><trkpt lat="44.4707319" lon="4.5227806"><ele>498.7142857142858</ele><time>2026-04-10T16:08:48.779Z</time></trkpt><trkpt lat="44.4707382" lon="4.5226864"><ele>499.00000000000006</ele><time>2026-04-10T16:08:49.787Z</time></trkpt><trkpt lat="44.470746" lon="4.5225823"><ele>500.33333333333337</ele><time>2026-04-10T16:08:50.794Z</time></trkpt><trkpt lat="44.4707592" lon="4.5224838"><ele>501.6666666666667</ele><time>2026-04-10T16:08:51.786Z</time></trkpt><trkpt lat="44.470777" lon="4.5223857"><ele>503.0</ele><time>2026-04-10T16:08:52.783Z</time></trkpt><trkpt lat="44.4708042" lon="4.5222899"><ele>504.33333333333337</ele><time>2026-04-10T16:08:53.786Z</time></trkpt><trkpt lat="44.4708253" lon="4.5221986"><ele>505.6666666666667</ele><time>2026-04-10T16:08:54.783Z</time></trkpt><trkpt lat="44.4708429" lon="4.5221108"><ele>507.0</ele><time>2026-04-10T16:08:55.782Z</time></trkpt><trkpt lat="44.4708295" lon="4.5219635"><ele>508.20000000000005</ele><time>2026-04-10T16:08:57.784Z</time></trkpt><trkpt lat="44.4707553" lon="4.5218107"><ele>509.40000000000003</ele><time>2026-04-10T16:08:59.781Z</time></trkpt><trkpt lat="44.4707109" lon="4.5217168"><ele>510.59999999999997</ele><time>2026-04-10T16:09:00.785Z</time></trkpt><trkpt lat="44.4706547" lon="4.5216321"><ele>511.79999999999995</ele><time>2026-04-10T16:09:01.786Z</time></trkpt><trkpt lat="44.470596" lon="4.5215407"><ele>513.0</ele><time>2026-04-10T16:09:02.782Z</time></trkpt><trkpt lat="44.47054" lon="4.5214501"><ele>513.0</ele><time>2026-04-10T16:09:03.782Z</time></trkpt><trkpt lat="44.4704996" lon="4.5213592"><ele>513.0</ele><time>2026-04-10T16:09:04.787Z</time></trkpt><trkpt lat="44.4704686" lon="4.5212696"><ele>513.0</ele><time>2026-04-10T16:09:05.782Z</time></trkpt><trkpt lat="44.4704339" lon="4.521188"><ele>513.0</ele><time>2026-04-10T16:09:06.791Z</time></trkpt><trkpt lat="44.4703596" lon="4.521043"><ele>513.0</ele><time>2026-04-10T16:09:08.785Z</time></trkpt><trkpt lat="44.4702822" lon="4.5208882"><ele>514.1428571428572</ele><time>2026-04-10T16:09:10.784Z</time></trkpt><trkpt lat="44.4702162" lon="4.5208338"><ele>515.2857142857143</ele><time>2026-04-10T16:09:11.783Z</time></trkpt><trkpt lat="44.4701631" lon="4.5207789"><ele>516.4285714285714</ele><time>2026-04-10T16:09:12.783Z</time></trkpt><trkpt lat="44.4701112" lon="4.5207219"><ele>517.5714285714287</ele><time>2026-04-10T16:09:13.783Z</time></trkpt><trkpt lat="44.4700493" lon="4.52066"><ele>518.7142857142858</ele><time>2026-04-10T16:09:14.782Z</time></trkpt><trkpt lat="44.4699822" lon="4.5206082"><ele>519.8571428571429</ele><time>2026-04-10T16:09:15.785Z</time></trkpt><trkpt lat="44.4699201" lon="4.5205504"><ele>521.0</ele><time>2026-04-10T16:09:16.784Z</time></trkpt><trkpt lat="44.4698427" lon="4.5205077"><ele>521.0</ele><time>2026-04-10T16:09:17.782Z</time></trkpt><trkpt lat="44.4697592" lon="4.5204786"><ele>521.0</ele><time>2026-04-10T16:09:18.786Z</time></trkpt><trkpt lat="44.4696782" lon="4.5204661"><ele>521.0</ele><time>2026-04-10T16:09:19.781Z</time></trkpt><trkpt lat="44.4695983" lon="4.5204498"><ele>521.0</ele><time>2026-04-10T16:09:20.776Z</time></trkpt><trkpt lat="44.4695318" lon="4.5204096"><ele>521.0</ele><time>2026-04-10T16:09:21.778Z</time></trkpt><trkpt lat="44.4694705" lon="4.5203575"><ele>521.0</ele><time>2026-04-10T16:09:22.79Z</time></trkpt><trkpt lat="44.4694078" lon="4.5202974"><ele>520.4</ele><time>2026-04-10T16:09:23.789Z</time></trkpt><trkpt lat="44.4693375" lon="4.5202527"><ele>519.8</ele><time>2026-04-10T16:09:24.785Z</time></trkpt><trkpt lat="44.4692527" lon="4.520222"><ele>519.1999999999999</ele><time>2026-04-10T16:09:25.786Z</time></trkpt><trkpt lat="44.4691563" lon="4.5201913"><ele>518.6</ele><time>2026-04-10T16:09:26.784Z</time></trkpt><trkpt lat="44.4690545" lon="4.5201438"><ele>518.0</ele><time>2026-04-10T16:09:27.783Z</time></trkpt><trkpt lat="44.4689583" lon="4.5200896"><ele>518.0</ele><time>2026-04-10T16:09:28.785Z</time></trkpt><trkpt lat="44.4688658" lon="4.5200546"><ele>518.0</ele><time>2026-04-10T16:09:29.785Z</time></trkpt><trkpt lat="44.4687785" lon="4.5200487"><ele>518.0</ele><time>2026-04-10T16:09:30.781Z</time></trkpt><trkpt lat="44.4686849" lon="4.520041"><ele>518.0</ele><time>2026-04-10T16:09:31.783Z</time></trkpt><trkpt lat="44.468595" lon="4.5200138"><ele>518.0</ele><time>2026-04-10T16:09:32.783Z</time></trkpt><trkpt lat="44.4685015" lon="4.5199627"><ele>517.6</ele><time>2026-04-10T16:09:33.788Z</time></trkpt><trkpt lat="44.4683942" lon="4.5199064"><ele>517.1999999999999</ele><time>2026-04-10T16:09:34.789Z</time></trkpt><trkpt lat="44.4683041" lon="4.5198651"><ele>516.8</ele><time>2026-04-10T16:09:35.786Z</time></trkpt><trkpt lat="44.4682002" lon="4.5198458"><ele>516.4</ele><time>2026-04-10T16:09:36.78Z</time></trkpt><trkpt lat="44.4681008" lon="4.5198246"><ele>516.0</ele><time>2026-04-10T16:09:37.779Z</time></trkpt><trkpt lat="44.4680093" lon="4.5197996"><ele>514.0</ele><time>2026-04-10T16:09:38.779Z</time></trkpt><trkpt lat="44.4679186" lon="4.5197583"><ele>512.0</ele><time>2026-04-10T16:09:39.785Z</time></trkpt><trkpt lat="44.4678273" lon="4.5197071"><ele>510.0</ele><time>2026-04-10T16:09:40.785Z</time></trkpt><trkpt lat="44.4677091" lon="4.5196626"><ele>508.0</ele><time>2026-04-10T16:09:41.78Z</time></trkpt><trkpt lat="44.4675857" lon="4.5196099"><ele>506.0</ele><time>2026-04-10T16:09:42.782Z</time></trkpt><trkpt lat="44.4674593" lon="4.5195605"><ele>506.0</ele><time>2026-04-10T16:09:43.785Z</time></trkpt><trkpt lat="44.4673326" lon="4.5195172"><ele>506.0</ele><time>2026-04-10T16:09:44.781Z</time></trkpt><trkpt lat="44.4672105" lon="4.5194851"><ele>506.0</ele><time>2026-04-10T16:09:45.781Z</time></trkpt><trkpt lat="44.4670901" lon="4.5194524"><ele>506.0</ele><time>2026-04-10T16:09:46.783Z</time></trkpt><trkpt lat="44.4669796" lon="4.5194234"><ele>506.75</ele><time>2026-04-10T16:09:47.785Z</time></trkpt><trkpt lat="44.4668686" lon="4.5193789"><ele>507.5</ele><time>2026-04-10T16:09:48.783Z</time></trkpt><trkpt lat="44.4667508" lon="4.5193407"><ele>508.25</ele><time>2026-04-10T16:09:49.785Z</time></trkpt><trkpt lat="44.4666402" lon="4.5192974"><ele>509.0</ele><time>2026-04-10T16:09:50.786Z</time></trkpt><trkpt lat="44.4665365" lon="4.51925"><ele>509.0</ele><time>2026-04-10T16:09:51.789Z</time></trkpt><trkpt lat="44.4664405" lon="4.519199"><ele>509.0</ele><time>2026-04-10T16:09:52.782Z</time></trkpt><trkpt lat="44.4663435" lon="4.5191399"><ele>509.0</ele><time>2026-04-10T16:09:53.781Z</time></trkpt><trkpt lat="44.4662509" lon="4.5190848"><ele>509.0</ele><time>2026-04-10T16:09:54.781Z</time></trkpt><trkpt lat="44.4661682" lon="4.5190241"><ele>509.0</ele><time>2026-04-10T16:09:55.783Z</time></trkpt><trkpt lat="44.4660865" lon="4.5190088"><ele>509.16666666666663</ele><time>2026-04-10T16:09:56.784Z</time></trkpt><trkpt lat="44.466004" lon="4.5190134"><ele>509.3333333333333</ele><time>2026-04-10T16:09:57.779Z</time></trkpt><trkpt lat="44.4659174" lon="4.5190318"><ele>509.5</ele><time>2026-04-10T16:09:58.782Z</time></trkpt><trkpt lat="44.4658282" lon="4.5190574"><ele>509.66666666666663</ele><time>2026-04-10T16:09:59.786Z</time></trkpt><trkpt lat="44.4657423" lon="4.5191221"><ele>509.8333333333333</ele><time>2026-04-10T16:10:00.786Z</time></trkpt><trkpt lat="44.4656707" lon="4.5191934"><ele>510.0</ele><time>2026-04-10T16:10:01.791Z</time></trkpt><trkpt lat="44.4656232" lon="4.5192794"><ele>510.0</ele><time>2026-04-10T16:10:02.791Z</time></trkpt><trkpt lat="44.4655763" lon="4.5193596"><ele>510.0</ele><time>2026-04-10T16:10:03.783Z</time></trkpt><trkpt lat="44.4654818" lon="4.5194622"><ele>510.0</ele><time>2026-04-10T16:10:05.787Z</time></trkpt><trkpt lat="44.4653866" lon="4.5194377"><ele>510.0</ele><time>2026-04-10T16:10:07.787Z</time></trkpt><trkpt lat="44.4653096" lon="4.519425"><ele>510.0</ele><time>2026-04-10T16:10:09.778Z</time></trkpt><trkpt lat="44.4652393" lon="4.5193966"><ele>510.0</ele><time>2026-04-10T16:10:11.786Z</time></trkpt><trkpt lat="44.4653532" lon="4.5192263"><ele>510.0</ele><time>2026-04-10T16:10:18.782Z</time></trkpt><trkpt lat="44.4654159" lon="4.5191707"><ele>510.0</ele><time>2026-04-10T16:10:19.783Z</time></trkpt><trkpt lat="44.4654908" lon="4.5191095"><ele>510.0</ele><time>2026-04-10T16:10:20.784Z</time></trkpt><trkpt lat="44.4655744" lon="4.5190333"><ele>510.0</ele><time>2026-04-10T16:10:21.784Z</time></trkpt><trkpt lat="44.4656454" lon="4.5189538"><ele>510.0</ele><time>2026-04-10T16:10:22.781Z</time></trkpt><trkpt lat="44.4657201" lon="4.5188486"><ele>510.0</ele><time>2026-04-10T16:10:23.782Z</time></trkpt><trkpt lat="44.4657908" lon="4.5187456"><ele>510.0</ele><time>2026-04-10T16:10:24.781Z</time></trkpt><trkpt lat="44.4658563" lon="4.518643"><ele>510.0</ele><time>2026-04-10T16:10:25.782Z</time></trkpt><trkpt lat="44.4659226" lon="4.5185524"><ele>510.0</ele><time>2026-04-10T16:10:26.781Z</time></trkpt><trkpt lat="44.4659862" lon="4.5184571"><ele>510.0</ele><time>2026-04-10T16:10:27.78Z</time></trkpt><trkpt lat="44.4660477" lon="4.5183845"><ele>508.0</ele><time>2026-04-10T16:10:28.785Z</time></trkpt><trkpt lat="44.4661089" lon="4.518343"><ele>506.0</ele><time>2026-04-10T16:10:29.78Z</time></trkpt><trkpt lat="44.4661839" lon="4.5183415"><ele>504.0</ele><time>2026-04-10T16:10:30.778Z</time></trkpt><trkpt lat="44.4662987" lon="4.5184412"><ele>502.0</ele><time>2026-04-10T16:10:32.784Z</time></trkpt><trkpt lat="44.4663602" lon="4.5185011"><ele>500.0</ele><time>2026-04-10T16:10:33.781Z</time></trkpt><trkpt lat="44.466419" lon="4.5185761"><ele>498.0</ele><time>2026-04-10T16:10:34.786Z</time></trkpt><trkpt lat="44.4664773" lon="4.5186428"><ele>497.3333333333333</ele><time>2026-04-10T16:10:35.79Z</time></trkpt><trkpt lat="44.4665412" lon="4.5187056"><ele>496.66666666666663</ele><time>2026-04-10T16:10:36.785Z</time></trkpt><trkpt lat="44.4666261" lon="4.5187657"><ele>496.0</ele><time>2026-04-10T16:10:37.788Z</time></trkpt><trkpt lat="44.4667194" lon="4.5188073"><ele>495.3333333333333</ele><time>2026-04-10T16:10:38.78Z</time></trkpt><trkpt lat="44.4667873" lon="4.5188558"><ele>494.66666666666663</ele><time>2026-04-10T16:10:39.782Z</time></trkpt><trkpt lat="44.4668777" lon="4.5188889"><ele>494.0</ele><time>2026-04-10T16:10:40.78Z</time></trkpt><trkpt lat="44.4669765" lon="4.5189169"><ele>496.4</ele><time>2026-04-10T16:10:41.782Z</time></trkpt><trkpt lat="44.4670702" lon="4.5189319"><ele>498.79999999999995</ele><time>2026-04-10T16:10:42.787Z</time></trkpt><trkpt lat="44.4671744" lon="4.5189355"><ele>501.20000000000005</ele><time>2026-04-10T16:10:43.779Z</time></trkpt><trkpt lat="44.4672719" lon="4.5189408"><ele>503.6</ele><time>2026-04-10T16:10:44.784Z</time></trkpt><trkpt lat="44.4673694" lon="4.5189448"><ele>506.0</ele><time>2026-04-10T16:10:45.785Z</time></trkpt><trkpt lat="44.4674908" lon="4.5189556"><ele>506.0</ele><time>2026-04-10T16:10:46.781Z</time></trkpt><trkpt lat="44.4675933" lon="4.5189532"><ele>506.0</ele><time>2026-04-10T16:10:47.789Z</time></trkpt><trkpt lat="44.4676965" lon="4.5189557"><ele>506.0</ele><time>2026-04-10T16:10:48.786Z</time></trkpt><trkpt lat="44.4678019" lon="4.5189509"><ele>506.0</ele><time>2026-04-10T16:10:49.782Z</time></trkpt><trkpt lat="44.4678949" lon="4.5189373"><ele>506.0</ele><time>2026-04-10T16:10:50.784Z</time></trkpt><trkpt lat="44.467992" lon="4.5189084"><ele>506.4</ele><time>2026-04-10T16:10:51.779Z</time></trkpt><trkpt lat="44.4680787" lon="4.5188673"><ele>506.8</ele><time>2026-04-10T16:10:52.784Z</time></trkpt><trkpt lat="44.4681653" lon="4.5188238"><ele>507.19999999999993</ele><time>2026-04-10T16:10:53.781Z</time></trkpt><trkpt lat="44.4682507" lon="4.5187543"><ele>507.59999999999997</ele><time>2026-04-10T16:10:54.78Z</time></trkpt><trkpt lat="44.4683267" lon="4.5186838"><ele>508.0</ele><time>2026-04-10T16:10:55.78Z</time></trkpt><trkpt lat="44.4683966" lon="4.5185941"><ele>504.00000000000006</ele><time>2026-04-10T16:10:56.781Z</time></trkpt><trkpt lat="44.4684718" lon="4.5185171"><ele>500.0</ele><time>2026-04-10T16:10:57.782Z</time></trkpt><trkpt lat="44.4685391" lon="4.5184332"><ele>496.0</ele><time>2026-04-10T16:10:58.783Z</time></trkpt><trkpt lat="44.4686144" lon="4.5183668"><ele>492.0</ele><time>2026-04-10T16:10:59.781Z</time></trkpt><trkpt lat="44.468681" lon="4.5182887"><ele>488.00000000000006</ele><time>2026-04-10T16:11:00.783Z</time></trkpt><trkpt lat="44.4687483" lon="4.5182316"><ele>484.0</ele><time>2026-04-10T16:11:01.781Z</time></trkpt><trkpt lat="44.4688238" lon="4.518198"><ele>484.00000000000006</ele><time>2026-04-10T16:11:02.786Z</time></trkpt><trkpt lat="44.4688892" lon="4.518191"><ele>484.0</ele><time>2026-04-10T16:11:03.783Z</time></trkpt><trkpt lat="44.4689886" lon="4.5182504"><ele>484.0</ele><time>2026-04-10T16:11:05.781Z</time></trkpt><trkpt lat="44.4690469" lon="4.5183131"><ele>484.0</ele><time>2026-04-10T16:11:06.786Z</time></trkpt><trkpt lat="44.4691054" lon="4.5184062"><ele>484.00000000000006</ele><time>2026-04-10T16:11:07.785Z</time></trkpt><trkpt lat="44.4691693" lon="4.5185075"><ele>484.0</ele><time>2026-04-10T16:11:08.783Z</time></trkpt><trkpt lat="44.4692356" lon="4.5185955"><ele>484.00000000000006</ele><time>2026-04-10T16:11:09.78Z</time></trkpt><trkpt lat="44.4693062" lon="4.5186766"><ele>484.0</ele><time>2026-04-10T16:11:10.783Z</time></trkpt><trkpt lat="44.4693739" lon="4.5187563"><ele>484.0</ele><time>2026-04-10T16:11:11.785Z</time></trkpt><trkpt lat="44.4694469" lon="4.518805"><ele>484.0</ele><time>2026-04-10T16:11:12.783Z</time></trkpt><trkpt lat="44.4695351" lon="4.5188308"><ele>484.00000000000006</ele><time>2026-04-10T16:11:13.783Z</time></trkpt><trkpt lat="44.46963" lon="4.5188547"><ele>484.0</ele><time>2026-04-10T16:11:14.779Z</time></trkpt><trkpt lat="44.4697153" lon="4.5188674"><ele>485.4</ele><time>2026-04-10T16:11:15.778Z</time></trkpt><trkpt lat="44.4698061" lon="4.5188629"><ele>486.79999999999995</ele><time>2026-04-10T16:11:16.779Z</time></trkpt><trkpt lat="44.4699235" lon="4.5188359"><ele>488.20000000000005</ele><time>2026-04-10T16:11:17.778Z</time></trkpt><trkpt lat="44.4700235" lon="4.5187961"><ele>489.6</ele><time>2026-04-10T16:11:18.784Z</time></trkpt><trkpt lat="44.4701119" lon="4.5187487"><ele>491.0</ele><time>2026-04-10T16:11:19.78Z</time></trkpt><trkpt lat="44.4701983" lon="4.5187038"><ele>487.8</ele><time>2026-04-10T16:11:20.781Z</time></trkpt><trkpt lat="44.4702977" lon="4.5186502"><ele>484.6</ele><time>2026-04-10T16:11:21.783Z</time></trkpt><trkpt lat="44.4703942" lon="4.5185879"><ele>481.4</ele><time>2026-04-10T16:11:22.781Z</time></trkpt><trkpt lat="44.4704804" lon="4.5185197"><ele>478.2</ele><time>2026-04-10T16:11:23.786Z</time></trkpt><trkpt lat="44.4705513" lon="4.5184643"><ele>475.0</ele><time>2026-04-10T16:11:24.782Z</time></trkpt><trkpt lat="44.4706152" lon="4.5184017"><ele>475.00000000000006</ele><time>2026-04-10T16:11:25.78Z</time></trkpt><trkpt lat="44.4706765" lon="4.5183395"><ele>475.0</ele><time>2026-04-10T16:11:26.785Z</time></trkpt><trkpt lat="44.4707336" lon="4.5182799"><ele>475.0</ele><time>2026-04-10T16:11:27.78Z</time></trkpt><trkpt lat="44.4707961" lon="4.5182183"><ele>475.0</ele><time>2026-04-10T16:11:28.779Z</time></trkpt><trkpt lat="44.4708637" lon="4.5181582"><ele>475.00000000000006</ele><time>2026-04-10T16:11:29.778Z</time></trkpt><trkpt lat="44.4709231" lon="4.5181102"><ele>475.0</ele><time>2026-04-10T16:11:30.779Z</time></trkpt><trkpt lat="44.4710102" lon="4.5180064"><ele>475.00000000000006</ele><time>2026-04-10T16:11:32.782Z</time></trkpt><trkpt lat="44.471111" lon="4.5179085"><ele>475.0</ele><time>2026-04-10T16:11:34.784Z</time></trkpt><trkpt lat="44.4711675" lon="4.5178552"><ele>475.0</ele><time>2026-04-10T16:11:35.783Z</time></trkpt><trkpt lat="44.4712209" lon="4.5177846"><ele>475.0</ele><time>2026-04-10T16:11:36.781Z</time></trkpt><trkpt lat="44.4712798" lon="4.5177112"><ele>475.00000000000006</ele><time>2026-04-10T16:11:37.785Z</time></trkpt><trkpt lat="44.4713329" lon="4.5176342"><ele>475.0</ele><time>2026-04-10T16:11:38.783Z</time></trkpt><trkpt lat="44.4713649" lon="4.517557"><ele>474.33333333333337</ele><time>2026-04-10T16:11:39.779Z</time></trkpt><trkpt lat="44.4714066" lon="4.5174802"><ele>473.6666666666667</ele><time>2026-04-10T16:11:40.782Z</time></trkpt><trkpt lat="44.4714587" lon="4.5174118"><ele>473.0</ele><time>2026-04-10T16:11:41.78Z</time></trkpt><trkpt lat="44.4715117" lon="4.51734"><ele>472.33333333333337</ele><time>2026-04-10T16:11:42.779Z</time></trkpt><trkpt lat="44.4715584" lon="4.5172597"><ele>471.6666666666667</ele><time>2026-04-10T16:11:43.782Z</time></trkpt><trkpt lat="44.4715963" lon="4.5171438"><ele>471.0</ele><time>2026-04-10T16:11:44.785Z</time></trkpt><trkpt lat="44.4716328" lon="4.5170243"><ele>467.6666666666667</ele><time>2026-04-10T16:11:45.782Z</time></trkpt><trkpt lat="44.4716695" lon="4.5169205"><ele>464.33333333333337</ele><time>2026-04-10T16:11:46.78Z</time></trkpt><trkpt lat="44.4717266" lon="4.5168114"><ele>461.0</ele><time>2026-04-10T16:11:47.789Z</time></trkpt><trkpt lat="44.4717841" lon="4.5167112"><ele>457.6666666666667</ele><time>2026-04-10T16:11:48.785Z</time></trkpt><trkpt lat="44.4718274" lon="4.5165985"><ele>454.33333333333337</ele><time>2026-04-10T16:11:49.783Z</time></trkpt><trkpt lat="44.4718619" lon="4.5164934"><ele>451.0</ele><time>2026-04-10T16:11:50.783Z</time></trkpt><trkpt lat="44.4718984" lon="4.5163832"><ele>451.00000000000006</ele><time>2026-04-10T16:11:51.787Z</time></trkpt><trkpt lat="44.4719287" lon="4.516267"><ele>451.0</ele><time>2026-04-10T16:11:52.786Z</time></trkpt><trkpt lat="44.4719469" lon="4.5161584"><ele>451.0</ele><time>2026-04-10T16:11:53.784Z</time></trkpt><trkpt lat="44.4719796" lon="4.5160545"><ele>451.0</ele><time>2026-04-10T16:11:54.784Z</time></trkpt><trkpt lat="44.4720195" lon="4.5159495"><ele>451.00000000000006</ele><time>2026-04-10T16:11:55.778Z</time></trkpt><trkpt lat="44.4720565" lon="4.515838"><ele>451.0</ele><time>2026-04-10T16:11:56.781Z</time></trkpt><trkpt lat="44.4720817" lon="4.5156897"><ele>449.4</ele><time>2026-04-10T16:11:57.782Z</time></trkpt><trkpt lat="44.4721035" lon="4.5155523"><ele>447.8</ele><time>2026-04-10T16:11:58.781Z</time></trkpt><trkpt lat="44.4721256" lon="4.5154102"><ele>446.19999999999993</ele><time>2026-04-10T16:11:59.783Z</time></trkpt><trkpt lat="44.4721328" lon="4.5152537"><ele>444.59999999999997</ele><time>2026-04-10T16:12:00.781Z</time></trkpt><trkpt lat="44.4721348" lon="4.5150808"><ele>443.0</ele><time>2026-04-10T16:12:01.791Z</time></trkpt><trkpt lat="44.4721318" lon="4.5149186"><ele>441.75</ele><time>2026-04-10T16:12:02.788Z</time></trkpt><trkpt lat="44.4721159" lon="4.5147483"><ele>440.5</ele><time>2026-04-10T16:12:03.785Z</time></trkpt><trkpt lat="44.4721" lon="4.5145731"><ele>439.25</ele><time>2026-04-10T16:12:04.787Z</time></trkpt><trkpt lat="44.472093" lon="4.5144022"><ele>438.0</ele><time>2026-04-10T16:12:05.781Z</time></trkpt><trkpt lat="44.4720848" lon="4.5142494"><ele>437.0</ele><time>2026-04-10T16:12:06.779Z</time></trkpt><trkpt lat="44.4720677" lon="4.5140994"><ele>436.0</ele><time>2026-04-10T16:12:07.782Z</time></trkpt><trkpt lat="44.4720468" lon="4.5139406"><ele>435.0</ele><time>2026-04-10T16:12:08.786Z</time></trkpt><trkpt lat="44.47201" lon="4.5137728"><ele>434.0</ele><time>2026-04-10T16:12:09.818Z</time></trkpt><trkpt lat="44.4719748" lon="4.5136224"><ele>434.0</ele><time>2026-04-10T16:12:10.786Z</time></trkpt><trkpt lat="44.4719378" lon="4.5134785"><ele>434.0</ele><time>2026-04-10T16:12:11.782Z</time></trkpt><trkpt lat="44.471907" lon="4.5133461"><ele>434.0</ele><time>2026-04-10T16:12:12.782Z</time></trkpt><trkpt lat="44.4718793" lon="4.5132278"><ele>434.0</ele><time>2026-04-10T16:12:13.783Z</time></trkpt><trkpt lat="44.471847" lon="4.5131044"><ele>434.0</ele><time>2026-04-10T16:12:14.784Z</time></trkpt><trkpt lat="44.4718148" lon="4.5129895"><ele>435.2</ele><time>2026-04-10T16:12:15.785Z</time></trkpt><trkpt lat="44.4717816" lon="4.5128696"><ele>436.4</ele><time>2026-04-10T16:12:16.78Z</time></trkpt><trkpt lat="44.4717495" lon="4.5127489"><ele>437.6</ele><time>2026-04-10T16:12:17.784Z</time></trkpt><trkpt lat="44.4717186" lon="4.5126241"><ele>438.8</ele><time>2026-04-10T16:12:18.784Z</time></trkpt><trkpt lat="44.4716984" lon="4.5125024"><ele>440.0</ele><time>2026-04-10T16:12:19.786Z</time></trkpt><trkpt lat="44.4716732" lon="4.5123846"><ele>439.99999999999994</ele><time>2026-04-10T16:12:20.792Z</time></trkpt><trkpt lat="44.4716417" lon="4.5122658"><ele>440.0</ele><time>2026-04-10T16:12:21.782Z</time></trkpt><trkpt lat="44.4716087" lon="4.5121484"><ele>440.0</ele><time>2026-04-10T16:12:22.783Z</time></trkpt><trkpt lat="44.4715872" lon="4.5120347"><ele>440.0</ele><time>2026-04-10T16:12:23.787Z</time></trkpt><trkpt lat="44.4715573" lon="4.5119342"><ele>439.99999999999994</ele><time>2026-04-10T16:12:24.783Z</time></trkpt><trkpt lat="44.4715269" lon="4.5118386"><ele>440.0</ele><time>2026-04-10T16:12:25.784Z</time></trkpt><trkpt lat="44.4715053" lon="4.5117422"><ele>439.8333333333333</ele><time>2026-04-10T16:12:26.785Z</time></trkpt><trkpt lat="44.4714781" lon="4.5116436"><ele>439.66666666666663</ele><time>2026-04-10T16:12:27.786Z</time></trkpt><trkpt lat="44.4714536" lon="4.5115479"><ele>439.5</ele><time>2026-04-10T16:12:28.778Z</time></trkpt><trkpt lat="44.4714184" lon="4.5114347"><ele>439.33333333333337</ele><time>2026-04-10T16:12:29.781Z</time></trkpt><trkpt lat="44.4713785" lon="4.5113125"><ele>439.1666666666667</ele><time>2026-04-10T16:12:30.783Z</time></trkpt><trkpt lat="44.4713439" lon="4.5112001"><ele>439.0</ele><time>2026-04-10T16:12:31.778Z</time></trkpt><trkpt lat="44.47131" lon="4.5111134"><ele>437.50000000000006</ele><time>2026-04-10T16:12:32.785Z</time></trkpt><trkpt lat="44.4712773" lon="4.5110095"><ele>436.0</ele><time>2026-04-10T16:12:33.781Z</time></trkpt><trkpt lat="44.4712371" lon="4.5108911"><ele>434.5</ele><time>2026-04-10T16:12:34.782Z</time></trkpt><trkpt lat="44.4711953" lon="4.5107707"><ele>433.0</ele><time>2026-04-10T16:12:35.781Z</time></trkpt><trkpt lat="44.4711612" lon="4.5106715"><ele>431.50000000000006</ele><time>2026-04-10T16:12:36.781Z</time></trkpt><trkpt lat="44.4711221" lon="4.5105678"><ele>430.0</ele><time>2026-04-10T16:12:37.782Z</time></trkpt><trkpt lat="44.4710933" lon="4.5104533"><ele>428.83333333333337</ele><time>2026-04-10T16:12:38.778Z</time></trkpt><trkpt lat="44.4710601" lon="4.5103384"><ele>427.6666666666667</ele><time>2026-04-10T16:12:39.779Z</time></trkpt><trkpt lat="44.4710235" lon="4.5102054"><ele>426.5</ele><time>2026-04-10T16:12:40.783Z</time></trkpt><trkpt lat="44.4709691" lon="4.5100993"><ele>425.33333333333337</ele><time>2026-04-10T16:12:41.792Z</time></trkpt><trkpt lat="44.4709261" lon="4.5099999"><ele>424.1666666666667</ele><time>2026-04-10T16:12:42.786Z</time></trkpt><trkpt lat="44.4708782" lon="4.5099121"><ele>423.0</ele><time>2026-04-10T16:12:43.782Z</time></trkpt><trkpt lat="44.4708366" lon="4.5098153"><ele>423.0</ele><time>2026-04-10T16:12:44.779Z</time></trkpt><trkpt lat="44.4707999" lon="4.5097054"><ele>423.0</ele><time>2026-04-10T16:12:45.78Z</time></trkpt><trkpt lat="44.4707643" lon="4.5096112"><ele>423.0</ele><time>2026-04-10T16:12:46.785Z</time></trkpt><trkpt lat="44.4707278" lon="4.5095102"><ele>423.0</ele><time>2026-04-10T16:12:47.779Z</time></trkpt><trkpt lat="44.4706826" lon="4.5094133"><ele>423.0</ele><time>2026-04-10T16:12:48.783Z</time></trkpt><trkpt lat="44.4706368" lon="4.5093203"><ele>423.0</ele><time>2026-04-10T16:12:49.784Z</time></trkpt><trkpt lat="44.4705996" lon="4.509227"><ele>422.8333333333333</ele><time>2026-04-10T16:12:50.778Z</time></trkpt><trkpt lat="44.4705697" lon="4.5091376"><ele>422.66666666666663</ele><time>2026-04-10T16:12:51.779Z</time></trkpt><trkpt lat="44.4705431" lon="4.5089909"><ele>422.5</ele><time>2026-04-10T16:12:53.785Z</time></trkpt><trkpt lat="44.4705256" lon="4.5089059"><ele>422.3333333333333</ele><time>2026-04-10T16:12:54.786Z</time></trkpt><trkpt lat="44.4705027" lon="4.5087524"><ele>422.16666666666663</ele><time>2026-04-10T16:12:56.783Z</time></trkpt><trkpt lat="44.4705136" lon="4.508661"><ele>422.0</ele><time>2026-04-10T16:12:57.782Z</time></trkpt><trkpt lat="44.4705343" lon="4.5085768"><ele>420.42857142857144</ele><time>2026-04-10T16:12:58.786Z</time></trkpt><trkpt lat="44.4705774" lon="4.5085055"><ele>418.8571428571429</ele><time>2026-04-10T16:12:59.782Z</time></trkpt><trkpt lat="44.4706211" lon="4.5084351"><ele>417.2857142857143</ele><time>2026-04-10T16:13:00.781Z</time></trkpt><trkpt lat="44.47072" lon="4.5083739"><ele>415.7142857142857</ele><time>2026-04-10T16:13:02.779Z</time></trkpt><trkpt lat="44.4707801" lon="4.5083446"><ele>414.1428571428571</ele><time>2026-04-10T16:13:03.782Z</time></trkpt><trkpt lat="44.4708456" lon="4.5083353"><ele>412.57142857142856</ele><time>2026-04-10T16:13:04.779Z</time></trkpt><trkpt lat="44.4709214" lon="4.5083466"><ele>411.0</ele><time>2026-04-10T16:13:05.782Z</time></trkpt><trkpt lat="44.471015" lon="4.5083617"><ele>411.0</ele><time>2026-04-10T16:13:06.781Z</time></trkpt><trkpt lat="44.4711084" lon="4.5083645"><ele>411.0</ele><time>2026-04-10T16:13:07.784Z</time></trkpt><trkpt lat="44.4711835" lon="4.5083583"><ele>411.0</ele><time>2026-04-10T16:13:08.787Z</time></trkpt><trkpt lat="44.4712626" lon="4.5083351"><ele>411.0</ele><time>2026-04-10T16:13:09.781Z</time></trkpt><trkpt lat="44.4713337" lon="4.5082947"><ele>411.0</ele><time>2026-04-10T16:13:10.78Z</time></trkpt><trkpt lat="44.471409" lon="4.5082441"><ele>411.0</ele><time>2026-04-10T16:13:11.781Z</time></trkpt><trkpt lat="44.4714721" lon="4.5081833"><ele>411.0</ele><time>2026-04-10T16:13:12.783Z</time></trkpt><trkpt lat="44.4715282" lon="4.5081194"><ele>411.0</ele><time>2026-04-10T16:13:13.781Z</time></trkpt><trkpt lat="44.4715839" lon="4.5080358"><ele>411.0</ele><time>2026-04-10T16:13:14.783Z</time></trkpt><trkpt lat="44.4716336" lon="4.5079629"><ele>411.0</ele><time>2026-04-10T16:13:15.782Z</time></trkpt><trkpt lat="44.4716768" lon="4.5078869"><ele>411.0</ele><time>2026-04-10T16:13:16.779Z</time></trkpt><trkpt lat="44.4717216" lon="4.5078034"><ele>411.0</ele><time>2026-04-10T16:13:17.781Z</time></trkpt><trkpt lat="44.4717623" lon="4.5077074"><ele>411.0</ele><time>2026-04-10T16:13:18.784Z</time></trkpt><trkpt lat="44.4718025" lon="4.5076202"><ele>408.6666666666667</ele><time>2026-04-10T16:13:19.781Z</time></trkpt><trkpt lat="44.4718393" lon="4.5075369"><ele>406.33333333333337</ele><time>2026-04-10T16:13:20.78Z</time></trkpt><trkpt lat="44.4718698" lon="4.5074528"><ele>404.0</ele><time>2026-04-10T16:13:21.783Z</time></trkpt><trkpt lat="44.4718996" lon="4.5073665"><ele>401.6666666666667</ele><time>2026-04-10T16:13:22.78Z</time></trkpt><trkpt lat="44.4719337" lon="4.5072814"><ele>399.33333333333337</ele><time>2026-04-10T16:13:23.782Z</time></trkpt><trkpt lat="44.4719789" lon="4.5071196"><ele>397.0</ele><time>2026-04-10T16:13:25.779Z</time></trkpt><trkpt lat="44.4720043" lon="4.5070267"><ele>396.6</ele><time>2026-04-10T16:13:26.781Z</time></trkpt><trkpt lat="44.4720599" lon="4.5068732"><ele>396.20000000000005</ele><time>2026-04-10T16:13:28.777Z</time></trkpt><trkpt lat="44.4721358" lon="4.5067096"><ele>395.8</ele><time>2026-04-10T16:13:30.78Z</time></trkpt><trkpt lat="44.4721987" lon="4.5066291"><ele>395.4</ele><time>2026-04-10T16:13:31.784Z</time></trkpt><trkpt lat="44.472257" lon="4.5065357"><ele>395.0</ele><time>2026-04-10T16:13:32.78Z</time></trkpt><trkpt lat="44.4723283" lon="4.5064451"><ele>395.0</ele><time>2026-04-10T16:13:33.78Z</time></trkpt><trkpt lat="44.4723917" lon="4.5063376"><ele>395.0</ele><time>2026-04-10T16:13:34.779Z</time></trkpt><trkpt lat="44.4724535" lon="4.5062425"><ele>395.0</ele><time>2026-04-10T16:13:35.787Z</time></trkpt><trkpt lat="44.4725225" lon="4.5061568"><ele>395.0</ele><time>2026-04-10T16:13:36.778Z</time></trkpt><trkpt lat="44.4725847" lon="4.5060682"><ele>395.0</ele><time>2026-04-10T16:13:37.781Z</time></trkpt><trkpt lat="44.4726472" lon="4.5059742"><ele>393.3333333333333</ele><time>2026-04-10T16:13:38.775Z</time></trkpt><trkpt lat="44.4727057" lon="4.5058814"><ele>391.66666666666663</ele><time>2026-04-10T16:13:39.778Z</time></trkpt><trkpt lat="44.4727639" lon="4.5058067"><ele>390.0</ele><time>2026-04-10T16:13:40.777Z</time></trkpt><trkpt lat="44.472818" lon="4.5057442"><ele>388.33333333333337</ele><time>2026-04-10T16:13:41.782Z</time></trkpt><trkpt lat="44.4728753" lon="4.5056768"><ele>386.6666666666667</ele><time>2026-04-10T16:13:42.78Z</time></trkpt><trkpt lat="44.472924" lon="4.5056004"><ele>385.0</ele><time>2026-04-10T16:13:43.783Z</time></trkpt><trkpt lat="44.47301" lon="4.505525"><ele>384.33333333333337</ele><time>2026-04-10T16:13:45.779Z</time></trkpt><trkpt lat="44.4730695" lon="4.5054818"><ele>383.6666666666667</ele><time>2026-04-10T16:13:47.789Z</time></trkpt><trkpt lat="44.4730988" lon="4.5055711"><ele>383.0</ele><time>2026-04-10T16:14:31.786Z</time></trkpt><trkpt lat="44.4731359" lon="4.5057339"><ele>382.33333333333337</ele><time>2026-04-10T16:14:34.783Z</time></trkpt><trkpt lat="44.4731562" lon="4.5058384"><ele>381.6666666666667</ele><time>2026-04-10T16:14:35.778Z</time></trkpt><trkpt lat="44.4731759" lon="4.5059488"><ele>381.0</ele><time>2026-04-10T16:14:36.787Z</time></trkpt><trkpt lat="44.4731638" lon="4.5060863"><ele>381.0</ele><time>2026-04-10T16:14:37.784Z</time></trkpt><trkpt lat="44.473183" lon="4.5061868"><ele>381.0</ele><time>2026-04-10T16:14:38.783Z</time></trkpt><trkpt lat="44.473207" lon="4.5062772"><ele>381.0</ele><time>2026-04-10T16:14:39.779Z</time></trkpt><trkpt lat="44.4732246" lon="4.5063684"><ele>381.0</ele><time>2026-04-10T16:14:40.779Z</time></trkpt><trkpt lat="44.4732395" lon="4.5064669"><ele>381.0</ele><time>2026-04-10T16:14:41.78Z</time></trkpt><trkpt lat="44.47324" lon="4.5065672"><ele>381.0</ele><time>2026-04-10T16:14:42.786Z</time></trkpt><trkpt lat="44.4732473" lon="4.5067337"><ele>380.6</ele><time>2026-04-10T16:14:44.782Z</time></trkpt><trkpt lat="44.4732356" lon="4.5069084"><ele>380.20000000000005</ele><time>2026-04-10T16:14:46.782Z</time></trkpt><trkpt lat="44.4732121" lon="4.5070063"><ele>379.79999999999995</ele><time>2026-04-10T16:14:47.783Z</time></trkpt><trkpt lat="44.4731935" lon="4.5071131"><ele>379.4</ele><time>2026-04-10T16:14:48.784Z</time></trkpt><trkpt lat="44.4731467" lon="4.507263"><ele>379.0</ele><time>2026-04-10T16:14:49.779Z</time></trkpt><trkpt lat="44.4730922" lon="4.5074171"><ele>377.3333333333333</ele><time>2026-04-10T16:14:50.782Z</time></trkpt><trkpt lat="44.4730429" lon="4.5075552"><ele>375.66666666666663</ele><time>2026-04-10T16:14:51.779Z</time></trkpt><trkpt lat="44.4730046" lon="4.5076574"><ele>374.0</ele><time>2026-04-10T16:14:52.78Z</time></trkpt><trkpt lat="44.472958" lon="4.5077451"><ele>372.3333333333333</ele><time>2026-04-10T16:14:53.783Z</time></trkpt><trkpt lat="44.4729215" lon="4.5078443"><ele>370.6666666666667</ele><time>2026-04-10T16:14:54.777Z</time></trkpt><trkpt lat="44.4728974" lon="4.5079443"><ele>369.0</ele><time>2026-04-10T16:14:55.779Z</time></trkpt><trkpt lat="44.4728921" lon="4.5080611"><ele>373.3333333333333</ele><time>2026-04-10T16:14:56.781Z</time></trkpt><trkpt lat="44.4728821" lon="4.5081823"><ele>377.66666666666663</ele><time>2026-04-10T16:14:57.789Z</time></trkpt><trkpt lat="44.4728731" lon="4.5083046"><ele>382.0</ele><time>2026-04-10T16:14:58.78Z</time></trkpt><trkpt lat="44.4728754" lon="4.5084337"><ele>386.3333333333333</ele><time>2026-04-10T16:14:59.779Z</time></trkpt><trkpt lat="44.472872" lon="4.5085578"><ele>390.66666666666663</ele><time>2026-04-10T16:15:00.787Z</time></trkpt><trkpt lat="44.4728692" lon="4.5086842"><ele>395.0</ele><time>2026-04-10T16:15:01.782Z</time></trkpt><trkpt lat="44.4728706" lon="4.5088271"><ele>394.99999999999994</ele><time>2026-04-10T16:15:02.78Z</time></trkpt><trkpt lat="44.4728816" lon="4.5089687"><ele>395.0</ele><time>2026-04-10T16:15:03.786Z</time></trkpt><trkpt lat="44.4728815" lon="4.509102"><ele>395.0</ele><time>2026-04-10T16:15:04.782Z</time></trkpt><trkpt lat="44.4728874" lon="4.5092243"><ele>395.0</ele><time>2026-04-10T16:15:05.784Z</time></trkpt><trkpt lat="44.4728946" lon="4.5093303"><ele>394.99999999999994</ele><time>2026-04-10T16:15:06.778Z</time></trkpt><trkpt lat="44.47289" lon="4.5094227"><ele>395.0</ele><time>2026-04-10T16:15:07.778Z</time></trkpt><trkpt lat="44.4728641" lon="4.5095695"><ele>395.49999999999994</ele><time>2026-04-10T16:15:09.779Z</time></trkpt><trkpt lat="44.4729027" lon="4.5096766"><ele>396.0</ele><time>2026-04-10T16:15:12.778Z</time></trkpt><trkpt lat="44.4729929" lon="4.5096553"><ele>396.5</ele><time>2026-04-10T16:15:14.783Z</time></trkpt><trkpt lat="44.4730164" lon="4.509549"><ele>397.0</ele><time>2026-04-10T16:15:16.779Z</time></trkpt><trkpt lat="44.4729857" lon="4.5094171"><ele>397.49999999999994</ele><time>2026-04-10T16:15:18.776Z</time></trkpt><trkpt lat="44.4730055" lon="4.5093261"><ele>398.0</ele><time>2026-04-10T16:15:19.789Z</time></trkpt><trkpt lat="44.4730243" lon="4.5092257"><ele>391.4</ele><time>2026-04-10T16:15:20.782Z</time></trkpt><trkpt lat="44.4730532" lon="4.5091142"><ele>384.79999999999995</ele><time>2026-04-10T16:15:21.784Z</time></trkpt><trkpt lat="44.4730818" lon="4.508981"><ele>378.2</ele><time>2026-04-10T16:15:22.781Z</time></trkpt><trkpt lat="44.4731075" lon="4.5088428"><ele>371.6</ele><time>2026-04-10T16:15:23.777Z</time></trkpt><trkpt lat="44.4731344" lon="4.5087006"><ele>365.0</ele><time>2026-04-10T16:15:24.781Z</time></trkpt><trkpt lat="44.4731752" lon="4.5085523"><ele>364.1666666666667</ele><time>2026-04-10T16:15:25.777Z</time></trkpt><trkpt lat="44.4732207" lon="4.5084331"><ele>363.33333333333337</ele><time>2026-04-10T16:15:26.777Z</time></trkpt><trkpt lat="44.4732609" lon="4.5083166"><ele>362.5</ele><time>2026-04-10T16:15:27.78Z</time></trkpt><trkpt lat="44.4732998" lon="4.5082047"><ele>361.6666666666667</ele><time>2026-04-10T16:15:28.782Z</time></trkpt><trkpt lat="44.4733549" lon="4.508119"><ele>360.8333333333333</ele><time>2026-04-10T16:15:29.781Z</time></trkpt><trkpt lat="44.4734052" lon="4.5080316"><ele>360.0</ele><time>2026-04-10T16:15:30.783Z</time></trkpt><trkpt lat="44.4734371" lon="4.5079436"><ele>361.5</ele><time>2026-04-10T16:15:31.782Z</time></trkpt><trkpt lat="44.473486" lon="4.5078509"><ele>363.0</ele><time>2026-04-10T16:15:32.777Z</time></trkpt><trkpt lat="44.4735417" lon="4.5077671"><ele>364.5</ele><time>2026-04-10T16:15:33.776Z</time></trkpt><trkpt lat="44.4735928" lon="4.5076707"><ele>366.0</ele><time>2026-04-10T16:15:34.783Z</time></trkpt><trkpt lat="44.4736644" lon="4.5075961"><ele>367.5</ele><time>2026-04-10T16:15:35.782Z</time></trkpt><trkpt lat="44.473726" lon="4.5075404"><ele>369.0</ele><time>2026-04-10T16:15:36.781Z</time></trkpt><trkpt lat="44.4737864" lon="4.5074757"><ele>363.0</ele><time>2026-04-10T16:15:37.778Z</time></trkpt><trkpt lat="44.47388" lon="4.5073513"><ele>357.0</ele><time>2026-04-10T16:15:39.784Z</time></trkpt><trkpt lat="44.4739833" lon="4.5072407"><ele>351.0</ele><time>2026-04-10T16:15:41.779Z</time></trkpt><trkpt lat="44.4740375" lon="4.5071894"><ele>345.0</ele><time>2026-04-10T16:15:42.777Z</time></trkpt><trkpt lat="44.4740834" lon="4.5071116"><ele>339.0</ele><time>2026-04-10T16:15:43.779Z</time></trkpt><trkpt lat="44.4740987" lon="4.5069955"><ele>339.0</ele><time>2026-04-10T16:15:44.785Z</time></trkpt><trkpt lat="44.474115" lon="4.5068859"><ele>339.0</ele><time>2026-04-10T16:15:45.779Z</time></trkpt><trkpt lat="44.4741156" lon="4.5067795"><ele>339.0</ele><time>2026-04-10T16:15:46.779Z</time></trkpt><trkpt lat="44.4741098" lon="4.5066705"><ele>339.0</ele><time>2026-04-10T16:15:47.778Z</time></trkpt><trkpt lat="44.4741085" lon="4.5065513"><ele>339.0</ele><time>2026-04-10T16:15:48.779Z</time></trkpt><trkpt lat="44.4741129" lon="4.5064423"><ele>339.0</ele><time>2026-04-10T16:15:49.777Z</time></trkpt><trkpt lat="44.4741117" lon="4.5063347"><ele>339.3333333333333</ele><time>2026-04-10T16:15:50.78Z</time></trkpt><trkpt lat="44.4741118" lon="4.5062395"><ele>339.6666666666667</ele><time>2026-04-10T16:15:51.778Z</time></trkpt><trkpt lat="44.4741048" lon="4.5061458"><ele>340.0</ele><time>2026-04-10T16:15:52.776Z</time></trkpt><trkpt lat="44.4741296" lon="4.5060049"><ele>340.33333333333337</ele><time>2026-04-10T16:15:54.779Z</time></trkpt><trkpt lat="44.4741688" lon="4.505934"><ele>340.6666666666667</ele><time>2026-04-10T16:15:55.779Z</time></trkpt><trkpt lat="44.4742511" lon="4.5058054"><ele>341.0</ele><time>2026-04-10T16:15:57.779Z</time></trkpt><trkpt lat="44.4742937" lon="4.5057166"><ele>341.0</ele><time>2026-04-10T16:15:58.779Z</time></trkpt><trkpt lat="44.4743348" lon="4.5056107"><ele>341.0</ele><time>2026-04-10T16:15:59.778Z</time></trkpt><trkpt lat="44.4743803" lon="4.5055151"><ele>341.0</ele><time>2026-04-10T16:16:00.778Z</time></trkpt><trkpt lat="44.4744056" lon="4.5054224"><ele>341.0</ele><time>2026-04-10T16:16:01.78Z</time></trkpt><trkpt lat="44.4744294" lon="4.5053273"><ele>341.0</ele><time>2026-04-10T16:16:02.788Z</time></trkpt><trkpt lat="44.4744474" lon="4.5052251"><ele>341.0</ele><time>2026-04-10T16:16:03.778Z</time></trkpt><trkpt lat="44.4744899" lon="4.5051187"><ele>339.33333333333337</ele><time>2026-04-10T16:16:04.777Z</time></trkpt><trkpt lat="44.4745454" lon="4.5050223"><ele>337.6666666666667</ele><time>2026-04-10T16:16:05.782Z</time></trkpt><trkpt lat="44.4746051" lon="4.5049414"><ele>336.0</ele><time>2026-04-10T16:16:06.78Z</time></trkpt><trkpt lat="44.4746597" lon="4.5048621"><ele>334.3333333333333</ele><time>2026-04-10T16:16:07.783Z</time></trkpt><trkpt lat="44.4747142" lon="4.5047645"><ele>332.66666666666663</ele><time>2026-04-10T16:16:08.782Z</time></trkpt><trkpt lat="44.474777" lon="4.5046602"><ele>331.0</ele><time>2026-04-10T16:16:09.784Z</time></trkpt><trkpt lat="44.4748423" lon="4.5045558"><ele>331.0</ele><time>2026-04-10T16:16:10.784Z</time></trkpt><trkpt lat="44.4749017" lon="4.504449"><ele>331.0</ele><time>2026-04-10T16:16:11.778Z</time></trkpt><trkpt lat="44.4749654" lon="4.5043577"><ele>331.0</ele><time>2026-04-10T16:16:12.776Z</time></trkpt><trkpt lat="44.4750228" lon="4.5042697"><ele>331.0</ele><time>2026-04-10T16:16:13.779Z</time></trkpt><trkpt lat="44.4750681" lon="4.504188"><ele>331.0</ele><time>2026-04-10T16:16:14.781Z</time></trkpt><trkpt lat="44.475111" lon="4.5041123"><ele>331.0</ele><time>2026-04-10T16:16:15.779Z</time></trkpt><trkpt lat="44.4751542" lon="4.5040243"><ele>331.0</ele><time>2026-04-10T16:16:16.782Z</time></trkpt><trkpt lat="44.475206" lon="4.5039369"><ele>331.0</ele><time>2026-04-10T16:16:17.779Z</time></trkpt><trkpt lat="44.4752593" lon="4.5038633"><ele>331.0</ele><time>2026-04-10T16:16:18.781Z</time></trkpt><trkpt lat="44.4753084" lon="4.5037842"><ele>331.0</ele><time>2026-04-10T16:16:19.781Z</time></trkpt><trkpt lat="44.4753616" lon="4.5037074"><ele>331.0</ele><time>2026-04-10T16:16:20.78Z</time></trkpt><trkpt lat="44.4754087" lon="4.5036259"><ele>331.0</ele><time>2026-04-10T16:16:21.779Z</time></trkpt><trkpt lat="44.4754657" lon="4.5035504"><ele>327.8333333333333</ele><time>2026-04-10T16:16:22.781Z</time></trkpt><trkpt lat="44.4755226" lon="4.503477"><ele>324.66666666666663</ele><time>2026-04-10T16:16:23.778Z</time></trkpt><trkpt lat="44.4755774" lon="4.5034011"><ele>321.5</ele><time>2026-04-10T16:16:24.781Z</time></trkpt><trkpt lat="44.4756384" lon="4.5033176"><ele>318.3333333333333</ele><time>2026-04-10T16:16:25.781Z</time></trkpt><trkpt lat="44.4757091" lon="4.5032299"><ele>315.1666666666667</ele><time>2026-04-10T16:16:26.778Z</time></trkpt><trkpt lat="44.4757807" lon="4.5031538"><ele>312.0</ele><time>2026-04-10T16:16:27.784Z</time></trkpt><trkpt lat="44.4758535" lon="4.5030858"><ele>312.0</ele><time>2026-04-10T16:16:28.78Z</time></trkpt><trkpt lat="44.4759242" lon="4.5030235"><ele>312.0</ele><time>2026-04-10T16:16:29.78Z</time></trkpt><trkpt lat="44.4759897" lon="4.5029496"><ele>312.0</ele><time>2026-04-10T16:16:30.778Z</time></trkpt><trkpt lat="44.4760573" lon="4.5028811"><ele>312.0</ele><time>2026-04-10T16:16:31.775Z</time></trkpt><trkpt lat="44.4761193" lon="4.5028074"><ele>312.0</ele><time>2026-04-10T16:16:32.779Z</time></trkpt><trkpt lat="44.4761878" lon="4.5027283"><ele>312.0</ele><time>2026-04-10T16:16:33.782Z</time></trkpt><trkpt lat="44.4762472" lon="4.502656"><ele>310.5</ele><time>2026-04-10T16:16:34.78Z</time></trkpt><trkpt lat="44.4763217" lon="4.5026027"><ele>309.0</ele><time>2026-04-10T16:16:35.778Z</time></trkpt><trkpt lat="44.4763994" lon="4.5025495"><ele>307.5</ele><time>2026-04-10T16:16:36.774Z</time></trkpt><trkpt lat="44.4764688" lon="4.5024953"><ele>306.0</ele><time>2026-04-10T16:16:37.774Z</time></trkpt><trkpt lat="44.4765444" lon="4.5024458"><ele>304.5</ele><time>2026-04-10T16:16:38.783Z</time></trkpt><trkpt lat="44.4766211" lon="4.5023797"><ele>303.0</ele><time>2026-04-10T16:16:39.775Z</time></trkpt><trkpt lat="44.476703" lon="4.5023218"><ele>303.0</ele><time>2026-04-10T16:16:40.778Z</time></trkpt><trkpt lat="44.476775" lon="4.5022813"><ele>303.0</ele><time>2026-04-10T16:16:41.776Z</time></trkpt><trkpt lat="44.47684" lon="4.5022457"><ele>303.0</ele><time>2026-04-10T16:16:42.776Z</time></trkpt><trkpt lat="44.4769118" lon="4.502199"><ele>303.0</ele><time>2026-04-10T16:16:43.783Z</time></trkpt><trkpt lat="44.4769993" lon="4.5021556"><ele>303.0</ele><time>2026-04-10T16:16:44.779Z</time></trkpt><trkpt lat="44.4770926" lon="4.5021085"><ele>303.0</ele><time>2026-04-10T16:16:45.777Z</time></trkpt><trkpt lat="44.4771753" lon="4.5020618"><ele>304.1666666666667</ele><time>2026-04-10T16:16:46.776Z</time></trkpt><trkpt lat="44.477247" lon="4.5020253"><ele>305.3333333333333</ele><time>2026-04-10T16:16:47.781Z</time></trkpt><trkpt lat="44.4773366" lon="4.5019925"><ele>306.5</ele><time>2026-04-10T16:16:48.783Z</time></trkpt><trkpt lat="44.4774167" lon="4.5019593"><ele>307.66666666666663</ele><time>2026-04-10T16:16:49.785Z</time></trkpt><trkpt lat="44.4774965" lon="4.5019456"><ele>308.8333333333333</ele><time>2026-04-10T16:16:50.777Z</time></trkpt><trkpt lat="44.4775942" lon="4.501931"><ele>310.0</ele><time>2026-04-10T16:16:51.778Z</time></trkpt><trkpt lat="44.4776873" lon="4.5019163"><ele>310.0</ele><time>2026-04-10T16:16:52.774Z</time></trkpt><trkpt lat="44.4777813" lon="4.5018868"><ele>310.0</ele><time>2026-04-10T16:16:53.783Z</time></trkpt><trkpt lat="44.4778661" lon="4.5018485"><ele>310.0</ele><time>2026-04-10T16:16:54.777Z</time></trkpt><trkpt lat="44.4779349" lon="4.5018091"><ele>310.0</ele><time>2026-04-10T16:16:55.779Z</time></trkpt><trkpt lat="44.4780066" lon="4.5017811"><ele>310.0</ele><time>2026-04-10T16:16:56.781Z</time></trkpt><trkpt lat="44.4780752" lon="4.5017664"><ele>310.0</ele><time>2026-04-10T16:16:57.791Z</time></trkpt><trkpt lat="44.478141" lon="4.5017507"><ele>307.5</ele><time>2026-04-10T16:16:58.788Z</time></trkpt><trkpt lat="44.4782138" lon="4.5017348"><ele>305.0</ele><time>2026-04-10T16:16:59.781Z</time></trkpt><trkpt lat="44.4782914" lon="4.5017202"><ele>302.5</ele><time>2026-04-10T16:17:00.782Z</time></trkpt><trkpt lat="44.4783677" lon="4.5017047"><ele>300.0</ele><time>2026-04-10T16:17:01.783Z</time></trkpt><trkpt lat="44.4784435" lon="4.5016935"><ele>297.5</ele><time>2026-04-10T16:17:02.785Z</time></trkpt><trkpt lat="44.4785189" lon="4.5016863"><ele>295.0</ele><time>2026-04-10T16:17:03.781Z</time></trkpt><trkpt lat="44.4785931" lon="4.5016726"><ele>295.0</ele><time>2026-04-10T16:17:04.776Z</time></trkpt><trkpt lat="44.4786646" lon="4.5016566"><ele>295.0</ele><time>2026-04-10T16:17:05.782Z</time></trkpt><trkpt lat="44.4787803" lon="4.5016399"><ele>295.0</ele><time>2026-04-10T16:17:07.778Z</time></trkpt><trkpt lat="44.4788441" lon="4.5016265"><ele>295.0</ele><time>2026-04-10T16:17:08.782Z</time></trkpt><trkpt lat="44.4789407" lon="4.5015902"><ele>295.0</ele><time>2026-04-10T16:17:10.783Z</time></trkpt><trkpt lat="44.4790032" lon="4.5015547"><ele>295.0</ele><time>2026-04-10T16:17:12.781Z</time></trkpt><trkpt lat="44.4789584" lon="4.5016266"><ele>292.6</ele><time>2026-04-10T16:17:59.786Z</time></trkpt><trkpt lat="44.4791065" lon="4.5015764"><ele>290.2</ele><time>2026-04-10T16:18:02.777Z</time></trkpt><trkpt lat="44.4791749" lon="4.5015772"><ele>287.8</ele><time>2026-04-10T16:18:03.782Z</time></trkpt><trkpt lat="44.4792428" lon="4.5015355"><ele>285.4</ele><time>2026-04-10T16:18:04.781Z</time></trkpt><trkpt lat="44.4793634" lon="4.5014948"><ele>283.0</ele><time>2026-04-10T16:18:06.779Z</time></trkpt><trkpt lat="44.479456" lon="4.5014759"><ele>283.0</ele><time>2026-04-10T16:18:07.774Z</time></trkpt><trkpt lat="44.4795462" lon="4.5014593"><ele>283.0</ele><time>2026-04-10T16:18:08.782Z</time></trkpt><trkpt lat="44.479627" lon="4.5014445"><ele>283.0</ele><time>2026-04-10T16:18:09.778Z</time></trkpt><trkpt lat="44.4797067" lon="4.5014247"><ele>283.0</ele><time>2026-04-10T16:18:10.783Z</time></trkpt><trkpt lat="44.4797999" lon="4.5013852"><ele>283.0</ele><time>2026-04-10T16:18:11.776Z</time></trkpt><trkpt lat="44.4799024" lon="4.5013295"><ele>283.5</ele><time>2026-04-10T16:18:12.78Z</time></trkpt><trkpt lat="44.4799754" lon="4.50128"><ele>284.0</ele><time>2026-04-10T16:18:13.776Z</time></trkpt><trkpt lat="44.4800551" lon="4.5012227"><ele>284.5</ele><time>2026-04-10T16:18:14.781Z</time></trkpt><trkpt lat="44.4801222" lon="4.5011635"><ele>285.0</ele><time>2026-04-10T16:18:15.777Z</time></trkpt><trkpt lat="44.4801886" lon="4.5011019"><ele>285.5</ele><time>2026-04-10T16:18:16.782Z</time></trkpt><trkpt lat="44.4802564" lon="4.5010055"><ele>286.0</ele><time>2026-04-10T16:18:17.779Z</time></trkpt><trkpt lat="44.4803215" lon="4.5009098"><ele>286.0</ele><time>2026-04-10T16:18:18.778Z</time></trkpt><trkpt lat="44.4803903" lon="4.5008256"><ele>286.0</ele><time>2026-04-10T16:18:19.787Z</time></trkpt><trkpt lat="44.4804533" lon="4.5007533"><ele>286.0</ele><time>2026-04-10T16:18:20.78Z</time></trkpt><trkpt lat="44.4805211" lon="4.5007025"><ele>286.0</ele><time>2026-04-10T16:18:21.776Z</time></trkpt><trkpt lat="44.4805996" lon="4.5006725"><ele>286.0</ele><time>2026-04-10T16:18:22.786Z</time></trkpt><trkpt lat="44.4806786" lon="4.5006444"><ele>286.0</ele><time>2026-04-10T16:18:23.78Z</time></trkpt><trkpt lat="44.480772" lon="4.5006071"><ele>283.8333333333333</ele><time>2026-04-10T16:18:24.777Z</time></trkpt><trkpt lat="44.4808647" lon="4.5005781"><ele>281.66666666666663</ele><time>2026-04-10T16:18:25.782Z</time></trkpt><trkpt lat="44.4809494" lon="4.5005514"><ele>279.5</ele><time>2026-04-10T16:18:26.78Z</time></trkpt><trkpt lat="44.4810204" lon="4.5005127"><ele>277.3333333333333</ele><time>2026-04-10T16:18:27.785Z</time></trkpt><trkpt lat="44.4810673" lon="4.5004168"><ele>275.1666666666667</ele><time>2026-04-10T16:18:28.778Z</time></trkpt><trkpt lat="44.4811019" lon="4.5003004"><ele>273.0</ele><time>2026-04-10T16:18:29.779Z</time></trkpt><trkpt lat="44.4811408" lon="4.5001688"><ele>273.0</ele><time>2026-04-10T16:18:30.781Z</time></trkpt><trkpt lat="44.481175" lon="4.5000375"><ele>273.0</ele><time>2026-04-10T16:18:31.778Z</time></trkpt><trkpt lat="44.4812266" lon="4.4999081"><ele>273.0</ele><time>2026-04-10T16:18:32.78Z</time></trkpt><trkpt lat="44.48128" lon="4.4997772"><ele>273.0</ele><time>2026-04-10T16:18:33.789Z</time></trkpt><trkpt lat="44.4813387" lon="4.4996402"><ele>273.0</ele><time>2026-04-10T16:18:34.785Z</time></trkpt><trkpt lat="44.4814076" lon="4.4995117"><ele>274.4</ele><time>2026-04-10T16:18:35.787Z</time></trkpt><trkpt lat="44.4814641" lon="4.4993863"><ele>275.8</ele><time>2026-04-10T16:18:36.789Z</time></trkpt><trkpt lat="44.4815134" lon="4.499268"><ele>277.2</ele><time>2026-04-10T16:18:37.778Z</time></trkpt><trkpt lat="44.4815514" lon="4.4991511"><ele>278.6</ele><time>2026-04-10T16:18:38.781Z</time></trkpt><trkpt lat="44.4815898" lon="4.4990427"><ele>280.0</ele><time>2026-04-10T16:18:39.777Z</time></trkpt><trkpt lat="44.4816219" lon="4.4989416"><ele>280.0</ele><time>2026-04-10T16:18:40.778Z</time></trkpt><trkpt lat="44.4816488" lon="4.4988486"><ele>280.0</ele><time>2026-04-10T16:18:41.777Z</time></trkpt><trkpt lat="44.4816715" lon="4.498753"><ele>280.0</ele><time>2026-04-10T16:18:42.773Z</time></trkpt><trkpt lat="44.4816821" lon="4.498661"><ele>280.0</ele><time>2026-04-10T16:18:43.778Z</time></trkpt><trkpt lat="44.4816965" lon="4.4985506"><ele>280.0</ele><time>2026-04-10T16:18:44.778Z</time></trkpt><trkpt lat="44.481732" lon="4.4984431"><ele>280.0</ele><time>2026-04-10T16:18:45.781Z</time></trkpt><trkpt lat="44.4817562" lon="4.4983276"><ele>278.4</ele><time>2026-04-10T16:18:46.784Z</time></trkpt><trkpt lat="44.4817743" lon="4.4982027"><ele>276.8</ele><time>2026-04-10T16:18:47.78Z</time></trkpt><trkpt lat="44.4817922" lon="4.4980786"><ele>275.2</ele><time>2026-04-10T16:18:48.781Z</time></trkpt><trkpt lat="44.4818085" lon="4.4979335"><ele>273.6</ele><time>2026-04-10T16:18:49.777Z</time></trkpt><trkpt lat="44.4818387" lon="4.4977947"><ele>272.0</ele><time>2026-04-10T16:18:50.779Z</time></trkpt><trkpt lat="44.481864" lon="4.4976553"><ele>269.75</ele><time>2026-04-10T16:18:51.782Z</time></trkpt><trkpt lat="44.481894" lon="4.4975259"><ele>267.5</ele><time>2026-04-10T16:18:52.781Z</time></trkpt><trkpt lat="44.4819379" lon="4.4973773"><ele>265.25</ele><time>2026-04-10T16:18:53.783Z</time></trkpt><trkpt lat="44.4819767" lon="4.4972249"><ele>263.0</ele><time>2026-04-10T16:18:54.778Z</time></trkpt><trkpt lat="44.4820316" lon="4.4970718"><ele>262.0</ele><time>2026-04-10T16:18:55.785Z</time></trkpt><trkpt lat="44.4820683" lon="4.4969355"><ele>261.0</ele><time>2026-04-10T16:18:56.779Z</time></trkpt><trkpt lat="44.4821324" lon="4.4967965"><ele>260.0</ele><time>2026-04-10T16:18:57.791Z</time></trkpt><trkpt lat="44.4821991" lon="4.4966688"><ele>259.0</ele><time>2026-04-10T16:18:58.78Z</time></trkpt><trkpt lat="44.4822751" lon="4.4965691"><ele>258.0</ele><time>2026-04-10T16:18:59.782Z</time></trkpt><trkpt lat="44.4823546" lon="4.496458"><ele>257.25</ele><time>2026-04-10T16:19:00.782Z</time></trkpt><trkpt lat="44.4824641" lon="4.4963646"><ele>256.5</ele><time>2026-04-10T16:19:01.779Z</time></trkpt><trkpt lat="44.4825637" lon="4.4962727"><ele>255.75</ele><time>2026-04-10T16:19:02.778Z</time></trkpt><trkpt lat="44.4826631" lon="4.4961754"><ele>255.0</ele><time>2026-04-10T16:19:03.781Z</time></trkpt><trkpt lat="44.4827861" lon="4.4961107"><ele>255.0</ele><time>2026-04-10T16:19:04.782Z</time></trkpt><trkpt lat="44.4829149" lon="4.4960593"><ele>255.0</ele><time>2026-04-10T16:19:05.78Z</time></trkpt><trkpt lat="44.4830581" lon="4.496018"><ele>255.0</ele><time>2026-04-10T16:19:06.78Z</time></trkpt><trkpt lat="44.4832143" lon="4.4959889"><ele>255.0</ele><time>2026-04-10T16:19:07.781Z</time></trkpt><trkpt lat="44.4833729" lon="4.4959678"><ele>255.75</ele><time>2026-04-10T16:19:08.782Z</time></trkpt><trkpt lat="44.483511" lon="4.4959504"><ele>256.5</ele><time>2026-04-10T16:19:09.782Z</time></trkpt><trkpt lat="44.4836539" lon="4.4959376"><ele>257.25</ele><time>2026-04-10T16:19:10.781Z</time></trkpt><trkpt lat="44.4837932" lon="4.4959142"><ele>258.0</ele><time>2026-04-10T16:19:11.784Z</time></trkpt><trkpt lat="44.4839288" lon="4.4958852"><ele>258.6666666666667</ele><time>2026-04-10T16:19:12.779Z</time></trkpt><trkpt lat="44.4840947" lon="4.4958531"><ele>259.33333333333337</ele><time>2026-04-10T16:19:13.782Z</time></trkpt><trkpt lat="44.4842476" lon="4.4958304"><ele>260.0</ele><time>2026-04-10T16:19:14.778Z</time></trkpt><trkpt lat="44.4843962" lon="4.4957987"><ele>260.0</ele><time>2026-04-10T16:19:15.778Z</time></trkpt><trkpt lat="44.4845463" lon="4.4957585"><ele>260.0</ele><time>2026-04-10T16:19:16.783Z</time></trkpt><trkpt lat="44.4846881" lon="4.4957216"><ele>260.0</ele><time>2026-04-10T16:19:17.785Z</time></trkpt><trkpt lat="44.4848294" lon="4.4956835"><ele>260.0</ele><time>2026-04-10T16:19:18.782Z</time></trkpt><trkpt lat="44.4849617" lon="4.4956451"><ele>259.6</ele><time>2026-04-10T16:19:19.777Z</time></trkpt><trkpt lat="44.4850786" lon="4.4956131"><ele>259.2</ele><time>2026-04-10T16:19:20.782Z</time></trkpt><trkpt lat="44.4851646" lon="4.4956086"><ele>258.8</ele><time>2026-04-10T16:19:21.782Z</time></trkpt><trkpt lat="44.4852601" lon="4.4956342"><ele>258.4</ele><time>2026-04-10T16:19:22.783Z</time></trkpt><trkpt lat="44.4853606" lon="4.4956389"><ele>258.0</ele><time>2026-04-10T16:19:23.777Z</time></trkpt><trkpt lat="44.4854468" lon="4.4955856"><ele>259.0</ele><time>2026-04-10T16:19:24.787Z</time></trkpt><trkpt lat="44.4855403" lon="4.4955235"><ele>260.0</ele><time>2026-04-10T16:19:25.781Z</time></trkpt><trkpt lat="44.4856323" lon="4.4954685"><ele>261.0</ele><time>2026-04-10T16:19:26.784Z</time></trkpt><trkpt lat="44.4857259" lon="4.495438"><ele>262.0</ele><time>2026-04-10T16:19:27.779Z</time></trkpt><trkpt lat="44.4858169" lon="4.4953983"><ele>263.0</ele><time>2026-04-10T16:19:28.782Z</time></trkpt><trkpt lat="44.4859274" lon="4.4953969"><ele>258.0</ele><time>2026-04-10T16:19:29.78Z</time></trkpt><trkpt lat="44.4860285" lon="4.49538"><ele>253.0</ele><time>2026-04-10T16:19:30.782Z</time></trkpt><trkpt lat="44.4861612" lon="4.4953822"><ele>248.0</ele><time>2026-04-10T16:19:31.78Z</time></trkpt><trkpt lat="44.4862806" lon="4.4953577"><ele>243.0</ele><time>2026-04-10T16:19:32.782Z</time></trkpt><trkpt lat="44.4864117" lon="4.4953249"><ele>243.0</ele><time>2026-04-10T16:19:33.785Z</time></trkpt><trkpt lat="44.4865463" lon="4.4952731"><ele>243.0</ele><time>2026-04-10T16:19:34.78Z</time></trkpt><trkpt lat="44.4866852" lon="4.4952366"><ele>243.0</ele><time>2026-04-10T16:19:35.782Z</time></trkpt><trkpt lat="44.4868261" lon="4.4952031"><ele>243.0</ele><time>2026-04-10T16:19:36.782Z</time></trkpt><trkpt lat="44.4869594" lon="4.4951801"><ele>243.0</ele><time>2026-04-10T16:19:37.779Z</time></trkpt><trkpt lat="44.4870891" lon="4.4951528"><ele>243.0</ele><time>2026-04-10T16:19:38.783Z</time></trkpt><trkpt lat="44.4872292" lon="4.4951169"><ele>243.0</ele><time>2026-04-10T16:19:39.781Z</time></trkpt><trkpt lat="44.4873576" lon="4.4951009"><ele>243.0</ele><time>2026-04-10T16:19:40.776Z</time></trkpt><trkpt lat="44.487484" lon="4.49509"><ele>243.75</ele><time>2026-04-10T16:19:41.776Z</time></trkpt><trkpt lat="44.4876163" lon="4.4950588"><ele>244.5</ele><time>2026-04-10T16:19:42.783Z</time></trkpt><trkpt lat="44.4877397" lon="4.4950122"><ele>245.25</ele><time>2026-04-10T16:19:43.787Z</time></trkpt><trkpt lat="44.4878561" lon="4.4949505"><ele>246.0</ele><time>2026-04-10T16:19:44.781Z</time></trkpt><trkpt lat="44.4879536" lon="4.4949337"><ele>246.0</ele><time>2026-04-10T16:19:45.777Z</time></trkpt><trkpt lat="44.4880353" lon="4.4948868"><ele>246.00000000000003</ele><time>2026-04-10T16:19:46.777Z</time></trkpt><trkpt lat="44.4881049" lon="4.4948289"><ele>246.00000000000003</ele><time>2026-04-10T16:19:47.777Z</time></trkpt><trkpt lat="44.4881504" lon="4.4947322"><ele>246.0</ele><time>2026-04-10T16:19:48.782Z</time></trkpt><trkpt lat="44.4881831" lon="4.4946004"><ele>246.0</ele><time>2026-04-10T16:19:49.78Z</time></trkpt><trkpt lat="44.4882389" lon="4.4944802"><ele>243.0</ele><time>2026-04-10T16:19:50.778Z</time></trkpt><trkpt lat="44.4883037" lon="4.494353"><ele>240.0</ele><time>2026-04-10T16:19:51.778Z</time></trkpt><trkpt lat="44.4883824" lon="4.4942056"><ele>237.0</ele><time>2026-04-10T16:19:52.783Z</time></trkpt><trkpt lat="44.4885133" lon="4.4941015"><ele>234.0</ele><time>2026-04-10T16:19:53.781Z</time></trkpt><trkpt lat="44.48866" lon="4.4939833"><ele>232.66666666666669</ele><time>2026-04-10T16:19:54.786Z</time></trkpt><trkpt lat="44.4887886" lon="4.4938506"><ele>231.33333333333334</ele><time>2026-04-10T16:19:55.776Z</time></trkpt><trkpt lat="44.4888917" lon="4.4937197"><ele>230.0</ele><time>2026-04-10T16:19:56.777Z</time></trkpt><trkpt lat="44.4890106" lon="4.493586"><ele>230.0</ele><time>2026-04-10T16:19:57.78Z</time></trkpt><trkpt lat="44.4891408" lon="4.4934847"><ele>230.0</ele><time>2026-04-10T16:19:58.781Z</time></trkpt><trkpt lat="44.4892563" lon="4.4933543"><ele>230.0</ele><time>2026-04-10T16:19:59.781Z</time></trkpt><trkpt lat="44.4893745" lon="4.4932078"><ele>230.0</ele><time>2026-04-10T16:20:00.78Z</time></trkpt><trkpt lat="44.4894983" lon="4.4930779"><ele>230.0</ele><time>2026-04-10T16:20:01.784Z</time></trkpt><trkpt lat="44.4896222" lon="4.4929407"><ele>230.0</ele><time>2026-04-10T16:20:02.795Z</time></trkpt><trkpt lat="44.4897496" lon="4.4927966"><ele>228.25</ele><time>2026-04-10T16:20:03.786Z</time></trkpt><trkpt lat="44.4898481" lon="4.4926936"><ele>226.5</ele><time>2026-04-10T16:20:04.779Z</time></trkpt><trkpt lat="44.4899457" lon="4.4926005"><ele>224.75</ele><time>2026-04-10T16:20:05.792Z</time></trkpt><trkpt lat="44.490056" lon="4.4925447"><ele>223.0</ele><time>2026-04-10T16:20:06.787Z</time></trkpt><trkpt lat="44.4901414" lon="4.4924824"><ele>223.0</ele><time>2026-04-10T16:20:07.782Z</time></trkpt><trkpt lat="44.490276" lon="4.4924719"><ele>223.0</ele><time>2026-04-10T16:20:09.782Z</time></trkpt><trkpt lat="44.4903463" lon="4.4925201"><ele>223.0</ele><time>2026-04-10T16:20:10.785Z</time></trkpt><trkpt lat="44.4904167" lon="4.4925625"><ele>223.0</ele><time>2026-04-10T16:20:11.782Z</time></trkpt><trkpt lat="44.4905128" lon="4.4926007"><ele>223.0</ele><time>2026-04-10T16:20:12.784Z</time></trkpt><trkpt lat="44.4905959" lon="4.4925951"><ele>222.8</ele><time>2026-04-10T16:20:13.779Z</time></trkpt><trkpt lat="44.4906789" lon="4.4925639"><ele>222.60000000000002</ele><time>2026-04-10T16:20:14.783Z</time></trkpt><trkpt lat="44.4907767" lon="4.4925148"><ele>222.39999999999998</ele><time>2026-04-10T16:20:15.779Z</time></trkpt><trkpt lat="44.4908696" lon="4.4924631"><ele>222.2</ele><time>2026-04-10T16:20:16.786Z</time></trkpt><trkpt lat="44.4909484" lon="4.4924052"><ele>222.0</ele><time>2026-04-10T16:20:17.782Z</time></trkpt><trkpt lat="44.4910237" lon="4.4923174"><ele>222.0</ele><time>2026-04-10T16:20:18.782Z</time></trkpt><trkpt lat="44.4911048" lon="4.4922114"><ele>222.0</ele><time>2026-04-10T16:20:19.78Z</time></trkpt><trkpt lat="44.4911702" lon="4.492079"><ele>222.0</ele><time>2026-04-10T16:20:20.779Z</time></trkpt><trkpt lat="44.491246" lon="4.4919457"><ele>222.0</ele><time>2026-04-10T16:20:21.778Z</time></trkpt><trkpt lat="44.4913154" lon="4.4917865"><ele>225.0</ele><time>2026-04-10T16:20:22.781Z</time></trkpt><trkpt lat="44.4913734" lon="4.4916369"><ele>228.0</ele><time>2026-04-10T16:20:23.78Z</time></trkpt><trkpt lat="44.4914253" lon="4.4914968"><ele>231.0</ele><time>2026-04-10T16:20:24.783Z</time></trkpt><trkpt lat="44.4914594" lon="4.4913477"><ele>234.0</ele><time>2026-04-10T16:20:25.785Z</time></trkpt><trkpt lat="44.4914292" lon="4.4912092"><ele>237.0</ele><time>2026-04-10T16:20:26.779Z</time></trkpt><trkpt lat="44.4914064" lon="4.4910717"><ele>238.5</ele><time>2026-04-10T16:20:27.78Z</time></trkpt><trkpt lat="44.4913677" lon="4.490955"><ele>240.0</ele><time>2026-04-10T16:20:28.782Z</time></trkpt><trkpt lat="44.4913247" lon="4.4908507"><ele>241.5</ele><time>2026-04-10T16:20:29.777Z</time></trkpt><trkpt lat="44.4912998" lon="4.4907689"><ele>243.0</ele><time>2026-04-10T16:20:30.783Z</time></trkpt><trkpt lat="44.4912837" lon="4.4906523"><ele>244.5</ele><time>2026-04-10T16:20:32.782Z</time></trkpt><trkpt lat="44.4912202" lon="4.490524"><ele>246.0</ele><time>2026-04-10T16:20:34.781Z</time></trkpt><trkpt lat="44.4911844" lon="4.4904437"><ele>240.75</ele><time>2026-04-10T16:20:35.783Z</time></trkpt><trkpt lat="44.4911243" lon="4.4903119"><ele>235.5</ele><time>2026-04-10T16:20:36.779Z</time></trkpt><trkpt lat="44.4910816" lon="4.490164"><ele>230.25</ele><time>2026-04-10T16:20:37.781Z</time></trkpt><trkpt lat="44.4910149" lon="4.4900191"><ele>225.0</ele><time>2026-04-10T16:20:38.779Z</time></trkpt><trkpt lat="44.4909683" lon="4.489833"><ele>225.0</ele><time>2026-04-10T16:20:39.781Z</time></trkpt><trkpt lat="44.4909062" lon="4.4896404"><ele>225.0</ele><time>2026-04-10T16:20:40.782Z</time></trkpt><trkpt lat="44.490838" lon="4.4894836"><ele>225.0</ele><time>2026-04-10T16:20:41.779Z</time></trkpt><trkpt lat="44.490762" lon="4.4893069"><ele>225.0</ele><time>2026-04-10T16:20:42.776Z</time></trkpt><trkpt lat="44.4906828" lon="4.4891046"><ele>227.0</ele><time>2026-04-10T16:20:43.781Z</time></trkpt><trkpt lat="44.4906205" lon="4.4889112"><ele>229.0</ele><time>2026-04-10T16:20:44.778Z</time></trkpt><trkpt lat="44.4905461" lon="4.4887208"><ele>231.0</ele><time>2026-04-10T16:20:45.779Z</time></trkpt><trkpt lat="44.4904677" lon="4.4885416"><ele>227.5</ele><time>2026-04-10T16:20:46.778Z</time></trkpt><trkpt lat="44.4904091" lon="4.4883647"><ele>224.0</ele><time>2026-04-10T16:20:47.778Z</time></trkpt><trkpt lat="44.4903348" lon="4.4881909"><ele>220.5</ele><time>2026-04-10T16:20:48.775Z</time></trkpt><trkpt lat="44.4902851" lon="4.4880117"><ele>217.0</ele><time>2026-04-10T16:20:49.777Z</time></trkpt><trkpt lat="44.490231" lon="4.4878407"><ele>217.0</ele><time>2026-04-10T16:20:50.782Z</time></trkpt><trkpt lat="44.490188" lon="4.4876657"><ele>217.0</ele><time>2026-04-10T16:20:51.777Z</time></trkpt><trkpt lat="44.4901585" lon="4.4875226"><ele>217.0</ele><time>2026-04-10T16:20:52.781Z</time></trkpt><trkpt lat="44.490139" lon="4.4873977"><ele>217.0</ele><time>2026-04-10T16:20:53.774Z</time></trkpt><trkpt lat="44.4901214" lon="4.4873009"><ele>217.0</ele><time>2026-04-10T16:20:54.784Z</time></trkpt><trkpt lat="44.4900944" lon="4.487162"><ele>217.66666666666666</ele><time>2026-04-10T16:20:56.778Z</time></trkpt><trkpt lat="44.4900671" lon="4.4870162"><ele>218.33333333333331</ele><time>2026-04-10T16:20:58.779Z</time></trkpt><trkpt lat="44.4900448" lon="4.4869267"><ele>219.0</ele><time>2026-04-10T16:20:59.779Z</time></trkpt><trkpt lat="44.4900321" lon="4.48682"><ele>219.66666666666669</ele><time>2026-04-10T16:21:00.777Z</time></trkpt><trkpt lat="44.490015" lon="4.4867053"><ele>220.33333333333334</ele><time>2026-04-10T16:21:01.775Z</time></trkpt><trkpt lat="44.4899966" lon="4.4865804"><ele>221.0</ele><time>2026-04-10T16:21:02.779Z</time></trkpt><trkpt lat="44.4899744" lon="4.486446"><ele>221.0</ele><time>2026-04-10T16:21:03.795Z</time></trkpt><trkpt lat="44.4899473" lon="4.4863053"><ele>221.00000000000003</ele><time>2026-04-10T16:21:04.78Z</time></trkpt><trkpt lat="44.4899158" lon="4.486168"><ele>221.00000000000003</ele><time>2026-04-10T16:21:05.778Z</time></trkpt><trkpt lat="44.4898754" lon="4.4860164"><ele>221.0</ele><time>2026-04-10T16:21:06.775Z</time></trkpt><trkpt lat="44.4898307" lon="4.4858628"><ele>221.0</ele><time>2026-04-10T16:21:07.782Z</time></trkpt><trkpt lat="44.4897678" lon="4.4857"><ele>222.25</ele><time>2026-04-10T16:21:08.782Z</time></trkpt><trkpt lat="44.4897107" lon="4.4855458"><ele>223.5</ele><time>2026-04-10T16:21:09.778Z</time></trkpt><trkpt lat="44.4896452" lon="4.4853904"><ele>224.75</ele><time>2026-04-10T16:21:10.779Z</time></trkpt><trkpt lat="44.4895758" lon="4.4852276"><ele>226.0</ele><time>2026-04-10T16:21:11.782Z</time></trkpt><trkpt lat="44.4894956" lon="4.4850452"><ele>222.75</ele><time>2026-04-10T16:21:12.778Z</time></trkpt><trkpt lat="44.4894141" lon="4.4848704"><ele>219.5</ele><time>2026-04-10T16:21:13.777Z</time></trkpt><trkpt lat="44.4893456" lon="4.4847084"><ele>216.25</ele><time>2026-04-10T16:21:14.781Z</time></trkpt><trkpt lat="44.4892919" lon="4.4845413"><ele>213.0</ele><time>2026-04-10T16:21:15.785Z</time></trkpt><trkpt lat="44.4892381" lon="4.4843764"><ele>213.0</ele><time>2026-04-10T16:21:16.779Z</time></trkpt><trkpt lat="44.489194" lon="4.4842166"><ele>213.0</ele><time>2026-04-10T16:21:17.781Z</time></trkpt><trkpt lat="44.4891729" lon="4.4840367"><ele>213.0</ele><time>2026-04-10T16:21:18.779Z</time></trkpt><trkpt lat="44.4891623" lon="4.4838471"><ele>213.0</ele><time>2026-04-10T16:21:19.779Z</time></trkpt><trkpt lat="44.4891666" lon="4.4836471"><ele>213.0</ele><time>2026-04-10T16:21:20.779Z</time></trkpt><trkpt lat="44.4891646" lon="4.483453"><ele>213.0</ele><time>2026-04-10T16:21:21.779Z</time></trkpt><trkpt lat="44.4891644" lon="4.4832557"><ele>213.0</ele><time>2026-04-10T16:21:22.778Z</time></trkpt><trkpt lat="44.4891562" lon="4.4830821"><ele>213.0</ele><time>2026-04-10T16:21:23.783Z</time></trkpt><trkpt lat="44.4891167" lon="4.4829025"><ele>213.0</ele><time>2026-04-10T16:21:24.783Z</time></trkpt><trkpt lat="44.489072" lon="4.4827177"><ele>213.0</ele><time>2026-04-10T16:21:25.779Z</time></trkpt><trkpt lat="44.4890268" lon="4.482537"><ele>213.0</ele><time>2026-04-10T16:21:26.777Z</time></trkpt><trkpt lat="44.4889764" lon="4.4823511"><ele>213.0</ele><time>2026-04-10T16:21:27.775Z</time></trkpt><trkpt lat="44.4889193" lon="4.4821525"><ele>214.0</ele><time>2026-04-10T16:21:28.776Z</time></trkpt><trkpt lat="44.4888693" lon="4.4819578"><ele>215.0</ele><time>2026-04-10T16:21:29.781Z</time></trkpt><trkpt lat="44.4888253" lon="4.4817499"><ele>216.0</ele><time>2026-04-10T16:21:30.779Z</time></trkpt><trkpt lat="44.4887893" lon="4.4815389"><ele>212.66666666666669</ele><time>2026-04-10T16:21:31.775Z</time></trkpt><trkpt lat="44.4887536" lon="4.4813283"><ele>209.33333333333334</ele><time>2026-04-10T16:21:32.776Z</time></trkpt><trkpt lat="44.4887116" lon="4.4811194"><ele>206.0</ele><time>2026-04-10T16:21:33.778Z</time></trkpt><trkpt lat="44.4886781" lon="4.4809088"><ele>206.0</ele><time>2026-04-10T16:21:34.78Z</time></trkpt><trkpt lat="44.4886395" lon="4.4806999"><ele>206.0</ele><time>2026-04-10T16:21:35.784Z</time></trkpt><trkpt lat="44.4885998" lon="4.4804858"><ele>206.0</ele><time>2026-04-10T16:21:36.782Z</time></trkpt><trkpt lat="44.4885644" lon="4.4802691"><ele>206.0</ele><time>2026-04-10T16:21:37.779Z</time></trkpt><trkpt lat="44.4885202" lon="4.4800537"><ele>206.0</ele><time>2026-04-10T16:21:38.782Z</time></trkpt><trkpt lat="44.4884797" lon="4.4798393"><ele>206.0</ele><time>2026-04-10T16:21:39.78Z</time></trkpt><trkpt lat="44.4884284" lon="4.4796268"><ele>206.33333333333334</ele><time>2026-04-10T16:21:40.781Z</time></trkpt><trkpt lat="44.488375" lon="4.479416"><ele>206.66666666666669</ele><time>2026-04-10T16:21:41.781Z</time></trkpt><trkpt lat="44.4883268" lon="4.4792122"><ele>207.0</ele><time>2026-04-10T16:21:42.779Z</time></trkpt><trkpt lat="44.4882681" lon="4.4790173"><ele>207.0</ele><time>2026-04-10T16:21:43.779Z</time></trkpt><trkpt lat="44.4882092" lon="4.4788253"><ele>207.0</ele><time>2026-04-10T16:21:44.779Z</time></trkpt><trkpt lat="44.4881524" lon="4.4786387"><ele>207.0</ele><time>2026-04-10T16:21:45.781Z</time></trkpt><trkpt lat="44.4881032" lon="4.4784655"><ele>207.0</ele><time>2026-04-10T16:21:46.784Z</time></trkpt><trkpt lat="44.4880479" lon="4.4782962"><ele>206.5</ele><time>2026-04-10T16:21:47.776Z</time></trkpt><trkpt lat="44.4880014" lon="4.4781191"><ele>206.0</ele><time>2026-04-10T16:21:48.783Z</time></trkpt><trkpt lat="44.4879696" lon="4.4779326"><ele>205.5</ele><time>2026-04-10T16:21:49.78Z</time></trkpt><trkpt lat="44.4879346" lon="4.477756"><ele>205.0</ele><time>2026-04-10T16:21:50.779Z</time></trkpt><trkpt lat="44.4879071" lon="4.4775936"><ele>204.99999999999997</ele><time>2026-04-10T16:21:51.774Z</time></trkpt><trkpt lat="44.487879" lon="4.4774503"><ele>205.0</ele><time>2026-04-10T16:21:52.774Z</time></trkpt><trkpt lat="44.4878546" lon="4.4773289"><ele>205.0</ele><time>2026-04-10T16:21:53.778Z</time></trkpt><trkpt lat="44.4878402" lon="4.4772239"><ele>205.0</ele><time>2026-04-10T16:21:54.783Z</time></trkpt><trkpt lat="44.4878491" lon="4.4771273"><ele>204.99999999999997</ele><time>2026-04-10T16:21:55.782Z</time></trkpt><trkpt lat="44.4878756" lon="4.4770435"><ele>205.0</ele><time>2026-04-10T16:21:56.778Z</time></trkpt><trkpt lat="44.4879676" lon="4.476995"><ele>205.0</ele><time>2026-04-10T16:21:57.777Z</time></trkpt><trkpt lat="44.4880643" lon="4.4769251"><ele>205.0</ele><time>2026-04-10T16:21:58.78Z</time></trkpt><trkpt lat="44.4881559" lon="4.4768518"><ele>205.0</ele><time>2026-04-10T16:21:59.779Z</time></trkpt><trkpt lat="44.4882594" lon="4.4767777"><ele>205.0</ele><time>2026-04-10T16:22:00.782Z</time></trkpt><trkpt lat="44.4883617" lon="4.4767134"><ele>205.0</ele><time>2026-04-10T16:22:01.781Z</time></trkpt><trkpt lat="44.4884673" lon="4.4766488"><ele>204.99999999999997</ele><time>2026-04-10T16:22:02.779Z</time></trkpt><trkpt lat="44.4885703" lon="4.4765931"><ele>205.0</ele><time>2026-04-10T16:22:03.781Z</time></trkpt><trkpt lat="44.4886666" lon="4.4765598"><ele>205.0</ele><time>2026-04-10T16:22:04.778Z</time></trkpt><trkpt lat="44.4887349" lon="4.4765435"><ele>205.0</ele><time>2026-04-10T16:22:05.779Z</time></trkpt><trkpt lat="44.4888274" lon="4.4765348"><ele>204.99999999999997</ele><time>2026-04-10T16:22:07.779Z</time></trkpt><trkpt lat="44.4887921" lon="4.4766174"><ele>205.0</ele><time>2026-04-10T16:22:22.786Z</time></trkpt><trkpt lat="44.4887597" lon="4.4767011"><ele>205.16666666666666</ele><time>2026-04-10T16:22:41.785Z</time></trkpt><trkpt lat="44.4887922" lon="4.4768166"><ele>205.33333333333331</ele><time>2026-04-10T16:22:42.784Z</time></trkpt><trkpt lat="44.4888201" lon="4.4769242"><ele>205.5</ele><time>2026-04-10T16:22:44.787Z</time></trkpt><trkpt lat="44.4888941" lon="4.4769166"><ele>205.66666666666669</ele><time>2026-04-10T16:22:46.783Z</time></trkpt><trkpt lat="44.4889142" lon="4.4768201"><ele>205.83333333333334</ele><time>2026-04-10T16:22:48.783Z</time></trkpt><trkpt lat="44.4888742" lon="4.4767267"><ele>206.0</ele><time>2026-04-10T16:22:50.779Z</time></trkpt><trkpt lat="44.488845" lon="4.4766343"><ele>206.0</ele><time>2026-04-10T16:22:52.78Z</time></trkpt><trkpt lat="44.4888487" lon="4.476537"><ele>206.0</ele><time>2026-04-10T16:22:58.78Z</time></trkpt><trkpt lat="44.4889637" lon="4.4765472"><ele>206.0</ele><time>2026-04-10T16:23:00.781Z</time></trkpt><trkpt lat="44.4890495" lon="4.4765544"><ele>206.0</ele><time>2026-04-10T16:23:01.782Z</time></trkpt><trkpt lat="44.4891365" lon="4.4765624"><ele>206.0</ele><time>2026-04-10T16:23:02.784Z</time></trkpt><trkpt lat="44.4892401" lon="4.47659"><ele>206.0</ele><time>2026-04-10T16:23:03.782Z</time></trkpt><trkpt lat="44.4893449" lon="4.4766171"><ele>206.0</ele><time>2026-04-10T16:23:04.776Z</time></trkpt><trkpt lat="44.4894579" lon="4.476645"><ele>206.0</ele><time>2026-04-10T16:23:05.782Z</time></trkpt><trkpt lat="44.489593" lon="4.476692"><ele>206.0</ele><time>2026-04-10T16:23:06.778Z</time></trkpt><trkpt lat="44.4897413" lon="4.4767329"><ele>206.5</ele><time>2026-04-10T16:23:07.777Z</time></trkpt><trkpt lat="44.4898852" lon="4.4767642"><ele>207.0</ele><time>2026-04-10T16:23:08.781Z</time></trkpt><trkpt lat="44.4900266" lon="4.4767891"><ele>207.5</ele><time>2026-04-10T16:23:09.786Z</time></trkpt><trkpt lat="44.4901583" lon="4.4768134"><ele>208.0</ele><time>2026-04-10T16:23:10.781Z</time></trkpt><trkpt lat="44.4902962" lon="4.4768294"><ele>207.0</ele><time>2026-04-10T16:23:11.778Z</time></trkpt><trkpt lat="44.4904361" lon="4.476882"><ele>206.0</ele><time>2026-04-10T16:23:12.783Z</time></trkpt><trkpt lat="44.490728" lon="4.4770046"><ele>206.0</ele><time>2026-04-10T16:23:14.782Z</time></trkpt><trkpt lat="44.4908745" lon="4.4770629"><ele>206.0</ele><time>2026-04-10T16:23:15.78Z</time></trkpt><trkpt lat="44.4910173" lon="4.4771298"><ele>206.0</ele><time>2026-04-10T16:23:16.781Z</time></trkpt><trkpt lat="44.4911274" lon="4.477191"><ele>206.0</ele><time>2026-04-10T16:23:17.782Z</time></trkpt><trkpt lat="44.4912349" lon="4.4772672"><ele>205.0</ele><time>2026-04-10T16:23:18.777Z</time></trkpt><trkpt lat="44.4913348" lon="4.4773653"><ele>204.0</ele><time>2026-04-10T16:23:19.774Z</time></trkpt><trkpt lat="44.4914261" lon="4.4774998"><ele>203.0</ele><time>2026-04-10T16:23:20.773Z</time></trkpt><trkpt lat="44.4915239" lon="4.4776542"><ele>202.0</ele><time>2026-04-10T16:23:21.786Z</time></trkpt><trkpt lat="44.4916109" lon="4.4778144"><ele>203.75</ele><time>2026-04-10T16:23:22.781Z</time></trkpt><trkpt lat="44.4916873" lon="4.4779793"><ele>205.5</ele><time>2026-04-10T16:23:23.778Z</time></trkpt><trkpt lat="44.4917678" lon="4.4781522"><ele>207.25</ele><time>2026-04-10T16:23:24.777Z</time></trkpt><trkpt lat="44.4918107" lon="4.4783453"><ele>209.0</ele><time>2026-04-10T16:23:25.781Z</time></trkpt><trkpt lat="44.4918674" lon="4.4785287"><ele>211.5</ele><time>2026-04-10T16:23:26.782Z</time></trkpt><trkpt lat="44.4920047" lon="4.4789"><ele>214.0</ele><time>2026-04-10T16:23:28.781Z</time></trkpt><trkpt lat="44.492084" lon="4.4791084"><ele>212.0</ele><time>2026-04-10T16:23:29.775Z</time></trkpt><trkpt lat="44.4921549" lon="4.4793078"><ele>210.0</ele><time>2026-04-10T16:23:30.779Z</time></trkpt><trkpt lat="44.4922358" lon="4.4795044"><ele>208.0</ele><time>2026-04-10T16:23:31.779Z</time></trkpt><trkpt lat="44.4923176" lon="4.4797051"><ele>208.0</ele><time>2026-04-10T16:23:32.774Z</time></trkpt><trkpt lat="44.4924159" lon="4.4798887"><ele>208.0</ele><time>2026-04-10T16:23:33.783Z</time></trkpt><trkpt lat="44.4925129" lon="4.4800694"><ele>208.0</ele><time>2026-04-10T16:23:34.785Z</time></trkpt><trkpt lat="44.4925971" lon="4.4802628"><ele>208.0</ele><time>2026-04-10T16:23:35.782Z</time></trkpt><trkpt lat="44.4927145" lon="4.4804192"><ele>208.0</ele><time>2026-04-10T16:23:36.775Z</time></trkpt><trkpt lat="44.4929232" lon="4.4807308"><ele>206.66666666666666</ele><time>2026-04-10T16:23:38.778Z</time></trkpt><trkpt lat="44.4930369" lon="4.4808566"><ele>205.33333333333331</ele><time>2026-04-10T16:23:39.777Z</time></trkpt><trkpt lat="44.4931597" lon="4.480993"><ele>204.0</ele><time>2026-04-10T16:23:40.78Z</time></trkpt><trkpt lat="44.4932672" lon="4.4811582"><ele>208.66666666666669</ele><time>2026-04-10T16:23:41.775Z</time></trkpt><trkpt lat="44.4933781" lon="4.4813325"><ele>213.33333333333334</ele><time>2026-04-10T16:23:42.775Z</time></trkpt><trkpt lat="44.4934696" lon="4.4815241"><ele>218.0</ele><time>2026-04-10T16:23:43.783Z</time></trkpt><trkpt lat="44.493559" lon="4.4817269"><ele>218.0</ele><time>2026-04-10T16:23:44.78Z</time></trkpt><trkpt lat="44.4936498" lon="4.4819347"><ele>218.0</ele><time>2026-04-10T16:23:45.781Z</time></trkpt><trkpt lat="44.4937354" lon="4.4821496"><ele>218.0</ele><time>2026-04-10T16:23:46.78Z</time></trkpt><trkpt lat="44.4938242" lon="4.4823783"><ele>219.33333333333334</ele><time>2026-04-10T16:23:47.782Z</time></trkpt><trkpt lat="44.4939131" lon="4.4826146"><ele>220.66666666666669</ele><time>2026-04-10T16:23:48.782Z</time></trkpt><trkpt lat="44.494008" lon="4.4828545"><ele>222.0</ele><time>2026-04-10T16:23:49.781Z</time></trkpt><trkpt lat="44.4941126" lon="4.4830901"><ele>222.0</ele><time>2026-04-10T16:23:50.782Z</time></trkpt><trkpt lat="44.4942444" lon="4.4832975"><ele>222.0</ele><time>2026-04-10T16:23:51.775Z</time></trkpt><trkpt lat="44.4943877" lon="4.4834818"><ele>222.0</ele><time>2026-04-10T16:23:52.782Z</time></trkpt><trkpt lat="44.4945239" lon="4.4836732"><ele>221.0</ele><time>2026-04-10T16:23:53.776Z</time></trkpt><trkpt lat="44.4946536" lon="4.4838558"><ele>220.0</ele><time>2026-04-10T16:23:54.783Z</time></trkpt><trkpt lat="44.4947955" lon="4.4840089"><ele>219.0</ele><time>2026-04-10T16:23:55.782Z</time></trkpt><trkpt lat="44.4949411" lon="4.4841839"><ele>219.0</ele><time>2026-04-10T16:23:56.781Z</time></trkpt><trkpt lat="44.495091" lon="4.4843541"><ele>219.0</ele><time>2026-04-10T16:23:57.785Z</time></trkpt><trkpt lat="44.4952289" lon="4.4845365"><ele>219.0</ele><time>2026-04-10T16:23:58.783Z</time></trkpt><trkpt lat="44.4953507" lon="4.4847293"><ele>218.66666666666669</ele><time>2026-04-10T16:23:59.78Z</time></trkpt><trkpt lat="44.4954836" lon="4.48492"><ele>218.33333333333334</ele><time>2026-04-10T16:24:00.783Z</time></trkpt><trkpt lat="44.4956317" lon="4.4851012"><ele>218.0</ele><time>2026-04-10T16:24:01.778Z</time></trkpt><trkpt lat="44.4957802" lon="4.485281"><ele>222.33333333333334</ele><time>2026-04-10T16:24:02.781Z</time></trkpt><trkpt lat="44.4959542" lon="4.4854465"><ele>226.66666666666669</ele><time>2026-04-10T16:24:03.784Z</time></trkpt><trkpt lat="44.4961049" lon="4.4856015"><ele>231.0</ele><time>2026-04-10T16:24:04.782Z</time></trkpt><trkpt lat="44.4962527" lon="4.4857743"><ele>228.33333333333331</ele><time>2026-04-10T16:24:05.779Z</time></trkpt><trkpt lat="44.4964149" lon="4.4859246"><ele>225.66666666666666</ele><time>2026-04-10T16:24:06.782Z</time></trkpt><trkpt lat="44.4965804" lon="4.4860636"><ele>223.0</ele><time>2026-04-10T16:24:07.776Z</time></trkpt><trkpt lat="44.4967471" lon="4.486196"><ele>224.0</ele><time>2026-04-10T16:24:08.776Z</time></trkpt><trkpt lat="44.4969027" lon="4.4863207"><ele>225.0</ele><time>2026-04-10T16:24:09.782Z</time></trkpt><trkpt lat="44.4970528" lon="4.4864418"><ele>226.0</ele><time>2026-04-10T16:24:10.782Z</time></trkpt><trkpt lat="44.4971886" lon="4.4865616"><ele>226.0</ele><time>2026-04-10T16:24:11.779Z</time></trkpt><trkpt lat="44.4973324" lon="4.4866597"><ele>226.0</ele><time>2026-04-10T16:24:12.773Z</time></trkpt><trkpt lat="44.4974716" lon="4.4867459"><ele>226.0</ele><time>2026-04-10T16:24:13.779Z</time></trkpt><trkpt lat="44.4976268" lon="4.4867957"><ele>226.0</ele><time>2026-04-10T16:24:14.784Z</time></trkpt><trkpt lat="44.4977951" lon="4.4868209"><ele>226.0</ele><time>2026-04-10T16:24:15.778Z</time></trkpt><trkpt lat="44.4979664" lon="4.4868365"><ele>226.0</ele><time>2026-04-10T16:24:16.78Z</time></trkpt><trkpt lat="44.4981377" lon="4.4868483"><ele>224.33333333333331</ele><time>2026-04-10T16:24:17.777Z</time></trkpt><trkpt lat="44.4983019" lon="4.4868581"><ele>222.66666666666669</ele><time>2026-04-10T16:24:18.785Z</time></trkpt><trkpt lat="44.4984581" lon="4.4868637"><ele>221.0</ele><time>2026-04-10T16:24:19.784Z</time></trkpt><trkpt lat="44.4986087" lon="4.486874"><ele>220.25</ele><time>2026-04-10T16:24:20.776Z</time></trkpt><trkpt lat="44.4987526" lon="4.4868845"><ele>219.5</ele><time>2026-04-10T16:24:21.777Z</time></trkpt><trkpt lat="44.4988883" lon="4.4868895"><ele>218.75</ele><time>2026-04-10T16:24:22.779Z</time></trkpt><trkpt lat="44.4990167" lon="4.4869042"><ele>218.0</ele><time>2026-04-10T16:24:23.782Z</time></trkpt><trkpt lat="44.4991395" lon="4.4869141"><ele>218.0</ele><time>2026-04-10T16:24:24.776Z</time></trkpt><trkpt lat="44.4992608" lon="4.4869076"><ele>218.0</ele><time>2026-04-10T16:24:25.784Z</time></trkpt><trkpt lat="44.4993793" lon="4.4869068"><ele>218.0</ele><time>2026-04-10T16:24:26.778Z</time></trkpt><trkpt lat="44.4994777" lon="4.4869009"><ele>218.0</ele><time>2026-04-10T16:24:27.779Z</time></trkpt><trkpt lat="44.4995733" lon="4.4868929"><ele>218.0</ele><time>2026-04-10T16:24:28.781Z</time></trkpt><trkpt lat="44.4996585" lon="4.4868359"><ele>218.4</ele><time>2026-04-10T16:24:29.779Z</time></trkpt><trkpt lat="44.4997342" lon="4.4867502"><ele>218.8</ele><time>2026-04-10T16:24:30.778Z</time></trkpt><trkpt lat="44.4997994" lon="4.4866327"><ele>219.2</ele><time>2026-04-10T16:24:31.774Z</time></trkpt><trkpt lat="44.4998556" lon="4.4864964"><ele>219.6</ele><time>2026-04-10T16:24:32.777Z</time></trkpt><trkpt lat="44.4999234" lon="4.4863544"><ele>220.0</ele><time>2026-04-10T16:24:33.776Z</time></trkpt><trkpt lat="44.4999812" lon="4.48621"><ele>218.75</ele><time>2026-04-10T16:24:34.776Z</time></trkpt><trkpt lat="44.5000396" lon="4.4860693"><ele>217.5</ele><time>2026-04-10T16:24:35.781Z</time></trkpt><trkpt lat="44.5000978" lon="4.4859294"><ele>216.25</ele><time>2026-04-10T16:24:36.78Z</time></trkpt><trkpt lat="44.5001557" lon="4.4857909"><ele>215.0</ele><time>2026-04-10T16:24:37.782Z</time></trkpt><trkpt lat="44.5002035" lon="4.485657"><ele>215.0</ele><time>2026-04-10T16:24:38.777Z</time></trkpt><trkpt lat="44.5002523" lon="4.4855279"><ele>215.0</ele><time>2026-04-10T16:24:39.776Z</time></trkpt><trkpt lat="44.5003033" lon="4.4854036"><ele>215.0</ele><time>2026-04-10T16:24:40.78Z</time></trkpt><trkpt lat="44.5003467" lon="4.4852902"><ele>215.0</ele><time>2026-04-10T16:24:41.797Z</time></trkpt><trkpt lat="44.5003968" lon="4.4851672"><ele>215.0</ele><time>2026-04-10T16:24:42.8Z</time></trkpt><trkpt lat="44.5004498" lon="4.4850515"><ele>215.33333333333334</ele><time>2026-04-10T16:24:43.793Z</time></trkpt><trkpt lat="44.5004937" lon="4.4849371"><ele>215.66666666666669</ele><time>2026-04-10T16:24:44.781Z</time></trkpt><trkpt lat="44.500532" lon="4.4848308"><ele>216.0</ele><time>2026-04-10T16:24:45.786Z</time></trkpt><trkpt lat="44.5005703" lon="4.4847234"><ele>216.33333333333331</ele><time>2026-04-10T16:24:46.781Z</time></trkpt><trkpt lat="44.500603" lon="4.4846256"><ele>216.66666666666666</ele><time>2026-04-10T16:24:47.779Z</time></trkpt><trkpt lat="44.5006361" lon="4.4845328"><ele>217.0</ele><time>2026-04-10T16:24:48.783Z</time></trkpt><trkpt lat="44.5006708" lon="4.4844395"><ele>216.99999999999997</ele><time>2026-04-10T16:24:49.785Z</time></trkpt><trkpt lat="44.5007038" lon="4.4843475"><ele>217.0</ele><time>2026-04-10T16:24:50.787Z</time></trkpt><trkpt lat="44.5007495" lon="4.4842507"><ele>217.0</ele><time>2026-04-10T16:24:51.779Z</time></trkpt><trkpt lat="44.500788" lon="4.4841579"><ele>217.0</ele><time>2026-04-10T16:24:52.777Z</time></trkpt><trkpt lat="44.5008267" lon="4.4840711"><ele>216.99999999999997</ele><time>2026-04-10T16:24:53.78Z</time></trkpt><trkpt lat="44.5008617" lon="4.4839739"><ele>217.0</ele><time>2026-04-10T16:24:54.783Z</time></trkpt><trkpt lat="44.5009046" lon="4.4838202"><ele>216.83333333333331</ele><time>2026-04-10T16:24:56.779Z</time></trkpt><trkpt lat="44.5009123" lon="4.4836723"><ele>216.66666666666666</ele><time>2026-04-10T16:24:58.779Z</time></trkpt><trkpt lat="44.5008689" lon="4.4835882"><ele>216.5</ele><time>2026-04-10T16:25:00.79Z</time></trkpt><trkpt lat="44.5008351" lon="4.4834973"><ele>216.33333333333331</ele><time>2026-04-10T16:25:01.785Z</time></trkpt><trkpt lat="44.5007953" lon="4.4833866"><ele>216.16666666666666</ele><time>2026-04-10T16:25:02.778Z</time></trkpt><trkpt lat="44.5007714" lon="4.4832931"><ele>216.0</ele><time>2026-04-10T16:25:03.778Z</time></trkpt><trkpt lat="44.5007339" lon="4.4832022"><ele>216.0</ele><time>2026-04-10T16:25:04.777Z</time></trkpt><trkpt lat="44.5007" lon="4.4831238"><ele>216.0</ele><time>2026-04-10T16:25:05.782Z</time></trkpt><trkpt lat="44.5006669" lon="4.4830442"><ele>216.0</ele><time>2026-04-10T16:25:06.776Z</time></trkpt><trkpt lat="44.5006351" lon="4.4829666"><ele>216.0</ele><time>2026-04-10T16:25:07.781Z</time></trkpt><trkpt lat="44.5005823" lon="4.4828141"><ele>216.0</ele><time>2026-04-10T16:25:09.781Z</time></trkpt><trkpt lat="44.5005502" lon="4.4827347"><ele>216.0</ele><time>2026-04-10T16:25:10.78Z</time></trkpt><trkpt lat="44.5005117" lon="4.4826597"><ele>216.0</ele><time>2026-04-10T16:25:11.779Z</time></trkpt><trkpt lat="44.5004696" lon="4.4825678"><ele>215.85714285714286</ele><time>2026-04-10T16:25:12.78Z</time></trkpt><trkpt lat="44.5004303" lon="4.4824776"><ele>215.71428571428572</ele><time>2026-04-10T16:25:13.782Z</time></trkpt><trkpt lat="44.5003832" lon="4.4824162"><ele>215.57142857142856</ele><time>2026-04-10T16:25:14.778Z</time></trkpt><trkpt lat="44.5003444" lon="4.4823398"><ele>215.42857142857144</ele><time>2026-04-10T16:25:15.777Z</time></trkpt><trkpt lat="44.5002953" lon="4.4822406"><ele>215.2857142857143</ele><time>2026-04-10T16:25:17.786Z</time></trkpt><trkpt lat="44.5002477" lon="4.4821719"><ele>215.14285714285714</ele><time>2026-04-10T16:25:20.778Z</time></trkpt><trkpt lat="44.5001812" lon="4.4821108"><ele>215.0</ele><time>2026-04-10T16:26:34.778Z</time></trkpt><trkpt lat="44.5000982" lon="4.4820303"><ele>214.33333333333334</ele><time>2026-04-10T16:26:36.784Z</time></trkpt><trkpt lat="44.5000432" lon="4.481981"><ele>213.66666666666669</ele><time>2026-04-10T16:26:37.776Z</time></trkpt><trkpt lat="44.4999958" lon="4.4819058"><ele>213.0</ele><time>2026-04-10T16:26:38.783Z</time></trkpt><trkpt lat="44.49992" lon="4.4818281"><ele>212.33333333333331</ele><time>2026-04-10T16:26:39.78Z</time></trkpt><trkpt lat="44.4998557" lon="4.4817262"><ele>211.66666666666666</ele><time>2026-04-10T16:26:40.772Z</time></trkpt><trkpt lat="44.499786" lon="4.4816119"><ele>211.0</ele><time>2026-04-10T16:26:41.778Z</time></trkpt><trkpt lat="44.499714" lon="4.4814926"><ele>210.99999999999997</ele><time>2026-04-10T16:26:42.776Z</time></trkpt><trkpt lat="44.4996477" lon="4.4813733"><ele>211.0</ele><time>2026-04-10T16:26:43.775Z</time></trkpt><trkpt lat="44.4995922" lon="4.4812659"><ele>211.0</ele><time>2026-04-10T16:26:44.776Z</time></trkpt><trkpt lat="44.4995533" lon="4.4811567"><ele>211.0</ele><time>2026-04-10T16:26:45.777Z</time></trkpt><trkpt lat="44.4995427" lon="4.4810526"><ele>210.99999999999997</ele><time>2026-04-10T16:26:46.781Z</time></trkpt><trkpt lat="44.4995366" lon="4.4809392"><ele>211.0</ele><time>2026-04-10T16:26:47.778Z</time></trkpt><trkpt lat="44.4995814" lon="4.4808075"><ele>211.75</ele><time>2026-04-10T16:26:48.775Z</time></trkpt><trkpt lat="44.4996145" lon="4.4806597"><ele>212.5</ele><time>2026-04-10T16:26:49.785Z</time></trkpt><trkpt lat="44.499637" lon="4.4804887"><ele>213.25</ele><time>2026-04-10T16:26:50.781Z</time></trkpt><trkpt lat="44.4996658" lon="4.4803308"><ele>214.0</ele><time>2026-04-10T16:26:51.783Z</time></trkpt><trkpt lat="44.4996856" lon="4.4801726"><ele>214.99999999999997</ele><time>2026-04-10T16:26:52.776Z</time></trkpt><trkpt lat="44.4997161" lon="4.4800468"><ele>216.0</ele><time>2026-04-10T16:26:53.778Z</time></trkpt><trkpt lat="44.4997319" lon="4.4799321"><ele>217.0</ele><time>2026-04-10T16:26:54.778Z</time></trkpt><trkpt lat="44.4997723" lon="4.4798615"><ele>218.0</ele><time>2026-04-10T16:26:55.777Z</time></trkpt><trkpt lat="44.4997379" lon="4.4797875"><ele>218.99999999999997</ele><time>2026-04-10T16:26:57.777Z</time></trkpt><trkpt lat="44.4996639" lon="4.4798665"><ele>220.0</ele><time>2026-04-10T16:26:59.786Z</time></trkpt><trkpt lat="44.4996172" lon="4.4799597"><ele>223.0</ele><time>2026-04-10T16:27:00.779Z</time></trkpt><trkpt lat="44.4995673" lon="4.4800861"><ele>226.0</ele><time>2026-04-10T16:27:01.782Z</time></trkpt><trkpt lat="44.4995239" lon="4.4802241"><ele>229.0</ele><time>2026-04-10T16:27:02.778Z</time></trkpt><trkpt lat="44.4994743" lon="4.4803644"><ele>232.0</ele><time>2026-04-10T16:27:03.777Z</time></trkpt><trkpt lat="44.4994283" lon="4.4805"><ele>235.0</ele><time>2026-04-10T16:27:04.776Z</time></trkpt><trkpt lat="44.4993743" lon="4.4806443"><ele>235.0</ele><time>2026-04-10T16:27:05.775Z</time></trkpt><trkpt lat="44.4993185" lon="4.4807928"><ele>235.0</ele><time>2026-04-10T16:27:06.778Z</time></trkpt><trkpt lat="44.4992776" lon="4.4809499"><ele>235.0</ele><time>2026-04-10T16:27:07.784Z</time></trkpt><trkpt lat="44.4992244" lon="4.4810755"><ele>235.0</ele><time>2026-04-10T16:27:08.778Z</time></trkpt><trkpt lat="44.4991943" lon="4.4811677"><ele>235.0</ele><time>2026-04-10T16:27:09.78Z</time></trkpt><trkpt lat="44.4991589" lon="4.4812425"><ele>235.0</ele><time>2026-04-10T16:27:10.777Z</time></trkpt><trkpt lat="44.4990386" lon="4.4812279"><ele>235.0</ele><time>2026-04-10T16:27:12.779Z</time></trkpt><trkpt lat="44.4989742" lon="4.4812094"><ele>235.0</ele><time>2026-04-10T16:27:13.78Z</time></trkpt><trkpt lat="44.498876" lon="4.4811066"><ele>235.0</ele><time>2026-04-10T16:27:14.781Z</time></trkpt><trkpt lat="44.4987732" lon="4.4809988"><ele>235.0</ele><time>2026-04-10T16:27:15.776Z</time></trkpt><trkpt lat="44.4986674" lon="4.4808958"><ele>235.75</ele><time>2026-04-10T16:27:16.792Z</time></trkpt><trkpt lat="44.4985522" lon="4.4807651"><ele>236.5</ele><time>2026-04-10T16:27:17.783Z</time></trkpt><trkpt lat="44.4984454" lon="4.4806575"><ele>237.25</ele><time>2026-04-10T16:27:18.781Z</time></trkpt><trkpt lat="44.4983233" lon="4.4805515"><ele>238.0</ele><time>2026-04-10T16:27:19.778Z</time></trkpt><trkpt lat="44.4982001" lon="4.4804433"><ele>238.25</ele><time>2026-04-10T16:27:20.782Z</time></trkpt><trkpt lat="44.4980895" lon="4.4803488"><ele>238.5</ele><time>2026-04-10T16:27:21.778Z</time></trkpt><trkpt lat="44.4979556" lon="4.4802544"><ele>238.75</ele><time>2026-04-10T16:27:22.778Z</time></trkpt><trkpt lat="44.4978169" lon="4.4801293"><ele>239.0</ele><time>2026-04-10T16:27:23.778Z</time></trkpt><trkpt lat="44.4976894" lon="4.4800019"><ele>239.0</ele><time>2026-04-10T16:27:24.781Z</time></trkpt><trkpt lat="44.4975523" lon="4.4798797"><ele>239.0</ele><time>2026-04-10T16:27:25.782Z</time></trkpt><trkpt lat="44.4974195" lon="4.4797593"><ele>239.0</ele><time>2026-04-10T16:27:26.779Z</time></trkpt><trkpt lat="44.4972907" lon="4.4796302"><ele>238.33333333333334</ele><time>2026-04-10T16:27:27.781Z</time></trkpt><trkpt lat="44.4971584" lon="4.4795024"><ele>237.66666666666669</ele><time>2026-04-10T16:27:28.778Z</time></trkpt><trkpt lat="44.4970276" lon="4.4793835"><ele>237.0</ele><time>2026-04-10T16:27:29.777Z</time></trkpt><trkpt lat="44.4969012" lon="4.4792578"><ele>237.0</ele><time>2026-04-10T16:27:30.776Z</time></trkpt><trkpt lat="44.4967746" lon="4.4791341"><ele>237.0</ele><time>2026-04-10T16:27:31.78Z</time></trkpt><trkpt lat="44.4966628" lon="4.4790103"><ele>237.0</ele><time>2026-04-10T16:27:32.783Z</time></trkpt><trkpt lat="44.4965576" lon="4.4788865"><ele>237.0</ele><time>2026-04-10T16:27:33.783Z</time></trkpt><trkpt lat="44.4964387" lon="4.4787479"><ele>236.0</ele><time>2026-04-10T16:27:34.778Z</time></trkpt><trkpt lat="44.4963214" lon="4.4786269"><ele>235.0</ele><time>2026-04-10T16:27:35.783Z</time></trkpt><trkpt lat="44.4962267" lon="4.478522"><ele>234.0</ele><time>2026-04-10T16:27:36.777Z</time></trkpt><trkpt lat="44.496151" lon="4.4784207"><ele>233.0</ele><time>2026-04-10T16:27:37.778Z</time></trkpt><trkpt lat="44.4960844" lon="4.4783214"><ele>233.0</ele><time>2026-04-10T16:27:38.778Z</time></trkpt><trkpt lat="44.4960303" lon="4.4782038"><ele>233.0</ele><time>2026-04-10T16:27:39.781Z</time></trkpt><trkpt lat="44.4959874" lon="4.478081"><ele>233.0</ele><time>2026-04-10T16:27:40.785Z</time></trkpt><trkpt lat="44.4959556" lon="4.4779481"><ele>233.0</ele><time>2026-04-10T16:27:41.781Z</time></trkpt><trkpt lat="44.4958997" lon="4.4777911"><ele>233.0</ele><time>2026-04-10T16:27:42.784Z</time></trkpt><trkpt lat="44.4958416" lon="4.4776602"><ele>235.5</ele><time>2026-04-10T16:27:43.779Z</time></trkpt><trkpt lat="44.4957616" lon="4.4775231"><ele>238.0</ele><time>2026-04-10T16:27:44.779Z</time></trkpt><trkpt lat="44.4956898" lon="4.4773823"><ele>240.5</ele><time>2026-04-10T16:27:45.777Z</time></trkpt><trkpt lat="44.4956193" lon="4.4772443"><ele>243.0</ele><time>2026-04-10T16:27:46.782Z</time></trkpt><trkpt lat="44.4955822" lon="4.4770689"><ele>245.25</ele><time>2026-04-10T16:27:47.78Z</time></trkpt><trkpt lat="44.4955427" lon="4.4768971"><ele>247.5</ele><time>2026-04-10T16:27:48.782Z</time></trkpt><trkpt lat="44.495503" lon="4.4767259"><ele>249.75</ele><time>2026-04-10T16:27:49.782Z</time></trkpt><trkpt lat="44.4954654" lon="4.4765541"><ele>252.0</ele><time>2026-04-10T16:27:50.782Z</time></trkpt><trkpt lat="44.4954696" lon="4.4763675"><ele>253.75</ele><time>2026-04-10T16:27:51.778Z</time></trkpt><trkpt lat="44.4955005" lon="4.476193"><ele>255.5</ele><time>2026-04-10T16:27:52.776Z</time></trkpt><trkpt lat="44.4955097" lon="4.4760295"><ele>257.25</ele><time>2026-04-10T16:27:53.778Z</time></trkpt><trkpt lat="44.4955314" lon="4.4758802"><ele>259.0</ele><time>2026-04-10T16:27:54.779Z</time></trkpt><trkpt lat="44.4955706" lon="4.475738"><ele>259.0</ele><time>2026-04-10T16:27:55.779Z</time></trkpt><trkpt lat="44.495599" lon="4.4755895"><ele>259.0</ele><time>2026-04-10T16:27:56.78Z</time></trkpt><trkpt lat="44.495638" lon="4.4754356"><ele>259.0</ele><time>2026-04-10T16:27:57.777Z</time></trkpt><trkpt lat="44.4956795" lon="4.4752721"><ele>259.0</ele><time>2026-04-10T16:27:58.776Z</time></trkpt><trkpt lat="44.4957143" lon="4.4751027"><ele>259.25</ele><time>2026-04-10T16:27:59.782Z</time></trkpt><trkpt lat="44.4957522" lon="4.4749295"><ele>259.5</ele><time>2026-04-10T16:28:00.782Z</time></trkpt><trkpt lat="44.4957779" lon="4.4747478"><ele>259.75</ele><time>2026-04-10T16:28:01.783Z</time></trkpt><trkpt lat="44.4957865" lon="4.4745568"><ele>260.0</ele><time>2026-04-10T16:28:02.785Z</time></trkpt><trkpt lat="44.4957966" lon="4.4743669"><ele>260.5</ele><time>2026-04-10T16:28:03.781Z</time></trkpt><trkpt lat="44.4958091" lon="4.47417"><ele>261.0</ele><time>2026-04-10T16:28:04.777Z</time></trkpt><trkpt lat="44.495814" lon="4.4739799"><ele>261.5</ele><time>2026-04-10T16:28:05.778Z</time></trkpt><trkpt lat="44.4958169" lon="4.4737858"><ele>262.0</ele><time>2026-04-10T16:28:06.777Z</time></trkpt><trkpt lat="44.4958059" lon="4.4735842"><ele>263.0</ele><time>2026-04-10T16:28:07.777Z</time></trkpt><trkpt lat="44.4958069" lon="4.473399"><ele>264.0</ele><time>2026-04-10T16:28:08.781Z</time></trkpt><trkpt lat="44.4957947" lon="4.4732116"><ele>265.0</ele><time>2026-04-10T16:28:09.777Z</time></trkpt><trkpt lat="44.4957851" lon="4.4730244"><ele>266.0</ele><time>2026-04-10T16:28:10.777Z</time></trkpt><trkpt lat="44.4957756" lon="4.4728494"><ele>266.2</ele><time>2026-04-10T16:28:11.782Z</time></trkpt><trkpt lat="44.4957883" lon="4.4726953"><ele>266.40000000000003</ele><time>2026-04-10T16:28:12.777Z</time></trkpt><trkpt lat="44.4958236" lon="4.4725698"><ele>266.6</ele><time>2026-04-10T16:28:13.781Z</time></trkpt><trkpt lat="44.4958549" lon="4.4724619"><ele>266.8</ele><time>2026-04-10T16:28:14.774Z</time></trkpt><trkpt lat="44.4959507" lon="4.472409"><ele>267.0</ele><time>2026-04-10T16:28:15.779Z</time></trkpt><trkpt lat="44.4960198" lon="4.4723439"><ele>267.0</ele><time>2026-04-10T16:28:16.78Z</time></trkpt><trkpt lat="44.4960924" lon="4.4723261"><ele>267.0</ele><time>2026-04-10T16:28:17.782Z</time></trkpt><trkpt lat="44.4961606" lon="4.4722933"><ele>267.0</ele><time>2026-04-10T16:28:18.775Z</time></trkpt><trkpt lat="44.496224" lon="4.4723036"><ele>267.0</ele><time>2026-04-10T16:28:19.778Z</time></trkpt><trkpt lat="44.4963032" lon="4.4723134"><ele>267.0</ele><time>2026-04-10T16:28:21.778Z</time></trkpt><trkpt lat="44.4963921" lon="4.4722604"><ele>267.0</ele><time>2026-04-10T16:28:23.784Z</time></trkpt><trkpt lat="44.4964914" lon="4.4722035"><ele>266.2</ele><time>2026-04-10T16:28:25.775Z</time></trkpt><trkpt lat="44.4965523" lon="4.472165"><ele>265.4</ele><time>2026-04-10T16:28:26.776Z</time></trkpt><trkpt lat="44.4966159" lon="4.4720407"><ele>264.6</ele><time>2026-04-10T16:28:28.782Z</time></trkpt><trkpt lat="44.49666" lon="4.4718709"><ele>263.8</ele><time>2026-04-10T16:28:30.776Z</time></trkpt><trkpt lat="44.496754" lon="4.4717535"><ele>263.0</ele><time>2026-04-10T16:28:32.777Z</time></trkpt><trkpt lat="44.4968123" lon="4.4717189"><ele>263.0</ele><time>2026-04-10T16:28:33.78Z</time></trkpt><trkpt lat="44.496868" lon="4.4716663"><ele>263.0</ele><time>2026-04-10T16:28:34.778Z</time></trkpt><trkpt lat="44.4969408" lon="4.4716749"><ele>263.0</ele><time>2026-04-10T16:28:35.782Z</time></trkpt><trkpt lat="44.4970065" lon="4.4716529"><ele>263.0</ele><time>2026-04-10T16:28:36.79Z</time></trkpt><trkpt lat="44.4970653" lon="4.4716041"><ele>263.0</ele><time>2026-04-10T16:28:37.777Z</time></trkpt><trkpt lat="44.4971617" lon="4.4715582"><ele>263.0</ele><time>2026-04-10T16:28:38.776Z</time></trkpt><trkpt lat="44.4972527" lon="4.4715206"><ele>263.0</ele><time>2026-04-10T16:28:39.781Z</time></trkpt><trkpt lat="44.4973428" lon="4.4714967"><ele>263.0</ele><time>2026-04-10T16:28:40.788Z</time></trkpt><trkpt lat="44.4974132" lon="4.4714326"><ele>263.0</ele><time>2026-04-10T16:28:41.783Z</time></trkpt><trkpt lat="44.4975057" lon="4.4713661"><ele>263.0</ele><time>2026-04-10T16:28:42.778Z</time></trkpt><trkpt lat="44.4975882" lon="4.4712806"><ele>263.0</ele><time>2026-04-10T16:28:43.776Z</time></trkpt><trkpt lat="44.497673" lon="4.4711881"><ele>263.0</ele><time>2026-04-10T16:28:44.78Z</time></trkpt><trkpt lat="44.4977607" lon="4.4711025"><ele>263.0</ele><time>2026-04-10T16:28:45.78Z</time></trkpt><trkpt lat="44.4978533" lon="4.4710106"><ele>263.0</ele><time>2026-04-10T16:28:46.785Z</time></trkpt><trkpt lat="44.4979362" lon="4.4709209"><ele>263.0</ele><time>2026-04-10T16:28:47.778Z</time></trkpt><trkpt lat="44.4980128" lon="4.4708304"><ele>263.0</ele><time>2026-04-10T16:28:48.785Z</time></trkpt><trkpt lat="44.4980782" lon="4.4707252"><ele>265.8</ele><time>2026-04-10T16:28:49.78Z</time></trkpt><trkpt lat="44.4981357" lon="4.4706196"><ele>268.6</ele><time>2026-04-10T16:28:50.778Z</time></trkpt><trkpt lat="44.4981782" lon="4.470505"><ele>271.4</ele><time>2026-04-10T16:28:51.779Z</time></trkpt><trkpt lat="44.4982204" lon="4.4703878"><ele>274.2</ele><time>2026-04-10T16:28:52.787Z</time></trkpt><trkpt lat="44.4982552" lon="4.4702725"><ele>277.0</ele><time>2026-04-10T16:28:53.78Z</time></trkpt><trkpt lat="44.4983017" lon="4.4701591"><ele>277.0</ele><time>2026-04-10T16:28:54.775Z</time></trkpt><trkpt lat="44.4983578" lon="4.4700525"><ele>277.0</ele><time>2026-04-10T16:28:55.779Z</time></trkpt><trkpt lat="44.4984185" lon="4.46993"><ele>277.0</ele><time>2026-04-10T16:28:56.778Z</time></trkpt><trkpt lat="44.4984769" lon="4.4698106"><ele>277.0</ele><time>2026-04-10T16:28:57.776Z</time></trkpt><trkpt lat="44.498532" lon="4.4697049"><ele>277.0</ele><time>2026-04-10T16:28:58.778Z</time></trkpt><trkpt lat="44.4985902" lon="4.4696345"><ele>277.0</ele><time>2026-04-10T16:28:59.781Z</time></trkpt><trkpt lat="44.4986532" lon="4.4695811"><ele>277.0</ele><time>2026-04-10T16:29:00.775Z</time></trkpt><trkpt lat="44.4987341" lon="4.4695466"><ele>277.0</ele><time>2026-04-10T16:29:01.776Z</time></trkpt><trkpt lat="44.4988114" lon="4.4695311"><ele>277.0</ele><time>2026-04-10T16:29:02.785Z</time></trkpt><trkpt lat="44.4989162" lon="4.4695128"><ele>277.0</ele><time>2026-04-10T16:29:04.777Z</time></trkpt><trkpt lat="44.4988871" lon="4.4693596"><ele>277.0</ele><time>2026-04-10T16:29:07.776Z</time></trkpt><trkpt lat="44.4988378" lon="4.4692678"><ele>277.0</ele><time>2026-04-10T16:29:08.777Z</time></trkpt><trkpt lat="44.4987881" lon="4.46917"><ele>277.0</ele><time>2026-04-10T16:29:09.78Z</time></trkpt><trkpt lat="44.4987404" lon="4.469076"><ele>277.0</ele><time>2026-04-10T16:29:10.79Z</time></trkpt><trkpt lat="44.4987031" lon="4.4689848"><ele>277.0</ele><time>2026-04-10T16:29:11.787Z</time></trkpt><trkpt lat="44.4986622" lon="4.4688913"><ele>277.0</ele><time>2026-04-10T16:29:12.779Z</time></trkpt><trkpt lat="44.4986054" lon="4.4687851"><ele>278.5</ele><time>2026-04-10T16:29:13.777Z</time></trkpt><trkpt lat="44.4985533" lon="4.4686736"><ele>280.0</ele><time>2026-04-10T16:29:14.777Z</time></trkpt><trkpt lat="44.4985012" lon="4.4685692"><ele>281.5</ele><time>2026-04-10T16:29:15.777Z</time></trkpt><trkpt lat="44.4984578" lon="4.4684572"><ele>283.0</ele><time>2026-04-10T16:29:16.784Z</time></trkpt><trkpt lat="44.4984179" lon="4.4683516"><ele>284.5</ele><time>2026-04-10T16:29:17.783Z</time></trkpt><trkpt lat="44.4983812" lon="4.4682597"><ele>286.0</ele><time>2026-04-10T16:29:18.776Z</time></trkpt><trkpt lat="44.4983433" lon="4.4681729"><ele>285.99999999999994</ele><time>2026-04-10T16:29:19.783Z</time></trkpt><trkpt lat="44.4983015" lon="4.4680808"><ele>286.0</ele><time>2026-04-10T16:29:20.78Z</time></trkpt><trkpt lat="44.4982613" lon="4.4679911"><ele>286.0</ele><time>2026-04-10T16:29:21.779Z</time></trkpt><trkpt lat="44.498221" lon="4.4679159"><ele>286.0</ele><time>2026-04-10T16:29:22.785Z</time></trkpt><trkpt lat="44.4981779" lon="4.4678369"><ele>286.0</ele><time>2026-04-10T16:29:23.784Z</time></trkpt><trkpt lat="44.4981352" lon="4.4677502"><ele>285.99999999999994</ele><time>2026-04-10T16:29:24.79Z</time></trkpt><trkpt lat="44.4980913" lon="4.4676527"><ele>286.0</ele><time>2026-04-10T16:29:25.783Z</time></trkpt><trkpt lat="44.4980608" lon="4.4675461"><ele>289.0</ele><time>2026-04-10T16:29:26.776Z</time></trkpt><trkpt lat="44.4980166" lon="4.4674281"><ele>292.0</ele><time>2026-04-10T16:29:27.777Z</time></trkpt><trkpt lat="44.4979683" lon="4.4673112"><ele>295.0</ele><time>2026-04-10T16:29:28.776Z</time></trkpt><trkpt lat="44.4979191" lon="4.4672099"><ele>298.0</ele><time>2026-04-10T16:29:29.777Z</time></trkpt><trkpt lat="44.4978683" lon="4.4671082"><ele>301.0</ele><time>2026-04-10T16:29:30.776Z</time></trkpt><trkpt lat="44.4978162" lon="4.4670147"><ele>302.0</ele><time>2026-04-10T16:29:31.775Z</time></trkpt><trkpt lat="44.4977806" lon="4.4669145"><ele>303.0</ele><time>2026-04-10T16:29:32.78Z</time></trkpt><trkpt lat="44.4977382" lon="4.4668238"><ele>304.0</ele><time>2026-04-10T16:29:33.781Z</time></trkpt><trkpt lat="44.4976991" lon="4.466744"><ele>305.0</ele><time>2026-04-10T16:29:34.778Z</time></trkpt><trkpt lat="44.497666" lon="4.4666597"><ele>306.0</ele><time>2026-04-10T16:29:35.777Z</time></trkpt><trkpt lat="44.49762" lon="4.4665897"><ele>307.0</ele><time>2026-04-10T16:29:36.783Z</time></trkpt><trkpt lat="44.497551" lon="4.4664676"><ele>307.0</ele><time>2026-04-10T16:29:38.779Z</time></trkpt><trkpt lat="44.497494" lon="4.466345"><ele>307.0</ele><time>2026-04-10T16:29:40.781Z</time></trkpt><trkpt lat="44.4974333" lon="4.4662086"><ele>307.0</ele><time>2026-04-10T16:29:42.787Z</time></trkpt><trkpt lat="44.4973764" lon="4.4660642"><ele>307.0</ele><time>2026-04-10T16:29:44.776Z</time></trkpt><trkpt lat="44.4973145" lon="4.4659767"><ele>307.0</ele><time>2026-04-10T16:29:46.776Z</time></trkpt><trkpt lat="44.4972756" lon="4.4658509"><ele>312.75</ele><time>2026-04-10T16:29:48.775Z</time></trkpt><trkpt lat="44.4972342" lon="4.4657083"><ele>318.5</ele><time>2026-04-10T16:29:50.786Z</time></trkpt><trkpt lat="44.4971882" lon="4.4655413"><ele>324.25</ele><time>2026-04-10T16:29:52.777Z</time></trkpt><trkpt lat="44.4971447" lon="4.465402"><ele>330.0</ele><time>2026-04-10T16:29:54.773Z</time></trkpt><trkpt lat="44.4971166" lon="4.4652332"><ele>331.5</ele><time>2026-04-10T16:29:56.777Z</time></trkpt><trkpt lat="44.4970974" lon="4.4651379"><ele>333.0</ele><time>2026-04-10T16:29:57.785Z</time></trkpt><trkpt lat="44.4970732" lon="4.4650489"><ele>334.5</ele><time>2026-04-10T16:29:58.775Z</time></trkpt><trkpt lat="44.4970686" lon="4.4649519"><ele>336.0</ele><time>2026-04-10T16:29:59.776Z</time></trkpt><trkpt lat="44.4970751" lon="4.464839"><ele>337.5</ele><time>2026-04-10T16:30:00.779Z</time></trkpt><trkpt lat="44.497087" lon="4.4647306"><ele>339.0</ele><time>2026-04-10T16:30:01.777Z</time></trkpt><trkpt lat="44.4970564" lon="4.4645758"><ele>339.0</ele><time>2026-04-10T16:30:03.778Z</time></trkpt><trkpt lat="44.4970119" lon="4.4645016"><ele>339.0</ele><time>2026-04-10T16:30:04.777Z</time></trkpt><trkpt lat="44.4969427" lon="4.4644209"><ele>339.0</ele><time>2026-04-10T16:30:05.776Z</time></trkpt><trkpt lat="44.4968752" lon="4.4643557"><ele>339.0</ele><time>2026-04-10T16:30:06.784Z</time></trkpt><trkpt lat="44.4967987" lon="4.464304"><ele>339.0</ele><time>2026-04-10T16:30:07.775Z</time></trkpt><trkpt lat="44.4967206" lon="4.4642671"><ele>339.0</ele><time>2026-04-10T16:30:08.783Z</time></trkpt><trkpt lat="44.4966425" lon="4.4642419"><ele>339.0</ele><time>2026-04-10T16:30:09.774Z</time></trkpt><trkpt lat="44.4965502" lon="4.4642208"><ele>339.0</ele><time>2026-04-10T16:30:10.777Z</time></trkpt><trkpt lat="44.4964425" lon="4.464219"><ele>339.0</ele><time>2026-04-10T16:30:11.78Z</time></trkpt><trkpt lat="44.4963423" lon="4.4642198"><ele>339.0</ele><time>2026-04-10T16:30:12.776Z</time></trkpt><trkpt lat="44.4962408" lon="4.464206"><ele>339.0</ele><time>2026-04-10T16:30:13.775Z</time></trkpt><trkpt lat="44.4961411" lon="4.4642061"><ele>338.2</ele><time>2026-04-10T16:30:14.776Z</time></trkpt><trkpt lat="44.4960374" lon="4.4642163"><ele>337.4</ele><time>2026-04-10T16:30:15.78Z</time></trkpt><trkpt lat="44.4959464" lon="4.4642166"><ele>336.6</ele><time>2026-04-10T16:30:16.775Z</time></trkpt><trkpt lat="44.4958674" lon="4.4642113"><ele>335.8</ele><time>2026-04-10T16:30:17.774Z</time></trkpt><trkpt lat="44.4957974" lon="4.4642134"><ele>335.0</ele><time>2026-04-10T16:30:18.781Z</time></trkpt><trkpt lat="44.4956919" lon="4.4642416"><ele>335.0</ele><time>2026-04-10T16:30:20.78Z</time></trkpt><trkpt lat="44.4956022" lon="4.4642685"><ele>335.0</ele><time>2026-04-10T16:30:22.777Z</time></trkpt><trkpt lat="44.4955178" lon="4.4642815"><ele>335.0</ele><time>2026-04-10T16:30:24.779Z</time></trkpt><trkpt lat="44.4955539" lon="4.4641776"><ele>335.0</ele><time>2026-04-10T16:30:34.782Z</time></trkpt><trkpt lat="44.4956345" lon="4.4640852"><ele>335.0</ele><time>2026-04-10T16:30:36.779Z</time></trkpt><trkpt lat="44.4956938" lon="4.4640292"><ele>335.0</ele><time>2026-04-10T16:30:37.779Z</time></trkpt><trkpt lat="44.4957658" lon="4.4639703"><ele>335.0</ele><time>2026-04-10T16:30:38.783Z</time></trkpt><trkpt lat="44.4958284" lon="4.4639253"><ele>335.0</ele><time>2026-04-10T16:30:39.778Z</time></trkpt><trkpt lat="44.4958968" lon="4.4638735"><ele>335.0</ele><time>2026-04-10T16:30:40.784Z</time></trkpt><trkpt lat="44.4959544" lon="4.463832"><ele>335.0</ele><time>2026-04-10T16:30:41.79Z</time></trkpt><trkpt lat="44.4960203" lon="4.4637813"><ele>335.0</ele><time>2026-04-10T16:30:42.785Z</time></trkpt><trkpt lat="44.4961006" lon="4.4637242"><ele>335.0</ele><time>2026-04-10T16:30:43.782Z</time></trkpt><trkpt lat="44.4961605" lon="4.4636644"><ele>337.83333333333337</ele><time>2026-04-10T16:30:44.779Z</time></trkpt><trkpt lat="44.4962566" lon="4.4636125"><ele>340.6666666666667</ele><time>2026-04-10T16:30:46.785Z</time></trkpt><trkpt lat="44.4963219" lon="4.4636026"><ele>343.5</ele><time>2026-04-10T16:30:47.782Z</time></trkpt><trkpt lat="44.496422" lon="4.4636137"><ele>346.3333333333333</ele><time>2026-04-10T16:30:49.779Z</time></trkpt><trkpt lat="44.4964905" lon="4.4635526"><ele>349.16666666666663</ele><time>2026-04-10T16:30:51.775Z</time></trkpt><trkpt lat="44.4965394" lon="4.4634417"><ele>352.0</ele><time>2026-04-10T16:30:53.795Z</time></trkpt><trkpt lat="44.4966211" lon="4.4633034"><ele>352.0</ele><time>2026-04-10T16:30:55.776Z</time></trkpt><trkpt lat="44.4966585" lon="4.4632195"><ele>352.0</ele><time>2026-04-10T16:30:56.778Z</time></trkpt><trkpt lat="44.496697" lon="4.4631231"><ele>352.0</ele><time>2026-04-10T16:30:57.778Z</time></trkpt><trkpt lat="44.49672" lon="4.4630281"><ele>352.0</ele><time>2026-04-10T16:30:58.778Z</time></trkpt><trkpt lat="44.4967253" lon="4.4629343"><ele>352.0</ele><time>2026-04-10T16:30:59.783Z</time></trkpt><trkpt lat="44.496705" lon="4.4628391"><ele>352.0</ele><time>2026-04-10T16:31:00.783Z</time></trkpt><trkpt lat="44.4966731" lon="4.4626827"><ele>353.3333333333333</ele><time>2026-04-10T16:31:02.803Z</time></trkpt><trkpt lat="44.4967026" lon="4.4625389"><ele>354.66666666666663</ele><time>2026-04-10T16:31:04.777Z</time></trkpt><trkpt lat="44.4967111" lon="4.4624381"><ele>356.0</ele><time>2026-04-10T16:31:05.776Z</time></trkpt><trkpt lat="44.4967193" lon="4.4623356"><ele>357.3333333333333</ele><time>2026-04-10T16:31:06.783Z</time></trkpt><trkpt lat="44.4967345" lon="4.4622317"><ele>358.6666666666667</ele><time>2026-04-10T16:31:07.78Z</time></trkpt><trkpt lat="44.4967479" lon="4.462128"><ele>360.0</ele><time>2026-04-10T16:31:08.783Z</time></trkpt><trkpt lat="44.4967865" lon="4.4619751"><ele>360.5</ele><time>2026-04-10T16:31:10.778Z</time></trkpt><trkpt lat="44.4968445" lon="4.4618977"><ele>361.0</ele><time>2026-04-10T16:31:12.784Z</time></trkpt><trkpt lat="44.4969154" lon="4.4618942"><ele>361.5</ele><time>2026-04-10T16:31:14.779Z</time></trkpt><trkpt lat="44.4970281" lon="4.4619457"><ele>362.0</ele><time>2026-04-10T16:31:16.781Z</time></trkpt><trkpt lat="44.4970828" lon="4.4619985"><ele>362.5</ele><time>2026-04-10T16:31:17.784Z</time></trkpt><trkpt lat="44.4971923" lon="4.4620292"><ele>363.0</ele><time>2026-04-10T16:31:19.784Z</time></trkpt><trkpt lat="44.4972631" lon="4.4620217"><ele>363.0</ele><time>2026-04-10T16:31:20.782Z</time></trkpt><trkpt lat="44.4973433" lon="4.4620087"><ele>363.0</ele><time>2026-04-10T16:31:21.781Z</time></trkpt><trkpt lat="44.4974095" lon="4.4619825"><ele>363.0</ele><time>2026-04-10T16:31:22.782Z</time></trkpt><trkpt lat="44.4975258" lon="4.4619535"><ele>363.0</ele><time>2026-04-10T16:31:24.798Z</time></trkpt><trkpt lat="44.497603" lon="4.4618543"><ele>363.0</ele><time>2026-04-10T16:31:26.783Z</time></trkpt><trkpt lat="44.4976463" lon="4.4617044"><ele>363.0</ele><time>2026-04-10T16:31:28.783Z</time></trkpt><trkpt lat="44.4976371" lon="4.4615516"><ele>363.0</ele><time>2026-04-10T16:31:30.784Z</time></trkpt><trkpt lat="44.4975412" lon="4.4614203"><ele>363.0</ele><time>2026-04-10T16:31:32.779Z</time></trkpt><trkpt lat="44.4974655" lon="4.4613523"><ele>363.0</ele><time>2026-04-10T16:31:33.778Z</time></trkpt><trkpt lat="44.4974072" lon="4.4612989"><ele>363.0</ele><time>2026-04-10T16:31:34.785Z</time></trkpt><trkpt lat="44.4973391" lon="4.4612282"><ele>361.1666666666667</ele><time>2026-04-10T16:31:35.783Z</time></trkpt><trkpt lat="44.4972637" lon="4.4611681"><ele>359.3333333333333</ele><time>2026-04-10T16:31:36.781Z</time></trkpt><trkpt lat="44.4971975" lon="4.4611043"><ele>357.5</ele><time>2026-04-10T16:31:37.786Z</time></trkpt><trkpt lat="44.4971448" lon="4.4610292"><ele>355.66666666666663</ele><time>2026-04-10T16:31:38.784Z</time></trkpt><trkpt lat="44.4970782" lon="4.460949"><ele>353.8333333333333</ele><time>2026-04-10T16:31:39.78Z</time></trkpt><trkpt lat="44.4970197" lon="4.4608739"><ele>352.0</ele><time>2026-04-10T16:31:40.784Z</time></trkpt><trkpt lat="44.4969586" lon="4.4607959"><ele>352.0</ele><time>2026-04-10T16:31:41.781Z</time></trkpt><trkpt lat="44.4969035" lon="4.4606943"><ele>352.0</ele><time>2026-04-10T16:31:42.78Z</time></trkpt><trkpt lat="44.4968463" lon="4.4606045"><ele>352.0</ele><time>2026-04-10T16:31:43.777Z</time></trkpt><trkpt lat="44.496791" lon="4.4605213"><ele>352.0</ele><time>2026-04-10T16:31:44.784Z</time></trkpt><trkpt lat="44.4967295" lon="4.4603983"><ele>352.0</ele><time>2026-04-10T16:31:46.78Z</time></trkpt><trkpt lat="44.4967534" lon="4.4602337"><ele>350.5</ele><time>2026-04-10T16:31:48.781Z</time></trkpt><trkpt lat="44.4967868" lon="4.4600839"><ele>349.0</ele><time>2026-04-10T16:31:50.783Z</time></trkpt><trkpt lat="44.4967983" lon="4.459978"><ele>347.5</ele><time>2026-04-10T16:31:52.776Z</time></trkpt><trkpt lat="44.4968198" lon="4.4598791"><ele>346.0</ele><time>2026-04-10T16:31:54.784Z</time></trkpt><trkpt lat="44.4968509" lon="4.4597512"><ele>344.5</ele><time>2026-04-10T16:31:56.785Z</time></trkpt><trkpt lat="44.4968877" lon="4.4596457"><ele>343.0</ele><time>2026-04-10T16:31:57.778Z</time></trkpt><trkpt lat="44.4969354" lon="4.4595483"><ele>343.25</ele><time>2026-04-10T16:31:58.78Z</time></trkpt><trkpt lat="44.4970062" lon="4.4594435"><ele>343.5</ele><time>2026-04-10T16:31:59.79Z</time></trkpt><trkpt lat="44.4970802" lon="4.4593299"><ele>343.75</ele><time>2026-04-10T16:32:00.792Z</time></trkpt><trkpt lat="44.4971616" lon="4.4592054"><ele>344.0</ele><time>2026-04-10T16:32:01.777Z</time></trkpt><trkpt lat="44.4972496" lon="4.4590909"><ele>344.0</ele><time>2026-04-10T16:32:02.783Z</time></trkpt><trkpt lat="44.497314" lon="4.4589851"><ele>344.0</ele><time>2026-04-10T16:32:03.777Z</time></trkpt><trkpt lat="44.4973801" lon="4.458887"><ele>344.0</ele><time>2026-04-10T16:32:04.784Z</time></trkpt><trkpt lat="44.4974399" lon="4.4587852"><ele>344.0</ele><time>2026-04-10T16:32:05.784Z</time></trkpt><trkpt lat="44.4974814" lon="4.458689"><ele>344.0</ele><time>2026-04-10T16:32:06.782Z</time></trkpt><trkpt lat="44.4975146" lon="4.458586"><ele>343.83333333333337</ele><time>2026-04-10T16:32:07.784Z</time></trkpt><trkpt lat="44.4975473" lon="4.4584975"><ele>343.6666666666667</ele><time>2026-04-10T16:32:08.779Z</time></trkpt><trkpt lat="44.4975883" lon="4.4584204"><ele>343.5</ele><time>2026-04-10T16:32:09.78Z</time></trkpt><trkpt lat="44.497687" lon="4.4583129"><ele>343.3333333333333</ele><time>2026-04-10T16:32:11.781Z</time></trkpt><trkpt lat="44.4977549" lon="4.4582483"><ele>343.16666666666663</ele><time>2026-04-10T16:32:12.779Z</time></trkpt><trkpt lat="44.4978269" lon="4.4581776"><ele>343.0</ele><time>2026-04-10T16:32:13.782Z</time></trkpt><trkpt lat="44.4978975" lon="4.4580948"><ele>343.66666666666663</ele><time>2026-04-10T16:32:14.776Z</time></trkpt><trkpt lat="44.4979652" lon="4.4579984"><ele>344.3333333333333</ele><time>2026-04-10T16:32:15.778Z</time></trkpt><trkpt lat="44.4980314" lon="4.4579086"><ele>345.0</ele><time>2026-04-10T16:32:16.784Z</time></trkpt><trkpt lat="44.4980883" lon="4.4578463"><ele>345.6666666666667</ele><time>2026-04-10T16:32:17.786Z</time></trkpt><trkpt lat="44.4981501" lon="4.4577952"><ele>346.33333333333337</ele><time>2026-04-10T16:32:18.782Z</time></trkpt><trkpt lat="44.4982175" lon="4.4577643"><ele>347.0</ele><time>2026-04-10T16:32:19.783Z</time></trkpt><trkpt lat="44.4983396" lon="4.4577255"><ele>347.40000000000003</ele><time>2026-04-10T16:32:21.784Z</time></trkpt><trkpt lat="44.498437" lon="4.4576617"><ele>347.8</ele><time>2026-04-10T16:32:23.778Z</time></trkpt><trkpt lat="44.4985183" lon="4.4576491"><ele>348.2</ele><time>2026-04-10T16:32:25.778Z</time></trkpt><trkpt lat="44.4986183" lon="4.4576358"><ele>348.6</ele><time>2026-04-10T16:32:27.78Z</time></trkpt><trkpt lat="44.4987171" lon="4.457624"><ele>349.0</ele><time>2026-04-10T16:32:29.781Z</time></trkpt><trkpt lat="44.4988239" lon="4.4576351"><ele>351.2857142857143</ele><time>2026-04-10T16:32:31.783Z</time></trkpt><trkpt lat="44.4988922" lon="4.4576444"><ele>353.57142857142856</ele><time>2026-04-10T16:32:32.78Z</time></trkpt><trkpt lat="44.49896" lon="4.4576428"><ele>355.8571428571429</ele><time>2026-04-10T16:32:33.781Z</time></trkpt><trkpt lat="44.4990252" lon="4.4576098"><ele>358.1428571428571</ele><time>2026-04-10T16:32:34.778Z</time></trkpt><trkpt lat="44.4991024" lon="4.4575832"><ele>360.42857142857144</ele><time>2026-04-10T16:32:35.779Z</time></trkpt><trkpt lat="44.499179" lon="4.4575588"><ele>362.7142857142857</ele><time>2026-04-10T16:32:36.782Z</time></trkpt><trkpt lat="44.499247" lon="4.4575449"><ele>365.0</ele><time>2026-04-10T16:32:37.785Z</time></trkpt><trkpt lat="44.4993218" lon="4.4575186"><ele>365.0</ele><time>2026-04-10T16:32:38.779Z</time></trkpt><trkpt lat="44.4994059" lon="4.4574943"><ele>365.0</ele><time>2026-04-10T16:32:39.777Z</time></trkpt><trkpt lat="44.49949" lon="4.4574718"><ele>365.0</ele><time>2026-04-10T16:32:40.784Z</time></trkpt><trkpt lat="44.4995851" lon="4.4574462"><ele>365.0</ele><time>2026-04-10T16:32:41.781Z</time></trkpt><trkpt lat="44.4996825" lon="4.4574183"><ele>365.0</ele><time>2026-04-10T16:32:42.78Z</time></trkpt><trkpt lat="44.4997859" lon="4.4573795"><ele>366.0</ele><time>2026-04-10T16:32:43.783Z</time></trkpt><trkpt lat="44.4998766" lon="4.4573426"><ele>367.0</ele><time>2026-04-10T16:32:44.781Z</time></trkpt><trkpt lat="44.4999608" lon="4.4573018"><ele>368.0</ele><time>2026-04-10T16:32:45.782Z</time></trkpt><trkpt lat="44.5000534" lon="4.4572604"><ele>369.0</ele><time>2026-04-10T16:32:46.785Z</time></trkpt><trkpt lat="44.5001536" lon="4.4572126"><ele>370.0</ele><time>2026-04-10T16:32:47.781Z</time></trkpt><trkpt lat="44.5002524" lon="4.4571715"><ele>370.0</ele><time>2026-04-10T16:32:48.78Z</time></trkpt><trkpt lat="44.5003507" lon="4.4571293"><ele>370.0</ele><time>2026-04-10T16:32:49.783Z</time></trkpt><trkpt lat="44.5004444" lon="4.4570825"><ele>370.0</ele><time>2026-04-10T16:32:50.777Z</time></trkpt><trkpt lat="44.5005304" lon="4.4570388"><ele>370.0</ele><time>2026-04-10T16:32:51.779Z</time></trkpt><trkpt lat="44.5006033" lon="4.4569761"><ele>370.0</ele><time>2026-04-10T16:32:52.78Z</time></trkpt><trkpt lat="44.5006674" lon="4.4569147"><ele>371.3333333333333</ele><time>2026-04-10T16:32:53.779Z</time></trkpt><trkpt lat="44.5007294" lon="4.4568661"><ele>372.66666666666663</ele><time>2026-04-10T16:32:54.777Z</time></trkpt><trkpt lat="44.5007912" lon="4.4568284"><ele>374.0</ele><time>2026-04-10T16:32:55.778Z</time></trkpt><trkpt lat="44.5008598" lon="4.4567848"><ele>375.3333333333333</ele><time>2026-04-10T16:32:56.782Z</time></trkpt><trkpt lat="44.5009301" lon="4.4567435"><ele>376.6666666666667</ele><time>2026-04-10T16:32:57.779Z</time></trkpt><trkpt lat="44.501008" lon="4.4566982"><ele>378.0</ele><time>2026-04-10T16:32:58.781Z</time></trkpt><trkpt lat="44.5010847" lon="4.4566478"><ele>378.0</ele><time>2026-04-10T16:32:59.779Z</time></trkpt><trkpt lat="44.5011583" lon="4.4565885"><ele>378.0</ele><time>2026-04-10T16:33:00.78Z</time></trkpt><trkpt lat="44.5012298" lon="4.4565294"><ele>378.0</ele><time>2026-04-10T16:33:01.78Z</time></trkpt><trkpt lat="44.5012933" lon="4.4564692"><ele>378.0</ele><time>2026-04-10T16:33:02.781Z</time></trkpt><trkpt lat="44.5013615" lon="4.4564185"><ele>378.0</ele><time>2026-04-10T16:33:03.783Z</time></trkpt><trkpt lat="44.5014322" lon="4.4563643"><ele>378.0</ele><time>2026-04-10T16:33:04.779Z</time></trkpt><trkpt lat="44.5014969" lon="4.4563001"><ele>379.0</ele><time>2026-04-10T16:33:05.778Z</time></trkpt><trkpt lat="44.5015567" lon="4.456229"><ele>380.0</ele><time>2026-04-10T16:33:06.784Z</time></trkpt><trkpt lat="44.5016164" lon="4.4561561"><ele>381.0</ele><time>2026-04-10T16:33:07.782Z</time></trkpt><trkpt lat="44.5016727" lon="4.456073"><ele>382.0</ele><time>2026-04-10T16:33:08.78Z</time></trkpt><trkpt lat="44.5017127" lon="4.4559574"><ele>383.0</ele><time>2026-04-10T16:33:09.787Z</time></trkpt><trkpt lat="44.5017624" lon="4.4558383"><ele>384.0</ele><time>2026-04-10T16:33:10.778Z</time></trkpt><trkpt lat="44.501816" lon="4.4557102"><ele>384.0</ele><time>2026-04-10T16:33:11.777Z</time></trkpt><trkpt lat="44.5018739" lon="4.4555781"><ele>384.0</ele><time>2026-04-10T16:33:12.781Z</time></trkpt><trkpt lat="44.5019366" lon="4.4554438"><ele>384.0</ele><time>2026-04-10T16:33:13.775Z</time></trkpt><trkpt lat="44.5019905" lon="4.4553199"><ele>384.0</ele><time>2026-04-10T16:33:14.779Z</time></trkpt><trkpt lat="44.5020614" lon="4.4552328"><ele>384.0</ele><time>2026-04-10T16:33:15.781Z</time></trkpt><trkpt lat="44.5021433" lon="4.4551566"><ele>383.8333333333333</ele><time>2026-04-10T16:33:16.782Z</time></trkpt><trkpt lat="44.5022053" lon="4.4550826"><ele>383.6666666666667</ele><time>2026-04-10T16:33:17.781Z</time></trkpt><trkpt lat="44.5022871" lon="4.4550223"><ele>383.5</ele><time>2026-04-10T16:33:18.778Z</time></trkpt><trkpt lat="44.5023601" lon="4.454963"><ele>383.33333333333337</ele><time>2026-04-10T16:33:19.779Z</time></trkpt><trkpt lat="44.502417" lon="4.4549109"><ele>383.1666666666667</ele><time>2026-04-10T16:33:20.778Z</time></trkpt><trkpt lat="44.5025019" lon="4.4548294"><ele>383.0</ele><time>2026-04-10T16:33:22.78Z</time></trkpt><trkpt lat="44.5025392" lon="4.454721"><ele>382.79999999999995</ele><time>2026-04-10T16:33:24.785Z</time></trkpt><trkpt lat="44.50253" lon="4.4546135"><ele>382.6</ele><time>2026-04-10T16:33:27.78Z</time></trkpt><trkpt lat="44.5024717" lon="4.4545412"><ele>382.4</ele><time>2026-04-10T16:34:08.783Z</time></trkpt><trkpt lat="44.5024251" lon="4.454392"><ele>382.20000000000005</ele><time>2026-04-10T16:34:10.775Z</time></trkpt><trkpt lat="44.5023661" lon="4.4542625"><ele>382.0</ele><time>2026-04-10T16:34:12.777Z</time></trkpt><trkpt lat="44.5023027" lon="4.4541422"><ele>382.0</ele><time>2026-04-10T16:34:14.782Z</time></trkpt><trkpt lat="44.5022463" lon="4.4540394"><ele>382.0</ele><time>2026-04-10T16:34:16.784Z</time></trkpt><trkpt lat="44.5021774" lon="4.4539524"><ele>382.0</ele><time>2026-04-10T16:34:18.78Z</time></trkpt><trkpt lat="44.502083" lon="4.4539271"><ele>382.0</ele><time>2026-04-10T16:34:20.776Z</time></trkpt><trkpt lat="44.5020076" lon="4.4539107"><ele>382.0</ele><time>2026-04-10T16:34:21.776Z</time></trkpt><trkpt lat="44.5019121" lon="4.4538788"><ele>383.20000000000005</ele><time>2026-04-10T16:34:22.783Z</time></trkpt><trkpt lat="44.5018111" lon="4.4538407"><ele>384.4</ele><time>2026-04-10T16:34:23.78Z</time></trkpt><trkpt lat="44.5017042" lon="4.4538076"><ele>385.6</ele><time>2026-04-10T16:34:24.78Z</time></trkpt><trkpt lat="44.5015952" lon="4.453769"><ele>386.79999999999995</ele><time>2026-04-10T16:34:25.78Z</time></trkpt><trkpt lat="44.5014908" lon="4.4537263"><ele>388.0</ele><time>2026-04-10T16:34:26.779Z</time></trkpt><trkpt lat="44.5013881" lon="4.4536858"><ele>385.59999999999997</ele><time>2026-04-10T16:34:27.775Z</time></trkpt><trkpt lat="44.5012851" lon="4.453634"><ele>383.2</ele><time>2026-04-10T16:34:28.775Z</time></trkpt><trkpt lat="44.5011891" lon="4.4535888"><ele>380.8</ele><time>2026-04-10T16:34:29.78Z</time></trkpt><trkpt lat="44.5010993" lon="4.4535376"><ele>378.4</ele><time>2026-04-10T16:34:30.774Z</time></trkpt><trkpt lat="44.5010036" lon="4.4534908"><ele>376.0</ele><time>2026-04-10T16:34:31.777Z</time></trkpt><trkpt lat="44.500919" lon="4.4534571"><ele>376.0</ele><time>2026-04-10T16:34:32.779Z</time></trkpt><trkpt lat="44.5008202" lon="4.4534219"><ele>376.0</ele><time>2026-04-10T16:34:33.777Z</time></trkpt><trkpt lat="44.5007127" lon="4.4533872"><ele>376.0</ele><time>2026-04-10T16:34:34.776Z</time></trkpt><trkpt lat="44.5006135" lon="4.45334"><ele>376.0</ele><time>2026-04-10T16:34:35.778Z</time></trkpt><trkpt lat="44.5005203" lon="4.4532819"><ele>376.0</ele><time>2026-04-10T16:34:36.777Z</time></trkpt><trkpt lat="44.5004217" lon="4.4532315"><ele>375.4</ele><time>2026-04-10T16:34:37.782Z</time></trkpt><trkpt lat="44.5003332" lon="4.453149"><ele>374.8</ele><time>2026-04-10T16:34:38.778Z</time></trkpt><trkpt lat="44.5002606" lon="4.4530612"><ele>374.2</ele><time>2026-04-10T16:34:39.777Z</time></trkpt><trkpt lat="44.5001756" lon="4.4529695"><ele>373.59999999999997</ele><time>2026-04-10T16:34:40.776Z</time></trkpt><trkpt lat="44.500095" lon="4.4528789"><ele>373.0</ele><time>2026-04-10T16:34:41.789Z</time></trkpt><trkpt lat="44.500018" lon="4.4527842"><ele>373.0</ele><time>2026-04-10T16:34:42.779Z</time></trkpt><trkpt lat="44.4999391" lon="4.4527079"><ele>373.0</ele><time>2026-04-10T16:34:43.778Z</time></trkpt><trkpt lat="44.4998561" lon="4.4526258"><ele>373.0</ele><time>2026-04-10T16:34:44.776Z</time></trkpt><trkpt lat="44.4997756" lon="4.452566"><ele>373.0</ele><time>2026-04-10T16:34:45.781Z</time></trkpt><trkpt lat="44.4996851" lon="4.452503"><ele>373.0</ele><time>2026-04-10T16:34:46.788Z</time></trkpt><trkpt lat="44.4995835" lon="4.4524392"><ele>373.59999999999997</ele><time>2026-04-10T16:34:47.781Z</time></trkpt><trkpt lat="44.4994764" lon="4.4523841"><ele>374.2</ele><time>2026-04-10T16:34:48.778Z</time></trkpt><trkpt lat="44.4993786" lon="4.4523126"><ele>374.8</ele><time>2026-04-10T16:34:49.78Z</time></trkpt><trkpt lat="44.4992782" lon="4.452243"><ele>375.4</ele><time>2026-04-10T16:34:50.775Z</time></trkpt><trkpt lat="44.4991857" lon="4.4521663"><ele>376.0</ele><time>2026-04-10T16:34:51.783Z</time></trkpt><trkpt lat="44.4990982" lon="4.4521029"><ele>372.6</ele><time>2026-04-10T16:34:52.778Z</time></trkpt><trkpt lat="44.4989863" lon="4.4520609"><ele>369.20000000000005</ele><time>2026-04-10T16:34:53.786Z</time></trkpt><trkpt lat="44.4988923" lon="4.4519922"><ele>365.79999999999995</ele><time>2026-04-10T16:34:54.78Z</time></trkpt><trkpt lat="44.4987981" lon="4.451933"><ele>362.4</ele><time>2026-04-10T16:34:55.78Z</time></trkpt><trkpt lat="44.4986911" lon="4.4518751"><ele>359.0</ele><time>2026-04-10T16:34:56.787Z</time></trkpt><trkpt lat="44.4985924" lon="4.451831"><ele>359.0</ele><time>2026-04-10T16:34:57.786Z</time></trkpt><trkpt lat="44.4984749" lon="4.4517864"><ele>359.0</ele><time>2026-04-10T16:34:58.787Z</time></trkpt><trkpt lat="44.4983679" lon="4.451738"><ele>359.0</ele><time>2026-04-10T16:34:59.786Z</time></trkpt><trkpt lat="44.4982432" lon="4.4516831"><ele>359.0</ele><time>2026-04-10T16:35:00.774Z</time></trkpt><trkpt lat="44.4981384" lon="4.4516272"><ele>359.0</ele><time>2026-04-10T16:35:01.773Z</time></trkpt><trkpt lat="44.4980382" lon="4.4515766"><ele>359.0</ele><time>2026-04-10T16:35:02.778Z</time></trkpt><trkpt lat="44.4979452" lon="4.4515172"><ele>359.0</ele><time>2026-04-10T16:35:03.785Z</time></trkpt><trkpt lat="44.4978513" lon="4.4514435"><ele>359.0</ele><time>2026-04-10T16:35:04.779Z</time></trkpt><trkpt lat="44.4977622" lon="4.451363"><ele>359.0</ele><time>2026-04-10T16:35:05.781Z</time></trkpt><trkpt lat="44.497688" lon="4.4512632"><ele>357.4</ele><time>2026-04-10T16:35:06.783Z</time></trkpt><trkpt lat="44.4976168" lon="4.4511491"><ele>355.79999999999995</ele><time>2026-04-10T16:35:07.781Z</time></trkpt><trkpt lat="44.4975478" lon="4.4510379"><ele>354.20000000000005</ele><time>2026-04-10T16:35:08.778Z</time></trkpt><trkpt lat="44.4974749" lon="4.4509225"><ele>352.6</ele><time>2026-04-10T16:35:09.782Z</time></trkpt><trkpt lat="44.4973941" lon="4.4508209"><ele>351.0</ele><time>2026-04-10T16:35:10.776Z</time></trkpt><trkpt lat="44.4973059" lon="4.4507222"><ele>351.0</ele><time>2026-04-10T16:35:11.777Z</time></trkpt><trkpt lat="44.4972287" lon="4.4506289"><ele>351.0</ele><time>2026-04-10T16:35:12.783Z</time></trkpt><trkpt lat="44.4971434" lon="4.4505408"><ele>351.0</ele><time>2026-04-10T16:35:13.777Z</time></trkpt><trkpt lat="44.49705" lon="4.4504771"><ele>351.0</ele><time>2026-04-10T16:35:14.781Z</time></trkpt><trkpt lat="44.4969289" lon="4.4504275"><ele>351.0</ele><time>2026-04-10T16:35:15.782Z</time></trkpt><trkpt lat="44.4968088" lon="4.4503806"><ele>348.5</ele><time>2026-04-10T16:35:16.782Z</time></trkpt><trkpt lat="44.4966906" lon="4.4503493"><ele>346.0</ele><time>2026-04-10T16:35:17.785Z</time></trkpt><trkpt lat="44.4965799" lon="4.4503175"><ele>343.5</ele><time>2026-04-10T16:35:18.781Z</time></trkpt><trkpt lat="44.496471" lon="4.4502759"><ele>341.0</ele><time>2026-04-10T16:35:19.778Z</time></trkpt><trkpt lat="44.4963665" lon="4.4502283"><ele>341.0</ele><time>2026-04-10T16:35:20.782Z</time></trkpt><trkpt lat="44.4962581" lon="4.4501904"><ele>341.0</ele><time>2026-04-10T16:35:21.778Z</time></trkpt><trkpt lat="44.496143" lon="4.4501574"><ele>341.0</ele><time>2026-04-10T16:35:22.778Z</time></trkpt><trkpt lat="44.496026" lon="4.450125"><ele>341.0</ele><time>2026-04-10T16:35:23.775Z</time></trkpt><trkpt lat="44.4959128" lon="4.4500911"><ele>340.6</ele><time>2026-04-10T16:35:24.782Z</time></trkpt><trkpt lat="44.4958116" lon="4.4500461"><ele>340.20000000000005</ele><time>2026-04-10T16:35:25.781Z</time></trkpt><trkpt lat="44.495707" lon="4.4500106"><ele>339.79999999999995</ele><time>2026-04-10T16:35:26.774Z</time></trkpt><trkpt lat="44.4955973" lon="4.4499877"><ele>339.4</ele><time>2026-04-10T16:35:27.785Z</time></trkpt><trkpt lat="44.4954875" lon="4.4499523"><ele>339.0</ele><time>2026-04-10T16:35:28.79Z</time></trkpt><trkpt lat="44.4953711" lon="4.4499172"><ele>338.0</ele><time>2026-04-10T16:35:29.784Z</time></trkpt><trkpt lat="44.4952636" lon="4.4498871"><ele>337.0</ele><time>2026-04-10T16:35:30.779Z</time></trkpt><trkpt lat="44.4951602" lon="4.4498653"><ele>336.0</ele><time>2026-04-10T16:35:31.781Z</time></trkpt><trkpt lat="44.4950599" lon="4.4498281"><ele>335.0</ele><time>2026-04-10T16:35:32.78Z</time></trkpt><trkpt lat="44.494954" lon="4.4497916"><ele>334.0</ele><time>2026-04-10T16:35:33.784Z</time></trkpt><trkpt lat="44.4948453" lon="4.4497529"><ele>334.0</ele><time>2026-04-10T16:35:34.781Z</time></trkpt><trkpt lat="44.4947313" lon="4.4497085"><ele>334.0</ele><time>2026-04-10T16:35:35.777Z</time></trkpt><trkpt lat="44.4946184" lon="4.4496572"><ele>334.0</ele><time>2026-04-10T16:35:36.775Z</time></trkpt><trkpt lat="44.4945101" lon="4.4496041"><ele>334.0</ele><time>2026-04-10T16:35:37.787Z</time></trkpt><trkpt lat="44.4943976" lon="4.4495349"><ele>332.25</ele><time>2026-04-10T16:35:38.772Z</time></trkpt><trkpt lat="44.4942881" lon="4.4494637"><ele>330.5</ele><time>2026-04-10T16:35:39.781Z</time></trkpt><trkpt lat="44.4941775" lon="4.4493944"><ele>328.75</ele><time>2026-04-10T16:35:40.777Z</time></trkpt><trkpt lat="44.494055" lon="4.4493257"><ele>327.0</ele><time>2026-04-10T16:35:41.775Z</time></trkpt><trkpt lat="44.4939271" lon="4.4492534"><ele>327.0</ele><time>2026-04-10T16:35:42.776Z</time></trkpt><trkpt lat="44.4937935" lon="4.4491761"><ele>327.0</ele><time>2026-04-10T16:35:43.78Z</time></trkpt><trkpt lat="44.4936557" lon="4.4490909"><ele>327.0</ele><time>2026-04-10T16:35:44.778Z</time></trkpt><trkpt lat="44.4935143" lon="4.4490088"><ele>327.0</ele><time>2026-04-10T16:35:45.78Z</time></trkpt><trkpt lat="44.4933825" lon="4.4489305"><ele>327.0</ele><time>2026-04-10T16:35:46.777Z</time></trkpt><trkpt lat="44.4932609" lon="4.4488611"><ele>327.0</ele><time>2026-04-10T16:35:47.776Z</time></trkpt><trkpt lat="44.4931554" lon="4.4487894"><ele>327.0</ele><time>2026-04-10T16:35:48.775Z</time></trkpt><trkpt lat="44.4930389" lon="4.4487201"><ele>327.0</ele><time>2026-04-10T16:35:49.799Z</time></trkpt><trkpt lat="44.4929162" lon="4.4486475"><ele>327.0</ele><time>2026-04-10T16:35:50.781Z</time></trkpt><trkpt lat="44.4927901" lon="4.4485737"><ele>327.0</ele><time>2026-04-10T16:35:51.775Z</time></trkpt><trkpt lat="44.4926597" lon="4.4484858"><ele>327.0</ele><time>2026-04-10T16:35:52.784Z</time></trkpt><trkpt lat="44.4925346" lon="4.4483986"><ele>327.0</ele><time>2026-04-10T16:35:53.776Z</time></trkpt><trkpt lat="44.4924117" lon="4.4483081"><ele>327.0</ele><time>2026-04-10T16:35:54.775Z</time></trkpt><trkpt lat="44.4922942" lon="4.448236"><ele>327.0</ele><time>2026-04-10T16:35:55.782Z</time></trkpt><trkpt lat="44.492159" lon="4.4481726"><ele>327.0</ele><time>2026-04-10T16:35:56.778Z</time></trkpt><trkpt lat="44.4920185" lon="4.4481027"><ele>327.0</ele><time>2026-04-10T16:35:57.778Z</time></trkpt><trkpt lat="44.491891" lon="4.4480455"><ele>325.5</ele><time>2026-04-10T16:35:58.782Z</time></trkpt><trkpt lat="44.4917688" lon="4.4479848"><ele>324.0</ele><time>2026-04-10T16:35:59.778Z</time></trkpt><trkpt lat="44.4916558" lon="4.4479208"><ele>322.5</ele><time>2026-04-10T16:36:00.778Z</time></trkpt><trkpt lat="44.491539" lon="4.4478521"><ele>321.0</ele><time>2026-04-10T16:36:01.776Z</time></trkpt><trkpt lat="44.4914378" lon="4.4477736"><ele>321.0</ele><time>2026-04-10T16:36:02.777Z</time></trkpt><trkpt lat="44.4913378" lon="4.4476974"><ele>321.0</ele><time>2026-04-10T16:36:03.777Z</time></trkpt><trkpt lat="44.4912182" lon="4.4476244"><ele>321.0</ele><time>2026-04-10T16:36:04.784Z</time></trkpt><trkpt lat="44.4911032" lon="4.447572"><ele>321.0</ele><time>2026-04-10T16:36:05.778Z</time></trkpt><trkpt lat="44.4909911" lon="4.4475179"><ele>321.8</ele><time>2026-04-10T16:36:06.78Z</time></trkpt><trkpt lat="44.4908843" lon="4.4474603"><ele>322.6</ele><time>2026-04-10T16:36:07.781Z</time></trkpt><trkpt lat="44.4907841" lon="4.4473931"><ele>323.4</ele><time>2026-04-10T16:36:08.786Z</time></trkpt><trkpt lat="44.4906873" lon="4.4473236"><ele>324.2</ele><time>2026-04-10T16:36:09.778Z</time></trkpt><trkpt lat="44.4905869" lon="4.4472647"><ele>325.0</ele><time>2026-04-10T16:36:10.784Z</time></trkpt><trkpt lat="44.4904738" lon="4.447208"><ele>325.0</ele><time>2026-04-10T16:36:11.787Z</time></trkpt><trkpt lat="44.4903739" lon="4.4471562"><ele>325.0</ele><time>2026-04-10T16:36:12.776Z</time></trkpt><trkpt lat="44.4902771" lon="4.4471064"><ele>325.0</ele><time>2026-04-10T16:36:13.776Z</time></trkpt><trkpt lat="44.4901718" lon="4.4470515"><ele>325.0</ele><time>2026-04-10T16:36:14.777Z</time></trkpt><trkpt lat="44.4900691" lon="4.447019"><ele>325.0</ele><time>2026-04-10T16:36:15.777Z</time></trkpt><trkpt lat="44.4899669" lon="4.4469629"><ele>324.2</ele><time>2026-04-10T16:36:16.779Z</time></trkpt><trkpt lat="44.4898684" lon="4.4469036"><ele>323.4</ele><time>2026-04-10T16:36:17.78Z</time></trkpt><trkpt lat="44.4897599" lon="4.4468683"><ele>322.6</ele><time>2026-04-10T16:36:18.782Z</time></trkpt><trkpt lat="44.4896578" lon="4.4468294"><ele>321.8</ele><time>2026-04-10T16:36:19.786Z</time></trkpt><trkpt lat="44.4895613" lon="4.4467952"><ele>321.0</ele><time>2026-04-10T16:36:20.776Z</time></trkpt><trkpt lat="44.489461" lon="4.4467641"><ele>321.0</ele><time>2026-04-10T16:36:21.781Z</time></trkpt><trkpt lat="44.4893708" lon="4.4467228"><ele>321.0</ele><time>2026-04-10T16:36:22.782Z</time></trkpt><trkpt lat="44.4892576" lon="4.4466695"><ele>321.0</ele><time>2026-04-10T16:36:23.78Z</time></trkpt><trkpt lat="44.4891424" lon="4.446625"><ele>321.0</ele><time>2026-04-10T16:36:24.782Z</time></trkpt><trkpt lat="44.4890283" lon="4.4465797"><ele>321.0</ele><time>2026-04-10T16:36:25.775Z</time></trkpt><trkpt lat="44.4889084" lon="4.4465348"><ele>321.0</ele><time>2026-04-10T16:36:26.781Z</time></trkpt><trkpt lat="44.4888082" lon="4.4465001"><ele>321.0</ele><time>2026-04-10T16:36:27.781Z</time></trkpt><trkpt lat="44.4886886" lon="4.4464659"><ele>321.0</ele><time>2026-04-10T16:36:28.78Z</time></trkpt><trkpt lat="44.4885866" lon="4.4464265"><ele>320.6</ele><time>2026-04-10T16:36:29.779Z</time></trkpt><trkpt lat="44.4884935" lon="4.4463927"><ele>320.20000000000005</ele><time>2026-04-10T16:36:30.774Z</time></trkpt><trkpt lat="44.4883943" lon="4.4463582"><ele>319.79999999999995</ele><time>2026-04-10T16:36:31.776Z</time></trkpt><trkpt lat="44.4882961" lon="4.4463209"><ele>319.4</ele><time>2026-04-10T16:36:32.781Z</time></trkpt><trkpt lat="44.4882136" lon="4.4462764"><ele>319.0</ele><time>2026-04-10T16:36:33.779Z</time></trkpt><trkpt lat="44.4881274" lon="4.4462359"><ele>318.2</ele><time>2026-04-10T16:36:34.779Z</time></trkpt><trkpt lat="44.48804" lon="4.4461879"><ele>317.4</ele><time>2026-04-10T16:36:35.779Z</time></trkpt><trkpt lat="44.4879604" lon="4.446151"><ele>316.6</ele><time>2026-04-10T16:36:36.788Z</time></trkpt><trkpt lat="44.487879" lon="4.4461041"><ele>315.8</ele><time>2026-04-10T16:36:37.788Z</time></trkpt><trkpt lat="44.4877872" lon="4.4460607"><ele>315.0</ele><time>2026-04-10T16:36:38.786Z</time></trkpt><trkpt lat="44.4876808" lon="4.4460316"><ele>314.75</ele><time>2026-04-10T16:36:39.784Z</time></trkpt><trkpt lat="44.4875748" lon="4.4459839"><ele>314.5</ele><time>2026-04-10T16:36:40.78Z</time></trkpt><trkpt lat="44.4874675" lon="4.4459199"><ele>314.25</ele><time>2026-04-10T16:36:41.782Z</time></trkpt><trkpt lat="44.4873534" lon="4.4458681"><ele>314.0</ele><time>2026-04-10T16:36:42.788Z</time></trkpt><trkpt lat="44.4872446" lon="4.4458274"><ele>314.0</ele><time>2026-04-10T16:36:43.786Z</time></trkpt><trkpt lat="44.4871245" lon="4.4457826"><ele>314.0</ele><time>2026-04-10T16:36:44.782Z</time></trkpt><trkpt lat="44.4870106" lon="4.4457382"><ele>314.0</ele><time>2026-04-10T16:36:45.782Z</time></trkpt><trkpt lat="44.4868978" lon="4.445693"><ele>314.0</ele><time>2026-04-10T16:36:46.78Z</time></trkpt><trkpt lat="44.4867861" lon="4.4456529"><ele>313.75</ele><time>2026-04-10T16:36:47.786Z</time></trkpt><trkpt lat="44.4866685" lon="4.4455991"><ele>313.5</ele><time>2026-04-10T16:36:48.79Z</time></trkpt><trkpt lat="44.486549" lon="4.445552"><ele>313.25</ele><time>2026-04-10T16:36:49.779Z</time></trkpt><trkpt lat="44.4864313" lon="4.445507"><ele>313.0</ele><time>2026-04-10T16:36:50.777Z</time></trkpt><trkpt lat="44.486323" lon="4.4454757"><ele>312.6</ele><time>2026-04-10T16:36:51.783Z</time></trkpt><trkpt lat="44.4862317" lon="4.4454521"><ele>312.20000000000005</ele><time>2026-04-10T16:36:52.777Z</time></trkpt><trkpt lat="44.4861372" lon="4.4454029"><ele>311.8</ele><time>2026-04-10T16:36:53.779Z</time></trkpt><trkpt lat="44.4860199" lon="4.4453528"><ele>311.40000000000003</ele><time>2026-04-10T16:36:54.775Z</time></trkpt><trkpt lat="44.4859078" lon="4.4453104"><ele>311.0</ele><time>2026-04-10T16:36:55.777Z</time></trkpt><trkpt lat="44.4857873" lon="4.4452618"><ele>311.0</ele><time>2026-04-10T16:36:56.786Z</time></trkpt><trkpt lat="44.4856682" lon="4.4452133"><ele>311.0</ele><time>2026-04-10T16:36:57.784Z</time></trkpt><trkpt lat="44.4855522" lon="4.4451637"><ele>311.0</ele><time>2026-04-10T16:36:58.783Z</time></trkpt><trkpt lat="44.4854329" lon="4.445112"><ele>311.0</ele><time>2026-04-10T16:36:59.779Z</time></trkpt><trkpt lat="44.4853156" lon="4.4450564"><ele>311.5</ele><time>2026-04-10T16:37:00.777Z</time></trkpt><trkpt lat="44.4851966" lon="4.4450031"><ele>312.0</ele><time>2026-04-10T16:37:01.781Z</time></trkpt><trkpt lat="44.485069" lon="4.444946"><ele>312.5</ele><time>2026-04-10T16:37:02.793Z</time></trkpt><trkpt lat="44.4849492" lon="4.4448977"><ele>313.0</ele><time>2026-04-10T16:37:03.788Z</time></trkpt><trkpt lat="44.4848334" lon="4.4448529"><ele>313.0</ele><time>2026-04-10T16:37:04.782Z</time></trkpt><trkpt lat="44.4847222" lon="4.4447999"><ele>313.0</ele><time>2026-04-10T16:37:05.78Z</time></trkpt><trkpt lat="44.4846006" lon="4.4447476"><ele>313.0</ele><time>2026-04-10T16:37:06.783Z</time></trkpt><trkpt lat="44.4844872" lon="4.4447069"><ele>313.0</ele><time>2026-04-10T16:37:07.783Z</time></trkpt><trkpt lat="44.484378" lon="4.4446717"><ele>313.0</ele><time>2026-04-10T16:37:08.779Z</time></trkpt><trkpt lat="44.4842682" lon="4.444639"><ele>313.0</ele><time>2026-04-10T16:37:09.776Z</time></trkpt><trkpt lat="44.4841608" lon="4.4446007"><ele>313.0</ele><time>2026-04-10T16:37:10.782Z</time></trkpt><trkpt lat="44.4840518" lon="4.4445556"><ele>313.0</ele><time>2026-04-10T16:37:11.778Z</time></trkpt><trkpt lat="44.4839309" lon="4.4445075"><ele>314.0</ele><time>2026-04-10T16:37:12.779Z</time></trkpt><trkpt lat="44.4838083" lon="4.4444522"><ele>315.0</ele><time>2026-04-10T16:37:13.785Z</time></trkpt><trkpt lat="44.4836951" lon="4.4444095"><ele>316.0</ele><time>2026-04-10T16:37:14.788Z</time></trkpt><trkpt lat="44.4835877" lon="4.4443636"><ele>317.0</ele><time>2026-04-10T16:37:15.787Z</time></trkpt><trkpt lat="44.4834753" lon="4.4443078"><ele>317.0</ele><time>2026-04-10T16:37:16.782Z</time></trkpt><trkpt lat="44.4833604" lon="4.4442521"><ele>317.0</ele><time>2026-04-10T16:37:17.784Z</time></trkpt><trkpt lat="44.4832494" lon="4.4442052"><ele>317.0</ele><time>2026-04-10T16:37:18.776Z</time></trkpt><trkpt lat="44.4831474" lon="4.4441701"><ele>317.0</ele><time>2026-04-10T16:37:19.782Z</time></trkpt><trkpt lat="44.4830404" lon="4.4441223"><ele>317.0</ele><time>2026-04-10T16:37:20.784Z</time></trkpt><trkpt lat="44.4829309" lon="4.4440769"><ele>317.0</ele><time>2026-04-10T16:37:21.779Z</time></trkpt><trkpt lat="44.4828178" lon="4.444035"><ele>317.0</ele><time>2026-04-10T16:37:22.785Z</time></trkpt><trkpt lat="44.482707" lon="4.443992"><ele>317.0</ele><time>2026-04-10T16:37:23.782Z</time></trkpt><trkpt lat="44.4825865" lon="4.443934"><ele>316.75</ele><time>2026-04-10T16:37:24.78Z</time></trkpt><trkpt lat="44.4824678" lon="4.4438679"><ele>316.5</ele><time>2026-04-10T16:37:25.782Z</time></trkpt><trkpt lat="44.4823496" lon="4.4438054"><ele>316.25</ele><time>2026-04-10T16:37:26.781Z</time></trkpt><trkpt lat="44.4822379" lon="4.4437525"><ele>316.0</ele><time>2026-04-10T16:37:27.781Z</time></trkpt><trkpt lat="44.4821247" lon="4.443697"><ele>315.5</ele><time>2026-04-10T16:37:28.78Z</time></trkpt><trkpt lat="44.4820067" lon="4.443648"><ele>315.0</ele><time>2026-04-10T16:37:29.783Z</time></trkpt><trkpt lat="44.4818964" lon="4.4436085"><ele>314.5</ele><time>2026-04-10T16:37:30.784Z</time></trkpt><trkpt lat="44.4817834" lon="4.4435583"><ele>314.0</ele><time>2026-04-10T16:37:31.778Z</time></trkpt><trkpt lat="44.4816739" lon="4.443509"><ele>314.0</ele><time>2026-04-10T16:37:32.779Z</time></trkpt><trkpt lat="44.4815616" lon="4.4434563"><ele>314.0</ele><time>2026-04-10T16:37:33.776Z</time></trkpt><trkpt lat="44.4814333" lon="4.4433966"><ele>314.0</ele><time>2026-04-10T16:37:34.778Z</time></trkpt><trkpt lat="44.4813013" lon="4.4433301"><ele>314.0</ele><time>2026-04-10T16:37:35.775Z</time></trkpt><trkpt lat="44.4811834" lon="4.4432806"><ele>313.5</ele><time>2026-04-10T16:37:36.778Z</time></trkpt><trkpt lat="44.4810642" lon="4.4432173"><ele>313.0</ele><time>2026-04-10T16:37:37.79Z</time></trkpt><trkpt lat="44.4809466" lon="4.443152"><ele>312.5</ele><time>2026-04-10T16:37:38.78Z</time></trkpt><trkpt lat="44.4808341" lon="4.4430808"><ele>312.0</ele><time>2026-04-10T16:37:39.781Z</time></trkpt><trkpt lat="44.4807233" lon="4.4430173"><ele>312.25</ele><time>2026-04-10T16:37:40.777Z</time></trkpt><trkpt lat="44.4806144" lon="4.4429445"><ele>312.5</ele><time>2026-04-10T16:37:41.781Z</time></trkpt><trkpt lat="44.4805035" lon="4.442874"><ele>312.75</ele><time>2026-04-10T16:37:42.78Z</time></trkpt><trkpt lat="44.4803864" lon="4.4428167"><ele>313.0</ele><time>2026-04-10T16:37:43.782Z</time></trkpt><trkpt lat="44.4802656" lon="4.4427599"><ele>312.0</ele><time>2026-04-10T16:37:44.783Z</time></trkpt><trkpt lat="44.480154" lon="4.4426911"><ele>311.0</ele><time>2026-04-10T16:37:45.782Z</time></trkpt><trkpt lat="44.4800416" lon="4.4426334"><ele>310.0</ele><time>2026-04-10T16:37:46.776Z</time></trkpt><trkpt lat="44.4799275" lon="4.442594"><ele>309.0</ele><time>2026-04-10T16:37:47.774Z</time></trkpt><trkpt lat="44.4798304" lon="4.4425513"><ele>309.0</ele><time>2026-04-10T16:37:48.772Z</time></trkpt><trkpt lat="44.4797426" lon="4.442515"><ele>309.0</ele><time>2026-04-10T16:37:49.776Z</time></trkpt><trkpt lat="44.4796522" lon="4.4424812"><ele>309.0</ele><time>2026-04-10T16:37:50.78Z</time></trkpt><trkpt lat="44.4795648" lon="4.4424449"><ele>309.0</ele><time>2026-04-10T16:37:51.783Z</time></trkpt><trkpt lat="44.4794804" lon="4.4423965"><ele>309.0</ele><time>2026-04-10T16:37:52.783Z</time></trkpt><trkpt lat="44.4793913" lon="4.4423427"><ele>308.4</ele><time>2026-04-10T16:37:53.782Z</time></trkpt><trkpt lat="44.4792878" lon="4.4422869"><ele>307.79999999999995</ele><time>2026-04-10T16:37:54.782Z</time></trkpt><trkpt lat="44.4791893" lon="4.4422496"><ele>307.20000000000005</ele><time>2026-04-10T16:37:55.781Z</time></trkpt><trkpt lat="44.4790901" lon="4.4421967"><ele>306.6</ele><time>2026-04-10T16:37:56.782Z</time></trkpt><trkpt lat="44.4789735" lon="4.4421373"><ele>306.0</ele><time>2026-04-10T16:37:57.781Z</time></trkpt><trkpt lat="44.4788544" lon="4.4420679"><ele>304.5</ele><time>2026-04-10T16:37:58.774Z</time></trkpt><trkpt lat="44.4787265" lon="4.4420085"><ele>303.0</ele><time>2026-04-10T16:37:59.775Z</time></trkpt><trkpt lat="44.4785972" lon="4.4419435"><ele>301.5</ele><time>2026-04-10T16:38:00.779Z</time></trkpt><trkpt lat="44.4784662" lon="4.4418782"><ele>300.0</ele><time>2026-04-10T16:38:01.784Z</time></trkpt><trkpt lat="44.4783468" lon="4.4418072"><ele>300.0</ele><time>2026-04-10T16:38:02.783Z</time></trkpt><trkpt lat="44.4782243" lon="4.4417324"><ele>300.0</ele><time>2026-04-10T16:38:03.776Z</time></trkpt><trkpt lat="44.4781134" lon="4.4416641"><ele>300.0</ele><time>2026-04-10T16:38:04.78Z</time></trkpt><trkpt lat="44.4780108" lon="4.4416121"><ele>300.0</ele><time>2026-04-10T16:38:05.775Z</time></trkpt><trkpt lat="44.4779172" lon="4.4415654"><ele>299.8333333333333</ele><time>2026-04-10T16:38:06.773Z</time></trkpt><trkpt lat="44.4778298" lon="4.4415182"><ele>299.6666666666667</ele><time>2026-04-10T16:38:07.781Z</time></trkpt><trkpt lat="44.4777431" lon="4.4414728"><ele>299.5</ele><time>2026-04-10T16:38:08.779Z</time></trkpt><trkpt lat="44.4776555" lon="4.4414343"><ele>299.33333333333337</ele><time>2026-04-10T16:38:09.775Z</time></trkpt><trkpt lat="44.4775888" lon="4.4413799"><ele>299.1666666666667</ele><time>2026-04-10T16:38:10.771Z</time></trkpt><trkpt lat="44.4775309" lon="4.4413163"><ele>299.0</ele><time>2026-04-10T16:38:11.785Z</time></trkpt><trkpt lat="44.4774725" lon="4.4412527"><ele>298.83333333333337</ele><time>2026-04-10T16:38:12.776Z</time></trkpt><trkpt lat="44.4774147" lon="4.441193"><ele>298.6666666666667</ele><time>2026-04-10T16:38:13.773Z</time></trkpt><trkpt lat="44.4773253" lon="4.4411419"><ele>298.5</ele><time>2026-04-10T16:38:14.776Z</time></trkpt><trkpt lat="44.4772647" lon="4.4410697"><ele>298.3333333333333</ele><time>2026-04-10T16:38:15.772Z</time></trkpt><trkpt lat="44.4771982" lon="4.4410015"><ele>298.16666666666663</ele><time>2026-04-10T16:38:16.783Z</time></trkpt><trkpt lat="44.4771314" lon="4.440946"><ele>298.0</ele><time>2026-04-10T16:38:17.783Z</time></trkpt><trkpt lat="44.477065" lon="4.4408959"><ele>298.0</ele><time>2026-04-10T16:38:18.772Z</time></trkpt><trkpt lat="44.4769833" lon="4.4408287"><ele>298.0</ele><time>2026-04-10T16:38:19.781Z</time></trkpt><trkpt lat="44.4768948" lon="4.4407581"><ele>298.0</ele><time>2026-04-10T16:38:20.777Z</time></trkpt><trkpt lat="44.4768038" lon="4.4406737"><ele>298.0</ele><time>2026-04-10T16:38:21.779Z</time></trkpt><trkpt lat="44.4767193" lon="4.4406092"><ele>298.0</ele><time>2026-04-10T16:38:22.776Z</time></trkpt><trkpt lat="44.4766256" lon="4.4405458"><ele>298.0</ele><time>2026-04-10T16:38:23.776Z</time></trkpt><trkpt lat="44.4765425" lon="4.4404736"><ele>298.0</ele><time>2026-04-10T16:38:24.774Z</time></trkpt><trkpt lat="44.4764771" lon="4.4403948"><ele>298.0</ele><time>2026-04-10T16:38:25.787Z</time></trkpt><trkpt lat="44.4764056" lon="4.4403251"><ele>298.0</ele><time>2026-04-10T16:38:26.78Z</time></trkpt><trkpt lat="44.4763314" lon="4.4402519"><ele>298.0</ele><time>2026-04-10T16:38:27.773Z</time></trkpt><trkpt lat="44.4762497" lon="4.440165"><ele>297.66666666666663</ele><time>2026-04-10T16:38:28.778Z</time></trkpt><trkpt lat="44.4761763" lon="4.4400941"><ele>297.3333333333333</ele><time>2026-04-10T16:38:29.777Z</time></trkpt><trkpt lat="44.4760944" lon="4.4400363"><ele>297.0</ele><time>2026-04-10T16:38:30.774Z</time></trkpt><trkpt lat="44.4760117" lon="4.4399803"><ele>296.6666666666667</ele><time>2026-04-10T16:38:31.786Z</time></trkpt><trkpt lat="44.4759426" lon="4.439936"><ele>296.33333333333337</ele><time>2026-04-10T16:38:32.772Z</time></trkpt><trkpt lat="44.4758696" lon="4.4398776"><ele>296.0</ele><time>2026-04-10T16:38:33.782Z</time></trkpt><trkpt lat="44.4758051" lon="4.4398153"><ele>296.0</ele><time>2026-04-10T16:38:34.779Z</time></trkpt><trkpt lat="44.4757483" lon="4.4397644"><ele>296.0</ele><time>2026-04-10T16:38:35.775Z</time></trkpt><trkpt lat="44.4756839" lon="4.4397108"><ele>296.0</ele><time>2026-04-10T16:38:36.777Z</time></trkpt><trkpt lat="44.4756276" lon="4.4396531"><ele>296.0</ele><time>2026-04-10T16:38:37.776Z</time></trkpt><trkpt lat="44.4755642" lon="4.4395912"><ele>296.0</ele><time>2026-04-10T16:38:38.777Z</time></trkpt><trkpt lat="44.4754827" lon="4.4395163"><ele>296.0</ele><time>2026-04-10T16:38:39.781Z</time></trkpt><trkpt lat="44.4753868" lon="4.4394384"><ele>295.40000000000003</ele><time>2026-04-10T16:38:40.775Z</time></trkpt><trkpt lat="44.4752816" lon="4.4393534"><ele>294.8</ele><time>2026-04-10T16:38:41.777Z</time></trkpt><trkpt lat="44.4751728" lon="4.4392702"><ele>294.20000000000005</ele><time>2026-04-10T16:38:42.776Z</time></trkpt><trkpt lat="44.4750785" lon="4.4391994"><ele>293.6</ele><time>2026-04-10T16:38:43.778Z</time></trkpt><trkpt lat="44.4749999" lon="4.4391315"><ele>293.0</ele><time>2026-04-10T16:38:44.778Z</time></trkpt><trkpt lat="44.4749417" lon="4.4390776"><ele>293.0</ele><time>2026-04-10T16:38:45.773Z</time></trkpt><trkpt lat="44.4748828" lon="4.4390284"><ele>293.0</ele><time>2026-04-10T16:38:46.782Z</time></trkpt><trkpt lat="44.4748168" lon="4.4389642"><ele>293.0</ele><time>2026-04-10T16:38:47.779Z</time></trkpt><trkpt lat="44.4747464" lon="4.4388979"><ele>293.0</ele><time>2026-04-10T16:38:48.775Z</time></trkpt><trkpt lat="44.4746747" lon="4.4388374"><ele>293.0</ele><time>2026-04-10T16:38:49.778Z</time></trkpt><trkpt lat="44.4745922" lon="4.4387656"><ele>293.0</ele><time>2026-04-10T16:38:50.773Z</time></trkpt><trkpt lat="44.4745091" lon="4.4386966"><ele>292.6</ele><time>2026-04-10T16:38:51.774Z</time></trkpt><trkpt lat="44.4744301" lon="4.4386352"><ele>292.20000000000005</ele><time>2026-04-10T16:38:52.779Z</time></trkpt><trkpt lat="44.4743503" lon="4.4385745"><ele>291.8</ele><time>2026-04-10T16:38:53.784Z</time></trkpt><trkpt lat="44.4742672" lon="4.4385132"><ele>291.40000000000003</ele><time>2026-04-10T16:38:54.774Z</time></trkpt><trkpt lat="44.4741925" lon="4.4384683"><ele>291.0</ele><time>2026-04-10T16:38:55.772Z</time></trkpt><trkpt lat="44.4740845" lon="4.438376"><ele>291.0</ele><time>2026-04-10T16:38:57.777Z</time></trkpt><trkpt lat="44.4739766" lon="4.4382784"><ele>291.0</ele><time>2026-04-10T16:38:59.772Z</time></trkpt><trkpt lat="44.4739096" lon="4.4382086"><ele>291.0</ele><time>2026-04-10T16:39:00.778Z</time></trkpt><trkpt lat="44.4738478" lon="4.4381556"><ele>291.0</ele><time>2026-04-10T16:39:01.788Z</time></trkpt><trkpt lat="44.4737736" lon="4.4380901"><ele>291.0</ele><time>2026-04-10T16:39:02.786Z</time></trkpt><trkpt lat="44.4737074" lon="4.4380337"><ele>290.0</ele><time>2026-04-10T16:39:03.775Z</time></trkpt><trkpt lat="44.4735974" lon="4.4379428"><ele>289.0</ele><time>2026-04-10T16:39:05.775Z</time></trkpt><trkpt lat="44.4735412" lon="4.4378854"><ele>288.0</ele><time>2026-04-10T16:39:06.771Z</time></trkpt><trkpt lat="44.4734625" lon="4.4378223"><ele>287.0</ele><time>2026-04-10T16:39:07.776Z</time></trkpt><trkpt lat="44.4733453" lon="4.4377126"><ele>286.0</ele><time>2026-04-10T16:39:09.774Z</time></trkpt><trkpt lat="44.4732742" lon="4.4376301"><ele>286.0</ele><time>2026-04-10T16:39:10.777Z</time></trkpt><trkpt lat="44.4731943" lon="4.4375789"><ele>286.0</ele><time>2026-04-10T16:39:11.773Z</time></trkpt><trkpt lat="44.4731031" lon="4.4375222"><ele>286.0</ele><time>2026-04-10T16:39:12.777Z</time></trkpt><trkpt lat="44.4730162" lon="4.4374549"><ele>286.0</ele><time>2026-04-10T16:39:13.775Z</time></trkpt><trkpt lat="44.4729251" lon="4.4373582"><ele>286.0</ele><time>2026-04-10T16:39:14.776Z</time></trkpt><trkpt lat="44.4728159" lon="4.4372719"><ele>285.75</ele><time>2026-04-10T16:39:15.781Z</time></trkpt><trkpt lat="44.4726978" lon="4.4371719"><ele>285.5</ele><time>2026-04-10T16:39:16.78Z</time></trkpt><trkpt lat="44.4725954" lon="4.4370766"><ele>285.25</ele><time>2026-04-10T16:39:17.774Z</time></trkpt><trkpt lat="44.4724877" lon="4.436975"><ele>285.0</ele><time>2026-04-10T16:39:18.773Z</time></trkpt><trkpt lat="44.4723905" lon="4.4369003"><ele>284.8</ele><time>2026-04-10T16:39:19.771Z</time></trkpt><trkpt lat="44.4723005" lon="4.4368171"><ele>284.6</ele><time>2026-04-10T16:39:20.772Z</time></trkpt><trkpt lat="44.472209" lon="4.4367445"><ele>284.4</ele><time>2026-04-10T16:39:21.777Z</time></trkpt><trkpt lat="44.4721265" lon="4.4366635"><ele>284.2</ele><time>2026-04-10T16:39:22.774Z</time></trkpt><trkpt lat="44.4720342" lon="4.4365511"><ele>284.0</ele><time>2026-04-10T16:39:23.774Z</time></trkpt><trkpt lat="44.471917" lon="4.4364457"><ele>284.0</ele><time>2026-04-10T16:39:24.773Z</time></trkpt><trkpt lat="44.471809" lon="4.4363594"><ele>284.0</ele><time>2026-04-10T16:39:25.775Z</time></trkpt><trkpt lat="44.4717115" lon="4.4362799"><ele>284.0</ele><time>2026-04-10T16:39:26.785Z</time></trkpt><trkpt lat="44.4716121" lon="4.4361925"><ele>284.0</ele><time>2026-04-10T16:39:27.777Z</time></trkpt><trkpt lat="44.4715024" lon="4.4360805"><ele>282.75</ele><time>2026-04-10T16:39:28.773Z</time></trkpt><trkpt lat="44.4714008" lon="4.4359967"><ele>281.5</ele><time>2026-04-10T16:39:29.779Z</time></trkpt><trkpt lat="44.4713006" lon="4.4359176"><ele>280.25</ele><time>2026-04-10T16:39:30.775Z</time></trkpt><trkpt lat="44.4712112" lon="4.4358406"><ele>279.0</ele><time>2026-04-10T16:39:31.779Z</time></trkpt><trkpt lat="44.471106" lon="4.4357539"><ele>278.8</ele><time>2026-04-10T16:39:32.776Z</time></trkpt><trkpt lat="44.471019" lon="4.435685"><ele>278.59999999999997</ele><time>2026-04-10T16:39:33.776Z</time></trkpt><trkpt lat="44.4709321" lon="4.4356129"><ele>278.4</ele><time>2026-04-10T16:39:34.779Z</time></trkpt><trkpt lat="44.47083" lon="4.4355303"><ele>278.2</ele><time>2026-04-10T16:39:35.776Z</time></trkpt><trkpt lat="44.4707231" lon="4.4354438"><ele>278.0</ele><time>2026-04-10T16:39:36.782Z</time></trkpt><trkpt lat="44.4706243" lon="4.4353556"><ele>278.0</ele><time>2026-04-10T16:39:37.773Z</time></trkpt><trkpt lat="44.4705461" lon="4.4352915"><ele>278.0</ele><time>2026-04-10T16:39:38.773Z</time></trkpt><trkpt lat="44.4704718" lon="4.4352365"><ele>278.0</ele><time>2026-04-10T16:39:39.777Z</time></trkpt><trkpt lat="44.4703992" lon="4.4351757"><ele>278.0</ele><time>2026-04-10T16:39:40.778Z</time></trkpt><trkpt lat="44.4703208" lon="4.4351009"><ele>278.0</ele><time>2026-04-10T16:39:41.774Z</time></trkpt><trkpt lat="44.4702432" lon="4.4350298"><ele>278.0</ele><time>2026-04-10T16:39:42.771Z</time></trkpt><trkpt lat="44.4701656" lon="4.4349576"><ele>277.6</ele><time>2026-04-10T16:39:43.78Z</time></trkpt><trkpt lat="44.4700713" lon="4.4348828"><ele>277.20000000000005</ele><time>2026-04-10T16:39:44.775Z</time></trkpt><trkpt lat="44.4699842" lon="4.4348092"><ele>276.8</ele><time>2026-04-10T16:39:45.772Z</time></trkpt><trkpt lat="44.469905" lon="4.4347408"><ele>276.40000000000003</ele><time>2026-04-10T16:39:46.774Z</time></trkpt><trkpt lat="44.4698407" lon="4.4346777"><ele>276.0</ele><time>2026-04-10T16:39:47.773Z</time></trkpt><trkpt lat="44.4697595" lon="4.4346062"><ele>276.0</ele><time>2026-04-10T16:39:48.77Z</time></trkpt><trkpt lat="44.4696766" lon="4.4345347"><ele>276.0</ele><time>2026-04-10T16:39:49.775Z</time></trkpt><trkpt lat="44.4695976" lon="4.4344588"><ele>276.0</ele><time>2026-04-10T16:39:50.78Z</time></trkpt><trkpt lat="44.4695391" lon="4.4344023"><ele>276.0</ele><time>2026-04-10T16:39:51.77Z</time></trkpt><trkpt lat="44.4694841" lon="4.434342"><ele>276.0</ele><time>2026-04-10T16:39:52.774Z</time></trkpt><trkpt lat="44.4694283" lon="4.4342647"><ele>276.0</ele><time>2026-04-10T16:39:53.775Z</time></trkpt><trkpt lat="44.4693745" lon="4.4341498"><ele>275.40000000000003</ele><time>2026-04-10T16:39:54.772Z</time></trkpt><trkpt lat="44.4693241" lon="4.4340159"><ele>274.8</ele><time>2026-04-10T16:39:55.779Z</time></trkpt><trkpt lat="44.4692569" lon="4.4338781"><ele>274.20000000000005</ele><time>2026-04-10T16:39:56.775Z</time></trkpt><trkpt lat="44.4691913" lon="4.4337582"><ele>273.6</ele><time>2026-04-10T16:39:57.783Z</time></trkpt><trkpt lat="44.4691312" lon="4.4336371"><ele>273.0</ele><time>2026-04-10T16:39:58.775Z</time></trkpt><trkpt lat="44.4690672" lon="4.4334977"><ele>272.5</ele><time>2026-04-10T16:39:59.776Z</time></trkpt><trkpt lat="44.4690022" lon="4.4333502"><ele>272.0</ele><time>2026-04-10T16:40:00.773Z</time></trkpt><trkpt lat="44.4689262" lon="4.4331854"><ele>271.5</ele><time>2026-04-10T16:40:01.779Z</time></trkpt><trkpt lat="44.4688292" lon="4.433021"><ele>271.0</ele><time>2026-04-10T16:40:02.775Z</time></trkpt><trkpt lat="44.468745" lon="4.4328836"><ele>272.0</ele><time>2026-04-10T16:40:03.774Z</time></trkpt><trkpt lat="44.4686687" lon="4.4327508"><ele>273.0</ele><time>2026-04-10T16:40:04.78Z</time></trkpt><trkpt lat="44.4686128" lon="4.4326354"><ele>274.0</ele><time>2026-04-10T16:40:05.779Z</time></trkpt><trkpt lat="44.4685626" lon="4.4325222"><ele>275.0</ele><time>2026-04-10T16:40:06.774Z</time></trkpt><trkpt lat="44.4685015" lon="4.4323942"><ele>276.0</ele><time>2026-04-10T16:40:07.777Z</time></trkpt><trkpt lat="44.4684377" lon="4.4322567"><ele>276.0</ele><time>2026-04-10T16:40:08.775Z</time></trkpt><trkpt lat="44.4683544" lon="4.4321107"><ele>276.0</ele><time>2026-04-10T16:40:09.777Z</time></trkpt><trkpt lat="44.4682694" lon="4.4319629"><ele>276.0</ele><time>2026-04-10T16:40:10.777Z</time></trkpt><trkpt lat="44.4681931" lon="4.4318188"><ele>276.0</ele><time>2026-04-10T16:40:11.779Z</time></trkpt><trkpt lat="44.4681172" lon="4.4316663"><ele>276.0</ele><time>2026-04-10T16:40:12.782Z</time></trkpt><trkpt lat="44.4680475" lon="4.4315105"><ele>276.0</ele><time>2026-04-10T16:40:13.774Z</time></trkpt><trkpt lat="44.4679661" lon="4.4313431"><ele>276.0</ele><time>2026-04-10T16:40:14.778Z</time></trkpt><trkpt lat="44.4678739" lon="4.4311778"><ele>276.0</ele><time>2026-04-10T16:40:15.781Z</time></trkpt><trkpt lat="44.467796" lon="4.431025"><ele>275.75</ele><time>2026-04-10T16:40:16.775Z</time></trkpt><trkpt lat="44.4677258" lon="4.4308801"><ele>275.5</ele><time>2026-04-10T16:40:17.774Z</time></trkpt><trkpt lat="44.4676633" lon="4.4307525"><ele>275.25</ele><time>2026-04-10T16:40:18.774Z</time></trkpt><trkpt lat="44.4676022" lon="4.4306329"><ele>275.0</ele><time>2026-04-10T16:40:19.779Z</time></trkpt><trkpt lat="44.4675356" lon="4.4305054"><ele>272.75</ele><time>2026-04-10T16:40:20.781Z</time></trkpt><trkpt lat="44.4674723" lon="4.4303637"><ele>270.5</ele><time>2026-04-10T16:40:21.787Z</time></trkpt><trkpt lat="44.4674023" lon="4.4302238"><ele>268.25</ele><time>2026-04-10T16:40:22.774Z</time></trkpt><trkpt lat="44.4673353" lon="4.4300919"><ele>266.0</ele><time>2026-04-10T16:40:23.781Z</time></trkpt><trkpt lat="44.4672764" lon="4.4299606"><ele>266.0</ele><time>2026-04-10T16:40:24.772Z</time></trkpt><trkpt lat="44.4672199" lon="4.4298274"><ele>266.0</ele><time>2026-04-10T16:40:25.774Z</time></trkpt><trkpt lat="44.4671561" lon="4.4297002"><ele>266.0</ele><time>2026-04-10T16:40:26.779Z</time></trkpt><trkpt lat="44.4670773" lon="4.4295697"><ele>266.0</ele><time>2026-04-10T16:40:27.772Z</time></trkpt><trkpt lat="44.466998" lon="4.4294149"><ele>266.0</ele><time>2026-04-10T16:40:28.775Z</time></trkpt><trkpt lat="44.4669258" lon="4.4292565"><ele>266.0</ele><time>2026-04-10T16:40:29.778Z</time></trkpt><trkpt lat="44.4668511" lon="4.4290957"><ele>266.0</ele><time>2026-04-10T16:40:30.771Z</time></trkpt><trkpt lat="44.4667649" lon="4.4289357"><ele>266.0</ele><time>2026-04-10T16:40:31.774Z</time></trkpt><trkpt lat="44.4666735" lon="4.4287697"><ele>266.5</ele><time>2026-04-10T16:40:32.782Z</time></trkpt><trkpt lat="44.4665784" lon="4.4286102"><ele>267.0</ele><time>2026-04-10T16:40:33.779Z</time></trkpt><trkpt lat="44.4664873" lon="4.4284505"><ele>267.5</ele><time>2026-04-10T16:40:34.772Z</time></trkpt><trkpt lat="44.4664046" lon="4.4282851"><ele>268.0</ele><time>2026-04-10T16:40:35.773Z</time></trkpt><trkpt lat="44.4663235" lon="4.4281218"><ele>267.75</ele><time>2026-04-10T16:40:36.773Z</time></trkpt><trkpt lat="44.4662443" lon="4.4279664"><ele>267.5</ele><time>2026-04-10T16:40:37.773Z</time></trkpt><trkpt lat="44.466174" lon="4.4278209"><ele>267.25</ele><time>2026-04-10T16:40:38.778Z</time></trkpt><trkpt lat="44.4661076" lon="4.4276883"><ele>267.0</ele><time>2026-04-10T16:40:39.775Z</time></trkpt><trkpt lat="44.4660507" lon="4.427557"><ele>267.0</ele><time>2026-04-10T16:40:40.778Z</time></trkpt><trkpt lat="44.4659943" lon="4.4274304"><ele>267.0</ele><time>2026-04-10T16:40:41.78Z</time></trkpt><trkpt lat="44.4659333" lon="4.4273136"><ele>267.0</ele><time>2026-04-10T16:40:42.78Z</time></trkpt><trkpt lat="44.4658753" lon="4.427197"><ele>267.0</ele><time>2026-04-10T16:40:43.782Z</time></trkpt><trkpt lat="44.4658371" lon="4.4270835"><ele>267.0</ele><time>2026-04-10T16:40:44.777Z</time></trkpt><trkpt lat="44.465804" lon="4.4269695"><ele>267.2</ele><time>2026-04-10T16:40:45.777Z</time></trkpt><trkpt lat="44.4657777" lon="4.4268476"><ele>267.4</ele><time>2026-04-10T16:40:46.774Z</time></trkpt><trkpt lat="44.4657489" lon="4.4267117"><ele>267.6</ele><time>2026-04-10T16:40:47.779Z</time></trkpt><trkpt lat="44.465721" lon="4.4265755"><ele>267.8</ele><time>2026-04-10T16:40:48.776Z</time></trkpt><trkpt lat="44.4656912" lon="4.4264393"><ele>268.0</ele><time>2026-04-10T16:40:49.779Z</time></trkpt><trkpt lat="44.4656588" lon="4.426302"><ele>267.0</ele><time>2026-04-10T16:40:50.777Z</time></trkpt><trkpt lat="44.4656219" lon="4.4261678"><ele>266.0</ele><time>2026-04-10T16:40:51.775Z</time></trkpt><trkpt lat="44.4655836" lon="4.4260465"><ele>265.0</ele><time>2026-04-10T16:40:52.781Z</time></trkpt><trkpt lat="44.4655376" lon="4.4259375"><ele>264.0</ele><time>2026-04-10T16:40:53.782Z</time></trkpt><trkpt lat="44.465479" lon="4.4258422"><ele>263.0</ele><time>2026-04-10T16:40:54.779Z</time></trkpt><trkpt lat="44.4654109" lon="4.4257552"><ele>263.0</ele><time>2026-04-10T16:40:55.776Z</time></trkpt><trkpt lat="44.46533" lon="4.4256744"><ele>263.0</ele><time>2026-04-10T16:40:56.781Z</time></trkpt><trkpt lat="44.4652484" lon="4.4256016"><ele>263.0</ele><time>2026-04-10T16:40:57.775Z</time></trkpt><trkpt lat="44.4651617" lon="4.4255366"><ele>263.0</ele><time>2026-04-10T16:40:58.776Z</time></trkpt><trkpt lat="44.4650643" lon="4.4254804"><ele>263.0</ele><time>2026-04-10T16:40:59.783Z</time></trkpt><trkpt lat="44.4649644" lon="4.4254372"><ele>260.8</ele><time>2026-04-10T16:41:00.775Z</time></trkpt><trkpt lat="44.4648681" lon="4.4253973"><ele>258.6</ele><time>2026-04-10T16:41:01.781Z</time></trkpt><trkpt lat="44.4647737" lon="4.4253496"><ele>256.4</ele><time>2026-04-10T16:41:02.776Z</time></trkpt><trkpt lat="44.4646725" lon="4.4253027"><ele>254.2</ele><time>2026-04-10T16:41:03.787Z</time></trkpt><trkpt lat="44.4645804" lon="4.4252349"><ele>252.0</ele><time>2026-04-10T16:41:04.784Z</time></trkpt><trkpt lat="44.4644867" lon="4.42516"><ele>252.0</ele><time>2026-04-10T16:41:05.78Z</time></trkpt><trkpt lat="44.4643967" lon="4.425062"><ele>252.0</ele><time>2026-04-10T16:41:06.778Z</time></trkpt><trkpt lat="44.464307" lon="4.4249528"><ele>252.0</ele><time>2026-04-10T16:41:07.773Z</time></trkpt><trkpt lat="44.4642271" lon="4.4248379"><ele>252.0</ele><time>2026-04-10T16:41:08.775Z</time></trkpt><trkpt lat="44.4641558" lon="4.4247404"><ele>252.0</ele><time>2026-04-10T16:41:09.782Z</time></trkpt><trkpt lat="44.4640871" lon="4.4246481"><ele>250.2</ele><time>2026-04-10T16:41:10.781Z</time></trkpt><trkpt lat="44.4640147" lon="4.4245591"><ele>248.39999999999998</ele><time>2026-04-10T16:41:11.787Z</time></trkpt><trkpt lat="44.4639299" lon="4.4244691"><ele>246.60000000000002</ele><time>2026-04-10T16:41:12.784Z</time></trkpt><trkpt lat="44.4638481" lon="4.424378"><ele>244.8</ele><time>2026-04-10T16:41:13.778Z</time></trkpt><trkpt lat="44.4637794" lon="4.4242845"><ele>243.0</ele><time>2026-04-10T16:41:14.78Z</time></trkpt><trkpt lat="44.463726" lon="4.424193"><ele>243.0</ele><time>2026-04-10T16:41:15.775Z</time></trkpt><trkpt lat="44.4636858" lon="4.4240964"><ele>243.0</ele><time>2026-04-10T16:41:16.777Z</time></trkpt><trkpt lat="44.4636458" lon="4.4240025"><ele>243.0</ele><time>2026-04-10T16:41:17.774Z</time></trkpt><trkpt lat="44.4635742" lon="4.423918"><ele>243.0</ele><time>2026-04-10T16:41:18.773Z</time></trkpt><trkpt lat="44.4634847" lon="4.4238423"><ele>243.0</ele><time>2026-04-10T16:41:19.78Z</time></trkpt><trkpt lat="44.4633883" lon="4.4237797"><ele>240.4</ele><time>2026-04-10T16:41:20.781Z</time></trkpt><trkpt lat="44.4632977" lon="4.4236996"><ele>237.8</ele><time>2026-04-10T16:41:21.777Z</time></trkpt><trkpt lat="44.4632148" lon="4.4236159"><ele>235.2</ele><time>2026-04-10T16:41:22.774Z</time></trkpt><trkpt lat="44.4631371" lon="4.4235238"><ele>232.6</ele><time>2026-04-10T16:41:23.785Z</time></trkpt><trkpt lat="44.4630621" lon="4.4234303"><ele>230.0</ele><time>2026-04-10T16:41:24.777Z</time></trkpt><trkpt lat="44.4629883" lon="4.423334"><ele>230.0</ele><time>2026-04-10T16:41:25.778Z</time></trkpt><trkpt lat="44.4629017" lon="4.4232442"><ele>230.0</ele><time>2026-04-10T16:41:26.776Z</time></trkpt><trkpt lat="44.4628147" lon="4.4231635"><ele>230.0</ele><time>2026-04-10T16:41:27.773Z</time></trkpt><trkpt lat="44.4627303" lon="4.4230916"><ele>230.0</ele><time>2026-04-10T16:41:28.785Z</time></trkpt><trkpt lat="44.4626521" lon="4.4230198"><ele>230.0</ele><time>2026-04-10T16:41:29.773Z</time></trkpt><trkpt lat="44.4625759" lon="4.4229336"><ele>226.8</ele><time>2026-04-10T16:41:30.783Z</time></trkpt><trkpt lat="44.4625112" lon="4.4228371"><ele>223.6</ele><time>2026-04-10T16:41:31.777Z</time></trkpt><trkpt lat="44.4624407" lon="4.422756"><ele>220.39999999999998</ele><time>2026-04-10T16:41:32.786Z</time></trkpt><trkpt lat="44.4623688" lon="4.4226724"><ele>217.2</ele><time>2026-04-10T16:41:33.779Z</time></trkpt><trkpt lat="44.4622938" lon="4.4225875"><ele>214.0</ele><time>2026-04-10T16:41:34.779Z</time></trkpt><trkpt lat="44.4622203" lon="4.4225118"><ele>214.0</ele><time>2026-04-10T16:41:35.776Z</time></trkpt><trkpt lat="44.4621441" lon="4.4224284"><ele>213.99999999999997</ele><time>2026-04-10T16:41:36.782Z</time></trkpt><trkpt lat="44.4620715" lon="4.42236"><ele>213.99999999999997</ele><time>2026-04-10T16:41:37.78Z</time></trkpt><trkpt lat="44.4619859" lon="4.4222988"><ele>214.0</ele><time>2026-04-10T16:41:38.781Z</time></trkpt><trkpt lat="44.4619047" lon="4.4222486"><ele>214.0</ele><time>2026-04-10T16:41:39.779Z</time></trkpt><trkpt lat="44.4618265" lon="4.4222132"><ele>214.49999999999997</ele><time>2026-04-10T16:41:40.778Z</time></trkpt><trkpt lat="44.4617618" lon="4.4222056"><ele>215.0</ele><time>2026-04-10T16:41:41.775Z</time></trkpt><trkpt lat="44.4617" lon="4.4222264"><ele>215.5</ele><time>2026-04-10T16:41:42.778Z</time></trkpt><trkpt lat="44.461641" lon="4.4222676"><ele>216.0</ele><time>2026-04-10T16:41:43.778Z</time></trkpt><trkpt lat="44.4615819" lon="4.4223214"><ele>216.49999999999997</ele><time>2026-04-10T16:41:44.776Z</time></trkpt><trkpt lat="44.4614895" lon="4.4224039"><ele>217.0</ele><time>2026-04-10T16:41:46.774Z</time></trkpt><trkpt lat="44.4614072" lon="4.42242"><ele>216.99999999999997</ele><time>2026-04-10T16:41:48.778Z</time></trkpt><trkpt lat="44.4614182" lon="4.4223277"><ele>217.0</ele><time>2026-04-10T16:41:50.775Z</time></trkpt><trkpt lat="44.4613916" lon="4.4222233"><ele>217.0</ele><time>2026-04-10T16:42:02.777Z</time></trkpt><trkpt lat="44.4613716" lon="4.4220442"><ele>217.0</ele><time>2026-04-10T16:42:04.778Z</time></trkpt><trkpt lat="44.4613599" lon="4.421936"><ele>216.99999999999997</ele><time>2026-04-10T16:42:05.776Z</time></trkpt><trkpt lat="44.4613401" lon="4.4218291"><ele>217.0</ele><time>2026-04-10T16:42:06.778Z</time></trkpt><trkpt lat="44.4613054" lon="4.4217067"><ele>216.16666666666666</ele><time>2026-04-10T16:42:07.784Z</time></trkpt><trkpt lat="44.4612623" lon="4.4215919"><ele>215.33333333333331</ele><time>2026-04-10T16:42:08.78Z</time></trkpt><trkpt lat="44.4612344" lon="4.4214731"><ele>214.5</ele><time>2026-04-10T16:42:09.779Z</time></trkpt><trkpt lat="44.4611998" lon="4.4213474"><ele>213.66666666666669</ele><time>2026-04-10T16:42:10.777Z</time></trkpt><trkpt lat="44.4611788" lon="4.4212422"><ele>212.83333333333334</ele><time>2026-04-10T16:42:11.78Z</time></trkpt><trkpt lat="44.4611322" lon="4.4211313"><ele>212.0</ele><time>2026-04-10T16:42:12.779Z</time></trkpt><trkpt lat="44.4610811" lon="4.4210247"><ele>209.0</ele><time>2026-04-10T16:42:13.774Z</time></trkpt><trkpt lat="44.4610244" lon="4.4209483"><ele>206.0</ele><time>2026-04-10T16:42:14.777Z</time></trkpt><trkpt lat="44.4609356" lon="4.4208881"><ele>203.0</ele><time>2026-04-10T16:42:15.783Z</time></trkpt><trkpt lat="44.4608454" lon="4.4208401"><ele>200.0</ele><time>2026-04-10T16:42:16.775Z</time></trkpt><trkpt lat="44.4607606" lon="4.4207926"><ele>197.0</ele><time>2026-04-10T16:42:17.775Z</time></trkpt><trkpt lat="44.4606717" lon="4.4207589"><ele>197.00000000000003</ele><time>2026-04-10T16:42:18.777Z</time></trkpt><trkpt lat="44.4605988" lon="4.4207345"><ele>197.0</ele><time>2026-04-10T16:42:19.779Z</time></trkpt><trkpt lat="44.4604964" lon="4.4206955"><ele>197.0</ele><time>2026-04-10T16:42:21.772Z</time></trkpt><trkpt lat="44.4604753" lon="4.4206109"><ele>197.0</ele><time>2026-04-10T16:42:23.776Z</time></trkpt><trkpt lat="44.4605295" lon="4.4205563"><ele>197.00000000000003</ele><time>2026-04-10T16:42:25.782Z</time></trkpt><trkpt lat="44.4605932" lon="4.4205485"><ele>197.0</ele><time>2026-04-10T16:42:27.782Z</time></trkpt><trkpt lat="44.4606695" lon="4.420559"><ele>197.00000000000003</ele><time>2026-04-10T16:42:28.773Z</time></trkpt><trkpt lat="44.460758" lon="4.4205612"><ele>197.0</ele><time>2026-04-10T16:42:29.779Z</time></trkpt><trkpt lat="44.4608614" lon="4.4205773"><ele>197.0</ele><time>2026-04-10T16:42:30.791Z</time></trkpt><trkpt lat="44.46096" lon="4.4205976"><ele>197.0</ele><time>2026-04-10T16:42:31.777Z</time></trkpt><trkpt lat="44.461042" lon="4.4206126"><ele>197.00000000000003</ele><time>2026-04-10T16:42:32.773Z</time></trkpt><trkpt lat="44.4611052" lon="4.4206537"><ele>197.0</ele><time>2026-04-10T16:42:33.775Z</time></trkpt><trkpt lat="44.4611978" lon="4.4207089"><ele>197.0</ele><time>2026-04-10T16:42:35.776Z</time></trkpt><trkpt lat="44.4612372" lon="4.4205965"><ele>197.0</ele><time>2026-04-10T16:42:38.771Z</time></trkpt><trkpt lat="44.4611749" lon="4.4205014"><ele>197.0</ele><time>2026-04-10T16:42:40.783Z</time></trkpt><trkpt lat="44.4611083" lon="4.4204638"><ele>197.0</ele><time>2026-04-10T16:42:41.779Z</time></trkpt><trkpt lat="44.4610215" lon="4.4203964"><ele>197.0</ele><time>2026-04-10T16:42:42.776Z</time></trkpt><trkpt lat="44.4609249" lon="4.4203293"><ele>194.2</ele><time>2026-04-10T16:42:43.773Z</time></trkpt><trkpt lat="44.4608322" lon="4.4202552"><ele>191.39999999999998</ele><time>2026-04-10T16:42:44.774Z</time></trkpt><trkpt lat="44.4607463" lon="4.4201744"><ele>188.60000000000002</ele><time>2026-04-10T16:42:45.782Z</time></trkpt><trkpt lat="44.4606631" lon="4.420085"><ele>185.8</ele><time>2026-04-10T16:42:46.779Z</time></trkpt><trkpt lat="44.4605863" lon="4.4199967"><ele>183.0</ele><time>2026-04-10T16:42:47.776Z</time></trkpt><trkpt lat="44.4605189" lon="4.4199154"><ele>183.66666666666666</ele><time>2026-04-10T16:42:48.773Z</time></trkpt><trkpt lat="44.4604486" lon="4.4198528"><ele>184.33333333333334</ele><time>2026-04-10T16:42:49.776Z</time></trkpt><trkpt lat="44.4603811" lon="4.4198012"><ele>185.0</ele><time>2026-04-10T16:42:50.777Z</time></trkpt><trkpt lat="44.4603202" lon="4.419767"><ele>185.66666666666669</ele><time>2026-04-10T16:42:51.776Z</time></trkpt><trkpt lat="44.4602073" lon="4.4197545"><ele>186.33333333333334</ele><time>2026-04-10T16:42:53.777Z</time></trkpt><trkpt lat="44.460124" lon="4.4196759"><ele>187.0</ele><time>2026-04-10T16:42:55.786Z</time></trkpt><trkpt lat="44.4600793" lon="4.4195223"><ele>184.39999999999998</ele><time>2026-04-10T16:42:57.773Z</time></trkpt><trkpt lat="44.4600316" lon="4.4194017"><ele>181.79999999999998</ele><time>2026-04-10T16:42:58.773Z</time></trkpt><trkpt lat="44.4599716" lon="4.4192866"><ele>179.2</ele><time>2026-04-10T16:42:59.771Z</time></trkpt><trkpt lat="44.4599066" lon="4.4191952"><ele>176.6</ele><time>2026-04-10T16:43:00.775Z</time></trkpt><trkpt lat="44.4598337" lon="4.4191161"><ele>174.0</ele><time>2026-04-10T16:43:01.773Z</time></trkpt><trkpt lat="44.459734" lon="4.4190458"><ele>174.0</ele><time>2026-04-10T16:43:02.776Z</time></trkpt><trkpt lat="44.4596377" lon="4.4189836"><ele>174.0</ele><time>2026-04-10T16:43:03.775Z</time></trkpt><trkpt lat="44.459547" lon="4.4189324"><ele>174.0</ele><time>2026-04-10T16:43:04.78Z</time></trkpt><trkpt lat="44.459471" lon="4.4188899"><ele>174.0</ele><time>2026-04-10T16:43:05.775Z</time></trkpt><trkpt lat="44.4594087" lon="4.4188574"><ele>174.0</ele><time>2026-04-10T16:43:06.773Z</time></trkpt><trkpt lat="44.4593316" lon="4.4187543"><ele>172.0</ele><time>2026-04-10T16:43:08.783Z</time></trkpt><trkpt lat="44.4593241" lon="4.4186574"><ele>170.0</ele><time>2026-04-10T16:43:09.776Z</time></trkpt><trkpt lat="44.4593298" lon="4.4185361"><ele>168.0</ele><time>2026-04-10T16:43:10.775Z</time></trkpt><trkpt lat="44.4593315" lon="4.4184072"><ele>166.0</ele><time>2026-04-10T16:43:11.773Z</time></trkpt><trkpt lat="44.4593316" lon="4.4182615"><ele>164.0</ele><time>2026-04-10T16:43:12.774Z</time></trkpt><trkpt lat="44.4593256" lon="4.4180919"><ele>164.25</ele><time>2026-04-10T16:43:13.779Z</time></trkpt><trkpt lat="44.4593062" lon="4.4178967"><ele>164.5</ele><time>2026-04-10T16:43:14.78Z</time></trkpt><trkpt lat="44.4592766" lon="4.4176943"><ele>164.75</ele><time>2026-04-10T16:43:15.774Z</time></trkpt><trkpt lat="44.459256" lon="4.4174872"><ele>165.0</ele><time>2026-04-10T16:43:16.772Z</time></trkpt><trkpt lat="44.4592357" lon="4.4173004"><ele>165.6</ele><time>2026-04-10T16:43:17.773Z</time></trkpt><trkpt lat="44.4592164" lon="4.4171186"><ele>166.2</ele><time>2026-04-10T16:43:18.776Z</time></trkpt><trkpt lat="44.4591973" lon="4.4169561"><ele>166.8</ele><time>2026-04-10T16:43:19.776Z</time></trkpt><trkpt lat="44.4591801" lon="4.4168076"><ele>167.4</ele><time>2026-04-10T16:43:20.777Z</time></trkpt><trkpt lat="44.4591636" lon="4.4166842"><ele>168.0</ele><time>2026-04-10T16:43:21.777Z</time></trkpt><trkpt lat="44.4591523" lon="4.4165712"><ele>168.0</ele><time>2026-04-10T16:43:22.776Z</time></trkpt><trkpt lat="44.4591411" lon="4.4164675"><ele>168.0</ele><time>2026-04-10T16:43:23.779Z</time></trkpt><trkpt lat="44.4591253" lon="4.416376"><ele>168.0</ele><time>2026-04-10T16:43:24.776Z</time></trkpt><trkpt lat="44.4590962" lon="4.4162958"><ele>168.0</ele><time>2026-04-10T16:43:25.78Z</time></trkpt><trkpt lat="44.4590504" lon="4.4162264"><ele>168.0</ele><time>2026-04-10T16:43:26.785Z</time></trkpt><trkpt lat="44.4589705" lon="4.4161778"><ele>168.0</ele><time>2026-04-10T16:43:27.773Z</time></trkpt><trkpt lat="44.4588705" lon="4.4161313"><ele>168.0</ele><time>2026-04-10T16:43:28.776Z</time></trkpt><trkpt lat="44.4587573" lon="4.4160825"><ele>168.0</ele><time>2026-04-10T16:43:29.779Z</time></trkpt><trkpt lat="44.4586462" lon="4.4160154"><ele>168.0</ele><time>2026-04-10T16:43:30.775Z</time></trkpt><trkpt lat="44.4585339" lon="4.4159307"><ele>168.0</ele><time>2026-04-10T16:43:31.774Z</time></trkpt><trkpt lat="44.458422" lon="4.4158274"><ele>168.0</ele><time>2026-04-10T16:43:32.776Z</time></trkpt><trkpt lat="44.458305" lon="4.4157092"><ele>168.0</ele><time>2026-04-10T16:43:33.778Z</time></trkpt><trkpt lat="44.4581902" lon="4.4155767"><ele>168.0</ele><time>2026-04-10T16:43:34.776Z</time></trkpt><trkpt lat="44.4580738" lon="4.4154359"><ele>168.0</ele><time>2026-04-10T16:43:35.774Z</time></trkpt><trkpt lat="44.4579462" lon="4.4152903"><ele>170.5</ele><time>2026-04-10T16:43:36.774Z</time></trkpt><trkpt lat="44.4578293" lon="4.4151422"><ele>173.0</ele><time>2026-04-10T16:43:37.786Z</time></trkpt><trkpt lat="44.4577137" lon="4.4150123"><ele>175.5</ele><time>2026-04-10T16:43:38.776Z</time></trkpt><trkpt lat="44.4576031" lon="4.4149045"><ele>178.0</ele><time>2026-04-10T16:43:39.775Z</time></trkpt><trkpt lat="44.4575035" lon="4.414817"><ele>178.0</ele><time>2026-04-10T16:43:40.776Z</time></trkpt><trkpt lat="44.4574396" lon="4.4147301"><ele>178.0</ele><time>2026-04-10T16:43:41.778Z</time></trkpt><trkpt lat="44.4574246" lon="4.414628"><ele>178.0</ele><time>2026-04-10T16:43:42.774Z</time></trkpt><trkpt lat="44.4574369" lon="4.4145249"><ele>178.0</ele><time>2026-04-10T16:43:43.773Z</time></trkpt><trkpt lat="44.4574926" lon="4.4144243"><ele>178.0</ele><time>2026-04-10T16:43:44.776Z</time></trkpt><trkpt lat="44.4575938" lon="4.4143303"><ele>177.75</ele><time>2026-04-10T16:43:45.78Z</time></trkpt><trkpt lat="44.4577105" lon="4.4142349"><ele>177.5</ele><time>2026-04-10T16:43:46.775Z</time></trkpt><trkpt lat="44.4578369" lon="4.4141231"><ele>177.25</ele><time>2026-04-10T16:43:47.783Z</time></trkpt><trkpt lat="44.4579491" lon="4.4140184"><ele>177.0</ele><time>2026-04-10T16:43:48.775Z</time></trkpt><trkpt lat="44.4580726" lon="4.4139131"><ele>176.5</ele><time>2026-04-10T16:43:49.775Z</time></trkpt><trkpt lat="44.4582169" lon="4.4138502"><ele>176.0</ele><time>2026-04-10T16:43:50.776Z</time></trkpt><trkpt lat="44.4583464" lon="4.4138048"><ele>175.5</ele><time>2026-04-10T16:43:51.774Z</time></trkpt><trkpt lat="44.4584701" lon="4.4137356"><ele>175.0</ele><time>2026-04-10T16:43:52.772Z</time></trkpt><trkpt lat="44.4585766" lon="4.4136257"><ele>176.75</ele><time>2026-04-10T16:43:53.776Z</time></trkpt><trkpt lat="44.4586564" lon="4.413485"><ele>178.5</ele><time>2026-04-10T16:43:54.778Z</time></trkpt><trkpt lat="44.4587186" lon="4.4133416"><ele>180.25</ele><time>2026-04-10T16:43:55.776Z</time></trkpt><trkpt lat="44.4587264" lon="4.4131264"><ele>182.0</ele><time>2026-04-10T16:43:56.777Z</time></trkpt><trkpt lat="44.4587548" lon="4.4129109"><ele>179.0</ele><time>2026-04-10T16:43:57.781Z</time></trkpt><trkpt lat="44.4587901" lon="4.4126735"><ele>176.0</ele><time>2026-04-10T16:43:58.782Z</time></trkpt><trkpt lat="44.4588173" lon="4.4124323"><ele>173.0</ele><time>2026-04-10T16:43:59.779Z</time></trkpt><trkpt lat="44.4588729" lon="4.4121754"><ele>175.0</ele><time>2026-04-10T16:44:00.774Z</time></trkpt><trkpt lat="44.458957" lon="4.4119369"><ele>177.0</ele><time>2026-04-10T16:44:01.781Z</time></trkpt><trkpt lat="44.4590911" lon="4.4117034"><ele>179.0</ele><time>2026-04-10T16:44:02.775Z</time></trkpt><trkpt lat="44.4592286" lon="4.4114964"><ele>179.0</ele><time>2026-04-10T16:44:03.78Z</time></trkpt><trkpt lat="44.4593679" lon="4.411334"><ele>179.0</ele><time>2026-04-10T16:44:04.774Z</time></trkpt><trkpt lat="44.4595142" lon="4.411172"><ele>179.0</ele><time>2026-04-10T16:44:05.779Z</time></trkpt><trkpt lat="44.4596278" lon="4.4109696"><ele>178.66666666666666</ele><time>2026-04-10T16:44:06.775Z</time></trkpt><trkpt lat="44.4597262" lon="4.4107592"><ele>178.33333333333334</ele><time>2026-04-10T16:44:07.77Z</time></trkpt><trkpt lat="44.4598192" lon="4.4105483"><ele>178.0</ele><time>2026-04-10T16:44:08.775Z</time></trkpt><trkpt lat="44.4599064" lon="4.4103551"><ele>178.75</ele><time>2026-04-10T16:44:09.778Z</time></trkpt><trkpt lat="44.4600056" lon="4.4102152"><ele>179.5</ele><time>2026-04-10T16:44:10.772Z</time></trkpt><trkpt lat="44.460111" lon="4.4101136"><ele>180.25</ele><time>2026-04-10T16:44:11.776Z</time></trkpt><trkpt lat="44.4602054" lon="4.4100373"><ele>181.0</ele><time>2026-04-10T16:44:12.774Z</time></trkpt><trkpt lat="44.4602713" lon="4.409948"><ele>181.0</ele><time>2026-04-10T16:44:13.775Z</time></trkpt><trkpt lat="44.4602879" lon="4.4098113"><ele>181.0</ele><time>2026-04-10T16:44:14.774Z</time></trkpt><trkpt lat="44.4602931" lon="4.4096701"><ele>181.0</ele><time>2026-04-10T16:44:15.773Z</time></trkpt><trkpt lat="44.4602871" lon="4.4095189"><ele>181.0</ele><time>2026-04-10T16:44:16.776Z</time></trkpt><trkpt lat="44.460167" lon="4.4093386"><ele>182.33333333333334</ele><time>2026-04-10T16:44:17.781Z</time></trkpt><trkpt lat="44.4601053" lon="4.4091461"><ele>183.66666666666666</ele><time>2026-04-10T16:44:18.777Z</time></trkpt><trkpt lat="44.4600465" lon="4.4089352"><ele>185.0</ele><time>2026-04-10T16:44:19.778Z</time></trkpt><trkpt lat="44.459994" lon="4.40872"><ele>186.33333333333331</ele><time>2026-04-10T16:44:20.776Z</time></trkpt><trkpt lat="44.4599501" lon="4.408503"><ele>187.66666666666666</ele><time>2026-04-10T16:44:21.772Z</time></trkpt><trkpt lat="44.4599117" lon="4.4082806"><ele>189.0</ele><time>2026-04-10T16:44:22.772Z</time></trkpt><trkpt lat="44.4598607" lon="4.4080654"><ele>191.0</ele><time>2026-04-10T16:44:23.781Z</time></trkpt><trkpt lat="44.4597997" lon="4.4078438"><ele>193.0</ele><time>2026-04-10T16:44:24.774Z</time></trkpt><trkpt lat="44.4597343" lon="4.4076125"><ele>195.0</ele><time>2026-04-10T16:44:25.774Z</time></trkpt><trkpt lat="44.4596625" lon="4.4073684"><ele>194.0</ele><time>2026-04-10T16:44:26.771Z</time></trkpt><trkpt lat="44.4596044" lon="4.4071204"><ele>193.0</ele><time>2026-04-10T16:44:27.775Z</time></trkpt><trkpt lat="44.4595461" lon="4.406864"><ele>192.0</ele><time>2026-04-10T16:44:28.773Z</time></trkpt><trkpt lat="44.4594775" lon="4.4066102"><ele>192.0</ele><time>2026-04-10T16:44:29.772Z</time></trkpt><trkpt lat="44.4593976" lon="4.4063672"><ele>192.0</ele><time>2026-04-10T16:44:30.774Z</time></trkpt><trkpt lat="44.4593212" lon="4.4061247"><ele>192.0</ele><time>2026-04-10T16:44:31.773Z</time></trkpt><trkpt lat="44.4592251" lon="4.4058901"><ele>192.66666666666669</ele><time>2026-04-10T16:44:32.774Z</time></trkpt><trkpt lat="44.4591292" lon="4.405651"><ele>193.33333333333334</ele><time>2026-04-10T16:44:33.776Z</time></trkpt><trkpt lat="44.4590771" lon="4.4054097"><ele>194.0</ele><time>2026-04-10T16:44:34.781Z</time></trkpt><trkpt lat="44.4590665" lon="4.405174"><ele>194.66666666666669</ele><time>2026-04-10T16:44:35.777Z</time></trkpt><trkpt lat="44.4590608" lon="4.4049457"><ele>195.33333333333331</ele><time>2026-04-10T16:44:36.781Z</time></trkpt><trkpt lat="44.459034" lon="4.4047377"><ele>196.0</ele><time>2026-04-10T16:44:37.775Z</time></trkpt><trkpt lat="44.4589849" lon="4.4045318"><ele>196.66666666666666</ele><time>2026-04-10T16:44:38.777Z</time></trkpt><trkpt lat="44.4589067" lon="4.4043445"><ele>197.33333333333331</ele><time>2026-04-10T16:44:39.774Z</time></trkpt><trkpt lat="44.4588032" lon="4.404177"><ele>198.0</ele><time>2026-04-10T16:44:40.783Z</time></trkpt><trkpt lat="44.4586815" lon="4.4040247"><ele>198.0</ele><time>2026-04-10T16:44:41.776Z</time></trkpt><trkpt lat="44.4585524" lon="4.4038626"><ele>198.0</ele><time>2026-04-10T16:44:42.78Z</time></trkpt><trkpt lat="44.4584282" lon="4.4036966"><ele>198.0</ele><time>2026-04-10T16:44:43.781Z</time></trkpt><trkpt lat="44.4582963" lon="4.4035375"><ele>199.33333333333331</ele><time>2026-04-10T16:44:44.776Z</time></trkpt><trkpt lat="44.458157" lon="4.4033844"><ele>200.66666666666666</ele><time>2026-04-10T16:44:45.782Z</time></trkpt><trkpt lat="44.458009" lon="4.4032235"><ele>202.0</ele><time>2026-04-10T16:44:46.777Z</time></trkpt><trkpt lat="44.4578518" lon="4.4030627"><ele>203.66666666666666</ele><time>2026-04-10T16:44:47.777Z</time></trkpt><trkpt lat="44.4576987" lon="4.4029027"><ele>205.33333333333331</ele><time>2026-04-10T16:44:48.774Z</time></trkpt><trkpt lat="44.4575264" lon="4.4027415"><ele>207.0</ele><time>2026-04-10T16:44:49.775Z</time></trkpt><trkpt lat="44.4573619" lon="4.4025928"><ele>207.0</ele><time>2026-04-10T16:44:50.775Z</time></trkpt><trkpt lat="44.4571909" lon="4.4024546"><ele>207.0</ele><time>2026-04-10T16:44:51.776Z</time></trkpt><trkpt lat="44.457041" lon="4.4023336"><ele>207.0</ele><time>2026-04-10T16:44:52.775Z</time></trkpt><trkpt lat="44.4568913" lon="4.4022061"><ele>209.33333333333331</ele><time>2026-04-10T16:44:53.777Z</time></trkpt><trkpt lat="44.4567387" lon="4.4020775"><ele>211.66666666666666</ele><time>2026-04-10T16:44:54.776Z</time></trkpt><trkpt lat="44.4565931" lon="4.4019352"><ele>214.0</ele><time>2026-04-10T16:44:55.776Z</time></trkpt><trkpt lat="44.4564444" lon="4.4017916"><ele>214.0</ele><time>2026-04-10T16:44:56.771Z</time></trkpt><trkpt lat="44.4563032" lon="4.4016286"><ele>214.0</ele><time>2026-04-10T16:44:57.772Z</time></trkpt><trkpt lat="44.4561632" lon="4.4014743"><ele>214.0</ele><time>2026-04-10T16:44:58.78Z</time></trkpt><trkpt lat="44.4560395" lon="4.4013247"><ele>214.5</ele><time>2026-04-10T16:44:59.775Z</time></trkpt><trkpt lat="44.4559261" lon="4.4011735"><ele>215.0</ele><time>2026-04-10T16:45:00.773Z</time></trkpt><trkpt lat="44.4558151" lon="4.4010285"><ele>215.5</ele><time>2026-04-10T16:45:01.773Z</time></trkpt><trkpt lat="44.4557155" lon="4.4008973"><ele>216.0</ele><time>2026-04-10T16:45:02.772Z</time></trkpt><trkpt lat="44.4556206" lon="4.4007651"><ele>216.0</ele><time>2026-04-10T16:45:03.772Z</time></trkpt><trkpt lat="44.4555459" lon="4.4006691"><ele>216.00000000000003</ele><time>2026-04-10T16:45:04.775Z</time></trkpt><trkpt lat="44.455468" lon="4.4005698"><ele>216.00000000000003</ele><time>2026-04-10T16:45:05.773Z</time></trkpt><trkpt lat="44.4554085" lon="4.4004912"><ele>216.0</ele><time>2026-04-10T16:45:06.782Z</time></trkpt><trkpt lat="44.4553634" lon="4.4003632"><ele>216.0</ele><time>2026-04-10T16:45:08.772Z</time></trkpt><trkpt lat="44.4553942" lon="4.4002173"><ele>216.60000000000002</ele><time>2026-04-10T16:45:10.785Z</time></trkpt><trkpt lat="44.4554358" lon="4.4001307"><ele>217.20000000000002</ele><time>2026-04-10T16:45:11.78Z</time></trkpt><trkpt lat="44.4554889" lon="4.4000277"><ele>217.79999999999998</ele><time>2026-04-10T16:45:12.782Z</time></trkpt><trkpt lat="44.4555586" lon="4.3999152"><ele>218.39999999999998</ele><time>2026-04-10T16:45:13.782Z</time></trkpt><trkpt lat="44.4556315" lon="4.3997868"><ele>219.0</ele><time>2026-04-10T16:45:14.773Z</time></trkpt><trkpt lat="44.4557012" lon="4.3996477"><ele>220.75</ele><time>2026-04-10T16:45:15.773Z</time></trkpt><trkpt lat="44.4557785" lon="4.3994844"><ele>222.5</ele><time>2026-04-10T16:45:16.781Z</time></trkpt><trkpt lat="44.4558597" lon="4.3993282"><ele>224.25</ele><time>2026-04-10T16:45:17.777Z</time></trkpt><trkpt lat="44.4559401" lon="4.399159"><ele>226.0</ele><time>2026-04-10T16:45:18.775Z</time></trkpt><trkpt lat="44.4560262" lon="4.3989849"><ele>226.0</ele><time>2026-04-10T16:45:19.775Z</time></trkpt><trkpt lat="44.456098" lon="4.3988418"><ele>226.0</ele><time>2026-04-10T16:45:20.775Z</time></trkpt><trkpt lat="44.4561673" lon="4.398703"><ele>226.0</ele><time>2026-04-10T16:45:21.782Z</time></trkpt><trkpt lat="44.4562462" lon="4.3985675"><ele>226.0</ele><time>2026-04-10T16:45:22.776Z</time></trkpt><trkpt lat="44.4563392" lon="4.398442"><ele>227.5</ele><time>2026-04-10T16:45:23.783Z</time></trkpt><trkpt lat="44.456433" lon="4.3982986"><ele>229.0</ele><time>2026-04-10T16:45:24.779Z</time></trkpt><trkpt lat="44.4565471" lon="4.3981414"><ele>230.5</ele><time>2026-04-10T16:45:25.772Z</time></trkpt><trkpt lat="44.4566406" lon="4.3980093"><ele>232.0</ele><time>2026-04-10T16:45:26.772Z</time></trkpt><trkpt lat="44.4567377" lon="4.3978995"><ele>233.2</ele><time>2026-04-10T16:45:27.774Z</time></trkpt><trkpt lat="44.456807" lon="4.3977849"><ele>234.39999999999998</ele><time>2026-04-10T16:45:28.776Z</time></trkpt><trkpt lat="44.4568638" lon="4.397666"><ele>235.60000000000002</ele><time>2026-04-10T16:45:29.772Z</time></trkpt><trkpt lat="44.4569208" lon="4.3975384"><ele>236.8</ele><time>2026-04-10T16:45:30.775Z</time></trkpt><trkpt lat="44.4569658" lon="4.3974071"><ele>238.0</ele><time>2026-04-10T16:45:31.784Z</time></trkpt><trkpt lat="44.4570246" lon="4.3972794"><ele>238.0</ele><time>2026-04-10T16:45:32.775Z</time></trkpt><trkpt lat="44.4570872" lon="4.3971594"><ele>238.0</ele><time>2026-04-10T16:45:33.779Z</time></trkpt><trkpt lat="44.4571509" lon="4.3970411"><ele>238.0</ele><time>2026-04-10T16:45:34.783Z</time></trkpt><trkpt lat="44.457208" lon="4.3969476"><ele>238.0</ele><time>2026-04-10T16:45:35.784Z</time></trkpt><trkpt lat="44.4572687" lon="4.396854"><ele>238.0</ele><time>2026-04-10T16:45:36.783Z</time></trkpt><trkpt lat="44.457326" lon="4.3967677"><ele>240.0</ele><time>2026-04-10T16:45:37.774Z</time></trkpt><trkpt lat="44.457333" lon="4.3965986"><ele>242.0</ele><time>2026-04-10T16:45:39.781Z</time></trkpt><trkpt lat="44.4573126" lon="4.3964962"><ele>244.0</ele><time>2026-04-10T16:45:40.785Z</time></trkpt><trkpt lat="44.4572715" lon="4.3963698"><ele>246.0</ele><time>2026-04-10T16:45:41.784Z</time></trkpt><trkpt lat="44.4572361" lon="4.3962447"><ele>248.0</ele><time>2026-04-10T16:45:42.775Z</time></trkpt><trkpt lat="44.457205" lon="4.3961093"><ele>248.83333333333334</ele><time>2026-04-10T16:45:43.781Z</time></trkpt><trkpt lat="44.4571707" lon="4.3959882"><ele>249.66666666666669</ele><time>2026-04-10T16:45:44.774Z</time></trkpt><trkpt lat="44.4571379" lon="4.3958907"><ele>250.5</ele><time>2026-04-10T16:45:45.775Z</time></trkpt><trkpt lat="44.4571092" lon="4.3957942"><ele>251.33333333333331</ele><time>2026-04-10T16:45:46.77Z</time></trkpt><trkpt lat="44.4570797" lon="4.3957037"><ele>252.16666666666666</ele><time>2026-04-10T16:45:47.775Z</time></trkpt><trkpt lat="44.4570253" lon="4.3955677"><ele>253.0</ele><time>2026-04-10T16:45:49.772Z</time></trkpt><trkpt lat="44.4569669" lon="4.3954333"><ele>252.99999999999997</ele><time>2026-04-10T16:45:51.775Z</time></trkpt><trkpt lat="44.4569104" lon="4.3953202"><ele>253.0</ele><time>2026-04-10T16:45:53.776Z</time></trkpt><trkpt lat="44.4568617" lon="4.3952122"><ele>253.0</ele><time>2026-04-10T16:45:55.777Z</time></trkpt><trkpt lat="44.45685" lon="4.3953091"><ele>253.0</ele><time>2026-04-10T16:47:16.773Z</time></trkpt><trkpt lat="44.4568488" lon="4.3952018"><ele>252.99999999999997</ele><time>2026-04-10T16:47:35.777Z</time></trkpt><trkpt lat="44.456819" lon="4.3951173"><ele>253.0</ele><time>2026-04-10T16:47:38.771Z</time></trkpt><trkpt lat="44.4568321" lon="4.3950134"><ele>252.99999999999997</ele><time>2026-04-10T16:47:48.775Z</time></trkpt><trkpt lat="44.4568525" lon="4.3949108"><ele>253.0</ele><time>2026-04-10T16:47:51.775Z</time></trkpt><trkpt lat="44.4568778" lon="4.3948127"><ele>253.0</ele><time>2026-04-10T16:47:53.776Z</time></trkpt><trkpt lat="44.4568911" lon="4.3946974"><ele>253.0</ele><time>2026-04-10T16:47:55.772Z</time></trkpt><trkpt lat="44.4568982" lon="4.3945782"><ele>252.99999999999997</ele><time>2026-04-10T16:47:57.771Z</time></trkpt><trkpt lat="44.4569102" lon="4.3944706"><ele>253.0</ele><time>2026-04-10T16:47:59.777Z</time></trkpt><trkpt lat="44.4569244" lon="4.3943576"><ele>252.8</ele><time>2026-04-10T16:48:02.774Z</time></trkpt><trkpt lat="44.4569831" lon="4.3943947"><ele>252.60000000000002</ele><time>2026-04-10T16:49:03.776Z</time></trkpt><trkpt lat="44.4571488" lon="4.394371"><ele>252.39999999999998</ele><time>2026-04-10T16:49:06.779Z</time></trkpt><trkpt lat="44.4572281" lon="4.3943703"><ele>252.2</ele><time>2026-04-10T16:49:07.775Z</time></trkpt><trkpt lat="44.4573051" lon="4.3943794"><ele>252.0</ele><time>2026-04-10T16:49:08.772Z</time></trkpt><trkpt lat="44.4573933" lon="4.3943854"><ele>253.8</ele><time>2026-04-10T16:49:09.771Z</time></trkpt><trkpt lat="44.4574713" lon="4.3943881"><ele>255.6</ele><time>2026-04-10T16:49:10.773Z</time></trkpt><trkpt lat="44.4575435" lon="4.3943795"><ele>257.40000000000003</ele><time>2026-04-10T16:49:11.778Z</time></trkpt><trkpt lat="44.4576213" lon="4.3942558"><ele>259.2</ele><time>2026-04-10T16:49:13.772Z</time></trkpt><trkpt lat="44.4576666" lon="4.3940778"><ele>261.0</ele><time>2026-04-10T16:49:15.775Z</time></trkpt><trkpt lat="44.4576766" lon="4.3939773"><ele>260.2</ele><time>2026-04-10T16:49:16.776Z</time></trkpt><trkpt lat="44.4576239" lon="4.3938258"><ele>259.40000000000003</ele><time>2026-04-10T16:49:18.776Z</time></trkpt><trkpt lat="44.4575464" lon="4.3936605"><ele>258.6</ele><time>2026-04-10T16:49:20.774Z</time></trkpt><trkpt lat="44.4575136" lon="4.3935668"><ele>257.8</ele><time>2026-04-10T16:49:21.777Z</time></trkpt><trkpt lat="44.4574809" lon="4.3934674"><ele>257.0</ele><time>2026-04-10T16:49:22.777Z</time></trkpt><trkpt lat="44.4574623" lon="4.3933674"><ele>257.0</ele><time>2026-04-10T16:49:23.776Z</time></trkpt><trkpt lat="44.4574432" lon="4.3932577"><ele>257.0</ele><time>2026-04-10T16:49:24.783Z</time></trkpt><trkpt lat="44.457439" lon="4.3931509"><ele>257.0</ele><time>2026-04-10T16:49:25.774Z</time></trkpt><trkpt lat="44.4574481" lon="4.393049"><ele>257.0</ele><time>2026-04-10T16:49:26.77Z</time></trkpt><trkpt lat="44.4574567" lon="4.3929445"><ele>257.0</ele><time>2026-04-10T16:49:27.774Z</time></trkpt><trkpt lat="44.4574609" lon="4.3928397"><ele>257.0</ele><time>2026-04-10T16:49:28.772Z</time></trkpt><trkpt lat="44.4574555" lon="4.3927438"><ele>257.0</ele><time>2026-04-10T16:49:29.773Z</time></trkpt><trkpt lat="44.457437" lon="4.3926499"><ele>255.66666666666669</ele><time>2026-04-10T16:49:30.774Z</time></trkpt><trkpt lat="44.4574212" lon="4.3925593"><ele>254.33333333333334</ele><time>2026-04-10T16:49:31.775Z</time></trkpt><trkpt lat="44.4573964" lon="4.3924108"><ele>253.0</ele><time>2026-04-10T16:49:33.773Z</time></trkpt><trkpt lat="44.4573978" lon="4.3922838"><ele>251.66666666666669</ele><time>2026-04-10T16:49:35.78Z</time></trkpt><trkpt lat="44.4574662" lon="4.3921852"><ele>250.33333333333334</ele><time>2026-04-10T16:49:37.777Z</time></trkpt><trkpt lat="44.457519" lon="4.3921348"><ele>249.0</ele><time>2026-04-10T16:49:38.78Z</time></trkpt><trkpt lat="44.457606" lon="4.3920129"><ele>247.0</ele><time>2026-04-10T16:49:40.777Z</time></trkpt><trkpt lat="44.4576579" lon="4.3918777"><ele>244.99999999999997</ele><time>2026-04-10T16:49:42.776Z</time></trkpt><trkpt lat="44.4576774" lon="4.3917088"><ele>242.99999999999997</ele><time>2026-04-10T16:49:44.775Z</time></trkpt><trkpt lat="44.4576904" lon="4.391596"><ele>241.0</ele><time>2026-04-10T16:49:45.777Z</time></trkpt><trkpt lat="44.457693" lon="4.3914817"><ele>239.0</ele><time>2026-04-10T16:49:46.775Z</time></trkpt><trkpt lat="44.4576878" lon="4.3913869"><ele>239.33333333333334</ele><time>2026-04-10T16:49:47.775Z</time></trkpt><trkpt lat="44.4576189" lon="4.3912914"><ele>239.66666666666669</ele><time>2026-04-10T16:49:49.776Z</time></trkpt><trkpt lat="44.4575548" lon="4.3912647"><ele>240.0</ele><time>2026-04-10T16:49:50.775Z</time></trkpt><trkpt lat="44.4574734" lon="4.3912201"><ele>240.33333333333331</ele><time>2026-04-10T16:49:51.77Z</time></trkpt><trkpt lat="44.4573975" lon="4.3911605"><ele>240.66666666666666</ele><time>2026-04-10T16:49:52.774Z</time></trkpt><trkpt lat="44.4573154" lon="4.3910778"><ele>241.0</ele><time>2026-04-10T16:49:53.792Z</time></trkpt><trkpt lat="44.4572386" lon="4.3909955"><ele>241.0</ele><time>2026-04-10T16:49:54.772Z</time></trkpt><trkpt lat="44.4571454" lon="4.3909133"><ele>241.00000000000003</ele><time>2026-04-10T16:49:55.772Z</time></trkpt><trkpt lat="44.4570652" lon="4.3908392"><ele>241.00000000000003</ele><time>2026-04-10T16:49:56.769Z</time></trkpt><trkpt lat="44.4569865" lon="4.3907719"><ele>241.0</ele><time>2026-04-10T16:49:57.775Z</time></trkpt><trkpt lat="44.4568944" lon="4.3906941"><ele>241.0</ele><time>2026-04-10T16:49:58.775Z</time></trkpt><trkpt lat="44.4567169" lon="4.3905289"><ele>240.60000000000002</ele><time>2026-04-10T16:50:00.773Z</time></trkpt><trkpt lat="44.4566351" lon="4.3904497"><ele>240.20000000000002</ele><time>2026-04-10T16:50:01.774Z</time></trkpt><trkpt lat="44.4565619" lon="4.3903673"><ele>239.79999999999998</ele><time>2026-04-10T16:50:02.776Z</time></trkpt><trkpt lat="44.4564953" lon="4.3902752"><ele>239.39999999999998</ele><time>2026-04-10T16:50:03.773Z</time></trkpt><trkpt lat="44.4564329" lon="4.3901599"><ele>239.0</ele><time>2026-04-10T16:50:04.776Z</time></trkpt><trkpt lat="44.4563874" lon="4.3900494"><ele>239.0</ele><time>2026-04-10T16:50:05.773Z</time></trkpt><trkpt lat="44.4563587" lon="4.3899554"><ele>238.99999999999997</ele><time>2026-04-10T16:50:06.775Z</time></trkpt><trkpt lat="44.4563236" lon="4.3897747"><ele>238.99999999999997</ele><time>2026-04-10T16:50:08.778Z</time></trkpt><trkpt lat="44.4563117" lon="4.3896659"><ele>239.0</ele><time>2026-04-10T16:50:09.774Z</time></trkpt><trkpt lat="44.4563193" lon="4.389543"><ele>239.0</ele><time>2026-04-10T16:50:10.772Z</time></trkpt><trkpt lat="44.4563366" lon="4.389402"><ele>238.6</ele><time>2026-04-10T16:50:11.776Z</time></trkpt><trkpt lat="44.4563437" lon="4.3892494"><ele>238.2</ele><time>2026-04-10T16:50:12.776Z</time></trkpt><trkpt lat="44.45634" lon="4.3891054"><ele>237.79999999999998</ele><time>2026-04-10T16:50:13.773Z</time></trkpt><trkpt lat="44.4563313" lon="4.3889497"><ele>237.39999999999998</ele><time>2026-04-10T16:50:14.777Z</time></trkpt><trkpt lat="44.4563285" lon="4.3888066"><ele>237.0</ele><time>2026-04-10T16:50:15.775Z</time></trkpt><trkpt lat="44.4563155" lon="4.3886823"><ele>235.83333333333334</ele><time>2026-04-10T16:50:16.776Z</time></trkpt><trkpt lat="44.456284" lon="4.3885698"><ele>234.66666666666669</ele><time>2026-04-10T16:50:17.769Z</time></trkpt><trkpt lat="44.456239" lon="4.3884801"><ele>233.5</ele><time>2026-04-10T16:50:18.774Z</time></trkpt><trkpt lat="44.4561779" lon="4.3884371"><ele>232.33333333333334</ele><time>2026-04-10T16:50:19.774Z</time></trkpt><trkpt lat="44.4560953" lon="4.388409"><ele>231.16666666666669</ele><time>2026-04-10T16:50:20.775Z</time></trkpt><trkpt lat="44.4560091" lon="4.3883725"><ele>230.0</ele><time>2026-04-10T16:50:21.774Z</time></trkpt><trkpt lat="44.4559415" lon="4.3883219"><ele>230.00000000000003</ele><time>2026-04-10T16:50:22.77Z</time></trkpt><trkpt lat="44.4558937" lon="4.3882538"><ele>230.0</ele><time>2026-04-10T16:50:23.773Z</time></trkpt><trkpt lat="44.4558626" lon="4.3881447"><ele>230.0</ele><time>2026-04-10T16:50:24.774Z</time></trkpt><trkpt lat="44.4558377" lon="4.3880258"><ele>230.0</ele><time>2026-04-10T16:50:25.778Z</time></trkpt><trkpt lat="44.4558112" lon="4.3879047"><ele>230.00000000000003</ele><time>2026-04-10T16:50:26.774Z</time></trkpt><trkpt lat="44.4557805" lon="4.387765"><ele>230.0</ele><time>2026-04-10T16:50:27.782Z</time></trkpt><trkpt lat="44.4557329" lon="4.3876267"><ele>231.0</ele><time>2026-04-10T16:50:28.779Z</time></trkpt><trkpt lat="44.455682" lon="4.3874887"><ele>232.0</ele><time>2026-04-10T16:50:29.775Z</time></trkpt><trkpt lat="44.4556378" lon="4.3873552"><ele>233.0</ele><time>2026-04-10T16:50:30.777Z</time></trkpt><trkpt lat="44.4555852" lon="4.3872198"><ele>234.0</ele><time>2026-04-10T16:50:31.776Z</time></trkpt><trkpt lat="44.4555283" lon="4.3871091"><ele>235.0</ele><time>2026-04-10T16:50:32.776Z</time></trkpt><trkpt lat="44.455465" lon="4.3870011"><ele>233.0</ele><time>2026-04-10T16:50:33.774Z</time></trkpt><trkpt lat="44.4553909" lon="4.3869042"><ele>231.0</ele><time>2026-04-10T16:50:34.778Z</time></trkpt><trkpt lat="44.4553057" lon="4.3868076"><ele>229.0</ele><time>2026-04-10T16:50:35.773Z</time></trkpt><trkpt lat="44.4552277" lon="4.3867277"><ele>227.0</ele><time>2026-04-10T16:50:36.777Z</time></trkpt><trkpt lat="44.4551489" lon="4.3866498"><ele>225.0</ele><time>2026-04-10T16:50:37.773Z</time></trkpt><trkpt lat="44.4550439" lon="4.3865733"><ele>225.0</ele><time>2026-04-10T16:50:38.78Z</time></trkpt><trkpt lat="44.4549501" lon="4.3865033"><ele>225.0</ele><time>2026-04-10T16:50:39.785Z</time></trkpt><trkpt lat="44.4548652" lon="4.3864382"><ele>225.0</ele><time>2026-04-10T16:50:40.777Z</time></trkpt><trkpt lat="44.4547797" lon="4.3863652"><ele>225.0</ele><time>2026-04-10T16:50:41.771Z</time></trkpt><trkpt lat="44.4546967" lon="4.3862829"><ele>225.0</ele><time>2026-04-10T16:50:42.775Z</time></trkpt><trkpt lat="44.4546103" lon="4.3862009"><ele>225.25</ele><time>2026-04-10T16:50:43.773Z</time></trkpt><trkpt lat="44.4545208" lon="4.3861144"><ele>225.5</ele><time>2026-04-10T16:50:44.783Z</time></trkpt><trkpt lat="44.4544265" lon="4.3860186"><ele>225.75</ele><time>2026-04-10T16:50:45.77Z</time></trkpt><trkpt lat="44.4543302" lon="4.3859176"><ele>226.0</ele><time>2026-04-10T16:50:46.769Z</time></trkpt><trkpt lat="44.4542405" lon="4.3858062"><ele>226.0</ele><time>2026-04-10T16:50:47.771Z</time></trkpt><trkpt lat="44.4541552" lon="4.3856915"><ele>226.0</ele><time>2026-04-10T16:50:48.774Z</time></trkpt><trkpt lat="44.454079" lon="4.3855676"><ele>226.0</ele><time>2026-04-10T16:50:49.771Z</time></trkpt><trkpt lat="44.4540071" lon="4.3854369"><ele>226.0</ele><time>2026-04-10T16:50:50.781Z</time></trkpt><trkpt lat="44.4539413" lon="4.3853007"><ele>226.5</ele><time>2026-04-10T16:50:51.772Z</time></trkpt><trkpt lat="44.4538785" lon="4.3851508"><ele>227.0</ele><time>2026-04-10T16:50:52.775Z</time></trkpt><trkpt lat="44.4538221" lon="4.3850114"><ele>227.5</ele><time>2026-04-10T16:50:53.775Z</time></trkpt><trkpt lat="44.4537709" lon="4.3848755"><ele>228.0</ele><time>2026-04-10T16:50:54.781Z</time></trkpt><trkpt lat="44.4537086" lon="4.3847446"><ele>225.8</ele><time>2026-04-10T16:50:55.772Z</time></trkpt><trkpt lat="44.4536486" lon="4.3846076"><ele>223.60000000000002</ele><time>2026-04-10T16:50:56.776Z</time></trkpt><trkpt lat="44.4535942" lon="4.3844816"><ele>221.39999999999998</ele><time>2026-04-10T16:50:57.789Z</time></trkpt><trkpt lat="44.4535324" lon="4.3843667"><ele>219.2</ele><time>2026-04-10T16:50:58.774Z</time></trkpt><trkpt lat="44.4534604" lon="4.3842462"><ele>217.0</ele><time>2026-04-10T16:50:59.775Z</time></trkpt><trkpt lat="44.453367" lon="4.3841357"><ele>217.0</ele><time>2026-04-10T16:51:00.774Z</time></trkpt><trkpt lat="44.4532747" lon="4.3840195"><ele>217.0</ele><time>2026-04-10T16:51:01.774Z</time></trkpt><trkpt lat="44.45318" lon="4.3839073"><ele>217.0</ele><time>2026-04-10T16:51:02.775Z</time></trkpt><trkpt lat="44.4530788" lon="4.3838097"><ele>217.0</ele><time>2026-04-10T16:51:03.774Z</time></trkpt><trkpt lat="44.4529733" lon="4.3837128"><ele>216.0</ele><time>2026-04-10T16:51:04.774Z</time></trkpt><trkpt lat="44.452883" lon="4.3836134"><ele>215.0</ele><time>2026-04-10T16:51:05.784Z</time></trkpt><trkpt lat="44.4527955" lon="4.3835119"><ele>214.0</ele><time>2026-04-10T16:51:06.781Z</time></trkpt><trkpt lat="44.4527114" lon="4.3834168"><ele>213.0</ele><time>2026-04-10T16:51:07.776Z</time></trkpt><trkpt lat="44.4526322" lon="4.3833142"><ele>212.0</ele><time>2026-04-10T16:51:08.773Z</time></trkpt><trkpt lat="44.4525563" lon="4.383215"><ele>212.00000000000003</ele><time>2026-04-10T16:51:09.773Z</time></trkpt><trkpt lat="44.452504" lon="4.3831403"><ele>212.0</ele><time>2026-04-10T16:51:10.773Z</time></trkpt><trkpt lat="44.4524598" lon="4.3830537"><ele>212.0</ele><time>2026-04-10T16:51:11.77Z</time></trkpt><trkpt lat="44.4524173" lon="4.3829484"><ele>212.0</ele><time>2026-04-10T16:51:12.773Z</time></trkpt><trkpt lat="44.4523797" lon="4.3827995"><ele>212.00000000000003</ele><time>2026-04-10T16:51:14.77Z</time></trkpt><trkpt lat="44.4523618" lon="4.3826875"><ele>212.0</ele><time>2026-04-10T16:51:16.773Z</time></trkpt><trkpt lat="44.4518402" lon="4.3828924"><ele>209.0</ele><time>2026-04-10T16:51:44.77Z</time></trkpt><trkpt lat="44.4523435" lon="4.384577"><ele>209.0</ele><time>2026-04-10T16:51:59.779Z</time></trkpt><trkpt lat="44.4524006" lon="4.3846709"><ele>209.0</ele><time>2026-04-10T16:52:00.778Z</time></trkpt><trkpt lat="44.4517409" lon="4.3861231"><ele>205.5</ele><time>2026-04-10T16:52:17.787Z</time></trkpt><trkpt lat="44.4518326" lon="4.3861952"><ele>202.0</ele><time>2026-04-10T16:52:18.781Z</time></trkpt><trkpt lat="44.4519129" lon="4.3862645"><ele>198.5</ele><time>2026-04-10T16:52:19.776Z</time></trkpt><trkpt lat="44.4519025" lon="4.3864768"><ele>195.0</ele><time>2026-04-10T16:52:20.783Z</time></trkpt><trkpt lat="44.4519196" lon="4.3866349"><ele>194.66666666666666</ele><time>2026-04-10T16:52:21.776Z</time></trkpt><trkpt lat="44.4519655" lon="4.3867743"><ele>194.33333333333331</ele><time>2026-04-10T16:52:22.772Z</time></trkpt><trkpt lat="44.4520165" lon="4.3868895"><ele>194.0</ele><time>2026-04-10T16:52:23.774Z</time></trkpt><trkpt lat="44.4520556" lon="4.3869862"><ele>193.66666666666666</ele><time>2026-04-10T16:52:24.772Z</time></trkpt><trkpt lat="44.4520917" lon="4.3870604"><ele>193.33333333333331</ele><time>2026-04-10T16:52:25.772Z</time></trkpt><trkpt lat="44.452144" lon="4.3871553"><ele>193.0</ele><time>2026-04-10T16:52:27.779Z</time></trkpt><trkpt lat="44.4521886" lon="4.3872442"><ele>195.0</ele><time>2026-04-10T16:52:29.773Z</time></trkpt><trkpt lat="44.4515059" lon="4.3858996"><ele>205.0</ele><time>2026-04-10T16:54:20.779Z</time></trkpt><trkpt lat="44.4524243" lon="4.3846885"><ele>210.0</ele><time>2026-04-10T16:54:35.775Z</time></trkpt><trkpt lat="44.451891" lon="4.3827942"><ele>209.0</ele><time>2026-04-10T16:54:50.773Z</time></trkpt><trkpt lat="44.4530164" lon="4.3818948"><ele>211.0</ele><time>2026-04-10T16:55:05.774Z</time></trkpt><trkpt lat="44.4524627" lon="4.3794547"><ele>211.0</ele><time>2026-04-10T16:55:19.772Z</time></trkpt><trkpt lat="44.4524418" lon="4.3792628"><ele>211.0</ele><time>2026-04-10T16:55:20.77Z</time></trkpt><trkpt lat="44.4519432" lon="4.3784059"><ele>206.0</ele><time>2026-04-10T16:55:25.774Z</time></trkpt><trkpt lat="44.4509472" lon="4.3769423"><ele>193.0</ele><time>2026-04-10T16:55:35.769Z</time></trkpt><trkpt lat="44.4502497" lon="4.3747854"><ele>195.5</ele><time>2026-04-10T16:55:57.769Z</time></trkpt><trkpt lat="44.4501654" lon="4.3746593"><ele>198.0</ele><time>2026-04-10T16:55:58.769Z</time></trkpt><trkpt lat="44.4493509" lon="4.3726312"><ele>202.0</ele><time>2026-04-10T16:56:11.768Z</time></trkpt><trkpt lat="44.4491974" lon="4.3718697"><ele>194.0</ele><time>2026-04-10T16:56:16.778Z</time></trkpt><trkpt lat="44.4480835" lon="4.3704603"><ele>195.0</ele><time>2026-04-10T16:56:26.774Z</time></trkpt><trkpt lat="44.4477445" lon="4.3692524"><ele>180.0</ele><time>2026-04-10T16:56:33.771Z</time></trkpt><trkpt lat="44.4477626" lon="4.3671708"><ele>155.0</ele><time>2026-04-10T16:56:43.773Z</time></trkpt><trkpt lat="44.4474456" lon="4.361809"><ele>155.0</ele><time>2026-04-10T16:57:12.772Z</time></trkpt><trkpt lat="44.4474732" lon="4.3615991"><ele>155.0</ele><time>2026-04-10T16:57:13.768Z</time></trkpt><trkpt lat="44.4475519" lon="4.3614211"><ele>155.0</ele><time>2026-04-10T16:57:14.774Z</time></trkpt><trkpt lat="44.4480434" lon="4.361011"><ele>139.0</ele><time>2026-04-10T16:57:18.772Z</time></trkpt><trkpt lat="44.4491049" lon="4.3573326"><ele>135.0</ele><time>2026-04-10T16:57:35.767Z</time></trkpt><trkpt lat="44.4494427" lon="4.3564474"><ele>133.0</ele><time>2026-04-10T16:57:40.775Z</time></trkpt><trkpt lat="44.4494357" lon="4.353619"><ele>130.0</ele><time>2026-04-10T16:57:57.774Z</time></trkpt><trkpt lat="44.4491252" lon="4.3521368"><ele>130.0</ele><time>2026-04-10T16:58:05.773Z</time></trkpt><trkpt lat="44.4490804" lon="4.3519776"><ele>130.0</ele><time>2026-04-10T16:58:06.774Z</time></trkpt><trkpt lat="44.4489588" lon="4.3517283"><ele>130.0</ele><time>2026-04-10T16:58:08.773Z</time></trkpt><trkpt lat="44.4490465" lon="4.3510973"><ele>127.0</ele><time>2026-04-10T16:58:13.771Z</time></trkpt><trkpt lat="44.4496147" lon="4.3499138"><ele>128.0</ele><time>2026-04-10T16:58:22.77Z</time></trkpt><trkpt lat="44.4497939" lon="4.349118"><ele>124.0</ele><time>2026-04-10T16:58:27.768Z</time></trkpt><trkpt lat="44.4501626" lon="4.3484266"><ele>122.0</ele><time>2026-04-10T16:58:35.771Z</time></trkpt><trkpt lat="44.4502623" lon="4.3477227"><ele>122.33333333333333</ele><time>2026-04-10T16:58:48.769Z</time></trkpt><trkpt lat="44.4505945" lon="4.3475998"><ele>122.66666666666666</ele><time>2026-04-10T16:58:52.772Z</time></trkpt><trkpt lat="44.450676" lon="4.3475515"><ele>123.0</ele><time>2026-04-10T16:58:53.777Z</time></trkpt><trkpt lat="44.4520208" lon="4.3464457"><ele>123.0</ele><time>2026-04-10T16:59:10.771Z</time></trkpt><trkpt lat="44.4530121" lon="4.3455658"><ele>122.5</ele><time>2026-04-10T16:59:22.784Z</time></trkpt><trkpt lat="44.4531579" lon="4.3454545"><ele>122.0</ele><time>2026-04-10T16:59:24.774Z</time></trkpt><trkpt lat="44.4534417" lon="4.3452102"><ele>125.0</ele><time>2026-04-10T16:59:28.773Z</time></trkpt><trkpt lat="44.4538777" lon="4.3448379"><ele>124.0</ele><time>2026-04-10T16:59:34.782Z</time></trkpt><trkpt lat="44.4551076" lon="4.3437879"><ele>124.0</ele><time>2026-04-10T16:59:49.784Z</time></trkpt><trkpt lat="44.4553291" lon="4.3433392"><ele>124.0</ele><time>2026-04-10T16:59:55.779Z</time></trkpt><trkpt lat="44.4541793" lon="4.3421732"><ele>122.0</ele><time>2026-04-10T17:00:10.779Z</time></trkpt><trkpt lat="44.4537303" lon="4.3417782"><ele>120.0</ele><time>2026-04-10T17:00:29.769Z</time></trkpt><trkpt lat="44.4534459" lon="4.3397809"><ele>120.5</ele><time>2026-04-10T17:01:22.775Z</time></trkpt><trkpt lat="44.4534883" lon="4.3397066"><ele>121.0</ele><time>2026-04-10T17:01:24.768Z</time></trkpt><trkpt lat="44.4539745" lon="4.3399852"><ele>119.0</ele><time>2026-04-10T17:01:37.778Z</time></trkpt><trkpt lat="44.4546447" lon="4.3396756"><ele>115.0</ele><time>2026-04-10T17:01:54.785Z</time></trkpt><trkpt lat="44.4554086" lon="4.3377126"><ele>122.0</ele><time>2026-04-10T17:02:13.778Z</time></trkpt><trkpt lat="44.4555979" lon="4.3371414"><ele>122.0</ele><time>2026-04-10T17:02:22.768Z</time></trkpt><trkpt lat="44.4555511" lon="4.336911"><ele>122.0</ele><time>2026-04-10T17:02:25.773Z</time></trkpt><trkpt lat="44.4555261" lon="4.3367525"><ele>122.0</ele><time>2026-04-10T17:02:27.773Z</time></trkpt><trkpt lat="44.4553415" lon="4.3362645"><ele>121.5</ele><time>2026-04-10T17:02:38.777Z</time></trkpt><trkpt lat="44.4555148" lon="4.3357815"><ele>121.0</ele><time>2026-04-10T17:03:10.77Z</time></trkpt><trkpt lat="44.4554508" lon="4.3357834"><ele>119.0</ele><time>2026-04-10T17:23:07.771Z</time></trkpt><trkpt lat="44.4553864" lon="4.3357592"><ele>119.0</ele><time>2026-04-10T17:23:17.773Z</time></trkpt><trkpt lat="44.45535" lon="4.335841"><ele>119.0</ele><time>2026-04-10T17:24:04.774Z</time></trkpt></trkseg></trk></gpx>